<?xml version='1.0' encoding='UTF-8'?><gpx version="1.1" creator="JPX - https://github.com/jenetics/jpx" xmlns="http://www.topografix.com/GPX/1/1"><trk><trkseg><trkpt lat="39.597604" lon="-0.5582509"><ele>106.0</ele><time>2026-04-04T06:57:42.609Z</time></trkpt><trkpt lat="39.5976353" lon="-0.5583231"><ele>106.0</ele><time>2026-04-04T06:57:44.609Z</time></trkpt><trkpt lat="39.5976745" lon="-0.5583925"><ele>106.0</ele><time>2026-04-04T06:57:46.609Z</time></trkpt><trkpt lat="39.5977685" lon="-0.5585568"><ele>106.0</ele><time>2026-04-04T06:57:49.609Z</time></trkpt><trkpt lat="39.5978337" lon="-0.5586318"><ele>106.0</ele><time>2026-04-04T06:57:50.607Z</time></trkpt><trkpt lat="39.5979082" lon="-0.5586984"><ele>105.50000000000001</ele><time>2026-04-04T06:57:51.608Z</time></trkpt><trkpt lat="39.5979787" lon="-0.5587665"><ele>105.0</ele><time>2026-04-04T06:57:52.609Z</time></trkpt><trkpt lat="39.5980494" lon="-0.5588356"><ele>104.5</ele><time>2026-04-04T06:57:53.609Z</time></trkpt><trkpt lat="39.59812" lon="-0.5589066"><ele>104.0</ele><time>2026-04-04T06:57:54.609Z</time></trkpt><trkpt lat="39.5981872" lon="-0.5589769"><ele>103.50000000000001</ele><time>2026-04-04T06:57:55.609Z</time></trkpt><trkpt lat="39.5982513" lon="-0.5590451"><ele>103.0</ele><time>2026-04-04T06:57:56.61Z</time></trkpt><trkpt lat="39.5983139" lon="-0.5591029"><ele>103.0</ele><time>2026-04-04T06:57:57.608Z</time></trkpt><trkpt lat="39.5983839" lon="-0.5591602"><ele>103.0</ele><time>2026-04-04T06:57:58.607Z</time></trkpt><trkpt lat="39.5984672" lon="-0.5592026"><ele>103.0</ele><time>2026-04-04T06:57:59.608Z</time></trkpt><trkpt lat="39.5985696" lon="-0.5592391"><ele>103.0</ele><time>2026-04-04T06:58:00.609Z</time></trkpt><trkpt lat="39.5986557" lon="-0.5592631"><ele>103.0</ele><time>2026-04-04T06:58:01.608Z</time></trkpt><trkpt lat="39.5987382" lon="-0.5593056"><ele>103.0</ele><time>2026-04-04T06:58:02.608Z</time></trkpt><trkpt lat="39.5988138" lon="-0.5593649"><ele>103.0</ele><time>2026-04-04T06:58:03.609Z</time></trkpt><trkpt lat="39.5988864" lon="-0.5594564"><ele>103.0</ele><time>2026-04-04T06:58:04.61Z</time></trkpt><trkpt lat="39.5989473" lon="-0.5595641"><ele>103.0</ele><time>2026-04-04T06:58:05.608Z</time></trkpt><trkpt lat="39.5990122" lon="-0.55967"><ele>103.0</ele><time>2026-04-04T06:58:06.608Z</time></trkpt><trkpt lat="39.5990925" lon="-0.5597647"><ele>103.0</ele><time>2026-04-04T06:58:07.61Z</time></trkpt><trkpt lat="39.5991788" lon="-0.559849"><ele>103.0</ele><time>2026-04-04T06:58:08.608Z</time></trkpt><trkpt lat="39.5992682" lon="-0.5599291"><ele>103.0</ele><time>2026-04-04T06:58:09.608Z</time></trkpt><trkpt lat="39.5993615" lon="-0.560013"><ele>103.0</ele><time>2026-04-04T06:58:10.608Z</time></trkpt><trkpt lat="39.5994631" lon="-0.5601066"><ele>103.0</ele><time>2026-04-04T06:58:11.608Z</time></trkpt><trkpt lat="39.5995608" lon="-0.5601979"><ele>103.0</ele><time>2026-04-04T06:58:12.609Z</time></trkpt><trkpt lat="39.5996644" lon="-0.5602953"><ele>103.0</ele><time>2026-04-04T06:58:13.608Z</time></trkpt><trkpt lat="39.5997671" lon="-0.5603888"><ele>103.0</ele><time>2026-04-04T06:58:14.607Z</time></trkpt><trkpt lat="39.5998629" lon="-0.5604808"><ele>102.25</ele><time>2026-04-04T06:58:15.609Z</time></trkpt><trkpt lat="39.5999561" lon="-0.5605711"><ele>101.5</ele><time>2026-04-04T06:58:16.608Z</time></trkpt><trkpt lat="39.6000545" lon="-0.5606588"><ele>100.75</ele><time>2026-04-04T06:58:17.608Z</time></trkpt><trkpt lat="39.6001516" lon="-0.560749"><ele>100.0</ele><time>2026-04-04T06:58:18.61Z</time></trkpt><trkpt lat="39.6002664" lon="-0.5608518"><ele>100.75</ele><time>2026-04-04T06:58:19.608Z</time></trkpt><trkpt lat="39.6003837" lon="-0.5609608"><ele>101.5</ele><time>2026-04-04T06:58:20.61Z</time></trkpt><trkpt lat="39.6004982" lon="-0.5610709"><ele>102.25</ele><time>2026-04-04T06:58:21.607Z</time></trkpt><trkpt lat="39.6006131" lon="-0.5611725"><ele>103.0</ele><time>2026-04-04T06:58:22.609Z</time></trkpt><trkpt lat="39.6007266" lon="-0.5612761"><ele>103.0</ele><time>2026-04-04T06:58:23.609Z</time></trkpt><trkpt lat="39.6008408" lon="-0.5613809"><ele>103.0</ele><time>2026-04-04T06:58:24.608Z</time></trkpt><trkpt lat="39.6009636" lon="-0.5614928"><ele>103.0</ele><time>2026-04-04T06:58:25.608Z</time></trkpt><trkpt lat="39.6010889" lon="-0.561606"><ele>103.0</ele><time>2026-04-04T06:58:26.608Z</time></trkpt><trkpt lat="39.6012003" lon="-0.5617114"><ele>103.25</ele><time>2026-04-04T06:58:27.608Z</time></trkpt><trkpt lat="39.6012992" lon="-0.5618058"><ele>103.5</ele><time>2026-04-04T06:58:28.609Z</time></trkpt><trkpt lat="39.6013923" lon="-0.5618951"><ele>103.75</ele><time>2026-04-04T06:58:29.608Z</time></trkpt><trkpt lat="39.6014901" lon="-0.5619827"><ele>104.0</ele><time>2026-04-04T06:58:30.609Z</time></trkpt><trkpt lat="39.6015912" lon="-0.5620778"><ele>104.0</ele><time>2026-04-04T06:58:31.609Z</time></trkpt><trkpt lat="39.6016921" lon="-0.5621745"><ele>104.0</ele><time>2026-04-04T06:58:32.608Z</time></trkpt><trkpt lat="39.601804" lon="-0.5622769"><ele>104.0</ele><time>2026-04-04T06:58:33.609Z</time></trkpt><trkpt lat="39.6019094" lon="-0.5623767"><ele>104.0</ele><time>2026-04-04T06:58:34.608Z</time></trkpt><trkpt lat="39.602017" lon="-0.5624772"><ele>104.5</ele><time>2026-04-04T06:58:35.608Z</time></trkpt><trkpt lat="39.6021196" lon="-0.5625718"><ele>105.0</ele><time>2026-04-04T06:58:36.609Z</time></trkpt><trkpt lat="39.6022239" lon="-0.5626683"><ele>105.5</ele><time>2026-04-04T06:58:37.609Z</time></trkpt><trkpt lat="39.6023252" lon="-0.5627624"><ele>106.0</ele><time>2026-04-04T06:58:38.608Z</time></trkpt><trkpt lat="39.6024317" lon="-0.5628557"><ele>105.5</ele><time>2026-04-04T06:58:39.609Z</time></trkpt><trkpt lat="39.6025418" lon="-0.5629591"><ele>105.0</ele><time>2026-04-04T06:58:40.608Z</time></trkpt><trkpt lat="39.6026492" lon="-0.5630518"><ele>104.5</ele><time>2026-04-04T06:58:41.608Z</time></trkpt><trkpt lat="39.6027565" lon="-0.5631549"><ele>104.0</ele><time>2026-04-04T06:58:42.608Z</time></trkpt><trkpt lat="39.6028601" lon="-0.5632558"><ele>104.0</ele><time>2026-04-04T06:58:43.609Z</time></trkpt><trkpt lat="39.6029702" lon="-0.5633535"><ele>104.0</ele><time>2026-04-04T06:58:44.608Z</time></trkpt><trkpt lat="39.6030802" lon="-0.5634495"><ele>104.0</ele><time>2026-04-04T06:58:45.608Z</time></trkpt><trkpt lat="39.6031919" lon="-0.5635498"><ele>104.0</ele><time>2026-04-04T06:58:46.609Z</time></trkpt><trkpt lat="39.6032954" lon="-0.563641"><ele>104.0</ele><time>2026-04-04T06:58:47.608Z</time></trkpt><trkpt lat="39.6033871" lon="-0.5637281"><ele>104.0</ele><time>2026-04-04T06:58:48.61Z</time></trkpt><trkpt lat="39.6034626" lon="-0.563797"><ele>104.0</ele><time>2026-04-04T06:58:49.61Z</time></trkpt><trkpt lat="39.6035205" lon="-0.5638419"><ele>104.0</ele><time>2026-04-04T06:58:50.609Z</time></trkpt><trkpt lat="39.6036067" lon="-0.5638699"><ele>104.0</ele><time>2026-04-04T06:58:52.608Z</time></trkpt><trkpt lat="39.6037333" lon="-0.5638976"><ele>104.33333333333333</ele><time>2026-04-04T06:58:54.61Z</time></trkpt><trkpt lat="39.603796" lon="-0.5639474"><ele>104.66666666666666</ele><time>2026-04-04T06:58:55.607Z</time></trkpt><trkpt lat="39.6038564" lon="-0.564027"><ele>105.0</ele><time>2026-04-04T06:58:56.608Z</time></trkpt><trkpt lat="39.6039088" lon="-0.5641238"><ele>105.33333333333334</ele><time>2026-04-04T06:58:57.608Z</time></trkpt><trkpt lat="39.6039657" lon="-0.5642188"><ele>105.66666666666667</ele><time>2026-04-04T06:58:58.609Z</time></trkpt><trkpt lat="39.6040361" lon="-0.5643055"><ele>106.0</ele><time>2026-04-04T06:58:59.608Z</time></trkpt><trkpt lat="39.6041187" lon="-0.564392"><ele>106.0</ele><time>2026-04-04T06:59:00.61Z</time></trkpt><trkpt lat="39.6042066" lon="-0.5644842"><ele>106.0</ele><time>2026-04-04T06:59:01.608Z</time></trkpt><trkpt lat="39.604301" lon="-0.5645805"><ele>106.0</ele><time>2026-04-04T06:59:02.609Z</time></trkpt><trkpt lat="39.6043941" lon="-0.5646764"><ele>106.0</ele><time>2026-04-04T06:59:03.61Z</time></trkpt><trkpt lat="39.6044945" lon="-0.5647745"><ele>106.25</ele><time>2026-04-04T06:59:04.608Z</time></trkpt><trkpt lat="39.6045999" lon="-0.5648809"><ele>106.5</ele><time>2026-04-04T06:59:05.608Z</time></trkpt><trkpt lat="39.604706" lon="-0.5649853"><ele>106.75</ele><time>2026-04-04T06:59:06.608Z</time></trkpt><trkpt lat="39.6048092" lon="-0.5650964"><ele>107.0</ele><time>2026-04-04T06:59:07.61Z</time></trkpt><trkpt lat="39.6049186" lon="-0.5652016"><ele>107.0</ele><time>2026-04-04T06:59:08.608Z</time></trkpt><trkpt lat="39.6050229" lon="-0.565315"><ele>107.0</ele><time>2026-04-04T06:59:09.608Z</time></trkpt><trkpt lat="39.6051368" lon="-0.5654331"><ele>107.0</ele><time>2026-04-04T06:59:10.608Z</time></trkpt><trkpt lat="39.6052476" lon="-0.5655527"><ele>107.0</ele><time>2026-04-04T06:59:11.608Z</time></trkpt><trkpt lat="39.6053555" lon="-0.5656659"><ele>107.0</ele><time>2026-04-04T06:59:12.607Z</time></trkpt><trkpt lat="39.6054671" lon="-0.5657804"><ele>107.0</ele><time>2026-04-04T06:59:13.607Z</time></trkpt><trkpt lat="39.6055838" lon="-0.5659036"><ele>107.0</ele><time>2026-04-04T06:59:14.61Z</time></trkpt><trkpt lat="39.6056958" lon="-0.5660261"><ele>107.0</ele><time>2026-04-04T06:59:15.609Z</time></trkpt><trkpt lat="39.6058042" lon="-0.5661409"><ele>106.75</ele><time>2026-04-04T06:59:16.608Z</time></trkpt><trkpt lat="39.6059146" lon="-0.5662551"><ele>106.5</ele><time>2026-04-04T06:59:17.608Z</time></trkpt><trkpt lat="39.6060139" lon="-0.5663676"><ele>106.25</ele><time>2026-04-04T06:59:18.61Z</time></trkpt><trkpt lat="39.6061202" lon="-0.5664692"><ele>106.0</ele><time>2026-04-04T06:59:19.609Z</time></trkpt><trkpt lat="39.6062236" lon="-0.5665435"><ele>106.4</ele><time>2026-04-04T06:59:20.608Z</time></trkpt><trkpt lat="39.606326" lon="-0.5666028"><ele>106.8</ele><time>2026-04-04T06:59:21.61Z</time></trkpt><trkpt lat="39.6064277" lon="-0.566644"><ele>107.20000000000002</ele><time>2026-04-04T06:59:22.609Z</time></trkpt><trkpt lat="39.6065251" lon="-0.566662"><ele>107.60000000000001</ele><time>2026-04-04T06:59:23.61Z</time></trkpt><trkpt lat="39.6066186" lon="-0.5666449"><ele>108.0</ele><time>2026-04-04T06:59:24.609Z</time></trkpt><trkpt lat="39.606708" lon="-0.5666217"><ele>108.0</ele><time>2026-04-04T06:59:25.609Z</time></trkpt><trkpt lat="39.6067988" lon="-0.5666361"><ele>108.00000000000001</ele><time>2026-04-04T06:59:26.609Z</time></trkpt><trkpt lat="39.606884" lon="-0.5666773"><ele>108.00000000000001</ele><time>2026-04-04T06:59:27.608Z</time></trkpt><trkpt lat="39.6069477" lon="-0.5667498"><ele>108.0</ele><time>2026-04-04T06:59:28.61Z</time></trkpt><trkpt lat="39.6069866" lon="-0.5668507"><ele>108.0</ele><time>2026-04-04T06:59:29.609Z</time></trkpt><trkpt lat="39.6070084" lon="-0.5669855"><ele>108.25</ele><time>2026-04-04T06:59:30.607Z</time></trkpt><trkpt lat="39.6070356" lon="-0.5671339"><ele>108.5</ele><time>2026-04-04T06:59:31.609Z</time></trkpt><trkpt lat="39.6070911" lon="-0.5672912"><ele>108.75</ele><time>2026-04-04T06:59:32.609Z</time></trkpt><trkpt lat="39.6071693" lon="-0.5674673"><ele>109.0</ele><time>2026-04-04T06:59:33.61Z</time></trkpt><trkpt lat="39.6072653" lon="-0.5676436"><ele>109.0</ele><time>2026-04-04T06:59:34.608Z</time></trkpt><trkpt lat="39.6073616" lon="-0.5678216"><ele>109.0</ele><time>2026-04-04T06:59:35.609Z</time></trkpt><trkpt lat="39.6074585" lon="-0.567988"><ele>109.0</ele><time>2026-04-04T06:59:36.607Z</time></trkpt><trkpt lat="39.607554" lon="-0.5681483"><ele>108.75</ele><time>2026-04-04T06:59:37.608Z</time></trkpt><trkpt lat="39.6076426" lon="-0.5683008"><ele>108.5</ele><time>2026-04-04T06:59:38.61Z</time></trkpt><trkpt lat="39.6077229" lon="-0.5684383"><ele>108.25</ele><time>2026-04-04T06:59:39.61Z</time></trkpt><trkpt lat="39.6078023" lon="-0.5685723"><ele>108.0</ele><time>2026-04-04T06:59:40.609Z</time></trkpt><trkpt lat="39.6078822" lon="-0.5687049"><ele>108.0</ele><time>2026-04-04T06:59:41.608Z</time></trkpt><trkpt lat="39.6079635" lon="-0.5688327"><ele>108.0</ele><time>2026-04-04T06:59:42.608Z</time></trkpt><trkpt lat="39.6080625" lon="-0.5689442"><ele>108.0</ele><time>2026-04-04T06:59:43.608Z</time></trkpt><trkpt lat="39.6081606" lon="-0.5690366"><ele>108.0</ele><time>2026-04-04T06:59:44.609Z</time></trkpt><trkpt lat="39.6082658" lon="-0.569105"><ele>108.0</ele><time>2026-04-04T06:59:45.609Z</time></trkpt><trkpt lat="39.6083692" lon="-0.5691906"><ele>108.0</ele><time>2026-04-04T06:59:46.608Z</time></trkpt><trkpt lat="39.6084694" lon="-0.569305"><ele>108.0</ele><time>2026-04-04T06:59:47.609Z</time></trkpt><trkpt lat="39.6085497" lon="-0.5694521"><ele>108.0</ele><time>2026-04-04T06:59:48.61Z</time></trkpt><trkpt lat="39.6086364" lon="-0.5695927"><ele>109.66666666666666</ele><time>2026-04-04T06:59:49.609Z</time></trkpt><trkpt lat="39.6087542" lon="-0.5697385"><ele>111.33333333333333</ele><time>2026-04-04T06:59:50.609Z</time></trkpt><trkpt lat="39.6088851" lon="-0.5698893"><ele>113.0</ele><time>2026-04-04T06:59:51.608Z</time></trkpt><trkpt lat="39.6090273" lon="-0.5700512"><ele>113.0</ele><time>2026-04-04T06:59:52.608Z</time></trkpt><trkpt lat="39.6091578" lon="-0.5702109"><ele>113.0</ele><time>2026-04-04T06:59:53.608Z</time></trkpt><trkpt lat="39.6092828" lon="-0.5703713"><ele>113.0</ele><time>2026-04-04T06:59:54.608Z</time></trkpt><trkpt lat="39.609393" lon="-0.5705202"><ele>113.5</ele><time>2026-04-04T06:59:55.608Z</time></trkpt><trkpt lat="39.6095021" lon="-0.5706592"><ele>114.0</ele><time>2026-04-04T06:59:56.609Z</time></trkpt><trkpt lat="39.609607" lon="-0.5707866"><ele>114.5</ele><time>2026-04-04T06:59:57.609Z</time></trkpt><trkpt lat="39.6097091" lon="-0.5709161"><ele>115.0</ele><time>2026-04-04T06:59:58.608Z</time></trkpt><trkpt lat="39.6098104" lon="-0.5710462"><ele>115.0</ele><time>2026-04-04T06:59:59.608Z</time></trkpt><trkpt lat="39.6099121" lon="-0.5711784"><ele>115.0</ele><time>2026-04-04T07:00:00.608Z</time></trkpt><trkpt lat="39.610013" lon="-0.5713129"><ele>115.0</ele><time>2026-04-04T07:00:01.61Z</time></trkpt><trkpt lat="39.6101158" lon="-0.5714505"><ele>115.0</ele><time>2026-04-04T07:00:02.609Z</time></trkpt><trkpt lat="39.6102197" lon="-0.5715865"><ele>116.33333333333334</ele><time>2026-04-04T07:00:03.609Z</time></trkpt><trkpt lat="39.6103268" lon="-0.5717267"><ele>117.66666666666666</ele><time>2026-04-04T07:00:04.609Z</time></trkpt><trkpt lat="39.6104321" lon="-0.571867"><ele>119.0</ele><time>2026-04-04T07:00:05.608Z</time></trkpt><trkpt lat="39.6105402" lon="-0.5720087"><ele>119.0</ele><time>2026-04-04T07:00:06.609Z</time></trkpt><trkpt lat="39.6106462" lon="-0.5721441"><ele>119.0</ele><time>2026-04-04T07:00:07.609Z</time></trkpt><trkpt lat="39.6107467" lon="-0.5722761"><ele>119.0</ele><time>2026-04-04T07:00:08.609Z</time></trkpt><trkpt lat="39.6108493" lon="-0.5724022"><ele>119.0</ele><time>2026-04-04T07:00:09.608Z</time></trkpt><trkpt lat="39.6109525" lon="-0.5725342"><ele>119.0</ele><time>2026-04-04T07:00:10.608Z</time></trkpt><trkpt lat="39.6110523" lon="-0.5726573"><ele>119.0</ele><time>2026-04-04T07:00:11.609Z</time></trkpt><trkpt lat="39.6111512" lon="-0.5727696"><ele>119.0</ele><time>2026-04-04T07:00:12.61Z</time></trkpt><trkpt lat="39.6112481" lon="-0.5728703"><ele>119.0</ele><time>2026-04-04T07:00:13.609Z</time></trkpt><trkpt lat="39.6113549" lon="-0.5729552"><ele>120.5</ele><time>2026-04-04T07:00:14.61Z</time></trkpt><trkpt lat="39.6114547" lon="-0.5730499"><ele>122.0</ele><time>2026-04-04T07:00:15.609Z</time></trkpt><trkpt lat="39.611541" lon="-0.5731693"><ele>123.5</ele><time>2026-04-04T07:00:16.609Z</time></trkpt><trkpt lat="39.6116143" lon="-0.5733102"><ele>125.0</ele><time>2026-04-04T07:00:17.609Z</time></trkpt><trkpt lat="39.611684" lon="-0.5734416"><ele>125.0</ele><time>2026-04-04T07:00:18.608Z</time></trkpt><trkpt lat="39.6117629" lon="-0.5735684"><ele>125.0</ele><time>2026-04-04T07:00:19.609Z</time></trkpt><trkpt lat="39.6118503" lon="-0.5736889"><ele>125.0</ele><time>2026-04-04T07:00:20.609Z</time></trkpt><trkpt lat="39.6119337" lon="-0.5737994"><ele>125.0</ele><time>2026-04-04T07:00:21.609Z</time></trkpt><trkpt lat="39.6120204" lon="-0.5739121"><ele>126.25</ele><time>2026-04-04T07:00:22.608Z</time></trkpt><trkpt lat="39.612098" lon="-0.5740161"><ele>127.5</ele><time>2026-04-04T07:00:23.609Z</time></trkpt><trkpt lat="39.6121809" lon="-0.5741205"><ele>128.75</ele><time>2026-04-04T07:00:24.609Z</time></trkpt><trkpt lat="39.6122628" lon="-0.5742249"><ele>130.0</ele><time>2026-04-04T07:00:25.609Z</time></trkpt><trkpt lat="39.6123399" lon="-0.5743226"><ele>130.0</ele><time>2026-04-04T07:00:26.609Z</time></trkpt><trkpt lat="39.6124069" lon="-0.574416"><ele>130.0</ele><time>2026-04-04T07:00:27.609Z</time></trkpt><trkpt lat="39.6124794" lon="-0.5745117"><ele>130.0</ele><time>2026-04-04T07:00:28.61Z</time></trkpt><trkpt lat="39.6125533" lon="-0.5746154"><ele>130.0</ele><time>2026-04-04T07:00:29.607Z</time></trkpt><trkpt lat="39.6126328" lon="-0.5747233"><ele>130.0</ele><time>2026-04-04T07:00:30.609Z</time></trkpt><trkpt lat="39.6127145" lon="-0.5748313"><ele>130.25</ele><time>2026-04-04T07:00:31.608Z</time></trkpt><trkpt lat="39.6127953" lon="-0.5749319"><ele>130.5</ele><time>2026-04-04T07:00:32.607Z</time></trkpt><trkpt lat="39.6128676" lon="-0.5750542"><ele>130.75</ele><time>2026-04-04T07:00:33.609Z</time></trkpt><trkpt lat="39.6129447" lon="-0.5751578"><ele>131.0</ele><time>2026-04-04T07:00:34.607Z</time></trkpt><trkpt lat="39.6130326" lon="-0.5752778"><ele>131.75</ele><time>2026-04-04T07:00:35.61Z</time></trkpt><trkpt lat="39.6131296" lon="-0.5753985"><ele>132.5</ele><time>2026-04-04T07:00:36.609Z</time></trkpt><trkpt lat="39.6132178" lon="-0.5755128"><ele>133.25</ele><time>2026-04-04T07:00:37.608Z</time></trkpt><trkpt lat="39.6133106" lon="-0.5756169"><ele>134.0</ele><time>2026-04-04T07:00:38.61Z</time></trkpt><trkpt lat="39.6133962" lon="-0.5757324"><ele>134.0</ele><time>2026-04-04T07:00:39.609Z</time></trkpt><trkpt lat="39.6134847" lon="-0.5758505"><ele>134.0</ele><time>2026-04-04T07:00:40.609Z</time></trkpt><trkpt lat="39.6135733" lon="-0.575971"><ele>134.0</ele><time>2026-04-04T07:00:41.608Z</time></trkpt><trkpt lat="39.6136578" lon="-0.5760825"><ele>134.0</ele><time>2026-04-04T07:00:42.608Z</time></trkpt><trkpt lat="39.6137463" lon="-0.576178"><ele>134.5</ele><time>2026-04-04T07:00:43.608Z</time></trkpt><trkpt lat="39.6138243" lon="-0.5762943"><ele>135.0</ele><time>2026-04-04T07:00:44.609Z</time></trkpt><trkpt lat="39.61391" lon="-0.5764106"><ele>135.5</ele><time>2026-04-04T07:00:45.609Z</time></trkpt><trkpt lat="39.6140028" lon="-0.5765229"><ele>136.0</ele><time>2026-04-04T07:00:46.608Z</time></trkpt><trkpt lat="39.6140912" lon="-0.576632"><ele>136.0</ele><time>2026-04-04T07:00:47.61Z</time></trkpt><trkpt lat="39.6141821" lon="-0.5767495"><ele>136.0</ele><time>2026-04-04T07:00:48.609Z</time></trkpt><trkpt lat="39.6142663" lon="-0.5768661"><ele>136.0</ele><time>2026-04-04T07:00:49.609Z</time></trkpt><trkpt lat="39.6143563" lon="-0.5769822"><ele>136.0</ele><time>2026-04-04T07:00:50.609Z</time></trkpt><trkpt lat="39.6144454" lon="-0.5770986"><ele>134.75</ele><time>2026-04-04T07:00:51.608Z</time></trkpt><trkpt lat="39.6145395" lon="-0.5772167"><ele>133.5</ele><time>2026-04-04T07:00:52.609Z</time></trkpt><trkpt lat="39.6146318" lon="-0.5773367"><ele>132.25</ele><time>2026-04-04T07:00:53.608Z</time></trkpt><trkpt lat="39.6147214" lon="-0.577454"><ele>131.0</ele><time>2026-04-04T07:00:54.609Z</time></trkpt><trkpt lat="39.6148165" lon="-0.5775664"><ele>131.0</ele><time>2026-04-04T07:00:55.609Z</time></trkpt><trkpt lat="39.6149147" lon="-0.5776854"><ele>131.0</ele><time>2026-04-04T07:00:56.608Z</time></trkpt><trkpt lat="39.6150139" lon="-0.5778161"><ele>131.0</ele><time>2026-04-04T07:00:57.61Z</time></trkpt><trkpt lat="39.6151069" lon="-0.5779312"><ele>131.0</ele><time>2026-04-04T07:00:58.607Z</time></trkpt><trkpt lat="39.6151933" lon="-0.5780392"><ele>130.25</ele><time>2026-04-04T07:00:59.608Z</time></trkpt><trkpt lat="39.6152784" lon="-0.5781409"><ele>129.5</ele><time>2026-04-04T07:01:00.61Z</time></trkpt><trkpt lat="39.6153565" lon="-0.5782507"><ele>128.75</ele><time>2026-04-04T07:01:01.607Z</time></trkpt><trkpt lat="39.6154379" lon="-0.578359"><ele>128.0</ele><time>2026-04-04T07:01:02.608Z</time></trkpt><trkpt lat="39.6155184" lon="-0.5784617"><ele>127.99999999999999</ele><time>2026-04-04T07:01:03.609Z</time></trkpt><trkpt lat="39.6155965" lon="-0.5785581"><ele>128.0</ele><time>2026-04-04T07:01:04.609Z</time></trkpt><trkpt lat="39.6156599" lon="-0.5786308"><ele>128.0</ele><time>2026-04-04T07:01:05.607Z</time></trkpt><trkpt lat="39.6157179" lon="-0.5787009"><ele>128.0</ele><time>2026-04-04T07:01:06.608Z</time></trkpt><trkpt lat="39.6157703" lon="-0.5787715"><ele>127.99999999999999</ele><time>2026-04-04T07:01:07.608Z</time></trkpt><trkpt lat="39.6158359" lon="-0.5788508"><ele>128.0</ele><time>2026-04-04T07:01:08.608Z</time></trkpt><trkpt lat="39.615905" lon="-0.5789319"><ele>127.5</ele><time>2026-04-04T07:01:09.608Z</time></trkpt><trkpt lat="39.6159799" lon="-0.5790314"><ele>127.0</ele><time>2026-04-04T07:01:10.608Z</time></trkpt><trkpt lat="39.6160746" lon="-0.579155"><ele>126.5</ele><time>2026-04-04T07:01:11.607Z</time></trkpt><trkpt lat="39.6161745" lon="-0.5792917"><ele>126.0</ele><time>2026-04-04T07:01:12.609Z</time></trkpt><trkpt lat="39.6162737" lon="-0.5794188"><ele>126.5</ele><time>2026-04-04T07:01:13.607Z</time></trkpt><trkpt lat="39.616374" lon="-0.5795592"><ele>127.0</ele><time>2026-04-04T07:01:14.609Z</time></trkpt><trkpt lat="39.6164798" lon="-0.5796914"><ele>127.5</ele><time>2026-04-04T07:01:15.608Z</time></trkpt><trkpt lat="39.6165784" lon="-0.5798213"><ele>128.0</ele><time>2026-04-04T07:01:16.608Z</time></trkpt><trkpt lat="39.6166797" lon="-0.5799409"><ele>128.0</ele><time>2026-04-04T07:01:17.609Z</time></trkpt><trkpt lat="39.6167769" lon="-0.5800619"><ele>128.0</ele><time>2026-04-04T07:01:18.61Z</time></trkpt><trkpt lat="39.6168748" lon="-0.5801808"><ele>128.0</ele><time>2026-04-04T07:01:19.609Z</time></trkpt><trkpt lat="39.6169713" lon="-0.5802901"><ele>128.0</ele><time>2026-04-04T07:01:20.609Z</time></trkpt><trkpt lat="39.6170544" lon="-0.5803906"><ele>128.75</ele><time>2026-04-04T07:01:21.61Z</time></trkpt><trkpt lat="39.6171485" lon="-0.5804759"><ele>129.5</ele><time>2026-04-04T07:01:22.61Z</time></trkpt><trkpt lat="39.6172529" lon="-0.5805479"><ele>130.25</ele><time>2026-04-04T07:01:23.609Z</time></trkpt><trkpt lat="39.6173732" lon="-0.5805967"><ele>131.0</ele><time>2026-04-04T07:01:24.609Z</time></trkpt><trkpt lat="39.6174886" lon="-0.5806326"><ele>131.0</ele><time>2026-04-04T07:01:25.607Z</time></trkpt><trkpt lat="39.6175909" lon="-0.580686"><ele>131.0</ele><time>2026-04-04T07:01:26.609Z</time></trkpt><trkpt lat="39.617675" lon="-0.5807588"><ele>131.0</ele><time>2026-04-04T07:01:27.61Z</time></trkpt><trkpt lat="39.6177384" lon="-0.5808608"><ele>131.0</ele><time>2026-04-04T07:01:28.609Z</time></trkpt><trkpt lat="39.6177792" lon="-0.5809871"><ele>131.0</ele><time>2026-04-04T07:01:29.609Z</time></trkpt><trkpt lat="39.617801" lon="-0.5811452"><ele>130.0</ele><time>2026-04-04T07:01:30.61Z</time></trkpt><trkpt lat="39.61783" lon="-0.5813058"><ele>129.0</ele><time>2026-04-04T07:01:31.608Z</time></trkpt><trkpt lat="39.617876" lon="-0.5814763"><ele>128.0</ele><time>2026-04-04T07:01:32.609Z</time></trkpt><trkpt lat="39.6179515" lon="-0.5816531"><ele>127.0</ele><time>2026-04-04T07:01:33.608Z</time></trkpt><trkpt lat="39.6180437" lon="-0.5818304"><ele>127.0</ele><time>2026-04-04T07:01:34.608Z</time></trkpt><trkpt lat="39.6181389" lon="-0.5819981"><ele>127.0</ele><time>2026-04-04T07:01:35.608Z</time></trkpt><trkpt lat="39.618236" lon="-0.5821575"><ele>127.0</ele><time>2026-04-04T07:01:36.609Z</time></trkpt><trkpt lat="39.6183339" lon="-0.5823192"><ele>127.0</ele><time>2026-04-04T07:01:37.608Z</time></trkpt><trkpt lat="39.6184287" lon="-0.5824779"><ele>127.0</ele><time>2026-04-04T07:01:38.608Z</time></trkpt><trkpt lat="39.6185222" lon="-0.5826371"><ele>127.0</ele><time>2026-04-04T07:01:39.608Z</time></trkpt><trkpt lat="39.6186201" lon="-0.5827918"><ele>128.0</ele><time>2026-04-04T07:01:40.609Z</time></trkpt><trkpt lat="39.6187169" lon="-0.5829504"><ele>129.0</ele><time>2026-04-04T07:01:41.607Z</time></trkpt><trkpt lat="39.6188125" lon="-0.5831089"><ele>130.0</ele><time>2026-04-04T07:01:42.607Z</time></trkpt><trkpt lat="39.6189118" lon="-0.5832708"><ele>130.0</ele><time>2026-04-04T07:01:43.608Z</time></trkpt><trkpt lat="39.6190121" lon="-0.583433"><ele>130.0</ele><time>2026-04-04T07:01:44.608Z</time></trkpt><trkpt lat="39.6191177" lon="-0.5836033"><ele>130.0</ele><time>2026-04-04T07:01:45.61Z</time></trkpt><trkpt lat="39.6192196" lon="-0.5837639"><ele>129.33333333333334</ele><time>2026-04-04T07:01:46.61Z</time></trkpt><trkpt lat="39.6193174" lon="-0.5839167"><ele>128.66666666666666</ele><time>2026-04-04T07:01:47.609Z</time></trkpt><trkpt lat="39.6194114" lon="-0.5840699"><ele>128.0</ele><time>2026-04-04T07:01:48.61Z</time></trkpt><trkpt lat="39.6195079" lon="-0.5842217"><ele>128.0</ele><time>2026-04-04T07:01:49.608Z</time></trkpt><trkpt lat="39.619602" lon="-0.5843697"><ele>128.0</ele><time>2026-04-04T07:01:50.608Z</time></trkpt><trkpt lat="39.6196941" lon="-0.5845177"><ele>128.0</ele><time>2026-04-04T07:01:51.609Z</time></trkpt><trkpt lat="39.6197868" lon="-0.5846645"><ele>128.0</ele><time>2026-04-04T07:01:52.607Z</time></trkpt><trkpt lat="39.619882" lon="-0.5848097"><ele>128.25</ele><time>2026-04-04T07:01:53.608Z</time></trkpt><trkpt lat="39.6199725" lon="-0.5849549"><ele>128.5</ele><time>2026-04-04T07:01:54.607Z</time></trkpt><trkpt lat="39.6200617" lon="-0.5851062"><ele>128.75</ele><time>2026-04-04T07:01:55.608Z</time></trkpt><trkpt lat="39.6201543" lon="-0.5852611"><ele>129.0</ele><time>2026-04-04T07:01:56.609Z</time></trkpt><trkpt lat="39.620251" lon="-0.5854078"><ele>129.33333333333334</ele><time>2026-04-04T07:01:57.609Z</time></trkpt><trkpt lat="39.6203472" lon="-0.585569"><ele>129.66666666666669</ele><time>2026-04-04T07:01:58.608Z</time></trkpt><trkpt lat="39.62044" lon="-0.5857246"><ele>130.0</ele><time>2026-04-04T07:01:59.61Z</time></trkpt><trkpt lat="39.6205269" lon="-0.5858737"><ele>130.0</ele><time>2026-04-04T07:02:00.61Z</time></trkpt><trkpt lat="39.6206152" lon="-0.5860195"><ele>130.0</ele><time>2026-04-04T07:02:01.608Z</time></trkpt><trkpt lat="39.6207019" lon="-0.5861674"><ele>130.0</ele><time>2026-04-04T07:02:02.608Z</time></trkpt><trkpt lat="39.6207887" lon="-0.5863156"><ele>130.0</ele><time>2026-04-04T07:02:03.61Z</time></trkpt><trkpt lat="39.6208781" lon="-0.5864623"><ele>130.5</ele><time>2026-04-04T07:02:04.609Z</time></trkpt><trkpt lat="39.6209684" lon="-0.5866053"><ele>131.0</ele><time>2026-04-04T07:02:05.609Z</time></trkpt><trkpt lat="39.6210541" lon="-0.5867518"><ele>131.5</ele><time>2026-04-04T07:02:06.609Z</time></trkpt><trkpt lat="39.6211322" lon="-0.5868787"><ele>132.0</ele><time>2026-04-04T07:02:07.609Z</time></trkpt><trkpt lat="39.6212036" lon="-0.587001"><ele>132.4</ele><time>2026-04-04T07:02:08.608Z</time></trkpt><trkpt lat="39.6212654" lon="-0.5871083"><ele>132.79999999999998</ele><time>2026-04-04T07:02:09.609Z</time></trkpt><trkpt lat="39.6213323" lon="-0.5872004"><ele>133.2</ele><time>2026-04-04T07:02:10.607Z</time></trkpt><trkpt lat="39.6214006" lon="-0.5872554"><ele>133.6</ele><time>2026-04-04T07:02:11.61Z</time></trkpt><trkpt lat="39.6214791" lon="-0.5873099"><ele>134.0</ele><time>2026-04-04T07:02:12.61Z</time></trkpt><trkpt lat="39.6215436" lon="-0.5873784"><ele>134.0</ele><time>2026-04-04T07:02:13.608Z</time></trkpt><trkpt lat="39.6215933" lon="-0.5874703"><ele>134.0</ele><time>2026-04-04T07:02:14.61Z</time></trkpt><trkpt lat="39.6216179" lon="-0.5875863"><ele>134.0</ele><time>2026-04-04T07:02:15.608Z</time></trkpt><trkpt lat="39.6216395" lon="-0.5877169"><ele>134.0</ele><time>2026-04-04T07:02:16.609Z</time></trkpt><trkpt lat="39.6216783" lon="-0.587844"><ele>134.0</ele><time>2026-04-04T07:02:17.609Z</time></trkpt><trkpt lat="39.6217489" lon="-0.5879599"><ele>135.25</ele><time>2026-04-04T07:02:18.608Z</time></trkpt><trkpt lat="39.6218425" lon="-0.5880893"><ele>136.5</ele><time>2026-04-04T07:02:19.61Z</time></trkpt><trkpt lat="39.6219358" lon="-0.5882087"><ele>137.75</ele><time>2026-04-04T07:02:20.608Z</time></trkpt><trkpt lat="39.622031" lon="-0.588319"><ele>139.0</ele><time>2026-04-04T07:02:21.609Z</time></trkpt><trkpt lat="39.6221264" lon="-0.5884275"><ele>139.0</ele><time>2026-04-04T07:02:22.609Z</time></trkpt><trkpt lat="39.6222229" lon="-0.5885266"><ele>139.0</ele><time>2026-04-04T07:02:23.609Z</time></trkpt><trkpt lat="39.622319" lon="-0.5886166"><ele>139.0</ele><time>2026-04-04T07:02:24.609Z</time></trkpt><trkpt lat="39.622421" lon="-0.5886789"><ele>139.0</ele><time>2026-04-04T07:02:25.609Z</time></trkpt><trkpt lat="39.6225166" lon="-0.5887533"><ele>140.25</ele><time>2026-04-04T07:02:26.609Z</time></trkpt><trkpt lat="39.6226113" lon="-0.5888516"><ele>141.5</ele><time>2026-04-04T07:02:27.61Z</time></trkpt><trkpt lat="39.6227081" lon="-0.588975"><ele>142.75</ele><time>2026-04-04T07:02:28.609Z</time></trkpt><trkpt lat="39.6227999" lon="-0.5890952"><ele>144.0</ele><time>2026-04-04T07:02:29.609Z</time></trkpt><trkpt lat="39.6228938" lon="-0.589184"><ele>144.0</ele><time>2026-04-04T07:02:30.609Z</time></trkpt><trkpt lat="39.623003" lon="-0.5892782"><ele>144.0</ele><time>2026-04-04T07:02:31.609Z</time></trkpt><trkpt lat="39.6231181" lon="-0.5893626"><ele>144.0</ele><time>2026-04-04T07:02:32.608Z</time></trkpt><trkpt lat="39.6232329" lon="-0.5894458"><ele>144.0</ele><time>2026-04-04T07:02:33.609Z</time></trkpt><trkpt lat="39.6233518" lon="-0.589531"><ele>145.0</ele><time>2026-04-04T07:02:34.609Z</time></trkpt><trkpt lat="39.6234749" lon="-0.5896121"><ele>146.0</ele><time>2026-04-04T07:02:35.609Z</time></trkpt><trkpt lat="39.6235942" lon="-0.5896897"><ele>147.0</ele><time>2026-04-04T07:02:36.609Z</time></trkpt><trkpt lat="39.6237092" lon="-0.5897702"><ele>148.0</ele><time>2026-04-04T07:02:37.609Z</time></trkpt><trkpt lat="39.6238267" lon="-0.5898525"><ele>148.0</ele><time>2026-04-04T07:02:38.607Z</time></trkpt><trkpt lat="39.6239456" lon="-0.5899316"><ele>148.0</ele><time>2026-04-04T07:02:39.609Z</time></trkpt><trkpt lat="39.6240649" lon="-0.5900094"><ele>148.0</ele><time>2026-04-04T07:02:40.608Z</time></trkpt><trkpt lat="39.6241936" lon="-0.5900965"><ele>148.0</ele><time>2026-04-04T07:02:41.608Z</time></trkpt><trkpt lat="39.6243154" lon="-0.5901797"><ele>148.0</ele><time>2026-04-04T07:02:42.609Z</time></trkpt><trkpt lat="39.6244301" lon="-0.5902568"><ele>148.0</ele><time>2026-04-04T07:02:43.609Z</time></trkpt><trkpt lat="39.6245499" lon="-0.59032"><ele>148.0</ele><time>2026-04-04T07:02:44.608Z</time></trkpt><trkpt lat="39.6246648" lon="-0.5903885"><ele>148.0</ele><time>2026-04-04T07:02:45.609Z</time></trkpt><trkpt lat="39.624783" lon="-0.5904556"><ele>150.0</ele><time>2026-04-04T07:02:46.608Z</time></trkpt><trkpt lat="39.6248869" lon="-0.5905242"><ele>152.0</ele><time>2026-04-04T07:02:47.609Z</time></trkpt><trkpt lat="39.6249926" lon="-0.5905928"><ele>154.0</ele><time>2026-04-04T07:02:48.608Z</time></trkpt><trkpt lat="39.6250924" lon="-0.5906516"><ele>156.0</ele><time>2026-04-04T07:02:49.609Z</time></trkpt><trkpt lat="39.6251965" lon="-0.5907096"><ele>156.0</ele><time>2026-04-04T07:02:50.608Z</time></trkpt><trkpt lat="39.6253012" lon="-0.5907761"><ele>156.0</ele><time>2026-04-04T07:02:51.607Z</time></trkpt><trkpt lat="39.625405" lon="-0.5908428"><ele>156.0</ele><time>2026-04-04T07:02:52.608Z</time></trkpt><trkpt lat="39.6255123" lon="-0.5909116"><ele>156.0</ele><time>2026-04-04T07:02:53.609Z</time></trkpt><trkpt lat="39.6256206" lon="-0.5909773"><ele>155.8</ele><time>2026-04-04T07:02:54.609Z</time></trkpt><trkpt lat="39.6257251" lon="-0.5910461"><ele>155.6</ele><time>2026-04-04T07:02:55.609Z</time></trkpt><trkpt lat="39.6258271" lon="-0.5911082"><ele>155.4</ele><time>2026-04-04T07:02:56.608Z</time></trkpt><trkpt lat="39.6259147" lon="-0.5911672"><ele>155.2</ele><time>2026-04-04T07:02:57.61Z</time></trkpt><trkpt lat="39.6260042" lon="-0.5912313"><ele>155.0</ele><time>2026-04-04T07:02:58.61Z</time></trkpt><trkpt lat="39.6260963" lon="-0.5912813"><ele>155.42857142857144</ele><time>2026-04-04T07:02:59.609Z</time></trkpt><trkpt lat="39.6261867" lon="-0.5913214"><ele>155.85714285714286</ele><time>2026-04-04T07:03:00.607Z</time></trkpt><trkpt lat="39.6262454" lon="-0.5913534"><ele>156.28571428571428</ele><time>2026-04-04T07:03:01.609Z</time></trkpt><trkpt lat="39.6263164" lon="-0.5913892"><ele>156.71428571428572</ele><time>2026-04-04T07:03:02.61Z</time></trkpt><trkpt lat="39.6263792" lon="-0.5914196"><ele>157.14285714285714</ele><time>2026-04-04T07:03:03.608Z</time></trkpt><trkpt lat="39.6264437" lon="-0.591439"><ele>157.57142857142858</ele><time>2026-04-04T07:03:04.608Z</time></trkpt><trkpt lat="39.6265214" lon="-0.5914432"><ele>158.0</ele><time>2026-04-04T07:03:05.609Z</time></trkpt><trkpt lat="39.6265862" lon="-0.5914336"><ele>158.0</ele><time>2026-04-04T07:03:06.61Z</time></trkpt><trkpt lat="39.6266595" lon="-0.5914033"><ele>158.0</ele><time>2026-04-04T07:03:07.608Z</time></trkpt><trkpt lat="39.6267496" lon="-0.5913367"><ele>158.0</ele><time>2026-04-04T07:03:08.61Z</time></trkpt><trkpt lat="39.6268538" lon="-0.5912421"><ele>158.0</ele><time>2026-04-04T07:03:09.609Z</time></trkpt><trkpt lat="39.6269628" lon="-0.59116"><ele>158.0</ele><time>2026-04-04T07:03:10.608Z</time></trkpt><trkpt lat="39.6270766" lon="-0.5910954"><ele>156.5</ele><time>2026-04-04T07:03:11.609Z</time></trkpt><trkpt lat="39.6271856" lon="-0.5910602"><ele>155.0</ele><time>2026-04-04T07:03:12.608Z</time></trkpt><trkpt lat="39.6273009" lon="-0.591054"><ele>153.5</ele><time>2026-04-04T07:03:13.608Z</time></trkpt><trkpt lat="39.6274144" lon="-0.5910799"><ele>152.0</ele><time>2026-04-04T07:03:14.609Z</time></trkpt><trkpt lat="39.6275259" lon="-0.5911375"><ele>152.25</ele><time>2026-04-04T07:03:15.609Z</time></trkpt><trkpt lat="39.6276339" lon="-0.5912325"><ele>152.5</ele><time>2026-04-04T07:03:16.609Z</time></trkpt><trkpt lat="39.6277276" lon="-0.5913465"><ele>152.75</ele><time>2026-04-04T07:03:17.609Z</time></trkpt><trkpt lat="39.627819" lon="-0.5914993"><ele>153.0</ele><time>2026-04-04T07:03:18.609Z</time></trkpt><trkpt lat="39.6279046" lon="-0.5916526"><ele>153.0</ele><time>2026-04-04T07:03:19.608Z</time></trkpt><trkpt lat="39.6279797" lon="-0.5917897"><ele>153.0</ele><time>2026-04-04T07:03:20.61Z</time></trkpt><trkpt lat="39.6280512" lon="-0.5919193"><ele>153.0</ele><time>2026-04-04T07:03:21.609Z</time></trkpt><trkpt lat="39.6281213" lon="-0.5920498"><ele>153.0</ele><time>2026-04-04T07:03:22.608Z</time></trkpt><trkpt lat="39.6281901" lon="-0.5921713"><ele>153.0</ele><time>2026-04-04T07:03:23.609Z</time></trkpt><trkpt lat="39.628256" lon="-0.592293"><ele>153.0</ele><time>2026-04-04T07:03:24.608Z</time></trkpt><trkpt lat="39.6283234" lon="-0.5924145"><ele>153.0</ele><time>2026-04-04T07:03:25.609Z</time></trkpt><trkpt lat="39.6284003" lon="-0.5925444"><ele>153.0</ele><time>2026-04-04T07:03:26.61Z</time></trkpt><trkpt lat="39.6284757" lon="-0.5926755"><ele>153.0</ele><time>2026-04-04T07:03:27.608Z</time></trkpt><trkpt lat="39.6285402" lon="-0.5928005"><ele>153.0</ele><time>2026-04-04T07:03:28.609Z</time></trkpt><trkpt lat="39.6286066" lon="-0.5929289"><ele>153.0</ele><time>2026-04-04T07:03:29.61Z</time></trkpt><trkpt lat="39.6286692" lon="-0.5930452"><ele>153.0</ele><time>2026-04-04T07:03:30.61Z</time></trkpt><trkpt lat="39.6287351" lon="-0.5931519"><ele>155.2</ele><time>2026-04-04T07:03:31.609Z</time></trkpt><trkpt lat="39.6287969" lon="-0.5932458"><ele>157.4</ele><time>2026-04-04T07:03:32.609Z</time></trkpt><trkpt lat="39.6288649" lon="-0.5933129"><ele>159.6</ele><time>2026-04-04T07:03:33.608Z</time></trkpt><trkpt lat="39.6289444" lon="-0.5933849"><ele>161.79999999999998</ele><time>2026-04-04T07:03:34.608Z</time></trkpt><trkpt lat="39.629008" lon="-0.5934608"><ele>164.0</ele><time>2026-04-04T07:03:35.609Z</time></trkpt><trkpt lat="39.6290517" lon="-0.5935614"><ele>165.5</ele><time>2026-04-04T07:03:36.609Z</time></trkpt><trkpt lat="39.6291094" lon="-0.5936753"><ele>167.0</ele><time>2026-04-04T07:03:37.608Z</time></trkpt><trkpt lat="39.6291863" lon="-0.5937932"><ele>168.5</ele><time>2026-04-04T07:03:38.609Z</time></trkpt><trkpt lat="39.6292711" lon="-0.5939142"><ele>170.0</ele><time>2026-04-04T07:03:39.608Z</time></trkpt><trkpt lat="39.6293695" lon="-0.5940348"><ele>170.0</ele><time>2026-04-04T07:03:40.61Z</time></trkpt><trkpt lat="39.629459" lon="-0.5941434"><ele>170.0</ele><time>2026-04-04T07:03:41.609Z</time></trkpt><trkpt lat="39.6295447" lon="-0.5942501"><ele>170.0</ele><time>2026-04-04T07:03:42.609Z</time></trkpt><trkpt lat="39.6296091" lon="-0.5943345"><ele>170.0</ele><time>2026-04-04T07:03:43.607Z</time></trkpt><trkpt lat="39.6296785" lon="-0.5943938"><ele>170.0</ele><time>2026-04-04T07:03:44.608Z</time></trkpt><trkpt lat="39.6297449" lon="-0.5944279"><ele>170.0</ele><time>2026-04-04T07:03:45.608Z</time></trkpt><trkpt lat="39.6298448" lon="-0.594421"><ele>170.0</ele><time>2026-04-04T07:03:46.609Z</time></trkpt><trkpt lat="39.6299098" lon="-0.5944201"><ele>170.0</ele><time>2026-04-04T07:03:47.608Z</time></trkpt><trkpt lat="39.6299761" lon="-0.5943984"><ele>170.0</ele><time>2026-04-04T07:03:48.607Z</time></trkpt><trkpt lat="39.6300492" lon="-0.5943475"><ele>170.0</ele><time>2026-04-04T07:03:49.61Z</time></trkpt><trkpt lat="39.630128" lon="-0.5942751"><ele>170.0</ele><time>2026-04-04T07:03:50.607Z</time></trkpt><trkpt lat="39.6302006" lon="-0.5941911"><ele>170.0</ele><time>2026-04-04T07:03:51.609Z</time></trkpt><trkpt lat="39.630279" lon="-0.594112"><ele>170.0</ele><time>2026-04-04T07:03:52.608Z</time></trkpt><trkpt lat="39.6303569" lon="-0.5940281"><ele>170.0</ele><time>2026-04-04T07:03:53.609Z</time></trkpt><trkpt lat="39.6304363" lon="-0.5939427"><ele>170.0</ele><time>2026-04-04T07:03:54.607Z</time></trkpt><trkpt lat="39.6305198" lon="-0.5938633"><ele>170.0</ele><time>2026-04-04T07:03:55.608Z</time></trkpt><trkpt lat="39.6305951" lon="-0.5937814"><ele>170.6</ele><time>2026-04-04T07:03:56.607Z</time></trkpt><trkpt lat="39.630674" lon="-0.593707"><ele>171.2</ele><time>2026-04-04T07:03:57.609Z</time></trkpt><trkpt lat="39.6307493" lon="-0.5936265"><ele>171.8</ele><time>2026-04-04T07:03:58.609Z</time></trkpt><trkpt lat="39.6308103" lon="-0.5935734"><ele>172.4</ele><time>2026-04-04T07:03:59.609Z</time></trkpt><trkpt lat="39.6308946" lon="-0.5934516"><ele>173.0</ele><time>2026-04-04T07:04:00.609Z</time></trkpt><trkpt lat="39.630974" lon="-0.5933739"><ele>173.0</ele><time>2026-04-04T07:04:01.61Z</time></trkpt><trkpt lat="39.6310401" lon="-0.5933009"><ele>173.0</ele><time>2026-04-04T07:04:02.61Z</time></trkpt><trkpt lat="39.6311078" lon="-0.5932265"><ele>173.0</ele><time>2026-04-04T07:04:03.608Z</time></trkpt><trkpt lat="39.6311672" lon="-0.5931677"><ele>173.0</ele><time>2026-04-04T07:04:04.609Z</time></trkpt><trkpt lat="39.631219" lon="-0.5930968"><ele>173.0</ele><time>2026-04-04T07:04:05.607Z</time></trkpt><trkpt lat="39.6312598" lon="-0.5930113"><ele>173.0</ele><time>2026-04-04T07:04:06.609Z</time></trkpt><trkpt lat="39.6312839" lon="-0.5929031"><ele>172.83333333333331</ele><time>2026-04-04T07:04:07.608Z</time></trkpt><trkpt lat="39.631307" lon="-0.592786"><ele>172.66666666666666</ele><time>2026-04-04T07:04:08.608Z</time></trkpt><trkpt lat="39.6313296" lon="-0.5926646"><ele>172.5</ele><time>2026-04-04T07:04:09.61Z</time></trkpt><trkpt lat="39.6313477" lon="-0.5925536"><ele>172.33333333333334</ele><time>2026-04-04T07:04:10.609Z</time></trkpt><trkpt lat="39.6313694" lon="-0.5924451"><ele>172.16666666666669</ele><time>2026-04-04T07:04:11.609Z</time></trkpt><trkpt lat="39.6313898" lon="-0.5923443"><ele>172.0</ele><time>2026-04-04T07:04:12.608Z</time></trkpt><trkpt lat="39.6314129" lon="-0.5922405"><ele>172.0</ele><time>2026-04-04T07:04:13.61Z</time></trkpt><trkpt lat="39.6314306" lon="-0.592136"><ele>172.0</ele><time>2026-04-04T07:04:14.608Z</time></trkpt><trkpt lat="39.631461" lon="-0.5920571"><ele>172.0</ele><time>2026-04-04T07:04:15.608Z</time></trkpt><trkpt lat="39.6315215" lon="-0.5919366"><ele>172.0</ele><time>2026-04-04T07:04:17.608Z</time></trkpt><trkpt lat="39.6315763" lon="-0.5918103"><ele>172.0</ele><time>2026-04-04T07:04:19.608Z</time></trkpt><trkpt lat="39.6316396" lon="-0.5917005"><ele>172.0</ele><time>2026-04-04T07:04:21.608Z</time></trkpt><trkpt lat="39.6317286" lon="-0.5917019"><ele>172.0</ele><time>2026-04-04T07:04:23.608Z</time></trkpt><trkpt lat="39.6317896" lon="-0.5917787"><ele>172.0</ele><time>2026-04-04T07:04:25.61Z</time></trkpt><trkpt lat="39.6318103" lon="-0.59187"><ele>172.0</ele><time>2026-04-04T07:04:27.609Z</time></trkpt><trkpt lat="39.6318606" lon="-0.591964"><ele>172.0</ele><time>2026-04-04T07:04:29.609Z</time></trkpt><trkpt lat="39.6318981" lon="-0.5920395"><ele>172.0</ele><time>2026-04-04T07:04:30.609Z</time></trkpt><trkpt lat="39.6319769" lon="-0.5921623"><ele>173.39999999999998</ele><time>2026-04-04T07:04:31.61Z</time></trkpt><trkpt lat="39.6320443" lon="-0.592275"><ele>174.79999999999998</ele><time>2026-04-04T07:04:32.608Z</time></trkpt><trkpt lat="39.6321043" lon="-0.5923843"><ele>176.2</ele><time>2026-04-04T07:04:33.609Z</time></trkpt><trkpt lat="39.6321635" lon="-0.5924919"><ele>177.6</ele><time>2026-04-04T07:04:34.608Z</time></trkpt><trkpt lat="39.632224" lon="-0.5926049"><ele>179.0</ele><time>2026-04-04T07:04:35.609Z</time></trkpt><trkpt lat="39.6322845" lon="-0.5927118"><ele>179.0</ele><time>2026-04-04T07:04:36.608Z</time></trkpt><trkpt lat="39.6323393" lon="-0.5928002"><ele>179.0</ele><time>2026-04-04T07:04:37.607Z</time></trkpt><trkpt lat="39.6323813" lon="-0.5928799"><ele>179.0</ele><time>2026-04-04T07:04:38.608Z</time></trkpt><trkpt lat="39.632417" lon="-0.5929478"><ele>179.0</ele><time>2026-04-04T07:04:39.609Z</time></trkpt><trkpt lat="39.6324616" lon="-0.5930301"><ele>179.0</ele><time>2026-04-04T07:04:41.61Z</time></trkpt><trkpt lat="39.6325521" lon="-0.5930452"><ele>179.0</ele><time>2026-04-04T07:04:44.609Z</time></trkpt><trkpt lat="39.6326198" lon="-0.5930173"><ele>179.2</ele><time>2026-04-04T07:04:45.61Z</time></trkpt><trkpt lat="39.6326916" lon="-0.5929683"><ele>179.39999999999998</ele><time>2026-04-04T07:04:46.609Z</time></trkpt><trkpt lat="39.6327768" lon="-0.5928792"><ele>179.6</ele><time>2026-04-04T07:04:47.607Z</time></trkpt><trkpt lat="39.6328747" lon="-0.5927848"><ele>179.8</ele><time>2026-04-04T07:04:48.609Z</time></trkpt><trkpt lat="39.6329631" lon="-0.5926952"><ele>180.0</ele><time>2026-04-04T07:04:49.608Z</time></trkpt><trkpt lat="39.6330421" lon="-0.5925986"><ele>179.6</ele><time>2026-04-04T07:04:50.609Z</time></trkpt><trkpt lat="39.6331349" lon="-0.5925184"><ele>179.2</ele><time>2026-04-04T07:04:51.609Z</time></trkpt><trkpt lat="39.63322" lon="-0.5924461"><ele>178.8</ele><time>2026-04-04T07:04:52.609Z</time></trkpt><trkpt lat="39.6332931" lon="-0.5923678"><ele>178.4</ele><time>2026-04-04T07:04:53.609Z</time></trkpt><trkpt lat="39.6333729" lon="-0.5922879"><ele>178.0</ele><time>2026-04-04T07:04:54.609Z</time></trkpt><trkpt lat="39.633444" lon="-0.5922179"><ele>178.0</ele><time>2026-04-04T07:04:55.609Z</time></trkpt><trkpt lat="39.6335054" lon="-0.592158"><ele>178.0</ele><time>2026-04-04T07:04:56.609Z</time></trkpt><trkpt lat="39.6335776" lon="-0.5920952"><ele>178.0</ele><time>2026-04-04T07:04:57.608Z</time></trkpt><trkpt lat="39.6336481" lon="-0.5920224"><ele>178.0</ele><time>2026-04-04T07:04:58.608Z</time></trkpt><trkpt lat="39.6337138" lon="-0.5919519"><ele>178.0</ele><time>2026-04-04T07:04:59.608Z</time></trkpt><trkpt lat="39.6337709" lon="-0.5918851"><ele>178.0</ele><time>2026-04-04T07:05:00.61Z</time></trkpt><trkpt lat="39.6338422" lon="-0.5918162"><ele>177.16666666666669</ele><time>2026-04-04T07:05:01.608Z</time></trkpt><trkpt lat="39.6339184" lon="-0.59175"><ele>176.33333333333334</ele><time>2026-04-04T07:05:02.609Z</time></trkpt><trkpt lat="39.633989" lon="-0.5916872"><ele>175.5</ele><time>2026-04-04T07:05:03.607Z</time></trkpt><trkpt lat="39.6340511" lon="-0.5916261"><ele>174.66666666666666</ele><time>2026-04-04T07:05:04.608Z</time></trkpt><trkpt lat="39.6341114" lon="-0.5915659"><ele>173.83333333333331</ele><time>2026-04-04T07:05:05.608Z</time></trkpt><trkpt lat="39.6341721" lon="-0.5914994"><ele>173.0</ele><time>2026-04-04T07:05:06.609Z</time></trkpt><trkpt lat="39.6342405" lon="-0.5914316"><ele>173.0</ele><time>2026-04-04T07:05:07.609Z</time></trkpt><trkpt lat="39.6343099" lon="-0.5913622"><ele>173.0</ele><time>2026-04-04T07:05:08.609Z</time></trkpt><trkpt lat="39.6343845" lon="-0.591288"><ele>173.0</ele><time>2026-04-04T07:05:09.608Z</time></trkpt><trkpt lat="39.6344637" lon="-0.5912153"><ele>173.0</ele><time>2026-04-04T07:05:10.608Z</time></trkpt><trkpt lat="39.634547" lon="-0.5911395"><ele>173.0</ele><time>2026-04-04T07:05:11.61Z</time></trkpt><trkpt lat="39.6346297" lon="-0.5910626"><ele>173.0</ele><time>2026-04-04T07:05:12.61Z</time></trkpt><trkpt lat="39.6347162" lon="-0.5909845"><ele>173.0</ele><time>2026-04-04T07:05:13.61Z</time></trkpt><trkpt lat="39.6348061" lon="-0.5909045"><ele>173.0</ele><time>2026-04-04T07:05:14.61Z</time></trkpt><trkpt lat="39.6348972" lon="-0.590821"><ele>173.0</ele><time>2026-04-04T07:05:15.607Z</time></trkpt><trkpt lat="39.6349871" lon="-0.5907346"><ele>173.0</ele><time>2026-04-04T07:05:16.61Z</time></trkpt><trkpt lat="39.6350715" lon="-0.5906605"><ele>173.0</ele><time>2026-04-04T07:05:17.608Z</time></trkpt><trkpt lat="39.6351586" lon="-0.5905829"><ele>173.0</ele><time>2026-04-04T07:05:18.609Z</time></trkpt><trkpt lat="39.6352457" lon="-0.5905093"><ele>173.0</ele><time>2026-04-04T07:05:19.61Z</time></trkpt><trkpt lat="39.6353206" lon="-0.5904373"><ele>173.0</ele><time>2026-04-04T07:05:20.609Z</time></trkpt><trkpt lat="39.6353969" lon="-0.5903577"><ele>173.0</ele><time>2026-04-04T07:05:21.607Z</time></trkpt><trkpt lat="39.6354569" lon="-0.5902966"><ele>173.2</ele><time>2026-04-04T07:05:22.609Z</time></trkpt><trkpt lat="39.635509" lon="-0.5902407"><ele>173.4</ele><time>2026-04-04T07:05:23.608Z</time></trkpt><trkpt lat="39.6356036" lon="-0.5901453"><ele>173.6</ele><time>2026-04-04T07:05:25.608Z</time></trkpt><trkpt lat="39.6357069" lon="-0.590161"><ele>173.79999999999998</ele><time>2026-04-04T07:05:27.61Z</time></trkpt><trkpt lat="39.6357848" lon="-0.5902455"><ele>174.0</ele><time>2026-04-04T07:05:29.609Z</time></trkpt><trkpt lat="39.635826" lon="-0.5903165"><ele>174.0</ele><time>2026-04-04T07:05:32.609Z</time></trkpt><trkpt lat="39.6358965" lon="-0.5903312"><ele>174.0</ele><time>2026-04-04T07:05:36.609Z</time></trkpt><trkpt lat="39.6358339" lon="-0.5903194"><ele>174.0</ele><time>2026-04-04T07:08:50.609Z</time></trkpt><trkpt lat="39.6357873" lon="-0.5904127"><ele>174.0</ele><time>2026-04-04T07:08:52.607Z</time></trkpt><trkpt lat="39.6357612" lon="-0.5904947"><ele>174.0</ele><time>2026-04-04T07:08:54.61Z</time></trkpt><trkpt lat="39.6358056" lon="-0.590596"><ele>174.0</ele><time>2026-04-04T07:08:56.61Z</time></trkpt><trkpt lat="39.6358496" lon="-0.590663"><ele>174.0</ele><time>2026-04-04T07:08:57.609Z</time></trkpt><trkpt lat="39.6359072" lon="-0.5907769"><ele>174.0</ele><time>2026-04-04T07:08:59.608Z</time></trkpt><trkpt lat="39.6359586" lon="-0.5908828"><ele>174.0</ele><time>2026-04-04T07:09:02.609Z</time></trkpt><trkpt lat="39.6359347" lon="-0.590996"><ele>174.0</ele><time>2026-04-04T07:09:04.61Z</time></trkpt><trkpt lat="39.6359042" lon="-0.5910886"><ele>174.0</ele><time>2026-04-04T07:09:06.609Z</time></trkpt><trkpt lat="39.6358868" lon="-0.5911715"><ele>174.0</ele><time>2026-04-04T07:09:09.608Z</time></trkpt><trkpt lat="39.635833" lon="-0.5912496"><ele>174.0</ele><time>2026-04-04T07:09:10.609Z</time></trkpt><trkpt lat="39.6357897" lon="-0.5913484"><ele>174.25</ele><time>2026-04-04T07:09:11.609Z</time></trkpt><trkpt lat="39.6357224" lon="-0.5914786"><ele>174.5</ele><time>2026-04-04T07:09:12.61Z</time></trkpt><trkpt lat="39.6356471" lon="-0.5916088"><ele>174.75</ele><time>2026-04-04T07:09:13.609Z</time></trkpt><trkpt lat="39.6355568" lon="-0.5917738"><ele>175.0</ele><time>2026-04-04T07:09:14.609Z</time></trkpt><trkpt lat="39.6354792" lon="-0.5919209"><ele>175.0</ele><time>2026-04-04T07:09:15.609Z</time></trkpt><trkpt lat="39.6354046" lon="-0.5920538"><ele>175.0</ele><time>2026-04-04T07:09:16.607Z</time></trkpt><trkpt lat="39.6353384" lon="-0.5921679"><ele>175.0</ele><time>2026-04-04T07:09:17.608Z</time></trkpt><trkpt lat="39.6352894" lon="-0.5922728"><ele>175.0</ele><time>2026-04-04T07:09:18.61Z</time></trkpt><trkpt lat="39.6352436" lon="-0.5923851"><ele>175.0</ele><time>2026-04-04T07:09:19.609Z</time></trkpt><trkpt lat="39.6351986" lon="-0.5924936"><ele>174.8</ele><time>2026-04-04T07:09:20.608Z</time></trkpt><trkpt lat="39.6351548" lon="-0.5925918"><ele>174.6</ele><time>2026-04-04T07:09:21.608Z</time></trkpt><trkpt lat="39.6351095" lon="-0.5926895"><ele>174.39999999999998</ele><time>2026-04-04T07:09:22.608Z</time></trkpt><trkpt lat="39.6350599" lon="-0.5927978"><ele>174.2</ele><time>2026-04-04T07:09:23.61Z</time></trkpt><trkpt lat="39.6350145" lon="-0.5929025"><ele>174.0</ele><time>2026-04-04T07:09:24.61Z</time></trkpt><trkpt lat="39.6349681" lon="-0.5929992"><ele>173.66666666666666</ele><time>2026-04-04T07:09:25.609Z</time></trkpt><trkpt lat="39.6349242" lon="-0.5931045"><ele>173.33333333333334</ele><time>2026-04-04T07:09:26.608Z</time></trkpt><trkpt lat="39.6348801" lon="-0.5932111"><ele>173.0</ele><time>2026-04-04T07:09:27.609Z</time></trkpt><trkpt lat="39.6348401" lon="-0.5933107"><ele>172.66666666666669</ele><time>2026-04-04T07:09:28.608Z</time></trkpt><trkpt lat="39.6347904" lon="-0.5934066"><ele>172.33333333333334</ele><time>2026-04-04T07:09:29.609Z</time></trkpt><trkpt lat="39.634751" lon="-0.5934831"><ele>172.0</ele><time>2026-04-04T07:09:30.609Z</time></trkpt><trkpt lat="39.6347171" lon="-0.5935955"><ele>172.2</ele><time>2026-04-04T07:09:32.608Z</time></trkpt><trkpt lat="39.6347764" lon="-0.5936844"><ele>172.39999999999998</ele><time>2026-04-04T07:09:34.609Z</time></trkpt><trkpt lat="39.6348377" lon="-0.5937476"><ele>172.60000000000002</ele><time>2026-04-04T07:09:35.609Z</time></trkpt><trkpt lat="39.6349413" lon="-0.5938082"><ele>172.8</ele><time>2026-04-04T07:09:36.609Z</time></trkpt><trkpt lat="39.6350376" lon="-0.5938816"><ele>173.0</ele><time>2026-04-04T07:09:37.609Z</time></trkpt><trkpt lat="39.6351367" lon="-0.5939717"><ele>173.0</ele><time>2026-04-04T07:09:38.609Z</time></trkpt><trkpt lat="39.6352206" lon="-0.5940571"><ele>173.0</ele><time>2026-04-04T07:09:39.608Z</time></trkpt><trkpt lat="39.6353243" lon="-0.5941138"><ele>173.0</ele><time>2026-04-04T07:09:40.609Z</time></trkpt><trkpt lat="39.6354335" lon="-0.5941782"><ele>173.0</ele><time>2026-04-04T07:09:41.608Z</time></trkpt><trkpt lat="39.6355595" lon="-0.5942464"><ele>173.0</ele><time>2026-04-04T07:09:42.608Z</time></trkpt><trkpt lat="39.6356853" lon="-0.5943242"><ele>173.0</ele><time>2026-04-04T07:09:43.61Z</time></trkpt><trkpt lat="39.6358182" lon="-0.5944047"><ele>173.0</ele><time>2026-04-04T07:09:44.61Z</time></trkpt><trkpt lat="39.6359538" lon="-0.5944907"><ele>173.0</ele><time>2026-04-04T07:09:45.608Z</time></trkpt><trkpt lat="39.6360807" lon="-0.5945834"><ele>172.0</ele><time>2026-04-04T07:09:46.61Z</time></trkpt><trkpt lat="39.6362069" lon="-0.5946757"><ele>171.0</ele><time>2026-04-04T07:09:47.608Z</time></trkpt><trkpt lat="39.6363215" lon="-0.5947583"><ele>170.0</ele><time>2026-04-04T07:09:48.608Z</time></trkpt><trkpt lat="39.6364162" lon="-0.5948319"><ele>169.0</ele><time>2026-04-04T07:09:49.609Z</time></trkpt><trkpt lat="39.6365044" lon="-0.5949188"><ele>169.0</ele><time>2026-04-04T07:09:50.609Z</time></trkpt><trkpt lat="39.6365594" lon="-0.5950391"><ele>169.0</ele><time>2026-04-04T07:09:51.609Z</time></trkpt><trkpt lat="39.6366063" lon="-0.5951635"><ele>169.0</ele><time>2026-04-04T07:09:52.609Z</time></trkpt><trkpt lat="39.636647" lon="-0.5952749"><ele>169.0</ele><time>2026-04-04T07:09:53.609Z</time></trkpt><trkpt lat="39.6367001" lon="-0.5953555"><ele>169.0</ele><time>2026-04-04T07:09:54.608Z</time></trkpt><trkpt lat="39.6367702" lon="-0.595383"><ele>169.0</ele><time>2026-04-04T07:09:55.609Z</time></trkpt><trkpt lat="39.6368518" lon="-0.5953959"><ele>169.0</ele><time>2026-04-04T07:09:56.608Z</time></trkpt><trkpt lat="39.6369351" lon="-0.5953836"><ele>169.0</ele><time>2026-04-04T07:09:57.609Z</time></trkpt><trkpt lat="39.6370521" lon="-0.5953527"><ele>169.0</ele><time>2026-04-04T07:09:58.609Z</time></trkpt><trkpt lat="39.6371661" lon="-0.5953513"><ele>169.0</ele><time>2026-04-04T07:09:59.61Z</time></trkpt><trkpt lat="39.6372764" lon="-0.5953592"><ele>169.0</ele><time>2026-04-04T07:10:00.609Z</time></trkpt><trkpt lat="39.6373839" lon="-0.5953915"><ele>169.0</ele><time>2026-04-04T07:10:01.608Z</time></trkpt><trkpt lat="39.637495" lon="-0.5954325"><ele>169.0</ele><time>2026-04-04T07:10:02.609Z</time></trkpt><trkpt lat="39.637612" lon="-0.5954797"><ele>169.0</ele><time>2026-04-04T07:10:03.608Z</time></trkpt><trkpt lat="39.6377265" lon="-0.595527"><ele>168.39999999999998</ele><time>2026-04-04T07:10:04.61Z</time></trkpt><trkpt lat="39.6378463" lon="-0.5955545"><ele>167.8</ele><time>2026-04-04T07:10:05.608Z</time></trkpt><trkpt lat="39.6379431" lon="-0.5955644"><ele>167.2</ele><time>2026-04-04T07:10:06.609Z</time></trkpt><trkpt lat="39.6380474" lon="-0.5955974"><ele>166.60000000000002</ele><time>2026-04-04T07:10:07.609Z</time></trkpt><trkpt lat="39.6381416" lon="-0.59564"><ele>166.0</ele><time>2026-04-04T07:10:08.61Z</time></trkpt><trkpt lat="39.6382304" lon="-0.5956969"><ele>166.0</ele><time>2026-04-04T07:10:09.609Z</time></trkpt><trkpt lat="39.6383121" lon="-0.59578"><ele>166.0</ele><time>2026-04-04T07:10:10.608Z</time></trkpt><trkpt lat="39.6383745" lon="-0.5958547"><ele>166.0</ele><time>2026-04-04T07:10:11.608Z</time></trkpt><trkpt lat="39.6384355" lon="-0.5959291"><ele>166.0</ele><time>2026-04-04T07:10:12.608Z</time></trkpt><trkpt lat="39.6385012" lon="-0.5960001"><ele>166.0</ele><time>2026-04-04T07:10:13.609Z</time></trkpt><trkpt lat="39.6385753" lon="-0.5960616"><ele>166.0</ele><time>2026-04-04T07:10:14.608Z</time></trkpt><trkpt lat="39.638648" lon="-0.5961307"><ele>165.8</ele><time>2026-04-04T07:10:15.609Z</time></trkpt><trkpt lat="39.6387131" lon="-0.5962145"><ele>165.60000000000002</ele><time>2026-04-04T07:10:16.607Z</time></trkpt><trkpt lat="39.6387959" lon="-0.5963242"><ele>165.4</ele><time>2026-04-04T07:10:17.609Z</time></trkpt><trkpt lat="39.6388741" lon="-0.5964358"><ele>165.2</ele><time>2026-04-04T07:10:18.608Z</time></trkpt><trkpt lat="39.6389514" lon="-0.5965447"><ele>165.0</ele><time>2026-04-04T07:10:19.609Z</time></trkpt><trkpt lat="39.6390119" lon="-0.5966417"><ele>165.0</ele><time>2026-04-04T07:10:20.61Z</time></trkpt><trkpt lat="39.6390621" lon="-0.5967183"><ele>165.0</ele><time>2026-04-04T07:10:21.61Z</time></trkpt><trkpt lat="39.6391124" lon="-0.5967787"><ele>165.0</ele><time>2026-04-04T07:10:22.609Z</time></trkpt><trkpt lat="39.6391698" lon="-0.5968197"><ele>165.0</ele><time>2026-04-04T07:10:23.608Z</time></trkpt><trkpt lat="39.6392563" lon="-0.5968377"><ele>165.0</ele><time>2026-04-04T07:10:24.608Z</time></trkpt><trkpt lat="39.639363" lon="-0.5968542"><ele>165.0</ele><time>2026-04-04T07:10:25.609Z</time></trkpt><trkpt lat="39.6394688" lon="-0.5968812"><ele>165.0</ele><time>2026-04-04T07:10:26.608Z</time></trkpt><trkpt lat="39.6395624" lon="-0.5969077"><ele>165.0</ele><time>2026-04-04T07:10:27.609Z</time></trkpt><trkpt lat="39.6396525" lon="-0.596928"><ele>165.0</ele><time>2026-04-04T07:10:28.609Z</time></trkpt><trkpt lat="39.6397249" lon="-0.5969293"><ele>165.0</ele><time>2026-04-04T07:10:29.61Z</time></trkpt><trkpt lat="39.6398303" lon="-0.5969061"><ele>165.0</ele><time>2026-04-04T07:10:31.608Z</time></trkpt><trkpt lat="39.6399292" lon="-0.5968484"><ele>165.0</ele><time>2026-04-04T07:10:33.609Z</time></trkpt><trkpt lat="39.6400332" lon="-0.5967916"><ele>165.0</ele><time>2026-04-04T07:10:35.61Z</time></trkpt><trkpt lat="39.6401455" lon="-0.5967735"><ele>165.0</ele><time>2026-04-04T07:10:37.608Z</time></trkpt><trkpt lat="39.6402111" lon="-0.5967743"><ele>165.0</ele><time>2026-04-04T07:10:38.609Z</time></trkpt><trkpt lat="39.6402901" lon="-0.5967767"><ele>165.0</ele><time>2026-04-04T07:10:39.609Z</time></trkpt><trkpt lat="39.6403731" lon="-0.5967733"><ele>165.0</ele><time>2026-04-04T07:10:40.61Z</time></trkpt><trkpt lat="39.6404665" lon="-0.5967683"><ele>165.0</ele><time>2026-04-04T07:10:41.61Z</time></trkpt><trkpt lat="39.6405661" lon="-0.5967579"><ele>165.0</ele><time>2026-04-04T07:10:42.609Z</time></trkpt><trkpt lat="39.6406764" lon="-0.5967513"><ele>165.0</ele><time>2026-04-04T07:10:43.607Z</time></trkpt><trkpt lat="39.6407663" lon="-0.5967461"><ele>165.0</ele><time>2026-04-04T07:10:44.609Z</time></trkpt><trkpt lat="39.6408497" lon="-0.5967327"><ele>165.0</ele><time>2026-04-04T07:10:45.608Z</time></trkpt><trkpt lat="39.6409649" lon="-0.5967144"><ele>165.0</ele><time>2026-04-04T07:10:47.609Z</time></trkpt><trkpt lat="39.6410305" lon="-0.5966261"><ele>165.0</ele><time>2026-04-04T07:10:49.609Z</time></trkpt><trkpt lat="39.6410541" lon="-0.5965209"><ele>165.0</ele><time>2026-04-04T07:10:50.608Z</time></trkpt><trkpt lat="39.6410732" lon="-0.5964008"><ele>165.0</ele><time>2026-04-04T07:10:51.609Z</time></trkpt><trkpt lat="39.6410893" lon="-0.5963051"><ele>165.66666666666666</ele><time>2026-04-04T07:10:52.609Z</time></trkpt><trkpt lat="39.6411409" lon="-0.5962047"><ele>166.33333333333331</ele><time>2026-04-04T07:10:54.609Z</time></trkpt><trkpt lat="39.6412496" lon="-0.5961823"><ele>167.0</ele><time>2026-04-04T07:10:56.609Z</time></trkpt><trkpt lat="39.6414696" lon="-0.5963406"><ele>167.0</ele><time>2026-04-04T07:11:00.608Z</time></trkpt><trkpt lat="39.6415261" lon="-0.5964251"><ele>167.0</ele><time>2026-04-04T07:11:01.609Z</time></trkpt><trkpt lat="39.6415729" lon="-0.5965276"><ele>167.0</ele><time>2026-04-04T07:11:02.609Z</time></trkpt><trkpt lat="39.6415708" lon="-0.596656"><ele>167.0</ele><time>2026-04-04T07:11:03.609Z</time></trkpt><trkpt lat="39.6415609" lon="-0.59677"><ele>167.0</ele><time>2026-04-04T07:11:04.609Z</time></trkpt><trkpt lat="39.6415736" lon="-0.5968753"><ele>167.0</ele><time>2026-04-04T07:11:05.609Z</time></trkpt><trkpt lat="39.6415959" lon="-0.5969682"><ele>167.0</ele><time>2026-04-04T07:11:06.608Z</time></trkpt><trkpt lat="39.64167" lon="-0.5970456"><ele>167.0</ele><time>2026-04-04T07:11:08.609Z</time></trkpt><trkpt lat="39.6418267" lon="-0.597028"><ele>167.0</ele><time>2026-04-04T07:11:10.608Z</time></trkpt><trkpt lat="39.6419451" lon="-0.5969954"><ele>167.0</ele><time>2026-04-04T07:11:11.608Z</time></trkpt><trkpt lat="39.6420775" lon="-0.5969839"><ele>167.0</ele><time>2026-04-04T07:11:12.609Z</time></trkpt><trkpt lat="39.6422189" lon="-0.596979"><ele>167.0</ele><time>2026-04-04T07:11:13.608Z</time></trkpt><trkpt lat="39.6423525" lon="-0.5969919"><ele>167.0</ele><time>2026-04-04T07:11:14.608Z</time></trkpt><trkpt lat="39.6424631" lon="-0.5970178"><ele>167.0</ele><time>2026-04-04T07:11:15.609Z</time></trkpt><trkpt lat="39.6425552" lon="-0.5970517"><ele>167.0</ele><time>2026-04-04T07:11:16.607Z</time></trkpt><trkpt lat="39.6426415" lon="-0.5971122"><ele>167.0</ele><time>2026-04-04T07:11:17.609Z</time></trkpt><trkpt lat="39.6427242" lon="-0.5971702"><ele>167.0</ele><time>2026-04-04T07:11:18.609Z</time></trkpt><trkpt lat="39.6428171" lon="-0.5972096"><ele>167.0</ele><time>2026-04-04T07:11:19.61Z</time></trkpt><trkpt lat="39.6429235" lon="-0.5972226"><ele>167.0</ele><time>2026-04-04T07:11:20.61Z</time></trkpt><trkpt lat="39.6430487" lon="-0.597217"><ele>168.0</ele><time>2026-04-04T07:11:21.61Z</time></trkpt><trkpt lat="39.6431699" lon="-0.5972233"><ele>169.0</ele><time>2026-04-04T07:11:22.61Z</time></trkpt><trkpt lat="39.6432957" lon="-0.5972597"><ele>170.0</ele><time>2026-04-04T07:11:23.609Z</time></trkpt><trkpt lat="39.643424" lon="-0.5972989"><ele>171.0</ele><time>2026-04-04T07:11:24.608Z</time></trkpt><trkpt lat="39.6435606" lon="-0.5973184"><ele>171.5</ele><time>2026-04-04T07:11:25.61Z</time></trkpt><trkpt lat="39.6436972" lon="-0.5972973"><ele>172.0</ele><time>2026-04-04T07:11:26.608Z</time></trkpt><trkpt lat="39.6438326" lon="-0.5972546"><ele>172.5</ele><time>2026-04-04T07:11:27.608Z</time></trkpt><trkpt lat="39.6439733" lon="-0.597187"><ele>173.0</ele><time>2026-04-04T07:11:28.607Z</time></trkpt><trkpt lat="39.644103" lon="-0.5971185"><ele>173.0</ele><time>2026-04-04T07:11:29.609Z</time></trkpt><trkpt lat="39.6442086" lon="-0.5970584"><ele>173.0</ele><time>2026-04-04T07:11:30.61Z</time></trkpt><trkpt lat="39.6442697" lon="-0.5970298"><ele>173.0</ele><time>2026-04-04T07:11:31.609Z</time></trkpt><trkpt lat="39.6443378" lon="-0.5970022"><ele>173.0</ele><time>2026-04-04T07:11:32.609Z</time></trkpt><trkpt lat="39.6444059" lon="-0.5969676"><ele>173.0</ele><time>2026-04-04T07:11:36.608Z</time></trkpt><trkpt lat="39.644478" lon="-0.5969632"><ele>173.0</ele><time>2026-04-04T07:11:40.609Z</time></trkpt><trkpt lat="39.6445003" lon="-0.5971238"><ele>172.66666666666666</ele><time>2026-04-04T07:11:42.609Z</time></trkpt><trkpt lat="39.6445143" lon="-0.5972284"><ele>172.33333333333331</ele><time>2026-04-04T07:11:43.609Z</time></trkpt><trkpt lat="39.6445561" lon="-0.5973243"><ele>172.0</ele><time>2026-04-04T07:11:44.61Z</time></trkpt><trkpt lat="39.6446023" lon="-0.5974083"><ele>171.66666666666666</ele><time>2026-04-04T07:11:45.608Z</time></trkpt><trkpt lat="39.6446625" lon="-0.5974764"><ele>171.33333333333334</ele><time>2026-04-04T07:11:46.608Z</time></trkpt><trkpt lat="39.6447432" lon="-0.5975324"><ele>171.0</ele><time>2026-04-04T07:11:47.609Z</time></trkpt><trkpt lat="39.6448242" lon="-0.5975661"><ele>171.0</ele><time>2026-04-04T07:11:48.608Z</time></trkpt><trkpt lat="39.6449641" lon="-0.5976215"><ele>171.0</ele><time>2026-04-04T07:11:49.609Z</time></trkpt><trkpt lat="39.6450862" lon="-0.5977003"><ele>171.0</ele><time>2026-04-04T07:11:50.609Z</time></trkpt><trkpt lat="39.6452196" lon="-0.5978043"><ele>171.0</ele><time>2026-04-04T07:11:51.608Z</time></trkpt><trkpt lat="39.6453482" lon="-0.5978964"><ele>171.5</ele><time>2026-04-04T07:11:52.609Z</time></trkpt><trkpt lat="39.6454741" lon="-0.5979812"><ele>172.0</ele><time>2026-04-04T07:11:53.609Z</time></trkpt><trkpt lat="39.6456041" lon="-0.5980662"><ele>172.5</ele><time>2026-04-04T07:11:54.609Z</time></trkpt><trkpt lat="39.6457425" lon="-0.5981598"><ele>173.0</ele><time>2026-04-04T07:11:55.61Z</time></trkpt><trkpt lat="39.6458837" lon="-0.5982558"><ele>173.0</ele><time>2026-04-04T07:11:56.608Z</time></trkpt><trkpt lat="39.6460297" lon="-0.5983571"><ele>173.0</ele><time>2026-04-04T07:11:57.609Z</time></trkpt><trkpt lat="39.6461698" lon="-0.5984594"><ele>173.0</ele><time>2026-04-04T07:11:58.608Z</time></trkpt><trkpt lat="39.646307" lon="-0.5985733"><ele>172.75</ele><time>2026-04-04T07:11:59.609Z</time></trkpt><trkpt lat="39.6464139" lon="-0.5986858"><ele>172.5</ele><time>2026-04-04T07:12:00.608Z</time></trkpt><trkpt lat="39.64653" lon="-0.5987838"><ele>172.25</ele><time>2026-04-04T07:12:01.609Z</time></trkpt><trkpt lat="39.6466604" lon="-0.5988743"><ele>172.0</ele><time>2026-04-04T07:12:02.61Z</time></trkpt><trkpt lat="39.6468032" lon="-0.5989638"><ele>172.0</ele><time>2026-04-04T07:12:03.609Z</time></trkpt><trkpt lat="39.6469369" lon="-0.5990369"><ele>172.0</ele><time>2026-04-04T07:12:04.61Z</time></trkpt><trkpt lat="39.6470672" lon="-0.5991136"><ele>172.0</ele><time>2026-04-04T07:12:05.61Z</time></trkpt><trkpt lat="39.6472015" lon="-0.5991804"><ele>172.0</ele><time>2026-04-04T07:12:06.608Z</time></trkpt><trkpt lat="39.6473338" lon="-0.5992287"><ele>172.75</ele><time>2026-04-04T07:12:07.61Z</time></trkpt><trkpt lat="39.6474687" lon="-0.5992574"><ele>173.5</ele><time>2026-04-04T07:12:08.609Z</time></trkpt><trkpt lat="39.6475964" lon="-0.5992691"><ele>174.25</ele><time>2026-04-04T07:12:09.608Z</time></trkpt><trkpt lat="39.6477382" lon="-0.5992713"><ele>175.0</ele><time>2026-04-04T07:12:10.609Z</time></trkpt><trkpt lat="39.6478747" lon="-0.5992672"><ele>175.0</ele><time>2026-04-04T07:12:11.609Z</time></trkpt><trkpt lat="39.6480341" lon="-0.5992295"><ele>175.0</ele><time>2026-04-04T07:12:12.609Z</time></trkpt><trkpt lat="39.6482002" lon="-0.5992027"><ele>175.0</ele><time>2026-04-04T07:12:13.609Z</time></trkpt><trkpt lat="39.6483634" lon="-0.5991741"><ele>175.0</ele><time>2026-04-04T07:12:14.61Z</time></trkpt><trkpt lat="39.6485152" lon="-0.5991511"><ele>175.0</ele><time>2026-04-04T07:12:15.609Z</time></trkpt><trkpt lat="39.6486635" lon="-0.5991294"><ele>175.0</ele><time>2026-04-04T07:12:16.61Z</time></trkpt><trkpt lat="39.6488093" lon="-0.5991084"><ele>175.0</ele><time>2026-04-04T07:12:17.608Z</time></trkpt><trkpt lat="39.6489545" lon="-0.5990791"><ele>175.5</ele><time>2026-04-04T07:12:18.609Z</time></trkpt><trkpt lat="39.6490927" lon="-0.5990492"><ele>176.0</ele><time>2026-04-04T07:12:19.608Z</time></trkpt><trkpt lat="39.6492129" lon="-0.5990077"><ele>176.5</ele><time>2026-04-04T07:12:20.609Z</time></trkpt><trkpt lat="39.6493094" lon="-0.5989993"><ele>177.0</ele><time>2026-04-04T07:12:21.609Z</time></trkpt><trkpt lat="39.6494007" lon="-0.5989965"><ele>178.0</ele><time>2026-04-04T07:12:22.609Z</time></trkpt><trkpt lat="39.6494988" lon="-0.599017"><ele>179.0</ele><time>2026-04-04T07:12:23.609Z</time></trkpt><trkpt lat="39.6495918" lon="-0.5990709"><ele>180.0</ele><time>2026-04-04T07:12:24.609Z</time></trkpt><trkpt lat="39.6496712" lon="-0.5991195"><ele>181.0</ele><time>2026-04-04T07:12:25.607Z</time></trkpt><trkpt lat="39.6497262" lon="-0.5991808"><ele>182.0</ele><time>2026-04-04T07:12:26.609Z</time></trkpt><trkpt lat="39.6497804" lon="-0.5992733"><ele>182.0</ele><time>2026-04-04T07:12:27.61Z</time></trkpt><trkpt lat="39.6498136" lon="-0.5994297"><ele>182.0</ele><time>2026-04-04T07:12:28.61Z</time></trkpt><trkpt lat="39.6498538" lon="-0.5995903"><ele>182.0</ele><time>2026-04-04T07:12:29.608Z</time></trkpt><trkpt lat="39.6498946" lon="-0.5997624"><ele>182.0</ele><time>2026-04-04T07:12:30.61Z</time></trkpt><trkpt lat="39.6499367" lon="-0.5999408"><ele>182.0</ele><time>2026-04-04T07:12:31.609Z</time></trkpt><trkpt lat="39.6499902" lon="-0.6001165"><ele>182.0</ele><time>2026-04-04T07:12:32.608Z</time></trkpt><trkpt lat="39.6500445" lon="-0.6002861"><ele>182.0</ele><time>2026-04-04T07:12:33.608Z</time></trkpt><trkpt lat="39.6501081" lon="-0.6004457"><ele>182.0</ele><time>2026-04-04T07:12:34.61Z</time></trkpt><trkpt lat="39.6501804" lon="-0.600599"><ele>182.0</ele><time>2026-04-04T07:12:35.608Z</time></trkpt><trkpt lat="39.6502593" lon="-0.6007388"><ele>182.0</ele><time>2026-04-04T07:12:36.61Z</time></trkpt><trkpt lat="39.6503504" lon="-0.6008648"><ele>182.0</ele><time>2026-04-04T07:12:37.609Z</time></trkpt><trkpt lat="39.6504467" lon="-0.600981"><ele>182.0</ele><time>2026-04-04T07:12:38.61Z</time></trkpt><trkpt lat="39.6505497" lon="-0.6010808"><ele>182.0</ele><time>2026-04-04T07:12:39.61Z</time></trkpt><trkpt lat="39.6506569" lon="-0.6011439"><ele>182.0</ele><time>2026-04-04T07:12:40.609Z</time></trkpt><trkpt lat="39.6507805" lon="-0.6011853"><ele>182.0</ele><time>2026-04-04T07:12:41.609Z</time></trkpt><trkpt lat="39.6509039" lon="-0.6012193"><ele>182.0</ele><time>2026-04-04T07:12:42.609Z</time></trkpt><trkpt lat="39.6510518" lon="-0.6012618"><ele>182.75</ele><time>2026-04-04T07:12:43.608Z</time></trkpt><trkpt lat="39.6512031" lon="-0.60132"><ele>183.5</ele><time>2026-04-04T07:12:44.609Z</time></trkpt><trkpt lat="39.6513321" lon="-0.601389"><ele>184.25</ele><time>2026-04-04T07:12:45.609Z</time></trkpt><trkpt lat="39.6514672" lon="-0.6014344"><ele>185.0</ele><time>2026-04-04T07:12:46.609Z</time></trkpt><trkpt lat="39.6516127" lon="-0.6014644"><ele>185.0</ele><time>2026-04-04T07:12:47.609Z</time></trkpt><trkpt lat="39.6517715" lon="-0.6014941"><ele>185.0</ele><time>2026-04-04T07:12:48.608Z</time></trkpt><trkpt lat="39.651943" lon="-0.6015232"><ele>185.0</ele><time>2026-04-04T07:12:49.609Z</time></trkpt><trkpt lat="39.6521087" lon="-0.601533"><ele>186.33333333333331</ele><time>2026-04-04T07:12:50.608Z</time></trkpt><trkpt lat="39.6522795" lon="-0.6015291"><ele>187.66666666666666</ele><time>2026-04-04T07:12:51.609Z</time></trkpt><trkpt lat="39.6524547" lon="-0.601518"><ele>189.0</ele><time>2026-04-04T07:12:52.61Z</time></trkpt><trkpt lat="39.6525976" lon="-0.6015251"><ele>189.0</ele><time>2026-04-04T07:12:53.609Z</time></trkpt><trkpt lat="39.6527488" lon="-0.6015496"><ele>189.0</ele><time>2026-04-04T07:12:54.61Z</time></trkpt><trkpt lat="39.652898" lon="-0.6015996"><ele>189.0</ele><time>2026-04-04T07:12:55.609Z</time></trkpt><trkpt lat="39.6530451" lon="-0.6016666"><ele>189.5</ele><time>2026-04-04T07:12:56.608Z</time></trkpt><trkpt lat="39.6531799" lon="-0.6017361"><ele>190.0</ele><time>2026-04-04T07:12:57.609Z</time></trkpt><trkpt lat="39.6533108" lon="-0.6017905"><ele>190.5</ele><time>2026-04-04T07:12:58.609Z</time></trkpt><trkpt lat="39.6534323" lon="-0.6018204"><ele>191.0</ele><time>2026-04-04T07:12:59.61Z</time></trkpt><trkpt lat="39.6535643" lon="-0.6018369"><ele>192.60000000000002</ele><time>2026-04-04T07:13:00.608Z</time></trkpt><trkpt lat="39.6536872" lon="-0.6018568"><ele>194.2</ele><time>2026-04-04T07:13:01.609Z</time></trkpt><trkpt lat="39.6537998" lon="-0.601863"><ele>195.8</ele><time>2026-04-04T07:13:02.609Z</time></trkpt><trkpt lat="39.6538977" lon="-0.601841"><ele>197.39999999999998</ele><time>2026-04-04T07:13:03.609Z</time></trkpt><trkpt lat="39.6539988" lon="-0.6017938"><ele>199.0</ele><time>2026-04-04T07:13:04.609Z</time></trkpt><trkpt lat="39.6540998" lon="-0.6017343"><ele>199.0</ele><time>2026-04-04T07:13:05.609Z</time></trkpt><trkpt lat="39.6542289" lon="-0.6016509"><ele>199.0</ele><time>2026-04-04T07:13:06.608Z</time></trkpt><trkpt lat="39.6543427" lon="-0.6015844"><ele>199.0</ele><time>2026-04-04T07:13:07.609Z</time></trkpt><trkpt lat="39.6544446" lon="-0.601513"><ele>199.0</ele><time>2026-04-04T07:13:08.609Z</time></trkpt><trkpt lat="39.6545493" lon="-0.6014199"><ele>199.5</ele><time>2026-04-04T07:13:09.61Z</time></trkpt><trkpt lat="39.6546432" lon="-0.6013348"><ele>200.0</ele><time>2026-04-04T07:13:10.61Z</time></trkpt><trkpt lat="39.6547405" lon="-0.6012718"><ele>200.5</ele><time>2026-04-04T07:13:11.61Z</time></trkpt><trkpt lat="39.6548488" lon="-0.601227"><ele>201.0</ele><time>2026-04-04T07:13:12.609Z</time></trkpt><trkpt lat="39.6549664" lon="-0.6012027"><ele>201.0</ele><time>2026-04-04T07:13:13.608Z</time></trkpt><trkpt lat="39.6551086" lon="-0.6011847"><ele>201.0</ele><time>2026-04-04T07:13:14.609Z</time></trkpt><trkpt lat="39.6552642" lon="-0.60117"><ele>201.0</ele><time>2026-04-04T07:13:15.608Z</time></trkpt><trkpt lat="39.6554212" lon="-0.6011526"><ele>201.5</ele><time>2026-04-04T07:13:16.61Z</time></trkpt><trkpt lat="39.6555756" lon="-0.6011384"><ele>202.0</ele><time>2026-04-04T07:13:17.609Z</time></trkpt><trkpt lat="39.6557227" lon="-0.6011279"><ele>202.5</ele><time>2026-04-04T07:13:18.609Z</time></trkpt><trkpt lat="39.6558438" lon="-0.6011205"><ele>203.0</ele><time>2026-04-04T07:13:19.61Z</time></trkpt><trkpt lat="39.6559526" lon="-0.6011091"><ele>203.00000000000003</ele><time>2026-04-04T07:13:20.608Z</time></trkpt><trkpt lat="39.6560444" lon="-0.6011099"><ele>203.0</ele><time>2026-04-04T07:13:21.609Z</time></trkpt><trkpt lat="39.6561328" lon="-0.6011208"><ele>203.0</ele><time>2026-04-04T07:13:23.608Z</time></trkpt><trkpt lat="39.6561211" lon="-0.6012561"><ele>203.0</ele><time>2026-04-04T07:13:26.607Z</time></trkpt><trkpt lat="39.6560547" lon="-0.6013152"><ele>203.00000000000003</ele><time>2026-04-04T07:13:27.609Z</time></trkpt><trkpt lat="39.6559963" lon="-0.6013658"><ele>203.0</ele><time>2026-04-04T07:13:28.608Z</time></trkpt><trkpt lat="39.6559456" lon="-0.6014146"><ele>203.0</ele><time>2026-04-04T07:13:29.609Z</time></trkpt><trkpt lat="39.6559274" lon="-0.6015261"><ele>203.0</ele><time>2026-04-04T07:13:31.609Z</time></trkpt><trkpt lat="39.655987" lon="-0.6016644"><ele>203.0</ele><time>2026-04-04T07:13:33.609Z</time></trkpt><trkpt lat="39.6560563" lon="-0.6017473"><ele>203.0</ele><time>2026-04-04T07:13:34.609Z</time></trkpt><trkpt lat="39.6561393" lon="-0.6018422"><ele>203.0</ele><time>2026-04-04T07:13:35.61Z</time></trkpt><trkpt lat="39.6562278" lon="-0.6019546"><ele>204.0</ele><time>2026-04-04T07:13:36.608Z</time></trkpt><trkpt lat="39.6563285" lon="-0.6020961"><ele>205.0</ele><time>2026-04-04T07:13:37.609Z</time></trkpt><trkpt lat="39.6564307" lon="-0.6022485"><ele>206.0</ele><time>2026-04-04T07:13:38.608Z</time></trkpt><trkpt lat="39.656528" lon="-0.602397"><ele>206.0</ele><time>2026-04-04T07:13:39.608Z</time></trkpt><trkpt lat="39.6566207" lon="-0.6025349"><ele>206.0</ele><time>2026-04-04T07:13:40.61Z</time></trkpt><trkpt lat="39.6567097" lon="-0.6026467"><ele>206.0</ele><time>2026-04-04T07:13:41.609Z</time></trkpt><trkpt lat="39.6567891" lon="-0.6027432"><ele>206.0</ele><time>2026-04-04T07:13:42.609Z</time></trkpt><trkpt lat="39.6568558" lon="-0.6028435"><ele>205.4</ele><time>2026-04-04T07:13:43.609Z</time></trkpt><trkpt lat="39.6569088" lon="-0.6029524"><ele>204.8</ele><time>2026-04-04T07:13:44.608Z</time></trkpt><trkpt lat="39.6569462" lon="-0.6030633"><ele>204.20000000000002</ele><time>2026-04-04T07:13:45.609Z</time></trkpt><trkpt lat="39.6569506" lon="-0.603184"><ele>203.60000000000002</ele><time>2026-04-04T07:13:46.61Z</time></trkpt><trkpt lat="39.6569458" lon="-0.6032981"><ele>203.0</ele><time>2026-04-04T07:13:47.61Z</time></trkpt><trkpt lat="39.6568958" lon="-0.6034041"><ele>203.0</ele><time>2026-04-04T07:13:48.608Z</time></trkpt><trkpt lat="39.6568266" lon="-0.6035235"><ele>203.0</ele><time>2026-04-04T07:13:49.61Z</time></trkpt><trkpt lat="39.6567376" lon="-0.6036546"><ele>203.0</ele><time>2026-04-04T07:13:50.609Z</time></trkpt><trkpt lat="39.6566434" lon="-0.6037637"><ele>203.0</ele><time>2026-04-04T07:13:51.609Z</time></trkpt><trkpt lat="39.6565361" lon="-0.6038714"><ele>202.2</ele><time>2026-04-04T07:13:52.609Z</time></trkpt><trkpt lat="39.6564397" lon="-0.6039728"><ele>201.4</ele><time>2026-04-04T07:13:53.61Z</time></trkpt><trkpt lat="39.6563563" lon="-0.6040807"><ele>200.6</ele><time>2026-04-04T07:13:54.609Z</time></trkpt><trkpt lat="39.6562795" lon="-0.6041983"><ele>199.79999999999998</ele><time>2026-04-04T07:13:55.608Z</time></trkpt><trkpt lat="39.6562391" lon="-0.6043012"><ele>199.0</ele><time>2026-04-04T07:13:56.609Z</time></trkpt><trkpt lat="39.6561952" lon="-0.6044042"><ele>198.6</ele><time>2026-04-04T07:13:57.609Z</time></trkpt><trkpt lat="39.6561572" lon="-0.6045161"><ele>198.2</ele><time>2026-04-04T07:13:58.608Z</time></trkpt><trkpt lat="39.6561139" lon="-0.6046114"><ele>197.79999999999998</ele><time>2026-04-04T07:13:59.609Z</time></trkpt><trkpt lat="39.6560869" lon="-0.6046859"><ele>197.39999999999998</ele><time>2026-04-04T07:14:00.61Z</time></trkpt><trkpt lat="39.6560889" lon="-0.6048218"><ele>197.0</ele><time>2026-04-04T07:14:02.61Z</time></trkpt><trkpt lat="39.6561564" lon="-0.6049467"><ele>197.00000000000003</ele><time>2026-04-04T07:14:04.61Z</time></trkpt><trkpt lat="39.6562258" lon="-0.6050073"><ele>197.0</ele><time>2026-04-04T07:14:05.609Z</time></trkpt><trkpt lat="39.6562945" lon="-0.6050436"><ele>197.0</ele><time>2026-04-04T07:14:06.608Z</time></trkpt><trkpt lat="39.6563591" lon="-0.6050581"><ele>197.0</ele><time>2026-04-04T07:14:07.609Z</time></trkpt><trkpt lat="39.6564518" lon="-0.6050498"><ele>197.00000000000003</ele><time>2026-04-04T07:14:08.608Z</time></trkpt><trkpt lat="39.6565393" lon="-0.6050336"><ele>197.0</ele><time>2026-04-04T07:14:09.608Z</time></trkpt><trkpt lat="39.6566184" lon="-0.6050268"><ele>197.00000000000003</ele><time>2026-04-04T07:14:10.61Z</time></trkpt><trkpt lat="39.656696" lon="-0.6050416"><ele>197.0</ele><time>2026-04-04T07:14:11.609Z</time></trkpt><trkpt lat="39.6567671" lon="-0.6050708"><ele>197.0</ele><time>2026-04-04T07:14:12.608Z</time></trkpt><trkpt lat="39.6568206" lon="-0.6051174"><ele>197.0</ele><time>2026-04-04T07:14:13.609Z</time></trkpt><trkpt lat="39.6568731" lon="-0.6052013"><ele>197.00000000000003</ele><time>2026-04-04T07:14:14.608Z</time></trkpt><trkpt lat="39.6569361" lon="-0.6053148"><ele>197.0</ele><time>2026-04-04T07:14:15.609Z</time></trkpt><trkpt lat="39.6570016" lon="-0.6054501"><ele>197.0</ele><time>2026-04-04T07:14:16.607Z</time></trkpt><trkpt lat="39.6570622" lon="-0.605575"><ele>197.0</ele><time>2026-04-04T07:14:17.609Z</time></trkpt><trkpt lat="39.6571229" lon="-0.6056873"><ele>197.0</ele><time>2026-04-04T07:14:18.61Z</time></trkpt><trkpt lat="39.6571797" lon="-0.6057904"><ele>197.0</ele><time>2026-04-04T07:14:19.61Z</time></trkpt><trkpt lat="39.6572468" lon="-0.6058747"><ele>197.0</ele><time>2026-04-04T07:14:20.609Z</time></trkpt><trkpt lat="39.657317" lon="-0.6059558"><ele>197.0</ele><time>2026-04-04T07:14:21.608Z</time></trkpt><trkpt lat="39.6574142" lon="-0.6060445"><ele>197.0</ele><time>2026-04-04T07:14:22.608Z</time></trkpt><trkpt lat="39.6575134" lon="-0.6061534"><ele>197.0</ele><time>2026-04-04T07:14:23.609Z</time></trkpt><trkpt lat="39.6576135" lon="-0.6062632"><ele>197.0</ele><time>2026-04-04T07:14:24.61Z</time></trkpt><trkpt lat="39.6577108" lon="-0.6063768"><ele>196.25</ele><time>2026-04-04T07:14:25.609Z</time></trkpt><trkpt lat="39.6577951" lon="-0.6064883"><ele>195.5</ele><time>2026-04-04T07:14:26.608Z</time></trkpt><trkpt lat="39.6578817" lon="-0.6066117"><ele>194.75</ele><time>2026-04-04T07:14:27.608Z</time></trkpt><trkpt lat="39.6579569" lon="-0.6067489"><ele>194.0</ele><time>2026-04-04T07:14:28.609Z</time></trkpt><trkpt lat="39.6580349" lon="-0.6069142"><ele>194.0</ele><time>2026-04-04T07:14:29.609Z</time></trkpt><trkpt lat="39.6580977" lon="-0.6070604"><ele>194.0</ele><time>2026-04-04T07:14:30.61Z</time></trkpt><trkpt lat="39.658146" lon="-0.6071937"><ele>194.0</ele><time>2026-04-04T07:14:31.609Z</time></trkpt><trkpt lat="39.6581818" lon="-0.6073057"><ele>194.0</ele><time>2026-04-04T07:14:32.61Z</time></trkpt><trkpt lat="39.6582132" lon="-0.6073898"><ele>194.0</ele><time>2026-04-04T07:14:33.608Z</time></trkpt><trkpt lat="39.658294" lon="-0.607476"><ele>194.0</ele><time>2026-04-04T07:14:35.608Z</time></trkpt><trkpt lat="39.6584125" lon="-0.6074737"><ele>194.0</ele><time>2026-04-04T07:14:37.608Z</time></trkpt><trkpt lat="39.6585202" lon="-0.607442"><ele>194.0</ele><time>2026-04-04T07:14:38.61Z</time></trkpt><trkpt lat="39.6586055" lon="-0.6074161"><ele>194.0</ele><time>2026-04-04T07:14:39.609Z</time></trkpt><trkpt lat="39.6586887" lon="-0.6074093"><ele>194.0</ele><time>2026-04-04T07:14:40.61Z</time></trkpt><trkpt lat="39.658774" lon="-0.6074502"><ele>194.25</ele><time>2026-04-04T07:14:41.609Z</time></trkpt><trkpt lat="39.6588663" lon="-0.6075"><ele>194.5</ele><time>2026-04-04T07:14:42.609Z</time></trkpt><trkpt lat="39.6589786" lon="-0.6075792"><ele>194.75</ele><time>2026-04-04T07:14:43.608Z</time></trkpt><trkpt lat="39.6590937" lon="-0.6076585"><ele>195.0</ele><time>2026-04-04T07:14:44.609Z</time></trkpt><trkpt lat="39.6592003" lon="-0.6077344"><ele>195.0</ele><time>2026-04-04T07:14:45.61Z</time></trkpt><trkpt lat="39.6592925" lon="-0.6078013"><ele>195.0</ele><time>2026-04-04T07:14:46.609Z</time></trkpt><trkpt lat="39.6593735" lon="-0.6078593"><ele>195.0</ele><time>2026-04-04T07:14:47.61Z</time></trkpt><trkpt lat="39.6594722" lon="-0.6079071"><ele>195.0</ele><time>2026-04-04T07:14:48.61Z</time></trkpt><trkpt lat="39.6595755" lon="-0.6079466"><ele>195.0</ele><time>2026-04-04T07:14:49.609Z</time></trkpt><trkpt lat="39.6596756" lon="-0.6080005"><ele>194.4</ele><time>2026-04-04T07:14:50.61Z</time></trkpt><trkpt lat="39.6597626" lon="-0.608057"><ele>193.8</ele><time>2026-04-04T07:14:51.61Z</time></trkpt><trkpt lat="39.659844" lon="-0.6081102"><ele>193.2</ele><time>2026-04-04T07:14:52.608Z</time></trkpt><trkpt lat="39.6599452" lon="-0.6081733"><ele>192.6</ele><time>2026-04-04T07:14:54.609Z</time></trkpt><trkpt lat="39.6600101" lon="-0.6081641"><ele>192.0</ele><time>2026-04-04T07:14:56.608Z</time></trkpt><trkpt lat="39.6600771" lon="-0.6080139"><ele>192.0</ele><time>2026-04-04T07:14:58.61Z</time></trkpt><trkpt lat="39.660119" lon="-0.6078867"><ele>192.0</ele><time>2026-04-04T07:14:59.608Z</time></trkpt><trkpt lat="39.6601679" lon="-0.6077626"><ele>192.0</ele><time>2026-04-04T07:15:00.609Z</time></trkpt><trkpt lat="39.6602054" lon="-0.6076754"><ele>192.0</ele><time>2026-04-04T07:15:01.609Z</time></trkpt><trkpt lat="39.660256" lon="-0.6076136"><ele>192.0</ele><time>2026-04-04T07:15:02.609Z</time></trkpt><trkpt lat="39.6603613" lon="-0.6075963"><ele>191.83333333333334</ele><time>2026-04-04T07:15:04.61Z</time></trkpt><trkpt lat="39.6604133" lon="-0.6076447"><ele>191.66666666666666</ele><time>2026-04-04T07:15:05.609Z</time></trkpt><trkpt lat="39.6604713" lon="-0.6077243"><ele>191.5</ele><time>2026-04-04T07:15:06.608Z</time></trkpt><trkpt lat="39.6605274" lon="-0.6078055"><ele>191.33333333333331</ele><time>2026-04-04T07:15:07.609Z</time></trkpt><trkpt lat="39.6605889" lon="-0.6078736"><ele>191.16666666666666</ele><time>2026-04-04T07:15:08.609Z</time></trkpt><trkpt lat="39.660655" lon="-0.6079423"><ele>191.0</ele><time>2026-04-04T07:15:09.609Z</time></trkpt><trkpt lat="39.6607359" lon="-0.6079958"><ele>190.4</ele><time>2026-04-04T07:15:10.609Z</time></trkpt><trkpt lat="39.6608262" lon="-0.6080474"><ele>189.8</ele><time>2026-04-04T07:15:11.608Z</time></trkpt><trkpt lat="39.6609296" lon="-0.608107"><ele>189.20000000000002</ele><time>2026-04-04T07:15:12.609Z</time></trkpt><trkpt lat="39.6610132" lon="-0.6081846"><ele>188.60000000000002</ele><time>2026-04-04T07:15:13.609Z</time></trkpt><trkpt lat="39.6611132" lon="-0.6082491"><ele>188.0</ele><time>2026-04-04T07:15:14.61Z</time></trkpt><trkpt lat="39.6612159" lon="-0.6083078"><ele>188.0</ele><time>2026-04-04T07:15:15.609Z</time></trkpt><trkpt lat="39.661334" lon="-0.6083622"><ele>188.0</ele><time>2026-04-04T07:15:16.609Z</time></trkpt><trkpt lat="39.6614451" lon="-0.6084072"><ele>188.0</ele><time>2026-04-04T07:15:17.608Z</time></trkpt><trkpt lat="39.661549" lon="-0.6084322"><ele>188.0</ele><time>2026-04-04T07:15:18.609Z</time></trkpt><trkpt lat="39.661665" lon="-0.6084381"><ele>188.0</ele><time>2026-04-04T07:15:19.609Z</time></trkpt><trkpt lat="39.6618036" lon="-0.6084443"><ele>188.0</ele><time>2026-04-04T07:15:20.609Z</time></trkpt><trkpt lat="39.661927" lon="-0.6084446"><ele>188.0</ele><time>2026-04-04T07:15:21.608Z</time></trkpt><trkpt lat="39.6620461" lon="-0.6084521"><ele>188.0</ele><time>2026-04-04T07:15:22.608Z</time></trkpt><trkpt lat="39.6621536" lon="-0.6084886"><ele>189.0</ele><time>2026-04-04T07:15:23.609Z</time></trkpt><trkpt lat="39.6622501" lon="-0.6085556"><ele>190.0</ele><time>2026-04-04T07:15:24.61Z</time></trkpt><trkpt lat="39.6623462" lon="-0.6086646"><ele>191.0</ele><time>2026-04-04T07:15:25.609Z</time></trkpt><trkpt lat="39.6624237" lon="-0.6087968"><ele>192.0</ele><time>2026-04-04T07:15:26.609Z</time></trkpt><trkpt lat="39.662527" lon="-0.6089412"><ele>192.5</ele><time>2026-04-04T07:15:27.61Z</time></trkpt><trkpt lat="39.6626222" lon="-0.6090771"><ele>193.0</ele><time>2026-04-04T07:15:28.609Z</time></trkpt><trkpt lat="39.6627075" lon="-0.6092"><ele>193.5</ele><time>2026-04-04T07:15:29.61Z</time></trkpt><trkpt lat="39.6627924" lon="-0.6093044"><ele>194.0</ele><time>2026-04-04T07:15:30.608Z</time></trkpt><trkpt lat="39.6628969" lon="-0.6093987"><ele>195.33333333333334</ele><time>2026-04-04T07:15:31.61Z</time></trkpt><trkpt lat="39.6630166" lon="-0.6094862"><ele>196.66666666666669</ele><time>2026-04-04T07:15:32.61Z</time></trkpt><trkpt lat="39.6631499" lon="-0.6095829"><ele>198.0</ele><time>2026-04-04T07:15:33.609Z</time></trkpt><trkpt lat="39.6632973" lon="-0.6096862"><ele>198.25</ele><time>2026-04-04T07:15:34.608Z</time></trkpt><trkpt lat="39.6634423" lon="-0.6097734"><ele>198.5</ele><time>2026-04-04T07:15:35.608Z</time></trkpt><trkpt lat="39.6635768" lon="-0.6098572"><ele>198.75</ele><time>2026-04-04T07:15:36.61Z</time></trkpt><trkpt lat="39.6636844" lon="-0.6099378"><ele>199.0</ele><time>2026-04-04T07:15:37.609Z</time></trkpt><trkpt lat="39.6637752" lon="-0.6100162"><ele>199.0</ele><time>2026-04-04T07:15:38.609Z</time></trkpt><trkpt lat="39.6638513" lon="-0.6100979"><ele>199.0</ele><time>2026-04-04T07:15:39.608Z</time></trkpt><trkpt lat="39.663894" lon="-0.6102"><ele>199.0</ele><time>2026-04-04T07:15:40.609Z</time></trkpt><trkpt lat="39.6639137" lon="-0.6103183"><ele>199.0</ele><time>2026-04-04T07:15:41.611Z</time></trkpt><trkpt lat="39.6639147" lon="-0.6104444"><ele>199.0</ele><time>2026-04-04T07:15:42.609Z</time></trkpt><trkpt lat="39.6638767" lon="-0.6106"><ele>199.0</ele><time>2026-04-04T07:15:43.608Z</time></trkpt><trkpt lat="39.6638428" lon="-0.6107541"><ele>199.0</ele><time>2026-04-04T07:15:44.61Z</time></trkpt><trkpt lat="39.663794" lon="-0.6109442"><ele>199.0</ele><time>2026-04-04T07:15:45.609Z</time></trkpt><trkpt lat="39.6637499" lon="-0.611122"><ele>199.0</ele><time>2026-04-04T07:15:46.609Z</time></trkpt><trkpt lat="39.663712" lon="-0.611277"><ele>198.99999999999997</ele><time>2026-04-04T07:15:47.609Z</time></trkpt><trkpt lat="39.6636928" lon="-0.6114022"><ele>199.0</ele><time>2026-04-04T07:15:48.609Z</time></trkpt><trkpt lat="39.6636943" lon="-0.6115092"><ele>199.0</ele><time>2026-04-04T07:15:49.61Z</time></trkpt><trkpt lat="39.663713" lon="-0.6116008"><ele>199.0</ele><time>2026-04-04T07:15:50.609Z</time></trkpt><trkpt lat="39.6637578" lon="-0.6117004"><ele>198.99999999999997</ele><time>2026-04-04T07:15:51.609Z</time></trkpt><trkpt lat="39.6638119" lon="-0.6118083"><ele>199.0</ele><time>2026-04-04T07:15:52.609Z</time></trkpt><trkpt lat="39.663887" lon="-0.6119138"><ele>199.0</ele><time>2026-04-04T07:15:53.609Z</time></trkpt><trkpt lat="39.663963" lon="-0.6120364"><ele>199.0</ele><time>2026-04-04T07:15:54.61Z</time></trkpt><trkpt lat="39.6640439" lon="-0.6121709"><ele>199.0</ele><time>2026-04-04T07:15:55.61Z</time></trkpt><trkpt lat="39.6641308" lon="-0.6123258"><ele>199.0</ele><time>2026-04-04T07:15:56.608Z</time></trkpt><trkpt lat="39.664227" lon="-0.6124892"><ele>199.0</ele><time>2026-04-04T07:15:57.609Z</time></trkpt><trkpt lat="39.6643328" lon="-0.6126595"><ele>199.0</ele><time>2026-04-04T07:15:58.608Z</time></trkpt><trkpt lat="39.6644432" lon="-0.6128426"><ele>199.0</ele><time>2026-04-04T07:15:59.61Z</time></trkpt><trkpt lat="39.6645578" lon="-0.6130312"><ele>198.66666666666666</ele><time>2026-04-04T07:16:00.608Z</time></trkpt><trkpt lat="39.664663" lon="-0.6131951"><ele>198.33333333333331</ele><time>2026-04-04T07:16:01.609Z</time></trkpt><trkpt lat="39.664755" lon="-0.6133699"><ele>198.0</ele><time>2026-04-04T07:16:02.61Z</time></trkpt><trkpt lat="39.6648309" lon="-0.6135464"><ele>198.0</ele><time>2026-04-04T07:16:03.608Z</time></trkpt><trkpt lat="39.6648945" lon="-0.6137305"><ele>198.0</ele><time>2026-04-04T07:16:04.609Z</time></trkpt><trkpt lat="39.6649344" lon="-0.6139389"><ele>198.0</ele><time>2026-04-04T07:16:05.611Z</time></trkpt><trkpt lat="39.6649633" lon="-0.6141683"><ele>198.0</ele><time>2026-04-04T07:16:06.61Z</time></trkpt><trkpt lat="39.6649899" lon="-0.6144133"><ele>198.0</ele><time>2026-04-04T07:16:07.61Z</time></trkpt><trkpt lat="39.6650135" lon="-0.6146555"><ele>198.0</ele><time>2026-04-04T07:16:08.609Z</time></trkpt><trkpt lat="39.6650359" lon="-0.6149032"><ele>198.0</ele><time>2026-04-04T07:16:09.61Z</time></trkpt><trkpt lat="39.665057" lon="-0.6151616"><ele>198.0</ele><time>2026-04-04T07:16:10.609Z</time></trkpt><trkpt lat="39.6650817" lon="-0.6154232"><ele>198.0</ele><time>2026-04-04T07:16:11.609Z</time></trkpt><trkpt lat="39.6651072" lon="-0.6156682"><ele>197.66666666666669</ele><time>2026-04-04T07:16:12.608Z</time></trkpt><trkpt lat="39.6651318" lon="-0.6159069"><ele>197.33333333333334</ele><time>2026-04-04T07:16:13.608Z</time></trkpt><trkpt lat="39.6651531" lon="-0.6161344"><ele>197.0</ele><time>2026-04-04T07:16:14.609Z</time></trkpt><trkpt lat="39.6651677" lon="-0.6163352"><ele>197.0</ele><time>2026-04-04T07:16:15.609Z</time></trkpt><trkpt lat="39.66519" lon="-0.6165008"><ele>197.0</ele><time>2026-04-04T07:16:16.608Z</time></trkpt><trkpt lat="39.6652195" lon="-0.6166422"><ele>197.0</ele><time>2026-04-04T07:16:17.608Z</time></trkpt><trkpt lat="39.6652549" lon="-0.61676"><ele>197.0</ele><time>2026-04-04T07:16:18.609Z</time></trkpt><trkpt lat="39.6653089" lon="-0.6168441"><ele>197.0</ele><time>2026-04-04T07:16:19.61Z</time></trkpt><trkpt lat="39.6653845" lon="-0.6169136"><ele>197.5</ele><time>2026-04-04T07:16:20.608Z</time></trkpt><trkpt lat="39.6654856" lon="-0.6169649"><ele>198.0</ele><time>2026-04-04T07:16:21.609Z</time></trkpt><trkpt lat="39.6656061" lon="-0.6170109"><ele>198.5</ele><time>2026-04-04T07:16:22.609Z</time></trkpt><trkpt lat="39.665742" lon="-0.617061"><ele>199.0</ele><time>2026-04-04T07:16:23.608Z</time></trkpt><trkpt lat="39.665891" lon="-0.6171211"><ele>199.33333333333331</ele><time>2026-04-04T07:16:24.609Z</time></trkpt><trkpt lat="39.6660495" lon="-0.6171625"><ele>199.66666666666669</ele><time>2026-04-04T07:16:25.609Z</time></trkpt><trkpt lat="39.6662199" lon="-0.6172057"><ele>200.0</ele><time>2026-04-04T07:16:26.609Z</time></trkpt><trkpt lat="39.6663934" lon="-0.6172581"><ele>200.66666666666669</ele><time>2026-04-04T07:16:27.609Z</time></trkpt><trkpt lat="39.6665799" lon="-0.6173027"><ele>201.33333333333331</ele><time>2026-04-04T07:16:28.61Z</time></trkpt><trkpt lat="39.6667678" lon="-0.617345"><ele>202.0</ele><time>2026-04-04T07:16:29.608Z</time></trkpt><trkpt lat="39.6669571" lon="-0.6173838"><ele>202.33333333333331</ele><time>2026-04-04T07:16:30.609Z</time></trkpt><trkpt lat="39.6671504" lon="-0.6174236"><ele>202.66666666666669</ele><time>2026-04-04T07:16:31.609Z</time></trkpt><trkpt lat="39.6673444" lon="-0.617471"><ele>203.0</ele><time>2026-04-04T07:16:32.609Z</time></trkpt><trkpt lat="39.6675368" lon="-0.6175134"><ele>203.0</ele><time>2026-04-04T07:16:33.609Z</time></trkpt><trkpt lat="39.6677249" lon="-0.6175607"><ele>203.0</ele><time>2026-04-04T07:16:34.61Z</time></trkpt><trkpt lat="39.6679214" lon="-0.6176004"><ele>203.0</ele><time>2026-04-04T07:16:35.609Z</time></trkpt><trkpt lat="39.6681121" lon="-0.617638"><ele>203.66666666666669</ele><time>2026-04-04T07:16:36.61Z</time></trkpt><trkpt lat="39.668302" lon="-0.6176796"><ele>204.33333333333331</ele><time>2026-04-04T07:16:37.61Z</time></trkpt><trkpt lat="39.6684929" lon="-0.6177209"><ele>205.0</ele><time>2026-04-04T07:16:38.61Z</time></trkpt><trkpt lat="39.6686781" lon="-0.6177688"><ele>205.0</ele><time>2026-04-04T07:16:39.609Z</time></trkpt><trkpt lat="39.6688691" lon="-0.6178249"><ele>205.0</ele><time>2026-04-04T07:16:40.61Z</time></trkpt><trkpt lat="39.6690472" lon="-0.6178889"><ele>205.0</ele><time>2026-04-04T07:16:41.61Z</time></trkpt><trkpt lat="39.6692076" lon="-0.6179555"><ele>205.0</ele><time>2026-04-04T07:16:42.61Z</time></trkpt><trkpt lat="39.6693549" lon="-0.6180207"><ele>205.0</ele><time>2026-04-04T07:16:43.608Z</time></trkpt><trkpt lat="39.6694926" lon="-0.6180838"><ele>205.0</ele><time>2026-04-04T07:16:44.611Z</time></trkpt><trkpt lat="39.6696406" lon="-0.6181289"><ele>205.33333333333331</ele><time>2026-04-04T07:16:45.609Z</time></trkpt><trkpt lat="39.669786" lon="-0.6181772"><ele>205.66666666666669</ele><time>2026-04-04T07:16:46.609Z</time></trkpt><trkpt lat="39.6699359" lon="-0.6182323"><ele>206.0</ele><time>2026-04-04T07:16:47.609Z</time></trkpt><trkpt lat="39.6700786" lon="-0.618284"><ele>206.0</ele><time>2026-04-04T07:16:48.608Z</time></trkpt><trkpt lat="39.6702123" lon="-0.6183308"><ele>206.0</ele><time>2026-04-04T07:16:49.61Z</time></trkpt><trkpt lat="39.6703578" lon="-0.6183693"><ele>206.0</ele><time>2026-04-04T07:16:50.61Z</time></trkpt><trkpt lat="39.6704913" lon="-0.6183879"><ele>206.0</ele><time>2026-04-04T07:16:51.609Z</time></trkpt><trkpt lat="39.6706222" lon="-0.6183807"><ele>206.33333333333334</ele><time>2026-04-04T07:16:52.61Z</time></trkpt><trkpt lat="39.670773" lon="-0.6183644"><ele>206.66666666666669</ele><time>2026-04-04T07:16:53.61Z</time></trkpt><trkpt lat="39.6709273" lon="-0.6183407"><ele>207.0</ele><time>2026-04-04T07:16:54.608Z</time></trkpt><trkpt lat="39.6710869" lon="-0.6183194"><ele>207.33333333333331</ele><time>2026-04-04T07:16:55.609Z</time></trkpt><trkpt lat="39.6712503" lon="-0.6182942"><ele>207.66666666666666</ele><time>2026-04-04T07:16:56.609Z</time></trkpt><trkpt lat="39.6714083" lon="-0.6182706"><ele>208.0</ele><time>2026-04-04T07:16:57.609Z</time></trkpt><trkpt lat="39.6715663" lon="-0.6182508"><ele>208.0</ele><time>2026-04-04T07:16:58.61Z</time></trkpt><trkpt lat="39.6717134" lon="-0.6182409"><ele>208.0</ele><time>2026-04-04T07:16:59.609Z</time></trkpt><trkpt lat="39.6718619" lon="-0.6182475"><ele>208.0</ele><time>2026-04-04T07:17:00.608Z</time></trkpt><trkpt lat="39.6720194" lon="-0.6182705"><ele>208.66666666666666</ele><time>2026-04-04T07:17:01.609Z</time></trkpt><trkpt lat="39.6721861" lon="-0.6183063"><ele>209.33333333333331</ele><time>2026-04-04T07:17:02.61Z</time></trkpt><trkpt lat="39.6723448" lon="-0.6183498"><ele>210.0</ele><time>2026-04-04T07:17:03.61Z</time></trkpt><trkpt lat="39.6724981" lon="-0.6183975"><ele>210.0</ele><time>2026-04-04T07:17:04.609Z</time></trkpt><trkpt lat="39.6726473" lon="-0.618435"><ele>210.0</ele><time>2026-04-04T07:17:05.609Z</time></trkpt><trkpt lat="39.6727983" lon="-0.6184752"><ele>210.0</ele><time>2026-04-04T07:17:06.61Z</time></trkpt><trkpt lat="39.6729427" lon="-0.6185079"><ele>210.16666666666666</ele><time>2026-04-04T07:17:07.61Z</time></trkpt><trkpt lat="39.6730479" lon="-0.618541"><ele>210.33333333333331</ele><time>2026-04-04T07:17:08.608Z</time></trkpt><trkpt lat="39.673153" lon="-0.6185794"><ele>210.5</ele><time>2026-04-04T07:17:09.609Z</time></trkpt><trkpt lat="39.673238" lon="-0.6186037"><ele>210.66666666666666</ele><time>2026-04-04T07:17:10.609Z</time></trkpt><trkpt lat="39.6733012" lon="-0.6186211"><ele>210.83333333333331</ele><time>2026-04-04T07:17:11.609Z</time></trkpt><trkpt lat="39.6733665" lon="-0.6186376"><ele>211.0</ele><time>2026-04-04T07:17:12.609Z</time></trkpt><trkpt lat="39.6734465" lon="-0.6186597"><ele>211.0</ele><time>2026-04-04T07:17:13.609Z</time></trkpt><trkpt lat="39.6735848" lon="-0.6186909"><ele>211.0</ele><time>2026-04-04T07:17:14.609Z</time></trkpt><trkpt lat="39.6737301" lon="-0.6187364"><ele>211.0</ele><time>2026-04-04T07:17:15.609Z</time></trkpt><trkpt lat="39.673892" lon="-0.6187885"><ele>211.66666666666666</ele><time>2026-04-04T07:17:16.609Z</time></trkpt><trkpt lat="39.6740589" lon="-0.6188368"><ele>212.33333333333331</ele><time>2026-04-04T07:17:17.608Z</time></trkpt><trkpt lat="39.6742308" lon="-0.6188836"><ele>213.0</ele><time>2026-04-04T07:17:18.611Z</time></trkpt><trkpt lat="39.6744149" lon="-0.6189294"><ele>213.0</ele><time>2026-04-04T07:17:19.61Z</time></trkpt><trkpt lat="39.6746003" lon="-0.6189812"><ele>213.0</ele><time>2026-04-04T07:17:20.61Z</time></trkpt><trkpt lat="39.6747809" lon="-0.619033"><ele>213.0</ele><time>2026-04-04T07:17:21.609Z</time></trkpt><trkpt lat="39.6749616" lon="-0.6190871"><ele>213.0</ele><time>2026-04-04T07:17:22.609Z</time></trkpt><trkpt lat="39.6751521" lon="-0.6191366"><ele>213.0</ele><time>2026-04-04T07:17:23.608Z</time></trkpt><trkpt lat="39.6753462" lon="-0.6191828"><ele>213.0</ele><time>2026-04-04T07:17:24.608Z</time></trkpt><trkpt lat="39.6755294" lon="-0.6192365"><ele>213.66666666666669</ele><time>2026-04-04T07:17:25.608Z</time></trkpt><trkpt lat="39.6757064" lon="-0.6192955"><ele>214.33333333333334</ele><time>2026-04-04T07:17:26.609Z</time></trkpt><trkpt lat="39.6758893" lon="-0.6193453"><ele>215.0</ele><time>2026-04-04T07:17:27.611Z</time></trkpt><trkpt lat="39.6760824" lon="-0.6193884"><ele>215.33333333333334</ele><time>2026-04-04T07:17:28.609Z</time></trkpt><trkpt lat="39.6762741" lon="-0.6194408"><ele>215.66666666666669</ele><time>2026-04-04T07:17:29.611Z</time></trkpt><trkpt lat="39.6764682" lon="-0.6194906"><ele>216.0</ele><time>2026-04-04T07:17:30.61Z</time></trkpt><trkpt lat="39.6766515" lon="-0.6195469"><ele>216.0</ele><time>2026-04-04T07:17:31.61Z</time></trkpt><trkpt lat="39.6768367" lon="-0.6195979"><ele>216.0</ele><time>2026-04-04T07:17:32.609Z</time></trkpt><trkpt lat="39.6770148" lon="-0.6196553"><ele>216.0</ele><time>2026-04-04T07:17:33.61Z</time></trkpt><trkpt lat="39.677196" lon="-0.6197253"><ele>215.66666666666669</ele><time>2026-04-04T07:17:34.609Z</time></trkpt><trkpt lat="39.67738" lon="-0.6198262"><ele>215.33333333333334</ele><time>2026-04-04T07:17:35.611Z</time></trkpt><trkpt lat="39.6775581" lon="-0.6199297"><ele>215.0</ele><time>2026-04-04T07:17:36.609Z</time></trkpt><trkpt lat="39.6777296" lon="-0.620036"><ele>215.33333333333334</ele><time>2026-04-04T07:17:37.61Z</time></trkpt><trkpt lat="39.6778952" lon="-0.6201358"><ele>215.66666666666669</ele><time>2026-04-04T07:17:38.61Z</time></trkpt><trkpt lat="39.6780634" lon="-0.6202401"><ele>216.0</ele><time>2026-04-04T07:17:39.609Z</time></trkpt><trkpt lat="39.6782261" lon="-0.6203374"><ele>215.33333333333331</ele><time>2026-04-04T07:17:40.609Z</time></trkpt><trkpt lat="39.678375" lon="-0.6204275"><ele>214.66666666666666</ele><time>2026-04-04T07:17:41.61Z</time></trkpt><trkpt lat="39.6785127" lon="-0.6205099"><ele>214.0</ele><time>2026-04-04T07:17:42.609Z</time></trkpt><trkpt lat="39.6786512" lon="-0.6205895"><ele>216.0</ele><time>2026-04-04T07:17:43.609Z</time></trkpt><trkpt lat="39.6787953" lon="-0.6206752"><ele>218.0</ele><time>2026-04-04T07:17:44.609Z</time></trkpt><trkpt lat="39.6789408" lon="-0.6207694"><ele>220.0</ele><time>2026-04-04T07:17:45.61Z</time></trkpt><trkpt lat="39.6790779" lon="-0.6208585"><ele>220.0</ele><time>2026-04-04T07:17:46.608Z</time></trkpt><trkpt lat="39.6791873" lon="-0.6209203"><ele>220.0</ele><time>2026-04-04T07:17:47.609Z</time></trkpt><trkpt lat="39.679292" lon="-0.6209629"><ele>220.0</ele><time>2026-04-04T07:17:48.609Z</time></trkpt><trkpt lat="39.6794116" lon="-0.6209829"><ele>220.0</ele><time>2026-04-04T07:17:49.61Z</time></trkpt><trkpt lat="39.6795489" lon="-0.6209878"><ele>220.66666666666666</ele><time>2026-04-04T07:17:50.609Z</time></trkpt><trkpt lat="39.6797043" lon="-0.6209926"><ele>221.33333333333331</ele><time>2026-04-04T07:17:51.608Z</time></trkpt><trkpt lat="39.6798645" lon="-0.620999"><ele>222.0</ele><time>2026-04-04T07:17:52.611Z</time></trkpt><trkpt lat="39.6800298" lon="-0.6210061"><ele>222.0</ele><time>2026-04-04T07:17:53.61Z</time></trkpt><trkpt lat="39.6802036" lon="-0.6210125"><ele>222.0</ele><time>2026-04-04T07:17:54.608Z</time></trkpt><trkpt lat="39.6803762" lon="-0.6210215"><ele>222.0</ele><time>2026-04-04T07:17:55.609Z</time></trkpt><trkpt lat="39.6805591" lon="-0.6210344"><ele>222.0</ele><time>2026-04-04T07:17:56.611Z</time></trkpt><trkpt lat="39.6807504" lon="-0.6210483"><ele>222.0</ele><time>2026-04-04T07:17:57.609Z</time></trkpt><trkpt lat="39.6809394" lon="-0.6210602"><ele>222.0</ele><time>2026-04-04T07:17:58.609Z</time></trkpt><trkpt lat="39.6811143" lon="-0.6210696"><ele>222.0</ele><time>2026-04-04T07:17:59.609Z</time></trkpt><trkpt lat="39.6812764" lon="-0.6210758"><ele>222.0</ele><time>2026-04-04T07:18:00.608Z</time></trkpt><trkpt lat="39.6814537" lon="-0.6210951"><ele>222.0</ele><time>2026-04-04T07:18:01.61Z</time></trkpt><trkpt lat="39.681627" lon="-0.6211298"><ele>222.33333333333331</ele><time>2026-04-04T07:18:02.609Z</time></trkpt><trkpt lat="39.6818112" lon="-0.6211909"><ele>222.66666666666666</ele><time>2026-04-04T07:18:03.608Z</time></trkpt><trkpt lat="39.682002" lon="-0.6212752"><ele>223.0</ele><time>2026-04-04T07:18:04.61Z</time></trkpt><trkpt lat="39.6821938" lon="-0.6213543"><ele>223.0</ele><time>2026-04-04T07:18:05.61Z</time></trkpt><trkpt lat="39.6823747" lon="-0.6214403"><ele>223.0</ele><time>2026-04-04T07:18:06.609Z</time></trkpt><trkpt lat="39.6825532" lon="-0.6215228"><ele>223.0</ele><time>2026-04-04T07:18:07.609Z</time></trkpt><trkpt lat="39.6827314" lon="-0.6216114"><ele>224.0</ele><time>2026-04-04T07:18:08.608Z</time></trkpt><trkpt lat="39.6829081" lon="-0.6217014"><ele>225.0</ele><time>2026-04-04T07:18:09.609Z</time></trkpt><trkpt lat="39.6830854" lon="-0.6217803"><ele>226.0</ele><time>2026-04-04T07:18:10.609Z</time></trkpt><trkpt lat="39.6832558" lon="-0.6218527"><ele>226.0</ele><time>2026-04-04T07:18:11.609Z</time></trkpt><trkpt lat="39.683439" lon="-0.6219357"><ele>226.0</ele><time>2026-04-04T07:18:12.608Z</time></trkpt><trkpt lat="39.6836123" lon="-0.622003"><ele>226.0</ele><time>2026-04-04T07:18:13.609Z</time></trkpt><trkpt lat="39.6837546" lon="-0.6220723"><ele>225.33333333333331</ele><time>2026-04-04T07:18:14.609Z</time></trkpt><trkpt lat="39.6839096" lon="-0.6221436"><ele>224.66666666666669</ele><time>2026-04-04T07:18:15.61Z</time></trkpt><trkpt lat="39.6840513" lon="-0.6222128"><ele>224.0</ele><time>2026-04-04T07:18:16.61Z</time></trkpt><trkpt lat="39.6841859" lon="-0.6222721"><ele>224.0</ele><time>2026-04-04T07:18:17.609Z</time></trkpt><trkpt lat="39.684333" lon="-0.6223136"><ele>224.0</ele><time>2026-04-04T07:18:18.609Z</time></trkpt><trkpt lat="39.6844833" lon="-0.6223421"><ele>224.0</ele><time>2026-04-04T07:18:19.609Z</time></trkpt><trkpt lat="39.6846485" lon="-0.6223622"><ele>224.0</ele><time>2026-04-04T07:18:20.61Z</time></trkpt><trkpt lat="39.684818" lon="-0.6223824"><ele>224.0</ele><time>2026-04-04T07:18:21.609Z</time></trkpt><trkpt lat="39.6849957" lon="-0.6223979"><ele>224.0</ele><time>2026-04-04T07:18:22.609Z</time></trkpt><trkpt lat="39.6851767" lon="-0.6224119"><ele>225.0</ele><time>2026-04-04T07:18:23.61Z</time></trkpt><trkpt lat="39.6853509" lon="-0.6224179"><ele>226.0</ele><time>2026-04-04T07:18:24.609Z</time></trkpt><trkpt lat="39.6855325" lon="-0.6224343"><ele>227.0</ele><time>2026-04-04T07:18:25.609Z</time></trkpt><trkpt lat="39.6857163" lon="-0.6224648"><ele>227.0</ele><time>2026-04-04T07:18:26.609Z</time></trkpt><trkpt lat="39.6858988" lon="-0.6225157"><ele>227.0</ele><time>2026-04-04T07:18:27.611Z</time></trkpt><trkpt lat="39.6860807" lon="-0.622581"><ele>227.0</ele><time>2026-04-04T07:18:28.611Z</time></trkpt><trkpt lat="39.6862646" lon="-0.6226634"><ele>227.66666666666669</ele><time>2026-04-04T07:18:29.611Z</time></trkpt><trkpt lat="39.6864536" lon="-0.6227392"><ele>228.33333333333331</ele><time>2026-04-04T07:18:30.609Z</time></trkpt><trkpt lat="39.686642" lon="-0.6228233"><ele>229.0</ele><time>2026-04-04T07:18:31.61Z</time></trkpt><trkpt lat="39.686832" lon="-0.6229062"><ele>229.33333333333331</ele><time>2026-04-04T07:18:32.611Z</time></trkpt><trkpt lat="39.6870214" lon="-0.622988"><ele>229.66666666666669</ele><time>2026-04-04T07:18:33.61Z</time></trkpt><trkpt lat="39.6872082" lon="-0.623072"><ele>230.0</ele><time>2026-04-04T07:18:34.61Z</time></trkpt><trkpt lat="39.6873934" lon="-0.6231461"><ele>230.0</ele><time>2026-04-04T07:18:35.609Z</time></trkpt><trkpt lat="39.6875797" lon="-0.6232144"><ele>230.0</ele><time>2026-04-04T07:18:36.61Z</time></trkpt><trkpt lat="39.6877755" lon="-0.6232725"><ele>230.0</ele><time>2026-04-04T07:18:37.61Z</time></trkpt><trkpt lat="39.6879719" lon="-0.6233224"><ele>230.0</ele><time>2026-04-04T07:18:38.608Z</time></trkpt><trkpt lat="39.6881729" lon="-0.623373"><ele>230.0</ele><time>2026-04-04T07:18:39.608Z</time></trkpt><trkpt lat="39.688376" lon="-0.6234311"><ele>230.0</ele><time>2026-04-04T07:18:40.609Z</time></trkpt><trkpt lat="39.6885748" lon="-0.6234881"><ele>229.66666666666669</ele><time>2026-04-04T07:18:41.609Z</time></trkpt><trkpt lat="39.6887752" lon="-0.6235532"><ele>229.33333333333331</ele><time>2026-04-04T07:18:42.609Z</time></trkpt><trkpt lat="39.6889824" lon="-0.6236156"><ele>229.0</ele><time>2026-04-04T07:18:43.609Z</time></trkpt><trkpt lat="39.6891751" lon="-0.6236788"><ele>229.0</ele><time>2026-04-04T07:18:44.608Z</time></trkpt><trkpt lat="39.6893611" lon="-0.623737"><ele>229.0</ele><time>2026-04-04T07:18:45.609Z</time></trkpt><trkpt lat="39.6895479" lon="-0.6237972"><ele>229.0</ele><time>2026-04-04T07:18:46.61Z</time></trkpt><trkpt lat="39.689735" lon="-0.6238569"><ele>228.66666666666666</ele><time>2026-04-04T07:18:47.608Z</time></trkpt><trkpt lat="39.6899182" lon="-0.623914"><ele>228.33333333333331</ele><time>2026-04-04T07:18:48.608Z</time></trkpt><trkpt lat="39.6901135" lon="-0.6239713"><ele>228.0</ele><time>2026-04-04T07:18:49.611Z</time></trkpt><trkpt lat="39.6903047" lon="-0.624027"><ele>228.66666666666669</ele><time>2026-04-04T07:18:50.61Z</time></trkpt><trkpt lat="39.6904734" lon="-0.6240739"><ele>229.33333333333334</ele><time>2026-04-04T07:18:51.609Z</time></trkpt><trkpt lat="39.6906184" lon="-0.6241121"><ele>230.0</ele><time>2026-04-04T07:18:52.61Z</time></trkpt><trkpt lat="39.6907462" lon="-0.6241463"><ele>230.0</ele><time>2026-04-04T07:18:53.609Z</time></trkpt><trkpt lat="39.690854" lon="-0.624175"><ele>230.0</ele><time>2026-04-04T07:18:54.61Z</time></trkpt><trkpt lat="39.6909471" lon="-0.6242051"><ele>230.0</ele><time>2026-04-04T07:18:55.611Z</time></trkpt><trkpt lat="39.6910266" lon="-0.6242211"><ele>230.0</ele><time>2026-04-04T07:18:56.61Z</time></trkpt><trkpt lat="39.6910946" lon="-0.6242417"><ele>230.0</ele><time>2026-04-04T07:18:57.609Z</time></trkpt><trkpt lat="39.6912301" lon="-0.6242668"><ele>230.25</ele><time>2026-04-04T07:18:59.608Z</time></trkpt><trkpt lat="39.691333" lon="-0.6242976"><ele>230.5</ele><time>2026-04-04T07:19:00.61Z</time></trkpt><trkpt lat="39.691445" lon="-0.6243371"><ele>230.75</ele><time>2026-04-04T07:19:01.609Z</time></trkpt><trkpt lat="39.691583" lon="-0.6243832"><ele>231.0</ele><time>2026-04-04T07:19:02.609Z</time></trkpt><trkpt lat="39.6917233" lon="-0.6244289"><ele>231.66666666666669</ele><time>2026-04-04T07:19:03.61Z</time></trkpt><trkpt lat="39.6918804" lon="-0.6244834"><ele>232.33333333333334</ele><time>2026-04-04T07:19:04.609Z</time></trkpt><trkpt lat="39.6920417" lon="-0.6245368"><ele>233.0</ele><time>2026-04-04T07:19:05.609Z</time></trkpt><trkpt lat="39.6922135" lon="-0.6245887"><ele>233.33333333333334</ele><time>2026-04-04T07:19:06.609Z</time></trkpt><trkpt lat="39.6923874" lon="-0.6246431"><ele>233.66666666666669</ele><time>2026-04-04T07:19:07.61Z</time></trkpt><trkpt lat="39.6925672" lon="-0.6247011"><ele>234.0</ele><time>2026-04-04T07:19:08.61Z</time></trkpt><trkpt lat="39.6927541" lon="-0.6247648"><ele>235.66666666666669</ele><time>2026-04-04T07:19:09.61Z</time></trkpt><trkpt lat="39.6929378" lon="-0.6248455"><ele>237.33333333333334</ele><time>2026-04-04T07:19:10.611Z</time></trkpt><trkpt lat="39.6931262" lon="-0.624936"><ele>239.0</ele><time>2026-04-04T07:19:11.61Z</time></trkpt><trkpt lat="39.693317" lon="-0.6250373"><ele>239.0</ele><time>2026-04-04T07:19:12.608Z</time></trkpt><trkpt lat="39.6935042" lon="-0.6251415"><ele>239.0</ele><time>2026-04-04T07:19:13.609Z</time></trkpt><trkpt lat="39.6936758" lon="-0.6252405"><ele>239.0</ele><time>2026-04-04T07:19:14.611Z</time></trkpt><trkpt lat="39.6938482" lon="-0.625335"><ele>239.0</ele><time>2026-04-04T07:19:15.61Z</time></trkpt><trkpt lat="39.6940227" lon="-0.6254242"><ele>239.0</ele><time>2026-04-04T07:19:16.609Z</time></trkpt><trkpt lat="39.6942027" lon="-0.6255168"><ele>239.0</ele><time>2026-04-04T07:19:17.609Z</time></trkpt><trkpt lat="39.6943773" lon="-0.6256056"><ele>239.33333333333334</ele><time>2026-04-04T07:19:18.61Z</time></trkpt><trkpt lat="39.6945461" lon="-0.6256962"><ele>239.66666666666669</ele><time>2026-04-04T07:19:19.609Z</time></trkpt><trkpt lat="39.6947312" lon="-0.6257919"><ele>240.0</ele><time>2026-04-04T07:19:20.611Z</time></trkpt><trkpt lat="39.6949098" lon="-0.6258817"><ele>240.0</ele><time>2026-04-04T07:19:21.609Z</time></trkpt><trkpt lat="39.6950903" lon="-0.6259691"><ele>240.0</ele><time>2026-04-04T07:19:22.609Z</time></trkpt><trkpt lat="39.6952784" lon="-0.6260371"><ele>240.0</ele><time>2026-04-04T07:19:23.61Z</time></trkpt><trkpt lat="39.6954634" lon="-0.6261045"><ele>241.33333333333331</ele><time>2026-04-04T07:19:24.61Z</time></trkpt><trkpt lat="39.6956584" lon="-0.6261771"><ele>242.66666666666666</ele><time>2026-04-04T07:19:25.61Z</time></trkpt><trkpt lat="39.6958574" lon="-0.6262509"><ele>244.0</ele><time>2026-04-04T07:19:26.61Z</time></trkpt><trkpt lat="39.6960398" lon="-0.6263275"><ele>245.33333333333331</ele><time>2026-04-04T07:19:27.609Z</time></trkpt><trkpt lat="39.6962205" lon="-0.6264024"><ele>246.66666666666669</ele><time>2026-04-04T07:19:28.61Z</time></trkpt><trkpt lat="39.6964058" lon="-0.626474"><ele>248.0</ele><time>2026-04-04T07:19:29.61Z</time></trkpt><trkpt lat="39.6965861" lon="-0.6265462"><ele>248.0</ele><time>2026-04-04T07:19:30.61Z</time></trkpt><trkpt lat="39.6967724" lon="-0.6266128"><ele>248.0</ele><time>2026-04-04T07:19:31.61Z</time></trkpt><trkpt lat="39.6969637" lon="-0.6266911"><ele>248.0</ele><time>2026-04-04T07:19:32.609Z</time></trkpt><trkpt lat="39.6971484" lon="-0.6267593"><ele>248.0</ele><time>2026-04-04T07:19:33.609Z</time></trkpt><trkpt lat="39.6973433" lon="-0.6268253"><ele>248.0</ele><time>2026-04-04T07:19:34.609Z</time></trkpt><trkpt lat="39.6975102" lon="-0.6268859"><ele>248.0</ele><time>2026-04-04T07:19:35.61Z</time></trkpt><trkpt lat="39.6976912" lon="-0.6269537"><ele>248.66666666666669</ele><time>2026-04-04T07:19:36.608Z</time></trkpt><trkpt lat="39.6978672" lon="-0.6270186"><ele>249.33333333333331</ele><time>2026-04-04T07:19:37.61Z</time></trkpt><trkpt lat="39.6980323" lon="-0.6270822"><ele>250.0</ele><time>2026-04-04T07:19:38.61Z</time></trkpt><trkpt lat="39.6981998" lon="-0.6271682"><ele>250.0</ele><time>2026-04-04T07:19:39.608Z</time></trkpt><trkpt lat="39.6983668" lon="-0.6272641"><ele>250.0</ele><time>2026-04-04T07:19:40.608Z</time></trkpt><trkpt lat="39.6985371" lon="-0.6273844"><ele>250.0</ele><time>2026-04-04T07:19:41.61Z</time></trkpt><trkpt lat="39.6987029" lon="-0.6275049"><ele>250.66666666666666</ele><time>2026-04-04T07:19:42.61Z</time></trkpt><trkpt lat="39.6988532" lon="-0.6276161"><ele>251.33333333333331</ele><time>2026-04-04T07:19:43.609Z</time></trkpt><trkpt lat="39.6989942" lon="-0.6277221"><ele>252.0</ele><time>2026-04-04T07:19:44.611Z</time></trkpt><trkpt lat="39.6991111" lon="-0.6278207"><ele>252.0</ele><time>2026-04-04T07:19:45.611Z</time></trkpt><trkpt lat="39.6992196" lon="-0.6279162"><ele>252.0</ele><time>2026-04-04T07:19:46.609Z</time></trkpt><trkpt lat="39.6993159" lon="-0.6280007"><ele>252.0</ele><time>2026-04-04T07:19:47.61Z</time></trkpt><trkpt lat="39.6994112" lon="-0.6280748"><ele>252.0</ele><time>2026-04-04T07:19:48.608Z</time></trkpt><trkpt lat="39.6994928" lon="-0.6281255"><ele>252.0</ele><time>2026-04-04T07:19:49.609Z</time></trkpt><trkpt lat="39.6995796" lon="-0.6281609"><ele>252.39999999999998</ele><time>2026-04-04T07:19:50.609Z</time></trkpt><trkpt lat="39.6996663" lon="-0.6281925"><ele>252.79999999999998</ele><time>2026-04-04T07:19:51.608Z</time></trkpt><trkpt lat="39.6997512" lon="-0.6282271"><ele>253.2</ele><time>2026-04-04T07:19:52.609Z</time></trkpt><trkpt lat="39.6998599" lon="-0.628272"><ele>253.6</ele><time>2026-04-04T07:19:53.609Z</time></trkpt><trkpt lat="39.6999771" lon="-0.6283234"><ele>254.0</ele><time>2026-04-04T07:19:54.61Z</time></trkpt><trkpt lat="39.7001056" lon="-0.6283831"><ele>254.0</ele><time>2026-04-04T07:19:55.61Z</time></trkpt><trkpt lat="39.7002478" lon="-0.6284527"><ele>254.0</ele><time>2026-04-04T07:19:56.61Z</time></trkpt><trkpt lat="39.7004042" lon="-0.6285235"><ele>254.0</ele><time>2026-04-04T07:19:57.609Z</time></trkpt><trkpt lat="39.7005683" lon="-0.6286042"><ele>254.33333333333334</ele><time>2026-04-04T07:19:58.609Z</time></trkpt><trkpt lat="39.7007277" lon="-0.6286777"><ele>254.66666666666669</ele><time>2026-04-04T07:19:59.61Z</time></trkpt><trkpt lat="39.7008774" lon="-0.6287465"><ele>255.0</ele><time>2026-04-04T07:20:00.61Z</time></trkpt><trkpt lat="39.701026" lon="-0.6288035"><ele>255.33333333333331</ele><time>2026-04-04T07:20:01.611Z</time></trkpt><trkpt lat="39.7011769" lon="-0.6288425"><ele>255.66666666666666</ele><time>2026-04-04T07:20:02.609Z</time></trkpt><trkpt lat="39.7013357" lon="-0.6288736"><ele>256.0</ele><time>2026-04-04T07:20:03.609Z</time></trkpt><trkpt lat="39.7015192" lon="-0.628889"><ele>256.0</ele><time>2026-04-04T07:20:04.611Z</time></trkpt><trkpt lat="39.7017054" lon="-0.6289087"><ele>256.0</ele><time>2026-04-04T07:20:05.608Z</time></trkpt><trkpt lat="39.7019031" lon="-0.6289351"><ele>256.0</ele><time>2026-04-04T07:20:06.61Z</time></trkpt><trkpt lat="39.7021115" lon="-0.6289756"><ele>256.3333333333333</ele><time>2026-04-04T07:20:07.61Z</time></trkpt><trkpt lat="39.7023137" lon="-0.6290163"><ele>256.6666666666667</ele><time>2026-04-04T07:20:08.609Z</time></trkpt><trkpt lat="39.7025097" lon="-0.6290602"><ele>257.0</ele><time>2026-04-04T07:20:09.608Z</time></trkpt><trkpt lat="39.7027096" lon="-0.6291098"><ele>259.0</ele><time>2026-04-04T07:20:10.609Z</time></trkpt><trkpt lat="39.7029109" lon="-0.6291609"><ele>261.0</ele><time>2026-04-04T07:20:11.61Z</time></trkpt><trkpt lat="39.7031161" lon="-0.6292107"><ele>263.0</ele><time>2026-04-04T07:20:12.608Z</time></trkpt><trkpt lat="39.7033249" lon="-0.6292664"><ele>263.0</ele><time>2026-04-04T07:20:13.61Z</time></trkpt><trkpt lat="39.703526" lon="-0.6293191"><ele>263.0</ele><time>2026-04-04T07:20:14.608Z</time></trkpt><trkpt lat="39.7037265" lon="-0.6293732"><ele>263.0</ele><time>2026-04-04T07:20:15.609Z</time></trkpt><trkpt lat="39.7039231" lon="-0.6294255"><ele>264.33333333333337</ele><time>2026-04-04T07:20:16.609Z</time></trkpt><trkpt lat="39.7041217" lon="-0.6294768"><ele>265.6666666666667</ele><time>2026-04-04T07:20:17.611Z</time></trkpt><trkpt lat="39.7043236" lon="-0.6295314"><ele>267.0</ele><time>2026-04-04T07:20:18.609Z</time></trkpt><trkpt lat="39.7045235" lon="-0.6295976"><ele>267.6666666666667</ele><time>2026-04-04T07:20:19.609Z</time></trkpt><trkpt lat="39.7047212" lon="-0.6296685"><ele>268.33333333333337</ele><time>2026-04-04T07:20:20.608Z</time></trkpt><trkpt lat="39.7049085" lon="-0.6297401"><ele>269.0</ele><time>2026-04-04T07:20:21.609Z</time></trkpt><trkpt lat="39.705091" lon="-0.6298183"><ele>270.33333333333337</ele><time>2026-04-04T07:20:22.609Z</time></trkpt><trkpt lat="39.7052767" lon="-0.6299011"><ele>271.6666666666667</ele><time>2026-04-04T07:20:23.61Z</time></trkpt><trkpt lat="39.7054602" lon="-0.6299819"><ele>273.0</ele><time>2026-04-04T07:20:24.609Z</time></trkpt><trkpt lat="39.7056515" lon="-0.6300671"><ele>273.0</ele><time>2026-04-04T07:20:25.609Z</time></trkpt><trkpt lat="39.7058308" lon="-0.6301516"><ele>273.0</ele><time>2026-04-04T07:20:26.61Z</time></trkpt><trkpt lat="39.7059925" lon="-0.6302287"><ele>273.0</ele><time>2026-04-04T07:20:27.61Z</time></trkpt><trkpt lat="39.7061435" lon="-0.6303039"><ele>273.25</ele><time>2026-04-04T07:20:28.611Z</time></trkpt><trkpt lat="39.706283" lon="-0.6303646"><ele>273.5</ele><time>2026-04-04T07:20:29.609Z</time></trkpt><trkpt lat="39.7064209" lon="-0.6304274"><ele>273.75</ele><time>2026-04-04T07:20:30.609Z</time></trkpt><trkpt lat="39.7065645" lon="-0.6304926"><ele>274.0</ele><time>2026-04-04T07:20:31.61Z</time></trkpt><trkpt lat="39.7067088" lon="-0.6305577"><ele>274.0</ele><time>2026-04-04T07:20:32.609Z</time></trkpt><trkpt lat="39.7068525" lon="-0.6306208"><ele>274.0</ele><time>2026-04-04T07:20:33.608Z</time></trkpt><trkpt lat="39.7070179" lon="-0.6306959"><ele>274.0</ele><time>2026-04-04T07:20:34.61Z</time></trkpt><trkpt lat="39.7071861" lon="-0.6307751"><ele>275.66666666666663</ele><time>2026-04-04T07:20:35.611Z</time></trkpt><trkpt lat="39.7073614" lon="-0.6308583"><ele>277.3333333333333</ele><time>2026-04-04T07:20:36.61Z</time></trkpt><trkpt lat="39.7075411" lon="-0.6309349"><ele>279.0</ele><time>2026-04-04T07:20:37.609Z</time></trkpt><trkpt lat="39.7077247" lon="-0.6310155"><ele>279.3333333333333</ele><time>2026-04-04T07:20:38.609Z</time></trkpt><trkpt lat="39.7079152" lon="-0.6310909"><ele>279.66666666666663</ele><time>2026-04-04T07:20:39.609Z</time></trkpt><trkpt lat="39.708102" lon="-0.6311774"><ele>280.0</ele><time>2026-04-04T07:20:40.61Z</time></trkpt><trkpt lat="39.708289" lon="-0.6312582"><ele>280.3333333333333</ele><time>2026-04-04T07:20:41.61Z</time></trkpt><trkpt lat="39.7084776" lon="-0.6313293"><ele>280.6666666666667</ele><time>2026-04-04T07:20:42.609Z</time></trkpt><trkpt lat="39.7086744" lon="-0.631395"><ele>281.0</ele><time>2026-04-04T07:20:43.611Z</time></trkpt><trkpt lat="39.708876" lon="-0.6314547"><ele>281.6666666666667</ele><time>2026-04-04T07:20:44.61Z</time></trkpt><trkpt lat="39.7090837" lon="-0.6315184"><ele>282.3333333333333</ele><time>2026-04-04T07:20:45.609Z</time></trkpt><trkpt lat="39.7092952" lon="-0.6315781"><ele>283.0</ele><time>2026-04-04T07:20:46.609Z</time></trkpt><trkpt lat="39.7094979" lon="-0.6316438"><ele>284.0</ele><time>2026-04-04T07:20:47.61Z</time></trkpt><trkpt lat="39.7096989" lon="-0.6317054"><ele>285.0</ele><time>2026-04-04T07:20:48.608Z</time></trkpt><trkpt lat="39.7098942" lon="-0.6317678"><ele>286.0</ele><time>2026-04-04T07:20:49.609Z</time></trkpt><trkpt lat="39.7100859" lon="-0.6318303"><ele>287.3333333333333</ele><time>2026-04-04T07:20:50.608Z</time></trkpt><trkpt lat="39.7102811" lon="-0.6318901"><ele>288.6666666666667</ele><time>2026-04-04T07:20:51.609Z</time></trkpt><trkpt lat="39.7104777" lon="-0.6319487"><ele>290.0</ele><time>2026-04-04T07:20:52.609Z</time></trkpt><trkpt lat="39.7106617" lon="-0.6320104"><ele>290.0</ele><time>2026-04-04T07:20:53.61Z</time></trkpt><trkpt lat="39.7108385" lon="-0.6320543"><ele>290.0</ele><time>2026-04-04T07:20:54.61Z</time></trkpt><trkpt lat="39.7110049" lon="-0.6321043"><ele>290.0</ele><time>2026-04-04T07:20:55.61Z</time></trkpt><trkpt lat="39.7111456" lon="-0.6321621"><ele>290.2</ele><time>2026-04-04T07:20:56.61Z</time></trkpt><trkpt lat="39.7112663" lon="-0.6322259"><ele>290.4</ele><time>2026-04-04T07:20:57.609Z</time></trkpt><trkpt lat="39.7113584" lon="-0.6322937"><ele>290.6</ele><time>2026-04-04T07:20:58.61Z</time></trkpt><trkpt lat="39.7114387" lon="-0.6323533"><ele>290.8</ele><time>2026-04-04T07:20:59.609Z</time></trkpt><trkpt lat="39.7115071" lon="-0.6323962"><ele>291.0</ele><time>2026-04-04T07:21:00.608Z</time></trkpt><trkpt lat="39.7115961" lon="-0.6324496"><ele>291.0</ele><time>2026-04-04T07:21:02.608Z</time></trkpt><trkpt lat="39.7116713" lon="-0.6324956"><ele>291.0</ele><time>2026-04-04T07:25:01.608Z</time></trkpt><trkpt lat="39.711782" lon="-0.6326198"><ele>291.0</ele><time>2026-04-04T07:25:03.61Z</time></trkpt><trkpt lat="39.7118465" lon="-0.6327147"><ele>291.0</ele><time>2026-04-04T07:25:04.61Z</time></trkpt><trkpt lat="39.7118967" lon="-0.6327983"><ele>291.0</ele><time>2026-04-04T07:25:05.61Z</time></trkpt><trkpt lat="39.7119638" lon="-0.632883"><ele>291.5</ele><time>2026-04-04T07:25:06.611Z</time></trkpt><trkpt lat="39.7120399" lon="-0.6329691"><ele>292.0</ele><time>2026-04-04T07:25:07.608Z</time></trkpt><trkpt lat="39.7121243" lon="-0.6330586"><ele>292.5</ele><time>2026-04-04T07:25:08.608Z</time></trkpt><trkpt lat="39.7122253" lon="-0.6331508"><ele>293.0</ele><time>2026-04-04T07:25:09.609Z</time></trkpt><trkpt lat="39.7123341" lon="-0.6332337"><ele>293.0</ele><time>2026-04-04T07:25:10.611Z</time></trkpt><trkpt lat="39.7124632" lon="-0.6333072"><ele>293.0</ele><time>2026-04-04T07:25:11.609Z</time></trkpt><trkpt lat="39.7125942" lon="-0.6333901"><ele>293.0</ele><time>2026-04-04T07:25:12.61Z</time></trkpt><trkpt lat="39.7127302" lon="-0.6334707"><ele>293.0</ele><time>2026-04-04T07:25:13.61Z</time></trkpt><trkpt lat="39.7128691" lon="-0.6335462"><ele>292.6666666666667</ele><time>2026-04-04T07:25:14.609Z</time></trkpt><trkpt lat="39.7130224" lon="-0.6336323"><ele>292.3333333333333</ele><time>2026-04-04T07:25:15.608Z</time></trkpt><trkpt lat="39.7131761" lon="-0.6337195"><ele>292.0</ele><time>2026-04-04T07:25:16.61Z</time></trkpt><trkpt lat="39.7133343" lon="-0.6338119"><ele>292.66666666666663</ele><time>2026-04-04T07:25:17.609Z</time></trkpt><trkpt lat="39.7134972" lon="-0.6339008"><ele>293.3333333333333</ele><time>2026-04-04T07:25:18.611Z</time></trkpt><trkpt lat="39.7136557" lon="-0.6339913"><ele>294.0</ele><time>2026-04-04T07:25:19.61Z</time></trkpt><trkpt lat="39.7138217" lon="-0.6340912"><ele>295.3333333333333</ele><time>2026-04-04T07:25:20.609Z</time></trkpt><trkpt lat="39.71399" lon="-0.6341936"><ele>296.66666666666663</ele><time>2026-04-04T07:25:21.61Z</time></trkpt><trkpt lat="39.714159" lon="-0.6342899"><ele>298.0</ele><time>2026-04-04T07:25:22.61Z</time></trkpt><trkpt lat="39.7143169" lon="-0.6343767"><ele>299.75</ele><time>2026-04-04T07:25:23.61Z</time></trkpt><trkpt lat="39.7144613" lon="-0.6344623"><ele>301.5</ele><time>2026-04-04T07:25:24.609Z</time></trkpt><trkpt lat="39.7146044" lon="-0.6345377"><ele>303.25</ele><time>2026-04-04T07:25:25.61Z</time></trkpt><trkpt lat="39.7147233" lon="-0.6346015"><ele>305.0</ele><time>2026-04-04T07:25:26.61Z</time></trkpt><trkpt lat="39.7148259" lon="-0.63466"><ele>305.0</ele><time>2026-04-04T07:25:27.609Z</time></trkpt><trkpt lat="39.7149135" lon="-0.6347244"><ele>305.0</ele><time>2026-04-04T07:25:28.611Z</time></trkpt><trkpt lat="39.7149572" lon="-0.6347909"><ele>305.0</ele><time>2026-04-04T07:25:29.608Z</time></trkpt><trkpt lat="39.715003" lon="-0.6348672"><ele>305.0</ele><time>2026-04-04T07:25:30.61Z</time></trkpt><trkpt lat="39.7150456" lon="-0.6349733"><ele>305.0</ele><time>2026-04-04T07:25:31.61Z</time></trkpt><trkpt lat="39.7150536" lon="-0.6350913"><ele>305.0</ele><time>2026-04-04T07:25:32.61Z</time></trkpt><trkpt lat="39.715047" lon="-0.635237"><ele>305.0</ele><time>2026-04-04T07:25:33.61Z</time></trkpt><trkpt lat="39.7150406" lon="-0.635396"><ele>305.0</ele><time>2026-04-04T07:25:34.608Z</time></trkpt><trkpt lat="39.7150369" lon="-0.6355627"><ele>305.0</ele><time>2026-04-04T07:25:35.61Z</time></trkpt><trkpt lat="39.715029" lon="-0.6357377"><ele>305.0</ele><time>2026-04-04T07:25:36.611Z</time></trkpt><trkpt lat="39.7150214" lon="-0.6359081"><ele>305.0</ele><time>2026-04-04T07:25:37.609Z</time></trkpt><trkpt lat="39.7150195" lon="-0.6360635"><ele>305.0</ele><time>2026-04-04T07:25:38.609Z</time></trkpt><trkpt lat="39.7150175" lon="-0.6362094"><ele>305.0</ele><time>2026-04-04T07:25:39.61Z</time></trkpt><trkpt lat="39.715015" lon="-0.6363511"><ele>305.0</ele><time>2026-04-04T07:25:40.608Z</time></trkpt><trkpt lat="39.7150153" lon="-0.6364688"><ele>305.0</ele><time>2026-04-04T07:25:41.611Z</time></trkpt><trkpt lat="39.7150255" lon="-0.636563"><ele>305.0</ele><time>2026-04-04T07:25:42.61Z</time></trkpt><trkpt lat="39.7150474" lon="-0.6366398"><ele>305.0</ele><time>2026-04-04T07:25:43.609Z</time></trkpt><trkpt lat="39.7151203" lon="-0.6367417"><ele>305.0</ele><time>2026-04-04T07:25:45.61Z</time></trkpt><trkpt lat="39.7151884" lon="-0.6367707"><ele>305.0</ele><time>2026-04-04T07:25:46.608Z</time></trkpt><trkpt lat="39.7152684" lon="-0.6368003"><ele>305.0</ele><time>2026-04-04T07:25:47.61Z</time></trkpt><trkpt lat="39.7153898" lon="-0.6368383"><ele>305.5</ele><time>2026-04-04T07:25:48.609Z</time></trkpt><trkpt lat="39.7155081" lon="-0.6368798"><ele>306.0</ele><time>2026-04-04T07:25:49.609Z</time></trkpt><trkpt lat="39.7156345" lon="-0.6369131"><ele>306.5</ele><time>2026-04-04T07:25:50.608Z</time></trkpt><trkpt lat="39.7157629" lon="-0.6369335"><ele>307.0</ele><time>2026-04-04T07:25:51.609Z</time></trkpt><trkpt lat="39.7158846" lon="-0.6369515"><ele>307.5</ele><time>2026-04-04T07:25:52.61Z</time></trkpt><trkpt lat="39.7160066" lon="-0.6369884"><ele>308.0</ele><time>2026-04-04T07:25:53.61Z</time></trkpt><trkpt lat="39.7161306" lon="-0.6370341"><ele>308.5</ele><time>2026-04-04T07:25:54.61Z</time></trkpt><trkpt lat="39.7162369" lon="-0.637086"><ele>309.0</ele><time>2026-04-04T07:25:55.61Z</time></trkpt><trkpt lat="39.7163403" lon="-0.6371461"><ele>309.0</ele><time>2026-04-04T07:25:56.609Z</time></trkpt><trkpt lat="39.7164287" lon="-0.6372457"><ele>309.0</ele><time>2026-04-04T07:25:57.609Z</time></trkpt><trkpt lat="39.7165199" lon="-0.6373248"><ele>309.0</ele><time>2026-04-04T07:25:58.609Z</time></trkpt><trkpt lat="39.7166071" lon="-0.6373842"><ele>309.0</ele><time>2026-04-04T07:25:59.61Z</time></trkpt><trkpt lat="39.7167096" lon="-0.6374372"><ele>309.0</ele><time>2026-04-04T07:26:00.609Z</time></trkpt><trkpt lat="39.7168" lon="-0.63748"><ele>309.0</ele><time>2026-04-04T07:26:01.61Z</time></trkpt><trkpt lat="39.716874" lon="-0.6374974"><ele>309.0</ele><time>2026-04-04T07:26:02.609Z</time></trkpt><trkpt lat="39.7169556" lon="-0.6374958"><ele>309.0</ele><time>2026-04-04T07:26:03.611Z</time></trkpt><trkpt lat="39.717035" lon="-0.637462"><ele>309.0</ele><time>2026-04-04T07:26:04.61Z</time></trkpt><trkpt lat="39.7171229" lon="-0.6374086"><ele>309.0</ele><time>2026-04-04T07:26:05.609Z</time></trkpt><trkpt lat="39.7172007" lon="-0.6373611"><ele>309.0</ele><time>2026-04-04T07:26:06.609Z</time></trkpt><trkpt lat="39.7172856" lon="-0.6373471"><ele>309.5</ele><time>2026-04-04T07:26:07.61Z</time></trkpt><trkpt lat="39.7173771" lon="-0.6373617"><ele>310.0</ele><time>2026-04-04T07:26:08.611Z</time></trkpt><trkpt lat="39.7174555" lon="-0.6373537"><ele>310.5</ele><time>2026-04-04T07:26:09.608Z</time></trkpt><trkpt lat="39.7175226" lon="-0.6373283"><ele>311.0</ele><time>2026-04-04T07:26:10.61Z</time></trkpt><trkpt lat="39.7175765" lon="-0.6372845"><ele>311.5</ele><time>2026-04-04T07:26:11.61Z</time></trkpt><trkpt lat="39.7176388" lon="-0.6371326"><ele>312.0</ele><time>2026-04-04T07:26:13.609Z</time></trkpt><trkpt lat="39.7176645" lon="-0.637048"><ele>312.0</ele><time>2026-04-04T07:26:14.611Z</time></trkpt><trkpt lat="39.7177203" lon="-0.6369813"><ele>312.0</ele><time>2026-04-04T07:26:15.61Z</time></trkpt><trkpt lat="39.7178002" lon="-0.6369312"><ele>312.0</ele><time>2026-04-04T07:26:16.61Z</time></trkpt><trkpt lat="39.7179023" lon="-0.6368841"><ele>312.0</ele><time>2026-04-04T07:26:17.609Z</time></trkpt><trkpt lat="39.7180125" lon="-0.6368266"><ele>312.0</ele><time>2026-04-04T07:26:18.609Z</time></trkpt><trkpt lat="39.7181203" lon="-0.6367448"><ele>312.0</ele><time>2026-04-04T07:26:19.609Z</time></trkpt><trkpt lat="39.7182348" lon="-0.6366587"><ele>312.0</ele><time>2026-04-04T07:26:20.611Z</time></trkpt><trkpt lat="39.7183545" lon="-0.6365762"><ele>312.0</ele><time>2026-04-04T07:26:21.61Z</time></trkpt><trkpt lat="39.7184689" lon="-0.6364902"><ele>312.0</ele><time>2026-04-04T07:26:22.61Z</time></trkpt><trkpt lat="39.7185707" lon="-0.6364031"><ele>312.5</ele><time>2026-04-04T07:26:23.61Z</time></trkpt><trkpt lat="39.7186741" lon="-0.6363303"><ele>313.0</ele><time>2026-04-04T07:26:24.61Z</time></trkpt><trkpt lat="39.7187967" lon="-0.6362775"><ele>313.5</ele><time>2026-04-04T07:26:25.61Z</time></trkpt><trkpt lat="39.7189368" lon="-0.6362328"><ele>314.0</ele><time>2026-04-04T07:26:26.609Z</time></trkpt><trkpt lat="39.71908" lon="-0.6362033"><ele>314.0</ele><time>2026-04-04T07:26:27.611Z</time></trkpt><trkpt lat="39.7192275" lon="-0.636174"><ele>314.0</ele><time>2026-04-04T07:26:28.61Z</time></trkpt><trkpt lat="39.7193793" lon="-0.6361568"><ele>314.0</ele><time>2026-04-04T07:26:29.61Z</time></trkpt><trkpt lat="39.7195216" lon="-0.6361522"><ele>314.0</ele><time>2026-04-04T07:26:30.609Z</time></trkpt><trkpt lat="39.7196559" lon="-0.6361389"><ele>314.5</ele><time>2026-04-04T07:26:31.61Z</time></trkpt><trkpt lat="39.7197934" lon="-0.6361092"><ele>315.0</ele><time>2026-04-04T07:26:32.61Z</time></trkpt><trkpt lat="39.7199283" lon="-0.6360665"><ele>315.5</ele><time>2026-04-04T07:26:33.61Z</time></trkpt><trkpt lat="39.7200713" lon="-0.6360081"><ele>316.0</ele><time>2026-04-04T07:26:34.609Z</time></trkpt><trkpt lat="39.7202109" lon="-0.635948"><ele>316.5</ele><time>2026-04-04T07:26:35.611Z</time></trkpt><trkpt lat="39.7203537" lon="-0.6359055"><ele>317.0</ele><time>2026-04-04T07:26:36.609Z</time></trkpt><trkpt lat="39.7204787" lon="-0.6358631"><ele>317.5</ele><time>2026-04-04T07:26:37.611Z</time></trkpt><trkpt lat="39.7205877" lon="-0.6357919"><ele>318.0</ele><time>2026-04-04T07:26:38.609Z</time></trkpt><trkpt lat="39.7206883" lon="-0.6356901"><ele>318.0</ele><time>2026-04-04T07:26:39.609Z</time></trkpt><trkpt lat="39.7207887" lon="-0.6355774"><ele>318.0</ele><time>2026-04-04T07:26:40.611Z</time></trkpt><trkpt lat="39.7209041" lon="-0.635466"><ele>318.0</ele><time>2026-04-04T07:26:41.609Z</time></trkpt><trkpt lat="39.7210295" lon="-0.6353613"><ele>318.0</ele><time>2026-04-04T07:26:42.61Z</time></trkpt><trkpt lat="39.721158" lon="-0.6352549"><ele>319.3333333333333</ele><time>2026-04-04T07:26:43.608Z</time></trkpt><trkpt lat="39.7212829" lon="-0.6351392"><ele>320.66666666666663</ele><time>2026-04-04T07:26:44.609Z</time></trkpt><trkpt lat="39.7214006" lon="-0.6350255"><ele>322.0</ele><time>2026-04-04T07:26:45.61Z</time></trkpt><trkpt lat="39.721531" lon="-0.634921"><ele>322.0</ele><time>2026-04-04T07:26:46.611Z</time></trkpt><trkpt lat="39.7216625" lon="-0.6348227"><ele>322.0</ele><time>2026-04-04T07:26:47.609Z</time></trkpt><trkpt lat="39.7217984" lon="-0.6347143"><ele>322.0</ele><time>2026-04-04T07:26:48.61Z</time></trkpt><trkpt lat="39.7219395" lon="-0.6346227"><ele>323.25</ele><time>2026-04-04T07:26:49.609Z</time></trkpt><trkpt lat="39.722082" lon="-0.6345323"><ele>324.5</ele><time>2026-04-04T07:26:50.609Z</time></trkpt><trkpt lat="39.7222174" lon="-0.6344671"><ele>325.75</ele><time>2026-04-04T07:26:51.61Z</time></trkpt><trkpt lat="39.7223285" lon="-0.634412"><ele>327.0</ele><time>2026-04-04T07:26:52.61Z</time></trkpt><trkpt lat="39.7224253" lon="-0.6343558"><ele>327.25</ele><time>2026-04-04T07:26:53.609Z</time></trkpt><trkpt lat="39.7225208" lon="-0.6342724"><ele>327.5</ele><time>2026-04-04T07:26:54.609Z</time></trkpt><trkpt lat="39.7226181" lon="-0.6341706"><ele>327.75</ele><time>2026-04-04T07:26:55.61Z</time></trkpt><trkpt lat="39.7227119" lon="-0.6340658"><ele>328.0</ele><time>2026-04-04T07:26:56.609Z</time></trkpt><trkpt lat="39.7228153" lon="-0.6339263"><ele>328.0</ele><time>2026-04-04T07:26:57.609Z</time></trkpt><trkpt lat="39.7229173" lon="-0.6337814"><ele>328.0</ele><time>2026-04-04T07:26:58.609Z</time></trkpt><trkpt lat="39.7230252" lon="-0.6336338"><ele>328.0</ele><time>2026-04-04T07:26:59.61Z</time></trkpt><trkpt lat="39.7231382" lon="-0.6334838"><ele>327.75</ele><time>2026-04-04T07:27:00.61Z</time></trkpt><trkpt lat="39.7232381" lon="-0.633339"><ele>327.5</ele><time>2026-04-04T07:27:01.611Z</time></trkpt><trkpt lat="39.7233417" lon="-0.6331883"><ele>327.25</ele><time>2026-04-04T07:27:02.608Z</time></trkpt><trkpt lat="39.723442" lon="-0.6330583"><ele>327.0</ele><time>2026-04-04T07:27:03.609Z</time></trkpt><trkpt lat="39.7235424" lon="-0.6329341"><ele>327.5</ele><time>2026-04-04T07:27:04.609Z</time></trkpt><trkpt lat="39.7236465" lon="-0.6328111"><ele>328.0</ele><time>2026-04-04T07:27:05.609Z</time></trkpt><trkpt lat="39.7237513" lon="-0.632699"><ele>328.5</ele><time>2026-04-04T07:27:06.61Z</time></trkpt><trkpt lat="39.7238629" lon="-0.6326029"><ele>329.0</ele><time>2026-04-04T07:27:07.608Z</time></trkpt><trkpt lat="39.7239823" lon="-0.6325205"><ele>329.0</ele><time>2026-04-04T07:27:08.61Z</time></trkpt><trkpt lat="39.7241335" lon="-0.6324515"><ele>329.0</ele><time>2026-04-04T07:27:09.61Z</time></trkpt><trkpt lat="39.7242694" lon="-0.6323764"><ele>329.0</ele><time>2026-04-04T07:27:10.61Z</time></trkpt><trkpt lat="39.7244111" lon="-0.632303"><ele>330.33333333333337</ele><time>2026-04-04T07:27:11.61Z</time></trkpt><trkpt lat="39.7245514" lon="-0.6322222"><ele>331.6666666666667</ele><time>2026-04-04T07:27:12.609Z</time></trkpt><trkpt lat="39.7246915" lon="-0.6321357"><ele>333.0</ele><time>2026-04-04T07:27:13.608Z</time></trkpt><trkpt lat="39.7248169" lon="-0.6320487"><ele>332.75</ele><time>2026-04-04T07:27:14.61Z</time></trkpt><trkpt lat="39.7249399" lon="-0.6319482"><ele>332.5</ele><time>2026-04-04T07:27:15.609Z</time></trkpt><trkpt lat="39.725067" lon="-0.6318511"><ele>332.25</ele><time>2026-04-04T07:27:16.61Z</time></trkpt><trkpt lat="39.7251864" lon="-0.6317634"><ele>332.0</ele><time>2026-04-04T07:27:17.609Z</time></trkpt><trkpt lat="39.7253194" lon="-0.6317029"><ele>332.75</ele><time>2026-04-04T07:27:18.609Z</time></trkpt><trkpt lat="39.7254212" lon="-0.6316253"><ele>333.5</ele><time>2026-04-04T07:27:19.61Z</time></trkpt><trkpt lat="39.725527" lon="-0.6315245"><ele>334.25</ele><time>2026-04-04T07:27:20.611Z</time></trkpt><trkpt lat="39.7256334" lon="-0.6314228"><ele>335.0</ele><time>2026-04-04T07:27:21.61Z</time></trkpt><trkpt lat="39.7257479" lon="-0.631327"><ele>335.0</ele><time>2026-04-04T07:27:22.609Z</time></trkpt><trkpt lat="39.7258837" lon="-0.6312352"><ele>335.0</ele><time>2026-04-04T07:27:23.61Z</time></trkpt><trkpt lat="39.7259973" lon="-0.6311287"><ele>335.0</ele><time>2026-04-04T07:27:24.609Z</time></trkpt><trkpt lat="39.7261101" lon="-0.6310116"><ele>335.0</ele><time>2026-04-04T07:27:25.61Z</time></trkpt><trkpt lat="39.7262497" lon="-0.6309104"><ele>336.33333333333337</ele><time>2026-04-04T07:27:26.611Z</time></trkpt><trkpt lat="39.7263904" lon="-0.6308238"><ele>337.6666666666667</ele><time>2026-04-04T07:27:27.61Z</time></trkpt><trkpt lat="39.7265341" lon="-0.6307273"><ele>339.0</ele><time>2026-04-04T07:27:28.611Z</time></trkpt><trkpt lat="39.7266857" lon="-0.6306252"><ele>339.0</ele><time>2026-04-04T07:27:29.609Z</time></trkpt><trkpt lat="39.7268331" lon="-0.6305282"><ele>339.0</ele><time>2026-04-04T07:27:30.609Z</time></trkpt><trkpt lat="39.7269745" lon="-0.6304422"><ele>339.0</ele><time>2026-04-04T07:27:31.609Z</time></trkpt><trkpt lat="39.7271092" lon="-0.63036"><ele>339.6666666666667</ele><time>2026-04-04T07:27:32.61Z</time></trkpt><trkpt lat="39.7271995" lon="-0.630274"><ele>340.3333333333333</ele><time>2026-04-04T07:27:33.609Z</time></trkpt><trkpt lat="39.7272749" lon="-0.6302011"><ele>341.0</ele><time>2026-04-04T07:27:34.609Z</time></trkpt><trkpt lat="39.7273421" lon="-0.6301482"><ele>341.66666666666663</ele><time>2026-04-04T07:27:35.611Z</time></trkpt><trkpt lat="39.7274073" lon="-0.6301268"><ele>342.3333333333333</ele><time>2026-04-04T07:27:36.61Z</time></trkpt><trkpt lat="39.7274819" lon="-0.6301376"><ele>343.0</ele><time>2026-04-04T07:27:37.609Z</time></trkpt><trkpt lat="39.7275541" lon="-0.630187"><ele>343.0</ele><time>2026-04-04T07:27:38.61Z</time></trkpt><trkpt lat="39.7276157" lon="-0.6302672"><ele>343.0</ele><time>2026-04-04T07:27:39.609Z</time></trkpt><trkpt lat="39.7276744" lon="-0.6303673"><ele>343.0</ele><time>2026-04-04T07:27:40.61Z</time></trkpt><trkpt lat="39.7277367" lon="-0.6304896"><ele>343.0</ele><time>2026-04-04T07:27:41.61Z</time></trkpt><trkpt lat="39.7277912" lon="-0.6306277"><ele>343.0</ele><time>2026-04-04T07:27:42.61Z</time></trkpt><trkpt lat="39.7278352" lon="-0.6307584"><ele>343.2</ele><time>2026-04-04T07:27:43.61Z</time></trkpt><trkpt lat="39.7278835" lon="-0.6308843"><ele>343.4</ele><time>2026-04-04T07:27:44.611Z</time></trkpt><trkpt lat="39.727953" lon="-0.6309805"><ele>343.59999999999997</ele><time>2026-04-04T07:27:45.61Z</time></trkpt><trkpt lat="39.7280318" lon="-0.6310595"><ele>343.79999999999995</ele><time>2026-04-04T07:27:46.61Z</time></trkpt><trkpt lat="39.7280993" lon="-0.6311323"><ele>344.0</ele><time>2026-04-04T07:27:47.609Z</time></trkpt><trkpt lat="39.7281646" lon="-0.631215"><ele>344.2</ele><time>2026-04-04T07:27:48.611Z</time></trkpt><trkpt lat="39.7281923" lon="-0.6313142"><ele>344.4</ele><time>2026-04-04T07:27:49.609Z</time></trkpt><trkpt lat="39.7282027" lon="-0.6314471"><ele>344.6</ele><time>2026-04-04T07:27:50.611Z</time></trkpt><trkpt lat="39.728215" lon="-0.6315879"><ele>344.8</ele><time>2026-04-04T07:27:51.61Z</time></trkpt><trkpt lat="39.7282408" lon="-0.6317232"><ele>345.0</ele><time>2026-04-04T07:27:52.609Z</time></trkpt><trkpt lat="39.7282819" lon="-0.6318644"><ele>345.0</ele><time>2026-04-04T07:27:53.609Z</time></trkpt><trkpt lat="39.7283379" lon="-0.6319989"><ele>345.0</ele><time>2026-04-04T07:27:54.609Z</time></trkpt><trkpt lat="39.7284004" lon="-0.6321226"><ele>345.0</ele><time>2026-04-04T07:27:55.609Z</time></trkpt><trkpt lat="39.728481" lon="-0.6322262"><ele>345.0</ele><time>2026-04-04T07:27:56.611Z</time></trkpt><trkpt lat="39.7285711" lon="-0.6323325"><ele>345.0</ele><time>2026-04-04T07:27:57.608Z</time></trkpt><trkpt lat="39.7286806" lon="-0.6324432"><ele>345.0</ele><time>2026-04-04T07:27:58.61Z</time></trkpt><trkpt lat="39.7287839" lon="-0.6325443"><ele>345.0</ele><time>2026-04-04T07:27:59.609Z</time></trkpt><trkpt lat="39.7288769" lon="-0.6326535"><ele>345.0</ele><time>2026-04-04T07:28:00.609Z</time></trkpt><trkpt lat="39.7289615" lon="-0.6327602"><ele>345.8</ele><time>2026-04-04T07:28:01.609Z</time></trkpt><trkpt lat="39.7290325" lon="-0.6328324"><ele>346.6</ele><time>2026-04-04T07:28:02.61Z</time></trkpt><trkpt lat="39.7291055" lon="-0.6328796"><ele>347.4</ele><time>2026-04-04T07:28:03.61Z</time></trkpt><trkpt lat="39.7291856" lon="-0.6329065"><ele>348.2</ele><time>2026-04-04T07:28:04.61Z</time></trkpt><trkpt lat="39.7292789" lon="-0.6329265"><ele>349.0</ele><time>2026-04-04T07:28:05.609Z</time></trkpt><trkpt lat="39.7294059" lon="-0.6329221"><ele>349.0</ele><time>2026-04-04T07:28:06.611Z</time></trkpt><trkpt lat="39.7295311" lon="-0.6329214"><ele>349.0</ele><time>2026-04-04T07:28:07.611Z</time></trkpt><trkpt lat="39.7296651" lon="-0.6329294"><ele>349.0</ele><time>2026-04-04T07:28:08.611Z</time></trkpt><trkpt lat="39.7298096" lon="-0.6329524"><ele>349.0</ele><time>2026-04-04T07:28:09.61Z</time></trkpt><trkpt lat="39.7299425" lon="-0.6329872"><ele>349.0</ele><time>2026-04-04T07:28:10.61Z</time></trkpt><trkpt lat="39.7300705" lon="-0.6330471"><ele>349.0</ele><time>2026-04-04T07:28:11.61Z</time></trkpt><trkpt lat="39.7301989" lon="-0.6331257"><ele>349.0</ele><time>2026-04-04T07:28:12.609Z</time></trkpt><trkpt lat="39.7303307" lon="-0.6332131"><ele>349.0</ele><time>2026-04-04T07:28:13.611Z</time></trkpt><trkpt lat="39.7304601" lon="-0.6333054"><ele>350.0</ele><time>2026-04-04T07:28:14.61Z</time></trkpt><trkpt lat="39.7305733" lon="-0.6333952"><ele>351.0</ele><time>2026-04-04T07:28:15.611Z</time></trkpt><trkpt lat="39.7306727" lon="-0.6334775"><ele>352.0</ele><time>2026-04-04T07:28:16.61Z</time></trkpt><trkpt lat="39.73077" lon="-0.6335424"><ele>353.0</ele><time>2026-04-04T07:28:17.609Z</time></trkpt><trkpt lat="39.7308539" lon="-0.633578"><ele>354.0</ele><time>2026-04-04T07:28:18.61Z</time></trkpt><trkpt lat="39.7309391" lon="-0.6335953"><ele>354.0</ele><time>2026-04-04T07:28:19.61Z</time></trkpt><trkpt lat="39.7310275" lon="-0.6335811"><ele>354.0</ele><time>2026-04-04T07:28:20.61Z</time></trkpt><trkpt lat="39.731099" lon="-0.6335469"><ele>354.0</ele><time>2026-04-04T07:28:21.609Z</time></trkpt><trkpt lat="39.7311802" lon="-0.6334965"><ele>354.0</ele><time>2026-04-04T07:28:22.61Z</time></trkpt><trkpt lat="39.7312685" lon="-0.6333997"><ele>354.0</ele><time>2026-04-04T07:28:23.61Z</time></trkpt><trkpt lat="39.7313678" lon="-0.6333018"><ele>354.0</ele><time>2026-04-04T07:28:24.61Z</time></trkpt><trkpt lat="39.7314597" lon="-0.6331755"><ele>354.0</ele><time>2026-04-04T07:28:25.61Z</time></trkpt><trkpt lat="39.7315553" lon="-0.6330408"><ele>354.0</ele><time>2026-04-04T07:28:26.61Z</time></trkpt><trkpt lat="39.7316458" lon="-0.6329102"><ele>354.0</ele><time>2026-04-04T07:28:27.609Z</time></trkpt><trkpt lat="39.7317328" lon="-0.6327892"><ele>355.0</ele><time>2026-04-04T07:28:28.61Z</time></trkpt><trkpt lat="39.7318243" lon="-0.632662"><ele>356.0</ele><time>2026-04-04T07:28:29.609Z</time></trkpt><trkpt lat="39.7318999" lon="-0.6325451"><ele>357.0</ele><time>2026-04-04T07:28:30.609Z</time></trkpt><trkpt lat="39.7319575" lon="-0.6324282"><ele>358.0</ele><time>2026-04-04T07:28:31.61Z</time></trkpt><trkpt lat="39.7319986" lon="-0.6323174"><ele>358.79999999999995</ele><time>2026-04-04T07:28:32.608Z</time></trkpt><trkpt lat="39.7320292" lon="-0.6322065"><ele>359.6</ele><time>2026-04-04T07:28:33.609Z</time></trkpt><trkpt lat="39.7320635" lon="-0.6320993"><ele>360.4</ele><time>2026-04-04T07:28:34.609Z</time></trkpt><trkpt lat="39.7321034" lon="-0.6319998"><ele>361.20000000000005</ele><time>2026-04-04T07:28:35.611Z</time></trkpt><trkpt lat="39.7321804" lon="-0.6319031"><ele>362.0</ele><time>2026-04-04T07:28:36.609Z</time></trkpt><trkpt lat="39.7322512" lon="-0.6318094"><ele>362.0</ele><time>2026-04-04T07:28:37.609Z</time></trkpt><trkpt lat="39.7323151" lon="-0.6317333"><ele>362.0</ele><time>2026-04-04T07:28:38.61Z</time></trkpt><trkpt lat="39.7323838" lon="-0.6316356"><ele>362.0</ele><time>2026-04-04T07:28:39.609Z</time></trkpt><trkpt lat="39.7324589" lon="-0.6315231"><ele>362.0</ele><time>2026-04-04T07:28:40.61Z</time></trkpt><trkpt lat="39.7325372" lon="-0.6313951"><ele>362.0</ele><time>2026-04-04T07:28:41.61Z</time></trkpt><trkpt lat="39.7326259" lon="-0.6312667"><ele>362.0</ele><time>2026-04-04T07:28:42.61Z</time></trkpt><trkpt lat="39.7327458" lon="-0.6311316"><ele>362.0</ele><time>2026-04-04T07:28:43.611Z</time></trkpt><trkpt lat="39.7328584" lon="-0.6309899"><ele>362.0</ele><time>2026-04-04T07:28:44.609Z</time></trkpt><trkpt lat="39.7329705" lon="-0.6308497"><ele>362.0</ele><time>2026-04-04T07:28:45.609Z</time></trkpt><trkpt lat="39.7330836" lon="-0.6307248"><ele>362.0</ele><time>2026-04-04T07:28:46.61Z</time></trkpt><trkpt lat="39.7331873" lon="-0.630612"><ele>362.0</ele><time>2026-04-04T07:28:47.61Z</time></trkpt><trkpt lat="39.7332844" lon="-0.6305058"><ele>362.0</ele><time>2026-04-04T07:28:48.61Z</time></trkpt><trkpt lat="39.7333745" lon="-0.6304085"><ele>362.0</ele><time>2026-04-04T07:28:49.61Z</time></trkpt><trkpt lat="39.7334796" lon="-0.6303365"><ele>362.0</ele><time>2026-04-04T07:28:50.61Z</time></trkpt><trkpt lat="39.7335876" lon="-0.6302904"><ele>362.0</ele><time>2026-04-04T07:28:51.61Z</time></trkpt><trkpt lat="39.7337008" lon="-0.6302702"><ele>362.0</ele><time>2026-04-04T07:28:52.611Z</time></trkpt><trkpt lat="39.7338153" lon="-0.6302686"><ele>362.75</ele><time>2026-04-04T07:28:53.61Z</time></trkpt><trkpt lat="39.7339548" lon="-0.6302864"><ele>363.5</ele><time>2026-04-04T07:28:54.61Z</time></trkpt><trkpt lat="39.7341017" lon="-0.6303119"><ele>364.25</ele><time>2026-04-04T07:28:55.61Z</time></trkpt><trkpt lat="39.7342482" lon="-0.6303358"><ele>365.0</ele><time>2026-04-04T07:28:56.61Z</time></trkpt><trkpt lat="39.7343866" lon="-0.6303632"><ele>366.2</ele><time>2026-04-04T07:28:57.609Z</time></trkpt><trkpt lat="39.7345224" lon="-0.6303845"><ele>367.4</ele><time>2026-04-04T07:28:58.61Z</time></trkpt><trkpt lat="39.7346319" lon="-0.6303822"><ele>368.6</ele><time>2026-04-04T07:28:59.61Z</time></trkpt><trkpt lat="39.7347446" lon="-0.6303802"><ele>369.8</ele><time>2026-04-04T07:29:00.611Z</time></trkpt><trkpt lat="39.7348099" lon="-0.6303784"><ele>371.0</ele><time>2026-04-04T07:29:01.61Z</time></trkpt><trkpt lat="39.7348936" lon="-0.6303562"><ele>371.0</ele><time>2026-04-04T07:29:02.609Z</time></trkpt><trkpt lat="39.7349792" lon="-0.6303107"><ele>371.0</ele><time>2026-04-04T07:29:03.61Z</time></trkpt><trkpt lat="39.7350572" lon="-0.6302486"><ele>371.0</ele><time>2026-04-04T07:29:04.611Z</time></trkpt><trkpt lat="39.7351524" lon="-0.630158"><ele>371.0</ele><time>2026-04-04T07:29:05.611Z</time></trkpt><trkpt lat="39.7352393" lon="-0.6300596"><ele>371.0</ele><time>2026-04-04T07:29:06.609Z</time></trkpt><trkpt lat="39.7353202" lon="-0.6299653"><ele>374.25</ele><time>2026-04-04T07:29:07.61Z</time></trkpt><trkpt lat="39.7354055" lon="-0.6298665"><ele>377.5</ele><time>2026-04-04T07:29:08.609Z</time></trkpt><trkpt lat="39.7354839" lon="-0.6297559"><ele>380.75</ele><time>2026-04-04T07:29:09.609Z</time></trkpt><trkpt lat="39.7355569" lon="-0.6296163"><ele>384.0</ele><time>2026-04-04T07:29:10.611Z</time></trkpt><trkpt lat="39.7356418" lon="-0.6294761"><ele>381.5</ele><time>2026-04-04T07:29:11.61Z</time></trkpt><trkpt lat="39.7357186" lon="-0.6293443"><ele>379.0</ele><time>2026-04-04T07:29:12.61Z</time></trkpt><trkpt lat="39.7357975" lon="-0.6292299"><ele>376.5</ele><time>2026-04-04T07:29:13.609Z</time></trkpt><trkpt lat="39.7358842" lon="-0.6291261"><ele>374.0</ele><time>2026-04-04T07:29:14.61Z</time></trkpt><trkpt lat="39.7359747" lon="-0.6290362"><ele>375.0</ele><time>2026-04-04T07:29:15.611Z</time></trkpt><trkpt lat="39.7360658" lon="-0.6289521"><ele>376.0</ele><time>2026-04-04T07:29:16.61Z</time></trkpt><trkpt lat="39.7361398" lon="-0.6288731"><ele>377.0</ele><time>2026-04-04T07:29:17.61Z</time></trkpt><trkpt lat="39.7362" lon="-0.6287813"><ele>378.0</ele><time>2026-04-04T07:29:18.61Z</time></trkpt><trkpt lat="39.7362709" lon="-0.6286733"><ele>379.0</ele><time>2026-04-04T07:29:19.61Z</time></trkpt><trkpt lat="39.7363479" lon="-0.6285629"><ele>379.0</ele><time>2026-04-04T07:29:20.61Z</time></trkpt><trkpt lat="39.7364164" lon="-0.6284484"><ele>379.0</ele><time>2026-04-04T07:29:21.61Z</time></trkpt><trkpt lat="39.7365003" lon="-0.6283177"><ele>379.0</ele><time>2026-04-04T07:29:22.61Z</time></trkpt><trkpt lat="39.7365892" lon="-0.6281786"><ele>379.0</ele><time>2026-04-04T07:29:23.611Z</time></trkpt><trkpt lat="39.736673" lon="-0.6280481"><ele>379.0</ele><time>2026-04-04T07:29:24.609Z</time></trkpt><trkpt lat="39.7367582" lon="-0.6279304"><ele>379.0</ele><time>2026-04-04T07:29:25.609Z</time></trkpt><trkpt lat="39.7368401" lon="-0.6278285"><ele>379.0</ele><time>2026-04-04T07:29:26.611Z</time></trkpt><trkpt lat="39.7369036" lon="-0.6277325"><ele>379.0</ele><time>2026-04-04T07:29:27.61Z</time></trkpt><trkpt lat="39.7369577" lon="-0.6276346"><ele>379.0</ele><time>2026-04-04T07:29:28.609Z</time></trkpt><trkpt lat="39.7369997" lon="-0.6275381"><ele>379.0</ele><time>2026-04-04T07:29:29.61Z</time></trkpt><trkpt lat="39.7370358" lon="-0.6274615"><ele>379.0</ele><time>2026-04-04T07:29:30.611Z</time></trkpt><trkpt lat="39.7370802" lon="-0.6273963"><ele>379.0</ele><time>2026-04-04T07:29:31.609Z</time></trkpt><trkpt lat="39.7372347" lon="-0.6273289"><ele>379.0</ele><time>2026-04-04T07:29:33.609Z</time></trkpt><trkpt lat="39.7373217" lon="-0.6273102"><ele>379.0</ele><time>2026-04-04T07:29:34.61Z</time></trkpt><trkpt lat="39.7374545" lon="-0.6272819"><ele>379.0</ele><time>2026-04-04T07:29:35.608Z</time></trkpt><trkpt lat="39.7375738" lon="-0.6272633"><ele>379.0</ele><time>2026-04-04T07:29:36.61Z</time></trkpt><trkpt lat="39.7377121" lon="-0.6272555"><ele>379.0</ele><time>2026-04-04T07:29:37.61Z</time></trkpt><trkpt lat="39.7378467" lon="-0.6272376"><ele>379.0</ele><time>2026-04-04T07:29:38.609Z</time></trkpt><trkpt lat="39.7379789" lon="-0.6272196"><ele>380.0</ele><time>2026-04-04T07:29:39.611Z</time></trkpt><trkpt lat="39.7381253" lon="-0.6272"><ele>381.0</ele><time>2026-04-04T07:29:40.61Z</time></trkpt><trkpt lat="39.7382532" lon="-0.6271839"><ele>382.0</ele><time>2026-04-04T07:29:41.61Z</time></trkpt><trkpt lat="39.7383634" lon="-0.6271668"><ele>383.0</ele><time>2026-04-04T07:29:42.61Z</time></trkpt><trkpt lat="39.7384715" lon="-0.6271413"><ele>383.79999999999995</ele><time>2026-04-04T07:29:43.609Z</time></trkpt><trkpt lat="39.7385648" lon="-0.6271239"><ele>384.6</ele><time>2026-04-04T07:29:44.608Z</time></trkpt><trkpt lat="39.7386452" lon="-0.6271204"><ele>385.4</ele><time>2026-04-04T07:29:45.611Z</time></trkpt><trkpt lat="39.7387164" lon="-0.627143"><ele>386.20000000000005</ele><time>2026-04-04T07:29:46.61Z</time></trkpt><trkpt lat="39.738818" lon="-0.6271868"><ele>387.0</ele><time>2026-04-04T07:29:47.611Z</time></trkpt><trkpt lat="39.7389096" lon="-0.627225"><ele>387.0</ele><time>2026-04-04T07:29:48.609Z</time></trkpt><trkpt lat="39.739006" lon="-0.6272808"><ele>387.0</ele><time>2026-04-04T07:29:49.609Z</time></trkpt><trkpt lat="39.7391038" lon="-0.6273284"><ele>387.0</ele><time>2026-04-04T07:29:50.609Z</time></trkpt><trkpt lat="39.7391797" lon="-0.6273788"><ele>387.0</ele><time>2026-04-04T07:29:51.611Z</time></trkpt><trkpt lat="39.7392636" lon="-0.6274211"><ele>387.0</ele><time>2026-04-04T07:29:52.61Z</time></trkpt><trkpt lat="39.7393402" lon="-0.6274542"><ele>387.6</ele><time>2026-04-04T07:29:53.61Z</time></trkpt><trkpt lat="39.7394035" lon="-0.6274548"><ele>388.20000000000005</ele><time>2026-04-04T07:29:54.61Z</time></trkpt><trkpt lat="39.7394838" lon="-0.6274316"><ele>388.8</ele><time>2026-04-04T07:29:55.609Z</time></trkpt><trkpt lat="39.7395648" lon="-0.6273838"><ele>389.4</ele><time>2026-04-04T07:29:56.609Z</time></trkpt><trkpt lat="39.7396734" lon="-0.6273228"><ele>390.0</ele><time>2026-04-04T07:29:57.609Z</time></trkpt><trkpt lat="39.7397666" lon="-0.6272687"><ele>390.0</ele><time>2026-04-04T07:29:58.61Z</time></trkpt><trkpt lat="39.7398618" lon="-0.6272204"><ele>390.0</ele><time>2026-04-04T07:29:59.611Z</time></trkpt><trkpt lat="39.7399854" lon="-0.6272177"><ele>390.0</ele><time>2026-04-04T07:30:01.61Z</time></trkpt><trkpt lat="39.7400499" lon="-0.6273353"><ele>390.0</ele><time>2026-04-04T07:30:03.611Z</time></trkpt><trkpt lat="39.7400463" lon="-0.6274262"><ele>390.0</ele><time>2026-04-04T07:30:04.61Z</time></trkpt><trkpt lat="39.7400375" lon="-0.6275312"><ele>390.0</ele><time>2026-04-04T07:30:05.609Z</time></trkpt><trkpt lat="39.7400105" lon="-0.6276564"><ele>390.0</ele><time>2026-04-04T07:30:06.609Z</time></trkpt><trkpt lat="39.7399631" lon="-0.6277898"><ele>390.0</ele><time>2026-04-04T07:30:07.611Z</time></trkpt><trkpt lat="39.7399042" lon="-0.6279311"><ele>390.0</ele><time>2026-04-04T07:30:08.61Z</time></trkpt><trkpt lat="39.7398493" lon="-0.6280588"><ele>390.0</ele><time>2026-04-04T07:30:09.608Z</time></trkpt><trkpt lat="39.7398056" lon="-0.6281739"><ele>390.0</ele><time>2026-04-04T07:30:10.61Z</time></trkpt><trkpt lat="39.7397714" lon="-0.6282839"><ele>390.0</ele><time>2026-04-04T07:30:11.61Z</time></trkpt><trkpt lat="39.7397436" lon="-0.6283797"><ele>390.0</ele><time>2026-04-04T07:30:12.61Z</time></trkpt><trkpt lat="39.7397183" lon="-0.6284833"><ele>390.0</ele><time>2026-04-04T07:30:13.61Z</time></trkpt><trkpt lat="39.739701" lon="-0.6285809"><ele>390.0</ele><time>2026-04-04T07:30:14.61Z</time></trkpt><trkpt lat="39.7396701" lon="-0.6286754"><ele>390.0</ele><time>2026-04-04T07:30:15.61Z</time></trkpt><trkpt lat="39.7396227" lon="-0.628778"><ele>391.4</ele><time>2026-04-04T07:30:16.609Z</time></trkpt><trkpt lat="39.7395805" lon="-0.6288792"><ele>392.8</ele><time>2026-04-04T07:30:17.609Z</time></trkpt><trkpt lat="39.7395458" lon="-0.6289669"><ele>394.20000000000005</ele><time>2026-04-04T07:30:18.61Z</time></trkpt><trkpt lat="39.7395272" lon="-0.6291128"><ele>395.6</ele><time>2026-04-04T07:30:20.61Z</time></trkpt><trkpt lat="39.7395561" lon="-0.6291859"><ele>397.0</ele><time>2026-04-04T07:30:21.61Z</time></trkpt><trkpt lat="39.7396578" lon="-0.6292819"><ele>397.00000000000006</ele><time>2026-04-04T07:30:23.611Z</time></trkpt><trkpt lat="39.7397371" lon="-0.6293129"><ele>397.0</ele><time>2026-04-04T07:30:24.611Z</time></trkpt><trkpt lat="39.7398312" lon="-0.6293153"><ele>397.0</ele><time>2026-04-04T07:30:25.61Z</time></trkpt><trkpt lat="39.7399153" lon="-0.6293261"><ele>397.0</ele><time>2026-04-04T07:30:26.61Z</time></trkpt><trkpt lat="39.7399944" lon="-0.6293254"><ele>397.00000000000006</ele><time>2026-04-04T07:30:27.609Z</time></trkpt><trkpt lat="39.7400618" lon="-0.6293198"><ele>397.0</ele><time>2026-04-04T07:30:28.61Z</time></trkpt><trkpt lat="39.7401462" lon="-0.6292106"><ele>397.0</ele><time>2026-04-04T07:30:30.61Z</time></trkpt><trkpt lat="39.7401766" lon="-0.6291291"><ele>397.0</ele><time>2026-04-04T07:30:31.61Z</time></trkpt><trkpt lat="39.7402141" lon="-0.6290217"><ele>397.0</ele><time>2026-04-04T07:30:32.608Z</time></trkpt><trkpt lat="39.7402571" lon="-0.6289166"><ele>397.0</ele><time>2026-04-04T07:30:33.61Z</time></trkpt><trkpt lat="39.7403238" lon="-0.6288049"><ele>397.0</ele><time>2026-04-04T07:30:34.611Z</time></trkpt><trkpt lat="39.7403911" lon="-0.6287159"><ele>396.0</ele><time>2026-04-04T07:30:35.609Z</time></trkpt><trkpt lat="39.74046" lon="-0.6286345"><ele>395.0</ele><time>2026-04-04T07:30:36.61Z</time></trkpt><trkpt lat="39.7405463" lon="-0.628562"><ele>394.0</ele><time>2026-04-04T07:30:37.609Z</time></trkpt><trkpt lat="39.7406295" lon="-0.6285128"><ele>393.0</ele><time>2026-04-04T07:30:38.609Z</time></trkpt><trkpt lat="39.7407266" lon="-0.6284799"><ele>392.0</ele><time>2026-04-04T07:30:39.611Z</time></trkpt><trkpt lat="39.7408402" lon="-0.6284697"><ele>392.0</ele><time>2026-04-04T07:30:40.61Z</time></trkpt><trkpt lat="39.7409533" lon="-0.6284709"><ele>392.0</ele><time>2026-04-04T07:30:41.61Z</time></trkpt><trkpt lat="39.7410598" lon="-0.6284582"><ele>392.0</ele><time>2026-04-04T07:30:42.61Z</time></trkpt><trkpt lat="39.7411748" lon="-0.6284279"><ele>392.0</ele><time>2026-04-04T07:30:43.61Z</time></trkpt><trkpt lat="39.7412851" lon="-0.6283881"><ele>393.20000000000005</ele><time>2026-04-04T07:30:44.609Z</time></trkpt><trkpt lat="39.7414083" lon="-0.6283353"><ele>394.4</ele><time>2026-04-04T07:30:45.611Z</time></trkpt><trkpt lat="39.7415131" lon="-0.628294"><ele>395.6</ele><time>2026-04-04T07:30:46.611Z</time></trkpt><trkpt lat="39.7416007" lon="-0.6282409"><ele>396.79999999999995</ele><time>2026-04-04T07:30:47.609Z</time></trkpt><trkpt lat="39.7416877" lon="-0.6281737"><ele>398.0</ele><time>2026-04-04T07:30:48.61Z</time></trkpt><trkpt lat="39.7417797" lon="-0.6280823"><ele>398.0</ele><time>2026-04-04T07:30:49.611Z</time></trkpt><trkpt lat="39.7418608" lon="-0.6279953"><ele>398.0</ele><time>2026-04-04T07:30:50.609Z</time></trkpt><trkpt lat="39.741939" lon="-0.6278962"><ele>398.0</ele><time>2026-04-04T07:30:51.608Z</time></trkpt><trkpt lat="39.7420025" lon="-0.6277806"><ele>398.0</ele><time>2026-04-04T07:30:52.609Z</time></trkpt><trkpt lat="39.7420671" lon="-0.6276737"><ele>398.0</ele><time>2026-04-04T07:30:53.611Z</time></trkpt><trkpt lat="39.742127" lon="-0.6275599"><ele>398.4</ele><time>2026-04-04T07:30:54.61Z</time></trkpt><trkpt lat="39.7421791" lon="-0.6274483"><ele>398.79999999999995</ele><time>2026-04-04T07:30:55.61Z</time></trkpt><trkpt lat="39.7422298" lon="-0.627341"><ele>399.2</ele><time>2026-04-04T07:30:56.61Z</time></trkpt><trkpt lat="39.7422747" lon="-0.6272143"><ele>399.6</ele><time>2026-04-04T07:30:57.61Z</time></trkpt><trkpt lat="39.7423137" lon="-0.627083"><ele>400.0</ele><time>2026-04-04T07:30:58.61Z</time></trkpt><trkpt lat="39.7423539" lon="-0.6269454"><ele>400.0</ele><time>2026-04-04T07:30:59.61Z</time></trkpt><trkpt lat="39.7423749" lon="-0.6268013"><ele>400.0</ele><time>2026-04-04T07:31:00.611Z</time></trkpt><trkpt lat="39.7423891" lon="-0.6266807"><ele>400.0</ele><time>2026-04-04T07:31:01.609Z</time></trkpt><trkpt lat="39.7424172" lon="-0.6265658"><ele>400.0</ele><time>2026-04-04T07:31:02.609Z</time></trkpt><trkpt lat="39.7424299" lon="-0.6264684"><ele>400.0</ele><time>2026-04-04T07:31:03.611Z</time></trkpt><trkpt lat="39.7424766" lon="-0.6263822"><ele>400.0</ele><time>2026-04-04T07:31:04.611Z</time></trkpt><trkpt lat="39.7425667" lon="-0.6262733"><ele>400.0</ele><time>2026-04-04T07:31:06.61Z</time></trkpt><trkpt lat="39.7427067" lon="-0.626232"><ele>400.0</ele><time>2026-04-04T07:31:08.611Z</time></trkpt><trkpt lat="39.7428242" lon="-0.6262656"><ele>400.0</ele><time>2026-04-04T07:31:09.61Z</time></trkpt><trkpt lat="39.7429431" lon="-0.6262844"><ele>401.0</ele><time>2026-04-04T07:31:10.61Z</time></trkpt><trkpt lat="39.7430473" lon="-0.6262877"><ele>402.0</ele><time>2026-04-04T07:31:11.61Z</time></trkpt><trkpt lat="39.7431498" lon="-0.6262881"><ele>403.0</ele><time>2026-04-04T07:31:12.611Z</time></trkpt><trkpt lat="39.7432207" lon="-0.6263121"><ele>404.0</ele><time>2026-04-04T07:31:13.61Z</time></trkpt><trkpt lat="39.7433091" lon="-0.6263612"><ele>405.0</ele><time>2026-04-04T07:31:14.61Z</time></trkpt><trkpt lat="39.7433864" lon="-0.6264176"><ele>405.0</ele><time>2026-04-04T07:31:15.61Z</time></trkpt><trkpt lat="39.7434605" lon="-0.6264602"><ele>405.0</ele><time>2026-04-04T07:31:16.609Z</time></trkpt><trkpt lat="39.7435368" lon="-0.6264846"><ele>405.0</ele><time>2026-04-04T07:31:17.61Z</time></trkpt><trkpt lat="39.7436208" lon="-0.6264957"><ele>405.0</ele><time>2026-04-04T07:31:18.609Z</time></trkpt><trkpt lat="39.7437053" lon="-0.6264898"><ele>405.0</ele><time>2026-04-04T07:31:19.61Z</time></trkpt><trkpt lat="39.7437694" lon="-0.6264801"><ele>405.0</ele><time>2026-04-04T07:31:20.611Z</time></trkpt><trkpt lat="39.7438363" lon="-0.6264622"><ele>405.1666666666667</ele><time>2026-04-04T07:31:21.61Z</time></trkpt><trkpt lat="39.7439039" lon="-0.6264084"><ele>405.33333333333337</ele><time>2026-04-04T07:31:22.61Z</time></trkpt><trkpt lat="39.7439648" lon="-0.626349"><ele>405.5</ele><time>2026-04-04T07:31:23.611Z</time></trkpt><trkpt lat="39.7440254" lon="-0.6262786"><ele>405.6666666666667</ele><time>2026-04-04T07:31:24.609Z</time></trkpt><trkpt lat="39.7440655" lon="-0.6262019"><ele>405.83333333333337</ele><time>2026-04-04T07:31:25.61Z</time></trkpt><trkpt lat="39.7441024" lon="-0.626056"><ele>406.0</ele><time>2026-04-04T07:31:27.61Z</time></trkpt><trkpt lat="39.7440831" lon="-0.6258469"><ele>406.0</ele><time>2026-04-04T07:31:29.61Z</time></trkpt><trkpt lat="39.7440885" lon="-0.6257489"><ele>406.0</ele><time>2026-04-04T07:31:30.611Z</time></trkpt><trkpt lat="39.7441428" lon="-0.6256101"><ele>406.0</ele><time>2026-04-04T07:31:32.61Z</time></trkpt><trkpt lat="39.7442777" lon="-0.6255614"><ele>406.0</ele><time>2026-04-04T07:31:34.61Z</time></trkpt><trkpt lat="39.7443592" lon="-0.6255567"><ele>406.0</ele><time>2026-04-04T07:31:35.61Z</time></trkpt><trkpt lat="39.7444671" lon="-0.6255891"><ele>407.0</ele><time>2026-04-04T07:31:36.611Z</time></trkpt><trkpt lat="39.7445687" lon="-0.6256269"><ele>408.0</ele><time>2026-04-04T07:31:37.61Z</time></trkpt><trkpt lat="39.7446589" lon="-0.6256672"><ele>409.0</ele><time>2026-04-04T07:31:38.61Z</time></trkpt><trkpt lat="39.7447504" lon="-0.6257309"><ele>410.0</ele><time>2026-04-04T07:31:39.61Z</time></trkpt><trkpt lat="39.7448221" lon="-0.6257945"><ele>411.0</ele><time>2026-04-04T07:31:40.61Z</time></trkpt><trkpt lat="39.7448788" lon="-0.6258415"><ele>411.0</ele><time>2026-04-04T07:31:41.611Z</time></trkpt><trkpt lat="39.744968" lon="-0.6258804"><ele>411.0</ele><time>2026-04-04T07:31:43.611Z</time></trkpt><trkpt lat="39.7450694" lon="-0.625773"><ele>411.0</ele><time>2026-04-04T07:31:45.61Z</time></trkpt><trkpt lat="39.7451227" lon="-0.6256698"><ele>411.0</ele><time>2026-04-04T07:31:46.61Z</time></trkpt><trkpt lat="39.7451797" lon="-0.6255566"><ele>411.0</ele><time>2026-04-04T07:31:47.61Z</time></trkpt><trkpt lat="39.7452509" lon="-0.6254216"><ele>411.3333333333333</ele><time>2026-04-04T07:31:48.61Z</time></trkpt><trkpt lat="39.745315" lon="-0.6253159"><ele>411.66666666666663</ele><time>2026-04-04T07:31:49.611Z</time></trkpt><trkpt lat="39.7453667" lon="-0.6252384"><ele>412.0</ele><time>2026-04-04T07:31:50.609Z</time></trkpt><trkpt lat="39.7454462" lon="-0.6251732"><ele>412.3333333333333</ele><time>2026-04-04T07:31:52.609Z</time></trkpt><trkpt lat="39.7455041" lon="-0.6251329"><ele>412.66666666666663</ele><time>2026-04-04T07:31:55.61Z</time></trkpt><trkpt lat="39.7455645" lon="-0.6250679"><ele>413.0</ele><time>2026-04-04T07:39:59.612Z</time></trkpt><trkpt lat="39.7456202" lon="-0.6249385"><ele>413.0</ele><time>2026-04-04T07:40:01.609Z</time></trkpt><trkpt lat="39.7456742" lon="-0.6247712"><ele>413.0</ele><time>2026-04-04T07:40:03.611Z</time></trkpt><trkpt lat="39.7457065" lon="-0.6246743"><ele>413.0</ele><time>2026-04-04T07:40:04.61Z</time></trkpt><trkpt lat="39.7458087" lon="-0.6245627"><ele>413.0</ele><time>2026-04-04T07:40:06.61Z</time></trkpt><trkpt lat="39.7458637" lon="-0.6244859"><ele>413.0</ele><time>2026-04-04T07:40:07.61Z</time></trkpt><trkpt lat="39.7459416" lon="-0.6244243"><ele>414.3333333333333</ele><time>2026-04-04T07:40:09.61Z</time></trkpt><trkpt lat="39.7460375" lon="-0.6243646"><ele>415.66666666666663</ele><time>2026-04-04T07:40:11.61Z</time></trkpt><trkpt lat="39.7461325" lon="-0.6243057"><ele>417.0</ele><time>2026-04-04T07:40:13.61Z</time></trkpt><trkpt lat="39.7462203" lon="-0.6242844"><ele>418.33333333333337</ele><time>2026-04-04T07:40:16.612Z</time></trkpt><trkpt lat="39.7462599" lon="-0.6242192"><ele>419.6666666666667</ele><time>2026-04-04T07:40:18.61Z</time></trkpt><trkpt lat="39.7463155" lon="-0.6241794"><ele>421.0</ele><time>2026-04-04T07:40:21.611Z</time></trkpt><trkpt lat="39.7463963" lon="-0.6241469"><ele>421.33333333333337</ele><time>2026-04-04T07:40:24.611Z</time></trkpt><trkpt lat="39.7465087" lon="-0.6241404"><ele>421.6666666666667</ele><time>2026-04-04T07:40:26.61Z</time></trkpt><trkpt lat="39.7465778" lon="-0.6241861"><ele>422.0</ele><time>2026-04-04T07:40:27.611Z</time></trkpt><trkpt lat="39.7466339" lon="-0.6242244"><ele>422.33333333333337</ele><time>2026-04-04T07:40:28.61Z</time></trkpt><trkpt lat="39.7467244" lon="-0.6243198"><ele>422.6666666666667</ele><time>2026-04-04T07:40:30.611Z</time></trkpt><trkpt lat="39.7467958" lon="-0.6243613"><ele>423.0</ele><time>2026-04-04T07:40:31.612Z</time></trkpt><trkpt lat="39.7468721" lon="-0.6244471"><ele>423.59999999999997</ele><time>2026-04-04T07:40:33.611Z</time></trkpt><trkpt lat="39.7469293" lon="-0.6245402"><ele>424.2</ele><time>2026-04-04T07:40:35.611Z</time></trkpt><trkpt lat="39.7470155" lon="-0.6246638"><ele>424.8</ele><time>2026-04-04T07:40:37.611Z</time></trkpt><trkpt lat="39.7470636" lon="-0.6247364"><ele>425.4</ele><time>2026-04-04T07:40:38.609Z</time></trkpt><trkpt lat="39.7471117" lon="-0.6248194"><ele>426.0</ele><time>2026-04-04T07:40:39.609Z</time></trkpt><trkpt lat="39.7471621" lon="-0.6248984"><ele>425.99999999999994</ele><time>2026-04-04T07:40:40.611Z</time></trkpt><trkpt lat="39.7472122" lon="-0.6249777"><ele>426.0</ele><time>2026-04-04T07:40:41.612Z</time></trkpt><trkpt lat="39.7472534" lon="-0.6250525"><ele>426.0</ele><time>2026-04-04T07:40:42.61Z</time></trkpt><trkpt lat="39.747288" lon="-0.62513"><ele>426.0</ele><time>2026-04-04T07:40:43.61Z</time></trkpt><trkpt lat="39.747327" lon="-0.625198"><ele>426.0</ele><time>2026-04-04T07:40:44.612Z</time></trkpt><trkpt lat="39.7473565" lon="-0.6252738"><ele>425.99999999999994</ele><time>2026-04-04T07:40:45.61Z</time></trkpt><trkpt lat="39.7473981" lon="-0.6253644"><ele>426.0</ele><time>2026-04-04T07:40:46.61Z</time></trkpt><trkpt lat="39.7474377" lon="-0.6254491"><ele>425.8</ele><time>2026-04-04T07:40:47.609Z</time></trkpt><trkpt lat="39.7474641" lon="-0.625527"><ele>425.6</ele><time>2026-04-04T07:40:48.611Z</time></trkpt><trkpt lat="39.7475274" lon="-0.6256503"><ele>425.4</ele><time>2026-04-04T07:40:50.609Z</time></trkpt><trkpt lat="39.747566" lon="-0.6257971"><ele>425.2</ele><time>2026-04-04T07:40:52.61Z</time></trkpt><trkpt lat="39.7476158" lon="-0.6259455"><ele>425.0</ele><time>2026-04-04T07:40:54.611Z</time></trkpt><trkpt lat="39.7476381" lon="-0.6260317"><ele>424.6</ele><time>2026-04-04T07:40:55.612Z</time></trkpt><trkpt lat="39.7476841" lon="-0.6261657"><ele>424.2</ele><time>2026-04-04T07:40:57.611Z</time></trkpt><trkpt lat="39.7477288" lon="-0.6263315"><ele>423.79999999999995</ele><time>2026-04-04T07:40:59.612Z</time></trkpt><trkpt lat="39.7477514" lon="-0.6264235"><ele>423.4</ele><time>2026-04-04T07:41:00.611Z</time></trkpt><trkpt lat="39.7477611" lon="-0.6265769"><ele>423.0</ele><time>2026-04-04T07:41:02.611Z</time></trkpt><trkpt lat="39.7477908" lon="-0.6267206"><ele>425.4</ele><time>2026-04-04T07:41:04.61Z</time></trkpt><trkpt lat="39.7478379" lon="-0.6268508"><ele>427.79999999999995</ele><time>2026-04-04T07:41:06.61Z</time></trkpt><trkpt lat="39.7478856" lon="-0.6269703"><ele>430.2</ele><time>2026-04-04T07:41:08.611Z</time></trkpt><trkpt lat="39.7478841" lon="-0.6271033"><ele>432.6</ele><time>2026-04-04T07:41:10.611Z</time></trkpt><trkpt lat="39.7478761" lon="-0.6272391"><ele>435.0</ele><time>2026-04-04T07:41:12.611Z</time></trkpt><trkpt lat="39.7478427" lon="-0.6273884"><ele>434.0</ele><time>2026-04-04T07:41:14.612Z</time></trkpt><trkpt lat="39.7477933" lon="-0.6275233"><ele>433.0</ele><time>2026-04-04T07:41:16.611Z</time></trkpt><trkpt lat="39.7477359" lon="-0.627658"><ele>432.0</ele><time>2026-04-04T07:41:18.611Z</time></trkpt><trkpt lat="39.7476677" lon="-0.6277627"><ele>431.0</ele><time>2026-04-04T07:41:20.611Z</time></trkpt><trkpt lat="39.7475811" lon="-0.6278264"><ele>430.0</ele><time>2026-04-04T07:41:22.611Z</time></trkpt><trkpt lat="39.7475145" lon="-0.627899"><ele>430.0</ele><time>2026-04-04T07:41:24.61Z</time></trkpt><trkpt lat="39.7474076" lon="-0.6280028"><ele>430.0</ele><time>2026-04-04T07:41:26.611Z</time></trkpt><trkpt lat="39.7473523" lon="-0.6280573"><ele>430.0</ele><time>2026-04-04T07:41:27.612Z</time></trkpt><trkpt lat="39.7472903" lon="-0.6281713"><ele>430.0</ele><time>2026-04-04T07:41:29.609Z</time></trkpt><trkpt lat="39.7472334" lon="-0.6282479"><ele>430.0</ele><time>2026-04-04T07:41:31.612Z</time></trkpt><trkpt lat="39.7471658" lon="-0.628312"><ele>430.00000000000006</ele><time>2026-04-04T07:41:33.611Z</time></trkpt><trkpt lat="39.7470914" lon="-0.6283654"><ele>430.0</ele><time>2026-04-04T07:41:35.61Z</time></trkpt><trkpt lat="39.74703" lon="-0.6283936"><ele>430.0</ele><time>2026-04-04T07:41:37.612Z</time></trkpt><trkpt lat="39.7469649" lon="-0.6284073"><ele>430.0</ele><time>2026-04-04T07:41:39.611Z</time></trkpt><trkpt lat="39.7468989" lon="-0.628408"><ele>430.00000000000006</ele><time>2026-04-04T07:41:41.612Z</time></trkpt><trkpt lat="39.74681" lon="-0.6284705"><ele>430.0</ele><time>2026-04-04T07:41:43.61Z</time></trkpt><trkpt lat="39.7467212" lon="-0.6285554"><ele>432.4</ele><time>2026-04-04T07:41:45.611Z</time></trkpt><trkpt lat="39.7466804" lon="-0.628656"><ele>434.8</ele><time>2026-04-04T07:41:47.611Z</time></trkpt><trkpt lat="39.7466937" lon="-0.6288172"><ele>437.20000000000005</ele><time>2026-04-04T07:41:49.61Z</time></trkpt><trkpt lat="39.746746" lon="-0.6288964"><ele>439.6</ele><time>2026-04-04T07:41:50.611Z</time></trkpt><trkpt lat="39.7467874" lon="-0.6289803"><ele>442.0</ele><time>2026-04-04T07:41:51.61Z</time></trkpt><trkpt lat="39.7468613" lon="-0.6290641"><ele>442.6</ele><time>2026-04-04T07:41:52.61Z</time></trkpt><trkpt lat="39.746935" lon="-0.6291508"><ele>443.20000000000005</ele><time>2026-04-04T07:41:53.61Z</time></trkpt><trkpt lat="39.7470162" lon="-0.6292321"><ele>443.8</ele><time>2026-04-04T07:41:54.611Z</time></trkpt><trkpt lat="39.7470987" lon="-0.6293182"><ele>444.4</ele><time>2026-04-04T07:41:55.61Z</time></trkpt><trkpt lat="39.7471755" lon="-0.6294069"><ele>445.0</ele><time>2026-04-04T07:41:56.61Z</time></trkpt><trkpt lat="39.7472542" lon="-0.6294827"><ele>445.0</ele><time>2026-04-04T07:41:57.61Z</time></trkpt><trkpt lat="39.7473299" lon="-0.6295478"><ele>445.0</ele><time>2026-04-04T07:41:58.611Z</time></trkpt><trkpt lat="39.7474052" lon="-0.6295861"><ele>445.0</ele><time>2026-04-04T07:41:59.61Z</time></trkpt><trkpt lat="39.7474903" lon="-0.6296278"><ele>445.0</ele><time>2026-04-04T07:42:00.611Z</time></trkpt><trkpt lat="39.7475827" lon="-0.6296736"><ele>445.0</ele><time>2026-04-04T07:42:01.609Z</time></trkpt><trkpt lat="39.7476787" lon="-0.6297494"><ele>443.6</ele><time>2026-04-04T07:42:02.612Z</time></trkpt><trkpt lat="39.7477784" lon="-0.6298218"><ele>442.2</ele><time>2026-04-04T07:42:03.61Z</time></trkpt><trkpt lat="39.7478751" lon="-0.6298906"><ele>440.79999999999995</ele><time>2026-04-04T07:42:04.611Z</time></trkpt><trkpt lat="39.7479594" lon="-0.6299603"><ele>439.4</ele><time>2026-04-04T07:42:05.611Z</time></trkpt><trkpt lat="39.7480347" lon="-0.6300339"><ele>438.0</ele><time>2026-04-04T07:42:06.612Z</time></trkpt><trkpt lat="39.7481044" lon="-0.6301149"><ele>438.0</ele><time>2026-04-04T07:42:07.61Z</time></trkpt><trkpt lat="39.7481586" lon="-0.6301862"><ele>438.0</ele><time>2026-04-04T07:42:08.611Z</time></trkpt><trkpt lat="39.7481966" lon="-0.6302625"><ele>438.0</ele><time>2026-04-04T07:42:09.609Z</time></trkpt><trkpt lat="39.7482356" lon="-0.6303493"><ele>438.0</ele><time>2026-04-04T07:42:10.612Z</time></trkpt><trkpt lat="39.7483486" lon="-0.6304342"><ele>438.0</ele><time>2026-04-04T07:42:12.609Z</time></trkpt><trkpt lat="39.7484128" lon="-0.6304746"><ele>438.0</ele><time>2026-04-04T07:42:13.609Z</time></trkpt><trkpt lat="39.748469" lon="-0.630518"><ele>439.0</ele><time>2026-04-04T07:42:14.612Z</time></trkpt><trkpt lat="39.7485463" lon="-0.6305536"><ele>439.99999999999994</ele><time>2026-04-04T07:42:15.609Z</time></trkpt><trkpt lat="39.7486296" lon="-0.6305783"><ele>440.99999999999994</ele><time>2026-04-04T07:42:16.61Z</time></trkpt><trkpt lat="39.7487068" lon="-0.630588"><ele>442.0</ele><time>2026-04-04T07:42:17.612Z</time></trkpt><trkpt lat="39.7488116" lon="-0.630588"><ele>443.0</ele><time>2026-04-04T07:42:18.609Z</time></trkpt><trkpt lat="39.7489153" lon="-0.6305743"><ele>443.0</ele><time>2026-04-04T07:42:19.611Z</time></trkpt><trkpt lat="39.7490389" lon="-0.6305522"><ele>443.0</ele><time>2026-04-04T07:42:20.612Z</time></trkpt><trkpt lat="39.7491619" lon="-0.630521"><ele>443.0</ele><time>2026-04-04T07:42:21.612Z</time></trkpt><trkpt lat="39.749276" lon="-0.6305081"><ele>443.0</ele><time>2026-04-04T07:42:22.61Z</time></trkpt><trkpt lat="39.7493879" lon="-0.6304982"><ele>443.49999999999994</ele><time>2026-04-04T07:42:23.61Z</time></trkpt><trkpt lat="39.7494895" lon="-0.6304796"><ele>444.0</ele><time>2026-04-04T07:42:24.611Z</time></trkpt><trkpt lat="39.7495933" lon="-0.6304796"><ele>444.5</ele><time>2026-04-04T07:42:25.609Z</time></trkpt><trkpt lat="39.7496838" lon="-0.630496"><ele>445.0</ele><time>2026-04-04T07:42:26.611Z</time></trkpt><trkpt lat="39.7497572" lon="-0.6305043"><ele>445.49999999999994</ele><time>2026-04-04T07:42:27.611Z</time></trkpt><trkpt lat="39.7498246" lon="-0.6304893"><ele>446.0</ele><time>2026-04-04T07:42:28.611Z</time></trkpt><trkpt lat="39.7498906" lon="-0.6304544"><ele>446.0</ele><time>2026-04-04T07:42:29.611Z</time></trkpt><trkpt lat="39.7500008" lon="-0.6303985"><ele>446.0</ele><time>2026-04-04T07:42:31.612Z</time></trkpt><trkpt lat="39.7500839" lon="-0.6303806"><ele>446.0</ele><time>2026-04-04T07:42:33.609Z</time></trkpt><trkpt lat="39.7501815" lon="-0.6304269"><ele>446.0</ele><time>2026-04-04T07:42:35.612Z</time></trkpt><trkpt lat="39.7502789" lon="-0.6304596"><ele>446.0</ele><time>2026-04-04T07:42:37.61Z</time></trkpt><trkpt lat="39.7503555" lon="-0.6305059"><ele>446.4</ele><time>2026-04-04T07:42:39.612Z</time></trkpt><trkpt lat="39.7504494" lon="-0.6305223"><ele>446.8</ele><time>2026-04-04T07:42:41.611Z</time></trkpt><trkpt lat="39.7505404" lon="-0.6305222"><ele>447.19999999999993</ele><time>2026-04-04T07:42:43.61Z</time></trkpt><trkpt lat="39.7506143" lon="-0.6305181"><ele>447.59999999999997</ele><time>2026-04-04T07:42:45.611Z</time></trkpt><trkpt lat="39.7506958" lon="-0.6305726"><ele>448.0</ele><time>2026-04-04T07:42:47.612Z</time></trkpt><trkpt lat="39.7507138" lon="-0.6307098"><ele>448.0</ele><time>2026-04-04T07:42:50.612Z</time></trkpt><trkpt lat="39.7507381" lon="-0.6308319"><ele>447.99999999999994</ele><time>2026-04-04T07:42:52.612Z</time></trkpt><trkpt lat="39.7507543" lon="-0.630948"><ele>447.99999999999994</ele><time>2026-04-04T07:42:54.612Z</time></trkpt><trkpt lat="39.7507217" lon="-0.6310547"><ele>448.0</ele><time>2026-04-04T07:42:56.611Z</time></trkpt><trkpt lat="39.7506873" lon="-0.6312042"><ele>448.0</ele><time>2026-04-04T07:42:58.61Z</time></trkpt><trkpt lat="39.7506718" lon="-0.631346"><ele>448.4</ele><time>2026-04-04T07:43:00.611Z</time></trkpt><trkpt lat="39.7507056" lon="-0.6314498"><ele>448.79999999999995</ele><time>2026-04-04T07:43:02.609Z</time></trkpt><trkpt lat="39.7507644" lon="-0.6314909"><ele>449.2</ele><time>2026-04-04T07:43:03.611Z</time></trkpt><trkpt lat="39.7508993" lon="-0.6315497"><ele>449.6</ele><time>2026-04-04T07:43:05.611Z</time></trkpt><trkpt lat="39.7509727" lon="-0.6315947"><ele>450.0</ele><time>2026-04-04T07:43:06.611Z</time></trkpt><trkpt lat="39.7510388" lon="-0.6316349"><ele>450.4</ele><time>2026-04-04T07:43:07.61Z</time></trkpt><trkpt lat="39.7511437" lon="-0.6316736"><ele>450.8</ele><time>2026-04-04T07:43:09.61Z</time></trkpt><trkpt lat="39.7511996" lon="-0.6317739"><ele>451.20000000000005</ele><time>2026-04-04T07:43:11.61Z</time></trkpt><trkpt lat="39.7512637" lon="-0.6318726"><ele>451.6</ele><time>2026-04-04T07:43:13.611Z</time></trkpt><trkpt lat="39.7513248" lon="-0.6319556"><ele>452.0</ele><time>2026-04-04T07:43:15.61Z</time></trkpt><trkpt lat="39.7513862" lon="-0.6320436"><ele>451.99999999999994</ele><time>2026-04-04T07:43:18.611Z</time></trkpt><trkpt lat="39.751425" lon="-0.6321148"><ele>452.0</ele><time>2026-04-04T07:43:21.611Z</time></trkpt><trkpt lat="39.7514607" lon="-0.6321923"><ele>452.0</ele><time>2026-04-04T07:43:23.612Z</time></trkpt><trkpt lat="39.7514921" lon="-0.6322868"><ele>452.0</ele><time>2026-04-04T07:43:25.611Z</time></trkpt><trkpt lat="39.7515193" lon="-0.6323653"><ele>451.99999999999994</ele><time>2026-04-04T07:43:27.61Z</time></trkpt><trkpt lat="39.7514895" lon="-0.6324662"><ele>452.0</ele><time>2026-04-04T07:43:29.612Z</time></trkpt><trkpt lat="39.7514297" lon="-0.6325572"><ele>452.0</ele><time>2026-04-04T07:43:31.612Z</time></trkpt><trkpt lat="39.7513706" lon="-0.6326285"><ele>452.00000000000006</ele><time>2026-04-04T07:43:33.61Z</time></trkpt><trkpt lat="39.7512904" lon="-0.6326995"><ele>452.00000000000006</ele><time>2026-04-04T07:43:35.612Z</time></trkpt><trkpt lat="39.7512216" lon="-0.6327809"><ele>452.0</ele><time>2026-04-04T07:43:37.611Z</time></trkpt><trkpt lat="39.7511582" lon="-0.6328748"><ele>452.0</ele><time>2026-04-04T07:43:39.611Z</time></trkpt><trkpt lat="39.7511043" lon="-0.6329829"><ele>452.16666666666663</ele><time>2026-04-04T07:43:41.609Z</time></trkpt><trkpt lat="39.7510513" lon="-0.6330758"><ele>452.3333333333333</ele><time>2026-04-04T07:43:43.611Z</time></trkpt><trkpt lat="39.750994" lon="-0.6331442"><ele>452.5</ele><time>2026-04-04T07:43:45.611Z</time></trkpt><trkpt lat="39.7509572" lon="-0.6332201"><ele>452.66666666666663</ele><time>2026-04-04T07:43:47.611Z</time></trkpt><trkpt lat="39.7509555" lon="-0.6333036"><ele>452.8333333333333</ele><time>2026-04-04T07:43:49.612Z</time></trkpt><trkpt lat="39.7509134" lon="-0.6334083"><ele>453.0</ele><time>2026-04-04T07:43:52.611Z</time></trkpt><trkpt lat="39.7508547" lon="-0.6334594"><ele>453.0</ele><time>2026-04-04T07:43:54.611Z</time></trkpt><trkpt lat="39.7508348" lon="-0.6335494"><ele>453.0</ele><time>2026-04-04T07:43:56.612Z</time></trkpt><trkpt lat="39.7508174" lon="-0.6336639"><ele>453.0</ele><time>2026-04-04T07:43:59.61Z</time></trkpt><trkpt lat="39.7508628" lon="-0.6337326"><ele>453.0</ele><time>2026-04-04T07:44:01.612Z</time></trkpt><trkpt lat="39.7509043" lon="-0.6338019"><ele>453.0</ele><time>2026-04-04T07:44:03.611Z</time></trkpt><trkpt lat="39.7508991" lon="-0.6339351"><ele>453.0</ele><time>2026-04-04T07:44:06.612Z</time></trkpt><trkpt lat="39.7508984" lon="-0.6340269"><ele>453.59999999999997</ele><time>2026-04-04T07:44:08.612Z</time></trkpt><trkpt lat="39.7508975" lon="-0.634138"><ele>454.19999999999993</ele><time>2026-04-04T07:44:10.61Z</time></trkpt><trkpt lat="39.7508924" lon="-0.6342436"><ele>454.8</ele><time>2026-04-04T07:44:12.611Z</time></trkpt><trkpt lat="39.7509311" lon="-0.6343283"><ele>455.4</ele><time>2026-04-04T07:44:14.611Z</time></trkpt><trkpt lat="39.7509724" lon="-0.6344486"><ele>456.0</ele><time>2026-04-04T07:44:16.611Z</time></trkpt><trkpt lat="39.7510221" lon="-0.6345766"><ele>457.20000000000005</ele><time>2026-04-04T07:44:18.611Z</time></trkpt><trkpt lat="39.7510717" lon="-0.6346796"><ele>458.40000000000003</ele><time>2026-04-04T07:44:20.61Z</time></trkpt><trkpt lat="39.7511201" lon="-0.6347864"><ele>459.6</ele><time>2026-04-04T07:44:22.611Z</time></trkpt><trkpt lat="39.7511235" lon="-0.6348996"><ele>460.8</ele><time>2026-04-04T07:44:24.611Z</time></trkpt><trkpt lat="39.7511439" lon="-0.6349886"><ele>462.0</ele><time>2026-04-04T07:44:25.612Z</time></trkpt><trkpt lat="39.7511465" lon="-0.6351246"><ele>462.0</ele><time>2026-04-04T07:44:27.611Z</time></trkpt><trkpt lat="39.7511562" lon="-0.6352496"><ele>462.00000000000006</ele><time>2026-04-04T07:44:29.611Z</time></trkpt><trkpt lat="39.751165" lon="-0.6353685"><ele>462.00000000000006</ele><time>2026-04-04T07:44:31.61Z</time></trkpt><trkpt lat="39.7511622" lon="-0.6354921"><ele>462.0</ele><time>2026-04-04T07:44:33.612Z</time></trkpt><trkpt lat="39.7511739" lon="-0.6356127"><ele>462.0</ele><time>2026-04-04T07:44:35.611Z</time></trkpt><trkpt lat="39.7511966" lon="-0.6357365"><ele>463.6</ele><time>2026-04-04T07:44:37.61Z</time></trkpt><trkpt lat="39.7511956" lon="-0.6358248"><ele>465.20000000000005</ele><time>2026-04-04T07:44:38.611Z</time></trkpt><trkpt lat="39.7511946" lon="-0.635912"><ele>466.8</ele><time>2026-04-04T07:44:39.61Z</time></trkpt><trkpt lat="39.751202" lon="-0.6360926"><ele>468.4</ele><time>2026-04-04T07:44:41.612Z</time></trkpt><trkpt lat="39.7512034" lon="-0.636189"><ele>470.0</ele><time>2026-04-04T07:44:42.61Z</time></trkpt><trkpt lat="39.7512161" lon="-0.636344"><ele>470.99999999999994</ele><time>2026-04-04T07:44:44.611Z</time></trkpt><trkpt lat="39.7512346" lon="-0.6364257"><ele>472.0</ele><time>2026-04-04T07:44:45.61Z</time></trkpt><trkpt lat="39.7512777" lon="-0.6364874"><ele>473.0</ele><time>2026-04-04T07:44:46.61Z</time></trkpt><trkpt lat="39.7513479" lon="-0.6365928"><ele>474.0</ele><time>2026-04-04T07:44:48.611Z</time></trkpt><trkpt lat="39.7513808" lon="-0.6367118"><ele>474.99999999999994</ele><time>2026-04-04T07:44:50.611Z</time></trkpt><trkpt lat="39.7513832" lon="-0.6368444"><ele>476.0</ele><time>2026-04-04T07:44:52.61Z</time></trkpt><trkpt lat="39.7513873" lon="-0.6369736"><ele>476.8</ele><time>2026-04-04T07:44:54.61Z</time></trkpt><trkpt lat="39.7513948" lon="-0.6371014"><ele>477.6</ele><time>2026-04-04T07:44:56.61Z</time></trkpt><trkpt lat="39.7514126" lon="-0.6372509"><ele>478.4</ele><time>2026-04-04T07:44:58.611Z</time></trkpt><trkpt lat="39.7514218" lon="-0.6373323"><ele>479.2</ele><time>2026-04-04T07:44:59.611Z</time></trkpt><trkpt lat="39.7514326" lon="-0.6374927"><ele>480.0</ele><time>2026-04-04T07:45:01.611Z</time></trkpt><trkpt lat="39.7514706" lon="-0.6376226"><ele>480.0</ele><time>2026-04-04T07:45:03.611Z</time></trkpt><trkpt lat="39.7515308" lon="-0.6377566"><ele>480.0</ele><time>2026-04-04T07:45:05.611Z</time></trkpt><trkpt lat="39.7515863" lon="-0.6378892"><ele>480.0</ele><time>2026-04-04T07:45:07.612Z</time></trkpt><trkpt lat="39.7516378" lon="-0.6379943"><ele>480.0</ele><time>2026-04-04T07:45:09.61Z</time></trkpt><trkpt lat="39.7516864" lon="-0.6381158"><ele>480.0</ele><time>2026-04-04T07:45:11.611Z</time></trkpt><trkpt lat="39.7517212" lon="-0.6382492"><ele>479.8333333333333</ele><time>2026-04-04T07:45:13.612Z</time></trkpt><trkpt lat="39.7517541" lon="-0.6384098"><ele>479.66666666666663</ele><time>2026-04-04T07:45:15.611Z</time></trkpt><trkpt lat="39.7517736" lon="-0.6384934"><ele>479.5</ele><time>2026-04-04T07:45:16.612Z</time></trkpt><trkpt lat="39.7517845" lon="-0.6386139"><ele>479.3333333333333</ele><time>2026-04-04T07:45:18.612Z</time></trkpt><trkpt lat="39.7518198" lon="-0.6387151"><ele>479.16666666666663</ele><time>2026-04-04T07:45:21.611Z</time></trkpt><trkpt lat="39.7518745" lon="-0.6387824"><ele>479.0</ele><time>2026-04-04T07:45:23.611Z</time></trkpt><trkpt lat="39.7519311" lon="-0.6388598"><ele>479.99999999999994</ele><time>2026-04-04T07:45:25.612Z</time></trkpt><trkpt lat="39.7519857" lon="-0.6389261"><ele>481.0</ele><time>2026-04-04T07:47:02.611Z</time></trkpt><trkpt lat="39.7520533" lon="-0.638997"><ele>482.0</ele><time>2026-04-04T07:47:04.612Z</time></trkpt><trkpt lat="39.7521372" lon="-0.6390249"><ele>483.0</ele><time>2026-04-04T07:47:06.612Z</time></trkpt><trkpt lat="39.7522314" lon="-0.6390568"><ele>483.99999999999994</ele><time>2026-04-04T07:47:08.61Z</time></trkpt><trkpt lat="39.752291" lon="-0.6391012"><ele>485.0</ele><time>2026-04-04T07:47:09.611Z</time></trkpt><trkpt lat="39.7523683" lon="-0.6391401"><ele>485.0</ele><time>2026-04-04T07:47:10.611Z</time></trkpt><trkpt lat="39.7524429" lon="-0.6391707"><ele>485.0</ele><time>2026-04-04T07:47:11.611Z</time></trkpt><trkpt lat="39.7525072" lon="-0.6391938"><ele>485.0</ele><time>2026-04-04T07:47:12.61Z</time></trkpt><trkpt lat="39.7525993" lon="-0.6392729"><ele>485.0</ele><time>2026-04-04T07:47:14.612Z</time></trkpt><trkpt lat="39.7526743" lon="-0.639395"><ele>485.0</ele><time>2026-04-04T07:47:16.611Z</time></trkpt><trkpt lat="39.7527704" lon="-0.6395"><ele>486.49999999999994</ele><time>2026-04-04T07:47:18.611Z</time></trkpt><trkpt lat="39.7528131" lon="-0.6395737"><ele>488.0</ele><time>2026-04-04T07:47:19.611Z</time></trkpt><trkpt lat="39.7528537" lon="-0.6396521"><ele>489.5</ele><time>2026-04-04T07:47:20.61Z</time></trkpt><trkpt lat="39.7528849" lon="-0.6397269"><ele>491.0</ele><time>2026-04-04T07:47:21.612Z</time></trkpt><trkpt lat="39.7529224" lon="-0.639797"><ele>492.49999999999994</ele><time>2026-04-04T07:47:22.611Z</time></trkpt><trkpt lat="39.7529737" lon="-0.6398714"><ele>494.0</ele><time>2026-04-04T07:47:23.612Z</time></trkpt><trkpt lat="39.7530386" lon="-0.6399693"><ele>493.99999999999994</ele><time>2026-04-04T07:47:24.612Z</time></trkpt><trkpt lat="39.7530962" lon="-0.6400416"><ele>494.0</ele><time>2026-04-04T07:47:25.611Z</time></trkpt><trkpt lat="39.7531337" lon="-0.6401196"><ele>494.0</ele><time>2026-04-04T07:47:26.612Z</time></trkpt><trkpt lat="39.7531598" lon="-0.6401943"><ele>494.0</ele><time>2026-04-04T07:47:27.611Z</time></trkpt><trkpt lat="39.7531664" lon="-0.6402758"><ele>493.99999999999994</ele><time>2026-04-04T07:47:28.61Z</time></trkpt><trkpt lat="39.7532249" lon="-0.6404816"><ele>494.0</ele><time>2026-04-04T07:47:31.611Z</time></trkpt><trkpt lat="39.7532896" lon="-0.6405737"><ele>494.49999999999994</ele><time>2026-04-04T07:47:33.61Z</time></trkpt><trkpt lat="39.7533797" lon="-0.6406581"><ele>495.0</ele><time>2026-04-04T07:47:35.611Z</time></trkpt><trkpt lat="39.7534717" lon="-0.6407512"><ele>495.5</ele><time>2026-04-04T07:47:37.61Z</time></trkpt><trkpt lat="39.7535072" lon="-0.6408237"><ele>496.0</ele><time>2026-04-04T07:47:38.611Z</time></trkpt><trkpt lat="39.7535347" lon="-0.6409036"><ele>496.49999999999994</ele><time>2026-04-04T07:47:39.612Z</time></trkpt><trkpt lat="39.7535547" lon="-0.6409817"><ele>497.0</ele><time>2026-04-04T07:47:40.611Z</time></trkpt><trkpt lat="39.7535777" lon="-0.6411228"><ele>497.0</ele><time>2026-04-04T07:47:42.611Z</time></trkpt><trkpt lat="39.7535819" lon="-0.6412725"><ele>497.00000000000006</ele><time>2026-04-04T07:47:44.611Z</time></trkpt><trkpt lat="39.7535494" lon="-0.6414076"><ele>497.00000000000006</ele><time>2026-04-04T07:47:46.612Z</time></trkpt><trkpt lat="39.7535069" lon="-0.6415478"><ele>497.0</ele><time>2026-04-04T07:47:48.612Z</time></trkpt><trkpt lat="39.7534913" lon="-0.6416594"><ele>497.0</ele><time>2026-04-04T07:47:50.612Z</time></trkpt><trkpt lat="39.7535293" lon="-0.6417517"><ele>497.6</ele><time>2026-04-04T07:47:52.611Z</time></trkpt><trkpt lat="39.7536311" lon="-0.6418597"><ele>498.20000000000005</ele><time>2026-04-04T07:47:54.611Z</time></trkpt><trkpt lat="39.7536974" lon="-0.6419113"><ele>498.8</ele><time>2026-04-04T07:47:55.612Z</time></trkpt><trkpt lat="39.7537636" lon="-0.6419667"><ele>499.4</ele><time>2026-04-04T07:47:56.611Z</time></trkpt><trkpt lat="39.7538364" lon="-0.6420201"><ele>500.0</ele><time>2026-04-04T07:47:57.61Z</time></trkpt><trkpt lat="39.7539156" lon="-0.6420825"><ele>499.99999999999994</ele><time>2026-04-04T07:47:58.612Z</time></trkpt><trkpt lat="39.7539991" lon="-0.6421379"><ele>500.0</ele><time>2026-04-04T07:47:59.612Z</time></trkpt><trkpt lat="39.7540656" lon="-0.6421867"><ele>500.0</ele><time>2026-04-04T07:48:00.611Z</time></trkpt><trkpt lat="39.7541214" lon="-0.6422339"><ele>500.0</ele><time>2026-04-04T07:48:01.612Z</time></trkpt><trkpt lat="39.754179" lon="-0.6423019"><ele>499.99999999999994</ele><time>2026-04-04T07:48:02.611Z</time></trkpt><trkpt lat="39.7542363" lon="-0.6423755"><ele>500.0</ele><time>2026-04-04T07:48:03.61Z</time></trkpt><trkpt lat="39.7542944" lon="-0.6424601"><ele>499.99999999999994</ele><time>2026-04-04T07:48:04.611Z</time></trkpt><trkpt lat="39.7543329" lon="-0.642536"><ele>500.0</ele><time>2026-04-04T07:48:05.611Z</time></trkpt><trkpt lat="39.7543725" lon="-0.6426146"><ele>500.0</ele><time>2026-04-04T07:48:06.611Z</time></trkpt><trkpt lat="39.7544077" lon="-0.6427141"><ele>500.0</ele><time>2026-04-04T07:48:07.61Z</time></trkpt><trkpt lat="39.7544328" lon="-0.6428358"><ele>499.99999999999994</ele><time>2026-04-04T07:48:08.612Z</time></trkpt><trkpt lat="39.7544586" lon="-0.6429591"><ele>500.0</ele><time>2026-04-04T07:48:09.612Z</time></trkpt><trkpt lat="39.7544804" lon="-0.6430679"><ele>502.3333333333333</ele><time>2026-04-04T07:48:10.612Z</time></trkpt><trkpt lat="39.7544941" lon="-0.6431866"><ele>504.66666666666663</ele><time>2026-04-04T07:48:11.613Z</time></trkpt><trkpt lat="39.7544995" lon="-0.6433045"><ele>507.0</ele><time>2026-04-04T07:48:12.612Z</time></trkpt><trkpt lat="39.7544957" lon="-0.643417"><ele>509.33333333333337</ele><time>2026-04-04T07:48:13.612Z</time></trkpt><trkpt lat="39.7544987" lon="-0.6435121"><ele>511.6666666666667</ele><time>2026-04-04T07:48:14.611Z</time></trkpt><trkpt lat="39.7545089" lon="-0.6435939"><ele>514.0</ele><time>2026-04-04T07:48:15.612Z</time></trkpt><trkpt lat="39.7545275" lon="-0.6437139"><ele>515.0</ele><time>2026-04-04T07:48:17.61Z</time></trkpt><trkpt lat="39.7545473" lon="-0.6438395"><ele>516.0</ele><time>2026-04-04T07:48:19.611Z</time></trkpt><trkpt lat="39.7545222" lon="-0.6439835"><ele>517.0</ele><time>2026-04-04T07:48:21.611Z</time></trkpt><trkpt lat="39.7544276" lon="-0.644088"><ele>518.0</ele><time>2026-04-04T07:48:23.611Z</time></trkpt><trkpt lat="39.7543322" lon="-0.644196"><ele>516.5</ele><time>2026-04-04T07:48:25.611Z</time></trkpt><trkpt lat="39.7542854" lon="-0.64427"><ele>515.0</ele><time>2026-04-04T07:48:26.611Z</time></trkpt><trkpt lat="39.7542302" lon="-0.6443486"><ele>513.5</ele><time>2026-04-04T07:48:27.612Z</time></trkpt><trkpt lat="39.7541781" lon="-0.6444108"><ele>512.0</ele><time>2026-04-04T07:48:28.612Z</time></trkpt><trkpt lat="39.7541379" lon="-0.6444947"><ele>510.49999999999994</ele><time>2026-04-04T07:48:29.61Z</time></trkpt><trkpt lat="39.7540972" lon="-0.6445776"><ele>509.0</ele><time>2026-04-04T07:48:30.612Z</time></trkpt><trkpt lat="39.7540511" lon="-0.6446575"><ele>509.0</ele><time>2026-04-04T07:48:31.61Z</time></trkpt><trkpt lat="39.754007" lon="-0.6447197"><ele>509.0</ele><time>2026-04-04T07:48:32.61Z</time></trkpt><trkpt lat="39.7539626" lon="-0.6448389"><ele>509.0</ele><time>2026-04-04T07:48:34.612Z</time></trkpt><trkpt lat="39.7539815" lon="-0.6449627"><ele>509.0</ele><time>2026-04-04T07:48:36.612Z</time></trkpt><trkpt lat="39.754022" lon="-0.6450976"><ele>509.0</ele><time>2026-04-04T07:48:38.611Z</time></trkpt><trkpt lat="39.754101" lon="-0.645129"><ele>509.0</ele><time>2026-04-04T07:48:40.612Z</time></trkpt><trkpt lat="39.7542075" lon="-0.6451151"><ele>509.0</ele><time>2026-04-04T07:48:42.61Z</time></trkpt><trkpt lat="39.7543303" lon="-0.645101"><ele>509.0</ele><time>2026-04-04T07:48:44.611Z</time></trkpt><trkpt lat="39.7544015" lon="-0.6451255"><ele>509.0</ele><time>2026-04-04T07:48:45.61Z</time></trkpt><trkpt lat="39.7544771" lon="-0.6451725"><ele>509.0</ele><time>2026-04-04T07:48:46.612Z</time></trkpt><trkpt lat="39.7545607" lon="-0.6452215"><ele>509.0</ele><time>2026-04-04T07:48:47.613Z</time></trkpt><trkpt lat="39.7546513" lon="-0.6452774"><ele>509.0</ele><time>2026-04-04T07:48:48.612Z</time></trkpt><trkpt lat="39.7547302" lon="-0.6453346"><ele>509.0</ele><time>2026-04-04T07:48:49.611Z</time></trkpt><trkpt lat="39.7547849" lon="-0.6453938"><ele>509.0</ele><time>2026-04-04T07:48:50.611Z</time></trkpt><trkpt lat="39.7548363" lon="-0.6454647"><ele>509.0</ele><time>2026-04-04T07:48:51.611Z</time></trkpt><trkpt lat="39.7549295" lon="-0.6455496"><ele>509.0</ele><time>2026-04-04T07:48:53.611Z</time></trkpt><trkpt lat="39.7550596" lon="-0.6455464"><ele>509.0</ele><time>2026-04-04T07:48:55.611Z</time></trkpt><trkpt lat="39.7551926" lon="-0.6455494"><ele>509.0</ele><time>2026-04-04T07:48:57.612Z</time></trkpt><trkpt lat="39.7552929" lon="-0.6456006"><ele>509.0</ele><time>2026-04-04T07:48:59.612Z</time></trkpt><trkpt lat="39.7553259" lon="-0.6456962"><ele>511.0</ele><time>2026-04-04T07:49:01.612Z</time></trkpt><trkpt lat="39.7553034" lon="-0.6458151"><ele>513.0</ele><time>2026-04-04T07:49:03.612Z</time></trkpt><trkpt lat="39.7552546" lon="-0.6459277"><ele>515.0</ele><time>2026-04-04T07:49:05.613Z</time></trkpt><trkpt lat="39.7552695" lon="-0.646041"><ele>517.0</ele><time>2026-04-04T07:49:08.61Z</time></trkpt><trkpt lat="39.7553004" lon="-0.6461675"><ele>519.0</ele><time>2026-04-04T07:49:10.611Z</time></trkpt><trkpt lat="39.7553258" lon="-0.6462757"><ele>519.6</ele><time>2026-04-04T07:49:12.612Z</time></trkpt><trkpt lat="39.7553555" lon="-0.6463955"><ele>520.2</ele><time>2026-04-04T07:49:14.611Z</time></trkpt><trkpt lat="39.7553919" lon="-0.6465453"><ele>520.8000000000001</ele><time>2026-04-04T07:49:16.611Z</time></trkpt><trkpt lat="39.7554038" lon="-0.6466757"><ele>521.4</ele><time>2026-04-04T07:49:18.612Z</time></trkpt><trkpt lat="39.7554392" lon="-0.6468086"><ele>522.0</ele><time>2026-04-04T07:49:20.612Z</time></trkpt><trkpt lat="39.7554873" lon="-0.6469047"><ele>522.0</ele><time>2026-04-04T07:49:22.611Z</time></trkpt><trkpt lat="39.7555733" lon="-0.6469836"><ele>522.0</ele><time>2026-04-04T07:49:24.61Z</time></trkpt><trkpt lat="39.7556672" lon="-0.6469714"><ele>522.0</ele><time>2026-04-04T07:49:26.612Z</time></trkpt><trkpt lat="39.7557742" lon="-0.6469005"><ele>522.0</ele><time>2026-04-04T07:49:28.611Z</time></trkpt><trkpt lat="39.7558536" lon="-0.6468837"><ele>522.0</ele><time>2026-04-04T07:49:30.61Z</time></trkpt><trkpt lat="39.7559191" lon="-0.6468843"><ele>522.0</ele><time>2026-04-04T07:49:32.61Z</time></trkpt><trkpt lat="39.755992" lon="-0.6468742"><ele>522.0</ele><time>2026-04-04T07:49:34.611Z</time></trkpt><trkpt lat="39.7560937" lon="-0.6468729"><ele>522.0</ele><time>2026-04-04T07:49:36.611Z</time></trkpt><trkpt lat="39.7562146" lon="-0.6468723"><ele>522.0</ele><time>2026-04-04T07:49:38.612Z</time></trkpt><trkpt lat="39.7563266" lon="-0.6468975"><ele>522.0</ele><time>2026-04-04T07:49:40.612Z</time></trkpt><trkpt lat="39.7564244" lon="-0.6469433"><ele>523.5</ele><time>2026-04-04T07:49:42.612Z</time></trkpt><trkpt lat="39.756511" lon="-0.6470112"><ele>525.0</ele><time>2026-04-04T07:49:44.611Z</time></trkpt><trkpt lat="39.7565952" lon="-0.6470707"><ele>526.5</ele><time>2026-04-04T07:49:46.611Z</time></trkpt><trkpt lat="39.7566748" lon="-0.6471515"><ele>528.0</ele><time>2026-04-04T07:49:48.611Z</time></trkpt><trkpt lat="39.7567242" lon="-0.6472273"><ele>529.5</ele><time>2026-04-04T07:49:50.611Z</time></trkpt><trkpt lat="39.75675" lon="-0.6473096"><ele>531.0</ele><time>2026-04-04T07:49:52.611Z</time></trkpt><trkpt lat="39.7567702" lon="-0.647391"><ele>531.0</ele><time>2026-04-04T07:49:54.612Z</time></trkpt><trkpt lat="39.7568082" lon="-0.6474746"><ele>531.0</ele><time>2026-04-04T07:49:56.61Z</time></trkpt><trkpt lat="39.7568514" lon="-0.6475562"><ele>531.0</ele><time>2026-04-04T07:49:58.613Z</time></trkpt><trkpt lat="39.7568952" lon="-0.6476746"><ele>531.0</ele><time>2026-04-04T07:50:01.612Z</time></trkpt><trkpt lat="39.7569269" lon="-0.6477775"><ele>531.0</ele><time>2026-04-04T07:50:03.611Z</time></trkpt><trkpt lat="39.7569478" lon="-0.6478611"><ele>531.0</ele><time>2026-04-04T07:50:05.61Z</time></trkpt><trkpt lat="39.7569423" lon="-0.6479885"><ele>534.8</ele><time>2026-04-04T07:50:07.612Z</time></trkpt><trkpt lat="39.7569135" lon="-0.6481418"><ele>538.6</ele><time>2026-04-04T07:50:09.611Z</time></trkpt><trkpt lat="39.756915" lon="-0.6482816"><ele>542.4</ele><time>2026-04-04T07:50:11.611Z</time></trkpt><trkpt lat="39.7569126" lon="-0.6484055"><ele>546.2</ele><time>2026-04-04T07:50:13.612Z</time></trkpt><trkpt lat="39.756903" lon="-0.6485198"><ele>550.0</ele><time>2026-04-04T07:50:15.61Z</time></trkpt><trkpt lat="39.756916" lon="-0.64863"><ele>550.0</ele><time>2026-04-04T07:50:17.612Z</time></trkpt><trkpt lat="39.7569011" lon="-0.6487231"><ele>550.0</ele><time>2026-04-04T07:50:19.61Z</time></trkpt><trkpt lat="39.7568644" lon="-0.6488367"><ele>550.0</ele><time>2026-04-04T07:50:21.611Z</time></trkpt><trkpt lat="39.7568162" lon="-0.6489645"><ele>550.0</ele><time>2026-04-04T07:50:23.612Z</time></trkpt><trkpt lat="39.7567932" lon="-0.6490747"><ele>550.0</ele><time>2026-04-04T07:50:25.611Z</time></trkpt><trkpt lat="39.7567928" lon="-0.6491739"><ele>550.0</ele><time>2026-04-04T07:50:27.611Z</time></trkpt><trkpt lat="39.7568133" lon="-0.6492801"><ele>550.0</ele><time>2026-04-04T07:50:29.611Z</time></trkpt><trkpt lat="39.7568832" lon="-0.649363"><ele>550.0</ele><time>2026-04-04T07:50:31.611Z</time></trkpt><trkpt lat="39.7569818" lon="-0.6494202"><ele>550.0</ele><time>2026-04-04T07:50:33.61Z</time></trkpt><trkpt lat="39.7571016" lon="-0.6494468"><ele>550.0</ele><time>2026-04-04T07:50:35.611Z</time></trkpt><trkpt lat="39.757198" lon="-0.6494645"><ele>550.0</ele><time>2026-04-04T07:50:37.61Z</time></trkpt><trkpt lat="39.7572947" lon="-0.6495466"><ele>548.0</ele><time>2026-04-04T07:50:39.61Z</time></trkpt><trkpt lat="39.7573877" lon="-0.6496309"><ele>546.0</ele><time>2026-04-04T07:50:41.612Z</time></trkpt><trkpt lat="39.7574495" lon="-0.6496934"><ele>544.0</ele><time>2026-04-04T07:50:42.611Z</time></trkpt><trkpt lat="39.7574973" lon="-0.6497473"><ele>542.0</ele><time>2026-04-04T07:50:43.61Z</time></trkpt><trkpt lat="39.7575593" lon="-0.6498564"><ele>540.0</ele><time>2026-04-04T07:50:45.611Z</time></trkpt><trkpt lat="39.7575686" lon="-0.649947"><ele>538.0</ele><time>2026-04-04T07:50:46.61Z</time></trkpt><trkpt lat="39.7575768" lon="-0.6500377"><ele>538.0</ele><time>2026-04-04T07:50:47.611Z</time></trkpt><trkpt lat="39.7575676" lon="-0.6501204"><ele>538.0</ele><time>2026-04-04T07:50:48.611Z</time></trkpt><trkpt lat="39.7575491" lon="-0.6502045"><ele>538.0</ele><time>2026-04-04T07:50:49.613Z</time></trkpt><trkpt lat="39.7575132" lon="-0.6502802"><ele>538.0</ele><time>2026-04-04T07:50:50.611Z</time></trkpt><trkpt lat="39.7574616" lon="-0.6504252"><ele>538.0</ele><time>2026-04-04T07:50:52.611Z</time></trkpt><trkpt lat="39.7574371" lon="-0.6505181"><ele>538.0</ele><time>2026-04-04T07:50:53.611Z</time></trkpt><trkpt lat="39.7574102" lon="-0.6506058"><ele>539.4</ele><time>2026-04-04T07:50:54.61Z</time></trkpt><trkpt lat="39.7573575" lon="-0.6507529"><ele>540.8</ele><time>2026-04-04T07:50:56.61Z</time></trkpt><trkpt lat="39.7572892" lon="-0.6508606"><ele>542.2</ele><time>2026-04-04T07:50:58.612Z</time></trkpt><trkpt lat="39.7572265" lon="-0.650988"><ele>543.6</ele><time>2026-04-04T07:51:00.61Z</time></trkpt><trkpt lat="39.7571951" lon="-0.6510661"><ele>545.0</ele><time>2026-04-04T07:51:01.61Z</time></trkpt><trkpt lat="39.7571541" lon="-0.6511382"><ele>546.8</ele><time>2026-04-04T07:51:02.61Z</time></trkpt><trkpt lat="39.7570973" lon="-0.6512625"><ele>548.6</ele><time>2026-04-04T07:51:04.613Z</time></trkpt><trkpt lat="39.7570509" lon="-0.6513768"><ele>550.4</ele><time>2026-04-04T07:51:06.611Z</time></trkpt><trkpt lat="39.7570313" lon="-0.6514766"><ele>552.2</ele><time>2026-04-04T07:51:08.612Z</time></trkpt><trkpt lat="39.757017" lon="-0.6515955"><ele>554.0</ele><time>2026-04-04T07:51:11.611Z</time></trkpt><trkpt lat="39.7569898" lon="-0.6516849"><ele>554.0</ele><time>2026-04-04T07:51:13.611Z</time></trkpt><trkpt lat="39.7569745" lon="-0.6517856"><ele>554.0</ele><time>2026-04-04T07:51:15.612Z</time></trkpt><trkpt lat="39.7569574" lon="-0.6518933"><ele>554.0</ele><time>2026-04-04T07:51:17.611Z</time></trkpt><trkpt lat="39.7569437" lon="-0.6520124"><ele>554.0</ele><time>2026-04-04T07:51:19.61Z</time></trkpt><trkpt lat="39.7569162" lon="-0.6521393"><ele>554.0</ele><time>2026-04-04T07:51:21.61Z</time></trkpt><trkpt lat="39.7568809" lon="-0.6522451"><ele>554.0</ele><time>2026-04-04T07:51:23.611Z</time></trkpt><trkpt lat="39.7568704" lon="-0.6523429"><ele>555.3333333333333</ele><time>2026-04-04T07:51:25.611Z</time></trkpt><trkpt lat="39.7568334" lon="-0.6524722"><ele>556.6666666666666</ele><time>2026-04-04T07:51:27.612Z</time></trkpt><trkpt lat="39.7568061" lon="-0.6525928"><ele>558.0</ele><time>2026-04-04T07:51:29.611Z</time></trkpt><trkpt lat="39.75682" lon="-0.6526843"><ele>559.3333333333334</ele><time>2026-04-04T07:51:31.611Z</time></trkpt><trkpt lat="39.7568199" lon="-0.6528036"><ele>560.6666666666667</ele><time>2026-04-04T07:51:34.612Z</time></trkpt><trkpt lat="39.75687" lon="-0.6528892"><ele>562.0</ele><time>2026-04-04T07:51:37.611Z</time></trkpt><trkpt lat="39.7569809" lon="-0.6529033"><ele>562.0</ele><time>2026-04-04T07:51:39.61Z</time></trkpt><trkpt lat="39.7570602" lon="-0.6529379"><ele>562.0</ele><time>2026-04-04T07:51:41.611Z</time></trkpt><trkpt lat="39.7571489" lon="-0.6530009"><ele>562.0</ele><time>2026-04-04T07:51:43.611Z</time></trkpt><trkpt lat="39.7572178" lon="-0.6530451"><ele>562.0</ele><time>2026-04-04T07:51:45.612Z</time></trkpt><trkpt lat="39.7572378" lon="-0.6531551"><ele>562.0</ele><time>2026-04-04T07:51:48.61Z</time></trkpt><trkpt lat="39.757193" lon="-0.6532343"><ele>562.0</ele><time>2026-04-04T07:51:50.611Z</time></trkpt><trkpt lat="39.7571785" lon="-0.653327"><ele>562.0</ele><time>2026-04-04T07:51:52.612Z</time></trkpt><trkpt lat="39.7571996" lon="-0.653425"><ele>562.0</ele><time>2026-04-04T07:51:54.61Z</time></trkpt><trkpt lat="39.7572446" lon="-0.6535303"><ele>562.0</ele><time>2026-04-04T07:51:56.612Z</time></trkpt><trkpt lat="39.7572962" lon="-0.6536114"><ele>562.0</ele><time>2026-04-04T07:51:58.61Z</time></trkpt><trkpt lat="39.7573097" lon="-0.6537126"><ele>562.0</ele><time>2026-04-04T07:52:00.612Z</time></trkpt><trkpt lat="39.7572959" lon="-0.6538161"><ele>562.0</ele><time>2026-04-04T07:52:02.613Z</time></trkpt><trkpt lat="39.7572707" lon="-0.6539286"><ele>562.6666666666667</ele><time>2026-04-04T07:52:04.612Z</time></trkpt><trkpt lat="39.7572671" lon="-0.6540213"><ele>563.3333333333334</ele><time>2026-04-04T07:52:06.612Z</time></trkpt><trkpt lat="39.7572852" lon="-0.6541277"><ele>564.0</ele><time>2026-04-04T07:52:09.612Z</time></trkpt><trkpt lat="39.757297" lon="-0.6542226"><ele>564.6666666666666</ele><time>2026-04-04T07:52:11.611Z</time></trkpt><trkpt lat="39.7572401" lon="-0.6543007"><ele>565.3333333333333</ele><time>2026-04-04T07:52:14.612Z</time></trkpt><trkpt lat="39.7572439" lon="-0.6544154"><ele>566.0</ele><time>2026-04-04T07:52:17.612Z</time></trkpt><trkpt lat="39.757301" lon="-0.6544546"><ele>564.4</ele><time>2026-04-04T07:52:18.612Z</time></trkpt><trkpt lat="39.7574173" lon="-0.6545131"><ele>562.8</ele><time>2026-04-04T07:52:20.612Z</time></trkpt><trkpt lat="39.7574806" lon="-0.6545524"><ele>561.1999999999999</ele><time>2026-04-04T07:52:21.611Z</time></trkpt><trkpt lat="39.7575451" lon="-0.6546203"><ele>559.6</ele><time>2026-04-04T07:52:22.613Z</time></trkpt><trkpt lat="39.7576095" lon="-0.6546939"><ele>558.0</ele><time>2026-04-04T07:52:23.612Z</time></trkpt><trkpt lat="39.7576825" lon="-0.6547771"><ele>560.0</ele><time>2026-04-04T07:52:24.611Z</time></trkpt><trkpt lat="39.7577399" lon="-0.6548511"><ele>562.0</ele><time>2026-04-04T07:52:25.612Z</time></trkpt><trkpt lat="39.7577928" lon="-0.6549125"><ele>564.0</ele><time>2026-04-04T07:52:26.611Z</time></trkpt><trkpt lat="39.7578507" lon="-0.6549862"><ele>566.0</ele><time>2026-04-04T07:52:27.613Z</time></trkpt><trkpt lat="39.7579038" lon="-0.6550543"><ele>568.0</ele><time>2026-04-04T07:52:28.613Z</time></trkpt><trkpt lat="39.757982" lon="-0.6551478"><ele>570.0</ele><time>2026-04-04T07:52:30.611Z</time></trkpt><trkpt lat="39.7580374" lon="-0.65519"><ele>570.0</ele><time>2026-04-04T07:52:31.611Z</time></trkpt><trkpt lat="39.7581004" lon="-0.6552325"><ele>570.0</ele><time>2026-04-04T07:52:32.611Z</time></trkpt><trkpt lat="39.7581668" lon="-0.6552635"><ele>570.0</ele><time>2026-04-04T07:52:33.613Z</time></trkpt><trkpt lat="39.7582422" lon="-0.6552919"><ele>570.0</ele><time>2026-04-04T07:52:34.61Z</time></trkpt><trkpt lat="39.7583528" lon="-0.6553685"><ele>570.0</ele><time>2026-04-04T07:52:36.611Z</time></trkpt><trkpt lat="39.7584216" lon="-0.6554009"><ele>570.0</ele><time>2026-04-04T07:52:37.612Z</time></trkpt><trkpt lat="39.758489" lon="-0.6554312"><ele>571.1666666666666</ele><time>2026-04-04T07:52:38.612Z</time></trkpt><trkpt lat="39.7585502" lon="-0.6554585"><ele>572.3333333333334</ele><time>2026-04-04T07:52:39.61Z</time></trkpt><trkpt lat="39.7586078" lon="-0.6554971"><ele>573.5</ele><time>2026-04-04T07:52:40.611Z</time></trkpt><trkpt lat="39.7586901" lon="-0.6555831"><ele>574.6666666666667</ele><time>2026-04-04T07:52:42.611Z</time></trkpt><trkpt lat="39.7587361" lon="-0.6556748"><ele>575.8333333333334</ele><time>2026-04-04T07:52:44.612Z</time></trkpt><trkpt lat="39.7587362" lon="-0.6557699"><ele>577.0</ele><time>2026-04-04T07:52:46.611Z</time></trkpt><trkpt lat="39.7586607" lon="-0.6558308"><ele>577.0</ele><time>2026-04-04T07:52:48.611Z</time></trkpt><trkpt lat="39.7585714" lon="-0.6558733"><ele>577.0</ele><time>2026-04-04T07:52:50.612Z</time></trkpt><trkpt lat="39.7585219" lon="-0.655961"><ele>577.0</ele><time>2026-04-04T07:52:52.613Z</time></trkpt><trkpt lat="39.758479" lon="-0.6560959"><ele>577.0</ele><time>2026-04-04T07:52:54.61Z</time></trkpt><trkpt lat="39.7584343" lon="-0.656227"><ele>577.0</ele><time>2026-04-04T07:52:56.612Z</time></trkpt><trkpt lat="39.7584157" lon="-0.6563672"><ele>575.6666666666667</ele><time>2026-04-04T07:52:58.613Z</time></trkpt><trkpt lat="39.7584102" lon="-0.6564567"><ele>574.3333333333334</ele><time>2026-04-04T07:52:59.613Z</time></trkpt><trkpt lat="39.7584283" lon="-0.6565699"><ele>573.0</ele><time>2026-04-04T07:53:00.611Z</time></trkpt><trkpt lat="39.7584288" lon="-0.6566786"><ele>571.6666666666666</ele><time>2026-04-04T07:53:01.611Z</time></trkpt><trkpt lat="39.7584239" lon="-0.6567758"><ele>570.3333333333333</ele><time>2026-04-04T07:53:02.612Z</time></trkpt><trkpt lat="39.7584097" lon="-0.6568671"><ele>569.0</ele><time>2026-04-04T07:53:03.611Z</time></trkpt><trkpt lat="39.7583852" lon="-0.6569478"><ele>569.0000000000001</ele><time>2026-04-04T07:53:04.612Z</time></trkpt><trkpt lat="39.7583478" lon="-0.6570269"><ele>569.0</ele><time>2026-04-04T07:53:05.613Z</time></trkpt><trkpt lat="39.7583114" lon="-0.6571114"><ele>569.0</ele><time>2026-04-04T07:53:06.612Z</time></trkpt><trkpt lat="39.7582757" lon="-0.6572098"><ele>569.0</ele><time>2026-04-04T07:53:07.613Z</time></trkpt><trkpt lat="39.7582564" lon="-0.6573056"><ele>569.0</ele><time>2026-04-04T07:53:08.611Z</time></trkpt><trkpt lat="39.758238" lon="-0.6573956"><ele>569.0000000000001</ele><time>2026-04-04T07:53:09.612Z</time></trkpt><trkpt lat="39.7582042" lon="-0.6574703"><ele>569.0</ele><time>2026-04-04T07:53:10.611Z</time></trkpt><trkpt lat="39.7581386" lon="-0.6576027"><ele>569.0</ele><time>2026-04-04T07:53:12.611Z</time></trkpt><trkpt lat="39.758111" lon="-0.6577028"><ele>569.0</ele><time>2026-04-04T07:53:14.611Z</time></trkpt><trkpt lat="39.7581428" lon="-0.6578134"><ele>569.0</ele><time>2026-04-04T07:53:16.611Z</time></trkpt><trkpt lat="39.7581813" lon="-0.6578878"><ele>569.0</ele><time>2026-04-04T07:53:17.611Z</time></trkpt><trkpt lat="39.7582066" lon="-0.6579755"><ele>569.0</ele><time>2026-04-04T07:53:18.611Z</time></trkpt><trkpt lat="39.7582307" lon="-0.6580602"><ele>569.0</ele><time>2026-04-04T07:53:19.611Z</time></trkpt><trkpt lat="39.7582887" lon="-0.6581957"><ele>568.2</ele><time>2026-04-04T07:53:21.612Z</time></trkpt><trkpt lat="39.7583536" lon="-0.6582825"><ele>567.4</ele><time>2026-04-04T07:53:23.611Z</time></trkpt><trkpt lat="39.7584563" lon="-0.658297"><ele>566.6</ele><time>2026-04-04T07:53:25.61Z</time></trkpt><trkpt lat="39.7585349" lon="-0.6583241"><ele>565.8</ele><time>2026-04-04T07:53:27.61Z</time></trkpt><trkpt lat="39.7585544" lon="-0.6584418"><ele>565.0</ele><time>2026-04-04T07:53:35.612Z</time></trkpt><trkpt lat="39.7585498" lon="-0.6585452"><ele>567.2</ele><time>2026-04-04T07:53:37.611Z</time></trkpt><trkpt lat="39.7585855" lon="-0.6586528"><ele>569.4</ele><time>2026-04-04T07:53:39.612Z</time></trkpt><trkpt lat="39.7585951" lon="-0.6587738"><ele>571.6</ele><time>2026-04-04T07:53:41.611Z</time></trkpt><trkpt lat="39.7586118" lon="-0.6588965"><ele>573.8</ele><time>2026-04-04T07:53:43.613Z</time></trkpt><trkpt lat="39.7586001" lon="-0.6590362"><ele>576.0</ele><time>2026-04-04T07:53:45.611Z</time></trkpt><trkpt lat="39.7585897" lon="-0.6591472"><ele>576.0</ele><time>2026-04-04T07:53:47.612Z</time></trkpt><trkpt lat="39.7586148" lon="-0.6592259"><ele>576.0</ele><time>2026-04-04T07:53:49.611Z</time></trkpt><trkpt lat="39.7586897" lon="-0.659301"><ele>576.0</ele><time>2026-04-04T07:53:52.613Z</time></trkpt><trkpt lat="39.7587295" lon="-0.659382"><ele>576.0</ele><time>2026-04-04T07:53:54.61Z</time></trkpt><trkpt lat="39.758745" lon="-0.6595226"><ele>576.0</ele><time>2026-04-04T07:53:56.611Z</time></trkpt><trkpt lat="39.7587605" lon="-0.6596648"><ele>577.2</ele><time>2026-04-04T07:53:58.611Z</time></trkpt><trkpt lat="39.7587896" lon="-0.6597931"><ele>578.4000000000001</ele><time>2026-04-04T07:54:00.613Z</time></trkpt><trkpt lat="39.7588224" lon="-0.6599231"><ele>579.6</ele><time>2026-04-04T07:54:02.611Z</time></trkpt><trkpt lat="39.7588313" lon="-0.6600371"><ele>580.8000000000001</ele><time>2026-04-04T07:54:04.611Z</time></trkpt><trkpt lat="39.7588402" lon="-0.6601742"><ele>582.0</ele><time>2026-04-04T07:54:06.61Z</time></trkpt><trkpt lat="39.7588415" lon="-0.6603271"><ele>582.7142857142857</ele><time>2026-04-04T07:54:08.611Z</time></trkpt><trkpt lat="39.7588472" lon="-0.6604135"><ele>583.4285714285713</ele><time>2026-04-04T07:54:09.612Z</time></trkpt><trkpt lat="39.758844" lon="-0.6605082"><ele>584.1428571428571</ele><time>2026-04-04T07:54:10.612Z</time></trkpt><trkpt lat="39.7588436" lon="-0.6606074"><ele>584.8571428571429</ele><time>2026-04-04T07:54:11.611Z</time></trkpt><trkpt lat="39.758818" lon="-0.6606959"><ele>585.5714285714287</ele><time>2026-04-04T07:54:12.613Z</time></trkpt><trkpt lat="39.7587721" lon="-0.6607807"><ele>586.2857142857143</ele><time>2026-04-04T07:54:13.612Z</time></trkpt><trkpt lat="39.7587194" lon="-0.6608581"><ele>587.0</ele><time>2026-04-04T07:54:14.611Z</time></trkpt><trkpt lat="39.7586643" lon="-0.6609491"><ele>587.0</ele><time>2026-04-04T07:54:15.611Z</time></trkpt><trkpt lat="39.7586164" lon="-0.661031"><ele>587.0</ele><time>2026-04-04T07:54:16.61Z</time></trkpt><trkpt lat="39.7585745" lon="-0.6611089"><ele>587.0</ele><time>2026-04-04T07:54:17.61Z</time></trkpt><trkpt lat="39.7585385" lon="-0.6611835"><ele>587.0</ele><time>2026-04-04T07:54:18.61Z</time></trkpt><trkpt lat="39.758547" lon="-0.661336"><ele>587.0</ele><time>2026-04-04T07:54:20.613Z</time></trkpt><trkpt lat="39.758577" lon="-0.6614368"><ele>587.0</ele><time>2026-04-04T07:54:21.613Z</time></trkpt><trkpt lat="39.7586212" lon="-0.6615485"><ele>587.5</ele><time>2026-04-04T07:54:22.611Z</time></trkpt><trkpt lat="39.7586652" lon="-0.6616442"><ele>588.0</ele><time>2026-04-04T07:54:23.61Z</time></trkpt><trkpt lat="39.7587098" lon="-0.6617228"><ele>588.5</ele><time>2026-04-04T07:54:24.612Z</time></trkpt><trkpt lat="39.7587486" lon="-0.6618076"><ele>589.0</ele><time>2026-04-04T07:54:25.613Z</time></trkpt><trkpt lat="39.7588051" lon="-0.6619344"><ele>589.5</ele><time>2026-04-04T07:54:27.613Z</time></trkpt><trkpt lat="39.7588537" lon="-0.661999"><ele>590.0</ele><time>2026-04-04T07:54:29.611Z</time></trkpt><trkpt lat="39.7588927" lon="-0.6621149"><ele>590.8333333333333</ele><time>2026-04-04T07:58:17.612Z</time></trkpt><trkpt lat="39.7589561" lon="-0.6621814"><ele>591.6666666666666</ele><time>2026-04-04T07:58:19.612Z</time></trkpt><trkpt lat="39.759021" lon="-0.6621919"><ele>592.5</ele><time>2026-04-04T07:58:22.612Z</time></trkpt><trkpt lat="39.7591021" lon="-0.6621142"><ele>593.3333333333334</ele><time>2026-04-04T07:58:26.612Z</time></trkpt><trkpt lat="39.7591728" lon="-0.6620897"><ele>594.1666666666667</ele><time>2026-04-04T07:58:27.612Z</time></trkpt><trkpt lat="39.7592552" lon="-0.6620574"><ele>595.0</ele><time>2026-04-04T07:58:28.611Z</time></trkpt><trkpt lat="39.7593364" lon="-0.6620195"><ele>595.2</ele><time>2026-04-04T07:58:29.61Z</time></trkpt><trkpt lat="39.7594235" lon="-0.661982"><ele>595.4</ele><time>2026-04-04T07:58:30.612Z</time></trkpt><trkpt lat="39.7595153" lon="-0.6619475"><ele>595.6</ele><time>2026-04-04T07:58:31.612Z</time></trkpt><trkpt lat="39.7596056" lon="-0.6619116"><ele>595.8</ele><time>2026-04-04T07:58:32.613Z</time></trkpt><trkpt lat="39.7596955" lon="-0.661872"><ele>596.0</ele><time>2026-04-04T07:58:33.61Z</time></trkpt><trkpt lat="39.7597842" lon="-0.6618294"><ele>596.0</ele><time>2026-04-04T07:58:34.612Z</time></trkpt><trkpt lat="39.7598736" lon="-0.6617913"><ele>596.0</ele><time>2026-04-04T07:58:35.61Z</time></trkpt><trkpt lat="39.7599643" lon="-0.6617695"><ele>596.0</ele><time>2026-04-04T07:58:36.612Z</time></trkpt><trkpt lat="39.760066" lon="-0.6617731"><ele>596.0</ele><time>2026-04-04T07:58:37.612Z</time></trkpt><trkpt lat="39.760177" lon="-0.6618154"><ele>596.0</ele><time>2026-04-04T07:58:38.613Z</time></trkpt><trkpt lat="39.7602885" lon="-0.6618852"><ele>597.75</ele><time>2026-04-04T07:58:39.611Z</time></trkpt><trkpt lat="39.7603974" lon="-0.6619762"><ele>599.5</ele><time>2026-04-04T07:58:40.611Z</time></trkpt><trkpt lat="39.7604973" lon="-0.6620613"><ele>601.25</ele><time>2026-04-04T07:58:41.611Z</time></trkpt><trkpt lat="39.7605904" lon="-0.6621373"><ele>603.0</ele><time>2026-04-04T07:58:42.611Z</time></trkpt><trkpt lat="39.7606809" lon="-0.6622126"><ele>603.0</ele><time>2026-04-04T07:58:43.611Z</time></trkpt><trkpt lat="39.7607645" lon="-0.6622709"><ele>603.0</ele><time>2026-04-04T07:58:44.612Z</time></trkpt><trkpt lat="39.7608533" lon="-0.6623081"><ele>603.0</ele><time>2026-04-04T07:58:45.611Z</time></trkpt><trkpt lat="39.7609501" lon="-0.6623187"><ele>603.0</ele><time>2026-04-04T07:58:46.613Z</time></trkpt><trkpt lat="39.7610497" lon="-0.6623111"><ele>603.0</ele><time>2026-04-04T07:58:47.612Z</time></trkpt><trkpt lat="39.7611369" lon="-0.6622763"><ele>603.6</ele><time>2026-04-04T07:58:48.611Z</time></trkpt><trkpt lat="39.7612209" lon="-0.6622128"><ele>604.1999999999999</ele><time>2026-04-04T07:58:49.612Z</time></trkpt><trkpt lat="39.7613153" lon="-0.6621564"><ele>604.8</ele><time>2026-04-04T07:58:50.612Z</time></trkpt><trkpt lat="39.7614253" lon="-0.6621203"><ele>605.4</ele><time>2026-04-04T07:58:51.612Z</time></trkpt><trkpt lat="39.761535" lon="-0.6621113"><ele>606.0</ele><time>2026-04-04T07:58:52.612Z</time></trkpt><trkpt lat="39.7616351" lon="-0.6621292"><ele>606.0</ele><time>2026-04-04T07:58:53.612Z</time></trkpt><trkpt lat="39.761737" lon="-0.662186"><ele>606.0</ele><time>2026-04-04T07:58:54.612Z</time></trkpt><trkpt lat="39.761832" lon="-0.6622636"><ele>606.0</ele><time>2026-04-04T07:58:55.611Z</time></trkpt><trkpt lat="39.7619005" lon="-0.6623394"><ele>606.0</ele><time>2026-04-04T07:58:56.611Z</time></trkpt><trkpt lat="39.761949" lon="-0.6624294"><ele>606.0</ele><time>2026-04-04T07:58:57.611Z</time></trkpt><trkpt lat="39.7619773" lon="-0.6625432"><ele>606.0</ele><time>2026-04-04T07:58:58.611Z</time></trkpt><trkpt lat="39.7619876" lon="-0.6626858"><ele>606.0</ele><time>2026-04-04T07:58:59.612Z</time></trkpt><trkpt lat="39.7619924" lon="-0.6628392"><ele>606.0</ele><time>2026-04-04T07:59:00.612Z</time></trkpt><trkpt lat="39.7619964" lon="-0.6630009"><ele>606.0</ele><time>2026-04-04T07:59:01.611Z</time></trkpt><trkpt lat="39.7619877" lon="-0.6631718"><ele>606.0</ele><time>2026-04-04T07:59:02.612Z</time></trkpt><trkpt lat="39.7619573" lon="-0.6633108"><ele>606.0</ele><time>2026-04-04T07:59:03.612Z</time></trkpt><trkpt lat="39.761945" lon="-0.6634285"><ele>606.0</ele><time>2026-04-04T07:59:04.612Z</time></trkpt><trkpt lat="39.7619518" lon="-0.6635227"><ele>606.0</ele><time>2026-04-04T07:59:05.611Z</time></trkpt><trkpt lat="39.7619885" lon="-0.6635932"><ele>606.0</ele><time>2026-04-04T07:59:06.611Z</time></trkpt><trkpt lat="39.7620542" lon="-0.6636473"><ele>606.0</ele><time>2026-04-04T07:59:07.61Z</time></trkpt><trkpt lat="39.7621497" lon="-0.663675"><ele>607.0</ele><time>2026-04-04T07:59:08.611Z</time></trkpt><trkpt lat="39.7622703" lon="-0.6636862"><ele>608.0</ele><time>2026-04-04T07:59:09.611Z</time></trkpt><trkpt lat="39.7624101" lon="-0.6636967"><ele>609.0</ele><time>2026-04-04T07:59:10.613Z</time></trkpt><trkpt lat="39.762571" lon="-0.6637263"><ele>610.0</ele><time>2026-04-04T07:59:11.612Z</time></trkpt><trkpt lat="39.7627308" lon="-0.6637766"><ele>610.0</ele><time>2026-04-04T07:59:12.612Z</time></trkpt><trkpt lat="39.7628969" lon="-0.6638613"><ele>610.0</ele><time>2026-04-04T07:59:13.613Z</time></trkpt><trkpt lat="39.7630521" lon="-0.6639713"><ele>610.0</ele><time>2026-04-04T07:59:14.612Z</time></trkpt><trkpt lat="39.7632008" lon="-0.6640562"><ele>610.0</ele><time>2026-04-04T07:59:15.612Z</time></trkpt><trkpt lat="39.7633526" lon="-0.6641126"><ele>610.0</ele><time>2026-04-04T07:59:16.612Z</time></trkpt><trkpt lat="39.7634828" lon="-0.6640983"><ele>610.0</ele><time>2026-04-04T07:59:17.612Z</time></trkpt><trkpt lat="39.7636143" lon="-0.66407"><ele>610.0</ele><time>2026-04-04T07:59:18.612Z</time></trkpt><trkpt lat="39.763738" lon="-0.6640021"><ele>611.25</ele><time>2026-04-04T07:59:19.611Z</time></trkpt><trkpt lat="39.763855" lon="-0.6639225"><ele>612.5</ele><time>2026-04-04T07:59:20.611Z</time></trkpt><trkpt lat="39.7639607" lon="-0.6638676"><ele>613.75</ele><time>2026-04-04T07:59:21.612Z</time></trkpt><trkpt lat="39.7640677" lon="-0.6638423"><ele>615.0</ele><time>2026-04-04T07:59:22.611Z</time></trkpt><trkpt lat="39.7641695" lon="-0.6638524"><ele>615.0</ele><time>2026-04-04T07:59:23.611Z</time></trkpt><trkpt lat="39.764262" lon="-0.6639153"><ele>615.0</ele><time>2026-04-04T07:59:24.612Z</time></trkpt><trkpt lat="39.7643498" lon="-0.6640087"><ele>615.0</ele><time>2026-04-04T07:59:25.612Z</time></trkpt><trkpt lat="39.7644293" lon="-0.6641213"><ele>615.0</ele><time>2026-04-04T07:59:26.61Z</time></trkpt><trkpt lat="39.7645089" lon="-0.664263"><ele>614.6666666666666</ele><time>2026-04-04T07:59:27.612Z</time></trkpt><trkpt lat="39.7645955" lon="-0.6644216"><ele>614.3333333333333</ele><time>2026-04-04T07:59:28.613Z</time></trkpt><trkpt lat="39.7646845" lon="-0.6645862"><ele>614.0</ele><time>2026-04-04T07:59:29.612Z</time></trkpt><trkpt lat="39.7647828" lon="-0.6647454"><ele>617.3333333333333</ele><time>2026-04-04T07:59:30.611Z</time></trkpt><trkpt lat="39.7648998" lon="-0.6648899"><ele>620.6666666666666</ele><time>2026-04-04T07:59:31.61Z</time></trkpt><trkpt lat="39.7650241" lon="-0.6650208"><ele>624.0</ele><time>2026-04-04T07:59:32.612Z</time></trkpt><trkpt lat="39.7651472" lon="-0.6651217"><ele>621.6666666666666</ele><time>2026-04-04T07:59:33.61Z</time></trkpt><trkpt lat="39.7652847" lon="-0.6651921"><ele>619.3333333333333</ele><time>2026-04-04T07:59:34.612Z</time></trkpt><trkpt lat="39.7654317" lon="-0.6652722"><ele>617.0</ele><time>2026-04-04T07:59:35.613Z</time></trkpt><trkpt lat="39.765583" lon="-0.6653554"><ele>622.0</ele><time>2026-04-04T07:59:36.611Z</time></trkpt><trkpt lat="39.7657381" lon="-0.6654418"><ele>627.0</ele><time>2026-04-04T07:59:37.611Z</time></trkpt><trkpt lat="39.7659045" lon="-0.6655116"><ele>632.0</ele><time>2026-04-04T07:59:38.611Z</time></trkpt><trkpt lat="39.7660829" lon="-0.6655669"><ele>633.0</ele><time>2026-04-04T07:59:39.612Z</time></trkpt><trkpt lat="39.7662696" lon="-0.6656055"><ele>634.0</ele><time>2026-04-04T07:59:40.612Z</time></trkpt><trkpt lat="39.7664632" lon="-0.6656222"><ele>635.0</ele><time>2026-04-04T07:59:41.612Z</time></trkpt><trkpt lat="39.7666597" lon="-0.6656324"><ele>635.0</ele><time>2026-04-04T07:59:42.611Z</time></trkpt><trkpt lat="39.7668469" lon="-0.6656411"><ele>635.0</ele><time>2026-04-04T07:59:43.611Z</time></trkpt><trkpt lat="39.7670287" lon="-0.6656697"><ele>635.0</ele><time>2026-04-04T07:59:44.613Z</time></trkpt><trkpt lat="39.767195" lon="-0.6657089"><ele>634.6666666666666</ele><time>2026-04-04T07:59:45.612Z</time></trkpt><trkpt lat="39.7673684" lon="-0.6657431"><ele>634.3333333333334</ele><time>2026-04-04T07:59:46.612Z</time></trkpt><trkpt lat="39.7675237" lon="-0.6657574"><ele>634.0</ele><time>2026-04-04T07:59:47.61Z</time></trkpt><trkpt lat="39.7676653" lon="-0.6657533"><ele>636.0</ele><time>2026-04-04T07:59:48.612Z</time></trkpt><trkpt lat="39.7677974" lon="-0.6657274"><ele>638.0</ele><time>2026-04-04T07:59:49.61Z</time></trkpt><trkpt lat="39.7679255" lon="-0.6656594"><ele>640.0</ele><time>2026-04-04T07:59:50.611Z</time></trkpt><trkpt lat="39.7680361" lon="-0.6655579"><ele>642.0</ele><time>2026-04-04T07:59:51.612Z</time></trkpt><trkpt lat="39.7681555" lon="-0.6654398"><ele>642.0</ele><time>2026-04-04T07:59:52.61Z</time></trkpt><trkpt lat="39.7682761" lon="-0.6653399"><ele>642.0</ele><time>2026-04-04T07:59:53.61Z</time></trkpt><trkpt lat="39.7684139" lon="-0.6652633"><ele>642.0</ele><time>2026-04-04T07:59:54.611Z</time></trkpt><trkpt lat="39.7685691" lon="-0.6652095"><ele>640.0</ele><time>2026-04-04T07:59:55.612Z</time></trkpt><trkpt lat="39.768738" lon="-0.6651671"><ele>638.0</ele><time>2026-04-04T07:59:56.611Z</time></trkpt><trkpt lat="39.7689065" lon="-0.6651231"><ele>636.0</ele><time>2026-04-04T07:59:57.611Z</time></trkpt><trkpt lat="39.7690865" lon="-0.6650657"><ele>636.0</ele><time>2026-04-04T07:59:58.612Z</time></trkpt><trkpt lat="39.7692761" lon="-0.6650248"><ele>636.0</ele><time>2026-04-04T07:59:59.612Z</time></trkpt><trkpt lat="39.7694742" lon="-0.6649993"><ele>636.0</ele><time>2026-04-04T08:00:00.612Z</time></trkpt><trkpt lat="39.7696829" lon="-0.664982"><ele>639.0</ele><time>2026-04-04T08:00:01.613Z</time></trkpt><trkpt lat="39.7698834" lon="-0.664978"><ele>642.0</ele><time>2026-04-04T08:00:02.613Z</time></trkpt><trkpt lat="39.77007" lon="-0.6649692"><ele>645.0</ele><time>2026-04-04T08:00:03.612Z</time></trkpt><trkpt lat="39.770236" lon="-0.6649502"><ele>648.3333333333334</ele><time>2026-04-04T08:00:04.612Z</time></trkpt><trkpt lat="39.770397" lon="-0.6649026"><ele>651.6666666666667</ele><time>2026-04-04T08:00:05.612Z</time></trkpt><trkpt lat="39.7705591" lon="-0.6648389"><ele>655.0</ele><time>2026-04-04T08:00:06.613Z</time></trkpt><trkpt lat="39.7707077" lon="-0.6647802"><ele>655.0</ele><time>2026-04-04T08:00:07.612Z</time></trkpt><trkpt lat="39.7708354" lon="-0.6647447"><ele>655.0</ele><time>2026-04-04T08:00:08.612Z</time></trkpt><trkpt lat="39.7709638" lon="-0.664738"><ele>655.0</ele><time>2026-04-04T08:00:09.613Z</time></trkpt><trkpt lat="39.7710924" lon="-0.6647379"><ele>655.0</ele><time>2026-04-04T08:00:10.612Z</time></trkpt><trkpt lat="39.7712179" lon="-0.6647407"><ele>655.4</ele><time>2026-04-04T08:00:11.612Z</time></trkpt><trkpt lat="39.7713378" lon="-0.6647298"><ele>655.8</ele><time>2026-04-04T08:00:12.612Z</time></trkpt><trkpt lat="39.7714556" lon="-0.6647096"><ele>656.2</ele><time>2026-04-04T08:00:13.611Z</time></trkpt><trkpt lat="39.7715629" lon="-0.6646939"><ele>656.6</ele><time>2026-04-04T08:00:14.613Z</time></trkpt><trkpt lat="39.7716562" lon="-0.6646833"><ele>657.0</ele><time>2026-04-04T08:00:15.613Z</time></trkpt><trkpt lat="39.7717351" lon="-0.6646721"><ele>657.0</ele><time>2026-04-04T08:00:16.61Z</time></trkpt><trkpt lat="39.7718026" lon="-0.6646593"><ele>657.0</ele><time>2026-04-04T08:00:17.613Z</time></trkpt><trkpt lat="39.7719023" lon="-0.6646675"><ele>657.0</ele><time>2026-04-04T08:00:19.611Z</time></trkpt><trkpt lat="39.7719142" lon="-0.6647503"><ele>657.0</ele><time>2026-04-04T08:00:33.612Z</time></trkpt><trkpt lat="39.7718948" lon="-0.6648291"><ele>657.0</ele><time>2026-04-04T08:00:35.611Z</time></trkpt><trkpt lat="39.771829" lon="-0.6649852"><ele>657.0</ele><time>2026-04-04T08:00:37.612Z</time></trkpt><trkpt lat="39.7717909" lon="-0.6650761"><ele>657.0</ele><time>2026-04-04T08:00:38.612Z</time></trkpt><trkpt lat="39.7717655" lon="-0.6651729"><ele>657.0</ele><time>2026-04-04T08:00:39.612Z</time></trkpt><trkpt lat="39.7717517" lon="-0.6652692"><ele>657.0</ele><time>2026-04-04T08:00:40.612Z</time></trkpt><trkpt lat="39.7717429" lon="-0.6653592"><ele>657.0</ele><time>2026-04-04T08:00:41.611Z</time></trkpt><trkpt lat="39.7717291" lon="-0.6654413"><ele>657.0</ele><time>2026-04-04T08:00:42.611Z</time></trkpt><trkpt lat="39.7716678" lon="-0.6656001"><ele>657.0</ele><time>2026-04-04T08:00:44.611Z</time></trkpt><trkpt lat="39.7716047" lon="-0.6656964"><ele>656.0</ele><time>2026-04-04T08:00:45.612Z</time></trkpt><trkpt lat="39.7715488" lon="-0.6657811"><ele>655.0</ele><time>2026-04-04T08:00:46.612Z</time></trkpt><trkpt lat="39.7714886" lon="-0.6658533"><ele>654.0</ele><time>2026-04-04T08:00:47.61Z</time></trkpt><trkpt lat="39.771436" lon="-0.6659119"><ele>653.0</ele><time>2026-04-04T08:00:48.612Z</time></trkpt><trkpt lat="39.7713535" lon="-0.6660012"><ele>652.0</ele><time>2026-04-04T08:00:50.612Z</time></trkpt><trkpt lat="39.7712754" lon="-0.6661163"><ele>651.2</ele><time>2026-04-04T08:00:52.613Z</time></trkpt><trkpt lat="39.7712016" lon="-0.6662243"><ele>650.4000000000001</ele><time>2026-04-04T08:00:54.613Z</time></trkpt><trkpt lat="39.7711379" lon="-0.6663371"><ele>649.5999999999999</ele><time>2026-04-04T08:00:56.611Z</time></trkpt><trkpt lat="39.7711169" lon="-0.6664155"><ele>648.8</ele><time>2026-04-04T08:00:58.61Z</time></trkpt><trkpt lat="39.771173" lon="-0.666475"><ele>648.0</ele><time>2026-04-04T08:01:01.611Z</time></trkpt><trkpt lat="39.771272" lon="-0.6664167"><ele>648.0</ele><time>2026-04-04T08:01:03.61Z</time></trkpt><trkpt lat="39.771373" lon="-0.6663588"><ele>648.0</ele><time>2026-04-04T08:01:05.612Z</time></trkpt><trkpt lat="39.7714625" lon="-0.6663457"><ele>648.0</ele><time>2026-04-04T08:01:07.611Z</time></trkpt><trkpt lat="39.7714997" lon="-0.6664618"><ele>648.0</ele><time>2026-04-04T08:01:09.611Z</time></trkpt><trkpt lat="39.7715073" lon="-0.666547"><ele>648.0</ele><time>2026-04-04T08:01:10.612Z</time></trkpt><trkpt lat="39.7715009" lon="-0.6666433"><ele>648.0</ele><time>2026-04-04T08:01:11.613Z</time></trkpt><trkpt lat="39.7714947" lon="-0.6667345"><ele>648.0</ele><time>2026-04-04T08:01:12.613Z</time></trkpt><trkpt lat="39.7714846" lon="-0.6668865"><ele>648.0</ele><time>2026-04-04T08:01:14.613Z</time></trkpt><trkpt lat="39.7714887" lon="-0.6669867"><ele>648.0</ele><time>2026-04-04T08:01:16.612Z</time></trkpt><trkpt lat="39.7715745" lon="-0.6669807"><ele>648.0</ele><time>2026-04-04T08:01:31.611Z</time></trkpt><trkpt lat="39.7716436" lon="-0.6669025"><ele>648.0</ele><time>2026-04-04T08:01:33.611Z</time></trkpt><trkpt lat="39.7716791" lon="-0.6668324"><ele>648.0</ele><time>2026-04-04T08:01:34.612Z</time></trkpt><trkpt lat="39.7717077" lon="-0.6667462"><ele>648.0</ele><time>2026-04-04T08:01:35.611Z</time></trkpt><trkpt lat="39.771761" lon="-0.6665998"><ele>648.0</ele><time>2026-04-04T08:01:37.612Z</time></trkpt><trkpt lat="39.7717964" lon="-0.6665137"><ele>648.0</ele><time>2026-04-04T08:01:38.611Z</time></trkpt><trkpt lat="39.7718275" lon="-0.6664146"><ele>648.0</ele><time>2026-04-04T08:01:39.61Z</time></trkpt><trkpt lat="39.7718502" lon="-0.6663317"><ele>648.0</ele><time>2026-04-04T08:01:40.611Z</time></trkpt><trkpt lat="39.7718971" lon="-0.666214"><ele>649.8</ele><time>2026-04-04T08:01:42.612Z</time></trkpt><trkpt lat="39.7719794" lon="-0.6661878"><ele>651.5999999999999</ele><time>2026-04-04T08:01:44.612Z</time></trkpt><trkpt lat="39.7720638" lon="-0.6661875"><ele>653.4000000000001</ele><time>2026-04-04T08:01:46.613Z</time></trkpt><trkpt lat="39.7721401" lon="-0.666106"><ele>655.2</ele><time>2026-04-04T08:01:48.612Z</time></trkpt><trkpt lat="39.7721956" lon="-0.6659784"><ele>657.0</ele><time>2026-04-04T08:01:50.612Z</time></trkpt><trkpt lat="39.772249" lon="-0.6658541"><ele>657.0</ele><time>2026-04-04T08:01:52.613Z</time></trkpt><trkpt lat="39.7722858" lon="-0.6657515"><ele>657.0</ele><time>2026-04-04T08:01:54.611Z</time></trkpt><trkpt lat="39.7723285" lon="-0.6656832"><ele>657.0</ele><time>2026-04-04T08:01:56.611Z</time></trkpt><trkpt lat="39.7723902" lon="-0.6656647"><ele>657.0</ele><time>2026-04-04T08:01:58.612Z</time></trkpt><trkpt lat="39.7724797" lon="-0.6656485"><ele>657.0</ele><time>2026-04-04T08:02:00.612Z</time></trkpt><trkpt lat="39.7725497" lon="-0.6656172"><ele>657.0</ele><time>2026-04-04T08:02:02.613Z</time></trkpt><trkpt lat="39.7726059" lon="-0.6655636"><ele>657.0</ele><time>2026-04-04T08:02:04.612Z</time></trkpt><trkpt lat="39.7726777" lon="-0.6655486"><ele>657.0</ele><time>2026-04-04T08:02:06.612Z</time></trkpt><trkpt lat="39.7727499" lon="-0.6655936"><ele>657.0</ele><time>2026-04-04T08:02:08.611Z</time></trkpt><trkpt lat="39.772864" lon="-0.6655869"><ele>657.0</ele><time>2026-04-04T08:02:11.61Z</time></trkpt><trkpt lat="39.7729549" lon="-0.6655891"><ele>657.0</ele><time>2026-04-04T08:02:14.61Z</time></trkpt><trkpt lat="39.7730222" lon="-0.6656119"><ele>657.0</ele><time>2026-04-04T08:02:16.61Z</time></trkpt><trkpt lat="39.7730895" lon="-0.6656075"><ele>659.3333333333334</ele><time>2026-04-04T08:02:18.613Z</time></trkpt><trkpt lat="39.7731576" lon="-0.6655746"><ele>661.6666666666666</ele><time>2026-04-04T08:02:20.613Z</time></trkpt><trkpt lat="39.7732399" lon="-0.6655697"><ele>664.0</ele><time>2026-04-04T08:02:22.611Z</time></trkpt><trkpt lat="39.773309" lon="-0.6655726"><ele>666.3333333333333</ele><time>2026-04-04T08:02:24.612Z</time></trkpt><trkpt lat="39.773382" lon="-0.6656153"><ele>668.6666666666666</ele><time>2026-04-04T08:02:26.612Z</time></trkpt><trkpt lat="39.7734666" lon="-0.6656035"><ele>671.0</ele><time>2026-04-04T08:02:28.61Z</time></trkpt><trkpt lat="39.7735549" lon="-0.6656287"><ele>673.0</ele><time>2026-04-04T08:02:30.613Z</time></trkpt><trkpt lat="39.7736376" lon="-0.6656482"><ele>675.0</ele><time>2026-04-04T08:02:32.612Z</time></trkpt><trkpt lat="39.7737032" lon="-0.6656863"><ele>677.0</ele><time>2026-04-04T08:02:34.613Z</time></trkpt><trkpt lat="39.7737658" lon="-0.665714"><ele>679.0</ele><time>2026-04-04T08:02:36.613Z</time></trkpt><trkpt lat="39.7738299" lon="-0.6656931"><ele>681.0</ele><time>2026-04-04T08:02:38.612Z</time></trkpt><trkpt lat="39.773904" lon="-0.6656783"><ele>683.0</ele><time>2026-04-04T08:02:40.611Z</time></trkpt><trkpt lat="39.7739868" lon="-0.6656546"><ele>685.0</ele><time>2026-04-04T08:02:42.612Z</time></trkpt><trkpt lat="39.7740658" lon="-0.6656823"><ele>685.0</ele><time>2026-04-04T08:02:44.612Z</time></trkpt><trkpt lat="39.7741279" lon="-0.6657656"><ele>685.0</ele><time>2026-04-04T08:02:47.611Z</time></trkpt><trkpt lat="39.7741694" lon="-0.6658667"><ele>685.0</ele><time>2026-04-04T08:02:49.611Z</time></trkpt><trkpt lat="39.7742654" lon="-0.6658941"><ele>685.0</ele><time>2026-04-04T08:02:52.61Z</time></trkpt><trkpt lat="39.7743548" lon="-0.6658491"><ele>685.0</ele><time>2026-04-04T08:02:54.612Z</time></trkpt><trkpt lat="39.7744777" lon="-0.6658033"><ele>686.6666666666667</ele><time>2026-04-04T08:02:56.611Z</time></trkpt><trkpt lat="39.7745427" lon="-0.6657794"><ele>688.3333333333334</ele><time>2026-04-04T08:02:57.61Z</time></trkpt><trkpt lat="39.7746404" lon="-0.6657286"><ele>690.0</ele><time>2026-04-04T08:02:59.613Z</time></trkpt><trkpt lat="39.7747285" lon="-0.6656881"><ele>691.6666666666666</ele><time>2026-04-04T08:03:01.612Z</time></trkpt><trkpt lat="39.7748009" lon="-0.6656346"><ele>693.3333333333333</ele><time>2026-04-04T08:03:03.611Z</time></trkpt><trkpt lat="39.7748666" lon="-0.6655433"><ele>695.0</ele><time>2026-04-04T08:03:05.612Z</time></trkpt><trkpt lat="39.774877" lon="-0.6654292"><ele>695.0</ele><time>2026-04-04T08:03:08.612Z</time></trkpt><trkpt lat="39.7749314" lon="-0.6653831"><ele>695.0</ele><time>2026-04-04T08:03:10.612Z</time></trkpt><trkpt lat="39.7749742" lon="-0.6653031"><ele>695.0</ele><time>2026-04-04T08:03:12.612Z</time></trkpt><trkpt lat="39.7750179" lon="-0.6651987"><ele>695.0</ele><time>2026-04-04T08:03:14.612Z</time></trkpt><trkpt lat="39.7750453" lon="-0.6650861"><ele>695.0</ele><time>2026-04-04T08:03:16.611Z</time></trkpt><trkpt lat="39.7750869" lon="-0.6650024"><ele>695.0</ele><time>2026-04-04T08:03:18.612Z</time></trkpt><trkpt lat="39.7751308" lon="-0.6649295"><ele>694.8333333333333</ele><time>2026-04-04T08:03:20.612Z</time></trkpt><trkpt lat="39.7751782" lon="-0.6648541"><ele>694.6666666666666</ele><time>2026-04-04T08:03:22.612Z</time></trkpt><trkpt lat="39.7752534" lon="-0.6647816"><ele>694.5</ele><time>2026-04-04T08:03:24.61Z</time></trkpt><trkpt lat="39.7753481" lon="-0.6646839"><ele>694.3333333333334</ele><time>2026-04-04T08:03:26.612Z</time></trkpt><trkpt lat="39.7754107" lon="-0.664624"><ele>694.1666666666667</ele><time>2026-04-04T08:03:27.612Z</time></trkpt><trkpt lat="39.7754585" lon="-0.664569"><ele>694.0</ele><time>2026-04-04T08:03:28.613Z</time></trkpt><trkpt lat="39.7755315" lon="-0.6644502"><ele>697.0</ele><time>2026-04-04T08:03:30.611Z</time></trkpt><trkpt lat="39.775562" lon="-0.6643742"><ele>700.0</ele><time>2026-04-04T08:03:31.611Z</time></trkpt><trkpt lat="39.7755985" lon="-0.6642908"><ele>703.0</ele><time>2026-04-04T08:03:32.612Z</time></trkpt><trkpt lat="39.7756366" lon="-0.6641949"><ele>706.0</ele><time>2026-04-04T08:03:33.61Z</time></trkpt><trkpt lat="39.7756679" lon="-0.6641117"><ele>709.0</ele><time>2026-04-04T08:03:34.611Z</time></trkpt><trkpt lat="39.775703" lon="-0.6640334"><ele>712.0</ele><time>2026-04-04T08:03:35.612Z</time></trkpt><trkpt lat="39.7757765" lon="-0.6639311"><ele>712.0</ele><time>2026-04-04T08:03:37.613Z</time></trkpt><trkpt lat="39.7758552" lon="-0.6638217"><ele>712.0</ele><time>2026-04-04T08:03:39.612Z</time></trkpt><trkpt lat="39.775901" lon="-0.6637646"><ele>712.0</ele><time>2026-04-04T08:03:40.612Z</time></trkpt><trkpt lat="39.7759552" lon="-0.6637074"><ele>712.0</ele><time>2026-04-04T08:03:41.611Z</time></trkpt><trkpt lat="39.7760064" lon="-0.6636525"><ele>712.0</ele><time>2026-04-04T08:03:42.612Z</time></trkpt><trkpt lat="39.7760511" lon="-0.6635926"><ele>712.0</ele><time>2026-04-04T08:03:43.612Z</time></trkpt><trkpt lat="39.776128" lon="-0.6634842"><ele>714.4285714285713</ele><time>2026-04-04T08:03:45.611Z</time></trkpt><trkpt lat="39.7761432" lon="-0.6633786"><ele>716.8571428571429</ele><time>2026-04-04T08:03:47.611Z</time></trkpt><trkpt lat="39.7761372" lon="-0.6632948"><ele>719.2857142857142</ele><time>2026-04-04T08:03:49.611Z</time></trkpt><trkpt lat="39.7761833" lon="-0.6632051"><ele>721.7142857142857</ele><time>2026-04-04T08:03:53.613Z</time></trkpt><trkpt lat="39.7762535" lon="-0.6631746"><ele>724.1428571428571</ele><time>2026-04-04T08:03:56.612Z</time></trkpt><trkpt lat="39.7763199" lon="-0.6631424"><ele>726.5714285714286</ele><time>2026-04-04T08:03:59.613Z</time></trkpt><trkpt lat="39.7763898" lon="-0.6631098"><ele>729.0</ele><time>2026-04-04T08:04:02.613Z</time></trkpt><trkpt lat="39.7764767" lon="-0.663143"><ele>729.0</ele><time>2026-04-04T08:04:05.612Z</time></trkpt><trkpt lat="39.7765394" lon="-0.6631304"><ele>729.0</ele><time>2026-04-04T08:04:07.612Z</time></trkpt><trkpt lat="39.7766052" lon="-0.6631125"><ele>729.0</ele><time>2026-04-04T08:04:09.612Z</time></trkpt><trkpt lat="39.7766736" lon="-0.6631222"><ele>729.0</ele><time>2026-04-04T08:04:11.612Z</time></trkpt><trkpt lat="39.7767643" lon="-0.6631043"><ele>729.0</ele><time>2026-04-04T08:04:14.61Z</time></trkpt><trkpt lat="39.7768106" lon="-0.663026"><ele>729.0</ele><time>2026-04-04T08:04:32.61Z</time></trkpt><trkpt lat="39.7768558" lon="-0.662962"><ele>729.0</ele><time>2026-04-04T08:04:35.611Z</time></trkpt><trkpt lat="39.7768882" lon="-0.662863"><ele>731.0</ele><time>2026-04-04T08:04:37.612Z</time></trkpt><trkpt lat="39.7769459" lon="-0.6627395"><ele>733.0</ele><time>2026-04-04T08:04:39.611Z</time></trkpt><trkpt lat="39.7769936" lon="-0.6626369"><ele>735.0</ele><time>2026-04-04T08:04:41.611Z</time></trkpt><trkpt lat="39.7770042" lon="-0.6625131"><ele>737.0</ele><time>2026-04-04T08:04:43.61Z</time></trkpt><trkpt lat="39.7770091" lon="-0.6623781"><ele>739.0</ele><time>2026-04-04T08:04:45.613Z</time></trkpt><trkpt lat="39.7770379" lon="-0.6622771"><ele>739.0</ele><time>2026-04-04T08:04:47.612Z</time></trkpt><trkpt lat="39.777108" lon="-0.6622364"><ele>739.0</ele><time>2026-04-04T08:04:49.611Z</time></trkpt><trkpt lat="39.7772299" lon="-0.6622355"><ele>739.0</ele><time>2026-04-04T08:04:51.612Z</time></trkpt><trkpt lat="39.777296" lon="-0.6622481"><ele>739.0</ele><time>2026-04-04T08:04:52.611Z</time></trkpt><trkpt lat="39.7773607" lon="-0.6622532"><ele>739.0</ele><time>2026-04-04T08:04:53.61Z</time></trkpt><trkpt lat="39.7774568" lon="-0.6622191"><ele>739.0</ele><time>2026-04-04T08:04:55.613Z</time></trkpt><trkpt lat="39.7775322" lon="-0.6622011"><ele>739.0</ele><time>2026-04-04T08:04:58.612Z</time></trkpt><trkpt lat="39.7775702" lon="-0.6623233"><ele>739.0</ele><time>2026-04-04T08:05:28.611Z</time></trkpt><trkpt lat="39.7776026" lon="-0.6624736"><ele>739.0</ele><time>2026-04-04T08:05:30.613Z</time></trkpt><trkpt lat="39.7776053" lon="-0.662563"><ele>739.0</ele><time>2026-04-04T08:05:31.611Z</time></trkpt><trkpt lat="39.7775999" lon="-0.6626548"><ele>739.0</ele><time>2026-04-04T08:05:32.612Z</time></trkpt><trkpt lat="39.7775904" lon="-0.6627515"><ele>739.0</ele><time>2026-04-04T08:05:33.611Z</time></trkpt><trkpt lat="39.777577" lon="-0.6628511"><ele>740.0</ele><time>2026-04-04T08:05:34.612Z</time></trkpt><trkpt lat="39.77756" lon="-0.662952"><ele>741.0</ele><time>2026-04-04T08:05:35.611Z</time></trkpt><trkpt lat="39.7775341" lon="-0.6630576"><ele>742.0</ele><time>2026-04-04T08:05:36.613Z</time></trkpt><trkpt lat="39.7775017" lon="-0.6631605"><ele>743.0</ele><time>2026-04-04T08:05:37.612Z</time></trkpt><trkpt lat="39.7774651" lon="-0.6632626"><ele>744.0</ele><time>2026-04-04T08:05:38.612Z</time></trkpt><trkpt lat="39.7774237" lon="-0.6633671"><ele>745.0</ele><time>2026-04-04T08:05:39.611Z</time></trkpt><trkpt lat="39.7773813" lon="-0.6634686"><ele>745.0</ele><time>2026-04-04T08:05:40.611Z</time></trkpt><trkpt lat="39.7773349" lon="-0.6635668"><ele>745.0</ele><time>2026-04-04T08:05:41.612Z</time></trkpt><trkpt lat="39.7772868" lon="-0.6636618"><ele>745.0</ele><time>2026-04-04T08:05:42.611Z</time></trkpt><trkpt lat="39.7772379" lon="-0.6637536"><ele>745.0</ele><time>2026-04-04T08:05:43.611Z</time></trkpt><trkpt lat="39.7771891" lon="-0.6638479"><ele>745.0</ele><time>2026-04-04T08:05:44.611Z</time></trkpt><trkpt lat="39.7771452" lon="-0.6639452"><ele>745.0</ele><time>2026-04-04T08:05:45.612Z</time></trkpt><trkpt lat="39.7770983" lon="-0.6640515"><ele>749.0</ele><time>2026-04-04T08:05:46.611Z</time></trkpt><trkpt lat="39.7770439" lon="-0.664166"><ele>753.0</ele><time>2026-04-04T08:05:47.612Z</time></trkpt><trkpt lat="39.7769885" lon="-0.6642946"><ele>757.0</ele><time>2026-04-04T08:05:48.613Z</time></trkpt><trkpt lat="39.7769408" lon="-0.6644377"><ele>761.0</ele><time>2026-04-04T08:05:49.613Z</time></trkpt><trkpt lat="39.776904" lon="-0.6645957"><ele>765.0</ele><time>2026-04-04T08:05:50.613Z</time></trkpt><trkpt lat="39.7768697" lon="-0.6647632"><ele>769.0</ele><time>2026-04-04T08:05:51.612Z</time></trkpt><trkpt lat="39.7768301" lon="-0.6649128"><ele>773.0</ele><time>2026-04-04T08:05:52.612Z</time></trkpt><trkpt lat="39.7767877" lon="-0.6650434"><ele>777.0</ele><time>2026-04-04T08:05:53.612Z</time></trkpt><trkpt lat="39.7767495" lon="-0.665158"><ele>777.1666666666666</ele><time>2026-04-04T08:05:54.612Z</time></trkpt><trkpt lat="39.7767208" lon="-0.6652568"><ele>777.3333333333333</ele><time>2026-04-04T08:05:55.612Z</time></trkpt><trkpt lat="39.7767101" lon="-0.665351"><ele>777.5</ele><time>2026-04-04T08:05:56.612Z</time></trkpt><trkpt lat="39.7767024" lon="-0.6654432"><ele>777.6666666666666</ele><time>2026-04-04T08:05:57.612Z</time></trkpt><trkpt lat="39.7767078" lon="-0.6655377"><ele>777.8333333333333</ele><time>2026-04-04T08:05:58.61Z</time></trkpt><trkpt lat="39.7767998" lon="-0.6656778"><ele>778.0</ele><time>2026-04-04T08:06:00.612Z</time></trkpt><trkpt lat="39.7768662" lon="-0.6657667"><ele>778.0</ele><time>2026-04-04T08:06:01.612Z</time></trkpt><trkpt lat="39.7769414" lon="-0.665856"><ele>778.0</ele><time>2026-04-04T08:06:02.61Z</time></trkpt><trkpt lat="39.7770242" lon="-0.6659458"><ele>778.0</ele><time>2026-04-04T08:06:03.612Z</time></trkpt><trkpt lat="39.7771045" lon="-0.6660308"><ele>778.0</ele><time>2026-04-04T08:06:04.611Z</time></trkpt><trkpt lat="39.7771824" lon="-0.6661108"><ele>778.0</ele><time>2026-04-04T08:06:05.611Z</time></trkpt><trkpt lat="39.7772584" lon="-0.6661984"><ele>775.5999999999999</ele><time>2026-04-04T08:06:06.612Z</time></trkpt><trkpt lat="39.7773322" lon="-0.6662855"><ele>773.1999999999999</ele><time>2026-04-04T08:06:07.612Z</time></trkpt><trkpt lat="39.777401" lon="-0.6663759"><ele>770.8</ele><time>2026-04-04T08:06:08.612Z</time></trkpt><trkpt lat="39.7774648" lon="-0.6664729"><ele>768.4</ele><time>2026-04-04T08:06:09.611Z</time></trkpt><trkpt lat="39.7775095" lon="-0.6665867"><ele>766.0</ele><time>2026-04-04T08:06:10.612Z</time></trkpt><trkpt lat="39.7775404" lon="-0.6667006"><ele>766.0</ele><time>2026-04-04T08:06:11.611Z</time></trkpt><trkpt lat="39.7775528" lon="-0.6668286"><ele>766.0</ele><time>2026-04-04T08:06:12.612Z</time></trkpt><trkpt lat="39.7775487" lon="-0.6669635"><ele>766.0</ele><time>2026-04-04T08:06:13.613Z</time></trkpt><trkpt lat="39.7775457" lon="-0.667104"><ele>766.0</ele><time>2026-04-04T08:06:14.611Z</time></trkpt><trkpt lat="39.7775447" lon="-0.6672431"><ele>766.0</ele><time>2026-04-04T08:06:15.612Z</time></trkpt><trkpt lat="39.7775337" lon="-0.6673765"><ele>767.75</ele><time>2026-04-04T08:06:16.612Z</time></trkpt><trkpt lat="39.7775135" lon="-0.6675149"><ele>769.5</ele><time>2026-04-04T08:06:17.611Z</time></trkpt><trkpt lat="39.7774415" lon="-0.6676608"><ele>771.25</ele><time>2026-04-04T08:06:18.611Z</time></trkpt><trkpt lat="39.777366" lon="-0.6677983"><ele>773.0</ele><time>2026-04-04T08:06:19.613Z</time></trkpt><trkpt lat="39.7772885" lon="-0.6679337"><ele>776.5999999999999</ele><time>2026-04-04T08:06:20.612Z</time></trkpt><trkpt lat="39.7772238" lon="-0.668053"><ele>780.1999999999999</ele><time>2026-04-04T08:06:21.613Z</time></trkpt><trkpt lat="39.7771608" lon="-0.6681693"><ele>783.8</ele><time>2026-04-04T08:06:22.611Z</time></trkpt><trkpt lat="39.777099" lon="-0.6682892"><ele>787.4</ele><time>2026-04-04T08:06:23.61Z</time></trkpt><trkpt lat="39.7770418" lon="-0.6684099"><ele>791.0</ele><time>2026-04-04T08:06:24.611Z</time></trkpt><trkpt lat="39.7770008" lon="-0.6685224"><ele>791.1666666666667</ele><time>2026-04-04T08:06:25.611Z</time></trkpt><trkpt lat="39.7769862" lon="-0.6686198"><ele>791.3333333333334</ele><time>2026-04-04T08:06:26.613Z</time></trkpt><trkpt lat="39.776976" lon="-0.6687043"><ele>791.5</ele><time>2026-04-04T08:06:27.611Z</time></trkpt><trkpt lat="39.776973" lon="-0.6687873"><ele>791.6666666666667</ele><time>2026-04-04T08:06:28.612Z</time></trkpt><trkpt lat="39.7769896" lon="-0.6689154"><ele>791.8333333333334</ele><time>2026-04-04T08:06:30.611Z</time></trkpt><trkpt lat="39.7770344" lon="-0.6690378"><ele>792.0</ele><time>2026-04-04T08:06:32.612Z</time></trkpt><trkpt lat="39.7770999" lon="-0.6691657"><ele>792.0</ele><time>2026-04-04T08:06:34.612Z</time></trkpt><trkpt lat="39.7771711" lon="-0.6692909"><ele>792.0</ele><time>2026-04-04T08:06:36.612Z</time></trkpt><trkpt lat="39.777225" lon="-0.6694059"><ele>792.0</ele><time>2026-04-04T08:06:38.612Z</time></trkpt><trkpt lat="39.7772155" lon="-0.6695059"><ele>792.0</ele><time>2026-04-04T08:06:40.611Z</time></trkpt><trkpt lat="39.7772302" lon="-0.6696017"><ele>792.0</ele><time>2026-04-04T08:06:42.611Z</time></trkpt><trkpt lat="39.7772984" lon="-0.6696975"><ele>790.2</ele><time>2026-04-04T08:06:44.612Z</time></trkpt><trkpt lat="39.777357" lon="-0.669802"><ele>788.4000000000001</ele><time>2026-04-04T08:06:46.612Z</time></trkpt><trkpt lat="39.7773996" lon="-0.6699111"><ele>786.5999999999999</ele><time>2026-04-04T08:06:48.611Z</time></trkpt><trkpt lat="39.7774556" lon="-0.670018"><ele>784.8</ele><time>2026-04-04T08:06:50.612Z</time></trkpt><trkpt lat="39.7774944" lon="-0.670118"><ele>783.0</ele><time>2026-04-04T08:06:52.611Z</time></trkpt><trkpt lat="39.7775178" lon="-0.6702199"><ele>781.0</ele><time>2026-04-04T08:06:54.611Z</time></trkpt><trkpt lat="39.7775666" lon="-0.6703185"><ele>779.0</ele><time>2026-04-04T08:06:56.612Z</time></trkpt><trkpt lat="39.7776282" lon="-0.6704175"><ele>777.0</ele><time>2026-04-04T08:06:58.612Z</time></trkpt><trkpt lat="39.7776794" lon="-0.6705155"><ele>775.0</ele><time>2026-04-04T08:07:00.613Z</time></trkpt><trkpt lat="39.7777361" lon="-0.670629"><ele>773.0</ele><time>2026-04-04T08:07:02.612Z</time></trkpt><trkpt lat="39.7778003" lon="-0.6707577"><ele>772.5999999999999</ele><time>2026-04-04T08:07:04.61Z</time></trkpt><trkpt lat="39.7778342" lon="-0.6708798"><ele>772.1999999999999</ele><time>2026-04-04T08:07:06.612Z</time></trkpt><trkpt lat="39.7778411" lon="-0.6710057"><ele>771.8</ele><time>2026-04-04T08:07:08.612Z</time></trkpt><trkpt lat="39.7778663" lon="-0.6711774"><ele>771.4</ele><time>2026-04-04T08:07:10.611Z</time></trkpt><trkpt lat="39.77788" lon="-0.6712713"><ele>771.0</ele><time>2026-04-04T08:07:11.611Z</time></trkpt><trkpt lat="39.7779113" lon="-0.6713585"><ele>770.1666666666666</ele><time>2026-04-04T08:07:12.612Z</time></trkpt><trkpt lat="39.7779397" lon="-0.6714512"><ele>769.3333333333334</ele><time>2026-04-04T08:07:13.611Z</time></trkpt><trkpt lat="39.7779638" lon="-0.6715643"><ele>768.5</ele><time>2026-04-04T08:07:14.611Z</time></trkpt><trkpt lat="39.7779844" lon="-0.6716706"><ele>767.6666666666667</ele><time>2026-04-04T08:07:15.612Z</time></trkpt><trkpt lat="39.7780173" lon="-0.6717645"><ele>766.8333333333334</ele><time>2026-04-04T08:07:16.612Z</time></trkpt><trkpt lat="39.7780512" lon="-0.6718682"><ele>766.0</ele><time>2026-04-04T08:07:17.612Z</time></trkpt><trkpt lat="39.7780912" lon="-0.6719717"><ele>766.0</ele><time>2026-04-04T08:07:18.611Z</time></trkpt><trkpt lat="39.7781449" lon="-0.6721029"><ele>766.0</ele><time>2026-04-04T08:07:19.612Z</time></trkpt><trkpt lat="39.7782035" lon="-0.6722265"><ele>766.0</ele><time>2026-04-04T08:07:20.612Z</time></trkpt><trkpt lat="39.7782632" lon="-0.6723398"><ele>766.0</ele><time>2026-04-04T08:07:21.611Z</time></trkpt><trkpt lat="39.7783189" lon="-0.6724507"><ele>766.0</ele><time>2026-04-04T08:07:22.61Z</time></trkpt><trkpt lat="39.7783684" lon="-0.6725484"><ele>766.0</ele><time>2026-04-04T08:07:23.611Z</time></trkpt><trkpt lat="39.7784135" lon="-0.6726328"><ele>766.0</ele><time>2026-04-04T08:07:24.613Z</time></trkpt><trkpt lat="39.7784615" lon="-0.6727162"><ele>766.0</ele><time>2026-04-04T08:07:25.611Z</time></trkpt><trkpt lat="39.7784984" lon="-0.6727849"><ele>766.0</ele><time>2026-04-04T08:07:26.612Z</time></trkpt><trkpt lat="39.7785465" lon="-0.6728654"><ele>766.0</ele><time>2026-04-04T08:07:27.61Z</time></trkpt><trkpt lat="39.7785967" lon="-0.6729412"><ele>766.0</ele><time>2026-04-04T08:07:28.611Z</time></trkpt><trkpt lat="39.7786432" lon="-0.6730008"><ele>766.0</ele><time>2026-04-04T08:07:29.612Z</time></trkpt><trkpt lat="39.7787254" lon="-0.6731"><ele>768.0</ele><time>2026-04-04T08:07:31.612Z</time></trkpt><trkpt lat="39.7788103" lon="-0.6731992"><ele>770.0</ele><time>2026-04-04T08:07:33.611Z</time></trkpt><trkpt lat="39.7788897" lon="-0.6733058"><ele>772.0</ele><time>2026-04-04T08:07:35.611Z</time></trkpt><trkpt lat="39.7789747" lon="-0.6734037"><ele>774.0</ele><time>2026-04-04T08:07:37.611Z</time></trkpt><trkpt lat="39.7790544" lon="-0.6735244"><ele>774.5</ele><time>2026-04-04T08:07:39.61Z</time></trkpt><trkpt lat="39.7791414" lon="-0.6736441"><ele>775.0</ele><time>2026-04-04T08:07:41.612Z</time></trkpt><trkpt lat="39.7792422" lon="-0.6737342"><ele>775.5</ele><time>2026-04-04T08:07:43.612Z</time></trkpt><trkpt lat="39.7793382" lon="-0.6738428"><ele>776.0</ele><time>2026-04-04T08:07:45.612Z</time></trkpt><trkpt lat="39.7794159" lon="-0.6739533"><ele>779.0</ele><time>2026-04-04T08:07:47.612Z</time></trkpt><trkpt lat="39.7795006" lon="-0.674059"><ele>782.0</ele><time>2026-04-04T08:07:49.611Z</time></trkpt><trkpt lat="39.7795693" lon="-0.6741691"><ele>785.0</ele><time>2026-04-04T08:07:51.612Z</time></trkpt><trkpt lat="39.7796396" lon="-0.6742759"><ele>788.0</ele><time>2026-04-04T08:07:53.611Z</time></trkpt><trkpt lat="39.779705" lon="-0.6743539"><ele>791.0</ele><time>2026-04-04T08:07:55.61Z</time></trkpt><trkpt lat="39.7797917" lon="-0.6744021"><ele>789.8333333333334</ele><time>2026-04-04T08:07:57.61Z</time></trkpt><trkpt lat="39.7798727" lon="-0.6744577"><ele>788.6666666666667</ele><time>2026-04-04T08:07:59.611Z</time></trkpt><trkpt lat="39.7799391" lon="-0.6745104"><ele>787.5</ele><time>2026-04-04T08:08:01.612Z</time></trkpt><trkpt lat="39.780014" lon="-0.6745659"><ele>786.3333333333333</ele><time>2026-04-04T08:08:03.613Z</time></trkpt><trkpt lat="39.780097" lon="-0.6746272"><ele>785.1666666666666</ele><time>2026-04-04T08:08:05.61Z</time></trkpt><trkpt lat="39.7801731" lon="-0.6746947"><ele>784.0</ele><time>2026-04-04T08:08:07.612Z</time></trkpt><trkpt lat="39.7802595" lon="-0.6747645"><ele>787.4000000000001</ele><time>2026-04-04T08:08:09.612Z</time></trkpt><trkpt lat="39.7803341" lon="-0.674859"><ele>790.8</ele><time>2026-04-04T08:08:11.612Z</time></trkpt><trkpt lat="39.7804104" lon="-0.6749223"><ele>794.2</ele><time>2026-04-04T08:08:13.611Z</time></trkpt><trkpt lat="39.780487" lon="-0.6749938"><ele>797.5999999999999</ele><time>2026-04-04T08:08:15.612Z</time></trkpt><trkpt lat="39.7805594" lon="-0.6750707"><ele>801.0</ele><time>2026-04-04T08:08:17.613Z</time></trkpt><trkpt lat="39.7806213" lon="-0.6751563"><ele>801.0</ele><time>2026-04-04T08:08:19.612Z</time></trkpt><trkpt lat="39.7806852" lon="-0.6752188"><ele>801.0</ele><time>2026-04-04T08:08:21.611Z</time></trkpt><trkpt lat="39.78075" lon="-0.6752902"><ele>801.0</ele><time>2026-04-04T08:08:23.61Z</time></trkpt><trkpt lat="39.7808242" lon="-0.6753626"><ele>801.0</ele><time>2026-04-04T08:08:25.613Z</time></trkpt><trkpt lat="39.7809011" lon="-0.675438"><ele>801.0</ele><time>2026-04-04T08:08:27.612Z</time></trkpt><trkpt lat="39.7809644" lon="-0.6755013"><ele>801.0</ele><time>2026-04-04T08:08:29.611Z</time></trkpt><trkpt lat="39.781037" lon="-0.6755815"><ele>802.0</ele><time>2026-04-04T08:08:31.611Z</time></trkpt><trkpt lat="39.7811079" lon="-0.6756791"><ele>803.0</ele><time>2026-04-04T08:08:33.612Z</time></trkpt><trkpt lat="39.7811813" lon="-0.6757917"><ele>804.0</ele><time>2026-04-04T08:08:35.612Z</time></trkpt><trkpt lat="39.7812466" lon="-0.6759007"><ele>805.0</ele><time>2026-04-04T08:08:37.612Z</time></trkpt><trkpt lat="39.7813093" lon="-0.6759948"><ele>806.0</ele><time>2026-04-04T08:08:39.611Z</time></trkpt><trkpt lat="39.781357" lon="-0.6760813"><ele>805.8333333333334</ele><time>2026-04-04T08:08:41.612Z</time></trkpt><trkpt lat="39.7814118" lon="-0.6761915"><ele>805.6666666666667</ele><time>2026-04-04T08:08:43.612Z</time></trkpt><trkpt lat="39.7814616" lon="-0.6762946"><ele>805.5</ele><time>2026-04-04T08:08:45.612Z</time></trkpt><trkpt lat="39.7815143" lon="-0.6763921"><ele>805.3333333333333</ele><time>2026-04-04T08:08:47.612Z</time></trkpt><trkpt lat="39.7815599" lon="-0.6764647"><ele>805.1666666666666</ele><time>2026-04-04T08:08:49.612Z</time></trkpt><trkpt lat="39.7815924" lon="-0.6765395"><ele>805.0</ele><time>2026-04-04T08:08:51.611Z</time></trkpt><trkpt lat="39.7816332" lon="-0.676611"><ele>804.9999999999999</ele><time>2026-04-04T08:08:53.611Z</time></trkpt><trkpt lat="39.7816913" lon="-0.6766803"><ele>805.0</ele><time>2026-04-04T08:08:55.613Z</time></trkpt><trkpt lat="39.7817645" lon="-0.6767713"><ele>805.0</ele><time>2026-04-04T08:08:57.611Z</time></trkpt><trkpt lat="39.7818125" lon="-0.6768759"><ele>805.0</ele><time>2026-04-04T08:08:59.61Z</time></trkpt><trkpt lat="39.7818534" lon="-0.676961"><ele>804.9999999999999</ele><time>2026-04-04T08:09:27.612Z</time></trkpt><trkpt lat="39.7819304" lon="-0.677041"><ele>805.0</ele><time>2026-04-04T08:09:49.61Z</time></trkpt><trkpt lat="39.7820233" lon="-0.6771538"><ele>804.3333333333333</ele><time>2026-04-04T08:09:51.612Z</time></trkpt><trkpt lat="39.7820634" lon="-0.677222"><ele>803.6666666666666</ele><time>2026-04-04T08:09:52.612Z</time></trkpt><trkpt lat="39.7821034" lon="-0.6773013"><ele>803.0</ele><time>2026-04-04T08:09:53.611Z</time></trkpt><trkpt lat="39.7821308" lon="-0.6773825"><ele>802.3333333333333</ele><time>2026-04-04T08:09:54.613Z</time></trkpt><trkpt lat="39.7821555" lon="-0.6774691"><ele>801.6666666666666</ele><time>2026-04-04T08:09:55.612Z</time></trkpt><trkpt lat="39.782169" lon="-0.6775795"><ele>801.0</ele><time>2026-04-04T08:09:56.612Z</time></trkpt><trkpt lat="39.7821793" lon="-0.6777052"><ele>799.75</ele><time>2026-04-04T08:09:57.613Z</time></trkpt><trkpt lat="39.7821553" lon="-0.677866"><ele>798.5</ele><time>2026-04-04T08:09:58.611Z</time></trkpt><trkpt lat="39.7821265" lon="-0.6780176"><ele>797.25</ele><time>2026-04-04T08:09:59.613Z</time></trkpt><trkpt lat="39.7821064" lon="-0.6781672"><ele>796.0</ele><time>2026-04-04T08:10:00.611Z</time></trkpt><trkpt lat="39.7820794" lon="-0.6783123"><ele>796.0</ele><time>2026-04-04T08:10:01.611Z</time></trkpt><trkpt lat="39.7820592" lon="-0.6784428"><ele>796.0</ele><time>2026-04-04T08:10:02.613Z</time></trkpt><trkpt lat="39.7820497" lon="-0.678586"><ele>796.0</ele><time>2026-04-04T08:10:03.612Z</time></trkpt><trkpt lat="39.7820635" lon="-0.6787474"><ele>796.0</ele><time>2026-04-04T08:10:04.611Z</time></trkpt><trkpt lat="39.7821012" lon="-0.6789238"><ele>795.6666666666666</ele><time>2026-04-04T08:10:05.611Z</time></trkpt><trkpt lat="39.7821549" lon="-0.6790988"><ele>795.3333333333333</ele><time>2026-04-04T08:10:06.61Z</time></trkpt><trkpt lat="39.7822115" lon="-0.6792886"><ele>795.0</ele><time>2026-04-04T08:10:07.611Z</time></trkpt><trkpt lat="39.7822592" lon="-0.67949"><ele>795.0</ele><time>2026-04-04T08:10:08.611Z</time></trkpt><trkpt lat="39.7823078" lon="-0.6796728"><ele>795.0</ele><time>2026-04-04T08:10:09.612Z</time></trkpt><trkpt lat="39.7823677" lon="-0.6798511"><ele>795.0</ele><time>2026-04-04T08:10:10.613Z</time></trkpt><trkpt lat="39.7825361" lon="-0.6801459"><ele>797.0</ele><time>2026-04-04T08:10:12.613Z</time></trkpt><trkpt lat="39.7826418" lon="-0.6802956"><ele>799.0</ele><time>2026-04-04T08:10:13.612Z</time></trkpt><trkpt lat="39.7827596" lon="-0.6804502"><ele>801.0</ele><time>2026-04-04T08:10:14.611Z</time></trkpt><trkpt lat="39.7828859" lon="-0.6806109"><ele>797.6666666666667</ele><time>2026-04-04T08:10:15.612Z</time></trkpt><trkpt lat="39.7830134" lon="-0.6807761"><ele>794.3333333333334</ele><time>2026-04-04T08:10:16.611Z</time></trkpt><trkpt lat="39.7831343" lon="-0.6809427"><ele>791.0</ele><time>2026-04-04T08:10:17.611Z</time></trkpt><trkpt lat="39.7832465" lon="-0.6811151"><ele>791.0</ele><time>2026-04-04T08:10:18.61Z</time></trkpt><trkpt lat="39.7833501" lon="-0.6812934"><ele>791.0</ele><time>2026-04-04T08:10:19.611Z</time></trkpt><trkpt lat="39.7834405" lon="-0.6814806"><ele>791.0</ele><time>2026-04-04T08:10:20.612Z</time></trkpt><trkpt lat="39.7835167" lon="-0.681659"><ele>791.0</ele><time>2026-04-04T08:10:21.611Z</time></trkpt><trkpt lat="39.7836053" lon="-0.6818296"><ele>791.0</ele><time>2026-04-04T08:10:22.611Z</time></trkpt><trkpt lat="39.7837012" lon="-0.681968"><ele>791.0</ele><time>2026-04-04T08:10:23.611Z</time></trkpt><trkpt lat="39.7838053" lon="-0.6820828"><ele>791.0</ele><time>2026-04-04T08:10:24.613Z</time></trkpt><trkpt lat="39.7839255" lon="-0.6821938"><ele>791.0</ele><time>2026-04-04T08:10:25.611Z</time></trkpt><trkpt lat="39.7840528" lon="-0.6823098"><ele>791.0</ele><time>2026-04-04T08:10:26.612Z</time></trkpt><trkpt lat="39.7841821" lon="-0.6824292"><ele>791.0</ele><time>2026-04-04T08:10:27.611Z</time></trkpt><trkpt lat="39.7843121" lon="-0.6825546"><ele>790.6666666666667</ele><time>2026-04-04T08:10:28.612Z</time></trkpt><trkpt lat="39.7844482" lon="-0.6826941"><ele>790.3333333333333</ele><time>2026-04-04T08:10:29.611Z</time></trkpt><trkpt lat="39.7845918" lon="-0.6828428"><ele>790.0</ele><time>2026-04-04T08:10:30.613Z</time></trkpt><trkpt lat="39.7847384" lon="-0.6829962"><ele>791.3333333333333</ele><time>2026-04-04T08:10:31.612Z</time></trkpt><trkpt lat="39.7848901" lon="-0.6831567"><ele>792.6666666666667</ele><time>2026-04-04T08:10:32.611Z</time></trkpt><trkpt lat="39.7850419" lon="-0.6833182"><ele>794.0</ele><time>2026-04-04T08:10:33.612Z</time></trkpt><trkpt lat="39.7851847" lon="-0.6834652"><ele>795.0</ele><time>2026-04-04T08:10:34.612Z</time></trkpt><trkpt lat="39.7853177" lon="-0.6836083"><ele>796.0</ele><time>2026-04-04T08:10:35.611Z</time></trkpt><trkpt lat="39.7854527" lon="-0.683751"><ele>797.0</ele><time>2026-04-04T08:10:36.61Z</time></trkpt><trkpt lat="39.7855936" lon="-0.6839"><ele>797.0</ele><time>2026-04-04T08:10:37.61Z</time></trkpt><trkpt lat="39.7857315" lon="-0.6840679"><ele>797.0</ele><time>2026-04-04T08:10:38.611Z</time></trkpt><trkpt lat="39.7858757" lon="-0.6842533"><ele>797.0</ele><time>2026-04-04T08:10:39.613Z</time></trkpt><trkpt lat="39.7860254" lon="-0.6844356"><ele>796.6666666666667</ele><time>2026-04-04T08:10:40.612Z</time></trkpt><trkpt lat="39.7861829" lon="-0.6846171"><ele>796.3333333333333</ele><time>2026-04-04T08:10:41.611Z</time></trkpt><trkpt lat="39.7863438" lon="-0.6848095"><ele>796.0</ele><time>2026-04-04T08:10:42.613Z</time></trkpt><trkpt lat="39.786502" lon="-0.6850134"><ele>796.0</ele><time>2026-04-04T08:10:43.611Z</time></trkpt><trkpt lat="39.7866562" lon="-0.6852302"><ele>796.0</ele><time>2026-04-04T08:10:44.611Z</time></trkpt><trkpt lat="39.786811" lon="-0.6854426"><ele>797.0</ele><time>2026-04-04T08:10:45.611Z</time></trkpt><trkpt lat="39.7869614" lon="-0.6856345"><ele>798.0</ele><time>2026-04-04T08:10:46.61Z</time></trkpt><trkpt lat="39.7871082" lon="-0.6858245"><ele>799.0</ele><time>2026-04-04T08:10:47.611Z</time></trkpt><trkpt lat="39.7872493" lon="-0.6860141"><ele>801.6666666666666</ele><time>2026-04-04T08:10:48.61Z</time></trkpt><trkpt lat="39.7873922" lon="-0.686206"><ele>804.3333333333333</ele><time>2026-04-04T08:10:49.612Z</time></trkpt><trkpt lat="39.787525" lon="-0.6863752"><ele>807.0</ele><time>2026-04-04T08:10:50.611Z</time></trkpt><trkpt lat="39.7876539" lon="-0.6865231"><ele>807.5</ele><time>2026-04-04T08:10:51.611Z</time></trkpt><trkpt lat="39.7877766" lon="-0.68664"><ele>808.0</ele><time>2026-04-04T08:10:52.611Z</time></trkpt><trkpt lat="39.7878902" lon="-0.6867614"><ele>808.5</ele><time>2026-04-04T08:10:53.612Z</time></trkpt><trkpt lat="39.7879961" lon="-0.6868998"><ele>809.0</ele><time>2026-04-04T08:10:54.612Z</time></trkpt><trkpt lat="39.7880937" lon="-0.6870456"><ele>809.0</ele><time>2026-04-04T08:10:55.613Z</time></trkpt><trkpt lat="39.7881842" lon="-0.6872026"><ele>809.0</ele><time>2026-04-04T08:10:56.613Z</time></trkpt><trkpt lat="39.7882698" lon="-0.687377"><ele>809.0</ele><time>2026-04-04T08:10:57.611Z</time></trkpt><trkpt lat="39.7883572" lon="-0.6875604"><ele>809.0</ele><time>2026-04-04T08:10:58.613Z</time></trkpt><trkpt lat="39.7884444" lon="-0.6877491"><ele>809.0</ele><time>2026-04-04T08:10:59.612Z</time></trkpt><trkpt lat="39.7885266" lon="-0.6879391"><ele>809.0</ele><time>2026-04-04T08:11:00.612Z</time></trkpt><trkpt lat="39.7886048" lon="-0.6881448"><ele>809.0</ele><time>2026-04-04T08:11:01.611Z</time></trkpt><trkpt lat="39.7886747" lon="-0.6883578"><ele>809.0</ele><time>2026-04-04T08:11:02.611Z</time></trkpt><trkpt lat="39.7887305" lon="-0.6885612"><ele>809.0</ele><time>2026-04-04T08:11:03.61Z</time></trkpt><trkpt lat="39.7887784" lon="-0.688749"><ele>809.0</ele><time>2026-04-04T08:11:04.612Z</time></trkpt><trkpt lat="39.7888338" lon="-0.6889394"><ele>809.0</ele><time>2026-04-04T08:11:05.61Z</time></trkpt><trkpt lat="39.7888973" lon="-0.6891137"><ele>809.0</ele><time>2026-04-04T08:11:06.61Z</time></trkpt><trkpt lat="39.788966" lon="-0.6892771"><ele>809.0</ele><time>2026-04-04T08:11:07.613Z</time></trkpt><trkpt lat="39.7890467" lon="-0.6894411"><ele>809.75</ele><time>2026-04-04T08:11:08.613Z</time></trkpt><trkpt lat="39.7891359" lon="-0.6895812"><ele>810.5</ele><time>2026-04-04T08:11:09.612Z</time></trkpt><trkpt lat="39.7892448" lon="-0.6897106"><ele>811.25</ele><time>2026-04-04T08:11:10.61Z</time></trkpt><trkpt lat="39.7893662" lon="-0.6898323"><ele>812.0</ele><time>2026-04-04T08:11:11.612Z</time></trkpt><trkpt lat="39.7894971" lon="-0.6899423"><ele>812.0</ele><time>2026-04-04T08:11:12.612Z</time></trkpt><trkpt lat="39.7896328" lon="-0.690032"><ele>812.0</ele><time>2026-04-04T08:11:13.611Z</time></trkpt><trkpt lat="39.7897731" lon="-0.6901125"><ele>812.0</ele><time>2026-04-04T08:11:14.611Z</time></trkpt><trkpt lat="39.7899148" lon="-0.6901685"><ele>812.0</ele><time>2026-04-04T08:11:15.611Z</time></trkpt><trkpt lat="39.7900581" lon="-0.6902023"><ele>812.0</ele><time>2026-04-04T08:11:16.61Z</time></trkpt><trkpt lat="39.7901837" lon="-0.6902305"><ele>812.0</ele><time>2026-04-04T08:11:17.611Z</time></trkpt><trkpt lat="39.7903055" lon="-0.6902679"><ele>812.0</ele><time>2026-04-04T08:11:18.613Z</time></trkpt><trkpt lat="39.7904105" lon="-0.690329"><ele>813.25</ele><time>2026-04-04T08:11:19.611Z</time></trkpt><trkpt lat="39.7905028" lon="-0.6904047"><ele>814.5</ele><time>2026-04-04T08:11:20.611Z</time></trkpt><trkpt lat="39.7905903" lon="-0.6905147"><ele>815.75</ele><time>2026-04-04T08:11:21.613Z</time></trkpt><trkpt lat="39.7906675" lon="-0.6906349"><ele>817.0</ele><time>2026-04-04T08:11:22.612Z</time></trkpt><trkpt lat="39.790741" lon="-0.6907553"><ele>817.0</ele><time>2026-04-04T08:11:23.611Z</time></trkpt><trkpt lat="39.7908183" lon="-0.6908758"><ele>817.0</ele><time>2026-04-04T08:11:24.61Z</time></trkpt><trkpt lat="39.7909111" lon="-0.690996"><ele>817.0</ele><time>2026-04-04T08:11:25.61Z</time></trkpt><trkpt lat="39.7910188" lon="-0.691118"><ele>817.0</ele><time>2026-04-04T08:11:26.613Z</time></trkpt><trkpt lat="39.7911311" lon="-0.691231"><ele>817.75</ele><time>2026-04-04T08:11:27.612Z</time></trkpt><trkpt lat="39.7912485" lon="-0.6913281"><ele>818.5</ele><time>2026-04-04T08:11:28.612Z</time></trkpt><trkpt lat="39.7913517" lon="-0.6914387"><ele>819.25</ele><time>2026-04-04T08:11:29.61Z</time></trkpt><trkpt lat="39.7914471" lon="-0.6915671"><ele>820.0</ele><time>2026-04-04T08:11:30.613Z</time></trkpt><trkpt lat="39.791496" lon="-0.6917242"><ele>820.0</ele><time>2026-04-04T08:11:31.612Z</time></trkpt><trkpt lat="39.7915467" lon="-0.6918895"><ele>820.0</ele><time>2026-04-04T08:11:32.611Z</time></trkpt><trkpt lat="39.791593" lon="-0.6920329"><ele>820.0</ele><time>2026-04-04T08:11:33.611Z</time></trkpt><trkpt lat="39.791663" lon="-0.6921802"><ele>820.0</ele><time>2026-04-04T08:11:34.612Z</time></trkpt><trkpt lat="39.7917473" lon="-0.6923289"><ele>821.3333333333333</ele><time>2026-04-04T08:11:35.611Z</time></trkpt><trkpt lat="39.7918553" lon="-0.6924766"><ele>822.6666666666667</ele><time>2026-04-04T08:11:36.612Z</time></trkpt><trkpt lat="39.7919793" lon="-0.6926179"><ele>824.0</ele><time>2026-04-04T08:11:37.61Z</time></trkpt><trkpt lat="39.7921039" lon="-0.6927547"><ele>818.3333333333334</ele><time>2026-04-04T08:11:38.612Z</time></trkpt><trkpt lat="39.7922287" lon="-0.6928975"><ele>812.6666666666667</ele><time>2026-04-04T08:11:39.611Z</time></trkpt><trkpt lat="39.7923474" lon="-0.6930242"><ele>807.0</ele><time>2026-04-04T08:11:40.612Z</time></trkpt><trkpt lat="39.7924616" lon="-0.6931396"><ele>807.0</ele><time>2026-04-04T08:11:41.612Z</time></trkpt><trkpt lat="39.7925804" lon="-0.6932344"><ele>807.0</ele><time>2026-04-04T08:11:42.612Z</time></trkpt><trkpt lat="39.7927127" lon="-0.6933192"><ele>807.0</ele><time>2026-04-04T08:11:43.613Z</time></trkpt><trkpt lat="39.7928443" lon="-0.6934022"><ele>807.0</ele><time>2026-04-04T08:11:44.61Z</time></trkpt><trkpt lat="39.7929708" lon="-0.6934708"><ele>808.0</ele><time>2026-04-04T08:11:45.612Z</time></trkpt><trkpt lat="39.7930899" lon="-0.6935472"><ele>809.0</ele><time>2026-04-04T08:11:46.613Z</time></trkpt><trkpt lat="39.7932143" lon="-0.6936238"><ele>810.0</ele><time>2026-04-04T08:11:47.611Z</time></trkpt><trkpt lat="39.7933464" lon="-0.6937016"><ele>811.0</ele><time>2026-04-04T08:11:48.61Z</time></trkpt><trkpt lat="39.7934866" lon="-0.6937701"><ele>807.5</ele><time>2026-04-04T08:11:49.61Z</time></trkpt><trkpt lat="39.7936226" lon="-0.6938188"><ele>804.0</ele><time>2026-04-04T08:11:50.611Z</time></trkpt><trkpt lat="39.7937467" lon="-0.6938692"><ele>800.5</ele><time>2026-04-04T08:11:51.612Z</time></trkpt><trkpt lat="39.7938589" lon="-0.6939264"><ele>797.0</ele><time>2026-04-04T08:11:52.612Z</time></trkpt><trkpt lat="39.7939618" lon="-0.6940024"><ele>797.0</ele><time>2026-04-04T08:11:53.611Z</time></trkpt><trkpt lat="39.7940515" lon="-0.6941054"><ele>797.0</ele><time>2026-04-04T08:11:54.611Z</time></trkpt><trkpt lat="39.794124" lon="-0.6942412"><ele>797.0</ele><time>2026-04-04T08:11:55.611Z</time></trkpt><trkpt lat="39.7941828" lon="-0.694398"><ele>797.0</ele><time>2026-04-04T08:11:56.61Z</time></trkpt><trkpt lat="39.7942518" lon="-0.6945531"><ele>797.5</ele><time>2026-04-04T08:11:57.61Z</time></trkpt><trkpt lat="39.7943369" lon="-0.694703"><ele>798.0</ele><time>2026-04-04T08:11:58.612Z</time></trkpt><trkpt lat="39.7944335" lon="-0.6948451"><ele>798.5</ele><time>2026-04-04T08:11:59.613Z</time></trkpt><trkpt lat="39.7945256" lon="-0.6949773"><ele>799.0</ele><time>2026-04-04T08:12:00.611Z</time></trkpt><trkpt lat="39.7946166" lon="-0.6951149"><ele>799.0</ele><time>2026-04-04T08:12:01.611Z</time></trkpt><trkpt lat="39.7947189" lon="-0.6952444"><ele>799.0</ele><time>2026-04-04T08:12:02.613Z</time></trkpt><trkpt lat="39.7948336" lon="-0.6953508"><ele>799.0</ele><time>2026-04-04T08:12:03.612Z</time></trkpt><trkpt lat="39.794961" lon="-0.6954601"><ele>799.0</ele><time>2026-04-04T08:12:04.613Z</time></trkpt><trkpt lat="39.7950952" lon="-0.6955618"><ele>796.0</ele><time>2026-04-04T08:12:05.61Z</time></trkpt><trkpt lat="39.7952319" lon="-0.6956586"><ele>793.0</ele><time>2026-04-04T08:12:06.611Z</time></trkpt><trkpt lat="39.7953726" lon="-0.695749"><ele>790.0</ele><time>2026-04-04T08:12:07.613Z</time></trkpt><trkpt lat="39.7955046" lon="-0.6958429"><ele>790.0</ele><time>2026-04-04T08:12:08.611Z</time></trkpt><trkpt lat="39.7956362" lon="-0.6959473"><ele>790.0</ele><time>2026-04-04T08:12:09.611Z</time></trkpt><trkpt lat="39.7957616" lon="-0.696063"><ele>790.0</ele><time>2026-04-04T08:12:10.611Z</time></trkpt><trkpt lat="39.7958867" lon="-0.6961883"><ele>787.0</ele><time>2026-04-04T08:12:11.612Z</time></trkpt><trkpt lat="39.7960116" lon="-0.6963151"><ele>784.0</ele><time>2026-04-04T08:12:12.61Z</time></trkpt><trkpt lat="39.7961463" lon="-0.6964404"><ele>781.0</ele><time>2026-04-04T08:12:13.61Z</time></trkpt><trkpt lat="39.7962727" lon="-0.6965601"><ele>781.0</ele><time>2026-04-04T08:12:14.611Z</time></trkpt><trkpt lat="39.7964016" lon="-0.6966751"><ele>781.0</ele><time>2026-04-04T08:12:15.612Z</time></trkpt><trkpt lat="39.7965272" lon="-0.6967794"><ele>781.0</ele><time>2026-04-04T08:12:16.611Z</time></trkpt><trkpt lat="39.7966595" lon="-0.696886"><ele>779.75</ele><time>2026-04-04T08:12:17.612Z</time></trkpt><trkpt lat="39.7967841" lon="-0.6969862"><ele>778.5</ele><time>2026-04-04T08:12:18.611Z</time></trkpt><trkpt lat="39.7968991" lon="-0.6970793"><ele>777.25</ele><time>2026-04-04T08:12:19.612Z</time></trkpt><trkpt lat="39.7970081" lon="-0.6971714"><ele>776.0</ele><time>2026-04-04T08:12:20.611Z</time></trkpt><trkpt lat="39.7971061" lon="-0.6972589"><ele>776.0</ele><time>2026-04-04T08:12:21.612Z</time></trkpt><trkpt lat="39.7971868" lon="-0.6973729"><ele>776.0</ele><time>2026-04-04T08:12:22.613Z</time></trkpt><trkpt lat="39.7972535" lon="-0.6975125"><ele>776.0</ele><time>2026-04-04T08:12:23.611Z</time></trkpt><trkpt lat="39.7973059" lon="-0.6976398"><ele>776.0</ele><time>2026-04-04T08:12:24.612Z</time></trkpt><trkpt lat="39.7973547" lon="-0.6977764"><ele>773.8</ele><time>2026-04-04T08:12:25.613Z</time></trkpt><trkpt lat="39.7973968" lon="-0.6978985"><ele>771.5999999999999</ele><time>2026-04-04T08:12:26.611Z</time></trkpt><trkpt lat="39.7974354" lon="-0.6980012"><ele>769.4</ele><time>2026-04-04T08:12:27.611Z</time></trkpt><trkpt lat="39.7974983" lon="-0.6981164"><ele>767.2</ele><time>2026-04-04T08:12:29.612Z</time></trkpt><trkpt lat="39.7975997" lon="-0.6981892"><ele>765.0</ele><time>2026-04-04T08:12:31.611Z</time></trkpt><trkpt lat="39.7976766" lon="-0.6982185"><ele>765.0</ele><time>2026-04-04T08:12:33.612Z</time></trkpt><trkpt lat="39.7977581" lon="-0.698252"><ele>765.0</ele><time>2026-04-04T08:12:35.612Z</time></trkpt><trkpt lat="39.7978582" lon="-0.6982846"><ele>765.0</ele><time>2026-04-04T08:12:37.611Z</time></trkpt><trkpt lat="39.7979316" lon="-0.698291"><ele>765.0</ele><time>2026-04-04T08:12:38.612Z</time></trkpt><trkpt lat="39.7980198" lon="-0.6983321"><ele>765.0</ele><time>2026-04-04T08:12:40.612Z</time></trkpt><trkpt lat="39.7980736" lon="-0.6984324"><ele>765.0</ele><time>2026-04-04T08:12:42.613Z</time></trkpt><trkpt lat="39.7980883" lon="-0.6985808"><ele>765.0</ele><time>2026-04-04T08:12:44.61Z</time></trkpt><trkpt lat="39.7980701" lon="-0.6987484"><ele>765.0</ele><time>2026-04-04T08:12:46.613Z</time></trkpt><trkpt lat="39.7980136" lon="-0.6988498"><ele>765.0</ele><time>2026-04-04T08:12:48.611Z</time></trkpt><trkpt lat="39.7979295" lon="-0.6989209"><ele>765.0</ele><time>2026-04-04T08:12:50.612Z</time></trkpt><trkpt lat="39.7978834" lon="-0.6990022"><ele>765.0</ele><time>2026-04-04T08:12:51.613Z</time></trkpt><trkpt lat="39.797836" lon="-0.6990885"><ele>765.0</ele><time>2026-04-04T08:12:52.611Z</time></trkpt><trkpt lat="39.7977799" lon="-0.6991753"><ele>765.0</ele><time>2026-04-04T08:12:53.612Z</time></trkpt><trkpt lat="39.7977262" lon="-0.6992477"><ele>765.0</ele><time>2026-04-04T08:12:54.61Z</time></trkpt><trkpt lat="39.7976884" lon="-0.6993196"><ele>765.0</ele><time>2026-04-04T08:12:55.613Z</time></trkpt><trkpt lat="39.7976477" lon="-0.6993844"><ele>765.0</ele><time>2026-04-04T08:12:56.612Z</time></trkpt><trkpt lat="39.7975809" lon="-0.6995011"><ele>765.0</ele><time>2026-04-04T08:12:58.611Z</time></trkpt><trkpt lat="39.7975613" lon="-0.699579"><ele>765.0</ele><time>2026-04-04T08:12:59.611Z</time></trkpt><trkpt lat="39.7975512" lon="-0.6996671"><ele>765.0</ele><time>2026-04-04T08:13:00.612Z</time></trkpt><trkpt lat="39.7975234" lon="-0.6998092"><ele>765.0</ele><time>2026-04-04T08:13:02.611Z</time></trkpt><trkpt lat="39.7975099" lon="-0.6999581"><ele>765.0</ele><time>2026-04-04T08:13:04.611Z</time></trkpt><trkpt lat="39.7975021" lon="-0.7000813"><ele>765.0</ele><time>2026-04-04T08:13:06.611Z</time></trkpt><trkpt lat="39.7974867" lon="-0.700163"><ele>765.0</ele><time>2026-04-04T08:13:07.611Z</time></trkpt><trkpt lat="39.7974508" lon="-0.7003254"><ele>765.0</ele><time>2026-04-04T08:13:09.613Z</time></trkpt><trkpt lat="39.7974395" lon="-0.700471"><ele>765.0</ele><time>2026-04-04T08:13:11.611Z</time></trkpt><trkpt lat="39.7974271" lon="-0.7006236"><ele>765.0</ele><time>2026-04-04T08:13:13.611Z</time></trkpt><trkpt lat="39.797417" lon="-0.7007365"><ele>766.0</ele><time>2026-04-04T08:13:15.612Z</time></trkpt><trkpt lat="39.7974001" lon="-0.7008765"><ele>767.0</ele><time>2026-04-04T08:13:17.611Z</time></trkpt><trkpt lat="39.7974021" lon="-0.700971"><ele>768.0</ele><time>2026-04-04T08:13:18.612Z</time></trkpt><trkpt lat="39.7973824" lon="-0.7011098"><ele>769.0</ele><time>2026-04-04T08:13:20.611Z</time></trkpt><trkpt lat="39.7973159" lon="-0.7012094"><ele>770.0</ele><time>2026-04-04T08:13:22.61Z</time></trkpt><trkpt lat="39.7972374" lon="-0.7012801"><ele>771.5000000000001</ele><time>2026-04-04T08:13:24.611Z</time></trkpt><trkpt lat="39.7971668" lon="-0.7013847"><ele>773.0</ele><time>2026-04-04T08:13:27.61Z</time></trkpt><trkpt lat="39.7971924" lon="-0.7014855"><ele>774.5</ele><time>2026-04-04T08:13:30.611Z</time></trkpt><trkpt lat="39.7973104" lon="-0.7015016"><ele>776.0</ele><time>2026-04-04T08:13:32.612Z</time></trkpt><trkpt lat="39.7973783" lon="-0.7015147"><ele>777.5000000000001</ele><time>2026-04-04T08:13:33.613Z</time></trkpt><trkpt lat="39.7974461" lon="-0.7015417"><ele>779.0</ele><time>2026-04-04T08:13:34.612Z</time></trkpt><trkpt lat="39.7975335" lon="-0.7015749"><ele>779.0</ele><time>2026-04-04T08:13:35.613Z</time></trkpt><trkpt lat="39.7976119" lon="-0.7016206"><ele>779.0</ele><time>2026-04-04T08:13:36.611Z</time></trkpt><trkpt lat="39.7976972" lon="-0.7016795"><ele>779.0</ele><time>2026-04-04T08:13:37.612Z</time></trkpt><trkpt lat="39.7977835" lon="-0.7017369"><ele>779.0</ele><time>2026-04-04T08:13:38.611Z</time></trkpt><trkpt lat="39.7978696" lon="-0.7018006"><ele>779.0</ele><time>2026-04-04T08:13:39.612Z</time></trkpt><trkpt lat="39.7979347" lon="-0.70186"><ele>778.8333333333334</ele><time>2026-04-04T08:13:40.612Z</time></trkpt><trkpt lat="39.7980042" lon="-0.7019201"><ele>778.6666666666667</ele><time>2026-04-04T08:13:41.611Z</time></trkpt><trkpt lat="39.79809" lon="-0.7019992"><ele>778.5</ele><time>2026-04-04T08:13:43.611Z</time></trkpt><trkpt lat="39.7981404" lon="-0.7020922"><ele>778.3333333333333</ele><time>2026-04-04T08:13:45.611Z</time></trkpt><trkpt lat="39.7981038" lon="-0.7022077"><ele>778.1666666666666</ele><time>2026-04-04T08:13:47.612Z</time></trkpt><trkpt lat="39.7981018" lon="-0.7022949"><ele>778.0</ele><time>2026-04-04T08:13:49.612Z</time></trkpt><trkpt lat="39.7980871" lon="-0.702377"><ele>778.0</ele><time>2026-04-04T08:13:51.61Z</time></trkpt><trkpt lat="39.7981695" lon="-0.7024208"><ele>778.0</ele><time>2026-04-04T08:13:54.612Z</time></trkpt><trkpt lat="39.7982266" lon="-0.7024765"><ele>778.0</ele><time>2026-04-04T08:13:56.611Z</time></trkpt><trkpt lat="39.7982029" lon="-0.7026411"><ele>778.0</ele><time>2026-04-04T08:13:58.612Z</time></trkpt><trkpt lat="39.7981818" lon="-0.7027929"><ele>778.0</ele><time>2026-04-04T08:14:00.611Z</time></trkpt><trkpt lat="39.7981666" lon="-0.7029362"><ele>777.8</ele><time>2026-04-04T08:14:02.611Z</time></trkpt><trkpt lat="39.7981502" lon="-0.7030755"><ele>777.5999999999999</ele><time>2026-04-04T08:14:04.611Z</time></trkpt><trkpt lat="39.7981365" lon="-0.7032339"><ele>777.4000000000001</ele><time>2026-04-04T08:14:06.612Z</time></trkpt><trkpt lat="39.7981337" lon="-0.7033169"><ele>777.2</ele><time>2026-04-04T08:14:07.613Z</time></trkpt><trkpt lat="39.798133" lon="-0.7034191"><ele>777.0</ele><time>2026-04-04T08:14:08.611Z</time></trkpt><trkpt lat="39.7981241" lon="-0.7035247"><ele>776.0</ele><time>2026-04-04T08:14:09.613Z</time></trkpt><trkpt lat="39.7981057" lon="-0.7036814"><ele>775.0</ele><time>2026-04-04T08:14:10.612Z</time></trkpt><trkpt lat="39.7981009" lon="-0.7038298"><ele>774.0</ele><time>2026-04-04T08:14:11.613Z</time></trkpt><trkpt lat="39.798097" lon="-0.7039708"><ele>773.0</ele><time>2026-04-04T08:14:12.612Z</time></trkpt><trkpt lat="39.7981042" lon="-0.7040949"><ele>772.0</ele><time>2026-04-04T08:14:13.611Z</time></trkpt><trkpt lat="39.7980986" lon="-0.7042173"><ele>771.9999999999999</ele><time>2026-04-04T08:14:14.612Z</time></trkpt><trkpt lat="39.7981057" lon="-0.7043249"><ele>772.0</ele><time>2026-04-04T08:14:15.611Z</time></trkpt><trkpt lat="39.7980996" lon="-0.7044393"><ele>772.0</ele><time>2026-04-04T08:14:16.613Z</time></trkpt><trkpt lat="39.7980878" lon="-0.7045525"><ele>772.0</ele><time>2026-04-04T08:14:17.61Z</time></trkpt><trkpt lat="39.7980819" lon="-0.7046693"><ele>771.9999999999999</ele><time>2026-04-04T08:14:18.613Z</time></trkpt><trkpt lat="39.7980832" lon="-0.7047888"><ele>772.0</ele><time>2026-04-04T08:14:19.611Z</time></trkpt><trkpt lat="39.7980898" lon="-0.7049267"><ele>772.0</ele><time>2026-04-04T08:14:20.613Z</time></trkpt><trkpt lat="39.7980983" lon="-0.7050543"><ele>772.0</ele><time>2026-04-04T08:14:21.611Z</time></trkpt><trkpt lat="39.798101" lon="-0.7052045"><ele>772.0</ele><time>2026-04-04T08:14:22.613Z</time></trkpt><trkpt lat="39.7980896" lon="-0.7053781"><ele>772.0</ele><time>2026-04-04T08:14:23.611Z</time></trkpt><trkpt lat="39.7980859" lon="-0.7055459"><ele>771.25</ele><time>2026-04-04T08:14:24.613Z</time></trkpt><trkpt lat="39.7980946" lon="-0.7056866"><ele>770.5</ele><time>2026-04-04T08:14:25.612Z</time></trkpt><trkpt lat="39.7980907" lon="-0.7058428"><ele>769.75</ele><time>2026-04-04T08:14:26.611Z</time></trkpt><trkpt lat="39.798092" lon="-0.7059961"><ele>769.0</ele><time>2026-04-04T08:14:27.611Z</time></trkpt><trkpt lat="39.7981045" lon="-0.7061454"><ele>767.8000000000001</ele><time>2026-04-04T08:14:28.612Z</time></trkpt><trkpt lat="39.7981234" lon="-0.7062556"><ele>766.6</ele><time>2026-04-04T08:14:29.612Z</time></trkpt><trkpt lat="39.7981453" lon="-0.7063947"><ele>765.4</ele><time>2026-04-04T08:14:30.612Z</time></trkpt><trkpt lat="39.7981662" lon="-0.7065339"><ele>764.2</ele><time>2026-04-04T08:14:31.611Z</time></trkpt><trkpt lat="39.7981904" lon="-0.7066735"><ele>763.0</ele><time>2026-04-04T08:14:32.612Z</time></trkpt><trkpt lat="39.7982157" lon="-0.7067985"><ele>763.0</ele><time>2026-04-04T08:14:33.612Z</time></trkpt><trkpt lat="39.798229" lon="-0.7069224"><ele>763.0</ele><time>2026-04-04T08:14:34.612Z</time></trkpt><trkpt lat="39.7982569" lon="-0.7070361"><ele>763.0</ele><time>2026-04-04T08:14:35.611Z</time></trkpt><trkpt lat="39.7982785" lon="-0.7071526"><ele>763.0</ele><time>2026-04-04T08:14:36.611Z</time></trkpt><trkpt lat="39.798315" lon="-0.7072363"><ele>763.0</ele><time>2026-04-04T08:14:37.611Z</time></trkpt><trkpt lat="39.7983495" lon="-0.7073182"><ele>763.0</ele><time>2026-04-04T08:14:38.611Z</time></trkpt><trkpt lat="39.7983982" lon="-0.7073843"><ele>763.0</ele><time>2026-04-04T08:14:39.611Z</time></trkpt><trkpt lat="39.7984458" lon="-0.7074453"><ele>763.0</ele><time>2026-04-04T08:14:40.611Z</time></trkpt><trkpt lat="39.798524" lon="-0.7075558"><ele>763.0</ele><time>2026-04-04T08:14:41.613Z</time></trkpt><trkpt lat="39.7986064" lon="-0.7076611"><ele>763.0</ele><time>2026-04-04T08:14:42.612Z</time></trkpt><trkpt lat="39.7986878" lon="-0.7077691"><ele>763.0</ele><time>2026-04-04T08:14:43.611Z</time></trkpt><trkpt lat="39.7987739" lon="-0.7078551"><ele>763.8</ele><time>2026-04-04T08:14:44.612Z</time></trkpt><trkpt lat="39.7988529" lon="-0.707922"><ele>764.5999999999999</ele><time>2026-04-04T08:14:45.611Z</time></trkpt><trkpt lat="39.7989237" lon="-0.7079853"><ele>765.4000000000001</ele><time>2026-04-04T08:14:46.612Z</time></trkpt><trkpt lat="39.7989984" lon="-0.7080432"><ele>766.2</ele><time>2026-04-04T08:14:47.611Z</time></trkpt><trkpt lat="39.7990726" lon="-0.7080886"><ele>767.0</ele><time>2026-04-04T08:14:48.611Z</time></trkpt><trkpt lat="39.7991651" lon="-0.7081515"><ele>767.0</ele><time>2026-04-04T08:14:49.612Z</time></trkpt><trkpt lat="39.7992562" lon="-0.7082186"><ele>767.0</ele><time>2026-04-04T08:14:50.611Z</time></trkpt><trkpt lat="39.7993558" lon="-0.7082971"><ele>767.0</ele><time>2026-04-04T08:14:51.612Z</time></trkpt><trkpt lat="39.7994688" lon="-0.708362"><ele>767.0</ele><time>2026-04-04T08:14:52.613Z</time></trkpt><trkpt lat="39.7995974" lon="-0.708434"><ele>768.0</ele><time>2026-04-04T08:14:53.612Z</time></trkpt><trkpt lat="39.79973" lon="-0.7084949"><ele>769.0</ele><time>2026-04-04T08:14:54.613Z</time></trkpt><trkpt lat="39.7998659" lon="-0.7085541"><ele>770.0</ele><time>2026-04-04T08:14:55.612Z</time></trkpt><trkpt lat="39.8000003" lon="-0.7086282"><ele>771.0</ele><time>2026-04-04T08:14:56.612Z</time></trkpt><trkpt lat="39.800136" lon="-0.7087095"><ele>772.3333333333333</ele><time>2026-04-04T08:14:57.613Z</time></trkpt><trkpt lat="39.8002765" lon="-0.7088122"><ele>773.6666666666666</ele><time>2026-04-04T08:14:58.612Z</time></trkpt><trkpt lat="39.8004151" lon="-0.7089335"><ele>775.0</ele><time>2026-04-04T08:14:59.611Z</time></trkpt><trkpt lat="39.8005596" lon="-0.7090591"><ele>775.0</ele><time>2026-04-04T08:15:00.612Z</time></trkpt><trkpt lat="39.8006951" lon="-0.7091852"><ele>775.0</ele><time>2026-04-04T08:15:01.611Z</time></trkpt><trkpt lat="39.8008185" lon="-0.7093093"><ele>775.0</ele><time>2026-04-04T08:15:02.611Z</time></trkpt><trkpt lat="39.8009423" lon="-0.709444"><ele>777.3333333333333</ele><time>2026-04-04T08:15:03.611Z</time></trkpt><trkpt lat="39.8010629" lon="-0.7095926"><ele>779.6666666666667</ele><time>2026-04-04T08:15:04.612Z</time></trkpt><trkpt lat="39.8011738" lon="-0.7097593"><ele>782.0</ele><time>2026-04-04T08:15:05.612Z</time></trkpt><trkpt lat="39.8012778" lon="-0.7099256"><ele>782.0</ele><time>2026-04-04T08:15:06.611Z</time></trkpt><trkpt lat="39.8013796" lon="-0.7100999"><ele>782.0</ele><time>2026-04-04T08:15:07.611Z</time></trkpt><trkpt lat="39.8014725" lon="-0.7102734"><ele>782.0</ele><time>2026-04-04T08:15:08.612Z</time></trkpt><trkpt lat="39.8015566" lon="-0.7104309"><ele>782.2</ele><time>2026-04-04T08:15:09.612Z</time></trkpt><trkpt lat="39.801627" lon="-0.7105618"><ele>782.4000000000001</ele><time>2026-04-04T08:15:10.61Z</time></trkpt><trkpt lat="39.8016972" lon="-0.7106862"><ele>782.5999999999999</ele><time>2026-04-04T08:15:11.613Z</time></trkpt><trkpt lat="39.801764" lon="-0.7108007"><ele>782.8</ele><time>2026-04-04T08:15:12.61Z</time></trkpt><trkpt lat="39.8018287" lon="-0.7108828"><ele>783.0</ele><time>2026-04-04T08:15:13.613Z</time></trkpt><trkpt lat="39.8018903" lon="-0.710939"><ele>783.0</ele><time>2026-04-04T08:15:14.611Z</time></trkpt><trkpt lat="39.801955" lon="-0.710968"><ele>783.0</ele><time>2026-04-04T08:15:15.61Z</time></trkpt><trkpt lat="39.8020397" lon="-0.7109899"><ele>783.0</ele><time>2026-04-04T08:15:16.611Z</time></trkpt><trkpt lat="39.8021162" lon="-0.7110269"><ele>783.0</ele><time>2026-04-04T08:15:17.61Z</time></trkpt><trkpt lat="39.8021897" lon="-0.71109"><ele>783.0</ele><time>2026-04-04T08:15:18.61Z</time></trkpt><trkpt lat="39.802248" lon="-0.7111473"><ele>783.0</ele><time>2026-04-04T08:15:19.612Z</time></trkpt><trkpt lat="39.8022971" lon="-0.7112109"><ele>783.2</ele><time>2026-04-04T08:15:20.611Z</time></trkpt><trkpt lat="39.8023288" lon="-0.7112861"><ele>783.4</ele><time>2026-04-04T08:15:21.611Z</time></trkpt><trkpt lat="39.8023712" lon="-0.7113928"><ele>783.6</ele><time>2026-04-04T08:15:22.612Z</time></trkpt><trkpt lat="39.8024402" lon="-0.7115112"><ele>783.8000000000001</ele><time>2026-04-04T08:15:23.611Z</time></trkpt><trkpt lat="39.8025093" lon="-0.7116353"><ele>784.0</ele><time>2026-04-04T08:15:24.611Z</time></trkpt><trkpt lat="39.8025702" lon="-0.7117505"><ele>784.0</ele><time>2026-04-04T08:15:25.611Z</time></trkpt><trkpt lat="39.8026199" lon="-0.7118767"><ele>784.0</ele><time>2026-04-04T08:15:26.611Z</time></trkpt><trkpt lat="39.8026523" lon="-0.7119949"><ele>784.0</ele><time>2026-04-04T08:15:27.613Z</time></trkpt><trkpt lat="39.8026667" lon="-0.7121371"><ele>784.0</ele><time>2026-04-04T08:15:28.611Z</time></trkpt><trkpt lat="39.8026719" lon="-0.7122617"><ele>784.0</ele><time>2026-04-04T08:15:29.611Z</time></trkpt><trkpt lat="39.802687" lon="-0.7123691"><ele>786.4000000000001</ele><time>2026-04-04T08:15:30.613Z</time></trkpt><trkpt lat="39.8027577" lon="-0.7124972"><ele>788.8</ele><time>2026-04-04T08:15:32.613Z</time></trkpt><trkpt lat="39.8028251" lon="-0.7125868"><ele>791.2</ele><time>2026-04-04T08:15:33.611Z</time></trkpt><trkpt lat="39.8028947" lon="-0.7126748"><ele>793.5999999999999</ele><time>2026-04-04T08:15:34.612Z</time></trkpt><trkpt lat="39.8029637" lon="-0.7127504"><ele>796.0</ele><time>2026-04-04T08:15:35.613Z</time></trkpt><trkpt lat="39.8030242" lon="-0.712809"><ele>796.0</ele><time>2026-04-04T08:15:36.611Z</time></trkpt><trkpt lat="39.8030885" lon="-0.7128588"><ele>796.0</ele><time>2026-04-04T08:15:37.611Z</time></trkpt><trkpt lat="39.8031395" lon="-0.7129072"><ele>796.0</ele><time>2026-04-04T08:15:38.61Z</time></trkpt><trkpt lat="39.8032007" lon="-0.7130808"><ele>796.0</ele><time>2026-04-04T08:15:40.613Z</time></trkpt><trkpt lat="39.8032193" lon="-0.7132029"><ele>796.0</ele><time>2026-04-04T08:15:41.613Z</time></trkpt><trkpt lat="39.8032262" lon="-0.7133468"><ele>795.9999999999999</ele><time>2026-04-04T08:15:42.611Z</time></trkpt><trkpt lat="39.8032331" lon="-0.713474"><ele>796.0</ele><time>2026-04-04T08:15:43.612Z</time></trkpt><trkpt lat="39.8032548" lon="-0.7135559"><ele>796.0</ele><time>2026-04-04T08:15:44.613Z</time></trkpt><trkpt lat="39.8032871" lon="-0.7136559"><ele>796.0</ele><time>2026-04-04T08:15:45.612Z</time></trkpt><trkpt lat="39.8033339" lon="-0.7137529"><ele>795.9999999999999</ele><time>2026-04-04T08:15:46.611Z</time></trkpt><trkpt lat="39.8033825" lon="-0.7138346"><ele>796.0</ele><time>2026-04-04T08:15:47.61Z</time></trkpt><trkpt lat="39.8034427" lon="-0.7139088"><ele>797.0</ele><time>2026-04-04T08:15:48.611Z</time></trkpt><trkpt lat="39.8034992" lon="-0.7139675"><ele>798.0</ele><time>2026-04-04T08:15:49.611Z</time></trkpt><trkpt lat="39.8035478" lon="-0.7140478"><ele>799.0</ele><time>2026-04-04T08:15:50.61Z</time></trkpt><trkpt lat="39.8035901" lon="-0.7141455"><ele>800.0</ele><time>2026-04-04T08:15:51.613Z</time></trkpt><trkpt lat="39.8036338" lon="-0.7142763"><ele>801.0</ele><time>2026-04-04T08:15:52.613Z</time></trkpt><trkpt lat="39.8036785" lon="-0.7144179"><ele>801.0</ele><time>2026-04-04T08:15:53.612Z</time></trkpt><trkpt lat="39.8037338" lon="-0.7145719"><ele>801.0</ele><time>2026-04-04T08:15:54.611Z</time></trkpt><trkpt lat="39.8037833" lon="-0.714729"><ele>801.0</ele><time>2026-04-04T08:15:55.61Z</time></trkpt><trkpt lat="39.8038399" lon="-0.7148882"><ele>801.0</ele><time>2026-04-04T08:15:56.611Z</time></trkpt><trkpt lat="39.8038966" lon="-0.7150635"><ele>800.3333333333333</ele><time>2026-04-04T08:15:57.612Z</time></trkpt><trkpt lat="39.803955" lon="-0.7152493"><ele>799.6666666666666</ele><time>2026-04-04T08:15:58.612Z</time></trkpt><trkpt lat="39.8040054" lon="-0.7154343"><ele>799.0</ele><time>2026-04-04T08:15:59.61Z</time></trkpt><trkpt lat="39.8040534" lon="-0.7156135"><ele>799.0</ele><time>2026-04-04T08:16:00.61Z</time></trkpt><trkpt lat="39.8040931" lon="-0.7157787"><ele>799.0</ele><time>2026-04-04T08:16:01.612Z</time></trkpt><trkpt lat="39.8041297" lon="-0.7159309"><ele>799.0</ele><time>2026-04-04T08:16:02.612Z</time></trkpt><trkpt lat="39.8041586" lon="-0.7160572"><ele>799.0</ele><time>2026-04-04T08:16:03.611Z</time></trkpt><trkpt lat="39.8041771" lon="-0.7161719"><ele>799.0</ele><time>2026-04-04T08:16:04.612Z</time></trkpt><trkpt lat="39.8042009" lon="-0.7162687"><ele>798.1666666666666</ele><time>2026-04-04T08:16:05.612Z</time></trkpt><trkpt lat="39.8042239" lon="-0.7163493"><ele>797.3333333333333</ele><time>2026-04-04T08:16:06.61Z</time></trkpt><trkpt lat="39.8042934" lon="-0.7164439"><ele>796.5</ele><time>2026-04-04T08:16:08.612Z</time></trkpt><trkpt lat="39.8044044" lon="-0.7164512"><ele>795.6666666666667</ele><time>2026-04-04T08:16:10.612Z</time></trkpt><trkpt lat="39.8044973" lon="-0.7164187"><ele>794.8333333333334</ele><time>2026-04-04T08:16:12.613Z</time></trkpt><trkpt lat="39.8045694" lon="-0.7164078"><ele>794.0</ele><time>2026-04-04T08:16:14.612Z</time></trkpt><trkpt lat="39.804644" lon="-0.7164488"><ele>796.0</ele><time>2026-04-04T08:16:17.612Z</time></trkpt><trkpt lat="39.8046659" lon="-0.7165703"><ele>798.0</ele><time>2026-04-04T08:16:20.611Z</time></trkpt><trkpt lat="39.8046193" lon="-0.7166698"><ele>800.0</ele><time>2026-04-04T08:16:22.613Z</time></trkpt><trkpt lat="39.8045834" lon="-0.7167513"><ele>802.0</ele><time>2026-04-04T08:16:24.612Z</time></trkpt><trkpt lat="39.8045688" lon="-0.7168607"><ele>804.0</ele><time>2026-04-04T08:16:30.613Z</time></trkpt><trkpt lat="39.8045916" lon="-0.7170107"><ele>804.1666666666666</ele><time>2026-04-04T08:16:32.612Z</time></trkpt><trkpt lat="39.8046127" lon="-0.7170955"><ele>804.3333333333333</ele><time>2026-04-04T08:16:33.612Z</time></trkpt><trkpt lat="39.8046308" lon="-0.7171804"><ele>804.5</ele><time>2026-04-04T08:16:34.612Z</time></trkpt><trkpt lat="39.8046514" lon="-0.7172814"><ele>804.6666666666666</ele><time>2026-04-04T08:16:35.612Z</time></trkpt><trkpt lat="39.8046725" lon="-0.7173971"><ele>804.8333333333333</ele><time>2026-04-04T08:16:36.611Z</time></trkpt><trkpt lat="39.8046883" lon="-0.7175264"><ele>805.0</ele><time>2026-04-04T08:16:37.611Z</time></trkpt><trkpt lat="39.804698" lon="-0.7176417"><ele>804.3333333333333</ele><time>2026-04-04T08:16:38.613Z</time></trkpt><trkpt lat="39.8047274" lon="-0.7177487"><ele>803.6666666666666</ele><time>2026-04-04T08:16:39.611Z</time></trkpt><trkpt lat="39.8047647" lon="-0.7178708"><ele>803.0</ele><time>2026-04-04T08:16:40.611Z</time></trkpt><trkpt lat="39.8047963" lon="-0.7179859"><ele>802.3333333333333</ele><time>2026-04-04T08:16:41.612Z</time></trkpt><trkpt lat="39.8048245" lon="-0.718076"><ele>801.6666666666666</ele><time>2026-04-04T08:16:42.613Z</time></trkpt><trkpt lat="39.8048634" lon="-0.7181667"><ele>801.0</ele><time>2026-04-04T08:16:43.611Z</time></trkpt><trkpt lat="39.8049075" lon="-0.718266"><ele>801.0</ele><time>2026-04-04T08:16:44.611Z</time></trkpt><trkpt lat="39.8049813" lon="-0.7183752"><ele>801.0</ele><time>2026-04-04T08:16:45.611Z</time></trkpt><trkpt lat="39.8050471" lon="-0.7184757"><ele>801.0</ele><time>2026-04-04T08:16:46.611Z</time></trkpt><trkpt lat="39.8051232" lon="-0.7185806"><ele>801.0</ele><time>2026-04-04T08:16:47.613Z</time></trkpt><trkpt lat="39.8051796" lon="-0.7186658"><ele>801.0</ele><time>2026-04-04T08:16:48.612Z</time></trkpt><trkpt lat="39.80523" lon="-0.7187308"><ele>803.8333333333334</ele><time>2026-04-04T08:16:49.613Z</time></trkpt><trkpt lat="39.805308" lon="-0.7188046"><ele>806.6666666666667</ele><time>2026-04-04T08:16:51.611Z</time></trkpt><trkpt lat="39.8054103" lon="-0.7188655"><ele>809.5</ele><time>2026-04-04T08:16:53.611Z</time></trkpt><trkpt lat="39.8054887" lon="-0.7189436"><ele>812.3333333333334</ele><time>2026-04-04T08:16:55.611Z</time></trkpt><trkpt lat="39.8055472" lon="-0.7189878"><ele>815.1666666666667</ele><time>2026-04-04T08:16:57.612Z</time></trkpt><trkpt lat="39.8055885" lon="-0.7190649"><ele>818.0</ele><time>2026-04-04T08:16:59.61Z</time></trkpt><trkpt lat="39.8056169" lon="-0.7191768"><ele>818.0000000000001</ele><time>2026-04-04T08:17:01.611Z</time></trkpt><trkpt lat="39.8056366" lon="-0.719279"><ele>818.0</ele><time>2026-04-04T08:17:03.612Z</time></trkpt><trkpt lat="39.8056483" lon="-0.7193634"><ele>818.0</ele><time>2026-04-04T08:17:05.612Z</time></trkpt><trkpt lat="39.8056444" lon="-0.7194627"><ele>818.0</ele><time>2026-04-04T08:17:07.612Z</time></trkpt><trkpt lat="39.805663" lon="-0.7195766"><ele>818.0000000000001</ele><time>2026-04-04T08:17:09.61Z</time></trkpt><trkpt lat="39.805697" lon="-0.7196945"><ele>818.0</ele><time>2026-04-04T08:17:11.611Z</time></trkpt><trkpt lat="39.8057235" lon="-0.719779"><ele>815.25</ele><time>2026-04-04T08:17:12.613Z</time></trkpt><trkpt lat="39.8057595" lon="-0.7199407"><ele>812.5</ele><time>2026-04-04T08:17:14.613Z</time></trkpt><trkpt lat="39.8057967" lon="-0.7200624"><ele>809.75</ele><time>2026-04-04T08:17:16.612Z</time></trkpt><trkpt lat="39.8058698" lon="-0.720167"><ele>807.0</ele><time>2026-04-04T08:17:18.612Z</time></trkpt><trkpt lat="39.8059484" lon="-0.7202774"><ele>808.2</ele><time>2026-04-04T08:17:20.611Z</time></trkpt><trkpt lat="39.8060107" lon="-0.7203886"><ele>809.4000000000001</ele><time>2026-04-04T08:17:22.611Z</time></trkpt><trkpt lat="39.8060861" lon="-0.7204844"><ele>810.5999999999999</ele><time>2026-04-04T08:17:24.61Z</time></trkpt><trkpt lat="39.8061806" lon="-0.7205654"><ele>811.8</ele><time>2026-04-04T08:17:26.612Z</time></trkpt><trkpt lat="39.8062414" lon="-0.7206242"><ele>813.0</ele><time>2026-04-04T08:17:28.611Z</time></trkpt><trkpt lat="39.8063182" lon="-0.7206832"><ele>813.0</ele><time>2026-04-04T08:17:30.612Z</time></trkpt><trkpt lat="39.806403" lon="-0.7207227"><ele>813.0</ele><time>2026-04-04T08:17:32.612Z</time></trkpt><trkpt lat="39.8065138" lon="-0.7207848"><ele>813.0</ele><time>2026-04-04T08:17:34.611Z</time></trkpt><trkpt lat="39.8066354" lon="-0.7208391"><ele>813.0</ele><time>2026-04-04T08:17:36.612Z</time></trkpt><trkpt lat="39.806745" lon="-0.7209052"><ele>813.0</ele><time>2026-04-04T08:17:38.613Z</time></trkpt><trkpt lat="39.8068139" lon="-0.7209357"><ele>813.0</ele><time>2026-04-04T08:17:39.612Z</time></trkpt><trkpt lat="39.8068882" lon="-0.7209765"><ele>813.0</ele><time>2026-04-04T08:17:40.612Z</time></trkpt><trkpt lat="39.8069449" lon="-0.7210212"><ele>813.0</ele><time>2026-04-04T08:17:41.611Z</time></trkpt><trkpt lat="39.8070458" lon="-0.7211304"><ele>813.0</ele><time>2026-04-04T08:17:43.613Z</time></trkpt><trkpt lat="39.8070924" lon="-0.7211857"><ele>813.0</ele><time>2026-04-04T08:17:44.613Z</time></trkpt><trkpt lat="39.8071454" lon="-0.7212349"><ele>812.8333333333334</ele><time>2026-04-04T08:17:45.612Z</time></trkpt><trkpt lat="39.8072004" lon="-0.7212998"><ele>812.6666666666667</ele><time>2026-04-04T08:17:46.611Z</time></trkpt><trkpt lat="39.8072614" lon="-0.7213639"><ele>812.5</ele><time>2026-04-04T08:17:47.612Z</time></trkpt><trkpt lat="39.8073234" lon="-0.7214241"><ele>812.3333333333334</ele><time>2026-04-04T08:17:48.611Z</time></trkpt><trkpt lat="39.8073816" lon="-0.7214786"><ele>812.1666666666667</ele><time>2026-04-04T08:17:49.611Z</time></trkpt><trkpt lat="39.8074753" lon="-0.7215725"><ele>812.0</ele><time>2026-04-04T08:17:51.612Z</time></trkpt><trkpt lat="39.8075711" lon="-0.7216721"><ele>812.0</ele><time>2026-04-04T08:17:53.61Z</time></trkpt><trkpt lat="39.8076369" lon="-0.7217464"><ele>812.0</ele><time>2026-04-04T08:17:55.612Z</time></trkpt><trkpt lat="39.8076953" lon="-0.7217853"><ele>812.0</ele><time>2026-04-04T08:17:57.611Z</time></trkpt><trkpt lat="39.8078154" lon="-0.7217941"><ele>812.0</ele><time>2026-04-04T08:18:00.611Z</time></trkpt><trkpt lat="39.8079058" lon="-0.7217692"><ele>812.0</ele><time>2026-04-04T08:18:03.612Z</time></trkpt><trkpt lat="39.8080148" lon="-0.7217938"><ele>813.2</ele><time>2026-04-04T08:18:05.611Z</time></trkpt><trkpt lat="39.8081242" lon="-0.7218356"><ele>814.4000000000001</ele><time>2026-04-04T08:18:07.611Z</time></trkpt><trkpt lat="39.8081912" lon="-0.7219552"><ele>815.5999999999999</ele><time>2026-04-04T08:18:09.611Z</time></trkpt><trkpt lat="39.8082285" lon="-0.7220307"><ele>816.8</ele><time>2026-04-04T08:18:10.612Z</time></trkpt><trkpt lat="39.8082637" lon="-0.7221058"><ele>818.0</ele><time>2026-04-04T08:18:11.611Z</time></trkpt><trkpt lat="39.8083039" lon="-0.722208"><ele>818.0</ele><time>2026-04-04T08:18:13.61Z</time></trkpt><trkpt lat="39.8083091" lon="-0.7223295"><ele>818.0</ele><time>2026-04-04T08:18:16.612Z</time></trkpt><trkpt lat="39.8083417" lon="-0.7224401"><ele>818.0</ele><time>2026-04-04T08:18:18.61Z</time></trkpt><trkpt lat="39.8083697" lon="-0.722559"><ele>818.0</ele><time>2026-04-04T08:18:20.613Z</time></trkpt><trkpt lat="39.80842" lon="-0.7226873"><ele>818.0</ele><time>2026-04-04T08:18:22.612Z</time></trkpt><trkpt lat="39.8084544" lon="-0.7227582"><ele>819.0000000000001</ele><time>2026-04-04T08:18:23.611Z</time></trkpt><trkpt lat="39.8084979" lon="-0.7228292"><ele>820.0</ele><time>2026-04-04T08:18:24.611Z</time></trkpt><trkpt lat="39.8085454" lon="-0.7228998"><ele>821.0</ele><time>2026-04-04T08:18:25.612Z</time></trkpt><trkpt lat="39.8086426" lon="-0.7230107"><ele>822.0</ele><time>2026-04-04T08:18:27.612Z</time></trkpt><trkpt lat="39.8087028" lon="-0.7230531"><ele>823.0000000000001</ele><time>2026-04-04T08:18:28.611Z</time></trkpt><trkpt lat="39.8087648" lon="-0.7230881"><ele>824.0</ele><time>2026-04-04T08:18:29.611Z</time></trkpt><trkpt lat="39.808827" lon="-0.7231075"><ele>824.0000000000001</ele><time>2026-04-04T08:18:30.611Z</time></trkpt><trkpt lat="39.8088914" lon="-0.7231347"><ele>824.0</ele><time>2026-04-04T08:18:31.612Z</time></trkpt><trkpt lat="39.808956" lon="-0.723159"><ele>824.0</ele><time>2026-04-04T08:18:32.61Z</time></trkpt><trkpt lat="39.8090315" lon="-0.7232331"><ele>824.0</ele><time>2026-04-04T08:18:33.611Z</time></trkpt><trkpt lat="39.8091022" lon="-0.7233128"><ele>824.0000000000001</ele><time>2026-04-04T08:18:34.611Z</time></trkpt><trkpt lat="39.8091626" lon="-0.7234062"><ele>824.0</ele><time>2026-04-04T08:18:35.612Z</time></trkpt><trkpt lat="39.8092092" lon="-0.7235008"><ele>824.1666666666667</ele><time>2026-04-04T08:18:36.612Z</time></trkpt><trkpt lat="39.8092456" lon="-0.7236075"><ele>824.3333333333334</ele><time>2026-04-04T08:18:37.613Z</time></trkpt><trkpt lat="39.8092699" lon="-0.7237045"><ele>824.5</ele><time>2026-04-04T08:18:38.612Z</time></trkpt><trkpt lat="39.8093062" lon="-0.7238044"><ele>824.6666666666667</ele><time>2026-04-04T08:18:39.612Z</time></trkpt><trkpt lat="39.8093388" lon="-0.7239082"><ele>824.8333333333334</ele><time>2026-04-04T08:18:40.611Z</time></trkpt><trkpt lat="39.8093744" lon="-0.7240073"><ele>825.0</ele><time>2026-04-04T08:18:41.611Z</time></trkpt><trkpt lat="39.8094072" lon="-0.724146"><ele>827.6666666666666</ele><time>2026-04-04T08:18:42.612Z</time></trkpt><trkpt lat="39.8094388" lon="-0.724259"><ele>830.3333333333333</ele><time>2026-04-04T08:18:43.611Z</time></trkpt><trkpt lat="39.8094638" lon="-0.7243524"><ele>833.0</ele><time>2026-04-04T08:18:44.611Z</time></trkpt><trkpt lat="39.8094902" lon="-0.7244421"><ele>835.6666666666666</ele><time>2026-04-04T08:18:45.612Z</time></trkpt><trkpt lat="39.809518" lon="-0.7245246"><ele>838.3333333333333</ele><time>2026-04-04T08:18:46.611Z</time></trkpt><trkpt lat="39.809548" lon="-0.7245967"><ele>841.0</ele><time>2026-04-04T08:18:47.613Z</time></trkpt><trkpt lat="39.8096204" lon="-0.7247347"><ele>841.1666666666666</ele><time>2026-04-04T08:18:49.611Z</time></trkpt><trkpt lat="39.8096608" lon="-0.7248066"><ele>841.3333333333333</ele><time>2026-04-04T08:18:50.61Z</time></trkpt><trkpt lat="39.8096989" lon="-0.7248959"><ele>841.5</ele><time>2026-04-04T08:18:51.612Z</time></trkpt><trkpt lat="39.8097222" lon="-0.725002"><ele>841.6666666666667</ele><time>2026-04-04T08:18:52.612Z</time></trkpt><trkpt lat="39.8097508" lon="-0.7251324"><ele>841.8333333333334</ele><time>2026-04-04T08:18:53.611Z</time></trkpt><trkpt lat="39.8097779" lon="-0.7252666"><ele>842.0</ele><time>2026-04-04T08:18:54.611Z</time></trkpt><trkpt lat="39.8097878" lon="-0.725394"><ele>841.5000000000001</ele><time>2026-04-04T08:18:55.612Z</time></trkpt><trkpt lat="39.8097967" lon="-0.725508"><ele>841.0</ele><time>2026-04-04T08:18:56.611Z</time></trkpt><trkpt lat="39.8097975" lon="-0.7256124"><ele>840.5</ele><time>2026-04-04T08:18:57.61Z</time></trkpt><trkpt lat="39.8098209" lon="-0.7257159"><ele>840.0</ele><time>2026-04-04T08:18:58.612Z</time></trkpt><trkpt lat="39.8098448" lon="-0.7258293"><ele>839.5000000000001</ele><time>2026-04-04T08:18:59.61Z</time></trkpt><trkpt lat="39.8098747" lon="-0.7259438"><ele>839.0</ele><time>2026-04-04T08:19:00.611Z</time></trkpt><trkpt lat="39.8099001" lon="-0.7260453"><ele>839.0000000000001</ele><time>2026-04-04T08:19:01.613Z</time></trkpt><trkpt lat="39.8099256" lon="-0.7261328"><ele>839.0</ele><time>2026-04-04T08:19:02.611Z</time></trkpt><trkpt lat="39.809962" lon="-0.7262046"><ele>839.0</ele><time>2026-04-04T08:19:03.611Z</time></trkpt><trkpt lat="39.8100119" lon="-0.7262828"><ele>839.0</ele><time>2026-04-04T08:19:04.612Z</time></trkpt><trkpt lat="39.8100618" lon="-0.7263725"><ele>839.0000000000001</ele><time>2026-04-04T08:19:05.61Z</time></trkpt><trkpt lat="39.810109" lon="-0.7264712"><ele>839.0</ele><time>2026-04-04T08:19:06.611Z</time></trkpt><trkpt lat="39.810164" lon="-0.7265558"><ele>839.6666666666667</ele><time>2026-04-04T08:19:07.613Z</time></trkpt><trkpt lat="39.8102227" lon="-0.7266463"><ele>840.3333333333334</ele><time>2026-04-04T08:19:08.612Z</time></trkpt><trkpt lat="39.8102828" lon="-0.7267473"><ele>841.0</ele><time>2026-04-04T08:19:09.611Z</time></trkpt><trkpt lat="39.8103454" lon="-0.726842"><ele>841.6666666666667</ele><time>2026-04-04T08:19:10.612Z</time></trkpt><trkpt lat="39.8104023" lon="-0.7269239"><ele>842.3333333333334</ele><time>2026-04-04T08:19:11.613Z</time></trkpt><trkpt lat="39.8104564" lon="-0.7269931"><ele>843.0</ele><time>2026-04-04T08:19:12.611Z</time></trkpt><trkpt lat="39.8105151" lon="-0.7270523"><ele>843.0</ele><time>2026-04-04T08:19:13.613Z</time></trkpt><trkpt lat="39.81057" lon="-0.7271087"><ele>843.0</ele><time>2026-04-04T08:19:14.611Z</time></trkpt><trkpt lat="39.8106648" lon="-0.7271975"><ele>843.0</ele><time>2026-04-04T08:19:16.61Z</time></trkpt><trkpt lat="39.8107361" lon="-0.7272538"><ele>843.0</ele><time>2026-04-04T08:19:18.611Z</time></trkpt><trkpt lat="39.8108105" lon="-0.7272897"><ele>843.0</ele><time>2026-04-04T08:19:20.612Z</time></trkpt><trkpt lat="39.8108981" lon="-0.7273185"><ele>843.0</ele><time>2026-04-04T08:24:04.611Z</time></trkpt><trkpt lat="39.8109638" lon="-0.7273312"><ele>844.8</ele><time>2026-04-04T08:24:06.612Z</time></trkpt><trkpt lat="39.8110297" lon="-0.7272935"><ele>846.5999999999999</ele><time>2026-04-04T08:24:08.612Z</time></trkpt><trkpt lat="39.8110979" lon="-0.7271921"><ele>848.4000000000001</ele><time>2026-04-04T08:24:10.613Z</time></trkpt><trkpt lat="39.8111595" lon="-0.7270785"><ele>850.2</ele><time>2026-04-04T08:24:12.612Z</time></trkpt><trkpt lat="39.8112193" lon="-0.7269837"><ele>852.0</ele><time>2026-04-04T08:24:14.612Z</time></trkpt><trkpt lat="39.8112797" lon="-0.7268801"><ele>852.8</ele><time>2026-04-04T08:24:16.613Z</time></trkpt><trkpt lat="39.8112939" lon="-0.7267269"><ele>853.6</ele><time>2026-04-04T08:24:18.613Z</time></trkpt><trkpt lat="39.8113193" lon="-0.7265754"><ele>854.3999999999999</ele><time>2026-04-04T08:24:20.611Z</time></trkpt><trkpt lat="39.8113456" lon="-0.7265002"><ele>855.1999999999999</ele><time>2026-04-04T08:24:21.611Z</time></trkpt><trkpt lat="39.8113922" lon="-0.7263624"><ele>856.0</ele><time>2026-04-04T08:24:23.611Z</time></trkpt><trkpt lat="39.8114059" lon="-0.7261999"><ele>855.4</ele><time>2026-04-04T08:24:25.612Z</time></trkpt><trkpt lat="39.8114151" lon="-0.7260427"><ele>854.8</ele><time>2026-04-04T08:24:27.613Z</time></trkpt><trkpt lat="39.8114285" lon="-0.7259601"><ele>854.1999999999999</ele><time>2026-04-04T08:24:28.612Z</time></trkpt><trkpt lat="39.8114548" lon="-0.7258724"><ele>853.5999999999999</ele><time>2026-04-04T08:24:29.611Z</time></trkpt><trkpt lat="39.8115308" lon="-0.725757"><ele>853.0</ele><time>2026-04-04T08:24:31.612Z</time></trkpt><trkpt lat="39.8116107" lon="-0.7256174"><ele>852.9999999999999</ele><time>2026-04-04T08:24:33.612Z</time></trkpt><trkpt lat="39.8116509" lon="-0.7255453"><ele>853.0</ele><time>2026-04-04T08:24:34.612Z</time></trkpt><trkpt lat="39.8116989" lon="-0.7254776"><ele>853.0</ele><time>2026-04-04T08:24:35.612Z</time></trkpt><trkpt lat="39.8117489" lon="-0.7254154"><ele>853.0</ele><time>2026-04-04T08:24:36.611Z</time></trkpt><trkpt lat="39.8118022" lon="-0.7253579"><ele>852.9999999999999</ele><time>2026-04-04T08:24:37.612Z</time></trkpt><trkpt lat="39.8118609" lon="-0.7253008"><ele>853.0</ele><time>2026-04-04T08:24:38.611Z</time></trkpt><trkpt lat="39.8119658" lon="-0.7252307"><ele>854.4999999999999</ele><time>2026-04-04T08:24:40.611Z</time></trkpt><trkpt lat="39.8120658" lon="-0.7252012"><ele>856.0</ele><time>2026-04-04T08:24:42.611Z</time></trkpt><trkpt lat="39.8121478" lon="-0.7252253"><ele>857.5</ele><time>2026-04-04T08:24:44.613Z</time></trkpt><trkpt lat="39.8122043" lon="-0.7252856"><ele>859.0</ele><time>2026-04-04T08:24:46.613Z</time></trkpt><trkpt lat="39.8122596" lon="-0.7253342"><ele>860.4999999999999</ele><time>2026-04-04T08:24:48.61Z</time></trkpt><trkpt lat="39.8123079" lon="-0.7254001"><ele>862.0</ele><time>2026-04-04T08:24:50.611Z</time></trkpt><trkpt lat="39.8123778" lon="-0.7254816"><ele>862.6666666666666</ele><time>2026-04-04T08:24:53.612Z</time></trkpt><trkpt lat="39.8124389" lon="-0.7255486"><ele>863.3333333333333</ele><time>2026-04-04T08:24:55.611Z</time></trkpt><trkpt lat="39.8124914" lon="-0.7256005"><ele>864.0</ele><time>2026-04-04T08:24:57.611Z</time></trkpt><trkpt lat="39.8125574" lon="-0.7256766"><ele>864.6666666666667</ele><time>2026-04-04T08:25:00.611Z</time></trkpt><trkpt lat="39.8126302" lon="-0.7257521"><ele>865.3333333333334</ele><time>2026-04-04T08:25:02.612Z</time></trkpt><trkpt lat="39.8127108" lon="-0.725818"><ele>866.0</ele><time>2026-04-04T08:25:04.611Z</time></trkpt><trkpt lat="39.812782" lon="-0.7258645"><ele>866.6666666666667</ele><time>2026-04-04T08:25:06.613Z</time></trkpt><trkpt lat="39.8128663" lon="-0.7259028"><ele>867.3333333333334</ele><time>2026-04-04T08:25:09.612Z</time></trkpt><trkpt lat="39.8128936" lon="-0.7259889"><ele>868.0</ele><time>2026-04-04T08:25:13.612Z</time></trkpt><trkpt lat="39.8128044" lon="-0.7260152"><ele>868.6666666666667</ele><time>2026-04-04T08:25:17.612Z</time></trkpt><trkpt lat="39.8127318" lon="-0.726046"><ele>869.3333333333334</ele><time>2026-04-04T08:25:19.612Z</time></trkpt><trkpt lat="39.8126676" lon="-0.7260913"><ele>870.0</ele><time>2026-04-04T08:25:22.611Z</time></trkpt><trkpt lat="39.8125839" lon="-0.7261364"><ele>872.0</ele><time>2026-04-04T08:25:27.611Z</time></trkpt><trkpt lat="39.8125189" lon="-0.7261742"><ele>874.0</ele><time>2026-04-04T08:25:29.612Z</time></trkpt><trkpt lat="39.8124582" lon="-0.7262099"><ele>876.0</ele><time>2026-04-04T08:25:31.612Z</time></trkpt><trkpt lat="39.8123807" lon="-0.7262868"><ele>878.0</ele><time>2026-04-04T08:25:33.61Z</time></trkpt><trkpt lat="39.8123077" lon="-0.726354"><ele>880.0</ele><time>2026-04-04T08:25:35.612Z</time></trkpt><trkpt lat="39.8123147" lon="-0.7264635"><ele>882.0</ele><time>2026-04-04T08:25:38.612Z</time></trkpt><trkpt lat="39.8123423" lon="-0.7265582"><ele>882.0</ele><time>2026-04-04T08:25:40.612Z</time></trkpt><trkpt lat="39.8123686" lon="-0.7266439"><ele>882.0</ele><time>2026-04-04T08:25:42.612Z</time></trkpt><trkpt lat="39.812403" lon="-0.7267358"><ele>882.0</ele><time>2026-04-04T08:25:45.612Z</time></trkpt><trkpt lat="39.8124627" lon="-0.7268131"><ele>882.0</ele><time>2026-04-04T08:25:47.61Z</time></trkpt><trkpt lat="39.812511" lon="-0.7268989"><ele>882.0</ele><time>2026-04-04T08:25:49.612Z</time></trkpt><trkpt lat="39.8125759" lon="-0.726987"><ele>882.0</ele><time>2026-04-04T08:25:52.611Z</time></trkpt><trkpt lat="39.812632" lon="-0.7270751"><ele>885.6666666666666</ele><time>2026-04-04T08:25:54.613Z</time></trkpt><trkpt lat="39.8126787" lon="-0.727178"><ele>889.3333333333333</ele><time>2026-04-04T08:25:56.611Z</time></trkpt><trkpt lat="39.8127338" lon="-0.7272652"><ele>893.0</ele><time>2026-04-04T08:25:58.612Z</time></trkpt><trkpt lat="39.8127981" lon="-0.7273334"><ele>896.6666666666666</ele><time>2026-04-04T08:26:00.611Z</time></trkpt><trkpt lat="39.8128545" lon="-0.7274047"><ele>900.3333333333333</ele><time>2026-04-04T08:26:02.613Z</time></trkpt><trkpt lat="39.8129081" lon="-0.7274728"><ele>904.0</ele><time>2026-04-04T08:26:05.612Z</time></trkpt><trkpt lat="39.8129646" lon="-0.7275304"><ele>904.0</ele><time>2026-04-04T08:26:08.611Z</time></trkpt><trkpt lat="39.8130174" lon="-0.727606"><ele>904.0000000000001</ele><time>2026-04-04T08:26:10.613Z</time></trkpt><trkpt lat="39.8130758" lon="-0.7277047"><ele>904.0000000000001</ele><time>2026-04-04T08:26:12.611Z</time></trkpt><trkpt lat="39.8131458" lon="-0.7277918"><ele>904.0</ele><time>2026-04-04T08:26:14.613Z</time></trkpt><trkpt lat="39.8132446" lon="-0.7278902"><ele>904.0</ele><time>2026-04-04T08:26:16.612Z</time></trkpt><trkpt lat="39.8132989" lon="-0.7279515"><ele>905.1666666666666</ele><time>2026-04-04T08:26:17.611Z</time></trkpt><trkpt lat="39.8133493" lon="-0.7280129"><ele>906.3333333333333</ele><time>2026-04-04T08:26:18.612Z</time></trkpt><trkpt lat="39.8134022" lon="-0.7280827"><ele>907.5</ele><time>2026-04-04T08:26:19.613Z</time></trkpt><trkpt lat="39.8134569" lon="-0.7281532"><ele>908.6666666666667</ele><time>2026-04-04T08:26:20.61Z</time></trkpt><trkpt lat="39.8135119" lon="-0.7282429"><ele>909.8333333333334</ele><time>2026-04-04T08:26:21.612Z</time></trkpt><trkpt lat="39.8135692" lon="-0.7283201"><ele>911.0</ele><time>2026-04-04T08:26:22.612Z</time></trkpt><trkpt lat="39.8136117" lon="-0.7283928"><ele>911.0</ele><time>2026-04-04T08:26:23.611Z</time></trkpt><trkpt lat="39.8136633" lon="-0.7284715"><ele>910.9999999999999</ele><time>2026-04-04T08:26:24.613Z</time></trkpt><trkpt lat="39.8137438" lon="-0.7286041"><ele>910.9999999999999</ele><time>2026-04-04T08:26:26.612Z</time></trkpt><trkpt lat="39.8137774" lon="-0.7286811"><ele>911.0</ele><time>2026-04-04T08:26:27.612Z</time></trkpt><trkpt lat="39.8138394" lon="-0.7287961"><ele>911.0</ele><time>2026-04-04T08:26:29.611Z</time></trkpt><trkpt lat="39.8138898" lon="-0.7288709"><ele>909.6666666666667</ele><time>2026-04-04T08:26:31.613Z</time></trkpt><trkpt lat="39.8139132" lon="-0.728965"><ele>908.3333333333334</ele><time>2026-04-04T08:26:33.611Z</time></trkpt><trkpt lat="39.8139671" lon="-0.729035"><ele>907.0</ele><time>2026-04-04T08:26:36.611Z</time></trkpt><trkpt lat="39.8140554" lon="-0.7290887"><ele>905.6666666666667</ele><time>2026-04-04T08:26:39.611Z</time></trkpt><trkpt lat="39.8141222" lon="-0.7291484"><ele>904.3333333333334</ele><time>2026-04-04T08:26:41.613Z</time></trkpt><trkpt lat="39.8141862" lon="-0.7292067"><ele>903.0</ele><time>2026-04-04T08:26:43.612Z</time></trkpt><trkpt lat="39.8142189" lon="-0.7293275"><ele>902.1666666666666</ele><time>2026-04-04T08:26:45.611Z</time></trkpt><trkpt lat="39.8142657" lon="-0.7294517"><ele>901.3333333333333</ele><time>2026-04-04T08:26:47.61Z</time></trkpt><trkpt lat="39.8143002" lon="-0.7295449"><ele>900.5</ele><time>2026-04-04T08:26:49.611Z</time></trkpt><trkpt lat="39.8143527" lon="-0.729613"><ele>899.6666666666666</ele><time>2026-04-04T08:33:46.611Z</time></trkpt><trkpt lat="39.8144069" lon="-0.7296853"><ele>898.8333333333333</ele><time>2026-04-04T08:34:23.611Z</time></trkpt><trkpt lat="39.8144637" lon="-0.7297945"><ele>898.0</ele><time>2026-04-04T08:34:25.612Z</time></trkpt><trkpt lat="39.8145046" lon="-0.7299394"><ele>897.9999999999999</ele><time>2026-04-04T08:34:27.611Z</time></trkpt><trkpt lat="39.8145532" lon="-0.730067"><ele>898.0</ele><time>2026-04-04T08:34:29.612Z</time></trkpt><trkpt lat="39.8145697" lon="-0.730149"><ele>898.0</ele><time>2026-04-04T08:34:30.611Z</time></trkpt><trkpt lat="39.8146244" lon="-0.7302785"><ele>898.0</ele><time>2026-04-04T08:34:32.611Z</time></trkpt><trkpt lat="39.8146628" lon="-0.7303468"><ele>897.9999999999999</ele><time>2026-04-04T08:34:33.613Z</time></trkpt><trkpt lat="39.8147004" lon="-0.7304353"><ele>898.0</ele><time>2026-04-04T08:34:34.612Z</time></trkpt><trkpt lat="39.8147366" lon="-0.7305114"><ele>899.9999999999999</ele><time>2026-04-04T08:34:35.613Z</time></trkpt><trkpt lat="39.8147919" lon="-0.7305871"><ele>902.0</ele><time>2026-04-04T08:34:36.612Z</time></trkpt><trkpt lat="39.8148488" lon="-0.7306426"><ele>904.0</ele><time>2026-04-04T08:34:37.611Z</time></trkpt><trkpt lat="39.8149176" lon="-0.7306884"><ele>906.0</ele><time>2026-04-04T08:34:38.611Z</time></trkpt><trkpt lat="39.8149869" lon="-0.730732"><ele>907.9999999999999</ele><time>2026-04-04T08:34:39.612Z</time></trkpt><trkpt lat="39.8150515" lon="-0.730779"><ele>910.0</ele><time>2026-04-04T08:34:40.611Z</time></trkpt><trkpt lat="39.8151211" lon="-0.7308277"><ele>909.2857142857142</ele><time>2026-04-04T08:34:41.612Z</time></trkpt><trkpt lat="39.8151994" lon="-0.73087"><ele>908.5714285714286</ele><time>2026-04-04T08:34:42.612Z</time></trkpt><trkpt lat="39.8152783" lon="-0.7309146"><ele>907.8571428571429</ele><time>2026-04-04T08:34:43.612Z</time></trkpt><trkpt lat="39.8153467" lon="-0.7309442"><ele>907.1428571428571</ele><time>2026-04-04T08:34:44.611Z</time></trkpt><trkpt lat="39.8154099" lon="-0.7309755"><ele>906.4285714285713</ele><time>2026-04-04T08:34:45.61Z</time></trkpt><trkpt lat="39.8154734" lon="-0.7310089"><ele>905.7142857142857</ele><time>2026-04-04T08:34:46.61Z</time></trkpt><trkpt lat="39.8155384" lon="-0.7310296"><ele>905.0</ele><time>2026-04-04T08:34:47.611Z</time></trkpt><trkpt lat="39.8156039" lon="-0.7310525"><ele>907.0000000000001</ele><time>2026-04-04T08:34:48.612Z</time></trkpt><trkpt lat="39.8156756" lon="-0.7310926"><ele>909.0</ele><time>2026-04-04T08:34:49.612Z</time></trkpt><trkpt lat="39.815742" lon="-0.731123"><ele>911.0</ele><time>2026-04-04T08:34:50.61Z</time></trkpt><trkpt lat="39.815806" lon="-0.7311325"><ele>913.0</ele><time>2026-04-04T08:34:51.611Z</time></trkpt><trkpt lat="39.8159457" lon="-0.7311263"><ele>915.0000000000001</ele><time>2026-04-04T08:34:53.611Z</time></trkpt><trkpt lat="39.8160164" lon="-0.7311271"><ele>917.0</ele><time>2026-04-04T08:34:54.612Z</time></trkpt><trkpt lat="39.8160889" lon="-0.7311461"><ele>917.0000000000001</ele><time>2026-04-04T08:34:55.61Z</time></trkpt><trkpt lat="39.816159" lon="-0.7311638"><ele>917.0</ele><time>2026-04-04T08:34:56.611Z</time></trkpt><trkpt lat="39.8162395" lon="-0.7311708"><ele>917.0</ele><time>2026-04-04T08:34:57.612Z</time></trkpt><trkpt lat="39.816311" lon="-0.7311668"><ele>917.0</ele><time>2026-04-04T08:34:58.611Z</time></trkpt><trkpt lat="39.8164333" lon="-0.7311559"><ele>917.0000000000001</ele><time>2026-04-04T08:35:00.612Z</time></trkpt><trkpt lat="39.816496" lon="-0.7311753"><ele>917.0</ele><time>2026-04-04T08:35:01.611Z</time></trkpt><trkpt lat="39.816607" lon="-0.7311723"><ele>917.0000000000001</ele><time>2026-04-04T08:35:03.612Z</time></trkpt><trkpt lat="39.8167148" lon="-0.7312364"><ele>917.0</ele><time>2026-04-04T08:35:05.613Z</time></trkpt><trkpt lat="39.81679" lon="-0.7312952"><ele>917.0</ele><time>2026-04-04T08:35:06.613Z</time></trkpt><trkpt lat="39.8168611" lon="-0.7313422"><ele>917.0</ele><time>2026-04-04T08:35:07.61Z</time></trkpt><trkpt lat="39.8169293" lon="-0.7313941"><ele>917.0000000000001</ele><time>2026-04-04T08:35:08.611Z</time></trkpt><trkpt lat="39.8169902" lon="-0.7314551"><ele>917.0</ele><time>2026-04-04T08:35:09.611Z</time></trkpt><trkpt lat="39.8170485" lon="-0.7315214"><ele>916.4000000000001</ele><time>2026-04-04T08:35:10.611Z</time></trkpt><trkpt lat="39.8171121" lon="-0.731585"><ele>915.8000000000001</ele><time>2026-04-04T08:35:11.612Z</time></trkpt><trkpt lat="39.8171614" lon="-0.7316499"><ele>915.2</ele><time>2026-04-04T08:35:12.611Z</time></trkpt><trkpt lat="39.8172554" lon="-0.7317931"><ele>914.6</ele><time>2026-04-04T08:35:14.611Z</time></trkpt><trkpt lat="39.8173121" lon="-0.7318898"><ele>914.0</ele><time>2026-04-04T08:35:15.611Z</time></trkpt><trkpt lat="39.81736" lon="-0.7319897"><ele>914.0000000000001</ele><time>2026-04-04T08:35:16.61Z</time></trkpt><trkpt lat="39.8174101" lon="-0.732077"><ele>914.0</ele><time>2026-04-04T08:35:17.612Z</time></trkpt><trkpt lat="39.8174562" lon="-0.7321585"><ele>914.0</ele><time>2026-04-04T08:35:18.61Z</time></trkpt><trkpt lat="39.8175152" lon="-0.7322302"><ele>914.0</ele><time>2026-04-04T08:35:19.611Z</time></trkpt><trkpt lat="39.8175689" lon="-0.7322978"><ele>914.0000000000001</ele><time>2026-04-04T08:35:20.61Z</time></trkpt><trkpt lat="39.8176336" lon="-0.7324129"><ele>914.0</ele><time>2026-04-04T08:35:22.611Z</time></trkpt><trkpt lat="39.8176948" lon="-0.7325485"><ele>915.1666666666667</ele><time>2026-04-04T08:35:24.611Z</time></trkpt><trkpt lat="39.8177335" lon="-0.7326346"><ele>916.3333333333334</ele><time>2026-04-04T08:35:25.611Z</time></trkpt><trkpt lat="39.8177695" lon="-0.7327137"><ele>917.5</ele><time>2026-04-04T08:35:26.61Z</time></trkpt><trkpt lat="39.817823" lon="-0.7328509"><ele>918.6666666666667</ele><time>2026-04-04T08:35:28.61Z</time></trkpt><trkpt lat="39.8178403" lon="-0.7329515"><ele>919.8333333333334</ele><time>2026-04-04T08:35:29.61Z</time></trkpt><trkpt lat="39.8178576" lon="-0.7330624"><ele>921.0</ele><time>2026-04-04T08:35:30.613Z</time></trkpt><trkpt lat="39.8178703" lon="-0.7331609"><ele>921.0</ele><time>2026-04-04T08:35:31.618Z</time></trkpt><trkpt lat="39.8178941" lon="-0.73325"><ele>920.9999999999999</ele><time>2026-04-04T08:35:32.612Z</time></trkpt><trkpt lat="39.8179557" lon="-0.7333428"><ele>920.9999999999999</ele><time>2026-04-04T08:35:34.612Z</time></trkpt><trkpt lat="39.8180491" lon="-0.733374"><ele>921.0</ele><time>2026-04-04T08:35:36.611Z</time></trkpt><trkpt lat="39.8181623" lon="-0.7333454"><ele>921.0</ele><time>2026-04-04T08:35:38.611Z</time></trkpt><trkpt lat="39.8182307" lon="-0.7333164"><ele>921.0</ele><time>2026-04-04T08:35:40.612Z</time></trkpt><trkpt lat="39.818304" lon="-0.7333151"><ele>920.9999999999999</ele><time>2026-04-04T08:35:53.611Z</time></trkpt><trkpt lat="39.818374" lon="-0.7333585"><ele>920.9999999999999</ele><time>2026-04-04T08:35:55.612Z</time></trkpt><trkpt lat="39.8184479" lon="-0.7334692"><ele>921.0</ele><time>2026-04-04T08:35:57.61Z</time></trkpt><trkpt lat="39.8185355" lon="-0.7335968"><ele>921.0</ele><time>2026-04-04T08:35:59.611Z</time></trkpt><trkpt lat="39.8185915" lon="-0.7336667"><ele>921.3333333333334</ele><time>2026-04-04T08:36:00.612Z</time></trkpt><trkpt lat="39.8186398" lon="-0.733723"><ele>921.6666666666667</ele><time>2026-04-04T08:36:01.611Z</time></trkpt><trkpt lat="39.8187216" lon="-0.7338187"><ele>922.0</ele><time>2026-04-04T08:36:03.611Z</time></trkpt><trkpt lat="39.8187722" lon="-0.7339325"><ele>922.3333333333334</ele><time>2026-04-04T08:36:05.61Z</time></trkpt><trkpt lat="39.8188045" lon="-0.7340426"><ele>922.6666666666667</ele><time>2026-04-04T08:36:07.61Z</time></trkpt><trkpt lat="39.8188688" lon="-0.7341095"><ele>923.0</ele><time>2026-04-04T08:36:09.61Z</time></trkpt><trkpt lat="39.8189261" lon="-0.734175"><ele>923.0000000000001</ele><time>2026-04-04T08:36:11.612Z</time></trkpt><trkpt lat="39.8189736" lon="-0.7342445"><ele>923.0</ele><time>2026-04-04T08:36:31.611Z</time></trkpt><trkpt lat="39.8190245" lon="-0.7342965"><ele>923.0</ele><time>2026-04-04T08:36:33.611Z</time></trkpt><trkpt lat="39.8190874" lon="-0.7343924"><ele>923.0</ele><time>2026-04-04T08:36:35.612Z</time></trkpt><trkpt lat="39.8191272" lon="-0.7345053"><ele>923.0000000000001</ele><time>2026-04-04T08:36:37.612Z</time></trkpt><trkpt lat="39.8191649" lon="-0.734649"><ele>923.0</ele><time>2026-04-04T08:36:39.612Z</time></trkpt><trkpt lat="39.8191749" lon="-0.7348136"><ele>923.3333333333334</ele><time>2026-04-04T08:36:41.612Z</time></trkpt><trkpt lat="39.8191847" lon="-0.7348974"><ele>923.6666666666667</ele><time>2026-04-04T08:36:42.612Z</time></trkpt><trkpt lat="39.819194" lon="-0.7349878"><ele>924.0</ele><time>2026-04-04T08:36:43.612Z</time></trkpt><trkpt lat="39.8192106" lon="-0.7350724"><ele>924.3333333333333</ele><time>2026-04-04T08:36:44.61Z</time></trkpt><trkpt lat="39.8192238" lon="-0.7351531"><ele>924.6666666666666</ele><time>2026-04-04T08:36:45.611Z</time></trkpt><trkpt lat="39.8192589" lon="-0.7352916"><ele>925.0</ele><time>2026-04-04T08:36:47.611Z</time></trkpt><trkpt lat="39.8193" lon="-0.7354331"><ele>926.2</ele><time>2026-04-04T08:36:49.611Z</time></trkpt><trkpt lat="39.819346" lon="-0.7355516"><ele>927.4</ele><time>2026-04-04T08:36:51.612Z</time></trkpt><trkpt lat="39.81939" lon="-0.7356529"><ele>928.5999999999999</ele><time>2026-04-04T08:36:53.611Z</time></trkpt><trkpt lat="39.8194528" lon="-0.7357103"><ele>929.8</ele><time>2026-04-04T08:36:55.612Z</time></trkpt><trkpt lat="39.8195281" lon="-0.7358036"><ele>931.0</ele><time>2026-04-04T08:36:57.61Z</time></trkpt><trkpt lat="39.8196134" lon="-0.7359135"><ele>931.0</ele><time>2026-04-04T08:36:59.611Z</time></trkpt><trkpt lat="39.8196731" lon="-0.7360356"><ele>930.9999999999999</ele><time>2026-04-04T08:37:01.611Z</time></trkpt><trkpt lat="39.819721" lon="-0.7361265"><ele>930.9999999999999</ele><time>2026-04-04T08:37:03.612Z</time></trkpt><trkpt lat="39.8197623" lon="-0.7362137"><ele>931.0</ele><time>2026-04-04T08:37:05.612Z</time></trkpt><trkpt lat="39.8198091" lon="-0.7363219"><ele>931.0</ele><time>2026-04-04T08:37:08.611Z</time></trkpt><trkpt lat="39.819861" lon="-0.736433"><ele>932.1999999999999</ele><time>2026-04-04T08:37:10.612Z</time></trkpt><trkpt lat="39.8199188" lon="-0.7365492"><ele>933.3999999999999</ele><time>2026-04-04T08:37:12.611Z</time></trkpt><trkpt lat="39.8199512" lon="-0.7366775"><ele>934.6</ele><time>2026-04-04T08:37:14.612Z</time></trkpt><trkpt lat="39.8199836" lon="-0.7368014"><ele>935.8</ele><time>2026-04-04T08:37:16.613Z</time></trkpt><trkpt lat="39.8200097" lon="-0.7368964"><ele>937.0</ele><time>2026-04-04T08:37:18.611Z</time></trkpt><trkpt lat="39.8200526" lon="-0.7370183"><ele>939.6666666666666</ele><time>2026-04-04T08:37:20.61Z</time></trkpt><trkpt lat="39.8200871" lon="-0.7371392"><ele>942.3333333333333</ele><time>2026-04-04T08:37:22.61Z</time></trkpt><trkpt lat="39.8200923" lon="-0.7372383"><ele>945.0</ele><time>2026-04-04T08:37:57.61Z</time></trkpt><trkpt lat="39.8200739" lon="-0.7373411"><ele>947.6666666666667</ele><time>2026-04-04T08:38:00.612Z</time></trkpt><trkpt lat="39.8200195" lon="-0.7373905"><ele>950.3333333333334</ele><time>2026-04-04T08:38:10.61Z</time></trkpt><trkpt lat="39.8200787" lon="-0.7373542"><ele>953.0</ele><time>2026-04-04T08:40:16.611Z</time></trkpt><trkpt lat="39.8200964" lon="-0.7375162"><ele>953.0000000000001</ele><time>2026-04-04T08:43:32.611Z</time></trkpt><trkpt lat="39.8201004" lon="-0.7376348"><ele>953.0</ele><time>2026-04-04T08:43:34.611Z</time></trkpt><trkpt lat="39.8201273" lon="-0.7377335"><ele>953.0</ele><time>2026-04-04T08:43:36.615Z</time></trkpt><trkpt lat="39.8201109" lon="-0.7378327"><ele>953.0</ele><time>2026-04-04T08:43:38.612Z</time></trkpt><trkpt lat="39.8201183" lon="-0.7379487"><ele>953.0000000000001</ele><time>2026-04-04T08:43:40.61Z</time></trkpt><trkpt lat="39.820121" lon="-0.738037"><ele>953.0</ele><time>2026-04-04T08:43:42.611Z</time></trkpt><trkpt lat="39.8201191" lon="-0.7381207"><ele>954.5999999999999</ele><time>2026-04-04T08:43:44.612Z</time></trkpt><trkpt lat="39.8201232" lon="-0.7382419"><ele>956.1999999999999</ele><time>2026-04-04T08:43:46.612Z</time></trkpt><trkpt lat="39.8201167" lon="-0.73836"><ele>957.8</ele><time>2026-04-04T08:43:48.61Z</time></trkpt><trkpt lat="39.8200658" lon="-0.7384691"><ele>959.4</ele><time>2026-04-04T08:43:50.61Z</time></trkpt><trkpt lat="39.8200283" lon="-0.7385705"><ele>961.0</ele><time>2026-04-04T08:43:52.611Z</time></trkpt><trkpt lat="39.8199886" lon="-0.7386798"><ele>962.1666666666666</ele><time>2026-04-04T08:43:54.611Z</time></trkpt><trkpt lat="39.8199637" lon="-0.7387819"><ele>963.3333333333333</ele><time>2026-04-04T08:43:56.61Z</time></trkpt><trkpt lat="39.8199474" lon="-0.7388725"><ele>964.5</ele><time>2026-04-04T08:43:58.61Z</time></trkpt><trkpt lat="39.8199389" lon="-0.7389696"><ele>965.6666666666667</ele><time>2026-04-04T08:44:00.61Z</time></trkpt><trkpt lat="39.8199033" lon="-0.7390683"><ele>966.8333333333334</ele><time>2026-04-04T08:44:03.609Z</time></trkpt><trkpt lat="39.8198848" lon="-0.7391611"><ele>968.0</ele><time>2026-04-04T08:44:06.611Z</time></trkpt><trkpt lat="39.8198908" lon="-0.7392447"><ele>968.0000000000001</ele><time>2026-04-04T08:44:08.611Z</time></trkpt><trkpt lat="39.8198916" lon="-0.7393298"><ele>968.0</ele><time>2026-04-04T08:44:10.612Z</time></trkpt><trkpt lat="39.8198787" lon="-0.7394151"><ele>968.0</ele><time>2026-04-04T08:44:12.611Z</time></trkpt><trkpt lat="39.8198371" lon="-0.7395088"><ele>968.0</ele><time>2026-04-04T08:44:14.609Z</time></trkpt><trkpt lat="39.8198063" lon="-0.739596"><ele>968.0000000000001</ele><time>2026-04-04T08:44:16.61Z</time></trkpt><trkpt lat="39.8197904" lon="-0.7397126"><ele>968.0</ele><time>2026-04-04T08:44:18.612Z</time></trkpt><trkpt lat="39.8197552" lon="-0.7398197"><ele>969.5999999999999</ele><time>2026-04-04T08:44:20.61Z</time></trkpt><trkpt lat="39.8197087" lon="-0.7398985"><ele>971.1999999999999</ele><time>2026-04-04T08:44:22.612Z</time></trkpt><trkpt lat="39.8196575" lon="-0.7399948"><ele>972.8</ele><time>2026-04-04T08:44:24.61Z</time></trkpt><trkpt lat="39.8195997" lon="-0.7401211"><ele>974.4</ele><time>2026-04-04T08:44:26.611Z</time></trkpt><trkpt lat="39.8195597" lon="-0.7402483"><ele>976.0</ele><time>2026-04-04T08:44:28.61Z</time></trkpt><trkpt lat="39.8195474" lon="-0.7403553"><ele>977.9999999999999</ele><time>2026-04-04T08:44:30.611Z</time></trkpt><trkpt lat="39.8195317" lon="-0.7404893"><ele>980.0</ele><time>2026-04-04T08:44:32.612Z</time></trkpt><trkpt lat="39.819493" lon="-0.7405965"><ele>982.0</ele><time>2026-04-04T08:44:34.612Z</time></trkpt><trkpt lat="39.8194793" lon="-0.740691"><ele>984.0</ele><time>2026-04-04T08:44:36.61Z</time></trkpt><trkpt lat="39.8194873" lon="-0.7408002"><ele>985.9999999999999</ele><time>2026-04-04T08:44:38.611Z</time></trkpt><trkpt lat="39.8194634" lon="-0.7409032"><ele>988.0</ele><time>2026-04-04T08:44:40.611Z</time></trkpt><trkpt lat="39.8194599" lon="-0.7409978"><ele>988.9999999999999</ele><time>2026-04-04T08:44:42.61Z</time></trkpt><trkpt lat="39.8194499" lon="-0.7410829"><ele>990.0</ele><time>2026-04-04T08:44:45.61Z</time></trkpt><trkpt lat="39.819448" lon="-0.741177"><ele>991.0</ele><time>2026-04-04T08:45:17.611Z</time></trkpt><trkpt lat="39.8194501" lon="-0.7413113"><ele>992.0</ele><time>2026-04-04T08:45:19.611Z</time></trkpt><trkpt lat="39.8194518" lon="-0.7414544"><ele>992.9999999999999</ele><time>2026-04-04T08:45:21.612Z</time></trkpt><trkpt lat="39.8194524" lon="-0.7415377"><ele>994.0</ele><time>2026-04-04T08:45:22.61Z</time></trkpt><trkpt lat="39.8194672" lon="-0.7416771"><ele>994.0</ele><time>2026-04-04T08:45:24.611Z</time></trkpt><trkpt lat="39.819485" lon="-0.7418163"><ele>994.0000000000001</ele><time>2026-04-04T08:45:26.611Z</time></trkpt><trkpt lat="39.8194988" lon="-0.7419365"><ele>994.0000000000001</ele><time>2026-04-04T08:45:28.611Z</time></trkpt><trkpt lat="39.8195423" lon="-0.7420646"><ele>994.0</ele><time>2026-04-04T08:45:30.611Z</time></trkpt><trkpt lat="39.8196093" lon="-0.7421943"><ele>994.0</ele><time>2026-04-04T08:45:32.611Z</time></trkpt><trkpt lat="39.8196471" lon="-0.7422653"><ele>993.3333333333333</ele><time>2026-04-04T08:45:33.611Z</time></trkpt><trkpt lat="39.8196997" lon="-0.7423366"><ele>992.6666666666666</ele><time>2026-04-04T08:45:34.61Z</time></trkpt><trkpt lat="39.8197552" lon="-0.742397"><ele>992.0</ele><time>2026-04-04T08:45:35.609Z</time></trkpt><trkpt lat="39.8198181" lon="-0.7424421"><ele>991.3333333333333</ele><time>2026-04-04T08:45:36.61Z</time></trkpt><trkpt lat="39.8198729" lon="-0.7424972"><ele>990.6666666666666</ele><time>2026-04-04T08:45:37.611Z</time></trkpt><trkpt lat="39.8199707" lon="-0.7425908"><ele>990.0</ele><time>2026-04-04T08:45:39.61Z</time></trkpt><trkpt lat="39.8200326" lon="-0.7426595"><ele>988.6666666666666</ele><time>2026-04-04T08:45:41.611Z</time></trkpt><trkpt lat="39.8200573" lon="-0.7427455"><ele>987.3333333333333</ele><time>2026-04-04T08:46:24.611Z</time></trkpt><trkpt lat="39.8200871" lon="-0.7428227"><ele>986.0</ele><time>2026-04-04T08:46:27.61Z</time></trkpt><trkpt lat="39.8201509" lon="-0.7429075"><ele>984.6666666666666</ele><time>2026-04-04T08:46:30.61Z</time></trkpt><trkpt lat="39.8202126" lon="-0.7429651"><ele>983.3333333333333</ele><time>2026-04-04T08:46:32.609Z</time></trkpt><trkpt lat="39.8202521" lon="-0.74305"><ele>982.0</ele><time>2026-04-04T08:46:34.611Z</time></trkpt><trkpt lat="39.8202804" lon="-0.7431555"><ele>984.4999999999999</ele><time>2026-04-04T08:46:36.609Z</time></trkpt><trkpt lat="39.820335" lon="-0.7432265"><ele>987.0</ele><time>2026-04-04T08:46:38.611Z</time></trkpt><trkpt lat="39.8203991" lon="-0.7432905"><ele>989.5</ele><time>2026-04-04T08:46:40.611Z</time></trkpt><trkpt lat="39.8204456" lon="-0.7433596"><ele>992.0</ele><time>2026-04-04T08:46:43.61Z</time></trkpt><trkpt lat="39.8204612" lon="-0.743449"><ele>994.4999999999999</ele><time>2026-04-04T08:46:48.61Z</time></trkpt><trkpt lat="39.8204072" lon="-0.7435419"><ele>997.0</ele><time>2026-04-04T08:46:50.61Z</time></trkpt><trkpt lat="39.8203079" lon="-0.7436004"><ele>997.0</ele><time>2026-04-04T08:46:52.611Z</time></trkpt><trkpt lat="39.8202034" lon="-0.7436152"><ele>997.0</ele><time>2026-04-04T08:46:54.611Z</time></trkpt><trkpt lat="39.8200921" lon="-0.7436098"><ele>997.0</ele><time>2026-04-04T08:46:56.611Z</time></trkpt><trkpt lat="39.8199794" lon="-0.7436374"><ele>997.0</ele><time>2026-04-04T08:46:58.611Z</time></trkpt><trkpt lat="39.8198876" lon="-0.7436089"><ele>997.0</ele><time>2026-04-04T08:47:00.61Z</time></trkpt><trkpt lat="39.8198184" lon="-0.7435802"><ele>995.9999999999999</ele><time>2026-04-04T08:47:02.61Z</time></trkpt><trkpt lat="39.8197244" lon="-0.7435772"><ele>995.0</ele><time>2026-04-04T08:47:05.611Z</time></trkpt><trkpt lat="39.8196544" lon="-0.7436073"><ele>994.0</ele><time>2026-04-04T08:47:07.61Z</time></trkpt><trkpt lat="39.8195959" lon="-0.7436653"><ele>993.0</ele><time>2026-04-04T08:47:09.611Z</time></trkpt><trkpt lat="39.8195183" lon="-0.7436941"><ele>991.9999999999999</ele><time>2026-04-04T08:47:12.612Z</time></trkpt><trkpt lat="39.8194316" lon="-0.743725"><ele>991.0</ele><time>2026-04-04T08:47:15.612Z</time></trkpt><trkpt lat="39.8193811" lon="-0.7437777"><ele>990.9999999999999</ele><time>2026-04-04T08:47:17.61Z</time></trkpt><trkpt lat="39.8193372" lon="-0.7438428"><ele>991.0</ele><time>2026-04-04T08:47:20.611Z</time></trkpt><trkpt lat="39.8192885" lon="-0.743932"><ele>991.0</ele><time>2026-04-04T08:47:23.61Z</time></trkpt><trkpt lat="39.8192198" lon="-0.7440091"><ele>991.0</ele><time>2026-04-04T08:47:26.611Z</time></trkpt><trkpt lat="39.8191505" lon="-0.7440651"><ele>990.9999999999999</ele><time>2026-04-04T08:47:29.612Z</time></trkpt><trkpt lat="39.8190767" lon="-0.7441169"><ele>991.0</ele><time>2026-04-04T08:47:32.609Z</time></trkpt><trkpt lat="39.8190249" lon="-0.7442014"><ele>988.6666666666666</ele><time>2026-04-04T08:47:34.61Z</time></trkpt><trkpt lat="39.818983" lon="-0.7442827"><ele>986.3333333333333</ele><time>2026-04-04T08:47:36.611Z</time></trkpt><trkpt lat="39.8189387" lon="-0.7443653"><ele>984.0</ele><time>2026-04-04T08:47:38.609Z</time></trkpt><trkpt lat="39.8188994" lon="-0.7444415"><ele>981.6666666666667</ele><time>2026-04-04T08:47:40.612Z</time></trkpt><trkpt lat="39.8188537" lon="-0.7445277"><ele>979.3333333333334</ele><time>2026-04-04T08:47:43.611Z</time></trkpt><trkpt lat="39.8188148" lon="-0.744611"><ele>977.0</ele><time>2026-04-04T08:47:47.611Z</time></trkpt><trkpt lat="39.8187389" lon="-0.7446922"><ele>975.3333333333334</ele><time>2026-04-04T08:48:13.609Z</time></trkpt><trkpt lat="39.8186611" lon="-0.7447826"><ele>973.6666666666667</ele><time>2026-04-04T08:48:15.61Z</time></trkpt><trkpt lat="39.8185935" lon="-0.7448503"><ele>972.0</ele><time>2026-04-04T08:48:17.61Z</time></trkpt><trkpt lat="39.8185298" lon="-0.7449035"><ele>970.3333333333333</ele><time>2026-04-04T08:48:19.61Z</time></trkpt><trkpt lat="39.8184776" lon="-0.744977"><ele>968.6666666666666</ele><time>2026-04-04T08:48:21.611Z</time></trkpt><trkpt lat="39.8184383" lon="-0.7450471"><ele>967.0</ele><time>2026-04-04T08:48:22.61Z</time></trkpt><trkpt lat="39.8183968" lon="-0.745109"><ele>964.7142857142858</ele><time>2026-04-04T08:48:23.611Z</time></trkpt><trkpt lat="39.8183493" lon="-0.7451668"><ele>962.4285714285713</ele><time>2026-04-04T08:48:24.611Z</time></trkpt><trkpt lat="39.8182953" lon="-0.7452339"><ele>960.1428571428571</ele><time>2026-04-04T08:48:25.61Z</time></trkpt><trkpt lat="39.8182341" lon="-0.7452796"><ele>957.8571428571429</ele><time>2026-04-04T08:48:26.61Z</time></trkpt><trkpt lat="39.8181741" lon="-0.7453203"><ele>955.5714285714287</ele><time>2026-04-04T08:48:27.611Z</time></trkpt><trkpt lat="39.8181005" lon="-0.7453498"><ele>953.2857142857142</ele><time>2026-04-04T08:48:28.611Z</time></trkpt><trkpt lat="39.8180281" lon="-0.7453749"><ele>951.0</ele><time>2026-04-04T08:48:29.61Z</time></trkpt><trkpt lat="39.8179538" lon="-0.7453927"><ele>949.4285714285713</ele><time>2026-04-04T08:48:30.61Z</time></trkpt><trkpt lat="39.817881" lon="-0.7453982"><ele>947.8571428571429</ele><time>2026-04-04T08:48:31.611Z</time></trkpt><trkpt lat="39.8178151" lon="-0.7454181"><ele>946.2857142857142</ele><time>2026-04-04T08:48:32.611Z</time></trkpt><trkpt lat="39.8177531" lon="-0.7454451"><ele>944.7142857142857</ele><time>2026-04-04T08:48:33.611Z</time></trkpt><trkpt lat="39.8176973" lon="-0.7454973"><ele>943.1428571428571</ele><time>2026-04-04T08:48:34.61Z</time></trkpt><trkpt lat="39.8176427" lon="-0.7455656"><ele>941.5714285714286</ele><time>2026-04-04T08:48:35.61Z</time></trkpt><trkpt lat="39.8175899" lon="-0.7456377"><ele>940.0</ele><time>2026-04-04T08:48:36.609Z</time></trkpt><trkpt lat="39.8175474" lon="-0.745708"><ele>939.3333333333333</ele><time>2026-04-04T08:48:37.609Z</time></trkpt><trkpt lat="39.817498" lon="-0.7457744"><ele>938.6666666666666</ele><time>2026-04-04T08:48:38.609Z</time></trkpt><trkpt lat="39.8174638" lon="-0.7458479"><ele>938.0</ele><time>2026-04-04T08:48:39.61Z</time></trkpt><trkpt lat="39.8174398" lon="-0.7459303"><ele>937.3333333333333</ele><time>2026-04-04T08:48:40.61Z</time></trkpt><trkpt lat="39.8174206" lon="-0.746015"><ele>936.6666666666666</ele><time>2026-04-04T08:48:41.611Z</time></trkpt><trkpt lat="39.8173776" lon="-0.7461551"><ele>936.0</ele><time>2026-04-04T08:48:43.611Z</time></trkpt><trkpt lat="39.817334" lon="-0.7462335"><ele>934.8333333333334</ele><time>2026-04-04T08:48:44.611Z</time></trkpt><trkpt lat="39.8172715" lon="-0.7463173"><ele>933.6666666666667</ele><time>2026-04-04T08:48:45.611Z</time></trkpt><trkpt lat="39.8172043" lon="-0.7464006"><ele>932.5</ele><time>2026-04-04T08:48:46.61Z</time></trkpt><trkpt lat="39.8171347" lon="-0.7464862"><ele>931.3333333333334</ele><time>2026-04-04T08:48:47.609Z</time></trkpt><trkpt lat="39.8170875" lon="-0.7465564"><ele>930.1666666666667</ele><time>2026-04-04T08:48:48.611Z</time></trkpt><trkpt lat="39.8170399" lon="-0.746631"><ele>929.0</ele><time>2026-04-04T08:48:49.61Z</time></trkpt><trkpt lat="39.8170079" lon="-0.746714"><ele>929.0</ele><time>2026-04-04T08:48:50.61Z</time></trkpt><trkpt lat="39.8169601" lon="-0.7468395"><ele>929.0000000000001</ele><time>2026-04-04T08:48:52.611Z</time></trkpt><trkpt lat="39.8169291" lon="-0.7469521"><ele>929.0000000000001</ele><time>2026-04-04T08:48:55.61Z</time></trkpt><trkpt lat="39.816938" lon="-0.7470572"><ele>929.0</ele><time>2026-04-04T08:48:58.609Z</time></trkpt><trkpt lat="39.8170015" lon="-0.7471102"><ele>929.0</ele><time>2026-04-04T08:52:04.61Z</time></trkpt><trkpt lat="39.8170851" lon="-0.7471653"><ele>927.6</ele><time>2026-04-04T08:52:06.61Z</time></trkpt><trkpt lat="39.8171703" lon="-0.7472274"><ele>926.2</ele><time>2026-04-04T08:52:08.611Z</time></trkpt><trkpt lat="39.8172535" lon="-0.7472758"><ele>924.8000000000001</ele><time>2026-04-04T08:52:10.611Z</time></trkpt><trkpt lat="39.8173555" lon="-0.7473681"><ele>923.4000000000001</ele><time>2026-04-04T08:52:12.61Z</time></trkpt><trkpt lat="39.8174268" lon="-0.747488"><ele>922.0</ele><time>2026-04-04T08:52:14.61Z</time></trkpt><trkpt lat="39.8174352" lon="-0.7475788"><ele>922.0</ele><time>2026-04-04T08:52:15.61Z</time></trkpt><trkpt lat="39.8174382" lon="-0.7476823"><ele>922.0</ele><time>2026-04-04T08:52:16.61Z</time></trkpt><trkpt lat="39.8174304" lon="-0.747831"><ele>922.0</ele><time>2026-04-04T08:52:17.611Z</time></trkpt><trkpt lat="39.817423" lon="-0.7479648"><ele>922.0</ele><time>2026-04-04T08:52:18.61Z</time></trkpt><trkpt lat="39.8174169" lon="-0.7480751"><ele>922.0</ele><time>2026-04-04T08:52:19.611Z</time></trkpt><trkpt lat="39.8174054" lon="-0.7481905"><ele>921.3333333333333</ele><time>2026-04-04T08:52:20.611Z</time></trkpt><trkpt lat="39.8173844" lon="-0.7483075"><ele>920.6666666666666</ele><time>2026-04-04T08:52:21.61Z</time></trkpt><trkpt lat="39.8173552" lon="-0.7484234"><ele>920.0</ele><time>2026-04-04T08:52:22.611Z</time></trkpt><trkpt lat="39.8173274" lon="-0.7485373"><ele>919.3333333333333</ele><time>2026-04-04T08:52:23.61Z</time></trkpt><trkpt lat="39.8173073" lon="-0.748642"><ele>918.6666666666666</ele><time>2026-04-04T08:52:24.61Z</time></trkpt><trkpt lat="39.8172945" lon="-0.7487539"><ele>918.0</ele><time>2026-04-04T08:52:25.611Z</time></trkpt><trkpt lat="39.8172882" lon="-0.7488626"><ele>918.0</ele><time>2026-04-04T08:52:26.61Z</time></trkpt><trkpt lat="39.8172912" lon="-0.7489449"><ele>918.0</ele><time>2026-04-04T08:52:27.609Z</time></trkpt><trkpt lat="39.8172706" lon="-0.7490901"><ele>918.0</ele><time>2026-04-04T08:52:29.611Z</time></trkpt><trkpt lat="39.8172315" lon="-0.749229"><ele>918.0</ele><time>2026-04-04T08:52:31.611Z</time></trkpt><trkpt lat="39.817219" lon="-0.7493121"><ele>918.0</ele><time>2026-04-04T08:52:32.609Z</time></trkpt><trkpt lat="39.8172463" lon="-0.7494784"><ele>918.5</ele><time>2026-04-04T08:52:34.61Z</time></trkpt><trkpt lat="39.8172653" lon="-0.749567"><ele>919.0</ele><time>2026-04-04T08:52:35.609Z</time></trkpt><trkpt lat="39.8172666" lon="-0.7496702"><ele>919.5</ele><time>2026-04-04T08:52:36.609Z</time></trkpt><trkpt lat="39.8172529" lon="-0.7498069"><ele>920.0</ele><time>2026-04-04T08:52:38.61Z</time></trkpt><trkpt lat="39.8172068" lon="-0.7498705"><ele>920.5</ele><time>2026-04-04T08:52:39.61Z</time></trkpt><trkpt lat="39.8171556" lon="-0.7499188"><ele>921.0</ele><time>2026-04-04T08:52:40.609Z</time></trkpt><trkpt lat="39.8170959" lon="-0.7499518"><ele>921.0</ele><time>2026-04-04T08:52:41.61Z</time></trkpt><trkpt lat="39.8169868" lon="-0.7499894"><ele>921.0</ele><time>2026-04-04T08:52:43.61Z</time></trkpt><trkpt lat="39.8169119" lon="-0.7500119"><ele>921.0</ele><time>2026-04-04T08:52:45.609Z</time></trkpt><trkpt lat="39.8168312" lon="-0.7500267"><ele>921.0</ele><time>2026-04-04T08:52:47.61Z</time></trkpt><trkpt lat="39.8167451" lon="-0.7500335"><ele>921.0</ele><time>2026-04-04T08:52:49.61Z</time></trkpt><trkpt lat="39.8166559" lon="-0.7500222"><ele>921.0</ele><time>2026-04-04T08:52:51.61Z</time></trkpt><trkpt lat="39.8165734" lon="-0.7500191"><ele>919.4285714285716</ele><time>2026-04-04T08:52:53.609Z</time></trkpt><trkpt lat="39.8165074" lon="-0.7500115"><ele>917.8571428571429</ele><time>2026-04-04T08:52:55.61Z</time></trkpt><trkpt lat="39.8164342" lon="-0.7500238"><ele>916.2857142857143</ele><time>2026-04-04T08:52:58.61Z</time></trkpt><trkpt lat="39.8163932" lon="-0.7500877"><ele>914.7142857142858</ele><time>2026-04-04T08:53:02.611Z</time></trkpt><trkpt lat="39.8164012" lon="-0.7501844"><ele>913.1428571428571</ele><time>2026-04-04T08:53:06.611Z</time></trkpt><trkpt lat="39.8164646" lon="-0.7502682"><ele>911.5714285714286</ele><time>2026-04-04T08:53:08.609Z</time></trkpt><trkpt lat="39.8165097" lon="-0.7503501"><ele>910.0</ele><time>2026-04-04T08:53:10.611Z</time></trkpt><trkpt lat="39.8165334" lon="-0.7504479"><ele>909.9999999999999</ele><time>2026-04-04T08:53:13.609Z</time></trkpt><trkpt lat="39.8164603" lon="-0.7504923"><ele>910.0</ele><time>2026-04-04T08:53:16.61Z</time></trkpt><trkpt lat="39.8163701" lon="-0.7504607"><ele>910.0</ele><time>2026-04-04T08:53:19.61Z</time></trkpt><trkpt lat="39.8162922" lon="-0.7504897"><ele>910.0</ele><time>2026-04-04T08:53:21.611Z</time></trkpt><trkpt lat="39.8162574" lon="-0.7505633"><ele>909.9999999999999</ele><time>2026-04-04T08:53:23.609Z</time></trkpt><trkpt lat="39.816286" lon="-0.7506726"><ele>910.0</ele><time>2026-04-04T08:53:26.61Z</time></trkpt><trkpt lat="39.8163216" lon="-0.7507443"><ele>909.9999999999999</ele><time>2026-04-04T08:53:29.61Z</time></trkpt><trkpt lat="39.8163067" lon="-0.7508764"><ele>910.0</ele><time>2026-04-04T08:53:32.611Z</time></trkpt><trkpt lat="39.8163006" lon="-0.7509669"><ele>910.0</ele><time>2026-04-04T08:53:34.61Z</time></trkpt><trkpt lat="39.8163156" lon="-0.7510581"><ele>910.0</ele><time>2026-04-04T08:53:36.61Z</time></trkpt><trkpt lat="39.8163169" lon="-0.7511464"><ele>909.9999999999999</ele><time>2026-04-04T08:53:38.61Z</time></trkpt><trkpt lat="39.8163003" lon="-0.7512782"><ele>910.0</ele><time>2026-04-04T08:53:40.611Z</time></trkpt><trkpt lat="39.8163003" lon="-0.7514087"><ele>913.4</ele><time>2026-04-04T08:53:42.611Z</time></trkpt><trkpt lat="39.8162874" lon="-0.7515026"><ele>916.8</ele><time>2026-04-04T08:53:43.611Z</time></trkpt><trkpt lat="39.8162701" lon="-0.7516059"><ele>920.2</ele><time>2026-04-04T08:53:44.611Z</time></trkpt><trkpt lat="39.8162529" lon="-0.7516959"><ele>923.6</ele><time>2026-04-04T08:53:45.609Z</time></trkpt><trkpt lat="39.8162192" lon="-0.7518406"><ele>927.0</ele><time>2026-04-04T08:53:47.61Z</time></trkpt><trkpt lat="39.8162029" lon="-0.7519891"><ele>928.2</ele><time>2026-04-04T08:53:49.61Z</time></trkpt><trkpt lat="39.816208" lon="-0.7521335"><ele>929.4000000000001</ele><time>2026-04-04T08:53:51.608Z</time></trkpt><trkpt lat="39.8162337" lon="-0.7522647"><ele>930.5999999999999</ele><time>2026-04-04T08:53:53.61Z</time></trkpt><trkpt lat="39.8162565" lon="-0.7523772"><ele>931.8</ele><time>2026-04-04T08:53:55.611Z</time></trkpt><trkpt lat="39.8162585" lon="-0.7524756"><ele>933.0</ele><time>2026-04-04T08:53:57.61Z</time></trkpt><trkpt lat="39.8162661" lon="-0.7525757"><ele>933.0</ele><time>2026-04-04T08:53:59.611Z</time></trkpt><trkpt lat="39.816274" lon="-0.7526647"><ele>933.0</ele><time>2026-04-04T08:54:01.61Z</time></trkpt><trkpt lat="39.8162222" lon="-0.7527392"><ele>933.0</ele><time>2026-04-04T08:54:04.609Z</time></trkpt><trkpt lat="39.8161469" lon="-0.7527166"><ele>933.0</ele><time>2026-04-04T08:54:06.61Z</time></trkpt><trkpt lat="39.8160856" lon="-0.7527359"><ele>933.0</ele><time>2026-04-04T08:54:08.61Z</time></trkpt><trkpt lat="39.8159996" lon="-0.7527995"><ele>933.0</ele><time>2026-04-04T08:54:11.61Z</time></trkpt><trkpt lat="39.8159123" lon="-0.7528353"><ele>932.8571428571428</ele><time>2026-04-04T08:54:13.61Z</time></trkpt><trkpt lat="39.8158421" lon="-0.7528721"><ele>932.7142857142856</ele><time>2026-04-04T08:54:15.61Z</time></trkpt><trkpt lat="39.815775" lon="-0.7529127"><ele>932.5714285714286</ele><time>2026-04-04T08:54:17.61Z</time></trkpt><trkpt lat="39.8157292" lon="-0.7529814"><ele>932.4285714285713</ele><time>2026-04-04T08:54:19.611Z</time></trkpt><trkpt lat="39.8156877" lon="-0.7530465"><ele>932.2857142857142</ele><time>2026-04-04T08:54:21.611Z</time></trkpt><trkpt lat="39.8156359" lon="-0.7531115"><ele>932.1428571428571</ele><time>2026-04-04T08:54:23.544Z</time></trkpt><trkpt lat="39.8155844" lon="-0.7531775"><ele>932.0</ele><time>2026-04-04T08:54:25.611Z</time></trkpt><trkpt lat="39.8155294" lon="-0.7532794"><ele>932.0</ele><time>2026-04-04T08:54:27.61Z</time></trkpt><trkpt lat="39.8154727" lon="-0.7533787"><ele>932.0</ele><time>2026-04-04T08:54:29.61Z</time></trkpt><trkpt lat="39.815404" lon="-0.7534942"><ele>932.0</ele><time>2026-04-04T08:54:31.611Z</time></trkpt><trkpt lat="39.8153543" lon="-0.7535973"><ele>932.0</ele><time>2026-04-04T08:54:33.611Z</time></trkpt><trkpt lat="39.8152819" lon="-0.75367"><ele>932.0</ele><time>2026-04-04T08:54:35.611Z</time></trkpt><trkpt lat="39.8151949" lon="-0.7537407"><ele>932.5000000000001</ele><time>2026-04-04T08:54:37.609Z</time></trkpt><trkpt lat="39.8151211" lon="-0.7538004"><ele>933.0</ele><time>2026-04-04T08:54:39.61Z</time></trkpt><trkpt lat="39.815046" lon="-0.7538403"><ele>933.5</ele><time>2026-04-04T08:54:41.611Z</time></trkpt><trkpt lat="39.8149779" lon="-0.7538898"><ele>934.0</ele><time>2026-04-04T08:54:43.61Z</time></trkpt><trkpt lat="39.8149055" lon="-0.7539438"><ele>934.5000000000001</ele><time>2026-04-04T08:54:45.611Z</time></trkpt><trkpt lat="39.8148342" lon="-0.7539848"><ele>935.0</ele><time>2026-04-04T08:54:50.609Z</time></trkpt><trkpt lat="39.8147959" lon="-0.7540572"><ele>935.0000000000001</ele><time>2026-04-04T08:54:56.611Z</time></trkpt><trkpt lat="39.8147321" lon="-0.7540919"><ele>935.0</ele><time>2026-04-04T08:54:59.61Z</time></trkpt><trkpt lat="39.8146794" lon="-0.7541402"><ele>935.0</ele><time>2026-04-04T08:55:03.611Z</time></trkpt><trkpt lat="39.8146228" lon="-0.7542339"><ele>935.0</ele><time>2026-04-04T08:55:06.609Z</time></trkpt><trkpt lat="39.8145779" lon="-0.7543238"><ele>935.0000000000001</ele><time>2026-04-04T08:55:08.609Z</time></trkpt><trkpt lat="39.8145051" lon="-0.7544229"><ele>935.0</ele><time>2026-04-04T08:55:11.61Z</time></trkpt><trkpt lat="39.8144412" lon="-0.7545058"><ele>935.8333333333334</ele><time>2026-04-04T08:55:13.611Z</time></trkpt><trkpt lat="39.8143952" lon="-0.7546187"><ele>936.6666666666667</ele><time>2026-04-04T08:55:15.609Z</time></trkpt><trkpt lat="39.8143851" lon="-0.7547242"><ele>937.5</ele><time>2026-04-04T08:55:17.609Z</time></trkpt><trkpt lat="39.8143788" lon="-0.7548321"><ele>938.3333333333333</ele><time>2026-04-04T08:55:19.61Z</time></trkpt><trkpt lat="39.8143976" lon="-0.7549293"><ele>939.1666666666666</ele><time>2026-04-04T08:55:21.611Z</time></trkpt><trkpt lat="39.8144566" lon="-0.7550047"><ele>940.0</ele><time>2026-04-04T08:55:23.61Z</time></trkpt><trkpt lat="39.8145269" lon="-0.7550846"><ele>940.0</ele><time>2026-04-04T08:55:25.609Z</time></trkpt><trkpt lat="39.8145949" lon="-0.755174"><ele>940.0</ele><time>2026-04-04T08:55:27.611Z</time></trkpt><trkpt lat="39.8146704" lon="-0.7552532"><ele>940.0</ele><time>2026-04-04T08:55:29.61Z</time></trkpt><trkpt lat="39.8147414" lon="-0.7553241"><ele>940.0</ele><time>2026-04-04T08:55:31.611Z</time></trkpt><trkpt lat="39.8148056" lon="-0.7553869"><ele>940.0</ele><time>2026-04-04T08:55:34.61Z</time></trkpt><trkpt lat="39.8148287" lon="-0.7555179"><ele>938.6</ele><time>2026-04-04T08:55:36.611Z</time></trkpt><trkpt lat="39.8147985" lon="-0.7556307"><ele>937.2</ele><time>2026-04-04T08:55:38.609Z</time></trkpt><trkpt lat="39.8147737" lon="-0.7557365"><ele>935.8</ele><time>2026-04-04T08:55:40.611Z</time></trkpt><trkpt lat="39.81472" lon="-0.7558462"><ele>934.4</ele><time>2026-04-04T08:55:42.609Z</time></trkpt><trkpt lat="39.8146617" lon="-0.7559374"><ele>933.0</ele><time>2026-04-04T08:55:44.61Z</time></trkpt><trkpt lat="39.8146196" lon="-0.7560343"><ele>930.5</ele><time>2026-04-04T08:55:46.61Z</time></trkpt><trkpt lat="39.8145859" lon="-0.7561112"><ele>928.0</ele><time>2026-04-04T08:55:47.61Z</time></trkpt><trkpt lat="39.8145536" lon="-0.7561822"><ele>925.5</ele><time>2026-04-04T08:55:48.61Z</time></trkpt><trkpt lat="39.8144981" lon="-0.7563129"><ele>923.0</ele><time>2026-04-04T08:55:50.611Z</time></trkpt><trkpt lat="39.8144585" lon="-0.7564054"><ele>920.5</ele><time>2026-04-04T08:55:52.611Z</time></trkpt><trkpt lat="39.8144025" lon="-0.7564613"><ele>918.0</ele><time>2026-04-04T08:55:54.609Z</time></trkpt><trkpt lat="39.8143306" lon="-0.756494"><ele>915.1666666666666</ele><time>2026-04-04T08:55:57.61Z</time></trkpt><trkpt lat="39.8142583" lon="-0.7564866"><ele>912.3333333333333</ele><time>2026-04-04T08:56:00.61Z</time></trkpt><trkpt lat="39.8141877" lon="-0.7565232"><ele>909.5</ele><time>2026-04-04T08:56:03.609Z</time></trkpt><trkpt lat="39.814145" lon="-0.7566123"><ele>906.6666666666666</ele><time>2026-04-04T08:56:06.611Z</time></trkpt><trkpt lat="39.8141361" lon="-0.7567225"><ele>903.8333333333333</ele><time>2026-04-04T08:56:09.609Z</time></trkpt><trkpt lat="39.8141573" lon="-0.7568295"><ele>901.0</ele><time>2026-04-04T08:56:13.609Z</time></trkpt><trkpt lat="39.8141805" lon="-0.7569085"><ele>901.1428571428572</ele><time>2026-04-04T08:56:16.61Z</time></trkpt><trkpt lat="39.8141706" lon="-0.7569932"><ele>901.2857142857144</ele><time>2026-04-04T08:56:21.609Z</time></trkpt><trkpt lat="39.8141372" lon="-0.7570791"><ele>901.4285714285714</ele><time>2026-04-04T08:56:26.61Z</time></trkpt><trkpt lat="39.8141669" lon="-0.7571822"><ele>901.5714285714287</ele><time>2026-04-04T08:56:30.608Z</time></trkpt><trkpt lat="39.8142292" lon="-0.7572676"><ele>901.7142857142858</ele><time>2026-04-04T08:56:33.521Z</time></trkpt><trkpt lat="39.8142784" lon="-0.7573205"><ele>901.8571428571429</ele><time>2026-04-04T08:56:35.61Z</time></trkpt><trkpt lat="39.8143206" lon="-0.7573903"><ele>902.0</ele><time>2026-04-04T08:56:37.611Z</time></trkpt><trkpt lat="39.8143596" lon="-0.7574751"><ele>902.0000000000001</ele><time>2026-04-04T08:56:39.609Z</time></trkpt><trkpt lat="39.8144296" lon="-0.7575528"><ele>902.0</ele><time>2026-04-04T08:56:42.611Z</time></trkpt><trkpt lat="39.8144748" lon="-0.7576585"><ele>902.0</ele><time>2026-04-04T08:56:45.611Z</time></trkpt><trkpt lat="39.8144928" lon="-0.7577384"><ele>902.0</ele><time>2026-04-04T08:56:47.61Z</time></trkpt><trkpt lat="39.8144664" lon="-0.7578228"><ele>902.0000000000001</ele><time>2026-04-04T08:56:49.609Z</time></trkpt><trkpt lat="39.8143711" lon="-0.7578637"><ele>902.0</ele><time>2026-04-04T08:56:51.61Z</time></trkpt><trkpt lat="39.8142896" lon="-0.7578898"><ele>900.3333333333334</ele><time>2026-04-04T08:56:53.611Z</time></trkpt><trkpt lat="39.8142125" lon="-0.7579439"><ele>898.6666666666667</ele><time>2026-04-04T08:56:55.609Z</time></trkpt><trkpt lat="39.8141308" lon="-0.7580422"><ele>897.0</ele><time>2026-04-04T08:56:57.61Z</time></trkpt><trkpt lat="39.8140723" lon="-0.7580834"><ele>895.3333333333333</ele><time>2026-04-04T08:56:58.611Z</time></trkpt><trkpt lat="39.8140112" lon="-0.7581133"><ele>893.6666666666666</ele><time>2026-04-04T08:56:59.61Z</time></trkpt><trkpt lat="39.8139259" lon="-0.7581819"><ele>892.0</ele><time>2026-04-04T08:57:01.611Z</time></trkpt><trkpt lat="39.8138437" lon="-0.7582339"><ele>891.9999999999999</ele><time>2026-04-04T08:57:03.609Z</time></trkpt><trkpt lat="39.8137675" lon="-0.7582978"><ele>892.0</ele><time>2026-04-04T08:57:05.609Z</time></trkpt><trkpt lat="39.8136979" lon="-0.7583372"><ele>892.0</ele><time>2026-04-04T08:57:07.61Z</time></trkpt><trkpt lat="39.8136301" lon="-0.7583848"><ele>892.0</ele><time>2026-04-04T08:57:09.61Z</time></trkpt><trkpt lat="39.8135685" lon="-0.7584379"><ele>891.9999999999999</ele><time>2026-04-04T08:57:11.609Z</time></trkpt><trkpt lat="39.813506" lon="-0.7585248"><ele>892.0</ele><time>2026-04-04T08:57:13.61Z</time></trkpt><trkpt lat="39.8134686" lon="-0.7586256"><ele>889.9999999999999</ele><time>2026-04-04T08:57:15.609Z</time></trkpt><trkpt lat="39.8134257" lon="-0.7587165"><ele>888.0</ele><time>2026-04-04T08:57:17.61Z</time></trkpt><trkpt lat="39.8133742" lon="-0.7588152"><ele>886.0</ele><time>2026-04-04T08:57:19.61Z</time></trkpt><trkpt lat="39.8133113" lon="-0.7589043"><ele>884.0</ele><time>2026-04-04T08:57:21.611Z</time></trkpt><trkpt lat="39.8132558" lon="-0.7589686"><ele>881.9999999999999</ele><time>2026-04-04T08:57:23.609Z</time></trkpt><trkpt lat="39.8131849" lon="-0.7590393"><ele>880.0</ele><time>2026-04-04T08:57:26.608Z</time></trkpt><trkpt lat="39.8131327" lon="-0.7591364"><ele>879.9999999999999</ele><time>2026-04-04T08:57:29.611Z</time></trkpt><trkpt lat="39.8131379" lon="-0.7592332"><ele>880.0</ele><time>2026-04-04T08:57:31.61Z</time></trkpt><trkpt lat="39.8131505" lon="-0.75932"><ele>880.0</ele><time>2026-04-04T08:57:33.61Z</time></trkpt><trkpt lat="39.8131531" lon="-0.759403"><ele>880.0</ele><time>2026-04-04T08:57:35.61Z</time></trkpt><trkpt lat="39.8131634" lon="-0.759486"><ele>880.0</ele><time>2026-04-04T08:57:37.61Z</time></trkpt><trkpt lat="39.8131896" lon="-0.7595827"><ele>879.9999999999999</ele><time>2026-04-04T08:57:39.61Z</time></trkpt><trkpt lat="39.8131984" lon="-0.7596723"><ele>880.0</ele><time>2026-04-04T08:57:41.61Z</time></trkpt><trkpt lat="39.813205" lon="-0.7597875"><ele>879.3333333333333</ele><time>2026-04-04T08:57:44.61Z</time></trkpt><trkpt lat="39.8132075" lon="-0.7598719"><ele>878.6666666666666</ele><time>2026-04-04T08:57:47.609Z</time></trkpt><trkpt lat="39.8131986" lon="-0.7599878"><ele>878.0</ele><time>2026-04-04T08:57:50.609Z</time></trkpt><trkpt lat="39.813214" lon="-0.7600859"><ele>877.3333333333333</ele><time>2026-04-04T08:57:53.61Z</time></trkpt><trkpt lat="39.8132299" lon="-0.760182"><ele>876.6666666666666</ele><time>2026-04-04T08:57:56.611Z</time></trkpt><trkpt lat="39.8132417" lon="-0.7602701"><ele>876.0</ele><time>2026-04-04T08:57:58.609Z</time></trkpt><trkpt lat="39.8132055" lon="-0.7603617"><ele>876.0</ele><time>2026-04-04T08:58:00.611Z</time></trkpt><trkpt lat="39.8131511" lon="-0.7604131"><ele>876.0</ele><time>2026-04-04T08:58:02.61Z</time></trkpt><trkpt lat="39.8130949" lon="-0.7604618"><ele>876.0</ele><time>2026-04-04T08:58:04.608Z</time></trkpt><trkpt lat="39.8130552" lon="-0.7605492"><ele>876.0</ele><time>2026-04-04T08:58:06.611Z</time></trkpt><trkpt lat="39.813014" lon="-0.7606355"><ele>876.0</ele><time>2026-04-04T08:58:08.611Z</time></trkpt><trkpt lat="39.8129469" lon="-0.760732"><ele>876.0</ele><time>2026-04-04T08:58:10.61Z</time></trkpt><trkpt lat="39.8129037" lon="-0.7607919"><ele>876.0</ele><time>2026-04-04T08:58:11.609Z</time></trkpt><trkpt lat="39.8128366" lon="-0.7608902"><ele>875.9999999999999</ele><time>2026-04-04T08:58:13.609Z</time></trkpt><trkpt lat="39.8128093" lon="-0.7610026"><ele>875.9999999999999</ele><time>2026-04-04T08:58:15.611Z</time></trkpt><trkpt lat="39.8127619" lon="-0.7610963"><ele>876.0</ele><time>2026-04-04T08:58:17.611Z</time></trkpt><trkpt lat="39.8126937" lon="-0.7611806"><ele>876.0</ele><time>2026-04-04T08:58:19.609Z</time></trkpt><trkpt lat="39.8126381" lon="-0.7612872"><ele>874.8333333333334</ele><time>2026-04-04T08:58:21.609Z</time></trkpt><trkpt lat="39.8125964" lon="-0.7614033"><ele>873.6666666666667</ele><time>2026-04-04T08:58:23.609Z</time></trkpt><trkpt lat="39.8125447" lon="-0.7614963"><ele>872.5</ele><time>2026-04-04T08:58:25.608Z</time></trkpt><trkpt lat="39.8125343" lon="-0.7616249"><ele>871.3333333333334</ele><time>2026-04-04T08:58:28.609Z</time></trkpt><trkpt lat="39.8125474" lon="-0.7617099"><ele>870.1666666666667</ele><time>2026-04-04T08:58:30.609Z</time></trkpt><trkpt lat="39.8125685" lon="-0.7618073"><ele>869.0</ele><time>2026-04-04T08:58:32.61Z</time></trkpt><trkpt lat="39.8125992" lon="-0.7618826"><ele>868.8333333333334</ele><time>2026-04-04T08:58:34.608Z</time></trkpt><trkpt lat="39.8126409" lon="-0.7619605"><ele>868.6666666666667</ele><time>2026-04-04T08:58:36.61Z</time></trkpt><trkpt lat="39.8126643" lon="-0.7620508"><ele>868.5</ele><time>2026-04-04T08:58:38.61Z</time></trkpt><trkpt lat="39.8126469" lon="-0.7621349"><ele>868.3333333333333</ele><time>2026-04-04T08:58:40.609Z</time></trkpt><trkpt lat="39.812594" lon="-0.7622226"><ele>868.1666666666666</ele><time>2026-04-04T08:58:42.611Z</time></trkpt><trkpt lat="39.8125266" lon="-0.7623261"><ele>868.0</ele><time>2026-04-04T08:58:44.61Z</time></trkpt><trkpt lat="39.8124476" lon="-0.7624134"><ele>868.0</ele><time>2026-04-04T08:58:46.611Z</time></trkpt><trkpt lat="39.8123968" lon="-0.7625098"><ele>868.0</ele><time>2026-04-04T08:58:48.608Z</time></trkpt><trkpt lat="39.8123957" lon="-0.7626505"><ele>868.0</ele><time>2026-04-04T08:58:51.608Z</time></trkpt><trkpt lat="39.8123484" lon="-0.7627789"><ele>868.0</ele><time>2026-04-04T08:58:53.61Z</time></trkpt><trkpt lat="39.8123268" lon="-0.7628843"><ele>868.0</ele><time>2026-04-04T08:58:55.61Z</time></trkpt><trkpt lat="39.8123284" lon="-0.7629839"><ele>868.5999999999999</ele><time>2026-04-04T08:58:57.61Z</time></trkpt><trkpt lat="39.812289" lon="-0.7631303"><ele>869.1999999999999</ele><time>2026-04-04T08:58:59.609Z</time></trkpt><trkpt lat="39.8122655" lon="-0.7632085"><ele>869.8</ele><time>2026-04-04T08:59:00.611Z</time></trkpt><trkpt lat="39.8122142" lon="-0.7633377"><ele>870.4</ele><time>2026-04-04T08:59:02.61Z</time></trkpt><trkpt lat="39.8121749" lon="-0.7634387"><ele>871.0</ele><time>2026-04-04T08:59:04.609Z</time></trkpt><trkpt lat="39.8121191" lon="-0.7635304"><ele>871.0</ele><time>2026-04-04T08:59:06.61Z</time></trkpt><trkpt lat="39.8120791" lon="-0.7636077"><ele>871.0</ele><time>2026-04-04T08:59:08.61Z</time></trkpt><trkpt lat="39.8120371" lon="-0.7636726"><ele>871.0</ele><time>2026-04-04T08:59:10.609Z</time></trkpt><trkpt lat="39.8119973" lon="-0.7637432"><ele>871.0</ele><time>2026-04-04T08:59:12.609Z</time></trkpt><trkpt lat="39.8119946" lon="-0.7638393"><ele>871.0</ele><time>2026-04-04T08:59:14.609Z</time></trkpt><trkpt lat="39.8119979" lon="-0.7639332"><ele>871.0</ele><time>2026-04-04T08:59:16.61Z</time></trkpt><trkpt lat="39.8119989" lon="-0.7640153"><ele>871.0</ele><time>2026-04-04T08:59:18.611Z</time></trkpt><trkpt lat="39.8119972" lon="-0.7641048"><ele>871.0</ele><time>2026-04-04T08:59:20.609Z</time></trkpt><trkpt lat="39.8120044" lon="-0.7641891"><ele>871.0</ele><time>2026-04-04T08:59:22.611Z</time></trkpt><trkpt lat="39.8120273" lon="-0.7642892"><ele>871.0</ele><time>2026-04-04T08:59:25.608Z</time></trkpt><trkpt lat="39.8120561" lon="-0.7643779"><ele>871.0</ele><time>2026-04-04T08:59:29.61Z</time></trkpt><trkpt lat="39.8120619" lon="-0.7644726"><ele>871.0</ele><time>2026-04-04T08:59:32.61Z</time></trkpt><trkpt lat="39.8120276" lon="-0.7645488"><ele>871.0</ele><time>2026-04-04T08:59:37.608Z</time></trkpt><trkpt lat="39.8119536" lon="-0.7645527"><ele>871.0</ele><time>2026-04-04T08:59:40.61Z</time></trkpt><trkpt lat="39.8119009" lon="-0.7646008"><ele>868.4999999999999</ele><time>2026-04-04T08:59:43.609Z</time></trkpt><trkpt lat="39.8118809" lon="-0.764704"><ele>866.0</ele><time>2026-04-04T08:59:47.61Z</time></trkpt><trkpt lat="39.8118768" lon="-0.7648114"><ele>863.5</ele><time>2026-04-04T08:59:50.61Z</time></trkpt><trkpt lat="39.8118581" lon="-0.7649059"><ele>861.0</ele><time>2026-04-04T08:59:53.61Z</time></trkpt><trkpt lat="39.8118871" lon="-0.764987"><ele>858.4999999999999</ele><time>2026-04-04T08:59:56.611Z</time></trkpt><trkpt lat="39.8119528" lon="-0.7650486"><ele>856.0</ele><time>2026-04-04T08:59:59.61Z</time></trkpt><trkpt lat="39.8119664" lon="-0.7651354"><ele>854.0</ele><time>2026-04-04T09:00:02.609Z</time></trkpt><trkpt lat="39.8120119" lon="-0.7652064"><ele>851.9999999999999</ele><time>2026-04-04T09:00:06.61Z</time></trkpt><trkpt lat="39.8120774" lon="-0.7652058"><ele>850.0</ele><time>2026-04-04T09:02:06.609Z</time></trkpt><trkpt lat="39.8121712" lon="-0.7652611"><ele>848.0</ele><time>2026-04-04T09:02:08.609Z</time></trkpt><trkpt lat="39.8122986" lon="-0.7653286"><ele>846.0</ele><time>2026-04-04T09:02:10.609Z</time></trkpt><trkpt lat="39.8123537" lon="-0.7653954"><ele>846.0</ele><time>2026-04-04T09:02:11.611Z</time></trkpt><trkpt lat="39.8124106" lon="-0.765483"><ele>846.0</ele><time>2026-04-04T09:02:12.609Z</time></trkpt><trkpt lat="39.8124632" lon="-0.7655691"><ele>846.0</ele><time>2026-04-04T09:02:13.61Z</time></trkpt><trkpt lat="39.8125201" lon="-0.7656452"><ele>846.0</ele><time>2026-04-04T09:02:14.61Z</time></trkpt><trkpt lat="39.8125708" lon="-0.7657186"><ele>846.0</ele><time>2026-04-04T09:02:15.611Z</time></trkpt><trkpt lat="39.8126214" lon="-0.7657952"><ele>846.0</ele><time>2026-04-04T09:02:16.611Z</time></trkpt><trkpt lat="39.8126673" lon="-0.7658644"><ele>847.2857142857142</ele><time>2026-04-04T09:02:17.609Z</time></trkpt><trkpt lat="39.8127024" lon="-0.7659466"><ele>848.5714285714287</ele><time>2026-04-04T09:02:18.61Z</time></trkpt><trkpt lat="39.8127245" lon="-0.7660395"><ele>849.8571428571429</ele><time>2026-04-04T09:02:19.611Z</time></trkpt><trkpt lat="39.8127377" lon="-0.7661373"><ele>851.1428571428571</ele><time>2026-04-04T09:02:20.61Z</time></trkpt><trkpt lat="39.812758" lon="-0.7662226"><ele>852.4285714285713</ele><time>2026-04-04T09:02:21.609Z</time></trkpt><trkpt lat="39.812765" lon="-0.766309"><ele>853.7142857142858</ele><time>2026-04-04T09:02:22.61Z</time></trkpt><trkpt lat="39.8127531" lon="-0.7663928"><ele>855.0</ele><time>2026-04-04T09:02:23.609Z</time></trkpt><trkpt lat="39.8127375" lon="-0.7664723"><ele>855.3333333333334</ele><time>2026-04-04T09:02:24.611Z</time></trkpt><trkpt lat="39.8127082" lon="-0.7665645"><ele>855.6666666666667</ele><time>2026-04-04T09:02:25.609Z</time></trkpt><trkpt lat="39.8126822" lon="-0.7666403"><ele>856.0</ele><time>2026-04-04T09:02:26.609Z</time></trkpt><trkpt lat="39.8126286" lon="-0.7667716"><ele>856.3333333333334</ele><time>2026-04-04T09:02:28.61Z</time></trkpt><trkpt lat="39.8125714" lon="-0.766868"><ele>856.6666666666667</ele><time>2026-04-04T09:02:30.609Z</time></trkpt><trkpt lat="39.8125431" lon="-0.7669533"><ele>857.0</ele><time>2026-04-04T09:02:32.61Z</time></trkpt><trkpt lat="39.8125401" lon="-0.7670366"><ele>857.0000000000001</ele><time>2026-04-04T09:02:34.61Z</time></trkpt><trkpt lat="39.8125422" lon="-0.7671589"><ele>857.0</ele><time>2026-04-04T09:02:36.609Z</time></trkpt><trkpt lat="39.812552" lon="-0.7673024"><ele>857.0</ele><time>2026-04-04T09:02:38.61Z</time></trkpt><trkpt lat="39.8125574" lon="-0.7673875"><ele>857.0</ele><time>2026-04-04T09:02:39.609Z</time></trkpt><trkpt lat="39.8125541" lon="-0.7674721"><ele>857.0000000000001</ele><time>2026-04-04T09:02:40.611Z</time></trkpt><trkpt lat="39.8125478" lon="-0.7675585"><ele>857.0</ele><time>2026-04-04T09:02:41.609Z</time></trkpt><trkpt lat="39.8125412" lon="-0.7676417"><ele>857.8</ele><time>2026-04-04T09:02:42.608Z</time></trkpt><trkpt lat="39.8125513" lon="-0.7677671"><ele>858.6</ele><time>2026-04-04T09:02:44.609Z</time></trkpt><trkpt lat="39.8125906" lon="-0.7679219"><ele>859.3999999999999</ele><time>2026-04-04T09:02:46.609Z</time></trkpt><trkpt lat="39.8126003" lon="-0.7680377"><ele>860.1999999999999</ele><time>2026-04-04T09:02:47.611Z</time></trkpt><trkpt lat="39.8126049" lon="-0.7681466"><ele>861.0</ele><time>2026-04-04T09:02:48.609Z</time></trkpt><trkpt lat="39.812598" lon="-0.7682396"><ele>861.0</ele><time>2026-04-04T09:02:49.61Z</time></trkpt><trkpt lat="39.8125923" lon="-0.7683219"><ele>861.0</ele><time>2026-04-04T09:02:50.61Z</time></trkpt><trkpt lat="39.8125993" lon="-0.7684209"><ele>861.0</ele><time>2026-04-04T09:02:51.609Z</time></trkpt><trkpt lat="39.8126102" lon="-0.768556"><ele>861.0</ele><time>2026-04-04T09:02:53.609Z</time></trkpt><trkpt lat="39.8126099" lon="-0.7686711"><ele>861.0</ele><time>2026-04-04T09:02:56.608Z</time></trkpt><trkpt lat="39.8126283" lon="-0.7687775"><ele>861.0</ele><time>2026-04-04T09:02:59.61Z</time></trkpt><trkpt lat="39.8126656" lon="-0.7688437"><ele>861.5</ele><time>2026-04-04T09:03:01.609Z</time></trkpt><trkpt lat="39.8127581" lon="-0.7688469"><ele>862.0</ele><time>2026-04-04T09:03:03.61Z</time></trkpt><trkpt lat="39.8128221" lon="-0.7688472"><ele>862.5</ele><time>2026-04-04T09:03:04.611Z</time></trkpt><trkpt lat="39.8129228" lon="-0.7688501"><ele>863.0</ele><time>2026-04-04T09:03:06.609Z</time></trkpt><trkpt lat="39.813002" lon="-0.7688534"><ele>863.5</ele><time>2026-04-04T09:03:08.609Z</time></trkpt><trkpt lat="39.8130698" lon="-0.7689092"><ele>864.0</ele><time>2026-04-04T09:03:11.609Z</time></trkpt><trkpt lat="39.8131512" lon="-0.7689893"><ele>864.0</ele><time>2026-04-04T09:03:13.609Z</time></trkpt><trkpt lat="39.8132284" lon="-0.7690673"><ele>864.0000000000001</ele><time>2026-04-04T09:03:15.61Z</time></trkpt><trkpt lat="39.8133008" lon="-0.7692158"><ele>864.0000000000001</ele><time>2026-04-04T09:03:17.61Z</time></trkpt><trkpt lat="39.8133428" lon="-0.7692984"><ele>864.0</ele><time>2026-04-04T09:03:18.608Z</time></trkpt><trkpt lat="39.8133808" lon="-0.7693902"><ele>864.0</ele><time>2026-04-04T09:03:19.61Z</time></trkpt><trkpt lat="39.8134147" lon="-0.7694781"><ele>863.6666666666666</ele><time>2026-04-04T09:03:20.608Z</time></trkpt><trkpt lat="39.8134503" lon="-0.769567"><ele>863.3333333333333</ele><time>2026-04-04T09:03:21.609Z</time></trkpt><trkpt lat="39.8134791" lon="-0.7696408"><ele>863.0</ele><time>2026-04-04T09:03:22.61Z</time></trkpt><trkpt lat="39.8135378" lon="-0.7697725"><ele>862.6666666666666</ele><time>2026-04-04T09:03:24.609Z</time></trkpt><trkpt lat="39.8135756" lon="-0.769839"><ele>862.3333333333333</ele><time>2026-04-04T09:03:25.61Z</time></trkpt><trkpt lat="39.8136206" lon="-0.7699244"><ele>862.0</ele><time>2026-04-04T09:03:26.609Z</time></trkpt><trkpt lat="39.8136757" lon="-0.7700324"><ele>863.0</ele><time>2026-04-04T09:03:27.609Z</time></trkpt><trkpt lat="39.813721" lon="-0.7701381"><ele>864.0</ele><time>2026-04-04T09:03:28.608Z</time></trkpt><trkpt lat="39.8137694" lon="-0.770271"><ele>865.0</ele><time>2026-04-04T09:03:29.609Z</time></trkpt><trkpt lat="39.8138134" lon="-0.7703863"><ele>866.0</ele><time>2026-04-04T09:03:30.609Z</time></trkpt><trkpt lat="39.8138521" lon="-0.7704956"><ele>867.0</ele><time>2026-04-04T09:03:31.609Z</time></trkpt><trkpt lat="39.8138839" lon="-0.7706094"><ele>867.0</ele><time>2026-04-04T09:03:32.609Z</time></trkpt><trkpt lat="39.8139126" lon="-0.7707111"><ele>867.0</ele><time>2026-04-04T09:03:33.61Z</time></trkpt><trkpt lat="39.8139507" lon="-0.7707934"><ele>867.0</ele><time>2026-04-04T09:03:34.61Z</time></trkpt><trkpt lat="39.8139908" lon="-0.770879"><ele>867.0</ele><time>2026-04-04T09:03:35.61Z</time></trkpt><trkpt lat="39.8140432" lon="-0.7709452"><ele>867.0</ele><time>2026-04-04T09:03:36.608Z</time></trkpt><trkpt lat="39.8141069" lon="-0.7709849"><ele>867.0</ele><time>2026-04-04T09:03:37.609Z</time></trkpt><trkpt lat="39.8141682" lon="-0.7710496"><ele>866.3333333333334</ele><time>2026-04-04T09:03:38.608Z</time></trkpt><trkpt lat="39.8142227" lon="-0.7711324"><ele>865.6666666666667</ele><time>2026-04-04T09:03:39.609Z</time></trkpt><trkpt lat="39.8142578" lon="-0.771238"><ele>865.0</ele><time>2026-04-04T09:03:40.608Z</time></trkpt><trkpt lat="39.8142753" lon="-0.7713309"><ele>864.3333333333334</ele><time>2026-04-04T09:03:41.609Z</time></trkpt><trkpt lat="39.814272" lon="-0.7714211"><ele>863.6666666666667</ele><time>2026-04-04T09:03:42.61Z</time></trkpt><trkpt lat="39.8142352" lon="-0.7714976"><ele>863.0</ele><time>2026-04-04T09:03:43.608Z</time></trkpt><trkpt lat="39.8141908" lon="-0.7715708"><ele>863.0000000000001</ele><time>2026-04-04T09:03:44.61Z</time></trkpt><trkpt lat="39.8141316" lon="-0.7716323"><ele>863.0</ele><time>2026-04-04T09:03:45.609Z</time></trkpt><trkpt lat="39.8140875" lon="-0.771764"><ele>863.0</ele><time>2026-04-04T09:03:47.608Z</time></trkpt><trkpt lat="39.8140969" lon="-0.7718488"><ele>863.0</ele><time>2026-04-04T09:03:48.61Z</time></trkpt><trkpt lat="39.8141176" lon="-0.7719603"><ele>863.0000000000001</ele><time>2026-04-04T09:03:49.608Z</time></trkpt><trkpt lat="39.8141505" lon="-0.7720697"><ele>863.0</ele><time>2026-04-04T09:03:50.608Z</time></trkpt><trkpt lat="39.8141784" lon="-0.7721586"><ele>864.0</ele><time>2026-04-04T09:03:51.61Z</time></trkpt><trkpt lat="39.814213" lon="-0.7723025"><ele>865.0</ele><time>2026-04-04T09:03:53.608Z</time></trkpt><trkpt lat="39.8141946" lon="-0.7724151"><ele>866.0</ele><time>2026-04-04T09:03:55.611Z</time></trkpt><trkpt lat="39.8141391" lon="-0.772516"><ele>867.0</ele><time>2026-04-04T09:03:57.608Z</time></trkpt><trkpt lat="39.8140933" lon="-0.7726011"><ele>868.0</ele><time>2026-04-04T09:04:01.609Z</time></trkpt><trkpt lat="39.8140606" lon="-0.7726858"><ele>868.8</ele><time>2026-04-04T09:04:03.608Z</time></trkpt><trkpt lat="39.8139957" lon="-0.7727473"><ele>869.5999999999999</ele><time>2026-04-04T09:04:04.61Z</time></trkpt><trkpt lat="39.8138858" lon="-0.7728685"><ele>870.4000000000001</ele><time>2026-04-04T09:04:06.608Z</time></trkpt><trkpt lat="39.81382" lon="-0.772967"><ele>871.2</ele><time>2026-04-04T09:04:07.609Z</time></trkpt><trkpt lat="39.8137705" lon="-0.7730614"><ele>872.0</ele><time>2026-04-04T09:04:08.609Z</time></trkpt><trkpt lat="39.8137042" lon="-0.7731643"><ele>872.0</ele><time>2026-04-04T09:04:09.609Z</time></trkpt><trkpt lat="39.8136403" lon="-0.7732659"><ele>872.0</ele><time>2026-04-04T09:04:10.611Z</time></trkpt><trkpt lat="39.8135647" lon="-0.7733574"><ele>872.0</ele><time>2026-04-04T09:04:11.609Z</time></trkpt><trkpt lat="39.8134949" lon="-0.7734277"><ele>872.0</ele><time>2026-04-04T09:04:12.61Z</time></trkpt><trkpt lat="39.8134262" lon="-0.7734867"><ele>872.0</ele><time>2026-04-04T09:04:13.609Z</time></trkpt><trkpt lat="39.8133609" lon="-0.7735436"><ele>871.1666666666667</ele><time>2026-04-04T09:04:14.609Z</time></trkpt><trkpt lat="39.8132715" lon="-0.7736199"><ele>870.3333333333334</ele><time>2026-04-04T09:04:16.611Z</time></trkpt><trkpt lat="39.81321" lon="-0.7736853"><ele>869.5</ele><time>2026-04-04T09:04:18.609Z</time></trkpt><trkpt lat="39.8131554" lon="-0.7737419"><ele>868.6666666666667</ele><time>2026-04-04T09:04:20.611Z</time></trkpt><trkpt lat="39.8130861" lon="-0.7738028"><ele>867.8333333333334</ele><time>2026-04-04T09:04:23.609Z</time></trkpt><trkpt lat="39.8130271" lon="-0.7738599"><ele>867.0</ele><time>2026-04-04T09:04:26.61Z</time></trkpt><trkpt lat="39.8130769" lon="-0.7738029"><ele>867.0</ele><time>2026-04-04T09:06:08.609Z</time></trkpt></trkseg><trkseg><trkpt lat="39.8130736" lon="-0.7738741"><ele>867.0</ele><time>2026-04-04T09:56:24.6Z</time></trkpt><trkpt lat="39.8130373" lon="-0.7739813"><ele>867.0</ele><time>2026-04-04T10:02:00.599Z</time></trkpt><trkpt lat="39.8129833" lon="-0.7740347"><ele>867.0</ele><time>2026-04-04T10:02:04.599Z</time></trkpt><trkpt lat="39.8129154" lon="-0.7740561"><ele>867.0</ele><time>2026-04-04T10:02:07.6Z</time></trkpt><trkpt lat="39.81285" lon="-0.7740528"><ele>867.0</ele><time>2026-04-04T10:02:10.599Z</time></trkpt><trkpt lat="39.8127836" lon="-0.7740164"><ele>867.0</ele><time>2026-04-04T10:02:12.599Z</time></trkpt><trkpt lat="39.8127188" lon="-0.7739449"><ele>866.8</ele><time>2026-04-04T10:02:15.6Z</time></trkpt><trkpt lat="39.8126355" lon="-0.7739542"><ele>866.6</ele><time>2026-04-04T10:02:18.599Z</time></trkpt><trkpt lat="39.8125369" lon="-0.7739619"><ele>866.3999999999999</ele><time>2026-04-04T10:02:21.599Z</time></trkpt><trkpt lat="39.8124444" lon="-0.7739781"><ele>866.1999999999999</ele><time>2026-04-04T10:02:24.598Z</time></trkpt><trkpt lat="39.8123385" lon="-0.7739652"><ele>866.0</ele><time>2026-04-04T10:02:26.598Z</time></trkpt><trkpt lat="39.8122146" lon="-0.7739453"><ele>866.0000000000001</ele><time>2026-04-04T10:02:28.599Z</time></trkpt><trkpt lat="39.8121451" lon="-0.7739211"><ele>866.0</ele><time>2026-04-04T10:02:29.599Z</time></trkpt><trkpt lat="39.8120782" lon="-0.7738786"><ele>866.0</ele><time>2026-04-04T10:02:30.6Z</time></trkpt><trkpt lat="39.8120106" lon="-0.7738325"><ele>866.0</ele><time>2026-04-04T10:02:31.598Z</time></trkpt><trkpt lat="39.8119398" lon="-0.7737922"><ele>866.0000000000001</ele><time>2026-04-04T10:02:32.598Z</time></trkpt><trkpt lat="39.8118631" lon="-0.7737401"><ele>866.0</ele><time>2026-04-04T10:02:33.599Z</time></trkpt><trkpt lat="39.811783" lon="-0.7736815"><ele>865.8333333333334</ele><time>2026-04-04T10:02:34.599Z</time></trkpt><trkpt lat="39.8117013" lon="-0.7736253"><ele>865.6666666666667</ele><time>2026-04-04T10:02:35.599Z</time></trkpt><trkpt lat="39.8116275" lon="-0.7735735"><ele>865.5</ele><time>2026-04-04T10:02:36.599Z</time></trkpt><trkpt lat="39.8115617" lon="-0.7735207"><ele>865.3333333333333</ele><time>2026-04-04T10:02:37.6Z</time></trkpt><trkpt lat="39.811513" lon="-0.7734625"><ele>865.1666666666666</ele><time>2026-04-04T10:02:38.598Z</time></trkpt><trkpt lat="39.8114581" lon="-0.7734169"><ele>865.0</ele><time>2026-04-04T10:02:39.598Z</time></trkpt><trkpt lat="39.8113959" lon="-0.7733724"><ele>865.6</ele><time>2026-04-04T10:02:40.6Z</time></trkpt><trkpt lat="39.8113315" lon="-0.7733417"><ele>866.2</ele><time>2026-04-04T10:02:41.6Z</time></trkpt><trkpt lat="39.8112095" lon="-0.7732958"><ele>866.8</ele><time>2026-04-04T10:02:43.599Z</time></trkpt><trkpt lat="39.8111481" lon="-0.7732345"><ele>867.4</ele><time>2026-04-04T10:02:44.598Z</time></trkpt><trkpt lat="39.8110274" lon="-0.7732095"><ele>868.0</ele><time>2026-04-04T10:02:46.599Z</time></trkpt><trkpt lat="39.8109608" lon="-0.7732087"><ele>868.8333333333333</ele><time>2026-04-04T10:02:47.6Z</time></trkpt><trkpt lat="39.8108675" lon="-0.7731872"><ele>869.6666666666666</ele><time>2026-04-04T10:02:49.598Z</time></trkpt><trkpt lat="39.8108617" lon="-0.7730964"><ele>870.5</ele><time>2026-04-04T10:02:58.598Z</time></trkpt><trkpt lat="39.8108323" lon="-0.7730202"><ele>871.3333333333333</ele><time>2026-04-04T10:03:01.599Z</time></trkpt><trkpt lat="39.8107749" lon="-0.7729264"><ele>872.1666666666666</ele><time>2026-04-04T10:03:03.599Z</time></trkpt><trkpt lat="39.8107308" lon="-0.7728489"><ele>873.0</ele><time>2026-04-04T10:03:04.599Z</time></trkpt><trkpt lat="39.8106657" lon="-0.7727786"><ele>872.9999999999999</ele><time>2026-04-04T10:03:05.599Z</time></trkpt><trkpt lat="39.8106183" lon="-0.7726997"><ele>873.0</ele><time>2026-04-04T10:03:06.599Z</time></trkpt><trkpt lat="39.8105703" lon="-0.7726237"><ele>873.0</ele><time>2026-04-04T10:03:07.6Z</time></trkpt><trkpt lat="39.8105277" lon="-0.7725552"><ele>873.0</ele><time>2026-04-04T10:03:08.6Z</time></trkpt><trkpt lat="39.8104927" lon="-0.7724797"><ele>873.0</ele><time>2026-04-04T10:03:09.599Z</time></trkpt><trkpt lat="39.8104541" lon="-0.7724107"><ele>872.9999999999999</ele><time>2026-04-04T10:03:10.598Z</time></trkpt><trkpt lat="39.8104082" lon="-0.7723357"><ele>873.0</ele><time>2026-04-04T10:03:11.599Z</time></trkpt><trkpt lat="39.8103571" lon="-0.7722719"><ele>872.5</ele><time>2026-04-04T10:03:12.599Z</time></trkpt><trkpt lat="39.8102913" lon="-0.7722015"><ele>872.0</ele><time>2026-04-04T10:03:13.599Z</time></trkpt><trkpt lat="39.8102283" lon="-0.7721332"><ele>871.5</ele><time>2026-04-04T10:03:14.598Z</time></trkpt><trkpt lat="39.8101598" lon="-0.7720576"><ele>871.0</ele><time>2026-04-04T10:03:15.597Z</time></trkpt><trkpt lat="39.8100919" lon="-0.771984"><ele>870.5</ele><time>2026-04-04T10:03:16.598Z</time></trkpt><trkpt lat="39.8100296" lon="-0.7719062"><ele>870.0</ele><time>2026-04-04T10:03:17.599Z</time></trkpt><trkpt lat="39.8099557" lon="-0.7718492"><ele>869.8333333333334</ele><time>2026-04-04T10:03:18.598Z</time></trkpt><trkpt lat="39.8098756" lon="-0.7717765"><ele>869.6666666666667</ele><time>2026-04-04T10:03:19.599Z</time></trkpt><trkpt lat="39.8097972" lon="-0.7717097"><ele>869.5</ele><time>2026-04-04T10:03:20.598Z</time></trkpt><trkpt lat="39.8097356" lon="-0.7716349"><ele>869.3333333333334</ele><time>2026-04-04T10:03:21.598Z</time></trkpt><trkpt lat="39.8096863" lon="-0.7715573"><ele>869.1666666666667</ele><time>2026-04-04T10:03:22.597Z</time></trkpt><trkpt lat="39.809644" lon="-0.771468"><ele>869.0</ele><time>2026-04-04T10:03:23.6Z</time></trkpt><trkpt lat="39.8096124" lon="-0.7713896"><ele>869.0</ele><time>2026-04-04T10:03:24.598Z</time></trkpt><trkpt lat="39.8095727" lon="-0.7713091"><ele>869.0</ele><time>2026-04-04T10:03:25.599Z</time></trkpt><trkpt lat="39.8095433" lon="-0.7712209"><ele>869.0</ele><time>2026-04-04T10:03:26.598Z</time></trkpt><trkpt lat="39.8095081" lon="-0.7711396"><ele>869.0</ele><time>2026-04-04T10:03:27.6Z</time></trkpt><trkpt lat="39.8094719" lon="-0.7710568"><ele>869.0</ele><time>2026-04-04T10:03:28.6Z</time></trkpt><trkpt lat="39.8094422" lon="-0.7709745"><ele>869.0</ele><time>2026-04-04T10:03:29.599Z</time></trkpt><trkpt lat="39.8094161" lon="-0.7708994"><ele>869.0</ele><time>2026-04-04T10:03:30.597Z</time></trkpt><trkpt lat="39.8093843" lon="-0.770764"><ele>870.0000000000001</ele><time>2026-04-04T10:03:32.599Z</time></trkpt><trkpt lat="39.8093601" lon="-0.7706767"><ele>871.0</ele><time>2026-04-04T10:03:33.598Z</time></trkpt><trkpt lat="39.8093124" lon="-0.7705927"><ele>872.0</ele><time>2026-04-04T10:03:34.6Z</time></trkpt><trkpt lat="39.8092541" lon="-0.7705121"><ele>873.0</ele><time>2026-04-04T10:03:35.599Z</time></trkpt><trkpt lat="39.8091995" lon="-0.7704383"><ele>874.0000000000001</ele><time>2026-04-04T10:03:36.6Z</time></trkpt><trkpt lat="39.80914" lon="-0.7703704"><ele>875.0</ele><time>2026-04-04T10:03:37.599Z</time></trkpt><trkpt lat="39.8090817" lon="-0.7703164"><ele>875.0</ele><time>2026-04-04T10:03:38.598Z</time></trkpt><trkpt lat="39.8089881" lon="-0.7702223"><ele>875.0</ele><time>2026-04-04T10:03:40.6Z</time></trkpt><trkpt lat="39.8088797" lon="-0.7701466"><ele>875.0</ele><time>2026-04-04T10:03:42.599Z</time></trkpt><trkpt lat="39.8088104" lon="-0.7701178"><ele>875.0</ele><time>2026-04-04T10:03:43.598Z</time></trkpt><trkpt lat="39.8087369" lon="-0.7700851"><ele>875.0</ele><time>2026-04-04T10:03:44.599Z</time></trkpt><trkpt lat="39.8086562" lon="-0.770042"><ele>873.8333333333334</ele><time>2026-04-04T10:03:45.599Z</time></trkpt><trkpt lat="39.8085881" lon="-0.7700077"><ele>872.6666666666667</ele><time>2026-04-04T10:03:46.599Z</time></trkpt><trkpt lat="39.8085156" lon="-0.7699778"><ele>871.5</ele><time>2026-04-04T10:03:47.598Z</time></trkpt><trkpt lat="39.8084443" lon="-0.769969"><ele>870.3333333333333</ele><time>2026-04-04T10:03:48.6Z</time></trkpt><trkpt lat="39.8083802" lon="-0.7699461"><ele>869.1666666666666</ele><time>2026-04-04T10:03:49.598Z</time></trkpt><trkpt lat="39.8082685" lon="-0.7698862"><ele>868.0</ele><time>2026-04-04T10:03:51.598Z</time></trkpt><trkpt lat="39.8081644" lon="-0.7698506"><ele>867.9999999999999</ele><time>2026-04-04T10:03:53.599Z</time></trkpt><trkpt lat="39.8080684" lon="-0.7698441"><ele>868.0</ele><time>2026-04-04T10:03:55.598Z</time></trkpt><trkpt lat="39.8079737" lon="-0.7698727"><ele>868.0</ele><time>2026-04-04T10:03:57.597Z</time></trkpt><trkpt lat="39.807908" lon="-0.7699334"><ele>868.0</ele><time>2026-04-04T10:03:59.598Z</time></trkpt><trkpt lat="39.8078553" lon="-0.7699925"><ele>867.9999999999999</ele><time>2026-04-04T10:04:01.598Z</time></trkpt><trkpt lat="39.8077803" lon="-0.770059"><ele>868.0</ele><time>2026-04-04T10:04:04.598Z</time></trkpt><trkpt lat="39.8077376" lon="-0.7701397"><ele>868.0</ele><time>2026-04-04T10:04:06.6Z</time></trkpt><trkpt lat="39.8077083" lon="-0.7702813"><ele>868.0</ele><time>2026-04-04T10:04:08.597Z</time></trkpt><trkpt lat="39.8077102" lon="-0.7704078"><ele>868.0</ele><time>2026-04-04T10:04:10.599Z</time></trkpt><trkpt lat="39.8076804" lon="-0.7704906"><ele>868.0</ele><time>2026-04-04T10:04:12.599Z</time></trkpt><trkpt lat="39.8076182" lon="-0.7705636"><ele>868.0</ele><time>2026-04-04T10:04:14.598Z</time></trkpt><trkpt lat="39.8074936" lon="-0.7705752"><ele>867.9999999999999</ele><time>2026-04-04T10:04:16.597Z</time></trkpt><trkpt lat="39.8074133" lon="-0.7705451"><ele>868.0</ele><time>2026-04-04T10:04:17.598Z</time></trkpt><trkpt lat="39.8073292" lon="-0.7705074"><ele>868.0</ele><time>2026-04-04T10:04:18.598Z</time></trkpt><trkpt lat="39.8072653" lon="-0.7704779"><ele>868.0</ele><time>2026-04-04T10:04:19.597Z</time></trkpt><trkpt lat="39.8072023" lon="-0.7704827"><ele>867.9999999999999</ele><time>2026-04-04T10:04:21.598Z</time></trkpt><trkpt lat="39.8072228" lon="-0.7705802"><ele>868.0</ele><time>2026-04-04T10:04:24.598Z</time></trkpt><trkpt lat="39.8072596" lon="-0.7706684"><ele>867.9999999999999</ele><time>2026-04-04T10:04:26.598Z</time></trkpt><trkpt lat="39.8072666" lon="-0.7707684"><ele>868.0</ele><time>2026-04-04T10:04:28.599Z</time></trkpt><trkpt lat="39.807234" lon="-0.7708463"><ele>868.0</ele><time>2026-04-04T10:04:30.599Z</time></trkpt><trkpt lat="39.8071933" lon="-0.7709381"><ele>868.0</ele><time>2026-04-04T10:04:32.598Z</time></trkpt><trkpt lat="39.8071537" lon="-0.7708534"><ele>867.9999999999999</ele><time>2026-04-04T10:04:47.6Z</time></trkpt><trkpt lat="39.8071081" lon="-0.7707596"><ele>868.0</ele><time>2026-04-04T10:04:49.598Z</time></trkpt><trkpt lat="39.8070571" lon="-0.7707043"><ele>868.0</ele><time>2026-04-04T10:04:50.597Z</time></trkpt><trkpt lat="39.8069542" lon="-0.770622"><ele>868.0</ele><time>2026-04-04T10:04:52.599Z</time></trkpt><trkpt lat="39.8068744" lon="-0.7705728"><ele>868.0</ele><time>2026-04-04T10:04:54.597Z</time></trkpt><trkpt lat="39.8068185" lon="-0.7705143"><ele>868.0</ele><time>2026-04-04T10:04:56.6Z</time></trkpt><trkpt lat="39.8067497" lon="-0.7704278"><ele>868.0</ele><time>2026-04-04T10:04:58.6Z</time></trkpt><trkpt lat="39.8066823" lon="-0.7703288"><ele>866.8</ele><time>2026-04-04T10:05:00.599Z</time></trkpt><trkpt lat="39.8066081" lon="-0.7702251"><ele>865.5999999999999</ele><time>2026-04-04T10:05:02.598Z</time></trkpt><trkpt lat="39.8065329" lon="-0.7701301"><ele>864.4000000000001</ele><time>2026-04-04T10:05:04.599Z</time></trkpt><trkpt lat="39.8064678" lon="-0.7700182"><ele>863.2</ele><time>2026-04-04T10:05:06.598Z</time></trkpt><trkpt lat="39.8063848" lon="-0.7699343"><ele>862.0</ele><time>2026-04-04T10:05:08.599Z</time></trkpt><trkpt lat="39.8062808" lon="-0.7698727"><ele>861.2</ele><time>2026-04-04T10:05:10.598Z</time></trkpt><trkpt lat="39.8061734" lon="-0.7698282"><ele>860.4000000000001</ele><time>2026-04-04T10:05:12.598Z</time></trkpt><trkpt lat="39.8060646" lon="-0.7697702"><ele>859.5999999999999</ele><time>2026-04-04T10:05:14.599Z</time></trkpt><trkpt lat="39.8059707" lon="-0.7697363"><ele>858.8</ele><time>2026-04-04T10:05:16.599Z</time></trkpt><trkpt lat="39.8059032" lon="-0.7697268"><ele>858.0</ele><time>2026-04-04T10:05:18.598Z</time></trkpt><trkpt lat="39.8058432" lon="-0.7697988"><ele>855.4</ele><time>2026-04-04T10:05:21.597Z</time></trkpt><trkpt lat="39.8058484" lon="-0.7699181"><ele>852.8</ele><time>2026-04-04T10:05:23.599Z</time></trkpt><trkpt lat="39.8058468" lon="-0.7700639"><ele>850.2</ele><time>2026-04-04T10:05:25.599Z</time></trkpt><trkpt lat="39.805883" lon="-0.7702498"><ele>847.6</ele><time>2026-04-04T10:05:27.6Z</time></trkpt><trkpt lat="39.8059002" lon="-0.7703468"><ele>845.0</ele><time>2026-04-04T10:05:28.598Z</time></trkpt><trkpt lat="39.8059059" lon="-0.7704909"><ele>845.0000000000001</ele><time>2026-04-04T10:05:30.598Z</time></trkpt><trkpt lat="39.8058411" lon="-0.770567"><ele>845.0</ele><time>2026-04-04T10:05:32.599Z</time></trkpt><trkpt lat="39.8057201" lon="-0.7705673"><ele>845.0</ele><time>2026-04-04T10:05:34.598Z</time></trkpt><trkpt lat="39.8056598" lon="-0.7705335"><ele>845.0</ele><time>2026-04-04T10:05:35.598Z</time></trkpt><trkpt lat="39.8055889" lon="-0.7705012"><ele>845.0000000000001</ele><time>2026-04-04T10:05:36.598Z</time></trkpt><trkpt lat="39.805511" lon="-0.770466"><ele>845.0</ele><time>2026-04-04T10:05:37.597Z</time></trkpt><trkpt lat="39.8054242" lon="-0.7704344"><ele>845.0000000000001</ele><time>2026-04-04T10:05:38.599Z</time></trkpt><trkpt lat="39.8053402" lon="-0.7704071"><ele>845.0</ele><time>2026-04-04T10:05:39.597Z</time></trkpt><trkpt lat="39.8052653" lon="-0.770382"><ele>845.0</ele><time>2026-04-04T10:05:40.597Z</time></trkpt><trkpt lat="39.8051935" lon="-0.7703572"><ele>845.0</ele><time>2026-04-04T10:05:41.597Z</time></trkpt><trkpt lat="39.8051261" lon="-0.770343"><ele>845.0000000000001</ele><time>2026-04-04T10:05:42.599Z</time></trkpt><trkpt lat="39.8050576" lon="-0.7703236"><ele>845.0</ele><time>2026-04-04T10:05:43.598Z</time></trkpt><trkpt lat="39.8049875" lon="-0.7702906"><ele>843.5000000000001</ele><time>2026-04-04T10:05:44.597Z</time></trkpt><trkpt lat="39.8049189" lon="-0.7702744"><ele>842.0</ele><time>2026-04-04T10:05:45.598Z</time></trkpt><trkpt lat="39.8048404" lon="-0.7702654"><ele>840.5</ele><time>2026-04-04T10:05:46.599Z</time></trkpt><trkpt lat="39.8047654" lon="-0.7702505"><ele>839.0</ele><time>2026-04-04T10:05:47.598Z</time></trkpt><trkpt lat="39.8046889" lon="-0.7702308"><ele>837.5000000000001</ele><time>2026-04-04T10:05:48.598Z</time></trkpt><trkpt lat="39.8046134" lon="-0.7702104"><ele>836.0</ele><time>2026-04-04T10:05:49.599Z</time></trkpt><trkpt lat="39.8045068" lon="-0.7701711"><ele>833.4</ele><time>2026-04-04T10:05:51.599Z</time></trkpt><trkpt lat="39.8044512" lon="-0.7700848"><ele>830.8</ele><time>2026-04-04T10:05:53.598Z</time></trkpt><trkpt lat="39.8044377" lon="-0.7699393"><ele>828.1999999999999</ele><time>2026-04-04T10:05:55.599Z</time></trkpt><trkpt lat="39.8044227" lon="-0.7698213"><ele>825.5999999999999</ele><time>2026-04-04T10:05:57.597Z</time></trkpt><trkpt lat="39.8043429" lon="-0.7696806"><ele>823.0</ele><time>2026-04-04T10:05:59.598Z</time></trkpt><trkpt lat="39.8043027" lon="-0.7696119"><ele>820.8</ele><time>2026-04-04T10:06:00.598Z</time></trkpt><trkpt lat="39.8042232" lon="-0.7695047"><ele>818.5999999999999</ele><time>2026-04-04T10:06:02.598Z</time></trkpt><trkpt lat="39.8041275" lon="-0.7694121"><ele>816.4000000000001</ele><time>2026-04-04T10:06:04.597Z</time></trkpt><trkpt lat="39.804066" lon="-0.7693456"><ele>814.2</ele><time>2026-04-04T10:06:05.599Z</time></trkpt><trkpt lat="39.8040091" lon="-0.7692758"><ele>812.0</ele><time>2026-04-04T10:06:06.598Z</time></trkpt><trkpt lat="39.8039666" lon="-0.7692084"><ele>811.0000000000001</ele><time>2026-04-04T10:06:07.599Z</time></trkpt><trkpt lat="39.8038895" lon="-0.7691037"><ele>810.0</ele><time>2026-04-04T10:06:09.598Z</time></trkpt><trkpt lat="39.8037854" lon="-0.7690541"><ele>809.0</ele><time>2026-04-04T10:06:11.599Z</time></trkpt><trkpt lat="39.8037209" lon="-0.7690419"><ele>808.0</ele><time>2026-04-04T10:06:12.597Z</time></trkpt><trkpt lat="39.8036474" lon="-0.7690181"><ele>807.0000000000001</ele><time>2026-04-04T10:06:13.597Z</time></trkpt><trkpt lat="39.8035727" lon="-0.7689772"><ele>806.0</ele><time>2026-04-04T10:06:14.598Z</time></trkpt><trkpt lat="39.8034936" lon="-0.7689343"><ele>803.8333333333334</ele><time>2026-04-04T10:06:15.598Z</time></trkpt><trkpt lat="39.8034221" lon="-0.7688986"><ele>801.6666666666667</ele><time>2026-04-04T10:06:16.598Z</time></trkpt><trkpt lat="39.8033487" lon="-0.76888"><ele>799.5</ele><time>2026-04-04T10:06:17.597Z</time></trkpt><trkpt lat="39.8032603" lon="-0.7688873"><ele>797.3333333333333</ele><time>2026-04-04T10:06:18.599Z</time></trkpt><trkpt lat="39.8031782" lon="-0.7689122"><ele>795.1666666666666</ele><time>2026-04-04T10:06:19.598Z</time></trkpt><trkpt lat="39.8030772" lon="-0.7689472"><ele>793.0</ele><time>2026-04-04T10:06:20.598Z</time></trkpt><trkpt lat="39.8029757" lon="-0.7689677"><ele>792.9999999999999</ele><time>2026-04-04T10:06:21.599Z</time></trkpt><trkpt lat="39.8028761" lon="-0.7689671"><ele>793.0</ele><time>2026-04-04T10:06:22.598Z</time></trkpt><trkpt lat="39.80279" lon="-0.7689756"><ele>793.0</ele><time>2026-04-04T10:06:23.599Z</time></trkpt><trkpt lat="39.8027195" lon="-0.7689706"><ele>793.0</ele><time>2026-04-04T10:06:24.598Z</time></trkpt><trkpt lat="39.8026306" lon="-0.7689122"><ele>792.9999999999999</ele><time>2026-04-04T10:06:26.598Z</time></trkpt><trkpt lat="39.802593" lon="-0.7688449"><ele>793.0</ele><time>2026-04-04T10:06:27.598Z</time></trkpt><trkpt lat="39.8025527" lon="-0.7687811"><ele>791.8333333333333</ele><time>2026-04-04T10:06:28.599Z</time></trkpt><trkpt lat="39.802504" lon="-0.7687179"><ele>790.6666666666666</ele><time>2026-04-04T10:06:29.597Z</time></trkpt><trkpt lat="39.8024351" lon="-0.7686578"><ele>789.5</ele><time>2026-04-04T10:06:30.597Z</time></trkpt><trkpt lat="39.8023601" lon="-0.7686034"><ele>788.3333333333333</ele><time>2026-04-04T10:06:31.599Z</time></trkpt><trkpt lat="39.8022891" lon="-0.7685333"><ele>787.1666666666666</ele><time>2026-04-04T10:06:32.598Z</time></trkpt><trkpt lat="39.8022133" lon="-0.7684799"><ele>786.0</ele><time>2026-04-04T10:06:33.598Z</time></trkpt><trkpt lat="39.8021401" lon="-0.7684237"><ele>784.6666666666666</ele><time>2026-04-04T10:06:34.598Z</time></trkpt><trkpt lat="39.8020624" lon="-0.7683888"><ele>783.3333333333333</ele><time>2026-04-04T10:06:35.598Z</time></trkpt><trkpt lat="39.8019857" lon="-0.7683736"><ele>782.0</ele><time>2026-04-04T10:06:36.597Z</time></trkpt><trkpt lat="39.8019092" lon="-0.7683519"><ele>780.6666666666666</ele><time>2026-04-04T10:06:37.598Z</time></trkpt><trkpt lat="39.8018288" lon="-0.768309"><ele>779.3333333333333</ele><time>2026-04-04T10:06:38.598Z</time></trkpt><trkpt lat="39.8017379" lon="-0.7682617"><ele>778.0</ele><time>2026-04-04T10:06:39.597Z</time></trkpt><trkpt lat="39.8016567" lon="-0.7682093"><ele>776.8333333333333</ele><time>2026-04-04T10:06:40.598Z</time></trkpt><trkpt lat="39.8015896" lon="-0.768156"><ele>775.6666666666666</ele><time>2026-04-04T10:06:41.598Z</time></trkpt><trkpt lat="39.8015258" lon="-0.7681004"><ele>774.5</ele><time>2026-04-04T10:06:42.598Z</time></trkpt><trkpt lat="39.8014701" lon="-0.7680485"><ele>773.3333333333333</ele><time>2026-04-04T10:06:43.599Z</time></trkpt><trkpt lat="39.8013967" lon="-0.7679064"><ele>772.1666666666666</ele><time>2026-04-04T10:06:45.599Z</time></trkpt><trkpt lat="39.801363" lon="-0.7678369"><ele>771.0</ele><time>2026-04-04T10:06:46.598Z</time></trkpt><trkpt lat="39.8013169" lon="-0.7677784"><ele>770.3333333333334</ele><time>2026-04-04T10:06:47.599Z</time></trkpt><trkpt lat="39.8012088" lon="-0.7676827"><ele>769.6666666666666</ele><time>2026-04-04T10:06:49.599Z</time></trkpt><trkpt lat="39.8011559" lon="-0.7676345"><ele>769.0</ele><time>2026-04-04T10:06:50.598Z</time></trkpt><trkpt lat="39.8011029" lon="-0.7675801"><ele>768.3333333333333</ele><time>2026-04-04T10:06:51.599Z</time></trkpt><trkpt lat="39.80106" lon="-0.7675193"><ele>767.6666666666666</ele><time>2026-04-04T10:06:52.597Z</time></trkpt><trkpt lat="39.8010267" lon="-0.7674471"><ele>767.0</ele><time>2026-04-04T10:06:53.596Z</time></trkpt><trkpt lat="39.8010039" lon="-0.767367"><ele>766.25</ele><time>2026-04-04T10:06:54.598Z</time></trkpt><trkpt lat="39.8009629" lon="-0.7672091"><ele>765.5</ele><time>2026-04-04T10:06:56.599Z</time></trkpt><trkpt lat="39.8009449" lon="-0.7670657"><ele>764.75</ele><time>2026-04-04T10:06:58.597Z</time></trkpt><trkpt lat="39.8009722" lon="-0.7669161"><ele>764.0</ele><time>2026-04-04T10:07:00.598Z</time></trkpt><trkpt lat="39.8009702" lon="-0.7667534"><ele>762.8000000000001</ele><time>2026-04-04T10:07:02.598Z</time></trkpt><trkpt lat="39.8009414" lon="-0.7666438"><ele>761.6</ele><time>2026-04-04T10:07:03.599Z</time></trkpt><trkpt lat="39.8009123" lon="-0.7665247"><ele>760.4</ele><time>2026-04-04T10:07:04.598Z</time></trkpt><trkpt lat="39.8008786" lon="-0.7663933"><ele>759.2</ele><time>2026-04-04T10:07:05.599Z</time></trkpt><trkpt lat="39.8008421" lon="-0.7662871"><ele>758.0</ele><time>2026-04-04T10:07:06.599Z</time></trkpt><trkpt lat="39.800799" lon="-0.7661909"><ele>758.0</ele><time>2026-04-04T10:07:07.599Z</time></trkpt><trkpt lat="39.8007577" lon="-0.766102"><ele>758.0</ele><time>2026-04-04T10:07:08.598Z</time></trkpt><trkpt lat="39.8007189" lon="-0.7660243"><ele>758.0</ele><time>2026-04-04T10:07:09.597Z</time></trkpt><trkpt lat="39.8006489" lon="-0.7659002"><ele>758.0</ele><time>2026-04-04T10:07:11.598Z</time></trkpt><trkpt lat="39.800601" lon="-0.7658042"><ele>758.0</ele><time>2026-04-04T10:07:13.597Z</time></trkpt><trkpt lat="39.8005631" lon="-0.7657246"><ele>758.0</ele><time>2026-04-04T10:07:15.598Z</time></trkpt><trkpt lat="39.800531" lon="-0.7656449"><ele>758.6666666666666</ele><time>2026-04-04T10:07:17.597Z</time></trkpt><trkpt lat="39.8004959" lon="-0.7655633"><ele>759.3333333333333</ele><time>2026-04-04T10:07:26.597Z</time></trkpt><trkpt lat="39.8004325" lon="-0.7655423"><ele>760.0</ele><time>2026-04-04T10:07:31.598Z</time></trkpt><trkpt lat="39.8003517" lon="-0.7656015"><ele>760.6666666666666</ele><time>2026-04-04T10:08:00.598Z</time></trkpt><trkpt lat="39.8002372" lon="-0.7656927"><ele>761.3333333333334</ele><time>2026-04-04T10:08:02.599Z</time></trkpt><trkpt lat="39.8001791" lon="-0.7657714"><ele>762.0</ele><time>2026-04-04T10:08:03.598Z</time></trkpt><trkpt lat="39.8001353" lon="-0.7658853"><ele>759.8</ele><time>2026-04-04T10:08:04.597Z</time></trkpt><trkpt lat="39.8000917" lon="-0.7660326"><ele>757.6</ele><time>2026-04-04T10:08:05.598Z</time></trkpt><trkpt lat="39.8000527" lon="-0.7661782"><ele>755.4</ele><time>2026-04-04T10:08:06.597Z</time></trkpt><trkpt lat="39.8000135" lon="-0.7663075"><ele>753.1999999999999</ele><time>2026-04-04T10:08:07.598Z</time></trkpt><trkpt lat="39.7999765" lon="-0.7664202"><ele>751.0</ele><time>2026-04-04T10:08:08.597Z</time></trkpt><trkpt lat="39.7999282" lon="-0.7665234"><ele>751.0</ele><time>2026-04-04T10:08:09.597Z</time></trkpt><trkpt lat="39.799858" lon="-0.7665939"><ele>751.0</ele><time>2026-04-04T10:08:10.596Z</time></trkpt><trkpt lat="39.7997604" lon="-0.7666418"><ele>751.0</ele><time>2026-04-04T10:08:11.598Z</time></trkpt><trkpt lat="39.7996361" lon="-0.7666702"><ele>751.0</ele><time>2026-04-04T10:08:12.598Z</time></trkpt><trkpt lat="39.7995148" lon="-0.7666749"><ele>751.0</ele><time>2026-04-04T10:08:13.598Z</time></trkpt><trkpt lat="39.7994005" lon="-0.7666749"><ele>750.8</ele><time>2026-04-04T10:08:14.598Z</time></trkpt><trkpt lat="39.7992997" lon="-0.7666876"><ele>750.5999999999999</ele><time>2026-04-04T10:08:15.597Z</time></trkpt><trkpt lat="39.799192" lon="-0.7666932"><ele>750.4</ele><time>2026-04-04T10:08:16.598Z</time></trkpt><trkpt lat="39.7990728" lon="-0.7666922"><ele>750.2</ele><time>2026-04-04T10:08:17.598Z</time></trkpt><trkpt lat="39.798958" lon="-0.7666994"><ele>750.0</ele><time>2026-04-04T10:08:18.596Z</time></trkpt><trkpt lat="39.7988515" lon="-0.7667075"><ele>750.0</ele><time>2026-04-04T10:08:19.599Z</time></trkpt><trkpt lat="39.7987515" lon="-0.7667126"><ele>750.0</ele><time>2026-04-04T10:08:20.597Z</time></trkpt><trkpt lat="39.7986557" lon="-0.7667233"><ele>750.0</ele><time>2026-04-04T10:08:21.597Z</time></trkpt><trkpt lat="39.7985665" lon="-0.7667491"><ele>750.0</ele><time>2026-04-04T10:08:22.597Z</time></trkpt><trkpt lat="39.7984878" lon="-0.7667957"><ele>750.0</ele><time>2026-04-04T10:08:23.598Z</time></trkpt><trkpt lat="39.7984148" lon="-0.7668522"><ele>748.3333333333334</ele><time>2026-04-04T10:08:24.598Z</time></trkpt><trkpt lat="39.7983424" lon="-0.7669091"><ele>746.6666666666666</ele><time>2026-04-04T10:08:25.598Z</time></trkpt><trkpt lat="39.7982725" lon="-0.7669647"><ele>745.0</ele><time>2026-04-04T10:08:26.597Z</time></trkpt><trkpt lat="39.7981985" lon="-0.7670227"><ele>743.3333333333333</ele><time>2026-04-04T10:08:27.597Z</time></trkpt><trkpt lat="39.7981203" lon="-0.76708"><ele>741.6666666666666</ele><time>2026-04-04T10:08:28.598Z</time></trkpt><trkpt lat="39.7980439" lon="-0.7671347"><ele>740.0</ele><time>2026-04-04T10:08:29.597Z</time></trkpt><trkpt lat="39.7979689" lon="-0.7671848"><ele>740.0</ele><time>2026-04-04T10:08:30.599Z</time></trkpt><trkpt lat="39.7978953" lon="-0.767234"><ele>740.0</ele><time>2026-04-04T10:08:31.599Z</time></trkpt><trkpt lat="39.7978231" lon="-0.7672788"><ele>740.0</ele><time>2026-04-04T10:08:32.599Z</time></trkpt><trkpt lat="39.797742" lon="-0.7673295"><ele>740.0</ele><time>2026-04-04T10:08:33.598Z</time></trkpt><trkpt lat="39.7976609" lon="-0.7673792"><ele>740.0</ele><time>2026-04-04T10:08:34.596Z</time></trkpt><trkpt lat="39.7975842" lon="-0.7674351"><ele>740.0</ele><time>2026-04-04T10:08:35.597Z</time></trkpt><trkpt lat="39.7975095" lon="-0.7674811"><ele>738.6666666666666</ele><time>2026-04-04T10:08:36.599Z</time></trkpt><trkpt lat="39.7974361" lon="-0.7675274"><ele>737.3333333333333</ele><time>2026-04-04T10:08:37.598Z</time></trkpt><trkpt lat="39.7973601" lon="-0.7675743"><ele>736.0</ele><time>2026-04-04T10:08:38.597Z</time></trkpt><trkpt lat="39.7972815" lon="-0.7676215"><ele>734.6666666666666</ele><time>2026-04-04T10:08:39.598Z</time></trkpt><trkpt lat="39.7972044" lon="-0.7676658"><ele>733.3333333333334</ele><time>2026-04-04T10:08:40.597Z</time></trkpt><trkpt lat="39.7971308" lon="-0.7677112"><ele>732.0</ele><time>2026-04-04T10:08:41.598Z</time></trkpt><trkpt lat="39.7970568" lon="-0.7677603"><ele>731.1666666666666</ele><time>2026-04-04T10:08:42.598Z</time></trkpt><trkpt lat="39.7969898" lon="-0.7678013"><ele>730.3333333333334</ele><time>2026-04-04T10:08:43.598Z</time></trkpt><trkpt lat="39.796932" lon="-0.7678448"><ele>729.5</ele><time>2026-04-04T10:08:44.597Z</time></trkpt><trkpt lat="39.7968771" lon="-0.7678858"><ele>728.6666666666667</ele><time>2026-04-04T10:08:45.598Z</time></trkpt><trkpt lat="39.7967967" lon="-0.7679651"><ele>727.8333333333334</ele><time>2026-04-04T10:08:47.598Z</time></trkpt><trkpt lat="39.7967436" lon="-0.7680608"><ele>727.0</ele><time>2026-04-04T10:08:49.597Z</time></trkpt><trkpt lat="39.7966977" lon="-0.768149"><ele>725.6666666666667</ele><time>2026-04-04T10:08:51.597Z</time></trkpt><trkpt lat="39.796639" lon="-0.7682159"><ele>724.3333333333334</ele><time>2026-04-04T10:08:53.598Z</time></trkpt><trkpt lat="39.7965751" lon="-0.7682569"><ele>723.0</ele><time>2026-04-04T10:08:55.598Z</time></trkpt><trkpt lat="39.7965119" lon="-0.7682644"><ele>721.6666666666666</ele><time>2026-04-04T10:09:36.598Z</time></trkpt><trkpt lat="39.7964133" lon="-0.7682627"><ele>720.3333333333333</ele><time>2026-04-04T10:09:38.597Z</time></trkpt><trkpt lat="39.7963364" lon="-0.76828"><ele>719.0</ele><time>2026-04-04T10:09:39.597Z</time></trkpt><trkpt lat="39.7962485" lon="-0.7683069"><ele>719.0</ele><time>2026-04-04T10:09:40.598Z</time></trkpt><trkpt lat="39.7961455" lon="-0.7683423"><ele>719.0</ele><time>2026-04-04T10:09:41.596Z</time></trkpt><trkpt lat="39.7960318" lon="-0.7683871"><ele>719.0</ele><time>2026-04-04T10:09:42.598Z</time></trkpt><trkpt lat="39.7959026" lon="-0.7684336"><ele>719.0</ele><time>2026-04-04T10:09:43.598Z</time></trkpt><trkpt lat="39.7957774" lon="-0.7684683"><ele>718.75</ele><time>2026-04-04T10:09:44.597Z</time></trkpt><trkpt lat="39.7956561" lon="-0.7685027"><ele>718.5</ele><time>2026-04-04T10:09:45.597Z</time></trkpt><trkpt lat="39.7955413" lon="-0.7685336"><ele>718.25</ele><time>2026-04-04T10:09:46.598Z</time></trkpt><trkpt lat="39.7954243" lon="-0.7685611"><ele>718.0</ele><time>2026-04-04T10:09:47.598Z</time></trkpt><trkpt lat="39.7952965" lon="-0.7685928"><ele>716.5</ele><time>2026-04-04T10:09:48.597Z</time></trkpt><trkpt lat="39.795163" lon="-0.7686291"><ele>715.0</ele><time>2026-04-04T10:09:49.596Z</time></trkpt><trkpt lat="39.7950185" lon="-0.7686809"><ele>713.5</ele><time>2026-04-04T10:09:50.597Z</time></trkpt><trkpt lat="39.7948699" lon="-0.7687401"><ele>712.0</ele><time>2026-04-04T10:09:51.597Z</time></trkpt><trkpt lat="39.7947238" lon="-0.7687977"><ele>712.0</ele><time>2026-04-04T10:09:52.597Z</time></trkpt><trkpt lat="39.7945932" lon="-0.7688492"><ele>712.0</ele><time>2026-04-04T10:09:53.598Z</time></trkpt><trkpt lat="39.7944701" lon="-0.7689024"><ele>712.0</ele><time>2026-04-04T10:09:54.597Z</time></trkpt><trkpt lat="39.7943502" lon="-0.7689537"><ele>712.0</ele><time>2026-04-04T10:09:55.596Z</time></trkpt><trkpt lat="39.7942337" lon="-0.7690018"><ele>711.8</ele><time>2026-04-04T10:09:56.598Z</time></trkpt><trkpt lat="39.7941279" lon="-0.7690468"><ele>711.6</ele><time>2026-04-04T10:09:57.598Z</time></trkpt><trkpt lat="39.7940259" lon="-0.769086"><ele>711.4</ele><time>2026-04-04T10:09:58.599Z</time></trkpt><trkpt lat="39.7939233" lon="-0.7691275"><ele>711.1999999999999</ele><time>2026-04-04T10:09:59.598Z</time></trkpt><trkpt lat="39.7938227" lon="-0.7691698"><ele>711.0</ele><time>2026-04-04T10:10:00.598Z</time></trkpt><trkpt lat="39.7937248" lon="-0.7692116"><ele>711.0</ele><time>2026-04-04T10:10:01.597Z</time></trkpt><trkpt lat="39.7936257" lon="-0.7692562"><ele>711.0</ele><time>2026-04-04T10:10:02.597Z</time></trkpt><trkpt lat="39.7935221" lon="-0.7692975"><ele>711.0</ele><time>2026-04-04T10:10:03.597Z</time></trkpt><trkpt lat="39.7934079" lon="-0.7693414"><ele>711.0</ele><time>2026-04-04T10:10:04.597Z</time></trkpt><trkpt lat="39.7932833" lon="-0.7693946"><ele>709.25</ele><time>2026-04-04T10:10:05.597Z</time></trkpt><trkpt lat="39.7931604" lon="-0.7694445"><ele>707.5</ele><time>2026-04-04T10:10:06.596Z</time></trkpt><trkpt lat="39.7930504" lon="-0.7694895"><ele>705.75</ele><time>2026-04-04T10:10:07.598Z</time></trkpt><trkpt lat="39.792934" lon="-0.7695349"><ele>704.0</ele><time>2026-04-04T10:10:08.597Z</time></trkpt><trkpt lat="39.7928185" lon="-0.7695818"><ele>704.0</ele><time>2026-04-04T10:10:09.596Z</time></trkpt><trkpt lat="39.7927028" lon="-0.7696343"><ele>704.0</ele><time>2026-04-04T10:10:10.598Z</time></trkpt><trkpt lat="39.7925846" lon="-0.7696822"><ele>704.0</ele><time>2026-04-04T10:10:11.596Z</time></trkpt><trkpt lat="39.7924731" lon="-0.7697257"><ele>704.0</ele><time>2026-04-04T10:10:12.596Z</time></trkpt><trkpt lat="39.7923742" lon="-0.7697657"><ele>703.1666666666666</ele><time>2026-04-04T10:10:13.597Z</time></trkpt><trkpt lat="39.7922864" lon="-0.7698035"><ele>702.3333333333333</ele><time>2026-04-04T10:10:14.597Z</time></trkpt><trkpt lat="39.7922092" lon="-0.7698373"><ele>701.5</ele><time>2026-04-04T10:10:15.597Z</time></trkpt><trkpt lat="39.7921395" lon="-0.7698645"><ele>700.6666666666666</ele><time>2026-04-04T10:10:16.596Z</time></trkpt><trkpt lat="39.7920717" lon="-0.7698874"><ele>699.8333333333334</ele><time>2026-04-04T10:10:17.597Z</time></trkpt><trkpt lat="39.7920102" lon="-0.7699049"><ele>699.0</ele><time>2026-04-04T10:10:18.597Z</time></trkpt><trkpt lat="39.7918888" lon="-0.7698968"><ele>698.8000000000001</ele><time>2026-04-04T10:10:20.598Z</time></trkpt><trkpt lat="39.7918281" lon="-0.7698553"><ele>698.6</ele><time>2026-04-04T10:10:21.596Z</time></trkpt><trkpt lat="39.7917337" lon="-0.76975"><ele>698.4</ele><time>2026-04-04T10:10:23.597Z</time></trkpt><trkpt lat="39.7917051" lon="-0.7696749"><ele>698.2</ele><time>2026-04-04T10:10:24.596Z</time></trkpt><trkpt lat="39.7916738" lon="-0.7695516"><ele>698.0</ele><time>2026-04-04T10:10:25.597Z</time></trkpt><trkpt lat="39.791635" lon="-0.7694336"><ele>698.0</ele><time>2026-04-04T10:10:26.597Z</time></trkpt><trkpt lat="39.791598" lon="-0.7692936"><ele>698.0</ele><time>2026-04-04T10:10:27.597Z</time></trkpt><trkpt lat="39.7915631" lon="-0.7691227"><ele>698.0</ele><time>2026-04-04T10:10:28.597Z</time></trkpt><trkpt lat="39.7915382" lon="-0.7689315"><ele>698.0</ele><time>2026-04-04T10:10:29.596Z</time></trkpt><trkpt lat="39.791509" lon="-0.7687367"><ele>698.0</ele><time>2026-04-04T10:10:30.598Z</time></trkpt><trkpt lat="39.7914754" lon="-0.7685561"><ele>698.0</ele><time>2026-04-04T10:10:31.597Z</time></trkpt><trkpt lat="39.791452" lon="-0.768364"><ele>698.0</ele><time>2026-04-04T10:10:32.596Z</time></trkpt><trkpt lat="39.7914308" lon="-0.7681615"><ele>698.0</ele><time>2026-04-04T10:10:33.596Z</time></trkpt><trkpt lat="39.791413" lon="-0.7679735"><ele>698.6666666666666</ele><time>2026-04-04T10:10:34.597Z</time></trkpt><trkpt lat="39.7913993" lon="-0.7677727"><ele>699.3333333333334</ele><time>2026-04-04T10:10:35.597Z</time></trkpt><trkpt lat="39.7913921" lon="-0.7675653"><ele>700.0</ele><time>2026-04-04T10:10:36.596Z</time></trkpt><trkpt lat="39.7913842" lon="-0.7673469"><ele>700.75</ele><time>2026-04-04T10:10:37.598Z</time></trkpt><trkpt lat="39.7913766" lon="-0.7671405"><ele>701.5</ele><time>2026-04-04T10:10:38.597Z</time></trkpt><trkpt lat="39.7913683" lon="-0.7669525"><ele>702.25</ele><time>2026-04-04T10:10:39.598Z</time></trkpt><trkpt lat="39.7913639" lon="-0.7667672"><ele>703.0</ele><time>2026-04-04T10:10:40.598Z</time></trkpt><trkpt lat="39.7913684" lon="-0.7665858"><ele>703.5</ele><time>2026-04-04T10:10:41.597Z</time></trkpt><trkpt lat="39.7913778" lon="-0.7664245"><ele>704.0</ele><time>2026-04-04T10:10:42.596Z</time></trkpt><trkpt lat="39.7914013" lon="-0.7662589"><ele>704.5</ele><time>2026-04-04T10:10:43.597Z</time></trkpt><trkpt lat="39.7914265" lon="-0.7660889"><ele>705.0</ele><time>2026-04-04T10:10:44.597Z</time></trkpt><trkpt lat="39.7914427" lon="-0.7659083"><ele>705.0</ele><time>2026-04-04T10:10:45.597Z</time></trkpt><trkpt lat="39.791453" lon="-0.7657164"><ele>705.0</ele><time>2026-04-04T10:10:46.598Z</time></trkpt><trkpt lat="39.7914595" lon="-0.7655315"><ele>705.0</ele><time>2026-04-04T10:10:47.597Z</time></trkpt><trkpt lat="39.791464" lon="-0.7653828"><ele>705.0</ele><time>2026-04-04T10:10:48.598Z</time></trkpt><trkpt lat="39.7914621" lon="-0.7652638"><ele>704.1666666666666</ele><time>2026-04-04T10:10:49.598Z</time></trkpt><trkpt lat="39.7914579" lon="-0.7651679"><ele>703.3333333333334</ele><time>2026-04-04T10:10:50.597Z</time></trkpt><trkpt lat="39.7914449" lon="-0.7650755"><ele>702.5</ele><time>2026-04-04T10:10:51.597Z</time></trkpt><trkpt lat="39.7914242" lon="-0.7649829"><ele>701.6666666666667</ele><time>2026-04-04T10:10:52.596Z</time></trkpt><trkpt lat="39.7914007" lon="-0.7648591"><ele>700.8333333333334</ele><time>2026-04-04T10:10:53.598Z</time></trkpt><trkpt lat="39.7913845" lon="-0.7647265"><ele>700.0</ele><time>2026-04-04T10:10:54.598Z</time></trkpt><trkpt lat="39.7913673" lon="-0.7645824"><ele>700.0</ele><time>2026-04-04T10:10:55.597Z</time></trkpt><trkpt lat="39.7913494" lon="-0.7644448"><ele>700.0</ele><time>2026-04-04T10:10:56.599Z</time></trkpt><trkpt lat="39.7913261" lon="-0.7643151"><ele>700.0</ele><time>2026-04-04T10:10:57.598Z</time></trkpt><trkpt lat="39.7912866" lon="-0.7641857"><ele>700.0</ele><time>2026-04-04T10:10:58.597Z</time></trkpt><trkpt lat="39.7912326" lon="-0.7640457"><ele>700.0</ele><time>2026-04-04T10:10:59.597Z</time></trkpt><trkpt lat="39.7911758" lon="-0.7639248"><ele>700.4</ele><time>2026-04-04T10:11:00.598Z</time></trkpt><trkpt lat="39.7911206" lon="-0.7638051"><ele>700.8</ele><time>2026-04-04T10:11:01.597Z</time></trkpt><trkpt lat="39.7910553" lon="-0.7636763"><ele>701.2</ele><time>2026-04-04T10:11:02.597Z</time></trkpt><trkpt lat="39.7910033" lon="-0.763563"><ele>701.6</ele><time>2026-04-04T10:11:03.597Z</time></trkpt><trkpt lat="39.7909559" lon="-0.7634579"><ele>702.0</ele><time>2026-04-04T10:11:04.597Z</time></trkpt><trkpt lat="39.7908999" lon="-0.763362"><ele>700.25</ele><time>2026-04-04T10:11:05.596Z</time></trkpt><trkpt lat="39.7908342" lon="-0.7632412"><ele>698.5</ele><time>2026-04-04T10:11:06.597Z</time></trkpt><trkpt lat="39.7907705" lon="-0.7631286"><ele>696.75</ele><time>2026-04-04T10:11:07.598Z</time></trkpt><trkpt lat="39.79072" lon="-0.7630037"><ele>695.0</ele><time>2026-04-04T10:11:08.597Z</time></trkpt><trkpt lat="39.79067" lon="-0.7628602"><ele>695.0</ele><time>2026-04-04T10:11:09.598Z</time></trkpt><trkpt lat="39.7906203" lon="-0.7627079"><ele>695.0</ele><time>2026-04-04T10:11:10.597Z</time></trkpt><trkpt lat="39.790572" lon="-0.7625697"><ele>695.0</ele><time>2026-04-04T10:11:11.597Z</time></trkpt><trkpt lat="39.7905371" lon="-0.7624498"><ele>695.0</ele><time>2026-04-04T10:11:12.596Z</time></trkpt><trkpt lat="39.7905082" lon="-0.762324"><ele>695.0</ele><time>2026-04-04T10:11:13.597Z</time></trkpt><trkpt lat="39.7904774" lon="-0.7622113"><ele>694.3333333333333</ele><time>2026-04-04T10:11:14.597Z</time></trkpt><trkpt lat="39.7904486" lon="-0.7620913"><ele>693.6666666666666</ele><time>2026-04-04T10:11:15.598Z</time></trkpt><trkpt lat="39.7904229" lon="-0.7619831"><ele>693.0</ele><time>2026-04-04T10:11:16.597Z</time></trkpt><trkpt lat="39.7904025" lon="-0.7618862"><ele>692.3333333333334</ele><time>2026-04-04T10:11:17.596Z</time></trkpt><trkpt lat="39.7903796" lon="-0.7617861"><ele>691.6666666666667</ele><time>2026-04-04T10:11:18.596Z</time></trkpt><trkpt lat="39.7903404" lon="-0.7616785"><ele>691.0</ele><time>2026-04-04T10:11:19.598Z</time></trkpt><trkpt lat="39.7903045" lon="-0.7615642"><ele>690.1666666666667</ele><time>2026-04-04T10:11:20.597Z</time></trkpt><trkpt lat="39.7902731" lon="-0.7614657"><ele>689.3333333333334</ele><time>2026-04-04T10:11:21.596Z</time></trkpt><trkpt lat="39.7902444" lon="-0.7613738"><ele>688.5</ele><time>2026-04-04T10:11:22.597Z</time></trkpt><trkpt lat="39.7902373" lon="-0.761284"><ele>687.6666666666666</ele><time>2026-04-04T10:11:23.597Z</time></trkpt><trkpt lat="39.7902153" lon="-0.7611918"><ele>686.8333333333333</ele><time>2026-04-04T10:11:24.598Z</time></trkpt><trkpt lat="39.7901884" lon="-0.7610929"><ele>686.0</ele><time>2026-04-04T10:11:25.597Z</time></trkpt><trkpt lat="39.7901641" lon="-0.7609919"><ele>686.0</ele><time>2026-04-04T10:11:26.597Z</time></trkpt><trkpt lat="39.790143" lon="-0.7609038"><ele>686.0</ele><time>2026-04-04T10:11:27.596Z</time></trkpt><trkpt lat="39.7901176" lon="-0.7608213"><ele>686.0</ele><time>2026-04-04T10:11:28.596Z</time></trkpt><trkpt lat="39.7900689" lon="-0.7606771"><ele>686.0</ele><time>2026-04-04T10:11:30.596Z</time></trkpt><trkpt lat="39.7900392" lon="-0.7605972"><ele>686.0</ele><time>2026-04-04T10:11:31.596Z</time></trkpt><trkpt lat="39.7900057" lon="-0.760507"><ele>686.0</ele><time>2026-04-04T10:11:32.597Z</time></trkpt><trkpt lat="39.7899527" lon="-0.7604166"><ele>686.0</ele><time>2026-04-04T10:11:33.596Z</time></trkpt><trkpt lat="39.7899106" lon="-0.7603308"><ele>686.0</ele><time>2026-04-04T10:11:34.597Z</time></trkpt><trkpt lat="39.789882" lon="-0.7602481"><ele>686.0</ele><time>2026-04-04T10:11:35.597Z</time></trkpt><trkpt lat="39.7898618" lon="-0.760169"><ele>686.0</ele><time>2026-04-04T10:11:36.596Z</time></trkpt><trkpt lat="39.7898283" lon="-0.760042"><ele>686.0</ele><time>2026-04-04T10:11:38.596Z</time></trkpt><trkpt lat="39.7897849" lon="-0.7599493"><ele>686.0</ele><time>2026-04-04T10:11:40.597Z</time></trkpt><trkpt lat="39.7897309" lon="-0.7598668"><ele>684.8</ele><time>2026-04-04T10:11:42.598Z</time></trkpt><trkpt lat="39.7896533" lon="-0.7597266"><ele>683.5999999999999</ele><time>2026-04-04T10:11:44.596Z</time></trkpt><trkpt lat="39.789618" lon="-0.7596324"><ele>682.4</ele><time>2026-04-04T10:11:45.597Z</time></trkpt><trkpt lat="39.789576" lon="-0.7595193"><ele>681.2</ele><time>2026-04-04T10:11:46.597Z</time></trkpt><trkpt lat="39.7895354" lon="-0.7593984"><ele>680.0</ele><time>2026-04-04T10:11:47.597Z</time></trkpt><trkpt lat="39.7894923" lon="-0.7592683"><ele>680.0</ele><time>2026-04-04T10:11:48.597Z</time></trkpt><trkpt lat="39.7894555" lon="-0.7591524"><ele>680.0</ele><time>2026-04-04T10:11:49.597Z</time></trkpt><trkpt lat="39.7894177" lon="-0.759045"><ele>680.0</ele><time>2026-04-04T10:11:50.597Z</time></trkpt><trkpt lat="39.7893679" lon="-0.758928"><ele>680.0</ele><time>2026-04-04T10:11:51.597Z</time></trkpt><trkpt lat="39.7893219" lon="-0.758829"><ele>680.0</ele><time>2026-04-04T10:11:52.598Z</time></trkpt><trkpt lat="39.7892697" lon="-0.7587149"><ele>680.0</ele><time>2026-04-04T10:11:53.596Z</time></trkpt><trkpt lat="39.7892254" lon="-0.7585991"><ele>680.0</ele><time>2026-04-04T10:11:54.596Z</time></trkpt><trkpt lat="39.7891843" lon="-0.7584933"><ele>680.0</ele><time>2026-04-04T10:11:55.597Z</time></trkpt><trkpt lat="39.7891473" lon="-0.7583874"><ele>680.0</ele><time>2026-04-04T10:11:56.598Z</time></trkpt><trkpt lat="39.7891122" lon="-0.7582898"><ele>680.0</ele><time>2026-04-04T10:11:57.597Z</time></trkpt><trkpt lat="39.7890566" lon="-0.7581925"><ele>679.4285714285714</ele><time>2026-04-04T10:11:58.598Z</time></trkpt><trkpt lat="39.7889979" lon="-0.7581146"><ele>678.8571428571428</ele><time>2026-04-04T10:11:59.598Z</time></trkpt><trkpt lat="39.7889549" lon="-0.7580296"><ele>678.2857142857142</ele><time>2026-04-04T10:12:00.598Z</time></trkpt><trkpt lat="39.7889307" lon="-0.7579457"><ele>677.7142857142858</ele><time>2026-04-04T10:12:01.597Z</time></trkpt><trkpt lat="39.7889108" lon="-0.7578554"><ele>677.1428571428571</ele><time>2026-04-04T10:12:02.597Z</time></trkpt><trkpt lat="39.7888821" lon="-0.757763"><ele>676.5714285714286</ele><time>2026-04-04T10:12:04.598Z</time></trkpt><trkpt lat="39.7889501" lon="-0.7577474"><ele>676.0</ele><time>2026-04-04T10:12:14.598Z</time></trkpt><trkpt lat="39.7889856" lon="-0.7576547"><ele>675.4285714285714</ele><time>2026-04-04T10:12:17.596Z</time></trkpt><trkpt lat="39.7889792" lon="-0.7575561"><ele>674.8571428571429</ele><time>2026-04-04T10:12:20.598Z</time></trkpt><trkpt lat="39.7889622" lon="-0.7574612"><ele>674.2857142857142</ele><time>2026-04-04T10:12:23.597Z</time></trkpt><trkpt lat="39.7889344" lon="-0.7573683"><ele>673.7142857142858</ele><time>2026-04-04T10:12:32.598Z</time></trkpt><trkpt lat="39.7889212" lon="-0.7572854"><ele>673.1428571428571</ele><time>2026-04-04T10:12:35.597Z</time></trkpt><trkpt lat="39.7889016" lon="-0.757198"><ele>672.5714285714286</ele><time>2026-04-04T10:12:41.598Z</time></trkpt><trkpt lat="39.7888833" lon="-0.7571157"><ele>672.0</ele><time>2026-04-04T10:12:46.598Z</time></trkpt><trkpt lat="39.7888514" lon="-0.7570382"><ele>672.0</ele><time>2026-04-04T10:12:51.596Z</time></trkpt><trkpt lat="39.7888046" lon="-0.7569668"><ele>672.0</ele><time>2026-04-04T10:12:54.597Z</time></trkpt><trkpt lat="39.7887697" lon="-0.7568923"><ele>672.0</ele><time>2026-04-04T10:12:56.597Z</time></trkpt><trkpt lat="39.7887303" lon="-0.7568152"><ele>672.0</ele><time>2026-04-04T10:12:58.584Z</time></trkpt><trkpt lat="39.7887359" lon="-0.756665"><ele>672.0</ele><time>2026-04-04T10:13:00.597Z</time></trkpt><trkpt lat="39.788737" lon="-0.756539"><ele>672.0</ele><time>2026-04-04T10:13:02.596Z</time></trkpt><trkpt lat="39.7887172" lon="-0.7564321"><ele>671.5</ele><time>2026-04-04T10:13:05.596Z</time></trkpt><trkpt lat="39.7886778" lon="-0.7563244"><ele>671.0</ele><time>2026-04-04T10:13:08.595Z</time></trkpt><trkpt lat="39.7886351" lon="-0.7562506"><ele>670.5</ele><time>2026-04-04T10:13:10.597Z</time></trkpt><trkpt lat="39.7885733" lon="-0.7561646"><ele>670.0</ele><time>2026-04-04T10:13:12.597Z</time></trkpt><trkpt lat="39.7885135" lon="-0.756073"><ele>669.5</ele><time>2026-04-04T10:13:14.597Z</time></trkpt><trkpt lat="39.7884629" lon="-0.7559737"><ele>669.0</ele><time>2026-04-04T10:13:16.597Z</time></trkpt><trkpt lat="39.7884067" lon="-0.7558808"><ele>668.4000000000001</ele><time>2026-04-04T10:13:18.597Z</time></trkpt><trkpt lat="39.7883438" lon="-0.7558069"><ele>667.8</ele><time>2026-04-04T10:13:20.595Z</time></trkpt><trkpt lat="39.7882778" lon="-0.7557198"><ele>667.2</ele><time>2026-04-04T10:13:22.598Z</time></trkpt><trkpt lat="39.7882271" lon="-0.7556093"><ele>666.5999999999999</ele><time>2026-04-04T10:13:24.595Z</time></trkpt><trkpt lat="39.7881489" lon="-0.755474"><ele>666.0</ele><time>2026-04-04T10:13:26.598Z</time></trkpt><trkpt lat="39.7880908" lon="-0.7553452"><ele>666.0</ele><time>2026-04-04T10:13:28.597Z</time></trkpt><trkpt lat="39.7880405" lon="-0.7552537"><ele>666.0</ele><time>2026-04-04T10:13:30.597Z</time></trkpt><trkpt lat="39.7880007" lon="-0.7551407"><ele>666.0</ele><time>2026-04-04T10:13:32.6Z</time></trkpt><trkpt lat="39.7879915" lon="-0.7550068"><ele>666.0</ele><time>2026-04-04T10:13:34.596Z</time></trkpt><trkpt lat="39.7879544" lon="-0.754902"><ele>666.0</ele><time>2026-04-04T10:13:36.598Z</time></trkpt><trkpt lat="39.7879273" lon="-0.7547972"><ele>665.7142857142858</ele><time>2026-04-04T10:13:38.596Z</time></trkpt><trkpt lat="39.7879014" lon="-0.7547121"><ele>665.4285714285713</ele><time>2026-04-04T10:13:40.595Z</time></trkpt><trkpt lat="39.7878702" lon="-0.754616"><ele>665.1428571428571</ele><time>2026-04-04T10:13:43.596Z</time></trkpt><trkpt lat="39.7878542" lon="-0.7545233"><ele>664.8571428571429</ele><time>2026-04-04T10:13:45.596Z</time></trkpt><trkpt lat="39.7878278" lon="-0.754447"><ele>664.5714285714287</ele><time>2026-04-04T10:13:47.598Z</time></trkpt><trkpt lat="39.7877909" lon="-0.7543718"><ele>664.2857142857142</ele><time>2026-04-04T10:13:49.597Z</time></trkpt><trkpt lat="39.7877606" lon="-0.7542849"><ele>664.0</ele><time>2026-04-04T10:13:51.596Z</time></trkpt><trkpt lat="39.7877029" lon="-0.7541857"><ele>662.8333333333334</ele><time>2026-04-04T10:13:54.598Z</time></trkpt><trkpt lat="39.7876528" lon="-0.754099"><ele>661.6666666666667</ele><time>2026-04-04T10:13:56.595Z</time></trkpt><trkpt lat="39.7875711" lon="-0.7539765"><ele>660.5</ele><time>2026-04-04T10:13:58.598Z</time></trkpt><trkpt lat="39.7875226" lon="-0.7539202"><ele>659.3333333333334</ele><time>2026-04-04T10:13:59.596Z</time></trkpt><trkpt lat="39.7874615" lon="-0.7538287"><ele>658.1666666666666</ele><time>2026-04-04T10:14:01.598Z</time></trkpt><trkpt lat="39.7874083" lon="-0.7537602"><ele>657.0</ele><time>2026-04-04T10:14:03.598Z</time></trkpt><trkpt lat="39.7873247" lon="-0.7537339"><ele>657.0</ele><time>2026-04-04T10:14:05.598Z</time></trkpt><trkpt lat="39.7872602" lon="-0.7537233"><ele>657.0</ele><time>2026-04-04T10:14:06.597Z</time></trkpt><trkpt lat="39.7871531" lon="-0.7536927"><ele>657.0</ele><time>2026-04-04T10:14:08.598Z</time></trkpt><trkpt lat="39.7870581" lon="-0.753643"><ele>657.0</ele><time>2026-04-04T10:14:10.596Z</time></trkpt><trkpt lat="39.7869898" lon="-0.7535419"><ele>657.0</ele><time>2026-04-04T10:14:12.597Z</time></trkpt><trkpt lat="39.7869347" lon="-0.7534769"><ele>657.0</ele><time>2026-04-04T10:14:15.596Z</time></trkpt><trkpt lat="39.7868678" lon="-0.7534476"><ele>657.0</ele><time>2026-04-04T10:14:18.596Z</time></trkpt><trkpt lat="39.7868018" lon="-0.7534281"><ele>657.0</ele><time>2026-04-04T10:14:28.596Z</time></trkpt><trkpt lat="39.786731" lon="-0.7533978"><ele>657.0</ele><time>2026-04-04T10:14:31.597Z</time></trkpt><trkpt lat="39.7866571" lon="-0.7533743"><ele>657.0</ele><time>2026-04-04T10:14:33.595Z</time></trkpt><trkpt lat="39.7865731" lon="-0.7533668"><ele>657.0</ele><time>2026-04-04T10:14:35.597Z</time></trkpt><trkpt lat="39.7864744" lon="-0.7533539"><ele>656.6666666666666</ele><time>2026-04-04T10:14:37.596Z</time></trkpt><trkpt lat="39.7863896" lon="-0.7533134"><ele>656.3333333333334</ele><time>2026-04-04T10:14:39.598Z</time></trkpt><trkpt lat="39.7863024" lon="-0.7532473"><ele>656.0</ele><time>2026-04-04T10:14:41.597Z</time></trkpt><trkpt lat="39.7862334" lon="-0.7532201"><ele>655.6666666666667</ele><time>2026-04-04T10:14:43.596Z</time></trkpt><trkpt lat="39.7861626" lon="-0.7531948"><ele>655.3333333333334</ele><time>2026-04-04T10:14:45.596Z</time></trkpt><trkpt lat="39.7861011" lon="-0.7531535"><ele>655.0</ele><time>2026-04-04T10:14:47.596Z</time></trkpt><trkpt lat="39.7860254" lon="-0.7531345"><ele>654.8</ele><time>2026-04-04T10:14:49.597Z</time></trkpt><trkpt lat="39.7858817" lon="-0.7531308"><ele>654.6</ele><time>2026-04-04T10:14:51.596Z</time></trkpt><trkpt lat="39.7858072" lon="-0.7531358"><ele>654.4000000000001</ele><time>2026-04-04T10:14:52.597Z</time></trkpt><trkpt lat="39.7857395" lon="-0.7531351"><ele>654.2</ele><time>2026-04-04T10:14:53.597Z</time></trkpt><trkpt lat="39.7856254" lon="-0.7531186"><ele>654.0</ele><time>2026-04-04T10:14:55.597Z</time></trkpt><trkpt lat="39.7855378" lon="-0.7530945"><ele>654.0</ele><time>2026-04-04T10:14:57.596Z</time></trkpt><trkpt lat="39.7854808" lon="-0.7530113"><ele>654.0</ele><time>2026-04-04T10:15:00.597Z</time></trkpt><trkpt lat="39.7854977" lon="-0.752897"><ele>654.0</ele><time>2026-04-04T10:15:02.597Z</time></trkpt><trkpt lat="39.7855001" lon="-0.7527544"><ele>654.0</ele><time>2026-04-04T10:15:04.596Z</time></trkpt><trkpt lat="39.7854694" lon="-0.7526136"><ele>654.0</ele><time>2026-04-04T10:15:06.596Z</time></trkpt><trkpt lat="39.7854229" lon="-0.7525392"><ele>653.6</ele><time>2026-04-04T10:15:07.596Z</time></trkpt><trkpt lat="39.7853241" lon="-0.7524201"><ele>653.2</ele><time>2026-04-04T10:15:09.597Z</time></trkpt><trkpt lat="39.7852787" lon="-0.7523556"><ele>652.8000000000001</ele><time>2026-04-04T10:15:10.596Z</time></trkpt><trkpt lat="39.7852138" lon="-0.7522445"><ele>652.4000000000001</ele><time>2026-04-04T10:15:12.595Z</time></trkpt><trkpt lat="39.7851158" lon="-0.7521366"><ele>652.0</ele><time>2026-04-04T10:15:14.595Z</time></trkpt><trkpt lat="39.7850692" lon="-0.7520645"><ele>651.4000000000001</ele><time>2026-04-04T10:15:15.597Z</time></trkpt><trkpt lat="39.7849792" lon="-0.7519599"><ele>650.8000000000001</ele><time>2026-04-04T10:15:17.597Z</time></trkpt><trkpt lat="39.7849173" lon="-0.7518907"><ele>650.2</ele><time>2026-04-04T10:15:19.597Z</time></trkpt><trkpt lat="39.7848587" lon="-0.7518333"><ele>649.6</ele><time>2026-04-04T10:15:22.597Z</time></trkpt><trkpt lat="39.7847519" lon="-0.751716"><ele>649.0</ele><time>2026-04-04T10:15:24.596Z</time></trkpt><trkpt lat="39.7846984" lon="-0.7516724"><ele>647.8333333333334</ele><time>2026-04-04T10:15:25.597Z</time></trkpt><trkpt lat="39.7846302" lon="-0.7516235"><ele>646.6666666666667</ele><time>2026-04-04T10:15:27.596Z</time></trkpt><trkpt lat="39.7845728" lon="-0.7515284"><ele>645.5</ele><time>2026-04-04T10:18:51.597Z</time></trkpt><trkpt lat="39.7845079" lon="-0.751429"><ele>644.3333333333334</ele><time>2026-04-04T10:18:53.595Z</time></trkpt><trkpt lat="39.7844551" lon="-0.7513638"><ele>643.1666666666666</ele><time>2026-04-04T10:18:54.595Z</time></trkpt><trkpt lat="39.7844054" lon="-0.7512992"><ele>642.0</ele><time>2026-04-04T10:18:55.597Z</time></trkpt><trkpt lat="39.784317" lon="-0.7512049"><ele>642.0</ele><time>2026-04-04T10:18:57.594Z</time></trkpt><trkpt lat="39.7841888" lon="-0.7511801"><ele>642.0</ele><time>2026-04-04T10:18:59.595Z</time></trkpt><trkpt lat="39.7841008" lon="-0.7511875"><ele>642.0</ele><time>2026-04-04T10:19:00.596Z</time></trkpt><trkpt lat="39.7840058" lon="-0.7512065"><ele>642.0</ele><time>2026-04-04T10:19:01.597Z</time></trkpt><trkpt lat="39.783902" lon="-0.7512253"><ele>642.0</ele><time>2026-04-04T10:19:02.596Z</time></trkpt><trkpt lat="39.7838184" lon="-0.7512446"><ele>642.0</ele><time>2026-04-04T10:19:03.597Z</time></trkpt><trkpt lat="39.7837428" lon="-0.7512562"><ele>642.0</ele><time>2026-04-04T10:19:04.596Z</time></trkpt><trkpt lat="39.7836676" lon="-0.7512696"><ele>642.0</ele><time>2026-04-04T10:19:05.596Z</time></trkpt><trkpt lat="39.7835817" lon="-0.7512887"><ele>642.0</ele><time>2026-04-04T10:19:06.597Z</time></trkpt><trkpt lat="39.7834865" lon="-0.7513203"><ele>642.0</ele><time>2026-04-04T10:19:07.596Z</time></trkpt><trkpt lat="39.783372" lon="-0.7513644"><ele>642.8</ele><time>2026-04-04T10:19:08.595Z</time></trkpt><trkpt lat="39.7832616" lon="-0.7514091"><ele>643.6</ele><time>2026-04-04T10:19:09.595Z</time></trkpt><trkpt lat="39.7831518" lon="-0.7514504"><ele>644.4</ele><time>2026-04-04T10:19:10.596Z</time></trkpt><trkpt lat="39.7830535" lon="-0.751484"><ele>645.1999999999999</ele><time>2026-04-04T10:19:11.596Z</time></trkpt><trkpt lat="39.7829521" lon="-0.7515154"><ele>646.0</ele><time>2026-04-04T10:19:12.597Z</time></trkpt><trkpt lat="39.7828397" lon="-0.7515498"><ele>646.0</ele><time>2026-04-04T10:19:13.596Z</time></trkpt><trkpt lat="39.7827153" lon="-0.7515811"><ele>646.0</ele><time>2026-04-04T10:19:14.594Z</time></trkpt><trkpt lat="39.7825761" lon="-0.7516135"><ele>646.0</ele><time>2026-04-04T10:19:15.595Z</time></trkpt><trkpt lat="39.7824348" lon="-0.7516457"><ele>646.0</ele><time>2026-04-04T10:19:16.596Z</time></trkpt><trkpt lat="39.7822846" lon="-0.7516733"><ele>645.75</ele><time>2026-04-04T10:19:17.596Z</time></trkpt><trkpt lat="39.7821474" lon="-0.7517142"><ele>645.5</ele><time>2026-04-04T10:19:18.596Z</time></trkpt><trkpt lat="39.7820166" lon="-0.7517511"><ele>645.25</ele><time>2026-04-04T10:19:19.594Z</time></trkpt><trkpt lat="39.7818955" lon="-0.751771"><ele>645.0</ele><time>2026-04-04T10:19:20.597Z</time></trkpt><trkpt lat="39.7817764" lon="-0.7517913"><ele>645.4</ele><time>2026-04-04T10:19:21.595Z</time></trkpt><trkpt lat="39.7816667" lon="-0.7518154"><ele>645.8</ele><time>2026-04-04T10:19:22.595Z</time></trkpt><trkpt lat="39.7815643" lon="-0.7518475"><ele>646.2</ele><time>2026-04-04T10:19:23.596Z</time></trkpt><trkpt lat="39.7814585" lon="-0.7518932"><ele>646.6</ele><time>2026-04-04T10:19:24.595Z</time></trkpt><trkpt lat="39.7813518" lon="-0.7519476"><ele>647.0</ele><time>2026-04-04T10:19:25.596Z</time></trkpt><trkpt lat="39.7812286" lon="-0.7519919"><ele>645.0</ele><time>2026-04-04T10:19:26.596Z</time></trkpt><trkpt lat="39.781105" lon="-0.7520382"><ele>643.0</ele><time>2026-04-04T10:19:27.595Z</time></trkpt><trkpt lat="39.7809736" lon="-0.7520741"><ele>641.0</ele><time>2026-04-04T10:19:28.595Z</time></trkpt><trkpt lat="39.7808548" lon="-0.7520998"><ele>639.0</ele><time>2026-04-04T10:19:29.597Z</time></trkpt><trkpt lat="39.7807402" lon="-0.7521268"><ele>639.0</ele><time>2026-04-04T10:19:30.595Z</time></trkpt><trkpt lat="39.7806303" lon="-0.7521552"><ele>639.0</ele><time>2026-04-04T10:19:31.597Z</time></trkpt><trkpt lat="39.7805148" lon="-0.7521777"><ele>639.0</ele><time>2026-04-04T10:19:32.596Z</time></trkpt><trkpt lat="39.7803991" lon="-0.7521861"><ele>639.0</ele><time>2026-04-04T10:19:33.595Z</time></trkpt><trkpt lat="39.7802752" lon="-0.7521832"><ele>638.6</ele><time>2026-04-04T10:19:34.595Z</time></trkpt><trkpt lat="39.7801688" lon="-0.7521911"><ele>638.2</ele><time>2026-04-04T10:19:35.595Z</time></trkpt><trkpt lat="39.7800634" lon="-0.7522043"><ele>637.8000000000001</ele><time>2026-04-04T10:19:36.595Z</time></trkpt><trkpt lat="39.7799628" lon="-0.7522238"><ele>637.4</ele><time>2026-04-04T10:19:37.595Z</time></trkpt><trkpt lat="39.7798701" lon="-0.7522557"><ele>637.0</ele><time>2026-04-04T10:19:38.596Z</time></trkpt><trkpt lat="39.7797809" lon="-0.7522982"><ele>637.0</ele><time>2026-04-04T10:19:39.597Z</time></trkpt><trkpt lat="39.7796854" lon="-0.7523486"><ele>637.0</ele><time>2026-04-04T10:19:40.596Z</time></trkpt><trkpt lat="39.7795915" lon="-0.7523979"><ele>637.0</ele><time>2026-04-04T10:19:41.594Z</time></trkpt><trkpt lat="39.7794908" lon="-0.752428"><ele>637.0</ele><time>2026-04-04T10:19:42.596Z</time></trkpt><trkpt lat="39.7793826" lon="-0.7524447"><ele>637.0</ele><time>2026-04-04T10:19:43.596Z</time></trkpt><trkpt lat="39.7792691" lon="-0.7524567"><ele>638.75</ele><time>2026-04-04T10:19:44.597Z</time></trkpt><trkpt lat="39.7791485" lon="-0.7524644"><ele>640.5</ele><time>2026-04-04T10:19:45.596Z</time></trkpt><trkpt lat="39.7790306" lon="-0.7524685"><ele>642.25</ele><time>2026-04-04T10:19:46.595Z</time></trkpt><trkpt lat="39.7789169" lon="-0.752474"><ele>644.0</ele><time>2026-04-04T10:19:47.594Z</time></trkpt><trkpt lat="39.7787995" lon="-0.7524724"><ele>644.0</ele><time>2026-04-04T10:19:48.596Z</time></trkpt><trkpt lat="39.77869" lon="-0.7524744"><ele>644.0</ele><time>2026-04-04T10:19:49.594Z</time></trkpt><trkpt lat="39.7785913" lon="-0.7524807"><ele>644.0</ele><time>2026-04-04T10:19:50.594Z</time></trkpt><trkpt lat="39.7784899" lon="-0.7524881"><ele>644.0</ele><time>2026-04-04T10:19:51.596Z</time></trkpt><trkpt lat="39.7783898" lon="-0.752488"><ele>644.0</ele><time>2026-04-04T10:19:52.596Z</time></trkpt><trkpt lat="39.7783027" lon="-0.7524902"><ele>643.8333333333333</ele><time>2026-04-04T10:19:53.594Z</time></trkpt><trkpt lat="39.7782224" lon="-0.7524879"><ele>643.6666666666666</ele><time>2026-04-04T10:19:54.597Z</time></trkpt><trkpt lat="39.7781447" lon="-0.752474"><ele>643.5</ele><time>2026-04-04T10:19:55.595Z</time></trkpt><trkpt lat="39.7780708" lon="-0.7524395"><ele>643.3333333333334</ele><time>2026-04-04T10:19:56.595Z</time></trkpt><trkpt lat="39.7780068" lon="-0.7523845"><ele>643.1666666666667</ele><time>2026-04-04T10:19:57.596Z</time></trkpt><trkpt lat="39.7779436" lon="-0.7523065"><ele>643.0</ele><time>2026-04-04T10:19:58.594Z</time></trkpt><trkpt lat="39.7778823" lon="-0.7522087"><ele>643.0</ele><time>2026-04-04T10:19:59.596Z</time></trkpt><trkpt lat="39.7778337" lon="-0.7521061"><ele>643.0</ele><time>2026-04-04T10:20:00.594Z</time></trkpt><trkpt lat="39.7777964" lon="-0.7519971"><ele>643.0</ele><time>2026-04-04T10:20:01.595Z</time></trkpt><trkpt lat="39.7777605" lon="-0.7518844"><ele>643.0</ele><time>2026-04-04T10:20:02.595Z</time></trkpt><trkpt lat="39.7777344" lon="-0.7517833"><ele>643.0</ele><time>2026-04-04T10:20:03.597Z</time></trkpt><trkpt lat="39.7777114" lon="-0.7516993"><ele>643.0</ele><time>2026-04-04T10:20:04.597Z</time></trkpt><trkpt lat="39.7776322" lon="-0.7515953"><ele>643.0</ele><time>2026-04-04T10:20:06.594Z</time></trkpt><trkpt lat="39.7775296" lon="-0.7516198"><ele>643.0</ele><time>2026-04-04T10:20:08.595Z</time></trkpt><trkpt lat="39.7774769" lon="-0.751678"><ele>643.0</ele><time>2026-04-04T10:20:09.595Z</time></trkpt><trkpt lat="39.7774203" lon="-0.7517507"><ele>643.0</ele><time>2026-04-04T10:20:10.595Z</time></trkpt><trkpt lat="39.777357" lon="-0.7518328"><ele>643.0</ele><time>2026-04-04T10:20:11.595Z</time></trkpt><trkpt lat="39.7772849" lon="-0.7519234"><ele>643.0</ele><time>2026-04-04T10:20:12.596Z</time></trkpt><trkpt lat="39.7772082" lon="-0.7520233"><ele>642.4</ele><time>2026-04-04T10:20:13.595Z</time></trkpt><trkpt lat="39.7771422" lon="-0.7521332"><ele>641.8</ele><time>2026-04-04T10:20:14.594Z</time></trkpt><trkpt lat="39.7770839" lon="-0.7522327"><ele>641.2</ele><time>2026-04-04T10:20:15.595Z</time></trkpt><trkpt lat="39.7770289" lon="-0.7523206"><ele>640.6</ele><time>2026-04-04T10:20:16.594Z</time></trkpt><trkpt lat="39.7769748" lon="-0.7523949"><ele>640.0</ele><time>2026-04-04T10:20:17.595Z</time></trkpt><trkpt lat="39.7769095" lon="-0.7524634"><ele>640.6666666666667</ele><time>2026-04-04T10:20:18.595Z</time></trkpt><trkpt lat="39.776838" lon="-0.7525245"><ele>641.3333333333334</ele><time>2026-04-04T10:20:19.597Z</time></trkpt><trkpt lat="39.7767664" lon="-0.7525703"><ele>642.0</ele><time>2026-04-04T10:20:20.596Z</time></trkpt><trkpt lat="39.7766977" lon="-0.752591"><ele>642.6666666666666</ele><time>2026-04-04T10:20:21.595Z</time></trkpt><trkpt lat="39.7766212" lon="-0.7526002"><ele>643.3333333333333</ele><time>2026-04-04T10:20:22.596Z</time></trkpt><trkpt lat="39.7765466" lon="-0.7525966"><ele>644.0</ele><time>2026-04-04T10:20:23.597Z</time></trkpt><trkpt lat="39.7764726" lon="-0.7525654"><ele>644.0</ele><time>2026-04-04T10:20:24.594Z</time></trkpt><trkpt lat="39.7764121" lon="-0.7525208"><ele>644.0</ele><time>2026-04-04T10:20:25.595Z</time></trkpt><trkpt lat="39.7763572" lon="-0.7524582"><ele>644.0</ele><time>2026-04-04T10:20:26.595Z</time></trkpt><trkpt lat="39.7763074" lon="-0.752358"><ele>644.0</ele><time>2026-04-04T10:20:27.595Z</time></trkpt><trkpt lat="39.7762558" lon="-0.7522355"><ele>644.0</ele><time>2026-04-04T10:20:28.594Z</time></trkpt><trkpt lat="39.7761943" lon="-0.7521187"><ele>644.0</ele><time>2026-04-04T10:20:29.594Z</time></trkpt><trkpt lat="39.7761148" lon="-0.7520115"><ele>644.0</ele><time>2026-04-04T10:20:30.596Z</time></trkpt><trkpt lat="39.7760303" lon="-0.7519256"><ele>644.0</ele><time>2026-04-04T10:20:31.595Z</time></trkpt><trkpt lat="39.7759467" lon="-0.751855"><ele>644.0</ele><time>2026-04-04T10:20:32.596Z</time></trkpt><trkpt lat="39.7758741" lon="-0.7517885"><ele>644.0</ele><time>2026-04-04T10:20:33.594Z</time></trkpt><trkpt lat="39.7757998" lon="-0.7517195"><ele>643.8333333333333</ele><time>2026-04-04T10:20:34.595Z</time></trkpt><trkpt lat="39.7757369" lon="-0.7516292"><ele>643.6666666666666</ele><time>2026-04-04T10:20:35.595Z</time></trkpt><trkpt lat="39.7756878" lon="-0.7515153"><ele>643.5</ele><time>2026-04-04T10:20:36.594Z</time></trkpt><trkpt lat="39.7756536" lon="-0.7514017"><ele>643.3333333333334</ele><time>2026-04-04T10:20:37.596Z</time></trkpt><trkpt lat="39.7756227" lon="-0.7513092"><ele>643.1666666666667</ele><time>2026-04-04T10:20:38.595Z</time></trkpt><trkpt lat="39.7755785" lon="-0.7512273"><ele>643.0</ele><time>2026-04-04T10:20:39.595Z</time></trkpt><trkpt lat="39.7755245" lon="-0.7511398"><ele>643.0</ele><time>2026-04-04T10:20:40.595Z</time></trkpt><trkpt lat="39.7754708" lon="-0.7510476"><ele>643.0</ele><time>2026-04-04T10:20:41.596Z</time></trkpt><trkpt lat="39.7754169" lon="-0.7509262"><ele>643.0</ele><time>2026-04-04T10:20:42.595Z</time></trkpt><trkpt lat="39.7753793" lon="-0.7507991"><ele>643.0</ele><time>2026-04-04T10:20:43.595Z</time></trkpt><trkpt lat="39.7753523" lon="-0.7506529"><ele>643.0</ele><time>2026-04-04T10:20:44.595Z</time></trkpt><trkpt lat="39.775335" lon="-0.7504812"><ele>643.0</ele><time>2026-04-04T10:20:45.594Z</time></trkpt><trkpt lat="39.7753117" lon="-0.7503207"><ele>643.0</ele><time>2026-04-04T10:20:46.596Z</time></trkpt><trkpt lat="39.7752861" lon="-0.7501756"><ele>643.0</ele><time>2026-04-04T10:20:47.596Z</time></trkpt><trkpt lat="39.7752463" lon="-0.7500611"><ele>643.0</ele><time>2026-04-04T10:20:48.595Z</time></trkpt><trkpt lat="39.7751918" lon="-0.7499576"><ele>643.0</ele><time>2026-04-04T10:20:49.595Z</time></trkpt><trkpt lat="39.7751325" lon="-0.7498661"><ele>643.3333333333334</ele><time>2026-04-04T10:20:50.596Z</time></trkpt><trkpt lat="39.7750844" lon="-0.7497829"><ele>643.6666666666667</ele><time>2026-04-04T10:20:51.595Z</time></trkpt><trkpt lat="39.7750392" lon="-0.7496998"><ele>644.0</ele><time>2026-04-04T10:20:52.594Z</time></trkpt><trkpt lat="39.7749959" lon="-0.7496095"><ele>644.3333333333334</ele><time>2026-04-04T10:20:53.595Z</time></trkpt><trkpt lat="39.7749512" lon="-0.7495097"><ele>644.6666666666666</ele><time>2026-04-04T10:20:54.594Z</time></trkpt><trkpt lat="39.7749085" lon="-0.7494115"><ele>645.0</ele><time>2026-04-04T10:20:55.597Z</time></trkpt><trkpt lat="39.7748524" lon="-0.7493242"><ele>645.0</ele><time>2026-04-04T10:20:56.597Z</time></trkpt><trkpt lat="39.7747937" lon="-0.7492403"><ele>645.0</ele><time>2026-04-04T10:20:57.595Z</time></trkpt><trkpt lat="39.7747322" lon="-0.7491711"><ele>645.0</ele><time>2026-04-04T10:20:58.595Z</time></trkpt><trkpt lat="39.7746716" lon="-0.74911"><ele>645.0</ele><time>2026-04-04T10:20:59.595Z</time></trkpt><trkpt lat="39.7746204" lon="-0.7490496"><ele>645.0</ele><time>2026-04-04T10:21:00.594Z</time></trkpt><trkpt lat="39.7745695" lon="-0.7489712"><ele>645.0</ele><time>2026-04-04T10:21:01.594Z</time></trkpt><trkpt lat="39.7745082" lon="-0.7488938"><ele>645.0</ele><time>2026-04-04T10:21:02.596Z</time></trkpt><trkpt lat="39.774442" lon="-0.7488134"><ele>645.0</ele><time>2026-04-04T10:21:03.595Z</time></trkpt><trkpt lat="39.7743726" lon="-0.7487353"><ele>645.0</ele><time>2026-04-04T10:21:04.595Z</time></trkpt><trkpt lat="39.7743126" lon="-0.7486436"><ele>645.0</ele><time>2026-04-04T10:21:05.596Z</time></trkpt><trkpt lat="39.7742467" lon="-0.7485409"><ele>645.0</ele><time>2026-04-04T10:21:06.594Z</time></trkpt><trkpt lat="39.7741814" lon="-0.7484332"><ele>645.8</ele><time>2026-04-04T10:21:07.596Z</time></trkpt><trkpt lat="39.774124" lon="-0.7483079"><ele>646.6</ele><time>2026-04-04T10:21:08.595Z</time></trkpt><trkpt lat="39.7740725" lon="-0.7481847"><ele>647.4000000000001</ele><time>2026-04-04T10:21:09.595Z</time></trkpt><trkpt lat="39.7740273" lon="-0.7480709"><ele>648.2</ele><time>2026-04-04T10:21:10.595Z</time></trkpt><trkpt lat="39.7739759" lon="-0.7479586"><ele>649.0</ele><time>2026-04-04T10:21:11.595Z</time></trkpt><trkpt lat="39.7739209" lon="-0.747847"><ele>649.0</ele><time>2026-04-04T10:21:12.596Z</time></trkpt><trkpt lat="39.7738615" lon="-0.7477351"><ele>649.0</ele><time>2026-04-04T10:21:13.595Z</time></trkpt><trkpt lat="39.7738013" lon="-0.7476257"><ele>649.0</ele><time>2026-04-04T10:21:14.596Z</time></trkpt><trkpt lat="39.7737411" lon="-0.7475201"><ele>649.0</ele><time>2026-04-04T10:21:15.596Z</time></trkpt><trkpt lat="39.7736815" lon="-0.7474136"><ele>649.0</ele><time>2026-04-04T10:21:16.596Z</time></trkpt><trkpt lat="39.7736159" lon="-0.7473183"><ele>649.2</ele><time>2026-04-04T10:21:17.596Z</time></trkpt><trkpt lat="39.7735406" lon="-0.7472193"><ele>649.4000000000001</ele><time>2026-04-04T10:21:18.595Z</time></trkpt><trkpt lat="39.7734555" lon="-0.7471323"><ele>649.6</ele><time>2026-04-04T10:21:19.595Z</time></trkpt><trkpt lat="39.7733791" lon="-0.747034"><ele>649.8</ele><time>2026-04-04T10:21:20.596Z</time></trkpt><trkpt lat="39.7732953" lon="-0.7469343"><ele>650.0</ele><time>2026-04-04T10:21:21.595Z</time></trkpt><trkpt lat="39.7732068" lon="-0.746838"><ele>650.8</ele><time>2026-04-04T10:21:22.596Z</time></trkpt><trkpt lat="39.7731217" lon="-0.7467416"><ele>651.6</ele><time>2026-04-04T10:21:23.595Z</time></trkpt><trkpt lat="39.7730306" lon="-0.7466508"><ele>652.4000000000001</ele><time>2026-04-04T10:21:24.595Z</time></trkpt><trkpt lat="39.772942" lon="-0.746555"><ele>653.2</ele><time>2026-04-04T10:21:25.595Z</time></trkpt><trkpt lat="39.7728634" lon="-0.7464623"><ele>654.0</ele><time>2026-04-04T10:21:26.595Z</time></trkpt><trkpt lat="39.7727896" lon="-0.7463734"><ele>654.0</ele><time>2026-04-04T10:21:27.596Z</time></trkpt><trkpt lat="39.7727092" lon="-0.7462838"><ele>654.0</ele><time>2026-04-04T10:21:28.595Z</time></trkpt><trkpt lat="39.7726334" lon="-0.7461882"><ele>654.0</ele><time>2026-04-04T10:21:29.596Z</time></trkpt><trkpt lat="39.7725505" lon="-0.7460868"><ele>654.0</ele><time>2026-04-04T10:21:30.595Z</time></trkpt><trkpt lat="39.7724678" lon="-0.7459946"><ele>654.0</ele><time>2026-04-04T10:21:31.597Z</time></trkpt><trkpt lat="39.7723949" lon="-0.7459149"><ele>654.4000000000001</ele><time>2026-04-04T10:21:32.594Z</time></trkpt><trkpt lat="39.7723235" lon="-0.7458313"><ele>654.8</ele><time>2026-04-04T10:21:33.596Z</time></trkpt><trkpt lat="39.7722517" lon="-0.745743"><ele>655.2</ele><time>2026-04-04T10:21:34.594Z</time></trkpt><trkpt lat="39.7721812" lon="-0.7456549"><ele>655.5999999999999</ele><time>2026-04-04T10:21:35.595Z</time></trkpt><trkpt lat="39.7721153" lon="-0.7455674"><ele>656.0</ele><time>2026-04-04T10:21:36.595Z</time></trkpt><trkpt lat="39.7720497" lon="-0.7454561"><ele>656.0</ele><time>2026-04-04T10:21:37.595Z</time></trkpt><trkpt lat="39.7719817" lon="-0.7453354"><ele>656.0</ele><time>2026-04-04T10:21:38.595Z</time></trkpt><trkpt lat="39.7719141" lon="-0.7452192"><ele>656.0</ele><time>2026-04-04T10:21:39.595Z</time></trkpt><trkpt lat="39.77185" lon="-0.7451309"><ele>656.0</ele><time>2026-04-04T10:21:40.595Z</time></trkpt><trkpt lat="39.7717933" lon="-0.7450367"><ele>656.0</ele><time>2026-04-04T10:21:41.595Z</time></trkpt><trkpt lat="39.7717387" lon="-0.7449648"><ele>656.6666666666666</ele><time>2026-04-04T10:21:42.595Z</time></trkpt><trkpt lat="39.7716832" lon="-0.7449081"><ele>657.3333333333333</ele><time>2026-04-04T10:21:43.595Z</time></trkpt><trkpt lat="39.7715963" lon="-0.7448592"><ele>658.0</ele><time>2026-04-04T10:21:45.594Z</time></trkpt><trkpt lat="39.7715331" lon="-0.7448395"><ele>658.6666666666666</ele><time>2026-04-04T10:22:02.596Z</time></trkpt><trkpt lat="39.7714786" lon="-0.7447701"><ele>659.3333333333334</ele><time>2026-04-04T10:22:17.595Z</time></trkpt><trkpt lat="39.7714032" lon="-0.744717"><ele>660.0</ele><time>2026-04-04T10:22:19.594Z</time></trkpt><trkpt lat="39.7713039" lon="-0.7446746"><ele>660.0</ele><time>2026-04-04T10:22:21.596Z</time></trkpt><trkpt lat="39.7711839" lon="-0.7446272"><ele>660.0</ele><time>2026-04-04T10:22:23.594Z</time></trkpt><trkpt lat="39.7710849" lon="-0.7445224"><ele>660.0</ele><time>2026-04-04T10:22:25.596Z</time></trkpt><trkpt lat="39.7710336" lon="-0.7444318"><ele>660.0</ele><time>2026-04-04T10:22:26.594Z</time></trkpt><trkpt lat="39.7709788" lon="-0.7443397"><ele>660.0</ele><time>2026-04-04T10:22:27.594Z</time></trkpt><trkpt lat="39.7709123" lon="-0.7442493"><ele>659.5</ele><time>2026-04-04T10:22:28.595Z</time></trkpt><trkpt lat="39.7708259" lon="-0.7441541"><ele>659.0</ele><time>2026-04-04T10:22:29.595Z</time></trkpt><trkpt lat="39.7707275" lon="-0.744063"><ele>658.5</ele><time>2026-04-04T10:22:30.596Z</time></trkpt><trkpt lat="39.7706232" lon="-0.7439535"><ele>658.0</ele><time>2026-04-04T10:22:31.595Z</time></trkpt><trkpt lat="39.7705181" lon="-0.7438412"><ele>658.0</ele><time>2026-04-04T10:22:32.595Z</time></trkpt><trkpt lat="39.770417" lon="-0.7437368"><ele>658.0</ele><time>2026-04-04T10:22:33.596Z</time></trkpt><trkpt lat="39.7703244" lon="-0.7436355"><ele>658.0</ele><time>2026-04-04T10:22:34.596Z</time></trkpt><trkpt lat="39.770234" lon="-0.7435384"><ele>658.0</ele><time>2026-04-04T10:22:35.595Z</time></trkpt><trkpt lat="39.7701464" lon="-0.7434285"><ele>657.0</ele><time>2026-04-04T10:22:36.594Z</time></trkpt><trkpt lat="39.7700687" lon="-0.7433222"><ele>656.0</ele><time>2026-04-04T10:22:37.595Z</time></trkpt><trkpt lat="39.7699913" lon="-0.7432078"><ele>655.0</ele><time>2026-04-04T10:22:38.595Z</time></trkpt><trkpt lat="39.7699202" lon="-0.7430787"><ele>654.0</ele><time>2026-04-04T10:22:39.594Z</time></trkpt><trkpt lat="39.7698602" lon="-0.7429525"><ele>654.0</ele><time>2026-04-04T10:22:40.596Z</time></trkpt><trkpt lat="39.7698047" lon="-0.7428425"><ele>654.0</ele><time>2026-04-04T10:22:41.595Z</time></trkpt><trkpt lat="39.7697416" lon="-0.7427252"><ele>654.0</ele><time>2026-04-04T10:22:42.594Z</time></trkpt><trkpt lat="39.7696728" lon="-0.7426217"><ele>654.0</ele><time>2026-04-04T10:22:43.595Z</time></trkpt><trkpt lat="39.7696191" lon="-0.7425204"><ele>654.0</ele><time>2026-04-04T10:22:44.595Z</time></trkpt><trkpt lat="39.7695721" lon="-0.7424376"><ele>652.6</ele><time>2026-04-04T10:22:45.594Z</time></trkpt><trkpt lat="39.7695074" lon="-0.7423754"><ele>651.2</ele><time>2026-04-04T10:22:46.595Z</time></trkpt><trkpt lat="39.7694238" lon="-0.742318"><ele>649.8000000000001</ele><time>2026-04-04T10:22:47.594Z</time></trkpt><trkpt lat="39.7693367" lon="-0.7422746"><ele>648.4000000000001</ele><time>2026-04-04T10:22:48.595Z</time></trkpt><trkpt lat="39.7692384" lon="-0.7422562"><ele>647.0</ele><time>2026-04-04T10:22:49.595Z</time></trkpt><trkpt lat="39.7691489" lon="-0.7422499"><ele>647.0</ele><time>2026-04-04T10:22:50.594Z</time></trkpt><trkpt lat="39.769065" lon="-0.7422401"><ele>647.0</ele><time>2026-04-04T10:22:51.594Z</time></trkpt><trkpt lat="39.7689864" lon="-0.7422298"><ele>647.0</ele><time>2026-04-04T10:22:52.595Z</time></trkpt><trkpt lat="39.7689135" lon="-0.7422022"><ele>647.0</ele><time>2026-04-04T10:22:53.596Z</time></trkpt><trkpt lat="39.7688543" lon="-0.7421522"><ele>647.0</ele><time>2026-04-04T10:22:54.595Z</time></trkpt><trkpt lat="39.7687948" lon="-0.7420702"><ele>647.0</ele><time>2026-04-04T10:22:55.594Z</time></trkpt><trkpt lat="39.7687329" lon="-0.7419846"><ele>647.0</ele><time>2026-04-04T10:22:56.596Z</time></trkpt><trkpt lat="39.768687" lon="-0.7418826"><ele>647.0</ele><time>2026-04-04T10:22:57.595Z</time></trkpt><trkpt lat="39.7686634" lon="-0.7417929"><ele>647.0</ele><time>2026-04-04T10:22:58.594Z</time></trkpt><trkpt lat="39.7686573" lon="-0.7417023"><ele>647.0</ele><time>2026-04-04T10:22:59.594Z</time></trkpt><trkpt lat="39.7686738" lon="-0.7415951"><ele>647.0</ele><time>2026-04-04T10:23:00.596Z</time></trkpt><trkpt lat="39.7687118" lon="-0.7414758"><ele>647.0</ele><time>2026-04-04T10:23:01.594Z</time></trkpt><trkpt lat="39.7687485" lon="-0.7413532"><ele>644.1666666666666</ele><time>2026-04-04T10:23:02.595Z</time></trkpt><trkpt lat="39.7687823" lon="-0.7412393"><ele>641.3333333333333</ele><time>2026-04-04T10:23:03.594Z</time></trkpt><trkpt lat="39.768811" lon="-0.7411235"><ele>638.5</ele><time>2026-04-04T10:23:04.595Z</time></trkpt><trkpt lat="39.7688242" lon="-0.7410145"><ele>635.6666666666666</ele><time>2026-04-04T10:23:05.595Z</time></trkpt><trkpt lat="39.7688249" lon="-0.7409016"><ele>632.8333333333334</ele><time>2026-04-04T10:23:06.596Z</time></trkpt><trkpt lat="39.7688072" lon="-0.7407862"><ele>630.0</ele><time>2026-04-04T10:23:07.594Z</time></trkpt><trkpt lat="39.7687781" lon="-0.7406753"><ele>628.4</ele><time>2026-04-04T10:23:08.595Z</time></trkpt><trkpt lat="39.768732" lon="-0.7405723"><ele>626.8</ele><time>2026-04-04T10:23:09.595Z</time></trkpt><trkpt lat="39.7686837" lon="-0.7404869"><ele>625.2</ele><time>2026-04-04T10:23:10.595Z</time></trkpt><trkpt lat="39.7686384" lon="-0.7404268"><ele>623.6</ele><time>2026-04-04T10:23:11.594Z</time></trkpt><trkpt lat="39.7685157" lon="-0.7403593"><ele>622.0</ele><time>2026-04-04T10:23:13.595Z</time></trkpt><trkpt lat="39.7684298" lon="-0.7403253"><ele>623.0</ele><time>2026-04-04T10:23:14.595Z</time></trkpt><trkpt lat="39.7683434" lon="-0.7402787"><ele>624.0</ele><time>2026-04-04T10:23:15.595Z</time></trkpt><trkpt lat="39.7682609" lon="-0.7402354"><ele>625.0</ele><time>2026-04-04T10:23:16.595Z</time></trkpt><trkpt lat="39.7681746" lon="-0.7401855"><ele>626.0</ele><time>2026-04-04T10:23:17.596Z</time></trkpt><trkpt lat="39.7680835" lon="-0.7401301"><ele>627.0</ele><time>2026-04-04T10:23:18.595Z</time></trkpt><trkpt lat="39.7679937" lon="-0.7400608"><ele>627.0</ele><time>2026-04-04T10:23:19.595Z</time></trkpt><trkpt lat="39.7679277" lon="-0.7399768"><ele>627.0</ele><time>2026-04-04T10:23:20.595Z</time></trkpt><trkpt lat="39.7678776" lon="-0.739893"><ele>627.0</ele><time>2026-04-04T10:23:21.596Z</time></trkpt><trkpt lat="39.7678402" lon="-0.7398128"><ele>627.0</ele><time>2026-04-04T10:23:22.595Z</time></trkpt><trkpt lat="39.7678139" lon="-0.7397325"><ele>627.0</ele><time>2026-04-04T10:23:23.595Z</time></trkpt><trkpt lat="39.7678017" lon="-0.739652"><ele>627.0</ele><time>2026-04-04T10:23:24.596Z</time></trkpt><trkpt lat="39.7678413" lon="-0.7394929"><ele>627.0</ele><time>2026-04-04T10:23:26.595Z</time></trkpt><trkpt lat="39.7678802" lon="-0.7394035"><ele>627.0</ele><time>2026-04-04T10:23:27.596Z</time></trkpt><trkpt lat="39.7679152" lon="-0.7393163"><ele>627.0</ele><time>2026-04-04T10:23:28.596Z</time></trkpt><trkpt lat="39.767945" lon="-0.7392359"><ele>627.0</ele><time>2026-04-04T10:23:29.595Z</time></trkpt><trkpt lat="39.7679734" lon="-0.7391442"><ele>627.0</ele><time>2026-04-04T10:23:30.594Z</time></trkpt><trkpt lat="39.7679835" lon="-0.7390474"><ele>627.0</ele><time>2026-04-04T10:23:31.595Z</time></trkpt><trkpt lat="39.7679855" lon="-0.7389611"><ele>627.0</ele><time>2026-04-04T10:23:32.596Z</time></trkpt><trkpt lat="39.7679665" lon="-0.738843"><ele>625.5</ele><time>2026-04-04T10:23:34.594Z</time></trkpt><trkpt lat="39.7678884" lon="-0.738805"><ele>624.0</ele><time>2026-04-04T10:23:36.596Z</time></trkpt><trkpt lat="39.7678266" lon="-0.7388231"><ele>622.5</ele><time>2026-04-04T10:23:37.595Z</time></trkpt><trkpt lat="39.7677524" lon="-0.73887"><ele>621.0</ele><time>2026-04-04T10:23:38.595Z</time></trkpt><trkpt lat="39.7676599" lon="-0.7389189"><ele>619.5</ele><time>2026-04-04T10:23:39.596Z</time></trkpt><trkpt lat="39.7675542" lon="-0.7389626"><ele>618.0</ele><time>2026-04-04T10:23:40.594Z</time></trkpt><trkpt lat="39.7674515" lon="-0.7389963"><ele>618.0</ele><time>2026-04-04T10:23:41.595Z</time></trkpt><trkpt lat="39.7673511" lon="-0.7390148"><ele>618.0</ele><time>2026-04-04T10:23:42.595Z</time></trkpt><trkpt lat="39.7672549" lon="-0.7390262"><ele>618.0</ele><time>2026-04-04T10:23:43.595Z</time></trkpt><trkpt lat="39.7671622" lon="-0.7390285"><ele>618.0</ele><time>2026-04-04T10:23:44.594Z</time></trkpt><trkpt lat="39.7670718" lon="-0.7390405"><ele>618.0</ele><time>2026-04-04T10:23:45.594Z</time></trkpt><trkpt lat="39.7669776" lon="-0.7390715"><ele>618.0</ele><time>2026-04-04T10:23:46.595Z</time></trkpt><trkpt lat="39.7668824" lon="-0.739108"><ele>618.0</ele><time>2026-04-04T10:23:47.595Z</time></trkpt><trkpt lat="39.76679" lon="-0.7391544"><ele>618.0</ele><time>2026-04-04T10:23:48.595Z</time></trkpt><trkpt lat="39.7667049" lon="-0.7392115"><ele>618.0</ele><time>2026-04-04T10:23:49.595Z</time></trkpt><trkpt lat="39.7666238" lon="-0.7392633"><ele>618.0</ele><time>2026-04-04T10:23:50.595Z</time></trkpt><trkpt lat="39.7665406" lon="-0.7393022"><ele>617.5714285714287</ele><time>2026-04-04T10:23:51.593Z</time></trkpt><trkpt lat="39.7664637" lon="-0.7393361"><ele>617.1428571428571</ele><time>2026-04-04T10:23:52.595Z</time></trkpt><trkpt lat="39.7663862" lon="-0.7393588"><ele>616.7142857142858</ele><time>2026-04-04T10:23:53.594Z</time></trkpt><trkpt lat="39.766317" lon="-0.7393649"><ele>616.2857142857143</ele><time>2026-04-04T10:23:54.594Z</time></trkpt><trkpt lat="39.7662466" lon="-0.7393546"><ele>615.8571428571429</ele><time>2026-04-04T10:23:55.594Z</time></trkpt><trkpt lat="39.7661771" lon="-0.7393345"><ele>615.4285714285714</ele><time>2026-04-04T10:23:56.594Z</time></trkpt><trkpt lat="39.7661073" lon="-0.7393162"><ele>615.0</ele><time>2026-04-04T10:23:57.594Z</time></trkpt><trkpt lat="39.7660366" lon="-0.7393078"><ele>615.6666666666666</ele><time>2026-04-04T10:23:58.596Z</time></trkpt><trkpt lat="39.7659685" lon="-0.7393169"><ele>616.3333333333334</ele><time>2026-04-04T10:23:59.594Z</time></trkpt><trkpt lat="39.765891" lon="-0.7393447"><ele>617.0</ele><time>2026-04-04T10:24:00.594Z</time></trkpt><trkpt lat="39.7657999" lon="-0.7393918"><ele>617.6666666666667</ele><time>2026-04-04T10:24:01.595Z</time></trkpt><trkpt lat="39.7657087" lon="-0.7394341"><ele>618.3333333333334</ele><time>2026-04-04T10:24:02.595Z</time></trkpt><trkpt lat="39.7656103" lon="-0.7394763"><ele>619.0</ele><time>2026-04-04T10:24:03.595Z</time></trkpt><trkpt lat="39.7655004" lon="-0.73953"><ele>619.0</ele><time>2026-04-04T10:24:04.594Z</time></trkpt><trkpt lat="39.7653977" lon="-0.7395834"><ele>619.0</ele><time>2026-04-04T10:24:05.596Z</time></trkpt><trkpt lat="39.7653003" lon="-0.7396299"><ele>619.0</ele><time>2026-04-04T10:24:06.595Z</time></trkpt><trkpt lat="39.7652093" lon="-0.7396779"><ele>619.0</ele><time>2026-04-04T10:24:07.595Z</time></trkpt><trkpt lat="39.765125" lon="-0.7397171"><ele>619.0</ele><time>2026-04-04T10:24:08.595Z</time></trkpt><trkpt lat="39.7650512" lon="-0.7397515"><ele>615.8571428571429</ele><time>2026-04-04T10:24:09.596Z</time></trkpt><trkpt lat="39.7649871" lon="-0.7397808"><ele>612.7142857142858</ele><time>2026-04-04T10:24:10.594Z</time></trkpt><trkpt lat="39.76493" lon="-0.7398187"><ele>609.5714285714287</ele><time>2026-04-04T10:24:11.594Z</time></trkpt><trkpt lat="39.7648696" lon="-0.7398598"><ele>606.4285714285714</ele><time>2026-04-04T10:24:12.594Z</time></trkpt><trkpt lat="39.764809" lon="-0.7399065"><ele>603.2857142857143</ele><time>2026-04-04T10:24:13.595Z</time></trkpt><trkpt lat="39.7647575" lon="-0.7399541"><ele>600.1428571428572</ele><time>2026-04-04T10:24:14.595Z</time></trkpt><trkpt lat="39.7646718" lon="-0.7400351"><ele>597.0</ele><time>2026-04-04T10:24:16.595Z</time></trkpt><trkpt lat="39.7646034" lon="-0.7400897"><ele>597.0</ele><time>2026-04-04T10:24:18.596Z</time></trkpt><trkpt lat="39.7645302" lon="-0.7400903"><ele>597.0</ele><time>2026-04-04T10:24:20.594Z</time></trkpt><trkpt lat="39.7644539" lon="-0.7400362"><ele>597.0</ele><time>2026-04-04T10:24:22.595Z</time></trkpt><trkpt lat="39.7644081" lon="-0.7399309"><ele>597.0</ele><time>2026-04-04T10:24:24.595Z</time></trkpt><trkpt lat="39.7644243" lon="-0.7398008"><ele>597.0</ele><time>2026-04-04T10:24:26.596Z</time></trkpt><trkpt lat="39.7644527" lon="-0.7397179"><ele>597.0</ele><time>2026-04-04T10:24:27.596Z</time></trkpt><trkpt lat="39.7644765" lon="-0.7396186"><ele>597.0000000000001</ele><time>2026-04-04T10:24:28.596Z</time></trkpt><trkpt lat="39.7644918" lon="-0.7395328"><ele>597.0</ele><time>2026-04-04T10:24:29.595Z</time></trkpt><trkpt lat="39.7645022" lon="-0.7394433"><ele>597.0</ele><time>2026-04-04T10:24:30.595Z</time></trkpt><trkpt lat="39.7645122" lon="-0.7393496"><ele>597.0</ele><time>2026-04-04T10:24:31.596Z</time></trkpt><trkpt lat="39.7645283" lon="-0.7392624"><ele>597.0</ele><time>2026-04-04T10:24:32.594Z</time></trkpt><trkpt lat="39.7645491" lon="-0.7391586"><ele>597.0000000000001</ele><time>2026-04-04T10:24:33.595Z</time></trkpt><trkpt lat="39.764572" lon="-0.7390628"><ele>597.0</ele><time>2026-04-04T10:24:34.594Z</time></trkpt><trkpt lat="39.764595" lon="-0.7389688"><ele>595.3333333333334</ele><time>2026-04-04T10:24:35.595Z</time></trkpt><trkpt lat="39.7646274" lon="-0.7388813"><ele>593.6666666666666</ele><time>2026-04-04T10:24:36.596Z</time></trkpt><trkpt lat="39.7646591" lon="-0.7387974"><ele>592.0</ele><time>2026-04-04T10:24:37.595Z</time></trkpt><trkpt lat="39.7646938" lon="-0.7387187"><ele>590.3333333333333</ele><time>2026-04-04T10:24:38.596Z</time></trkpt><trkpt lat="39.764727" lon="-0.7386414"><ele>588.6666666666666</ele><time>2026-04-04T10:24:39.595Z</time></trkpt><trkpt lat="39.7647608" lon="-0.7385685"><ele>587.0</ele><time>2026-04-04T10:24:40.595Z</time></trkpt><trkpt lat="39.7648225" lon="-0.738448"><ele>585.5</ele><time>2026-04-04T10:24:42.594Z</time></trkpt><trkpt lat="39.7648478" lon="-0.7383547"><ele>584.0</ele><time>2026-04-04T10:24:44.595Z</time></trkpt><trkpt lat="39.7647893" lon="-0.7382749"><ele>582.5</ele><time>2026-04-04T10:24:46.596Z</time></trkpt><trkpt lat="39.7647308" lon="-0.7382271"><ele>581.0</ele><time>2026-04-04T10:24:47.595Z</time></trkpt><trkpt lat="39.7646548" lon="-0.7381805"><ele>579.5</ele><time>2026-04-04T10:24:48.595Z</time></trkpt><trkpt lat="39.7645646" lon="-0.7381328"><ele>578.0</ele><time>2026-04-04T10:24:49.596Z</time></trkpt><trkpt lat="39.7644785" lon="-0.7380976"><ele>578.0</ele><time>2026-04-04T10:24:50.595Z</time></trkpt><trkpt lat="39.7643906" lon="-0.7380689"><ele>578.0</ele><time>2026-04-04T10:24:51.596Z</time></trkpt><trkpt lat="39.7642935" lon="-0.7380439"><ele>578.0</ele><time>2026-04-04T10:24:52.595Z</time></trkpt><trkpt lat="39.7641875" lon="-0.7380262"><ele>578.0</ele><time>2026-04-04T10:24:53.594Z</time></trkpt><trkpt lat="39.764083" lon="-0.7380071"><ele>578.0</ele><time>2026-04-04T10:24:54.596Z</time></trkpt><trkpt lat="39.7639921" lon="-0.7379882"><ele>576.1999999999999</ele><time>2026-04-04T10:24:55.596Z</time></trkpt><trkpt lat="39.7639031" lon="-0.737987"><ele>574.4</ele><time>2026-04-04T10:24:56.596Z</time></trkpt><trkpt lat="39.7638214" lon="-0.7380043"><ele>572.5999999999999</ele><time>2026-04-04T10:24:57.594Z</time></trkpt><trkpt lat="39.7637253" lon="-0.7380408"><ele>570.8</ele><time>2026-04-04T10:24:58.595Z</time></trkpt><trkpt lat="39.763621" lon="-0.7380905"><ele>569.0</ele><time>2026-04-04T10:24:59.595Z</time></trkpt><trkpt lat="39.7635225" lon="-0.7381194"><ele>568.3333333333333</ele><time>2026-04-04T10:25:00.596Z</time></trkpt><trkpt lat="39.7634361" lon="-0.7381392"><ele>567.6666666666666</ele><time>2026-04-04T10:25:01.595Z</time></trkpt><trkpt lat="39.7633563" lon="-0.7381458"><ele>567.0</ele><time>2026-04-04T10:25:02.595Z</time></trkpt><trkpt lat="39.7632642" lon="-0.7381447"><ele>566.3333333333334</ele><time>2026-04-04T10:25:03.594Z</time></trkpt><trkpt lat="39.7631768" lon="-0.7381398"><ele>565.6666666666667</ele><time>2026-04-04T10:25:04.595Z</time></trkpt><trkpt lat="39.763097" lon="-0.7381383"><ele>565.0</ele><time>2026-04-04T10:25:05.594Z</time></trkpt><trkpt lat="39.7629815" lon="-0.7381596"><ele>565.0</ele><time>2026-04-04T10:25:07.594Z</time></trkpt><trkpt lat="39.7628753" lon="-0.73824"><ele>565.0</ele><time>2026-04-04T10:25:09.594Z</time></trkpt><trkpt lat="39.7628231" lon="-0.7382935"><ele>565.0</ele><time>2026-04-04T10:25:10.594Z</time></trkpt><trkpt lat="39.7627721" lon="-0.7383549"><ele>565.0</ele><time>2026-04-04T10:25:11.593Z</time></trkpt><trkpt lat="39.7627224" lon="-0.7384335"><ele>565.0</ele><time>2026-04-04T10:25:12.596Z</time></trkpt><trkpt lat="39.7626601" lon="-0.7385263"><ele>565.0</ele><time>2026-04-04T10:25:13.595Z</time></trkpt><trkpt lat="39.7625864" lon="-0.7386165"><ele>564.3333333333334</ele><time>2026-04-04T10:25:14.594Z</time></trkpt><trkpt lat="39.7624976" lon="-0.7386929"><ele>563.6666666666667</ele><time>2026-04-04T10:25:15.596Z</time></trkpt><trkpt lat="39.7624299" lon="-0.7387545"><ele>563.0</ele><time>2026-04-04T10:25:16.595Z</time></trkpt><trkpt lat="39.76236" lon="-0.7388077"><ele>562.3333333333334</ele><time>2026-04-04T10:25:17.596Z</time></trkpt><trkpt lat="39.7622778" lon="-0.7388486"><ele>561.6666666666666</ele><time>2026-04-04T10:25:18.595Z</time></trkpt><trkpt lat="39.762196" lon="-0.7388843"><ele>561.0</ele><time>2026-04-04T10:25:19.594Z</time></trkpt><trkpt lat="39.7621303" lon="-0.7389259"><ele>561.0</ele><time>2026-04-04T10:25:20.596Z</time></trkpt><trkpt lat="39.7620628" lon="-0.7389649"><ele>561.0</ele><time>2026-04-04T10:25:21.595Z</time></trkpt><trkpt lat="39.7619992" lon="-0.7390001"><ele>561.0</ele><time>2026-04-04T10:25:22.595Z</time></trkpt><trkpt lat="39.7618913" lon="-0.73907"><ele>561.0</ele><time>2026-04-04T10:25:24.594Z</time></trkpt><trkpt lat="39.7617948" lon="-0.7391279"><ele>561.0</ele><time>2026-04-04T10:25:26.593Z</time></trkpt><trkpt lat="39.7616975" lon="-0.7391866"><ele>560.1666666666666</ele><time>2026-04-04T10:25:28.595Z</time></trkpt><trkpt lat="39.7615937" lon="-0.739245"><ele>559.3333333333334</ele><time>2026-04-04T10:25:30.595Z</time></trkpt><trkpt lat="39.7615351" lon="-0.7392816"><ele>558.5</ele><time>2026-04-04T10:25:31.594Z</time></trkpt><trkpt lat="39.7614618" lon="-0.7393225"><ele>557.6666666666667</ele><time>2026-04-04T10:25:32.595Z</time></trkpt><trkpt lat="39.7613845" lon="-0.739376"><ele>556.8333333333334</ele><time>2026-04-04T10:25:33.595Z</time></trkpt><trkpt lat="39.7613049" lon="-0.7394443"><ele>556.0</ele><time>2026-04-04T10:25:34.596Z</time></trkpt><trkpt lat="39.7612147" lon="-0.7395143"><ele>556.0</ele><time>2026-04-04T10:25:35.595Z</time></trkpt><trkpt lat="39.7611198" lon="-0.7395878"><ele>556.0</ele><time>2026-04-04T10:25:36.595Z</time></trkpt><trkpt lat="39.7610306" lon="-0.7396461"><ele>556.0</ele><time>2026-04-04T10:25:37.596Z</time></trkpt><trkpt lat="39.7609517" lon="-0.739712"><ele>556.0</ele><time>2026-04-04T10:25:38.595Z</time></trkpt><trkpt lat="39.7608634" lon="-0.7397795"><ele>556.0</ele><time>2026-04-04T10:25:39.595Z</time></trkpt><trkpt lat="39.7607691" lon="-0.7398434"><ele>554.8</ele><time>2026-04-04T10:25:40.596Z</time></trkpt><trkpt lat="39.7606776" lon="-0.7399054"><ele>553.6</ele><time>2026-04-04T10:25:41.596Z</time></trkpt><trkpt lat="39.7605837" lon="-0.7399561"><ele>552.4</ele><time>2026-04-04T10:25:42.595Z</time></trkpt><trkpt lat="39.760491" lon="-0.740018"><ele>551.2</ele><time>2026-04-04T10:25:43.596Z</time></trkpt><trkpt lat="39.7603986" lon="-0.7401002"><ele>550.0</ele><time>2026-04-04T10:25:44.594Z</time></trkpt><trkpt lat="39.760309" lon="-0.7401946"><ele>549.75</ele><time>2026-04-04T10:25:45.596Z</time></trkpt><trkpt lat="39.7602115" lon="-0.7402842"><ele>549.5</ele><time>2026-04-04T10:25:46.596Z</time></trkpt><trkpt lat="39.7601131" lon="-0.7403629"><ele>549.25</ele><time>2026-04-04T10:25:47.594Z</time></trkpt><trkpt lat="39.7600088" lon="-0.7404304"><ele>549.0</ele><time>2026-04-04T10:25:48.593Z</time></trkpt><trkpt lat="39.7599062" lon="-0.7405017"><ele>549.0</ele><time>2026-04-04T10:25:49.595Z</time></trkpt><trkpt lat="39.7598155" lon="-0.7405714"><ele>549.0</ele><time>2026-04-04T10:25:50.595Z</time></trkpt><trkpt lat="39.7597236" lon="-0.7406413"><ele>549.0</ele><time>2026-04-04T10:25:51.594Z</time></trkpt><trkpt lat="39.759632" lon="-0.7407172"><ele>549.0</ele><time>2026-04-04T10:25:52.594Z</time></trkpt><trkpt lat="39.7595371" lon="-0.7407899"><ele>549.0</ele><time>2026-04-04T10:25:53.594Z</time></trkpt><trkpt lat="39.7594398" lon="-0.7408637"><ele>549.75</ele><time>2026-04-04T10:25:54.593Z</time></trkpt><trkpt lat="39.7593411" lon="-0.7409498"><ele>550.5</ele><time>2026-04-04T10:25:55.594Z</time></trkpt><trkpt lat="39.7592426" lon="-0.7410431"><ele>551.25</ele><time>2026-04-04T10:25:56.595Z</time></trkpt><trkpt lat="39.7591478" lon="-0.7411217"><ele>552.0</ele><time>2026-04-04T10:25:57.595Z</time></trkpt><trkpt lat="39.7590681" lon="-0.7411949"><ele>552.0</ele><time>2026-04-04T10:25:58.594Z</time></trkpt><trkpt lat="39.7589961" lon="-0.7412759"><ele>552.0</ele><time>2026-04-04T10:25:59.594Z</time></trkpt><trkpt lat="39.7589321" lon="-0.7413354"><ele>552.0</ele><time>2026-04-04T10:26:00.594Z</time></trkpt><trkpt lat="39.7588342" lon="-0.7413998"><ele>552.0</ele><time>2026-04-04T10:26:02.596Z</time></trkpt><trkpt lat="39.7587554" lon="-0.7414417"><ele>552.0</ele><time>2026-04-04T10:26:04.594Z</time></trkpt><trkpt lat="39.7586699" lon="-0.7414932"><ele>552.0</ele><time>2026-04-04T10:26:06.595Z</time></trkpt><trkpt lat="39.7585916" lon="-0.741565"><ele>552.0</ele><time>2026-04-04T10:26:08.594Z</time></trkpt><trkpt lat="39.7584745" lon="-0.7416243"><ele>552.0</ele><time>2026-04-04T10:26:10.595Z</time></trkpt><trkpt lat="39.7584011" lon="-0.7416294"><ele>552.0</ele><time>2026-04-04T10:26:11.595Z</time></trkpt><trkpt lat="39.7583216" lon="-0.74161"><ele>552.0</ele><time>2026-04-04T10:26:12.594Z</time></trkpt><trkpt lat="39.7582335" lon="-0.7415948"><ele>551.3333333333334</ele><time>2026-04-04T10:26:13.593Z</time></trkpt><trkpt lat="39.7581417" lon="-0.7416072"><ele>550.6666666666666</ele><time>2026-04-04T10:26:14.595Z</time></trkpt><trkpt lat="39.7580517" lon="-0.7416322"><ele>550.0</ele><time>2026-04-04T10:26:15.596Z</time></trkpt><trkpt lat="39.7579708" lon="-0.7416641"><ele>549.3333333333333</ele><time>2026-04-04T10:26:16.596Z</time></trkpt><trkpt lat="39.7578944" lon="-0.7416851"><ele>548.6666666666666</ele><time>2026-04-04T10:26:17.593Z</time></trkpt><trkpt lat="39.7578165" lon="-0.7416884"><ele>548.0</ele><time>2026-04-04T10:26:18.594Z</time></trkpt><trkpt lat="39.7577351" lon="-0.7416816"><ele>547.1666666666666</ele><time>2026-04-04T10:26:19.594Z</time></trkpt><trkpt lat="39.757644" lon="-0.7416895"><ele>546.3333333333333</ele><time>2026-04-04T10:26:20.594Z</time></trkpt><trkpt lat="39.7575539" lon="-0.7417071"><ele>545.5</ele><time>2026-04-04T10:26:21.593Z</time></trkpt><trkpt lat="39.7574709" lon="-0.7417279"><ele>544.6666666666666</ele><time>2026-04-04T10:26:22.594Z</time></trkpt><trkpt lat="39.7573975" lon="-0.7417594"><ele>543.8333333333334</ele><time>2026-04-04T10:26:23.595Z</time></trkpt><trkpt lat="39.7573266" lon="-0.7418022"><ele>543.0</ele><time>2026-04-04T10:26:24.594Z</time></trkpt><trkpt lat="39.7572548" lon="-0.7418323"><ele>543.0</ele><time>2026-04-04T10:26:25.594Z</time></trkpt><trkpt lat="39.7571847" lon="-0.7418465"><ele>543.0</ele><time>2026-04-04T10:26:26.594Z</time></trkpt><trkpt lat="39.7571136" lon="-0.7418516"><ele>543.0</ele><time>2026-04-04T10:26:27.595Z</time></trkpt><trkpt lat="39.7570462" lon="-0.7418319"><ele>543.0</ele><time>2026-04-04T10:26:28.594Z</time></trkpt><trkpt lat="39.7569811" lon="-0.7417949"><ele>543.0</ele><time>2026-04-04T10:26:29.594Z</time></trkpt><trkpt lat="39.7569221" lon="-0.7417403"><ele>543.0</ele><time>2026-04-04T10:26:30.595Z</time></trkpt><trkpt lat="39.7568718" lon="-0.7416736"><ele>543.0</ele><time>2026-04-04T10:26:31.594Z</time></trkpt><trkpt lat="39.7568203" lon="-0.7416078"><ele>542.3333333333334</ele><time>2026-04-04T10:26:32.595Z</time></trkpt><trkpt lat="39.7567727" lon="-0.7415503"><ele>541.6666666666666</ele><time>2026-04-04T10:26:33.594Z</time></trkpt><trkpt lat="39.7566779" lon="-0.7414792"><ele>541.0</ele><time>2026-04-04T10:26:35.594Z</time></trkpt><trkpt lat="39.7565719" lon="-0.7415181"><ele>540.3333333333333</ele><time>2026-04-04T10:26:37.595Z</time></trkpt><trkpt lat="39.7565104" lon="-0.7415638"><ele>539.6666666666666</ele><time>2026-04-04T10:26:38.596Z</time></trkpt><trkpt lat="39.7564317" lon="-0.7415974"><ele>539.0</ele><time>2026-04-04T10:26:39.593Z</time></trkpt><trkpt lat="39.756346" lon="-0.7416201"><ele>539.0</ele><time>2026-04-04T10:26:40.596Z</time></trkpt><trkpt lat="39.7562661" lon="-0.7416268"><ele>539.0</ele><time>2026-04-04T10:26:41.594Z</time></trkpt><trkpt lat="39.7561935" lon="-0.7416229"><ele>539.0</ele><time>2026-04-04T10:26:42.594Z</time></trkpt><trkpt lat="39.7561164" lon="-0.7415874"><ele>539.0</ele><time>2026-04-04T10:26:43.595Z</time></trkpt><trkpt lat="39.7560411" lon="-0.7415338"><ele>539.0</ele><time>2026-04-04T10:26:44.595Z</time></trkpt><trkpt lat="39.7559741" lon="-0.7414775"><ele>539.0</ele><time>2026-04-04T10:26:45.595Z</time></trkpt><trkpt lat="39.7559176" lon="-0.7414161"><ele>538.1428571428571</ele><time>2026-04-04T10:26:46.594Z</time></trkpt><trkpt lat="39.7558747" lon="-0.7413418"><ele>537.2857142857142</ele><time>2026-04-04T10:26:47.595Z</time></trkpt><trkpt lat="39.7558514" lon="-0.7412562"><ele>536.4285714285714</ele><time>2026-04-04T10:26:48.593Z</time></trkpt><trkpt lat="39.7558262" lon="-0.74117"><ele>535.5714285714286</ele><time>2026-04-04T10:26:49.594Z</time></trkpt><trkpt lat="39.7557866" lon="-0.7410919"><ele>534.7142857142857</ele><time>2026-04-04T10:26:50.593Z</time></trkpt><trkpt lat="39.7557427" lon="-0.7410016"><ele>533.8571428571429</ele><time>2026-04-04T10:26:51.593Z</time></trkpt><trkpt lat="39.7557071" lon="-0.7409165"><ele>533.0</ele><time>2026-04-04T10:26:52.594Z</time></trkpt><trkpt lat="39.7556733" lon="-0.7408269"><ele>532.5</ele><time>2026-04-04T10:26:53.594Z</time></trkpt><trkpt lat="39.7556524" lon="-0.7407343"><ele>532.0</ele><time>2026-04-04T10:26:54.594Z</time></trkpt><trkpt lat="39.7556354" lon="-0.7406464"><ele>531.5</ele><time>2026-04-04T10:26:55.595Z</time></trkpt><trkpt lat="39.7556305" lon="-0.7405544"><ele>531.0</ele><time>2026-04-04T10:26:56.595Z</time></trkpt><trkpt lat="39.7556177" lon="-0.7403967"><ele>530.5</ele><time>2026-04-04T10:26:58.594Z</time></trkpt><trkpt lat="39.7555973" lon="-0.7402808"><ele>530.0</ele><time>2026-04-04T10:27:00.594Z</time></trkpt><trkpt lat="39.7555013" lon="-0.740214"><ele>529.5</ele><time>2026-04-04T10:27:03.594Z</time></trkpt><trkpt lat="39.7553837" lon="-0.7401745"><ele>529.0</ele><time>2026-04-04T10:27:05.595Z</time></trkpt><trkpt lat="39.7553186" lon="-0.7401803"><ele>528.5</ele><time>2026-04-04T10:27:06.593Z</time></trkpt><trkpt lat="39.7552456" lon="-0.7401977"><ele>528.0</ele><time>2026-04-04T10:27:07.595Z</time></trkpt><trkpt lat="39.7551619" lon="-0.7402218"><ele>527.5</ele><time>2026-04-04T10:27:08.594Z</time></trkpt><trkpt lat="39.755075" lon="-0.7402458"><ele>527.0</ele><time>2026-04-04T10:27:09.596Z</time></trkpt><trkpt lat="39.7549771" lon="-0.7402651"><ele>527.0</ele><time>2026-04-04T10:27:10.594Z</time></trkpt><trkpt lat="39.7548831" lon="-0.7402706"><ele>527.0</ele><time>2026-04-04T10:27:11.596Z</time></trkpt><trkpt lat="39.7547887" lon="-0.7402568"><ele>527.0</ele><time>2026-04-04T10:27:12.594Z</time></trkpt><trkpt lat="39.7546928" lon="-0.7402361"><ele>527.0</ele><time>2026-04-04T10:27:13.596Z</time></trkpt><trkpt lat="39.7545908" lon="-0.7402203"><ele>527.0</ele><time>2026-04-04T10:27:14.595Z</time></trkpt><trkpt lat="39.7544968" lon="-0.7402156"><ele>526.1666666666666</ele><time>2026-04-04T10:27:15.595Z</time></trkpt><trkpt lat="39.754411" lon="-0.7402127"><ele>525.3333333333333</ele><time>2026-04-04T10:27:16.594Z</time></trkpt><trkpt lat="39.7543316" lon="-0.7401956"><ele>524.5</ele><time>2026-04-04T10:27:17.593Z</time></trkpt><trkpt lat="39.7542541" lon="-0.7401783"><ele>523.6666666666666</ele><time>2026-04-04T10:27:18.594Z</time></trkpt><trkpt lat="39.7541723" lon="-0.7401656"><ele>522.8333333333334</ele><time>2026-04-04T10:27:19.595Z</time></trkpt><trkpt lat="39.7540808" lon="-0.7401718"><ele>522.0</ele><time>2026-04-04T10:27:20.594Z</time></trkpt><trkpt lat="39.7539786" lon="-0.7401694"><ele>521.2</ele><time>2026-04-04T10:27:21.595Z</time></trkpt><trkpt lat="39.7538849" lon="-0.7401514"><ele>520.4000000000001</ele><time>2026-04-04T10:27:22.595Z</time></trkpt><trkpt lat="39.7537816" lon="-0.7401255"><ele>519.5999999999999</ele><time>2026-04-04T10:27:23.596Z</time></trkpt><trkpt lat="39.7536897" lon="-0.7400892"><ele>518.8</ele><time>2026-04-04T10:27:24.593Z</time></trkpt><trkpt lat="39.753604" lon="-0.7400425"><ele>518.0</ele><time>2026-04-04T10:27:25.593Z</time></trkpt><trkpt lat="39.7535222" lon="-0.7400177"><ele>517.0</ele><time>2026-04-04T10:27:26.595Z</time></trkpt><trkpt lat="39.7534455" lon="-0.7400007"><ele>516.0</ele><time>2026-04-04T10:27:27.593Z</time></trkpt><trkpt lat="39.7533599" lon="-0.7399686"><ele>515.0</ele><time>2026-04-04T10:27:28.593Z</time></trkpt><trkpt lat="39.7532752" lon="-0.7399218"><ele>514.0</ele><time>2026-04-04T10:27:29.593Z</time></trkpt><trkpt lat="39.753185" lon="-0.7398707"><ele>513.0</ele><time>2026-04-04T10:27:30.594Z</time></trkpt><trkpt lat="39.7530926" lon="-0.7398391"><ele>513.0</ele><time>2026-04-04T10:27:31.593Z</time></trkpt><trkpt lat="39.7530065" lon="-0.7398052"><ele>513.0</ele><time>2026-04-04T10:27:32.593Z</time></trkpt><trkpt lat="39.7529297" lon="-0.7397665"><ele>513.0</ele><time>2026-04-04T10:27:33.593Z</time></trkpt><trkpt lat="39.7528619" lon="-0.7397185"><ele>513.0</ele><time>2026-04-04T10:27:34.594Z</time></trkpt><trkpt lat="39.752807" lon="-0.7396745"><ele>513.0</ele><time>2026-04-04T10:27:35.595Z</time></trkpt><trkpt lat="39.7527041" lon="-0.7395946"><ele>513.0</ele><time>2026-04-04T10:27:37.595Z</time></trkpt><trkpt lat="39.7526331" lon="-0.7395641"><ele>512.4285714285714</ele><time>2026-04-04T10:27:39.595Z</time></trkpt><trkpt lat="39.7525669" lon="-0.7395606"><ele>511.8571428571429</ele><time>2026-04-04T10:27:41.595Z</time></trkpt><trkpt lat="39.7524865" lon="-0.739563"><ele>511.2857142857143</ele><time>2026-04-04T10:27:43.595Z</time></trkpt><trkpt lat="39.752423" lon="-0.739564"><ele>510.7142857142857</ele><time>2026-04-04T10:27:44.593Z</time></trkpt><trkpt lat="39.7523529" lon="-0.7395721"><ele>510.1428571428571</ele><time>2026-04-04T10:27:45.594Z</time></trkpt><trkpt lat="39.7522794" lon="-0.7395872"><ele>509.5714285714285</ele><time>2026-04-04T10:27:46.595Z</time></trkpt><trkpt lat="39.7522124" lon="-0.7396085"><ele>508.99999999999994</ele><time>2026-04-04T10:27:47.594Z</time></trkpt><trkpt lat="39.7521355" lon="-0.7396258"><ele>508.99999999999994</ele><time>2026-04-04T10:27:48.595Z</time></trkpt><trkpt lat="39.7520592" lon="-0.7396411"><ele>509.0</ele><time>2026-04-04T10:27:49.594Z</time></trkpt><trkpt lat="39.7519755" lon="-0.7396621"><ele>509.0</ele><time>2026-04-04T10:27:50.595Z</time></trkpt><trkpt lat="39.7518958" lon="-0.7396792"><ele>509.0</ele><time>2026-04-04T10:27:51.594Z</time></trkpt><trkpt lat="39.7518189" lon="-0.7396905"><ele>508.99999999999994</ele><time>2026-04-04T10:27:52.594Z</time></trkpt><trkpt lat="39.7517367" lon="-0.7397082"><ele>509.0</ele><time>2026-04-04T10:27:53.593Z</time></trkpt><trkpt lat="39.7516572" lon="-0.7397242"><ele>508.49999999999994</ele><time>2026-04-04T10:27:54.594Z</time></trkpt><trkpt lat="39.7515775" lon="-0.7397414"><ele>508.0</ele><time>2026-04-04T10:27:55.593Z</time></trkpt><trkpt lat="39.7515021" lon="-0.7397441"><ele>507.5</ele><time>2026-04-04T10:27:56.594Z</time></trkpt><trkpt lat="39.7514349" lon="-0.7397668"><ele>507.0</ele><time>2026-04-04T10:27:57.596Z</time></trkpt><trkpt lat="39.7513308" lon="-0.7398676"><ele>506.49999999999994</ele><time>2026-04-04T10:27:59.593Z</time></trkpt><trkpt lat="39.75128" lon="-0.7399556"><ele>506.0</ele><time>2026-04-04T10:28:00.593Z</time></trkpt><trkpt lat="39.7512262" lon="-0.7400503"><ele>506.0</ele><time>2026-04-04T10:28:01.594Z</time></trkpt><trkpt lat="39.7511632" lon="-0.7401559"><ele>506.0</ele><time>2026-04-04T10:28:02.593Z</time></trkpt><trkpt lat="39.751099" lon="-0.740247"><ele>506.0</ele><time>2026-04-04T10:28:03.596Z</time></trkpt><trkpt lat="39.7510384" lon="-0.740339"><ele>506.0</ele><time>2026-04-04T10:28:04.595Z</time></trkpt><trkpt lat="39.750982" lon="-0.740424"><ele>506.0</ele><time>2026-04-04T10:28:05.594Z</time></trkpt><trkpt lat="39.7509219" lon="-0.7405007"><ele>505.20000000000005</ele><time>2026-04-04T10:28:06.595Z</time></trkpt><trkpt lat="39.7508488" lon="-0.740591"><ele>504.40000000000003</ele><time>2026-04-04T10:28:07.594Z</time></trkpt><trkpt lat="39.7507704" lon="-0.740693"><ele>503.6</ele><time>2026-04-04T10:28:08.594Z</time></trkpt><trkpt lat="39.7506994" lon="-0.7407861"><ele>502.8</ele><time>2026-04-04T10:28:09.594Z</time></trkpt><trkpt lat="39.7506175" lon="-0.740873"><ele>502.0</ele><time>2026-04-04T10:28:10.593Z</time></trkpt><trkpt lat="39.7505309" lon="-0.7409474"><ele>502.0</ele><time>2026-04-04T10:28:11.594Z</time></trkpt><trkpt lat="39.7504341" lon="-0.7410142"><ele>502.00000000000006</ele><time>2026-04-04T10:28:12.593Z</time></trkpt><trkpt lat="39.7503436" lon="-0.7410844"><ele>502.00000000000006</ele><time>2026-04-04T10:28:13.594Z</time></trkpt><trkpt lat="39.7502591" lon="-0.7411524"><ele>502.0</ele><time>2026-04-04T10:28:14.593Z</time></trkpt><trkpt lat="39.7501836" lon="-0.7412177"><ele>502.0</ele><time>2026-04-04T10:28:15.594Z</time></trkpt><trkpt lat="39.7501149" lon="-0.7412934"><ele>500.6</ele><time>2026-04-04T10:28:16.594Z</time></trkpt><trkpt lat="39.7500497" lon="-0.7413914"><ele>499.20000000000005</ele><time>2026-04-04T10:28:17.595Z</time></trkpt><trkpt lat="39.7499888" lon="-0.7415031"><ele>497.8</ele><time>2026-04-04T10:28:18.593Z</time></trkpt><trkpt lat="39.7499275" lon="-0.7416283"><ele>496.4</ele><time>2026-04-04T10:28:19.595Z</time></trkpt><trkpt lat="39.7498622" lon="-0.7417389"><ele>495.0</ele><time>2026-04-04T10:28:20.594Z</time></trkpt><trkpt lat="39.7498109" lon="-0.7418367"><ele>495.6</ele><time>2026-04-04T10:28:21.594Z</time></trkpt><trkpt lat="39.7497703" lon="-0.7419382"><ele>496.2</ele><time>2026-04-04T10:28:22.596Z</time></trkpt><trkpt lat="39.7497216" lon="-0.7420336"><ele>496.79999999999995</ele><time>2026-04-04T10:28:23.595Z</time></trkpt><trkpt lat="39.7496503" lon="-0.7421224"><ele>497.4</ele><time>2026-04-04T10:28:24.595Z</time></trkpt><trkpt lat="39.7495636" lon="-0.7422125"><ele>498.0</ele><time>2026-04-04T10:28:25.595Z</time></trkpt><trkpt lat="39.749477" lon="-0.7423089"><ele>498.0</ele><time>2026-04-04T10:28:26.595Z</time></trkpt><trkpt lat="39.7493812" lon="-0.7424059"><ele>498.0</ele><time>2026-04-04T10:28:27.595Z</time></trkpt><trkpt lat="39.7492847" lon="-0.742507"><ele>498.0</ele><time>2026-04-04T10:28:28.595Z</time></trkpt><trkpt lat="39.7491813" lon="-0.7426049"><ele>498.0</ele><time>2026-04-04T10:28:29.593Z</time></trkpt><trkpt lat="39.7490815" lon="-0.7427087"><ele>497.0</ele><time>2026-04-04T10:28:30.595Z</time></trkpt><trkpt lat="39.7489858" lon="-0.7428013"><ele>495.99999999999994</ele><time>2026-04-04T10:28:31.594Z</time></trkpt><trkpt lat="39.7488968" lon="-0.7428799"><ele>494.99999999999994</ele><time>2026-04-04T10:28:32.595Z</time></trkpt><trkpt lat="39.7488126" lon="-0.7429512"><ele>494.0</ele><time>2026-04-04T10:28:33.595Z</time></trkpt><trkpt lat="39.7487304" lon="-0.743009"><ele>493.0</ele><time>2026-04-04T10:28:34.593Z</time></trkpt><trkpt lat="39.7486563" lon="-0.7430585"><ele>493.0</ele><time>2026-04-04T10:28:35.593Z</time></trkpt><trkpt lat="39.7485883" lon="-0.7431073"><ele>492.99999999999994</ele><time>2026-04-04T10:28:36.594Z</time></trkpt><trkpt lat="39.748513" lon="-0.7431745"><ele>492.99999999999994</ele><time>2026-04-04T10:28:37.594Z</time></trkpt><trkpt lat="39.7484425" lon="-0.7432621"><ele>493.0</ele><time>2026-04-04T10:28:38.594Z</time></trkpt><trkpt lat="39.7483673" lon="-0.7433574"><ele>493.0</ele><time>2026-04-04T10:28:39.594Z</time></trkpt><trkpt lat="39.7482836" lon="-0.7434589"><ele>491.59999999999997</ele><time>2026-04-04T10:28:40.595Z</time></trkpt><trkpt lat="39.7481933" lon="-0.7435684"><ele>490.19999999999993</ele><time>2026-04-04T10:28:41.595Z</time></trkpt><trkpt lat="39.7481153" lon="-0.7436714"><ele>488.8</ele><time>2026-04-04T10:28:42.594Z</time></trkpt><trkpt lat="39.7480412" lon="-0.7437705"><ele>487.4</ele><time>2026-04-04T10:28:43.595Z</time></trkpt><trkpt lat="39.7479733" lon="-0.7438802"><ele>486.0</ele><time>2026-04-04T10:28:44.594Z</time></trkpt><trkpt lat="39.7479031" lon="-0.743992"><ele>486.0</ele><time>2026-04-04T10:28:45.595Z</time></trkpt><trkpt lat="39.7478341" lon="-0.7441139"><ele>486.0</ele><time>2026-04-04T10:28:46.596Z</time></trkpt><trkpt lat="39.7477705" lon="-0.7442359"><ele>486.0</ele><time>2026-04-04T10:28:47.595Z</time></trkpt><trkpt lat="39.7477016" lon="-0.7443629"><ele>486.0</ele><time>2026-04-04T10:28:48.594Z</time></trkpt><trkpt lat="39.7476275" lon="-0.7444994"><ele>486.0</ele><time>2026-04-04T10:28:49.593Z</time></trkpt><trkpt lat="39.7475502" lon="-0.7446423"><ele>486.0</ele><time>2026-04-04T10:28:50.595Z</time></trkpt><trkpt lat="39.7474752" lon="-0.7447923"><ele>486.0</ele><time>2026-04-04T10:28:51.594Z</time></trkpt><trkpt lat="39.7474013" lon="-0.7449434"><ele>486.0</ele><time>2026-04-04T10:28:52.596Z</time></trkpt><trkpt lat="39.7473448" lon="-0.7450825"><ele>486.0</ele><time>2026-04-04T10:28:53.595Z</time></trkpt><trkpt lat="39.7472774" lon="-0.745208"><ele>486.0</ele><time>2026-04-04T10:28:54.594Z</time></trkpt><trkpt lat="39.7472166" lon="-0.7453377"><ele>486.0</ele><time>2026-04-04T10:28:55.595Z</time></trkpt><trkpt lat="39.7471565" lon="-0.7454474"><ele>486.0</ele><time>2026-04-04T10:28:56.594Z</time></trkpt><trkpt lat="39.747104" lon="-0.7455532"><ele>486.0</ele><time>2026-04-04T10:28:57.595Z</time></trkpt><trkpt lat="39.7470523" lon="-0.7456499"><ele>486.3333333333333</ele><time>2026-04-04T10:28:58.594Z</time></trkpt><trkpt lat="39.746989" lon="-0.7457148"><ele>486.66666666666663</ele><time>2026-04-04T10:28:59.594Z</time></trkpt><trkpt lat="39.746918" lon="-0.7457695"><ele>487.0</ele><time>2026-04-04T10:29:00.593Z</time></trkpt><trkpt lat="39.7468278" lon="-0.7458068"><ele>487.3333333333333</ele><time>2026-04-04T10:29:01.594Z</time></trkpt><trkpt lat="39.7467385" lon="-0.7458218"><ele>487.66666666666663</ele><time>2026-04-04T10:29:02.595Z</time></trkpt><trkpt lat="39.7466545" lon="-0.7458295"><ele>488.0</ele><time>2026-04-04T10:29:03.595Z</time></trkpt><trkpt lat="39.7465675" lon="-0.7458331"><ele>487.3333333333333</ele><time>2026-04-04T10:29:04.594Z</time></trkpt><trkpt lat="39.7464727" lon="-0.7458455"><ele>486.66666666666663</ele><time>2026-04-04T10:29:05.594Z</time></trkpt><trkpt lat="39.7463844" lon="-0.7458432"><ele>486.0</ele><time>2026-04-04T10:29:06.594Z</time></trkpt><trkpt lat="39.7463003" lon="-0.7458307"><ele>485.33333333333337</ele><time>2026-04-04T10:29:07.594Z</time></trkpt><trkpt lat="39.7462268" lon="-0.7458105"><ele>484.6666666666667</ele><time>2026-04-04T10:29:08.595Z</time></trkpt><trkpt lat="39.7461569" lon="-0.7457863"><ele>484.0</ele><time>2026-04-04T10:29:09.594Z</time></trkpt><trkpt lat="39.7460873" lon="-0.7457768"><ele>483.2</ele><time>2026-04-04T10:29:10.594Z</time></trkpt><trkpt lat="39.7459538" lon="-0.7457714"><ele>482.4</ele><time>2026-04-04T10:29:12.594Z</time></trkpt><trkpt lat="39.7458886" lon="-0.7457656"><ele>481.6</ele><time>2026-04-04T10:29:13.594Z</time></trkpt><trkpt lat="39.7457678" lon="-0.745758"><ele>480.8</ele><time>2026-04-04T10:29:15.596Z</time></trkpt><trkpt lat="39.7456752" lon="-0.7457377"><ele>480.0</ele><time>2026-04-04T10:29:17.593Z</time></trkpt><trkpt lat="39.7455983" lon="-0.7457343"><ele>480.0</ele><time>2026-04-04T10:29:19.594Z</time></trkpt><trkpt lat="39.7455719" lon="-0.7458518"><ele>480.0</ele><time>2026-04-04T10:33:32.595Z</time></trkpt><trkpt lat="39.7456333" lon="-0.7459692"><ele>480.0</ele><time>2026-04-04T10:33:34.592Z</time></trkpt><trkpt lat="39.7457241" lon="-0.7460708"><ele>480.0</ele><time>2026-04-04T10:33:36.593Z</time></trkpt><trkpt lat="39.7458515" lon="-0.7461088"><ele>480.1666666666667</ele><time>2026-04-04T10:33:38.594Z</time></trkpt><trkpt lat="39.7459248" lon="-0.7461189"><ele>480.33333333333337</ele><time>2026-04-04T10:33:39.594Z</time></trkpt><trkpt lat="39.7460413" lon="-0.7461695"><ele>480.5</ele><time>2026-04-04T10:33:41.594Z</time></trkpt><trkpt lat="39.7461056" lon="-0.7462116"><ele>480.6666666666667</ele><time>2026-04-04T10:33:42.593Z</time></trkpt><trkpt lat="39.7461734" lon="-0.7462577"><ele>480.83333333333337</ele><time>2026-04-04T10:33:43.593Z</time></trkpt><trkpt lat="39.7462333" lon="-0.7463043"><ele>481.0</ele><time>2026-04-04T10:33:44.594Z</time></trkpt><trkpt lat="39.7462917" lon="-0.7463493"><ele>481.8</ele><time>2026-04-04T10:33:45.592Z</time></trkpt><trkpt lat="39.7463497" lon="-0.7463931"><ele>482.6</ele><time>2026-04-04T10:33:46.593Z</time></trkpt><trkpt lat="39.7464313" lon="-0.7464632"><ele>483.4</ele><time>2026-04-04T10:33:48.594Z</time></trkpt><trkpt lat="39.7465062" lon="-0.7465339"><ele>484.2</ele><time>2026-04-04T10:33:50.594Z</time></trkpt><trkpt lat="39.7465642" lon="-0.746598"><ele>485.0</ele><time>2026-04-04T10:33:57.592Z</time></trkpt><trkpt lat="39.7466249" lon="-0.7467274"><ele>484.99999999999994</ele><time>2026-04-04T10:33:59.592Z</time></trkpt><trkpt lat="39.7466621" lon="-0.7468017"><ele>485.0</ele><time>2026-04-04T10:34:00.594Z</time></trkpt><trkpt lat="39.7467083" lon="-0.7468743"><ele>485.0</ele><time>2026-04-04T10:34:01.594Z</time></trkpt><trkpt lat="39.7467679" lon="-0.7469587"><ele>485.0</ele><time>2026-04-04T10:34:02.595Z</time></trkpt><trkpt lat="39.7468408" lon="-0.7470519"><ele>484.99999999999994</ele><time>2026-04-04T10:34:03.592Z</time></trkpt><trkpt lat="39.7469164" lon="-0.747141"><ele>485.0</ele><time>2026-04-04T10:34:04.592Z</time></trkpt><trkpt lat="39.7469936" lon="-0.7472462"><ele>486.75</ele><time>2026-04-04T10:34:05.594Z</time></trkpt><trkpt lat="39.7470616" lon="-0.7473598"><ele>488.5</ele><time>2026-04-04T10:34:06.593Z</time></trkpt><trkpt lat="39.7471286" lon="-0.7474884"><ele>490.25</ele><time>2026-04-04T10:34:07.594Z</time></trkpt><trkpt lat="39.7472023" lon="-0.7476062"><ele>492.0</ele><time>2026-04-04T10:34:08.594Z</time></trkpt><trkpt lat="39.7472864" lon="-0.7477171"><ele>492.0</ele><time>2026-04-04T10:34:09.594Z</time></trkpt><trkpt lat="39.7473715" lon="-0.7478158"><ele>492.00000000000006</ele><time>2026-04-04T10:34:10.594Z</time></trkpt><trkpt lat="39.7474621" lon="-0.7479"><ele>492.00000000000006</ele><time>2026-04-04T10:34:11.592Z</time></trkpt><trkpt lat="39.7475435" lon="-0.7479789"><ele>492.0</ele><time>2026-04-04T10:34:12.594Z</time></trkpt><trkpt lat="39.74761" lon="-0.7480653"><ele>492.0</ele><time>2026-04-04T10:34:13.592Z</time></trkpt><trkpt lat="39.7476587" lon="-0.7481557"><ele>492.0</ele><time>2026-04-04T10:34:14.592Z</time></trkpt><trkpt lat="39.7476886" lon="-0.748266"><ele>492.00000000000006</ele><time>2026-04-04T10:34:15.595Z</time></trkpt><trkpt lat="39.7477068" lon="-0.748383"><ele>492.00000000000006</ele><time>2026-04-04T10:34:16.594Z</time></trkpt><trkpt lat="39.7477185" lon="-0.7485084"><ele>492.0</ele><time>2026-04-04T10:34:17.595Z</time></trkpt><trkpt lat="39.7477326" lon="-0.7486427"><ele>492.0</ele><time>2026-04-04T10:34:18.593Z</time></trkpt><trkpt lat="39.7477511" lon="-0.7487884"><ele>494.6</ele><time>2026-04-04T10:34:19.593Z</time></trkpt><trkpt lat="39.7477703" lon="-0.748926"><ele>497.20000000000005</ele><time>2026-04-04T10:34:20.594Z</time></trkpt><trkpt lat="39.7477902" lon="-0.7490511"><ele>499.8</ele><time>2026-04-04T10:34:21.593Z</time></trkpt><trkpt lat="39.7478121" lon="-0.749179"><ele>502.4</ele><time>2026-04-04T10:34:22.592Z</time></trkpt><trkpt lat="39.747837" lon="-0.749301"><ele>505.0</ele><time>2026-04-04T10:34:23.593Z</time></trkpt><trkpt lat="39.7478712" lon="-0.7494243"><ele>505.0</ele><time>2026-04-04T10:34:24.593Z</time></trkpt><trkpt lat="39.7479003" lon="-0.7495364"><ele>505.0</ele><time>2026-04-04T10:34:25.594Z</time></trkpt><trkpt lat="39.7479146" lon="-0.7496626"><ele>505.0</ele><time>2026-04-04T10:34:26.593Z</time></trkpt><trkpt lat="39.7479171" lon="-0.7497864"><ele>505.0</ele><time>2026-04-04T10:34:27.593Z</time></trkpt><trkpt lat="39.7479006" lon="-0.7499113"><ele>505.0</ele><time>2026-04-04T10:34:28.595Z</time></trkpt><trkpt lat="39.7478608" lon="-0.7500286"><ele>505.0</ele><time>2026-04-04T10:34:29.594Z</time></trkpt><trkpt lat="39.7478109" lon="-0.7501549"><ele>505.0</ele><time>2026-04-04T10:34:30.594Z</time></trkpt><trkpt lat="39.7477716" lon="-0.7502733"><ele>505.0</ele><time>2026-04-04T10:34:31.593Z</time></trkpt><trkpt lat="39.7477486" lon="-0.7503881"><ele>505.0</ele><time>2026-04-04T10:34:32.594Z</time></trkpt><trkpt lat="39.7477388" lon="-0.7504981"><ele>505.0</ele><time>2026-04-04T10:34:33.595Z</time></trkpt><trkpt lat="39.7477456" lon="-0.7506014"><ele>505.6</ele><time>2026-04-04T10:34:34.593Z</time></trkpt><trkpt lat="39.747772" lon="-0.7507131"><ele>506.2</ele><time>2026-04-04T10:34:35.594Z</time></trkpt><trkpt lat="39.7478137" lon="-0.7508308"><ele>506.79999999999995</ele><time>2026-04-04T10:34:36.593Z</time></trkpt><trkpt lat="39.7478569" lon="-0.750947"><ele>507.4</ele><time>2026-04-04T10:34:37.594Z</time></trkpt><trkpt lat="39.7478842" lon="-0.7510691"><ele>508.0</ele><time>2026-04-04T10:34:38.593Z</time></trkpt><trkpt lat="39.7479077" lon="-0.751189"><ele>509.2</ele><time>2026-04-04T10:34:39.592Z</time></trkpt><trkpt lat="39.7478965" lon="-0.751323"><ele>510.4</ele><time>2026-04-04T10:34:40.592Z</time></trkpt><trkpt lat="39.7478921" lon="-0.7514582"><ele>511.59999999999997</ele><time>2026-04-04T10:34:41.594Z</time></trkpt><trkpt lat="39.7478972" lon="-0.7515967"><ele>512.8</ele><time>2026-04-04T10:34:42.593Z</time></trkpt><trkpt lat="39.747908" lon="-0.7517387"><ele>514.0</ele><time>2026-04-04T10:34:43.593Z</time></trkpt><trkpt lat="39.7479347" lon="-0.7518908"><ele>515.5</ele><time>2026-04-04T10:34:44.593Z</time></trkpt><trkpt lat="39.7479625" lon="-0.752037"><ele>517.0</ele><time>2026-04-04T10:34:45.592Z</time></trkpt><trkpt lat="39.7479959" lon="-0.7521803"><ele>518.5</ele><time>2026-04-04T10:34:46.593Z</time></trkpt><trkpt lat="39.7480232" lon="-0.7523313"><ele>520.0</ele><time>2026-04-04T10:34:47.593Z</time></trkpt><trkpt lat="39.7480405" lon="-0.7524859"><ele>520.0</ele><time>2026-04-04T10:34:48.595Z</time></trkpt><trkpt lat="39.7480463" lon="-0.7526397"><ele>520.0</ele><time>2026-04-04T10:34:49.593Z</time></trkpt><trkpt lat="39.748052" lon="-0.7527884"><ele>520.0</ele><time>2026-04-04T10:34:50.593Z</time></trkpt><trkpt lat="39.7480578" lon="-0.7529318"><ele>520.0</ele><time>2026-04-04T10:34:51.594Z</time></trkpt><trkpt lat="39.7480684" lon="-0.753074"><ele>520.8</ele><time>2026-04-04T10:34:52.594Z</time></trkpt><trkpt lat="39.7480831" lon="-0.7532207"><ele>521.6</ele><time>2026-04-04T10:34:53.593Z</time></trkpt><trkpt lat="39.7480959" lon="-0.7533614"><ele>522.4</ele><time>2026-04-04T10:34:54.593Z</time></trkpt><trkpt lat="39.7480922" lon="-0.7535049"><ele>523.2</ele><time>2026-04-04T10:34:55.593Z</time></trkpt><trkpt lat="39.7480734" lon="-0.75364"><ele>524.0</ele><time>2026-04-04T10:34:56.594Z</time></trkpt><trkpt lat="39.7480707" lon="-0.7537717"><ele>524.2</ele><time>2026-04-04T10:34:57.593Z</time></trkpt><trkpt lat="39.7480657" lon="-0.7538977"><ele>524.4</ele><time>2026-04-04T10:34:58.593Z</time></trkpt><trkpt lat="39.7480878" lon="-0.7540058"><ele>524.6</ele><time>2026-04-04T10:34:59.593Z</time></trkpt><trkpt lat="39.7481086" lon="-0.7541209"><ele>524.8</ele><time>2026-04-04T10:35:00.593Z</time></trkpt><trkpt lat="39.7481374" lon="-0.754212"><ele>525.0</ele><time>2026-04-04T10:35:01.592Z</time></trkpt><trkpt lat="39.7482261" lon="-0.7543254"><ele>527.0</ele><time>2026-04-04T10:35:03.594Z</time></trkpt><trkpt lat="39.748276" lon="-0.754385"><ele>529.0</ele><time>2026-04-04T10:35:04.593Z</time></trkpt><trkpt lat="39.748334" lon="-0.754433"><ele>531.0</ele><time>2026-04-04T10:35:05.594Z</time></trkpt><trkpt lat="39.748391" lon="-0.7544921"><ele>533.0</ele><time>2026-04-04T10:35:06.593Z</time></trkpt><trkpt lat="39.7484586" lon="-0.7545491"><ele>535.0</ele><time>2026-04-04T10:35:07.593Z</time></trkpt><trkpt lat="39.7485308" lon="-0.7546095"><ele>537.0</ele><time>2026-04-04T10:35:08.595Z</time></trkpt><trkpt lat="39.7485898" lon="-0.7546684"><ele>537.1666666666666</ele><time>2026-04-04T10:35:09.593Z</time></trkpt><trkpt lat="39.7486355" lon="-0.7547352"><ele>537.3333333333334</ele><time>2026-04-04T10:35:10.593Z</time></trkpt><trkpt lat="39.7486674" lon="-0.7548262"><ele>537.5</ele><time>2026-04-04T10:35:11.593Z</time></trkpt><trkpt lat="39.7486883" lon="-0.7549204"><ele>537.6666666666667</ele><time>2026-04-04T10:35:12.594Z</time></trkpt><trkpt lat="39.7487071" lon="-0.7550218"><ele>537.8333333333334</ele><time>2026-04-04T10:35:13.592Z</time></trkpt><trkpt lat="39.7487189" lon="-0.7551269"><ele>538.0</ele><time>2026-04-04T10:35:14.593Z</time></trkpt><trkpt lat="39.7487183" lon="-0.7552425"><ele>540.6</ele><time>2026-04-04T10:35:15.594Z</time></trkpt><trkpt lat="39.7487041" lon="-0.7553573"><ele>543.1999999999999</ele><time>2026-04-04T10:35:16.592Z</time></trkpt><trkpt lat="39.7486773" lon="-0.7554746"><ele>545.8</ele><time>2026-04-04T10:35:17.594Z</time></trkpt><trkpt lat="39.7486478" lon="-0.755586"><ele>548.4</ele><time>2026-04-04T10:35:18.593Z</time></trkpt><trkpt lat="39.7486161" lon="-0.755699"><ele>551.0</ele><time>2026-04-04T10:35:19.593Z</time></trkpt><trkpt lat="39.7485851" lon="-0.7558166"><ele>551.0</ele><time>2026-04-04T10:35:20.593Z</time></trkpt><trkpt lat="39.7485608" lon="-0.7559251"><ele>551.0</ele><time>2026-04-04T10:35:21.593Z</time></trkpt><trkpt lat="39.7485342" lon="-0.7560462"><ele>551.0</ele><time>2026-04-04T10:35:22.593Z</time></trkpt><trkpt lat="39.7485045" lon="-0.7561563"><ele>551.0</ele><time>2026-04-04T10:35:23.593Z</time></trkpt><trkpt lat="39.7484743" lon="-0.7562568"><ele>551.0</ele><time>2026-04-04T10:35:24.594Z</time></trkpt><trkpt lat="39.7484354" lon="-0.7563575"><ele>551.0</ele><time>2026-04-04T10:35:25.594Z</time></trkpt><trkpt lat="39.7483863" lon="-0.7564507"><ele>551.6666666666666</ele><time>2026-04-04T10:35:26.593Z</time></trkpt><trkpt lat="39.7483336" lon="-0.7565305"><ele>552.3333333333333</ele><time>2026-04-04T10:35:27.594Z</time></trkpt><trkpt lat="39.7482799" lon="-0.7566218"><ele>553.0</ele><time>2026-04-04T10:35:28.592Z</time></trkpt><trkpt lat="39.7482379" lon="-0.7567129"><ele>553.6666666666666</ele><time>2026-04-04T10:35:29.593Z</time></trkpt><trkpt lat="39.748197" lon="-0.7568064"><ele>554.3333333333334</ele><time>2026-04-04T10:35:30.593Z</time></trkpt><trkpt lat="39.7481635" lon="-0.7569091"><ele>555.0</ele><time>2026-04-04T10:35:31.592Z</time></trkpt><trkpt lat="39.7481465" lon="-0.7570133"><ele>556.4</ele><time>2026-04-04T10:35:32.592Z</time></trkpt><trkpt lat="39.7481416" lon="-0.7571356"><ele>557.8</ele><time>2026-04-04T10:35:33.594Z</time></trkpt><trkpt lat="39.7481458" lon="-0.7572642"><ele>559.2</ele><time>2026-04-04T10:35:34.593Z</time></trkpt><trkpt lat="39.7481471" lon="-0.7573851"><ele>560.6</ele><time>2026-04-04T10:35:35.592Z</time></trkpt><trkpt lat="39.7481397" lon="-0.7575056"><ele>562.0</ele><time>2026-04-04T10:35:36.594Z</time></trkpt><trkpt lat="39.748122" lon="-0.7576075"><ele>563.6666666666667</ele><time>2026-04-04T10:35:37.594Z</time></trkpt><trkpt lat="39.7480968" lon="-0.7577032"><ele>565.3333333333334</ele><time>2026-04-04T10:35:38.593Z</time></trkpt><trkpt lat="39.7480457" lon="-0.7577777"><ele>567.0</ele><time>2026-04-04T10:35:39.592Z</time></trkpt><trkpt lat="39.7479991" lon="-0.7578617"><ele>568.6666666666666</ele><time>2026-04-04T10:35:40.594Z</time></trkpt><trkpt lat="39.7479503" lon="-0.7579531"><ele>570.3333333333333</ele><time>2026-04-04T10:35:41.592Z</time></trkpt><trkpt lat="39.7479102" lon="-0.7580558"><ele>572.0</ele><time>2026-04-04T10:35:42.593Z</time></trkpt><trkpt lat="39.7478712" lon="-0.7581643"><ele>572.0</ele><time>2026-04-04T10:35:43.593Z</time></trkpt><trkpt lat="39.7478369" lon="-0.758296"><ele>572.0</ele><time>2026-04-04T10:35:44.593Z</time></trkpt><trkpt lat="39.7478093" lon="-0.7584243"><ele>572.0</ele><time>2026-04-04T10:35:45.593Z</time></trkpt><trkpt lat="39.7477743" lon="-0.7585522"><ele>572.0</ele><time>2026-04-04T10:35:46.593Z</time></trkpt><trkpt lat="39.7477429" lon="-0.7586757"><ele>572.0</ele><time>2026-04-04T10:35:47.594Z</time></trkpt><trkpt lat="39.7477015" lon="-0.7588069"><ele>571.25</ele><time>2026-04-04T10:35:48.594Z</time></trkpt><trkpt lat="39.7476637" lon="-0.7589399"><ele>570.5</ele><time>2026-04-04T10:35:49.594Z</time></trkpt><trkpt lat="39.7476195" lon="-0.7590849"><ele>569.75</ele><time>2026-04-04T10:35:50.593Z</time></trkpt><trkpt lat="39.7475631" lon="-0.7592293"><ele>569.0</ele><time>2026-04-04T10:35:51.593Z</time></trkpt><trkpt lat="39.7475088" lon="-0.7593713"><ele>570.5</ele><time>2026-04-04T10:35:52.592Z</time></trkpt><trkpt lat="39.7474614" lon="-0.7595085"><ele>572.0</ele><time>2026-04-04T10:35:53.594Z</time></trkpt><trkpt lat="39.7474135" lon="-0.7596458"><ele>573.5</ele><time>2026-04-04T10:35:54.593Z</time></trkpt><trkpt lat="39.7473739" lon="-0.7597959"><ele>575.0</ele><time>2026-04-04T10:35:55.594Z</time></trkpt><trkpt lat="39.7473407" lon="-0.759951"><ele>575.0</ele><time>2026-04-04T10:35:56.592Z</time></trkpt><trkpt lat="39.7473094" lon="-0.760107"><ele>575.0</ele><time>2026-04-04T10:35:57.593Z</time></trkpt><trkpt lat="39.7472877" lon="-0.7602499"><ele>575.0</ele><time>2026-04-04T10:35:58.593Z</time></trkpt><trkpt lat="39.7472646" lon="-0.7603842"><ele>575.0</ele><time>2026-04-04T10:35:59.593Z</time></trkpt><trkpt lat="39.7472421" lon="-0.7605036"><ele>575.0</ele><time>2026-04-04T10:36:00.592Z</time></trkpt><trkpt lat="39.7472265" lon="-0.7606057"><ele>574.6666666666666</ele><time>2026-04-04T10:36:01.592Z</time></trkpt><trkpt lat="39.7472153" lon="-0.7607094"><ele>574.3333333333333</ele><time>2026-04-04T10:36:02.594Z</time></trkpt><trkpt lat="39.7472143" lon="-0.7608129"><ele>574.0</ele><time>2026-04-04T10:36:03.594Z</time></trkpt><trkpt lat="39.7472283" lon="-0.7608977"><ele>573.6666666666666</ele><time>2026-04-04T10:36:04.593Z</time></trkpt><trkpt lat="39.7472487" lon="-0.760986"><ele>573.3333333333334</ele><time>2026-04-04T10:36:05.595Z</time></trkpt><trkpt lat="39.7472719" lon="-0.7610759"><ele>573.0</ele><time>2026-04-04T10:36:06.592Z</time></trkpt><trkpt lat="39.7473007" lon="-0.7611741"><ele>572.8</ele><time>2026-04-04T10:36:07.594Z</time></trkpt><trkpt lat="39.7473281" lon="-0.7612666"><ele>572.5999999999999</ele><time>2026-04-04T10:36:08.593Z</time></trkpt><trkpt lat="39.7473567" lon="-0.7613446"><ele>572.4000000000001</ele><time>2026-04-04T10:36:09.594Z</time></trkpt><trkpt lat="39.7474183" lon="-0.7614719"><ele>572.2</ele><time>2026-04-04T10:36:11.593Z</time></trkpt><trkpt lat="39.7474864" lon="-0.7615912"><ele>572.0</ele><time>2026-04-04T10:36:13.592Z</time></trkpt><trkpt lat="39.7475563" lon="-0.7616718"><ele>572.0</ele><time>2026-04-04T10:36:15.593Z</time></trkpt><trkpt lat="39.7476063" lon="-0.7617352"><ele>572.0</ele><time>2026-04-04T10:36:17.594Z</time></trkpt><trkpt lat="39.7476737" lon="-0.7618436"><ele>572.0</ele><time>2026-04-04T10:36:19.593Z</time></trkpt><trkpt lat="39.7477286" lon="-0.7619171"><ele>572.0</ele><time>2026-04-04T10:36:20.593Z</time></trkpt><trkpt lat="39.7477957" lon="-0.7620155"><ele>572.0</ele><time>2026-04-04T10:36:21.593Z</time></trkpt><trkpt lat="39.7478573" lon="-0.7621206"><ele>571.25</ele><time>2026-04-04T10:36:22.593Z</time></trkpt><trkpt lat="39.7479258" lon="-0.7622354"><ele>570.5</ele><time>2026-04-04T10:36:23.593Z</time></trkpt><trkpt lat="39.7479995" lon="-0.7623574"><ele>569.75</ele><time>2026-04-04T10:36:24.594Z</time></trkpt><trkpt lat="39.7480778" lon="-0.7624815"><ele>569.0</ele><time>2026-04-04T10:36:25.594Z</time></trkpt><trkpt lat="39.748154" lon="-0.7626157"><ele>569.0</ele><time>2026-04-04T10:36:26.593Z</time></trkpt><trkpt lat="39.748218" lon="-0.7627648"><ele>569.0</ele><time>2026-04-04T10:36:27.592Z</time></trkpt><trkpt lat="39.7482731" lon="-0.7629091"><ele>569.0</ele><time>2026-04-04T10:36:28.592Z</time></trkpt><trkpt lat="39.7483181" lon="-0.7630396"><ele>569.0</ele><time>2026-04-04T10:36:29.593Z</time></trkpt><trkpt lat="39.748361" lon="-0.7631614"><ele>569.0</ele><time>2026-04-04T10:36:30.592Z</time></trkpt><trkpt lat="39.7484061" lon="-0.7632868"><ele>569.0</ele><time>2026-04-04T10:36:31.594Z</time></trkpt><trkpt lat="39.7484515" lon="-0.7633983"><ele>569.0</ele><time>2026-04-04T10:36:32.594Z</time></trkpt><trkpt lat="39.7484948" lon="-0.7635074"><ele>569.0</ele><time>2026-04-04T10:36:33.592Z</time></trkpt><trkpt lat="39.7485397" lon="-0.7636145"><ele>569.0</ele><time>2026-04-04T10:36:34.594Z</time></trkpt><trkpt lat="39.7485776" lon="-0.7637139"><ele>570.1666666666666</ele><time>2026-04-04T10:36:35.593Z</time></trkpt><trkpt lat="39.7486141" lon="-0.7638168"><ele>571.3333333333333</ele><time>2026-04-04T10:36:36.594Z</time></trkpt><trkpt lat="39.7486508" lon="-0.7639065"><ele>572.5</ele><time>2026-04-04T10:36:37.594Z</time></trkpt><trkpt lat="39.7486844" lon="-0.7639929"><ele>573.6666666666666</ele><time>2026-04-04T10:36:38.593Z</time></trkpt><trkpt lat="39.7487178" lon="-0.7640867"><ele>574.8333333333334</ele><time>2026-04-04T10:36:39.594Z</time></trkpt><trkpt lat="39.7487597" lon="-0.7641746"><ele>576.0</ele><time>2026-04-04T10:36:40.592Z</time></trkpt><trkpt lat="39.7488" lon="-0.7642758"><ele>575.4</ele><time>2026-04-04T10:36:41.594Z</time></trkpt><trkpt lat="39.7488566" lon="-0.7643875"><ele>574.8</ele><time>2026-04-04T10:36:42.593Z</time></trkpt><trkpt lat="39.748914" lon="-0.7644886"><ele>574.1999999999999</ele><time>2026-04-04T10:36:43.593Z</time></trkpt><trkpt lat="39.7489732" lon="-0.7645817"><ele>573.6</ele><time>2026-04-04T10:36:44.592Z</time></trkpt><trkpt lat="39.749033" lon="-0.7646803"><ele>573.0</ele><time>2026-04-04T10:36:45.594Z</time></trkpt><trkpt lat="39.74909" lon="-0.7647727"><ele>573.0</ele><time>2026-04-04T10:36:46.594Z</time></trkpt><trkpt lat="39.7491436" lon="-0.7648611"><ele>573.0</ele><time>2026-04-04T10:36:47.592Z</time></trkpt><trkpt lat="39.7491863" lon="-0.7649382"><ele>573.0</ele><time>2026-04-04T10:36:48.594Z</time></trkpt><trkpt lat="39.749231" lon="-0.765007"><ele>573.0</ele><time>2026-04-04T10:36:49.593Z</time></trkpt><trkpt lat="39.7492785" lon="-0.7650692"><ele>573.0</ele><time>2026-04-04T10:36:50.593Z</time></trkpt><trkpt lat="39.7493328" lon="-0.7651207"><ele>573.0</ele><time>2026-04-04T10:36:51.593Z</time></trkpt><trkpt lat="39.7493991" lon="-0.7651583"><ele>573.0</ele><time>2026-04-04T10:36:52.593Z</time></trkpt><trkpt lat="39.7494901" lon="-0.7652006"><ele>571.3333333333334</ele><time>2026-04-04T10:36:53.593Z</time></trkpt><trkpt lat="39.7495762" lon="-0.7652374"><ele>569.6666666666666</ele><time>2026-04-04T10:36:54.592Z</time></trkpt><trkpt lat="39.7496599" lon="-0.7652754"><ele>568.0</ele><time>2026-04-04T10:36:55.592Z</time></trkpt><trkpt lat="39.7497386" lon="-0.7653198"><ele>566.3333333333333</ele><time>2026-04-04T10:36:56.593Z</time></trkpt><trkpt lat="39.7498096" lon="-0.7653614"><ele>564.6666666666666</ele><time>2026-04-04T10:36:57.592Z</time></trkpt><trkpt lat="39.7498818" lon="-0.7654145"><ele>563.0</ele><time>2026-04-04T10:36:58.593Z</time></trkpt><trkpt lat="39.7499573" lon="-0.7654736"><ele>563.0</ele><time>2026-04-04T10:36:59.594Z</time></trkpt><trkpt lat="39.7500409" lon="-0.7655483"><ele>563.0</ele><time>2026-04-04T10:37:00.593Z</time></trkpt><trkpt lat="39.7501214" lon="-0.765622"><ele>563.0</ele><time>2026-04-04T10:37:01.593Z</time></trkpt><trkpt lat="39.750196" lon="-0.7657005"><ele>563.0</ele><time>2026-04-04T10:37:02.592Z</time></trkpt><trkpt lat="39.7502612" lon="-0.7657719"><ele>563.0</ele><time>2026-04-04T10:37:03.592Z</time></trkpt><trkpt lat="39.7503209" lon="-0.7658353"><ele>563.5</ele><time>2026-04-04T10:37:04.592Z</time></trkpt><trkpt lat="39.7503796" lon="-0.7658946"><ele>564.0</ele><time>2026-04-04T10:37:05.592Z</time></trkpt><trkpt lat="39.7504503" lon="-0.7659452"><ele>564.5</ele><time>2026-04-04T10:37:06.592Z</time></trkpt><trkpt lat="39.7505289" lon="-0.7659975"><ele>565.0</ele><time>2026-04-04T10:37:07.593Z</time></trkpt><trkpt lat="39.7506073" lon="-0.7660548"><ele>565.5</ele><time>2026-04-04T10:37:08.594Z</time></trkpt><trkpt lat="39.750706" lon="-0.7661106"><ele>566.0</ele><time>2026-04-04T10:37:09.593Z</time></trkpt><trkpt lat="39.7508035" lon="-0.7661646"><ele>565.6</ele><time>2026-04-04T10:37:10.594Z</time></trkpt><trkpt lat="39.750896" lon="-0.7662297"><ele>565.2</ele><time>2026-04-04T10:37:11.593Z</time></trkpt><trkpt lat="39.7509793" lon="-0.7663041"><ele>564.8</ele><time>2026-04-04T10:37:12.593Z</time></trkpt><trkpt lat="39.7510572" lon="-0.7663852"><ele>564.4</ele><time>2026-04-04T10:37:13.593Z</time></trkpt><trkpt lat="39.7511351" lon="-0.766463"><ele>564.0</ele><time>2026-04-04T10:37:14.594Z</time></trkpt><trkpt lat="39.7512044" lon="-0.7665412"><ele>564.0</ele><time>2026-04-04T10:37:15.593Z</time></trkpt><trkpt lat="39.7512613" lon="-0.7666191"><ele>564.0</ele><time>2026-04-04T10:37:16.592Z</time></trkpt><trkpt lat="39.7513066" lon="-0.7667001"><ele>564.0</ele><time>2026-04-04T10:37:17.593Z</time></trkpt><trkpt lat="39.7513456" lon="-0.766788"><ele>564.0</ele><time>2026-04-04T10:37:18.594Z</time></trkpt><trkpt lat="39.7513746" lon="-0.7668691"><ele>564.0</ele><time>2026-04-04T10:37:19.593Z</time></trkpt><trkpt lat="39.7514057" lon="-0.7669503"><ele>564.0</ele><time>2026-04-04T10:37:20.593Z</time></trkpt><trkpt lat="39.751441" lon="-0.7670381"><ele>563.4</ele><time>2026-04-04T10:37:21.593Z</time></trkpt><trkpt lat="39.7514767" lon="-0.7671098"><ele>562.8</ele><time>2026-04-04T10:37:22.594Z</time></trkpt><trkpt lat="39.7515659" lon="-0.7672379"><ele>562.2</ele><time>2026-04-04T10:37:24.593Z</time></trkpt><trkpt lat="39.7516278" lon="-0.7673144"><ele>561.6</ele><time>2026-04-04T10:37:25.593Z</time></trkpt><trkpt lat="39.7516976" lon="-0.7673902"><ele>561.0</ele><time>2026-04-04T10:37:26.594Z</time></trkpt><trkpt lat="39.7517725" lon="-0.7674709"><ele>561.0</ele><time>2026-04-04T10:37:27.592Z</time></trkpt><trkpt lat="39.7518497" lon="-0.7675554"><ele>561.0</ele><time>2026-04-04T10:37:28.593Z</time></trkpt><trkpt lat="39.7519212" lon="-0.7676336"><ele>561.0</ele><time>2026-04-04T10:37:29.592Z</time></trkpt><trkpt lat="39.7519945" lon="-0.7676903"><ele>561.0</ele><time>2026-04-04T10:37:30.592Z</time></trkpt><trkpt lat="39.7520766" lon="-0.7677472"><ele>561.0</ele><time>2026-04-04T10:37:31.593Z</time></trkpt><trkpt lat="39.7521595" lon="-0.7678045"><ele>559.6</ele><time>2026-04-04T10:37:32.593Z</time></trkpt><trkpt lat="39.7522303" lon="-0.7678596"><ele>558.2</ele><time>2026-04-04T10:37:33.593Z</time></trkpt><trkpt lat="39.7523077" lon="-0.7679277"><ele>556.8</ele><time>2026-04-04T10:37:34.594Z</time></trkpt><trkpt lat="39.7523824" lon="-0.768017"><ele>555.4</ele><time>2026-04-04T10:37:35.592Z</time></trkpt><trkpt lat="39.7524669" lon="-0.768111"><ele>554.0</ele><time>2026-04-04T10:37:36.594Z</time></trkpt><trkpt lat="39.7525483" lon="-0.7682289"><ele>554.0</ele><time>2026-04-04T10:37:37.593Z</time></trkpt><trkpt lat="39.75262" lon="-0.7683558"><ele>554.0</ele><time>2026-04-04T10:37:38.593Z</time></trkpt><trkpt lat="39.7526911" lon="-0.7684825"><ele>554.0</ele><time>2026-04-04T10:37:39.594Z</time></trkpt><trkpt lat="39.7527547" lon="-0.768604"><ele>554.0</ele><time>2026-04-04T10:37:40.592Z</time></trkpt><trkpt lat="39.7528158" lon="-0.7687199"><ele>555.2</ele><time>2026-04-04T10:37:41.593Z</time></trkpt><trkpt lat="39.7528683" lon="-0.7688327"><ele>556.4</ele><time>2026-04-04T10:37:42.593Z</time></trkpt><trkpt lat="39.7529122" lon="-0.7689529"><ele>557.6</ele><time>2026-04-04T10:37:43.594Z</time></trkpt><trkpt lat="39.752937" lon="-0.7690561"><ele>558.8</ele><time>2026-04-04T10:37:44.593Z</time></trkpt><trkpt lat="39.7529551" lon="-0.7691614"><ele>560.0</ele><time>2026-04-04T10:37:45.593Z</time></trkpt><trkpt lat="39.7529861" lon="-0.7692723"><ele>559.4</ele><time>2026-04-04T10:37:46.593Z</time></trkpt><trkpt lat="39.7530267" lon="-0.7693944"><ele>558.8</ele><time>2026-04-04T10:37:47.593Z</time></trkpt><trkpt lat="39.7530699" lon="-0.7695247"><ele>558.2</ele><time>2026-04-04T10:37:48.594Z</time></trkpt><trkpt lat="39.7531087" lon="-0.7696451"><ele>557.6</ele><time>2026-04-04T10:37:49.593Z</time></trkpt><trkpt lat="39.7531446" lon="-0.7697596"><ele>557.0</ele><time>2026-04-04T10:37:50.593Z</time></trkpt><trkpt lat="39.7531881" lon="-0.7698815"><ele>557.0</ele><time>2026-04-04T10:37:51.592Z</time></trkpt><trkpt lat="39.7532323" lon="-0.7699992"><ele>557.0</ele><time>2026-04-04T10:37:52.593Z</time></trkpt><trkpt lat="39.7532733" lon="-0.7701126"><ele>557.0</ele><time>2026-04-04T10:37:53.593Z</time></trkpt><trkpt lat="39.7533057" lon="-0.7702086"><ele>557.0</ele><time>2026-04-04T10:37:54.593Z</time></trkpt><trkpt lat="39.7533368" lon="-0.7703031"><ele>557.0</ele><time>2026-04-04T10:37:55.592Z</time></trkpt><trkpt lat="39.7533658" lon="-0.7703863"><ele>557.0</ele><time>2026-04-04T10:37:56.593Z</time></trkpt><trkpt lat="39.7534079" lon="-0.7705302"><ele>556.1666666666666</ele><time>2026-04-04T10:37:58.594Z</time></trkpt><trkpt lat="39.7534282" lon="-0.7706322"><ele>555.3333333333333</ele><time>2026-04-04T10:38:00.593Z</time></trkpt><trkpt lat="39.7533796" lon="-0.7707049"><ele>554.5</ele><time>2026-04-04T10:38:03.593Z</time></trkpt><trkpt lat="39.7532865" lon="-0.7707078"><ele>553.6666666666666</ele><time>2026-04-04T10:38:05.594Z</time></trkpt><trkpt lat="39.7532198" lon="-0.7706936"><ele>552.8333333333334</ele><time>2026-04-04T10:38:06.592Z</time></trkpt><trkpt lat="39.7531387" lon="-0.7706711"><ele>552.0</ele><time>2026-04-04T10:38:07.593Z</time></trkpt><trkpt lat="39.7530507" lon="-0.7706465"><ele>552.0</ele><time>2026-04-04T10:38:08.593Z</time></trkpt><trkpt lat="39.7529599" lon="-0.7706132"><ele>552.0</ele><time>2026-04-04T10:38:09.594Z</time></trkpt><trkpt lat="39.7528665" lon="-0.7705772"><ele>552.0</ele><time>2026-04-04T10:38:10.593Z</time></trkpt><trkpt lat="39.7527765" lon="-0.7705506"><ele>552.0</ele><time>2026-04-04T10:38:11.593Z</time></trkpt><trkpt lat="39.7526892" lon="-0.7705419"><ele>552.0</ele><time>2026-04-04T10:38:12.593Z</time></trkpt><trkpt lat="39.7526052" lon="-0.7705469"><ele>552.0</ele><time>2026-04-04T10:38:13.593Z</time></trkpt><trkpt lat="39.7525324" lon="-0.7705696"><ele>552.0</ele><time>2026-04-04T10:38:14.594Z</time></trkpt><trkpt lat="39.7524547" lon="-0.7706071"><ele>552.0</ele><time>2026-04-04T10:38:15.593Z</time></trkpt><trkpt lat="39.7523763" lon="-0.7706619"><ele>552.0</ele><time>2026-04-04T10:38:16.592Z</time></trkpt><trkpt lat="39.752293" lon="-0.7707103"><ele>552.0</ele><time>2026-04-04T10:38:17.593Z</time></trkpt><trkpt lat="39.7521977" lon="-0.7707324"><ele>552.0</ele><time>2026-04-04T10:38:18.592Z</time></trkpt><trkpt lat="39.7520912" lon="-0.7707576"><ele>552.0</ele><time>2026-04-04T10:38:19.594Z</time></trkpt><trkpt lat="39.7519858" lon="-0.7707767"><ele>552.0</ele><time>2026-04-04T10:38:20.592Z</time></trkpt><trkpt lat="39.7518952" lon="-0.770797"><ele>552.0</ele><time>2026-04-04T10:38:21.593Z</time></trkpt><trkpt lat="39.7518168" lon="-0.7708271"><ele>552.0</ele><time>2026-04-04T10:38:22.592Z</time></trkpt><trkpt lat="39.7517436" lon="-0.7708769"><ele>552.0</ele><time>2026-04-04T10:38:23.593Z</time></trkpt><trkpt lat="39.7516648" lon="-0.7709491"><ele>552.25</ele><time>2026-04-04T10:38:24.593Z</time></trkpt><trkpt lat="39.7515823" lon="-0.7710391"><ele>552.5</ele><time>2026-04-04T10:38:25.592Z</time></trkpt><trkpt lat="39.7514851" lon="-0.7711237"><ele>552.75</ele><time>2026-04-04T10:38:26.594Z</time></trkpt><trkpt lat="39.7513856" lon="-0.7712074"><ele>553.0</ele><time>2026-04-04T10:38:27.594Z</time></trkpt><trkpt lat="39.7512799" lon="-0.7712828"><ele>553.0</ele><time>2026-04-04T10:38:28.592Z</time></trkpt><trkpt lat="39.7511666" lon="-0.7713533"><ele>553.0</ele><time>2026-04-04T10:38:29.593Z</time></trkpt><trkpt lat="39.7510567" lon="-0.7714216"><ele>553.0</ele><time>2026-04-04T10:38:30.594Z</time></trkpt><trkpt lat="39.7509479" lon="-0.7714841"><ele>553.0</ele><time>2026-04-04T10:38:31.594Z</time></trkpt><trkpt lat="39.7508428" lon="-0.7715567"><ele>552.75</ele><time>2026-04-04T10:38:32.593Z</time></trkpt><trkpt lat="39.7507379" lon="-0.7716265"><ele>552.5</ele><time>2026-04-04T10:38:33.593Z</time></trkpt><trkpt lat="39.7506296" lon="-0.7716914"><ele>552.25</ele><time>2026-04-04T10:38:34.594Z</time></trkpt><trkpt lat="39.75052" lon="-0.7717502"><ele>552.0</ele><time>2026-04-04T10:38:35.592Z</time></trkpt><trkpt lat="39.750412" lon="-0.771808"><ele>551.5</ele><time>2026-04-04T10:38:36.593Z</time></trkpt><trkpt lat="39.7503018" lon="-0.7718624"><ele>551.0</ele><time>2026-04-04T10:38:37.593Z</time></trkpt><trkpt lat="39.7501999" lon="-0.7719116"><ele>550.5</ele><time>2026-04-04T10:38:38.591Z</time></trkpt><trkpt lat="39.7500922" lon="-0.7719573"><ele>550.0</ele><time>2026-04-04T10:38:39.592Z</time></trkpt><trkpt lat="39.7499813" lon="-0.7719931"><ele>550.0</ele><time>2026-04-04T10:38:40.593Z</time></trkpt><trkpt lat="39.7498769" lon="-0.7720267"><ele>550.0</ele><time>2026-04-04T10:38:41.591Z</time></trkpt><trkpt lat="39.7497801" lon="-0.7720596"><ele>550.0</ele><time>2026-04-04T10:38:42.593Z</time></trkpt><trkpt lat="39.749691" lon="-0.7720858"><ele>550.0</ele><time>2026-04-04T10:38:43.592Z</time></trkpt><trkpt lat="39.7496066" lon="-0.7720931"><ele>550.0</ele><time>2026-04-04T10:38:44.592Z</time></trkpt><trkpt lat="39.7495376" lon="-0.7720824"><ele>550.0</ele><time>2026-04-04T10:38:45.592Z</time></trkpt><trkpt lat="39.7494717" lon="-0.77207"><ele>550.0</ele><time>2026-04-04T10:38:46.593Z</time></trkpt><trkpt lat="39.7493969" lon="-0.7720576"><ele>550.0</ele><time>2026-04-04T10:38:47.594Z</time></trkpt><trkpt lat="39.7493247" lon="-0.7720354"><ele>550.0</ele><time>2026-04-04T10:38:48.592Z</time></trkpt><trkpt lat="39.7492553" lon="-0.7720323"><ele>550.0</ele><time>2026-04-04T10:38:49.592Z</time></trkpt><trkpt lat="39.7491832" lon="-0.7720444"><ele>550.0</ele><time>2026-04-04T10:38:50.593Z</time></trkpt><trkpt lat="39.7491123" lon="-0.7720473"><ele>550.0</ele><time>2026-04-04T10:38:51.593Z</time></trkpt><trkpt lat="39.7489865" lon="-0.7720207"><ele>549.2</ele><time>2026-04-04T10:38:53.593Z</time></trkpt><trkpt lat="39.7489051" lon="-0.7719888"><ele>548.4</ele><time>2026-04-04T10:38:54.592Z</time></trkpt><trkpt lat="39.7488137" lon="-0.7719572"><ele>547.6</ele><time>2026-04-04T10:38:55.594Z</time></trkpt><trkpt lat="39.7487145" lon="-0.7719126"><ele>546.8</ele><time>2026-04-04T10:38:56.593Z</time></trkpt><trkpt lat="39.7486251" lon="-0.771873"><ele>546.0</ele><time>2026-04-04T10:38:57.593Z</time></trkpt><trkpt lat="39.7485386" lon="-0.7718382"><ele>545.1666666666666</ele><time>2026-04-04T10:38:58.592Z</time></trkpt><trkpt lat="39.7484618" lon="-0.7718056"><ele>544.3333333333334</ele><time>2026-04-04T10:38:59.593Z</time></trkpt><trkpt lat="39.7483999" lon="-0.7717785"><ele>543.5</ele><time>2026-04-04T10:39:00.593Z</time></trkpt><trkpt lat="39.7483192" lon="-0.7717219"><ele>542.6666666666667</ele><time>2026-04-04T10:39:02.591Z</time></trkpt><trkpt lat="39.7482668" lon="-0.771663"><ele>541.8333333333334</ele><time>2026-04-04T10:39:05.594Z</time></trkpt><trkpt lat="39.7482227" lon="-0.7717402"><ele>541.0</ele><time>2026-04-04T10:39:26.593Z</time></trkpt><trkpt lat="39.7481877" lon="-0.7718349"><ele>541.2</ele><time>2026-04-04T10:39:29.594Z</time></trkpt><trkpt lat="39.7481559" lon="-0.7719593"><ele>541.4000000000001</ele><time>2026-04-04T10:39:31.593Z</time></trkpt><trkpt lat="39.7481387" lon="-0.7720932"><ele>541.6</ele><time>2026-04-04T10:39:33.591Z</time></trkpt><trkpt lat="39.7481166" lon="-0.7722513"><ele>541.8000000000001</ele><time>2026-04-04T10:39:35.591Z</time></trkpt><trkpt lat="39.748094" lon="-0.7723808"><ele>542.0</ele><time>2026-04-04T10:39:37.591Z</time></trkpt><trkpt lat="39.7480372" lon="-0.7724654"><ele>542.0</ele><time>2026-04-04T10:39:39.593Z</time></trkpt><trkpt lat="39.7479437" lon="-0.772513"><ele>542.0</ele><time>2026-04-04T10:39:41.592Z</time></trkpt><trkpt lat="39.7478549" lon="-0.7725426"><ele>542.0</ele><time>2026-04-04T10:39:43.593Z</time></trkpt><trkpt lat="39.7477829" lon="-0.7725867"><ele>542.0</ele><time>2026-04-04T10:39:45.591Z</time></trkpt><trkpt lat="39.7476751" lon="-0.772631"><ele>542.0</ele><time>2026-04-04T10:39:47.593Z</time></trkpt><trkpt lat="39.7476048" lon="-0.7726393"><ele>541.6</ele><time>2026-04-04T10:39:48.591Z</time></trkpt><trkpt lat="39.7475" lon="-0.7726283"><ele>541.2</ele><time>2026-04-04T10:39:50.591Z</time></trkpt><trkpt lat="39.747416" lon="-0.7727244"><ele>540.8</ele><time>2026-04-04T10:39:52.592Z</time></trkpt><trkpt lat="39.7473689" lon="-0.7727944"><ele>540.4</ele><time>2026-04-04T10:39:53.593Z</time></trkpt><trkpt lat="39.7473223" lon="-0.7729022"><ele>540.0</ele><time>2026-04-04T10:39:54.592Z</time></trkpt><trkpt lat="39.7472727" lon="-0.773011"><ele>541.4</ele><time>2026-04-04T10:39:55.592Z</time></trkpt><trkpt lat="39.7472283" lon="-0.7731353"><ele>542.8</ele><time>2026-04-04T10:39:56.593Z</time></trkpt><trkpt lat="39.7471902" lon="-0.7732622"><ele>544.2</ele><time>2026-04-04T10:39:57.594Z</time></trkpt><trkpt lat="39.7471492" lon="-0.7733767"><ele>545.6</ele><time>2026-04-04T10:39:58.594Z</time></trkpt><trkpt lat="39.7471146" lon="-0.7734748"><ele>547.0</ele><time>2026-04-04T10:39:59.593Z</time></trkpt><trkpt lat="39.7470365" lon="-0.7735879"><ele>547.5</ele><time>2026-04-04T10:40:01.591Z</time></trkpt><trkpt lat="39.7469672" lon="-0.7736321"><ele>548.0</ele><time>2026-04-04T10:40:02.593Z</time></trkpt><trkpt lat="39.7469093" lon="-0.7736831"><ele>548.5</ele><time>2026-04-04T10:40:03.591Z</time></trkpt><trkpt lat="39.746851" lon="-0.7737609"><ele>549.0</ele><time>2026-04-04T10:40:04.593Z</time></trkpt><trkpt lat="39.7467875" lon="-0.7738564"><ele>549.5</ele><time>2026-04-04T10:40:05.592Z</time></trkpt><trkpt lat="39.7467168" lon="-0.7739573"><ele>550.0</ele><time>2026-04-04T10:40:06.592Z</time></trkpt><trkpt lat="39.7466509" lon="-0.7740587"><ele>549.6666666666667</ele><time>2026-04-04T10:40:07.592Z</time></trkpt><trkpt lat="39.7465814" lon="-0.7741504"><ele>549.3333333333334</ele><time>2026-04-04T10:40:08.593Z</time></trkpt><trkpt lat="39.7465104" lon="-0.7742222"><ele>549.0</ele><time>2026-04-04T10:40:09.594Z</time></trkpt><trkpt lat="39.7464449" lon="-0.7742795"><ele>548.6666666666666</ele><time>2026-04-04T10:40:10.593Z</time></trkpt><trkpt lat="39.7463822" lon="-0.7743496"><ele>548.3333333333333</ele><time>2026-04-04T10:40:11.593Z</time></trkpt><trkpt lat="39.7463225" lon="-0.7744349"><ele>548.0</ele><time>2026-04-04T10:40:12.594Z</time></trkpt><trkpt lat="39.7462637" lon="-0.7745424"><ele>548.0</ele><time>2026-04-04T10:40:13.591Z</time></trkpt><trkpt lat="39.7462079" lon="-0.7746457"><ele>548.0</ele><time>2026-04-04T10:40:14.593Z</time></trkpt><trkpt lat="39.7461556" lon="-0.7747453"><ele>548.0</ele><time>2026-04-04T10:40:15.592Z</time></trkpt><trkpt lat="39.7461001" lon="-0.7748082"><ele>548.0</ele><time>2026-04-04T10:40:16.593Z</time></trkpt><trkpt lat="39.7460273" lon="-0.7748795"><ele>548.0</ele><time>2026-04-04T10:40:17.594Z</time></trkpt><trkpt lat="39.7459517" lon="-0.7749501"><ele>548.0</ele><time>2026-04-04T10:40:18.593Z</time></trkpt><trkpt lat="39.7458756" lon="-0.7750046"><ele>546.8333333333333</ele><time>2026-04-04T10:40:19.592Z</time></trkpt><trkpt lat="39.745806" lon="-0.7750687"><ele>545.6666666666666</ele><time>2026-04-04T10:40:20.592Z</time></trkpt><trkpt lat="39.7457553" lon="-0.7751282"><ele>544.5</ele><time>2026-04-04T10:40:21.592Z</time></trkpt><trkpt lat="39.7457124" lon="-0.775202"><ele>543.3333333333334</ele><time>2026-04-04T10:40:22.594Z</time></trkpt><trkpt lat="39.7456772" lon="-0.7752938"><ele>542.1666666666667</ele><time>2026-04-04T10:40:23.593Z</time></trkpt><trkpt lat="39.7456276" lon="-0.7753975"><ele>541.0</ele><time>2026-04-04T10:40:24.592Z</time></trkpt><trkpt lat="39.7455777" lon="-0.7754975"><ele>541.0</ele><time>2026-04-04T10:40:25.593Z</time></trkpt><trkpt lat="39.7455303" lon="-0.775577"><ele>541.0</ele><time>2026-04-04T10:40:26.593Z</time></trkpt><trkpt lat="39.7454717" lon="-0.7756505"><ele>541.0</ele><time>2026-04-04T10:40:27.591Z</time></trkpt><trkpt lat="39.7454167" lon="-0.7757317"><ele>541.0</ele><time>2026-04-04T10:40:28.594Z</time></trkpt><trkpt lat="39.7453711" lon="-0.7758075"><ele>541.0</ele><time>2026-04-04T10:40:29.592Z</time></trkpt><trkpt lat="39.7453222" lon="-0.7758905"><ele>541.0</ele><time>2026-04-04T10:40:30.593Z</time></trkpt><trkpt lat="39.7452798" lon="-0.7759694"><ele>540.6666666666667</ele><time>2026-04-04T10:40:31.593Z</time></trkpt><trkpt lat="39.745238" lon="-0.7760571"><ele>540.3333333333334</ele><time>2026-04-04T10:40:32.593Z</time></trkpt><trkpt lat="39.7451995" lon="-0.7761463"><ele>540.0</ele><time>2026-04-04T10:40:33.594Z</time></trkpt><trkpt lat="39.7451548" lon="-0.7762182"><ele>539.6666666666666</ele><time>2026-04-04T10:40:34.591Z</time></trkpt><trkpt lat="39.7450621" lon="-0.7763349"><ele>539.3333333333333</ele><time>2026-04-04T10:40:36.591Z</time></trkpt><trkpt lat="39.7450157" lon="-0.7763963"><ele>539.0</ele><time>2026-04-04T10:40:37.593Z</time></trkpt><trkpt lat="39.7449692" lon="-0.7764624"><ele>536.6666666666666</ele><time>2026-04-04T10:40:38.592Z</time></trkpt><trkpt lat="39.7449312" lon="-0.7765298"><ele>534.3333333333333</ele><time>2026-04-04T10:40:39.592Z</time></trkpt><trkpt lat="39.7448627" lon="-0.7766091"><ele>532.0</ele><time>2026-04-04T10:40:41.592Z</time></trkpt><trkpt lat="39.7448074" lon="-0.7766783"><ele>529.6666666666666</ele><time>2026-04-04T10:40:44.593Z</time></trkpt><trkpt lat="39.7448249" lon="-0.776798"><ele>527.3333333333334</ele><time>2026-04-04T10:40:52.591Z</time></trkpt><trkpt lat="39.7448835" lon="-0.7769329"><ele>525.0</ele><time>2026-04-04T10:40:54.592Z</time></trkpt><trkpt lat="39.7449209" lon="-0.7770188"><ele>525.0</ele><time>2026-04-04T10:40:55.592Z</time></trkpt><trkpt lat="39.7449656" lon="-0.7771221"><ele>525.0</ele><time>2026-04-04T10:40:56.594Z</time></trkpt><trkpt lat="39.7450136" lon="-0.7772316"><ele>525.0</ele><time>2026-04-04T10:40:57.593Z</time></trkpt><trkpt lat="39.7450574" lon="-0.77735"><ele>525.0</ele><time>2026-04-04T10:40:58.593Z</time></trkpt><trkpt lat="39.7451019" lon="-0.7774521"><ele>525.0</ele><time>2026-04-04T10:40:59.592Z</time></trkpt><trkpt lat="39.7451404" lon="-0.7775486"><ele>525.0</ele><time>2026-04-04T10:41:00.592Z</time></trkpt><trkpt lat="39.7451791" lon="-0.7776309"><ele>525.0</ele><time>2026-04-04T10:41:01.593Z</time></trkpt><trkpt lat="39.7452143" lon="-0.7777049"><ele>525.0</ele><time>2026-04-04T10:41:02.593Z</time></trkpt><trkpt lat="39.7452498" lon="-0.7777857"><ele>525.0</ele><time>2026-04-04T10:41:03.593Z</time></trkpt><trkpt lat="39.7452885" lon="-0.7778694"><ele>525.0</ele><time>2026-04-04T10:41:04.594Z</time></trkpt><trkpt lat="39.7453171" lon="-0.7779458"><ele>525.0</ele><time>2026-04-04T10:41:05.592Z</time></trkpt><trkpt lat="39.7453664" lon="-0.7780706"><ele>526.6666666666666</ele><time>2026-04-04T10:41:07.593Z</time></trkpt><trkpt lat="39.745388" lon="-0.778155"><ele>528.3333333333334</ele><time>2026-04-04T10:41:09.594Z</time></trkpt><trkpt lat="39.7453866" lon="-0.7782412"><ele>530.0</ele><time>2026-04-04T10:41:12.593Z</time></trkpt><trkpt lat="39.7453666" lon="-0.7781056"><ele>531.6666666666667</ele><time>2026-04-04T10:41:34.591Z</time></trkpt><trkpt lat="39.7453267" lon="-0.7780008"><ele>533.3333333333334</ele><time>2026-04-04T10:41:35.592Z</time></trkpt><trkpt lat="39.7452775" lon="-0.7778839"><ele>535.0</ele><time>2026-04-04T10:41:36.592Z</time></trkpt><trkpt lat="39.7452257" lon="-0.777751"><ele>532.5</ele><time>2026-04-04T10:41:37.594Z</time></trkpt><trkpt lat="39.7451672" lon="-0.7776164"><ele>530.0</ele><time>2026-04-04T10:41:38.593Z</time></trkpt><trkpt lat="39.7451102" lon="-0.7774785"><ele>527.5</ele><time>2026-04-04T10:41:39.593Z</time></trkpt><trkpt lat="39.7450521" lon="-0.7773369"><ele>525.0</ele><time>2026-04-04T10:41:40.592Z</time></trkpt><trkpt lat="39.7449997" lon="-0.7771976"><ele>525.0</ele><time>2026-04-04T10:41:41.592Z</time></trkpt><trkpt lat="39.7449509" lon="-0.777066"><ele>525.0</ele><time>2026-04-04T10:41:42.593Z</time></trkpt><trkpt lat="39.7449092" lon="-0.7769605"><ele>525.0</ele><time>2026-04-04T10:41:43.591Z</time></trkpt><trkpt lat="39.7448695" lon="-0.7768645"><ele>525.0</ele><time>2026-04-04T10:41:44.592Z</time></trkpt><trkpt lat="39.7448355" lon="-0.7767801"><ele>525.0</ele><time>2026-04-04T10:41:45.592Z</time></trkpt><trkpt lat="39.7447968" lon="-0.7766902"><ele>525.0</ele><time>2026-04-04T10:41:46.592Z</time></trkpt><trkpt lat="39.7447579" lon="-0.7766031"><ele>525.0</ele><time>2026-04-04T10:41:47.593Z</time></trkpt><trkpt lat="39.7447199" lon="-0.7765195"><ele>525.0</ele><time>2026-04-04T10:41:48.593Z</time></trkpt><trkpt lat="39.7446822" lon="-0.7764247"><ele>525.0</ele><time>2026-04-04T10:41:49.592Z</time></trkpt><trkpt lat="39.7446529" lon="-0.7763457"><ele>525.0</ele><time>2026-04-04T10:41:50.594Z</time></trkpt><trkpt lat="39.7446158" lon="-0.776258"><ele>525.0</ele><time>2026-04-04T10:41:51.593Z</time></trkpt><trkpt lat="39.7445908" lon="-0.7761741"><ele>525.0</ele><time>2026-04-04T10:41:52.592Z</time></trkpt><trkpt lat="39.7445735" lon="-0.7760874"><ele>525.0</ele><time>2026-04-04T10:41:53.591Z</time></trkpt><trkpt lat="39.7445681" lon="-0.7760013"><ele>525.0</ele><time>2026-04-04T10:41:54.593Z</time></trkpt><trkpt lat="39.7445705" lon="-0.7759118"><ele>525.0</ele><time>2026-04-04T10:41:55.592Z</time></trkpt><trkpt lat="39.7445903" lon="-0.7758101"><ele>525.0</ele><time>2026-04-04T10:41:56.593Z</time></trkpt><trkpt lat="39.7446061" lon="-0.7756971"><ele>525.0</ele><time>2026-04-04T10:41:57.591Z</time></trkpt><trkpt lat="39.7446234" lon="-0.7755742"><ele>525.0</ele><time>2026-04-04T10:41:58.592Z</time></trkpt><trkpt lat="39.7446447" lon="-0.775422"><ele>525.0</ele><time>2026-04-04T10:41:59.591Z</time></trkpt><trkpt lat="39.7446691" lon="-0.775261"><ele>525.0</ele><time>2026-04-04T10:42:00.592Z</time></trkpt><trkpt lat="39.7446846" lon="-0.7750949"><ele>525.0</ele><time>2026-04-04T10:42:01.594Z</time></trkpt><trkpt lat="39.7447008" lon="-0.7749467"><ele>525.0</ele><time>2026-04-04T10:42:02.594Z</time></trkpt><trkpt lat="39.7447198" lon="-0.7748077"><ele>524.2</ele><time>2026-04-04T10:42:03.592Z</time></trkpt><trkpt lat="39.7447498" lon="-0.774668"><ele>523.4</ele><time>2026-04-04T10:42:04.594Z</time></trkpt><trkpt lat="39.7447674" lon="-0.7745372"><ele>522.6</ele><time>2026-04-04T10:42:05.593Z</time></trkpt><trkpt lat="39.7447814" lon="-0.7744198"><ele>521.8</ele><time>2026-04-04T10:42:06.592Z</time></trkpt><trkpt lat="39.7447944" lon="-0.7743064"><ele>521.0</ele><time>2026-04-04T10:42:07.591Z</time></trkpt><trkpt lat="39.7447775" lon="-0.7742062"><ele>520.8333333333333</ele><time>2026-04-04T10:42:08.593Z</time></trkpt><trkpt lat="39.7447626" lon="-0.7740938"><ele>520.6666666666666</ele><time>2026-04-04T10:42:09.592Z</time></trkpt><trkpt lat="39.7447426" lon="-0.7739548"><ele>520.5</ele><time>2026-04-04T10:42:11.593Z</time></trkpt><trkpt lat="39.7446597" lon="-0.77389"><ele>520.3333333333334</ele><time>2026-04-04T10:42:14.592Z</time></trkpt><trkpt lat="39.7445901" lon="-0.7738255"><ele>520.1666666666667</ele><time>2026-04-04T10:42:17.592Z</time></trkpt><trkpt lat="39.7445779" lon="-0.7737354"><ele>520.0</ele><time>2026-04-04T10:43:50.592Z</time></trkpt><trkpt lat="39.7445679" lon="-0.7738164"><ele>520.0</ele><time>2026-04-04T10:44:02.592Z</time></trkpt><trkpt lat="39.7445972" lon="-0.7736783"><ele>520.0</ele><time>2026-04-04T10:46:01.591Z</time></trkpt><trkpt lat="39.7445656" lon="-0.7735959"><ele>520.0</ele><time>2026-04-04T10:46:03.593Z</time></trkpt><trkpt lat="39.7445339" lon="-0.7735082"><ele>520.0</ele><time>2026-04-04T10:46:06.592Z</time></trkpt><trkpt lat="39.7444785" lon="-0.7734051"><ele>520.0</ele><time>2026-04-04T10:48:25.591Z</time></trkpt><trkpt lat="39.7444395" lon="-0.7733228"><ele>520.0</ele><time>2026-04-04T10:48:27.591Z</time></trkpt><trkpt lat="39.7443971" lon="-0.7732395"><ele>522.8</ele><time>2026-04-04T10:48:29.591Z</time></trkpt><trkpt lat="39.7443501" lon="-0.7730982"><ele>525.6</ele><time>2026-04-04T10:48:31.591Z</time></trkpt><trkpt lat="39.7443457" lon="-0.7729601"><ele>528.4</ele><time>2026-04-04T10:48:33.591Z</time></trkpt><trkpt lat="39.7443432" lon="-0.7728689"><ele>531.2</ele><time>2026-04-04T10:48:34.59Z</time></trkpt><trkpt lat="39.7443434" lon="-0.7727821"><ele>534.0</ele><time>2026-04-04T10:48:35.592Z</time></trkpt><trkpt lat="39.7443273" lon="-0.772648"><ele>534.6</ele><time>2026-04-04T10:48:37.592Z</time></trkpt><trkpt lat="39.7443306" lon="-0.7725166"><ele>535.2</ele><time>2026-04-04T10:48:39.592Z</time></trkpt><trkpt lat="39.7443372" lon="-0.7724332"><ele>535.8000000000001</ele><time>2026-04-04T10:48:40.591Z</time></trkpt><trkpt lat="39.7443182" lon="-0.7722906"><ele>536.4</ele><time>2026-04-04T10:48:42.592Z</time></trkpt><trkpt lat="39.7442719" lon="-0.7721718"><ele>537.0</ele><time>2026-04-04T10:48:44.591Z</time></trkpt><trkpt lat="39.7442216" lon="-0.7720647"><ele>537.0</ele><time>2026-04-04T10:48:46.591Z</time></trkpt><trkpt lat="39.7441772" lon="-0.7719992"><ele>537.0</ele><time>2026-04-04T10:48:48.591Z</time></trkpt><trkpt lat="39.7441274" lon="-0.7718585"><ele>537.0</ele><time>2026-04-04T10:48:51.592Z</time></trkpt><trkpt lat="39.7440518" lon="-0.7717434"><ele>537.0</ele><time>2026-04-04T10:48:53.591Z</time></trkpt><trkpt lat="39.7440007" lon="-0.7716892"><ele>537.0</ele><time>2026-04-04T10:48:54.59Z</time></trkpt><trkpt lat="39.7439309" lon="-0.7715285"><ele>536.8333333333334</ele><time>2026-04-04T10:48:56.592Z</time></trkpt><trkpt lat="39.7438925" lon="-0.77146"><ele>536.6666666666666</ele><time>2026-04-04T10:48:57.59Z</time></trkpt><trkpt lat="39.7438639" lon="-0.7713866"><ele>536.5</ele><time>2026-04-04T10:48:58.59Z</time></trkpt><trkpt lat="39.7438315" lon="-0.7712203"><ele>536.3333333333333</ele><time>2026-04-04T10:49:00.59Z</time></trkpt><trkpt lat="39.7438241" lon="-0.7711121"><ele>536.1666666666666</ele><time>2026-04-04T10:49:01.591Z</time></trkpt><trkpt lat="39.7438208" lon="-0.7710079"><ele>536.0</ele><time>2026-04-04T10:49:02.59Z</time></trkpt><trkpt lat="39.7438145" lon="-0.7709107"><ele>536.0</ele><time>2026-04-04T10:49:03.59Z</time></trkpt><trkpt lat="39.7437689" lon="-0.7707668"><ele>536.0</ele><time>2026-04-04T10:49:05.591Z</time></trkpt><trkpt lat="39.7437184" lon="-0.7706308"><ele>536.0</ele><time>2026-04-04T10:49:07.591Z</time></trkpt><trkpt lat="39.7436747" lon="-0.7705562"><ele>536.0</ele><time>2026-04-04T10:49:09.59Z</time></trkpt><trkpt lat="39.7436117" lon="-0.7704654"><ele>536.0</ele><time>2026-04-04T10:49:11.591Z</time></trkpt><trkpt lat="39.743564" lon="-0.7703831"><ele>537.0</ele><time>2026-04-04T10:49:12.59Z</time></trkpt><trkpt lat="39.743524" lon="-0.7703049"><ele>538.0</ele><time>2026-04-04T10:49:13.591Z</time></trkpt><trkpt lat="39.7434666" lon="-0.7702122"><ele>539.0</ele><time>2026-04-04T10:49:14.592Z</time></trkpt><trkpt lat="39.7434197" lon="-0.7701376"><ele>540.0</ele><time>2026-04-04T10:49:15.591Z</time></trkpt><trkpt lat="39.7433494" lon="-0.7700534"><ele>541.0</ele><time>2026-04-04T10:49:17.591Z</time></trkpt><trkpt lat="39.7432649" lon="-0.7700668"><ele>542.0</ele><time>2026-04-04T10:49:19.59Z</time></trkpt><trkpt lat="39.7432061" lon="-0.7701399"><ele>542.0</ele><time>2026-04-04T10:49:21.591Z</time></trkpt><trkpt lat="39.7431446" lon="-0.7702245"><ele>542.0</ele><time>2026-04-04T10:49:23.591Z</time></trkpt><trkpt lat="39.7430887" lon="-0.7702624"><ele>542.0</ele><time>2026-04-04T10:49:24.591Z</time></trkpt><trkpt lat="39.7429986" lon="-0.7702703"><ele>542.0</ele><time>2026-04-04T10:49:26.591Z</time></trkpt><trkpt lat="39.742883" lon="-0.7702432"><ele>542.0</ele><time>2026-04-04T10:49:28.59Z</time></trkpt><trkpt lat="39.7427741" lon="-0.7701785"><ele>543.0</ele><time>2026-04-04T10:49:30.591Z</time></trkpt><trkpt lat="39.7426697" lon="-0.7700793"><ele>544.0</ele><time>2026-04-04T10:49:32.592Z</time></trkpt><trkpt lat="39.7426225" lon="-0.7700188"><ele>545.0</ele><time>2026-04-04T10:49:33.591Z</time></trkpt><trkpt lat="39.7425738" lon="-0.76996"><ele>546.0</ele><time>2026-04-04T10:49:34.59Z</time></trkpt><trkpt lat="39.7425385" lon="-0.7698899"><ele>547.0</ele><time>2026-04-04T10:49:35.59Z</time></trkpt><trkpt lat="39.7424682" lon="-0.7697675"><ele>548.0</ele><time>2026-04-04T10:49:37.59Z</time></trkpt><trkpt lat="39.7423896" lon="-0.7696472"><ele>548.0</ele><time>2026-04-04T10:49:39.591Z</time></trkpt><trkpt lat="39.7423514" lon="-0.7695819"><ele>548.0</ele><time>2026-04-04T10:49:40.591Z</time></trkpt><trkpt lat="39.742321" lon="-0.7695038"><ele>548.0</ele><time>2026-04-04T10:49:41.589Z</time></trkpt><trkpt lat="39.7422861" lon="-0.7694221"><ele>548.0</ele><time>2026-04-04T10:49:42.59Z</time></trkpt><trkpt lat="39.7422677" lon="-0.7693416"><ele>548.0</ele><time>2026-04-04T10:49:43.592Z</time></trkpt><trkpt lat="39.7422401" lon="-0.7691998"><ele>548.0</ele><time>2026-04-04T10:49:45.59Z</time></trkpt><trkpt lat="39.7422114" lon="-0.7690618"><ele>549.3333333333333</ele><time>2026-04-04T10:49:47.591Z</time></trkpt><trkpt lat="39.7422214" lon="-0.7689545"><ele>550.6666666666666</ele><time>2026-04-04T10:49:49.59Z</time></trkpt><trkpt lat="39.7422075" lon="-0.7688554"><ele>552.0</ele><time>2026-04-04T10:49:51.592Z</time></trkpt><trkpt lat="39.7421302" lon="-0.7687799"><ele>553.3333333333334</ele><time>2026-04-04T10:49:53.592Z</time></trkpt><trkpt lat="39.7420677" lon="-0.7687088"><ele>554.6666666666667</ele><time>2026-04-04T10:49:55.591Z</time></trkpt><trkpt lat="39.7419847" lon="-0.7686216"><ele>556.0</ele><time>2026-04-04T10:49:57.591Z</time></trkpt><trkpt lat="39.7419321" lon="-0.768557"><ele>556.8333333333334</ele><time>2026-04-04T10:49:58.591Z</time></trkpt><trkpt lat="39.7418786" lon="-0.768482"><ele>557.6666666666667</ele><time>2026-04-04T10:49:59.591Z</time></trkpt><trkpt lat="39.7418203" lon="-0.76843"><ele>558.5</ele><time>2026-04-04T10:50:00.59Z</time></trkpt><trkpt lat="39.7417472" lon="-0.7683731"><ele>559.3333333333334</ele><time>2026-04-04T10:50:01.592Z</time></trkpt><trkpt lat="39.741682" lon="-0.7683325"><ele>560.1666666666666</ele><time>2026-04-04T10:50:02.589Z</time></trkpt><trkpt lat="39.7415647" lon="-0.7682408"><ele>561.0</ele><time>2026-04-04T10:50:04.591Z</time></trkpt><trkpt lat="39.7415013" lon="-0.7681779"><ele>561.0</ele><time>2026-04-04T10:50:05.591Z</time></trkpt><trkpt lat="39.7414625" lon="-0.768084"><ele>561.0</ele><time>2026-04-04T10:50:07.591Z</time></trkpt><trkpt lat="39.741443" lon="-0.7679865"><ele>561.0</ele><time>2026-04-04T10:50:09.591Z</time></trkpt><trkpt lat="39.7414119" lon="-0.7678755"><ele>561.0</ele><time>2026-04-04T10:50:11.591Z</time></trkpt><trkpt lat="39.7413309" lon="-0.7677842"><ele>561.0</ele><time>2026-04-04T10:50:13.591Z</time></trkpt><trkpt lat="39.7412736" lon="-0.7677114"><ele>561.0</ele><time>2026-04-04T10:50:16.589Z</time></trkpt><trkpt lat="39.741218" lon="-0.767657"><ele>562.5</ele><time>2026-04-04T10:50:23.592Z</time></trkpt><trkpt lat="39.7411472" lon="-0.7675668"><ele>564.0</ele><time>2026-04-04T10:50:25.59Z</time></trkpt><trkpt lat="39.7411064" lon="-0.7675039"><ele>565.5</ele><time>2026-04-04T10:50:26.59Z</time></trkpt><trkpt lat="39.7410563" lon="-0.7674475"><ele>567.0</ele><time>2026-04-04T10:50:27.591Z</time></trkpt><trkpt lat="39.7410008" lon="-0.7673916"><ele>568.5</ele><time>2026-04-04T10:50:28.591Z</time></trkpt><trkpt lat="39.7409407" lon="-0.767341"><ele>570.0</ele><time>2026-04-04T10:50:29.591Z</time></trkpt><trkpt lat="39.7408383" lon="-0.7672867"><ele>570.0</ele><time>2026-04-04T10:50:31.589Z</time></trkpt><trkpt lat="39.7407522" lon="-0.7672231"><ele>570.0</ele><time>2026-04-04T10:50:33.591Z</time></trkpt><trkpt lat="39.7406997" lon="-0.7671326"><ele>570.0</ele><time>2026-04-04T10:50:36.59Z</time></trkpt><trkpt lat="39.7406384" lon="-0.7670681"><ele>570.0</ele><time>2026-04-04T10:50:40.59Z</time></trkpt><trkpt lat="39.740566" lon="-0.7670149"><ele>570.0</ele><time>2026-04-04T10:50:43.592Z</time></trkpt><trkpt lat="39.7404838" lon="-0.7669915"><ele>570.0</ele><time>2026-04-04T10:50:46.592Z</time></trkpt><trkpt lat="39.740407" lon="-0.7669809"><ele>570.0</ele><time>2026-04-04T10:50:49.591Z</time></trkpt><trkpt lat="39.7403471" lon="-0.7668796"><ele>570.0</ele><time>2026-04-04T10:51:02.592Z</time></trkpt><trkpt lat="39.740275" lon="-0.7668859"><ele>570.0</ele><time>2026-04-04T10:51:07.59Z</time></trkpt><trkpt lat="39.7402142" lon="-0.7669343"><ele>570.0</ele><time>2026-04-04T10:51:10.59Z</time></trkpt><trkpt lat="39.7401342" lon="-0.7669451"><ele>570.0</ele><time>2026-04-04T10:51:13.591Z</time></trkpt><trkpt lat="39.7400664" lon="-0.7669666"><ele>570.0</ele><time>2026-04-04T10:51:16.59Z</time></trkpt><trkpt lat="39.7399755" lon="-0.7670138"><ele>568.1666666666666</ele><time>2026-04-04T10:51:19.591Z</time></trkpt><trkpt lat="39.7398839" lon="-0.76701"><ele>566.3333333333334</ele><time>2026-04-04T10:51:21.591Z</time></trkpt><trkpt lat="39.7397871" lon="-0.7670017"><ele>564.5</ele><time>2026-04-04T10:51:23.591Z</time></trkpt><trkpt lat="39.7397156" lon="-0.7670164"><ele>562.6666666666667</ele><time>2026-04-04T10:51:25.59Z</time></trkpt><trkpt lat="39.7396295" lon="-0.7670335"><ele>560.8333333333334</ele><time>2026-04-04T10:51:28.589Z</time></trkpt><trkpt lat="39.7395354" lon="-0.767037"><ele>559.0</ele><time>2026-04-04T10:51:31.59Z</time></trkpt><trkpt lat="39.7394668" lon="-0.7670591"><ele>559.0</ele><time>2026-04-04T10:51:33.59Z</time></trkpt><trkpt lat="39.7394064" lon="-0.7670959"><ele>559.0</ele><time>2026-04-04T10:51:35.59Z</time></trkpt><trkpt lat="39.7393234" lon="-0.7671453"><ele>559.0</ele><time>2026-04-04T10:51:38.59Z</time></trkpt><trkpt lat="39.7392368" lon="-0.7671932"><ele>559.0</ele><time>2026-04-04T10:51:41.591Z</time></trkpt><trkpt lat="39.7391693" lon="-0.7672426"><ele>559.0</ele><time>2026-04-04T10:51:43.59Z</time></trkpt><trkpt lat="39.7391033" lon="-0.7673048"><ele>559.0</ele><time>2026-04-04T10:51:45.592Z</time></trkpt><trkpt lat="39.7390281" lon="-0.7673403"><ele>555.2</ele><time>2026-04-04T10:51:47.591Z</time></trkpt><trkpt lat="39.7389283" lon="-0.7673695"><ele>551.4</ele><time>2026-04-04T10:51:49.591Z</time></trkpt><trkpt lat="39.7388091" lon="-0.7673847"><ele>547.6</ele><time>2026-04-04T10:51:51.591Z</time></trkpt><trkpt lat="39.7387109" lon="-0.7673566"><ele>543.8</ele><time>2026-04-04T10:51:53.589Z</time></trkpt><trkpt lat="39.7386347" lon="-0.7672984"><ele>540.0</ele><time>2026-04-04T10:51:55.591Z</time></trkpt><trkpt lat="39.7385441" lon="-0.7672054"><ele>539.1666666666666</ele><time>2026-04-04T10:51:56.59Z</time></trkpt><trkpt lat="39.7384842" lon="-0.7671598"><ele>538.3333333333334</ele><time>2026-04-04T10:51:57.589Z</time></trkpt><trkpt lat="39.7384243" lon="-0.7671081"><ele>537.5</ele><time>2026-04-04T10:51:58.591Z</time></trkpt><trkpt lat="39.7383739" lon="-0.767058"><ele>536.6666666666667</ele><time>2026-04-04T10:51:59.592Z</time></trkpt><trkpt lat="39.7383016" lon="-0.7669377"><ele>535.8333333333334</ele><time>2026-04-04T10:52:01.592Z</time></trkpt><trkpt lat="39.7382318" lon="-0.7668258"><ele>535.0</ele><time>2026-04-04T10:52:03.592Z</time></trkpt><trkpt lat="39.738202" lon="-0.7667503"><ele>533.4285714285714</ele><time>2026-04-04T10:52:04.59Z</time></trkpt><trkpt lat="39.738176" lon="-0.7666668"><ele>531.8571428571429</ele><time>2026-04-04T10:52:05.591Z</time></trkpt><trkpt lat="39.7381414" lon="-0.7665679"><ele>530.2857142857143</ele><time>2026-04-04T10:52:06.59Z</time></trkpt><trkpt lat="39.7381143" lon="-0.7664796"><ele>528.7142857142858</ele><time>2026-04-04T10:52:07.591Z</time></trkpt><trkpt lat="39.7380849" lon="-0.7664006"><ele>527.1428571428572</ele><time>2026-04-04T10:52:08.59Z</time></trkpt><trkpt lat="39.7380575" lon="-0.7663119"><ele>525.5714285714286</ele><time>2026-04-04T10:52:09.59Z</time></trkpt><trkpt lat="39.7380315" lon="-0.7662258"><ele>524.0</ele><time>2026-04-04T10:52:10.591Z</time></trkpt><trkpt lat="39.7380089" lon="-0.7661305"><ele>522.2</ele><time>2026-04-04T10:52:11.59Z</time></trkpt><trkpt lat="39.7379707" lon="-0.765984"><ele>520.4</ele><time>2026-04-04T10:52:13.591Z</time></trkpt><trkpt lat="39.7379499" lon="-0.7658477"><ele>518.6</ele><time>2026-04-04T10:52:15.592Z</time></trkpt><trkpt lat="39.7379436" lon="-0.7657436"><ele>516.8</ele><time>2026-04-04T10:52:17.591Z</time></trkpt><trkpt lat="39.7379165" lon="-0.765623"><ele>515.0</ele><time>2026-04-04T10:52:19.592Z</time></trkpt><trkpt lat="39.7379249" lon="-0.7655317"><ele>515.0</ele><time>2026-04-04T10:52:21.591Z</time></trkpt><trkpt lat="39.7378882" lon="-0.7654633"><ele>515.0</ele><time>2026-04-04T10:52:23.591Z</time></trkpt><trkpt lat="39.7377806" lon="-0.7653834"><ele>515.0</ele><time>2026-04-04T10:52:25.591Z</time></trkpt><trkpt lat="39.7376982" lon="-0.7653419"><ele>515.0</ele><time>2026-04-04T10:52:26.592Z</time></trkpt><trkpt lat="39.7376134" lon="-0.7652709"><ele>515.0</ele><time>2026-04-04T10:52:27.591Z</time></trkpt><trkpt lat="39.7375228" lon="-0.765192"><ele>513.3333333333333</ele><time>2026-04-04T10:52:28.59Z</time></trkpt><trkpt lat="39.7374389" lon="-0.7651144"><ele>511.66666666666663</ele><time>2026-04-04T10:52:29.591Z</time></trkpt><trkpt lat="39.7373718" lon="-0.7650555"><ele>510.0</ele><time>2026-04-04T10:52:30.591Z</time></trkpt><trkpt lat="39.7373068" lon="-0.7650094"><ele>508.33333333333337</ele><time>2026-04-04T10:52:31.591Z</time></trkpt><trkpt lat="39.7372443" lon="-0.7649745"><ele>506.6666666666667</ele><time>2026-04-04T10:52:32.591Z</time></trkpt><trkpt lat="39.7371578" lon="-0.7649088"><ele>505.0</ele><time>2026-04-04T10:52:34.59Z</time></trkpt><trkpt lat="39.737103" lon="-0.7648613"><ele>505.0</ele><time>2026-04-04T10:52:41.591Z</time></trkpt><trkpt lat="39.7370193" lon="-0.7647745"><ele>505.0</ele><time>2026-04-04T10:52:43.589Z</time></trkpt><trkpt lat="39.7369256" lon="-0.7646555"><ele>505.0</ele><time>2026-04-04T10:52:45.591Z</time></trkpt><trkpt lat="39.7368374" lon="-0.7645236"><ele>505.0</ele><time>2026-04-04T10:52:47.591Z</time></trkpt><trkpt lat="39.736738" lon="-0.7644397"><ele>503.6</ele><time>2026-04-04T10:52:49.59Z</time></trkpt><trkpt lat="39.7366813" lon="-0.7643977"><ele>502.2</ele><time>2026-04-04T10:52:50.59Z</time></trkpt><trkpt lat="39.7365848" lon="-0.764314"><ele>500.79999999999995</ele><time>2026-04-04T10:52:52.59Z</time></trkpt><trkpt lat="39.7364824" lon="-0.7642444"><ele>499.4</ele><time>2026-04-04T10:52:54.589Z</time></trkpt><trkpt lat="39.7363793" lon="-0.7641871"><ele>498.0</ele><time>2026-04-04T10:52:56.59Z</time></trkpt><trkpt lat="39.7362401" lon="-0.7641774"><ele>498.0</ele><time>2026-04-04T10:52:58.59Z</time></trkpt><trkpt lat="39.7361453" lon="-0.7641796"><ele>497.99999999999994</ele><time>2026-04-04T10:52:59.591Z</time></trkpt><trkpt lat="39.7360558" lon="-0.7641867"><ele>497.99999999999994</ele><time>2026-04-04T10:53:00.59Z</time></trkpt><trkpt lat="39.7359676" lon="-0.7641978"><ele>498.0</ele><time>2026-04-04T10:53:01.59Z</time></trkpt><trkpt lat="39.7358806" lon="-0.7642015"><ele>498.0</ele><time>2026-04-04T10:53:02.59Z</time></trkpt><trkpt lat="39.73578" lon="-0.764192"><ele>496.2</ele><time>2026-04-04T10:53:03.59Z</time></trkpt><trkpt lat="39.7356842" lon="-0.7641859"><ele>494.4</ele><time>2026-04-04T10:53:04.589Z</time></trkpt><trkpt lat="39.7355856" lon="-0.7641713"><ele>492.59999999999997</ele><time>2026-04-04T10:53:05.59Z</time></trkpt><trkpt lat="39.7354918" lon="-0.7641556"><ele>490.79999999999995</ele><time>2026-04-04T10:53:06.59Z</time></trkpt><trkpt lat="39.7353932" lon="-0.7641463"><ele>489.0</ele><time>2026-04-04T10:53:07.59Z</time></trkpt><trkpt lat="39.7353002" lon="-0.764145"><ele>488.0</ele><time>2026-04-04T10:53:08.59Z</time></trkpt><trkpt lat="39.7352112" lon="-0.7641341"><ele>487.0</ele><time>2026-04-04T10:53:09.59Z</time></trkpt><trkpt lat="39.7351095" lon="-0.7641155"><ele>486.0</ele><time>2026-04-04T10:53:10.591Z</time></trkpt><trkpt lat="39.7350055" lon="-0.764103"><ele>485.0</ele><time>2026-04-04T10:53:11.59Z</time></trkpt><trkpt lat="39.7348921" lon="-0.7640844"><ele>484.0</ele><time>2026-04-04T10:53:12.591Z</time></trkpt><trkpt lat="39.7347863" lon="-0.7640687"><ele>484.0</ele><time>2026-04-04T10:53:13.59Z</time></trkpt><trkpt lat="39.7346876" lon="-0.7640474"><ele>484.0</ele><time>2026-04-04T10:53:14.59Z</time></trkpt><trkpt lat="39.7345734" lon="-0.7640222"><ele>484.0</ele><time>2026-04-04T10:53:15.59Z</time></trkpt><trkpt lat="39.7344634" lon="-0.7640114"><ele>484.0</ele><time>2026-04-04T10:53:16.59Z</time></trkpt><trkpt lat="39.7343568" lon="-0.7639992"><ele>484.0</ele><time>2026-04-04T10:53:17.59Z</time></trkpt><trkpt lat="39.7342465" lon="-0.7639835"><ele>482.79999999999995</ele><time>2026-04-04T10:53:18.59Z</time></trkpt><trkpt lat="39.7341439" lon="-0.7639685"><ele>481.59999999999997</ele><time>2026-04-04T10:53:19.593Z</time></trkpt><trkpt lat="39.7340425" lon="-0.7639567"><ele>480.4</ele><time>2026-04-04T10:53:20.59Z</time></trkpt><trkpt lat="39.733936" lon="-0.7639489"><ele>479.2</ele><time>2026-04-04T10:53:21.59Z</time></trkpt><trkpt lat="39.7338379" lon="-0.7639303"><ele>478.0</ele><time>2026-04-04T10:53:22.589Z</time></trkpt><trkpt lat="39.7337387" lon="-0.7639082"><ele>478.0</ele><time>2026-04-04T10:53:23.59Z</time></trkpt><trkpt lat="39.733634" lon="-0.7638862"><ele>477.99999999999994</ele><time>2026-04-04T10:53:24.591Z</time></trkpt><trkpt lat="39.7335261" lon="-0.7638706"><ele>477.99999999999994</ele><time>2026-04-04T10:53:25.591Z</time></trkpt><trkpt lat="39.7334272" lon="-0.7638609"><ele>478.0</ele><time>2026-04-04T10:53:26.59Z</time></trkpt><trkpt lat="39.7333314" lon="-0.7638555"><ele>478.0</ele><time>2026-04-04T10:53:27.59Z</time></trkpt><trkpt lat="39.7332313" lon="-0.7638457"><ele>477.0</ele><time>2026-04-04T10:53:28.589Z</time></trkpt><trkpt lat="39.7331233" lon="-0.7638374"><ele>475.99999999999994</ele><time>2026-04-04T10:53:29.59Z</time></trkpt><trkpt lat="39.7330245" lon="-0.7638269"><ele>474.99999999999994</ele><time>2026-04-04T10:53:30.59Z</time></trkpt><trkpt lat="39.7329229" lon="-0.7638095"><ele>474.0</ele><time>2026-04-04T10:53:31.589Z</time></trkpt><trkpt lat="39.7328005" lon="-0.7637881"><ele>473.0</ele><time>2026-04-04T10:53:33.59Z</time></trkpt><trkpt lat="39.7327111" lon="-0.7637574"><ele>472.2</ele><time>2026-04-04T10:53:35.591Z</time></trkpt><trkpt lat="39.7326717" lon="-0.7636665"><ele>471.4</ele><time>2026-04-04T10:53:37.59Z</time></trkpt><trkpt lat="39.7326757" lon="-0.7635724"><ele>470.59999999999997</ele><time>2026-04-04T10:53:38.59Z</time></trkpt><trkpt lat="39.7326868" lon="-0.763462"><ele>469.79999999999995</ele><time>2026-04-04T10:53:39.59Z</time></trkpt><trkpt lat="39.7327067" lon="-0.7633135"><ele>469.0</ele><time>2026-04-04T10:53:40.589Z</time></trkpt><trkpt lat="39.7327273" lon="-0.7631583"><ele>469.0</ele><time>2026-04-04T10:53:41.59Z</time></trkpt><trkpt lat="39.7327477" lon="-0.7629886"><ele>469.0</ele><time>2026-04-04T10:53:42.589Z</time></trkpt><trkpt lat="39.7327709" lon="-0.762827"><ele>469.0</ele><time>2026-04-04T10:53:43.589Z</time></trkpt><trkpt lat="39.7328083" lon="-0.7626652"><ele>469.0</ele><time>2026-04-04T10:53:44.591Z</time></trkpt><trkpt lat="39.7328424" lon="-0.7624897"><ele>468.75</ele><time>2026-04-04T10:53:45.59Z</time></trkpt><trkpt lat="39.7328805" lon="-0.7623109"><ele>468.5</ele><time>2026-04-04T10:53:46.589Z</time></trkpt><trkpt lat="39.7329222" lon="-0.762131"><ele>468.25</ele><time>2026-04-04T10:53:47.59Z</time></trkpt><trkpt lat="39.7329575" lon="-0.7619606"><ele>468.0</ele><time>2026-04-04T10:53:48.591Z</time></trkpt><trkpt lat="39.7329837" lon="-0.7618039"><ele>466.5</ele><time>2026-04-04T10:53:49.591Z</time></trkpt><trkpt lat="39.7330116" lon="-0.7616601"><ele>465.0</ele><time>2026-04-04T10:53:50.589Z</time></trkpt><trkpt lat="39.7330298" lon="-0.7615146"><ele>463.5</ele><time>2026-04-04T10:53:51.59Z</time></trkpt><trkpt lat="39.7330399" lon="-0.761374"><ele>462.0</ele><time>2026-04-04T10:53:52.59Z</time></trkpt><trkpt lat="39.7330346" lon="-0.7612265"><ele>462.0</ele><time>2026-04-04T10:53:53.59Z</time></trkpt><trkpt lat="39.7330228" lon="-0.7610692"><ele>462.0</ele><time>2026-04-04T10:53:54.589Z</time></trkpt><trkpt lat="39.733002" lon="-0.7608974"><ele>462.0</ele><time>2026-04-04T10:53:55.591Z</time></trkpt><trkpt lat="39.732985" lon="-0.7607298"><ele>462.0</ele><time>2026-04-04T10:53:56.59Z</time></trkpt><trkpt lat="39.7329644" lon="-0.7605647"><ele>461.5</ele><time>2026-04-04T10:53:57.591Z</time></trkpt><trkpt lat="39.732945" lon="-0.7603982"><ele>461.0</ele><time>2026-04-04T10:53:58.59Z</time></trkpt><trkpt lat="39.7329084" lon="-0.760229"><ele>460.5</ele><time>2026-04-04T10:53:59.589Z</time></trkpt><trkpt lat="39.7328763" lon="-0.7600837"><ele>460.0</ele><time>2026-04-04T10:54:00.59Z</time></trkpt><trkpt lat="39.732852" lon="-0.7599719"><ele>459.6666666666667</ele><time>2026-04-04T10:54:01.591Z</time></trkpt><trkpt lat="39.7328265" lon="-0.7598824"><ele>459.33333333333337</ele><time>2026-04-04T10:54:02.589Z</time></trkpt><trkpt lat="39.7327913" lon="-0.7598015"><ele>459.0</ele><time>2026-04-04T10:54:03.59Z</time></trkpt><trkpt lat="39.7327656" lon="-0.7597191"><ele>458.66666666666663</ele><time>2026-04-04T10:54:04.59Z</time></trkpt><trkpt lat="39.7327451" lon="-0.7596351"><ele>458.3333333333333</ele><time>2026-04-04T10:54:05.589Z</time></trkpt><trkpt lat="39.7327035" lon="-0.7595131"><ele>458.0</ele><time>2026-04-04T10:54:07.591Z</time></trkpt><trkpt lat="39.7326216" lon="-0.7594501"><ele>457.75</ele><time>2026-04-04T10:54:09.589Z</time></trkpt><trkpt lat="39.7325367" lon="-0.7594328"><ele>457.5</ele><time>2026-04-04T10:54:10.589Z</time></trkpt><trkpt lat="39.7324318" lon="-0.7594253"><ele>457.25</ele><time>2026-04-04T10:54:11.59Z</time></trkpt><trkpt lat="39.7323113" lon="-0.7594128"><ele>457.0</ele><time>2026-04-04T10:54:12.588Z</time></trkpt><trkpt lat="39.732171" lon="-0.7593875"><ele>456.33333333333337</ele><time>2026-04-04T10:54:13.59Z</time></trkpt><trkpt lat="39.7320148" lon="-0.7593486"><ele>455.66666666666663</ele><time>2026-04-04T10:54:14.59Z</time></trkpt><trkpt lat="39.7318432" lon="-0.7593165"><ele>455.0</ele><time>2026-04-04T10:54:15.591Z</time></trkpt><trkpt lat="39.7316673" lon="-0.759278"><ele>455.0</ele><time>2026-04-04T10:54:16.591Z</time></trkpt><trkpt lat="39.7314845" lon="-0.7592419"><ele>455.0</ele><time>2026-04-04T10:54:17.59Z</time></trkpt><trkpt lat="39.7313023" lon="-0.7592057"><ele>455.0</ele><time>2026-04-04T10:54:18.59Z</time></trkpt><trkpt lat="39.7311382" lon="-0.7591728"><ele>454.0</ele><time>2026-04-04T10:54:19.59Z</time></trkpt><trkpt lat="39.7309865" lon="-0.7591445"><ele>453.0</ele><time>2026-04-04T10:54:20.59Z</time></trkpt><trkpt lat="39.7308481" lon="-0.7591187"><ele>452.0</ele><time>2026-04-04T10:54:21.589Z</time></trkpt><trkpt lat="39.7307228" lon="-0.7591013"><ele>451.0</ele><time>2026-04-04T10:54:22.59Z</time></trkpt><trkpt lat="39.7305978" lon="-0.7590942"><ele>451.00000000000006</ele><time>2026-04-04T10:54:23.589Z</time></trkpt><trkpt lat="39.7304845" lon="-0.7590925"><ele>451.0</ele><time>2026-04-04T10:54:24.591Z</time></trkpt><trkpt lat="39.730384" lon="-0.759082"><ele>451.0</ele><time>2026-04-04T10:54:25.591Z</time></trkpt><trkpt lat="39.7302977" lon="-0.7590612"><ele>451.0</ele><time>2026-04-04T10:54:26.589Z</time></trkpt><trkpt lat="39.7302295" lon="-0.7590302"><ele>451.00000000000006</ele><time>2026-04-04T10:54:27.589Z</time></trkpt><trkpt lat="39.7301723" lon="-0.7589843"><ele>451.0</ele><time>2026-04-04T10:54:28.59Z</time></trkpt><trkpt lat="39.7301097" lon="-0.7589139"><ele>450.6</ele><time>2026-04-04T10:54:29.59Z</time></trkpt><trkpt lat="39.7300466" lon="-0.7588205"><ele>450.20000000000005</ele><time>2026-04-04T10:54:30.591Z</time></trkpt><trkpt lat="39.7299791" lon="-0.7587128"><ele>449.79999999999995</ele><time>2026-04-04T10:54:31.59Z</time></trkpt><trkpt lat="39.7299014" lon="-0.7586106"><ele>449.4</ele><time>2026-04-04T10:54:32.59Z</time></trkpt><trkpt lat="39.7298199" lon="-0.758521"><ele>449.0</ele><time>2026-04-04T10:54:33.59Z</time></trkpt><trkpt lat="39.7297369" lon="-0.7584378"><ele>449.0</ele><time>2026-04-04T10:54:34.589Z</time></trkpt><trkpt lat="39.7296523" lon="-0.7583551"><ele>449.0</ele><time>2026-04-04T10:54:35.589Z</time></trkpt><trkpt lat="39.7295741" lon="-0.7582594"><ele>449.0</ele><time>2026-04-04T10:54:36.59Z</time></trkpt><trkpt lat="39.7295098" lon="-0.758161"><ele>449.0</ele><time>2026-04-04T10:54:37.59Z</time></trkpt><trkpt lat="39.7294547" lon="-0.7580492"><ele>449.0</ele><time>2026-04-04T10:54:38.588Z</time></trkpt><trkpt lat="39.7293979" lon="-0.757945"><ele>447.5</ele><time>2026-04-04T10:54:39.589Z</time></trkpt><trkpt lat="39.7293398" lon="-0.7578354"><ele>446.0</ele><time>2026-04-04T10:54:40.59Z</time></trkpt><trkpt lat="39.7292933" lon="-0.7577063"><ele>444.5</ele><time>2026-04-04T10:54:41.589Z</time></trkpt><trkpt lat="39.7292486" lon="-0.7575585"><ele>443.0</ele><time>2026-04-04T10:54:42.59Z</time></trkpt><trkpt lat="39.7292049" lon="-0.7574145"><ele>443.0</ele><time>2026-04-04T10:54:43.59Z</time></trkpt><trkpt lat="39.7291741" lon="-0.7572775"><ele>443.0</ele><time>2026-04-04T10:54:44.59Z</time></trkpt><trkpt lat="39.7291466" lon="-0.7571264"><ele>443.0</ele><time>2026-04-04T10:54:45.59Z</time></trkpt><trkpt lat="39.7291308" lon="-0.7569712"><ele>443.0</ele><time>2026-04-04T10:54:46.589Z</time></trkpt><trkpt lat="39.7291195" lon="-0.7568046"><ele>443.25</ele><time>2026-04-04T10:54:47.59Z</time></trkpt><trkpt lat="39.7291055" lon="-0.7566469"><ele>443.5</ele><time>2026-04-04T10:54:48.59Z</time></trkpt><trkpt lat="39.7290904" lon="-0.7564859"><ele>443.75</ele><time>2026-04-04T10:54:49.59Z</time></trkpt><trkpt lat="39.7290715" lon="-0.7563334"><ele>444.0</ele><time>2026-04-04T10:54:50.591Z</time></trkpt><trkpt lat="39.7290334" lon="-0.756183"><ele>443.79999999999995</ele><time>2026-04-04T10:54:51.59Z</time></trkpt><trkpt lat="39.7289891" lon="-0.7560322"><ele>443.59999999999997</ele><time>2026-04-04T10:54:52.59Z</time></trkpt><trkpt lat="39.7289409" lon="-0.755897"><ele>443.4</ele><time>2026-04-04T10:54:53.59Z</time></trkpt><trkpt lat="39.7289055" lon="-0.7557722"><ele>443.2</ele><time>2026-04-04T10:54:54.589Z</time></trkpt><trkpt lat="39.7288795" lon="-0.7556496"><ele>443.0</ele><time>2026-04-04T10:54:55.589Z</time></trkpt><trkpt lat="39.7288341" lon="-0.7555219"><ele>443.0</ele><time>2026-04-04T10:54:56.59Z</time></trkpt><trkpt lat="39.7287675" lon="-0.7553924"><ele>443.0</ele><time>2026-04-04T10:54:57.591Z</time></trkpt><trkpt lat="39.728691" lon="-0.7552737"><ele>443.0</ele><time>2026-04-04T10:54:58.59Z</time></trkpt><trkpt lat="39.7286097" lon="-0.7551618"><ele>443.0</ele><time>2026-04-04T10:54:59.591Z</time></trkpt><trkpt lat="39.7285274" lon="-0.7550533"><ele>442.25</ele><time>2026-04-04T10:55:00.59Z</time></trkpt><trkpt lat="39.7284384" lon="-0.7549496"><ele>441.5</ele><time>2026-04-04T10:55:01.59Z</time></trkpt><trkpt lat="39.7283552" lon="-0.7548342"><ele>440.75</ele><time>2026-04-04T10:55:02.591Z</time></trkpt><trkpt lat="39.7282746" lon="-0.7547029"><ele>440.0</ele><time>2026-04-04T10:55:03.591Z</time></trkpt><trkpt lat="39.7282055" lon="-0.7545728"><ele>440.0</ele><time>2026-04-04T10:55:04.589Z</time></trkpt><trkpt lat="39.7281295" lon="-0.7544582"><ele>440.0</ele><time>2026-04-04T10:55:05.59Z</time></trkpt><trkpt lat="39.7280537" lon="-0.7543678"><ele>440.0</ele><time>2026-04-04T10:55:06.59Z</time></trkpt><trkpt lat="39.7279725" lon="-0.7542867"><ele>440.0</ele><time>2026-04-04T10:55:07.59Z</time></trkpt><trkpt lat="39.7278936" lon="-0.7542176"><ele>440.0</ele><time>2026-04-04T10:55:08.59Z</time></trkpt><trkpt lat="39.7278149" lon="-0.7541375"><ele>440.2</ele><time>2026-04-04T10:55:09.59Z</time></trkpt><trkpt lat="39.7277501" lon="-0.7540416"><ele>440.4</ele><time>2026-04-04T10:55:10.591Z</time></trkpt><trkpt lat="39.7276864" lon="-0.7539161"><ele>440.6</ele><time>2026-04-04T10:55:11.591Z</time></trkpt><trkpt lat="39.7276208" lon="-0.7537867"><ele>440.8</ele><time>2026-04-04T10:55:12.59Z</time></trkpt><trkpt lat="39.7275585" lon="-0.7536698"><ele>441.0</ele><time>2026-04-04T10:55:13.589Z</time></trkpt><trkpt lat="39.7274919" lon="-0.7535811"><ele>439.6</ele><time>2026-04-04T10:55:14.59Z</time></trkpt><trkpt lat="39.727419" lon="-0.7534998"><ele>438.20000000000005</ele><time>2026-04-04T10:55:15.59Z</time></trkpt><trkpt lat="39.7273426" lon="-0.7534216"><ele>436.79999999999995</ele><time>2026-04-04T10:55:16.59Z</time></trkpt><trkpt lat="39.7272719" lon="-0.7533418"><ele>435.4</ele><time>2026-04-04T10:55:17.591Z</time></trkpt><trkpt lat="39.7272179" lon="-0.7532457"><ele>434.0</ele><time>2026-04-04T10:55:18.589Z</time></trkpt><trkpt lat="39.7271745" lon="-0.753129"><ele>434.0</ele><time>2026-04-04T10:55:19.59Z</time></trkpt><trkpt lat="39.7271379" lon="-0.7529767"><ele>434.0</ele><time>2026-04-04T10:55:20.59Z</time></trkpt><trkpt lat="39.7271067" lon="-0.7528132"><ele>434.0</ele><time>2026-04-04T10:55:21.59Z</time></trkpt><trkpt lat="39.7270717" lon="-0.7526336"><ele>434.0</ele><time>2026-04-04T10:55:22.59Z</time></trkpt><trkpt lat="39.7270184" lon="-0.7524352"><ele>434.25</ele><time>2026-04-04T10:55:23.589Z</time></trkpt><trkpt lat="39.7269615" lon="-0.7522546"><ele>434.5</ele><time>2026-04-04T10:55:24.591Z</time></trkpt><trkpt lat="39.726909" lon="-0.7520991"><ele>434.75</ele><time>2026-04-04T10:55:25.588Z</time></trkpt><trkpt lat="39.7268577" lon="-0.7519672"><ele>435.0</ele><time>2026-04-04T10:55:26.59Z</time></trkpt><trkpt lat="39.7268138" lon="-0.7518517"><ele>433.8333333333333</ele><time>2026-04-04T10:55:27.59Z</time></trkpt><trkpt lat="39.7267774" lon="-0.751751"><ele>432.66666666666663</ele><time>2026-04-04T10:55:28.591Z</time></trkpt><trkpt lat="39.7267457" lon="-0.7516665"><ele>431.5</ele><time>2026-04-04T10:55:29.588Z</time></trkpt><trkpt lat="39.7267061" lon="-0.7515331"><ele>430.3333333333333</ele><time>2026-04-04T10:55:31.59Z</time></trkpt><trkpt lat="39.7266757" lon="-0.7514533"><ele>429.16666666666663</ele><time>2026-04-04T10:55:33.589Z</time></trkpt><trkpt lat="39.7266355" lon="-0.7513512"><ele>428.0</ele><time>2026-04-04T10:55:40.59Z</time></trkpt><trkpt lat="39.7265847" lon="-0.7511982"><ele>428.0</ele><time>2026-04-04T10:55:42.59Z</time></trkpt><trkpt lat="39.7265608" lon="-0.751107"><ele>427.99999999999994</ele><time>2026-04-04T10:55:43.59Z</time></trkpt><trkpt lat="39.726532" lon="-0.7510086"><ele>427.99999999999994</ele><time>2026-04-04T10:55:44.588Z</time></trkpt><trkpt lat="39.7265022" lon="-0.7508953"><ele>428.0</ele><time>2026-04-04T10:55:45.589Z</time></trkpt><trkpt lat="39.7264702" lon="-0.7507754"><ele>428.0</ele><time>2026-04-04T10:55:46.59Z</time></trkpt><trkpt lat="39.7264303" lon="-0.7506478"><ele>428.0</ele><time>2026-04-04T10:55:47.591Z</time></trkpt><trkpt lat="39.726387" lon="-0.7505207"><ele>427.99999999999994</ele><time>2026-04-04T10:55:48.589Z</time></trkpt><trkpt lat="39.7263379" lon="-0.7503932"><ele>427.99999999999994</ele><time>2026-04-04T10:55:49.589Z</time></trkpt><trkpt lat="39.7262855" lon="-0.7502616"><ele>428.0</ele><time>2026-04-04T10:55:50.59Z</time></trkpt><trkpt lat="39.7262314" lon="-0.7501308"><ele>428.0</ele><time>2026-04-04T10:55:51.589Z</time></trkpt><trkpt lat="39.7261667" lon="-0.7499883"><ele>427.75</ele><time>2026-04-04T10:55:52.589Z</time></trkpt><trkpt lat="39.7260956" lon="-0.749837"><ele>427.5</ele><time>2026-04-04T10:55:53.59Z</time></trkpt><trkpt lat="39.7260154" lon="-0.749674"><ele>427.25</ele><time>2026-04-04T10:55:54.588Z</time></trkpt><trkpt lat="39.7259452" lon="-0.7495222"><ele>427.0</ele><time>2026-04-04T10:55:55.59Z</time></trkpt><trkpt lat="39.7258847" lon="-0.7493873"><ele>426.25</ele><time>2026-04-04T10:55:56.591Z</time></trkpt><trkpt lat="39.7258177" lon="-0.7492523"><ele>425.5</ele><time>2026-04-04T10:55:57.591Z</time></trkpt><trkpt lat="39.7257504" lon="-0.7491164"><ele>424.75</ele><time>2026-04-04T10:55:58.59Z</time></trkpt><trkpt lat="39.7256803" lon="-0.7489843"><ele>424.0</ele><time>2026-04-04T10:55:59.59Z</time></trkpt><trkpt lat="39.725606" lon="-0.7488524"><ele>424.0</ele><time>2026-04-04T10:56:00.59Z</time></trkpt><trkpt lat="39.7255431" lon="-0.7487243"><ele>424.0</ele><time>2026-04-04T10:56:01.588Z</time></trkpt><trkpt lat="39.7254908" lon="-0.7485946"><ele>424.0</ele><time>2026-04-04T10:56:02.589Z</time></trkpt><trkpt lat="39.7254366" lon="-0.7484774"><ele>424.0</ele><time>2026-04-04T10:56:03.589Z</time></trkpt><trkpt lat="39.7253763" lon="-0.748369"><ele>424.0</ele><time>2026-04-04T10:56:04.589Z</time></trkpt><trkpt lat="39.7253126" lon="-0.7482598"><ele>424.0</ele><time>2026-04-04T10:56:05.59Z</time></trkpt><trkpt lat="39.7252376" lon="-0.7481572"><ele>424.0</ele><time>2026-04-04T10:56:06.589Z</time></trkpt><trkpt lat="39.7251502" lon="-0.7480491"><ele>424.0</ele><time>2026-04-04T10:56:07.589Z</time></trkpt><trkpt lat="39.7250607" lon="-0.7479173"><ele>424.0</ele><time>2026-04-04T10:56:08.591Z</time></trkpt><trkpt lat="39.7249819" lon="-0.7477764"><ele>423.2</ele><time>2026-04-04T10:56:09.591Z</time></trkpt><trkpt lat="39.7249099" lon="-0.747659"><ele>422.4</ele><time>2026-04-04T10:56:10.59Z</time></trkpt><trkpt lat="39.7248366" lon="-0.7475372"><ele>421.6</ele><time>2026-04-04T10:56:11.59Z</time></trkpt><trkpt lat="39.7247719" lon="-0.7474284"><ele>420.8</ele><time>2026-04-04T10:56:12.591Z</time></trkpt><trkpt lat="39.7247108" lon="-0.7473392"><ele>420.0</ele><time>2026-04-04T10:56:13.589Z</time></trkpt><trkpt lat="39.7246529" lon="-0.7472552"><ele>420.0</ele><time>2026-04-04T10:56:14.59Z</time></trkpt><trkpt lat="39.7245967" lon="-0.7471647"><ele>420.0</ele><time>2026-04-04T10:56:15.589Z</time></trkpt><trkpt lat="39.7245427" lon="-0.7470577"><ele>420.0</ele><time>2026-04-04T10:56:16.589Z</time></trkpt><trkpt lat="39.7244936" lon="-0.7469694"><ele>420.0</ele><time>2026-04-04T10:56:17.59Z</time></trkpt><trkpt lat="39.7244532" lon="-0.7468656"><ele>420.0</ele><time>2026-04-04T10:56:18.59Z</time></trkpt><trkpt lat="39.7244078" lon="-0.746748"><ele>418.0</ele><time>2026-04-04T10:56:19.59Z</time></trkpt><trkpt lat="39.7243609" lon="-0.7466295"><ele>416.0</ele><time>2026-04-04T10:56:20.59Z</time></trkpt><trkpt lat="39.724302" lon="-0.7465217"><ele>414.0</ele><time>2026-04-04T10:56:21.589Z</time></trkpt><trkpt lat="39.7242323" lon="-0.7464175"><ele>412.0</ele><time>2026-04-04T10:56:22.589Z</time></trkpt><trkpt lat="39.7241605" lon="-0.7463099"><ele>410.0</ele><time>2026-04-04T10:56:23.59Z</time></trkpt><trkpt lat="39.7240853" lon="-0.746206"><ele>410.0</ele><time>2026-04-04T10:56:24.591Z</time></trkpt><trkpt lat="39.7240036" lon="-0.7460977"><ele>410.0</ele><time>2026-04-04T10:56:25.591Z</time></trkpt><trkpt lat="39.7239186" lon="-0.7459803"><ele>410.0</ele><time>2026-04-04T10:56:26.591Z</time></trkpt><trkpt lat="39.7238312" lon="-0.7458547"><ele>410.0</ele><time>2026-04-04T10:56:27.59Z</time></trkpt><trkpt lat="39.7237317" lon="-0.7457254"><ele>411.3333333333333</ele><time>2026-04-04T10:56:28.59Z</time></trkpt><trkpt lat="39.7236269" lon="-0.7455982"><ele>412.66666666666663</ele><time>2026-04-04T10:56:29.591Z</time></trkpt><trkpt lat="39.7235211" lon="-0.7454595"><ele>414.0</ele><time>2026-04-04T10:56:30.59Z</time></trkpt><trkpt lat="39.7234221" lon="-0.7453002"><ele>412.33333333333337</ele><time>2026-04-04T10:56:31.591Z</time></trkpt><trkpt lat="39.7233301" lon="-0.7451392"><ele>410.6666666666667</ele><time>2026-04-04T10:56:32.589Z</time></trkpt><trkpt lat="39.7232375" lon="-0.7449815"><ele>409.0</ele><time>2026-04-04T10:56:33.59Z</time></trkpt><trkpt lat="39.7231337" lon="-0.7448364"><ele>409.0</ele><time>2026-04-04T10:56:34.59Z</time></trkpt><trkpt lat="39.7230258" lon="-0.7446848"><ele>409.0</ele><time>2026-04-04T10:56:35.589Z</time></trkpt><trkpt lat="39.7229151" lon="-0.7445345"><ele>409.0</ele><time>2026-04-04T10:56:36.591Z</time></trkpt><trkpt lat="39.7228087" lon="-0.7443736"><ele>407.75</ele><time>2026-04-04T10:56:37.59Z</time></trkpt><trkpt lat="39.7227073" lon="-0.7442193"><ele>406.5</ele><time>2026-04-04T10:56:38.59Z</time></trkpt><trkpt lat="39.7226129" lon="-0.744067"><ele>405.25</ele><time>2026-04-04T10:56:39.59Z</time></trkpt><trkpt lat="39.7225284" lon="-0.7439297"><ele>404.0</ele><time>2026-04-04T10:56:40.59Z</time></trkpt><trkpt lat="39.7224488" lon="-0.7438044"><ele>404.0</ele><time>2026-04-04T10:56:41.589Z</time></trkpt><trkpt lat="39.7223763" lon="-0.7436915"><ele>404.0</ele><time>2026-04-04T10:56:42.59Z</time></trkpt><trkpt lat="39.72232" lon="-0.7435835"><ele>404.0</ele><time>2026-04-04T10:56:43.591Z</time></trkpt><trkpt lat="39.7222653" lon="-0.7434876"><ele>404.0</ele><time>2026-04-04T10:56:44.59Z</time></trkpt><trkpt lat="39.7222168" lon="-0.7433944"><ele>404.0</ele><time>2026-04-04T10:56:45.59Z</time></trkpt><trkpt lat="39.7221737" lon="-0.7433037"><ele>404.79999999999995</ele><time>2026-04-04T10:56:46.59Z</time></trkpt><trkpt lat="39.7221037" lon="-0.7431907"><ele>405.59999999999997</ele><time>2026-04-04T10:56:48.591Z</time></trkpt><trkpt lat="39.7220458" lon="-0.7430974"><ele>406.4</ele><time>2026-04-04T10:56:50.59Z</time></trkpt><trkpt lat="39.7219986" lon="-0.7430325"><ele>407.2</ele><time>2026-04-04T10:56:51.589Z</time></trkpt><trkpt lat="39.7219377" lon="-0.7429623"><ele>408.0</ele><time>2026-04-04T10:56:52.59Z</time></trkpt><trkpt lat="39.7218582" lon="-0.742883"><ele>407.5</ele><time>2026-04-04T10:56:53.591Z</time></trkpt><trkpt lat="39.7217638" lon="-0.7427869"><ele>407.0</ele><time>2026-04-04T10:56:54.59Z</time></trkpt><trkpt lat="39.7216771" lon="-0.7427043"><ele>406.5</ele><time>2026-04-04T10:56:55.59Z</time></trkpt><trkpt lat="39.7215621" lon="-0.7426235"><ele>406.0</ele><time>2026-04-04T10:56:56.59Z</time></trkpt><trkpt lat="39.7214361" lon="-0.7425458"><ele>406.0</ele><time>2026-04-04T10:56:57.591Z</time></trkpt><trkpt lat="39.7213055" lon="-0.7424742"><ele>406.0</ele><time>2026-04-04T10:56:58.588Z</time></trkpt><trkpt lat="39.7211825" lon="-0.742416"><ele>406.0</ele><time>2026-04-04T10:56:59.59Z</time></trkpt><trkpt lat="39.7210671" lon="-0.7423664"><ele>406.0</ele><time>2026-04-04T10:57:00.588Z</time></trkpt><trkpt lat="39.7209456" lon="-0.7422937"><ele>404.75</ele><time>2026-04-04T10:57:01.59Z</time></trkpt><trkpt lat="39.7208195" lon="-0.7421983"><ele>403.5</ele><time>2026-04-04T10:57:02.589Z</time></trkpt><trkpt lat="39.7207002" lon="-0.7420999"><ele>402.25</ele><time>2026-04-04T10:57:03.59Z</time></trkpt><trkpt lat="39.7205748" lon="-0.7420188"><ele>401.0</ele><time>2026-04-04T10:57:04.589Z</time></trkpt><trkpt lat="39.7204558" lon="-0.7419532"><ele>401.0</ele><time>2026-04-04T10:57:05.59Z</time></trkpt><trkpt lat="39.7203403" lon="-0.7418985"><ele>401.0</ele><time>2026-04-04T10:57:06.59Z</time></trkpt><trkpt lat="39.7202281" lon="-0.7418355"><ele>401.0</ele><time>2026-04-04T10:57:07.59Z</time></trkpt><trkpt lat="39.720104" lon="-0.7417499"><ele>401.0</ele><time>2026-04-04T10:57:08.59Z</time></trkpt><trkpt lat="39.7199792" lon="-0.7416477"><ele>400.25</ele><time>2026-04-04T10:57:09.589Z</time></trkpt><trkpt lat="39.7198653" lon="-0.741541"><ele>399.5</ele><time>2026-04-04T10:57:10.589Z</time></trkpt><trkpt lat="39.7197615" lon="-0.741424"><ele>398.75</ele><time>2026-04-04T10:57:11.589Z</time></trkpt><trkpt lat="39.7196601" lon="-0.7413011"><ele>398.0</ele><time>2026-04-04T10:57:12.588Z</time></trkpt><trkpt lat="39.7195665" lon="-0.7411726"><ele>398.0</ele><time>2026-04-04T10:57:13.589Z</time></trkpt><trkpt lat="39.7194663" lon="-0.7410333"><ele>398.0</ele><time>2026-04-04T10:57:14.588Z</time></trkpt><trkpt lat="39.7193625" lon="-0.7408925"><ele>398.0</ele><time>2026-04-04T10:57:15.589Z</time></trkpt><trkpt lat="39.7192479" lon="-0.7407379"><ele>398.0</ele><time>2026-04-04T10:57:16.589Z</time></trkpt><trkpt lat="39.7191374" lon="-0.740588"><ele>398.0</ele><time>2026-04-04T10:57:17.589Z</time></trkpt><trkpt lat="39.7190376" lon="-0.7404555"><ele>398.0</ele><time>2026-04-04T10:57:18.591Z</time></trkpt><trkpt lat="39.7189436" lon="-0.7403168"><ele>398.0</ele><time>2026-04-04T10:57:19.59Z</time></trkpt><trkpt lat="39.7188692" lon="-0.7401795"><ele>398.0</ele><time>2026-04-04T10:57:20.589Z</time></trkpt><trkpt lat="39.7188053" lon="-0.7400034"><ele>398.0</ele><time>2026-04-04T10:57:21.589Z</time></trkpt><trkpt lat="39.7187517" lon="-0.7398049"><ele>398.0</ele><time>2026-04-04T10:57:22.589Z</time></trkpt><trkpt lat="39.7186959" lon="-0.7396102"><ele>398.0</ele><time>2026-04-04T10:57:23.589Z</time></trkpt><trkpt lat="39.7186415" lon="-0.7394149"><ele>398.0</ele><time>2026-04-04T10:57:24.588Z</time></trkpt><trkpt lat="39.7185835" lon="-0.7392052"><ele>398.0</ele><time>2026-04-04T10:57:25.589Z</time></trkpt><trkpt lat="39.7185217" lon="-0.7389885"><ele>396.3333333333333</ele><time>2026-04-04T10:57:26.589Z</time></trkpt><trkpt lat="39.7184621" lon="-0.7387652"><ele>394.66666666666663</ele><time>2026-04-04T10:57:27.59Z</time></trkpt><trkpt lat="39.7184065" lon="-0.7385431"><ele>393.0</ele><time>2026-04-04T10:57:28.589Z</time></trkpt><trkpt lat="39.7183446" lon="-0.7383283"><ele>393.0</ele><time>2026-04-04T10:57:29.589Z</time></trkpt><trkpt lat="39.7182856" lon="-0.7381167"><ele>393.0</ele><time>2026-04-04T10:57:30.59Z</time></trkpt><trkpt lat="39.7182284" lon="-0.7379132"><ele>393.0</ele><time>2026-04-04T10:57:31.59Z</time></trkpt><trkpt lat="39.7181679" lon="-0.7377068"><ele>392.33333333333337</ele><time>2026-04-04T10:57:32.589Z</time></trkpt><trkpt lat="39.7181089" lon="-0.7374973"><ele>391.6666666666667</ele><time>2026-04-04T10:57:33.59Z</time></trkpt><trkpt lat="39.718044" lon="-0.7372863"><ele>391.0</ele><time>2026-04-04T10:57:34.59Z</time></trkpt><trkpt lat="39.7179771" lon="-0.7370644"><ele>390.33333333333337</ele><time>2026-04-04T10:57:35.59Z</time></trkpt><trkpt lat="39.7179038" lon="-0.7368307"><ele>389.66666666666663</ele><time>2026-04-04T10:57:36.589Z</time></trkpt><trkpt lat="39.7178294" lon="-0.7366032"><ele>389.0</ele><time>2026-04-04T10:57:37.589Z</time></trkpt><trkpt lat="39.7177529" lon="-0.7363789"><ele>389.0</ele><time>2026-04-04T10:57:38.589Z</time></trkpt><trkpt lat="39.7176849" lon="-0.7361714"><ele>389.0</ele><time>2026-04-04T10:57:39.59Z</time></trkpt><trkpt lat="39.7176305" lon="-0.7359796"><ele>389.0</ele><time>2026-04-04T10:57:40.588Z</time></trkpt><trkpt lat="39.7175802" lon="-0.7357986"><ele>388.5</ele><time>2026-04-04T10:57:41.59Z</time></trkpt><trkpt lat="39.7175345" lon="-0.7356356"><ele>388.0</ele><time>2026-04-04T10:57:42.588Z</time></trkpt><trkpt lat="39.7174925" lon="-0.7354737"><ele>387.5</ele><time>2026-04-04T10:57:43.59Z</time></trkpt><trkpt lat="39.7174519" lon="-0.7353132"><ele>387.0</ele><time>2026-04-04T10:57:44.59Z</time></trkpt><trkpt lat="39.7174115" lon="-0.735142"><ele>386.0</ele><time>2026-04-04T10:57:45.589Z</time></trkpt><trkpt lat="39.717371" lon="-0.7349606"><ele>385.0</ele><time>2026-04-04T10:57:46.59Z</time></trkpt><trkpt lat="39.7173174" lon="-0.7347699"><ele>384.0</ele><time>2026-04-04T10:57:47.59Z</time></trkpt><trkpt lat="39.7172648" lon="-0.7345721"><ele>384.0</ele><time>2026-04-04T10:57:48.589Z</time></trkpt><trkpt lat="39.7172125" lon="-0.7343899"><ele>384.0</ele><time>2026-04-04T10:57:49.59Z</time></trkpt><trkpt lat="39.7171612" lon="-0.7342244"><ele>384.0</ele><time>2026-04-04T10:57:50.59Z</time></trkpt><trkpt lat="39.7171125" lon="-0.734071"><ele>384.0</ele><time>2026-04-04T10:57:51.59Z</time></trkpt><trkpt lat="39.717059" lon="-0.7339372"><ele>383.5</ele><time>2026-04-04T10:57:52.59Z</time></trkpt><trkpt lat="39.7170104" lon="-0.7337984"><ele>383.0</ele><time>2026-04-04T10:57:53.59Z</time></trkpt><trkpt lat="39.7169594" lon="-0.7336481"><ele>382.5</ele><time>2026-04-04T10:57:54.589Z</time></trkpt><trkpt lat="39.7169095" lon="-0.7334889"><ele>382.0</ele><time>2026-04-04T10:57:55.59Z</time></trkpt><trkpt lat="39.7168466" lon="-0.7333283"><ele>380.3333333333333</ele><time>2026-04-04T10:57:56.59Z</time></trkpt><trkpt lat="39.7167741" lon="-0.7331552"><ele>378.6666666666667</ele><time>2026-04-04T10:57:57.589Z</time></trkpt><trkpt lat="39.7167025" lon="-0.7329702"><ele>377.0</ele><time>2026-04-04T10:57:58.589Z</time></trkpt><trkpt lat="39.7166299" lon="-0.7327801"><ele>377.0</ele><time>2026-04-04T10:57:59.59Z</time></trkpt><trkpt lat="39.7165636" lon="-0.7325976"><ele>377.0</ele><time>2026-04-04T10:58:00.589Z</time></trkpt><trkpt lat="39.7164998" lon="-0.7324325"><ele>377.0</ele><time>2026-04-04T10:58:01.588Z</time></trkpt><trkpt lat="39.7164369" lon="-0.7322808"><ele>377.0</ele><time>2026-04-04T10:58:02.59Z</time></trkpt><trkpt lat="39.7163764" lon="-0.7321312"><ele>377.0</ele><time>2026-04-04T10:58:03.589Z</time></trkpt><trkpt lat="39.7163107" lon="-0.7319715"><ele>377.0</ele><time>2026-04-04T10:58:04.589Z</time></trkpt><trkpt lat="39.7162312" lon="-0.7318043"><ele>377.0</ele><time>2026-04-04T10:58:05.59Z</time></trkpt><trkpt lat="39.7161415" lon="-0.7316328"><ele>375.25</ele><time>2026-04-04T10:58:06.59Z</time></trkpt><trkpt lat="39.7160553" lon="-0.7314778"><ele>373.5</ele><time>2026-04-04T10:58:07.589Z</time></trkpt><trkpt lat="39.7159781" lon="-0.7313371"><ele>371.75</ele><time>2026-04-04T10:58:08.589Z</time></trkpt><trkpt lat="39.7159039" lon="-0.731202"><ele>370.0</ele><time>2026-04-04T10:58:09.59Z</time></trkpt><trkpt lat="39.7158327" lon="-0.7310781"><ele>371.4</ele><time>2026-04-04T10:58:10.59Z</time></trkpt><trkpt lat="39.7157618" lon="-0.7309722"><ele>372.8</ele><time>2026-04-04T10:58:11.588Z</time></trkpt><trkpt lat="39.7157066" lon="-0.7308696"><ele>374.20000000000005</ele><time>2026-04-04T10:58:12.591Z</time></trkpt><trkpt lat="39.7156496" lon="-0.7307627"><ele>375.6</ele><time>2026-04-04T10:58:13.588Z</time></trkpt><trkpt lat="39.7155914" lon="-0.7306708"><ele>377.0</ele><time>2026-04-04T10:58:14.589Z</time></trkpt><trkpt lat="39.7155193" lon="-0.7305785"><ele>377.0</ele><time>2026-04-04T10:58:15.59Z</time></trkpt><trkpt lat="39.7154482" lon="-0.7304778"><ele>377.0</ele><time>2026-04-04T10:58:16.588Z</time></trkpt><trkpt lat="39.7153773" lon="-0.7303623"><ele>377.0</ele><time>2026-04-04T10:58:17.59Z</time></trkpt><trkpt lat="39.7153075" lon="-0.7302192"><ele>377.0</ele><time>2026-04-04T10:58:18.59Z</time></trkpt><trkpt lat="39.7152359" lon="-0.7300787"><ele>375.75</ele><time>2026-04-04T10:58:19.589Z</time></trkpt><trkpt lat="39.715153" lon="-0.7299461"><ele>374.5</ele><time>2026-04-04T10:58:20.589Z</time></trkpt><trkpt lat="39.7150561" lon="-0.7298129"><ele>373.25</ele><time>2026-04-04T10:58:21.589Z</time></trkpt><trkpt lat="39.7149562" lon="-0.7296595"><ele>372.0</ele><time>2026-04-04T10:58:22.589Z</time></trkpt><trkpt lat="39.7148676" lon="-0.7295122"><ele>371.75</ele><time>2026-04-04T10:58:23.588Z</time></trkpt><trkpt lat="39.7147899" lon="-0.7293734"><ele>371.5</ele><time>2026-04-04T10:58:24.589Z</time></trkpt><trkpt lat="39.714717" lon="-0.7292563"><ele>371.25</ele><time>2026-04-04T10:58:25.589Z</time></trkpt><trkpt lat="39.7146513" lon="-0.7291583"><ele>371.0</ele><time>2026-04-04T10:58:26.588Z</time></trkpt><trkpt lat="39.7145896" lon="-0.7290481"><ele>371.0</ele><time>2026-04-04T10:58:27.588Z</time></trkpt><trkpt lat="39.7145437" lon="-0.7289285"><ele>371.0</ele><time>2026-04-04T10:58:28.59Z</time></trkpt><trkpt lat="39.7145099" lon="-0.7288026"><ele>371.0</ele><time>2026-04-04T10:58:29.59Z</time></trkpt><trkpt lat="39.7144856" lon="-0.728689"><ele>371.0</ele><time>2026-04-04T10:58:30.589Z</time></trkpt><trkpt lat="39.7144579" lon="-0.7285916"><ele>371.0</ele><time>2026-04-04T10:58:31.589Z</time></trkpt><trkpt lat="39.7144145" lon="-0.728492"><ele>371.0</ele><time>2026-04-04T10:58:32.589Z</time></trkpt><trkpt lat="39.714353" lon="-0.7283875"><ele>371.0</ele><time>2026-04-04T10:58:33.591Z</time></trkpt><trkpt lat="39.7142755" lon="-0.7282667"><ele>371.0</ele><time>2026-04-04T10:58:34.589Z</time></trkpt><trkpt lat="39.7142019" lon="-0.7281487"><ele>371.0</ele><time>2026-04-04T10:58:35.588Z</time></trkpt><trkpt lat="39.7141326" lon="-0.7280417"><ele>371.0</ele><time>2026-04-04T10:58:36.589Z</time></trkpt><trkpt lat="39.7140573" lon="-0.7279404"><ele>371.0</ele><time>2026-04-04T10:58:37.589Z</time></trkpt><trkpt lat="39.7139637" lon="-0.727838"><ele>371.0</ele><time>2026-04-04T10:58:38.588Z</time></trkpt><trkpt lat="39.7138731" lon="-0.7277226"><ele>371.0</ele><time>2026-04-04T10:58:39.589Z</time></trkpt><trkpt lat="39.7137834" lon="-0.7275992"><ele>371.0</ele><time>2026-04-04T10:58:40.588Z</time></trkpt><trkpt lat="39.7137012" lon="-0.7274664"><ele>370.5</ele><time>2026-04-04T10:58:41.589Z</time></trkpt><trkpt lat="39.7136144" lon="-0.7273192"><ele>370.0</ele><time>2026-04-04T10:58:42.589Z</time></trkpt><trkpt lat="39.7135273" lon="-0.7271586"><ele>369.5</ele><time>2026-04-04T10:58:43.591Z</time></trkpt><trkpt lat="39.7134438" lon="-0.7269991"><ele>369.0</ele><time>2026-04-04T10:58:44.589Z</time></trkpt><trkpt lat="39.7133623" lon="-0.7268521"><ele>367.5</ele><time>2026-04-04T10:58:45.59Z</time></trkpt><trkpt lat="39.7132719" lon="-0.7266958"><ele>366.0</ele><time>2026-04-04T10:58:46.588Z</time></trkpt><trkpt lat="39.713191" lon="-0.7265482"><ele>364.5</ele><time>2026-04-04T10:58:47.588Z</time></trkpt><trkpt lat="39.7131074" lon="-0.7264181"><ele>363.0</ele><time>2026-04-04T10:58:48.589Z</time></trkpt><trkpt lat="39.7130234" lon="-0.7262784"><ele>363.0</ele><time>2026-04-04T10:58:49.59Z</time></trkpt><trkpt lat="39.7129573" lon="-0.7261535"><ele>363.0</ele><time>2026-04-04T10:58:50.589Z</time></trkpt><trkpt lat="39.7129036" lon="-0.7260138"><ele>363.0</ele><time>2026-04-04T10:58:51.59Z</time></trkpt><trkpt lat="39.7128603" lon="-0.7258686"><ele>363.0</ele><time>2026-04-04T10:58:52.588Z</time></trkpt><trkpt lat="39.7128236" lon="-0.725734"><ele>363.2</ele><time>2026-04-04T10:58:53.59Z</time></trkpt><trkpt lat="39.7127848" lon="-0.7256171"><ele>363.4</ele><time>2026-04-04T10:58:54.588Z</time></trkpt><trkpt lat="39.712738" lon="-0.72551"><ele>363.59999999999997</ele><time>2026-04-04T10:58:55.589Z</time></trkpt><trkpt lat="39.7126818" lon="-0.7254131"><ele>363.79999999999995</ele><time>2026-04-04T10:58:56.589Z</time></trkpt><trkpt lat="39.7126141" lon="-0.7253131"><ele>364.0</ele><time>2026-04-04T10:58:57.59Z</time></trkpt><trkpt lat="39.712534" lon="-0.7252095"><ele>362.6</ele><time>2026-04-04T10:58:58.59Z</time></trkpt><trkpt lat="39.7124633" lon="-0.7251119"><ele>361.2</ele><time>2026-04-04T10:58:59.59Z</time></trkpt><trkpt lat="39.7123928" lon="-0.725023"><ele>359.8</ele><time>2026-04-04T10:59:00.588Z</time></trkpt><trkpt lat="39.7123214" lon="-0.724943"><ele>358.40000000000003</ele><time>2026-04-04T10:59:01.59Z</time></trkpt><trkpt lat="39.7122473" lon="-0.7248715"><ele>357.0</ele><time>2026-04-04T10:59:02.59Z</time></trkpt><trkpt lat="39.712176" lon="-0.7248105"><ele>357.0</ele><time>2026-04-04T10:59:03.589Z</time></trkpt><trkpt lat="39.7121027" lon="-0.72474"><ele>357.0</ele><time>2026-04-04T10:59:04.589Z</time></trkpt><trkpt lat="39.7120358" lon="-0.7246471"><ele>357.0</ele><time>2026-04-04T10:59:05.59Z</time></trkpt><trkpt lat="39.7119685" lon="-0.7245226"><ele>357.0</ele><time>2026-04-04T10:59:06.589Z</time></trkpt><trkpt lat="39.7118986" lon="-0.7243927"><ele>357.0</ele><time>2026-04-04T10:59:07.589Z</time></trkpt><trkpt lat="39.7118198" lon="-0.7242536"><ele>356.25</ele><time>2026-04-04T10:59:08.588Z</time></trkpt><trkpt lat="39.711747" lon="-0.7241257"><ele>355.5</ele><time>2026-04-04T10:59:09.589Z</time></trkpt><trkpt lat="39.7116804" lon="-0.7240083"><ele>354.75</ele><time>2026-04-04T10:59:10.588Z</time></trkpt><trkpt lat="39.7116147" lon="-0.723899"><ele>354.0</ele><time>2026-04-04T10:59:11.589Z</time></trkpt><trkpt lat="39.711545" lon="-0.723784"><ele>354.0</ele><time>2026-04-04T10:59:12.59Z</time></trkpt><trkpt lat="39.7114782" lon="-0.7236621"><ele>354.0</ele><time>2026-04-04T10:59:13.589Z</time></trkpt><trkpt lat="39.7114101" lon="-0.7235237"><ele>354.0</ele><time>2026-04-04T10:59:14.589Z</time></trkpt><trkpt lat="39.7113442" lon="-0.7233766"><ele>354.0</ele><time>2026-04-04T10:59:15.589Z</time></trkpt><trkpt lat="39.7112678" lon="-0.7232103"><ele>354.25</ele><time>2026-04-04T10:59:16.59Z</time></trkpt><trkpt lat="39.711202" lon="-0.7230452"><ele>354.5</ele><time>2026-04-04T10:59:17.589Z</time></trkpt><trkpt lat="39.7111385" lon="-0.7228743"><ele>354.75</ele><time>2026-04-04T10:59:18.588Z</time></trkpt><trkpt lat="39.7110742" lon="-0.7226942"><ele>355.0</ele><time>2026-04-04T10:59:19.59Z</time></trkpt><trkpt lat="39.7110186" lon="-0.7225376"><ele>355.0</ele><time>2026-04-04T10:59:20.59Z</time></trkpt><trkpt lat="39.7109752" lon="-0.7224048"><ele>355.0</ele><time>2026-04-04T10:59:21.589Z</time></trkpt><trkpt lat="39.7109434" lon="-0.7222862"><ele>355.0</ele><time>2026-04-04T10:59:22.589Z</time></trkpt><trkpt lat="39.7109226" lon="-0.7221873"><ele>355.0</ele><time>2026-04-04T10:59:23.59Z</time></trkpt><trkpt lat="39.7109112" lon="-0.7221008"><ele>355.0</ele><time>2026-04-04T10:59:24.589Z</time></trkpt><trkpt lat="39.7108656" lon="-0.7219794"><ele>355.0</ele><time>2026-04-04T10:59:26.59Z</time></trkpt><trkpt lat="39.7108141" lon="-0.7219101"><ele>355.0</ele><time>2026-04-04T10:59:27.589Z</time></trkpt><trkpt lat="39.7107485" lon="-0.7218174"><ele>355.0</ele><time>2026-04-04T10:59:28.589Z</time></trkpt><trkpt lat="39.7106645" lon="-0.7217032"><ele>355.0</ele><time>2026-04-04T10:59:29.59Z</time></trkpt><trkpt lat="39.7105663" lon="-0.7215735"><ele>355.0</ele><time>2026-04-04T10:59:30.588Z</time></trkpt><trkpt lat="39.7104671" lon="-0.72144"><ele>354.0</ele><time>2026-04-04T10:59:31.59Z</time></trkpt><trkpt lat="39.7103562" lon="-0.7212881"><ele>353.0</ele><time>2026-04-04T10:59:32.588Z</time></trkpt><trkpt lat="39.7102428" lon="-0.7211352"><ele>352.0</ele><time>2026-04-04T10:59:33.59Z</time></trkpt><trkpt lat="39.710134" lon="-0.7209626"><ele>351.3333333333333</ele><time>2026-04-04T10:59:34.59Z</time></trkpt><trkpt lat="39.7100374" lon="-0.7207871"><ele>350.6666666666667</ele><time>2026-04-04T10:59:35.589Z</time></trkpt><trkpt lat="39.7099442" lon="-0.7206187"><ele>350.0</ele><time>2026-04-04T10:59:36.589Z</time></trkpt><trkpt lat="39.7098507" lon="-0.7204538"><ele>350.0</ele><time>2026-04-04T10:59:37.589Z</time></trkpt><trkpt lat="39.7097608" lon="-0.720279"><ele>350.0</ele><time>2026-04-04T10:59:38.589Z</time></trkpt><trkpt lat="39.7096768" lon="-0.7201164"><ele>350.0</ele><time>2026-04-04T10:59:39.588Z</time></trkpt><trkpt lat="39.709594" lon="-0.7199723"><ele>349.6666666666667</ele><time>2026-04-04T10:59:40.59Z</time></trkpt><trkpt lat="39.709482" lon="-0.7198251"><ele>349.3333333333333</ele><time>2026-04-04T10:59:41.589Z</time></trkpt><trkpt lat="39.7093524" lon="-0.7196848"><ele>349.0</ele><time>2026-04-04T10:59:42.588Z</time></trkpt><trkpt lat="39.7092089" lon="-0.7195407"><ele>349.0</ele><time>2026-04-04T10:59:43.589Z</time></trkpt><trkpt lat="39.7090631" lon="-0.7194011"><ele>349.0</ele><time>2026-04-04T10:59:44.59Z</time></trkpt><trkpt lat="39.7089104" lon="-0.7192539"><ele>349.0</ele><time>2026-04-04T10:59:45.589Z</time></trkpt><trkpt lat="39.7087532" lon="-0.7191079"><ele>347.66666666666663</ele><time>2026-04-04T10:59:46.588Z</time></trkpt><trkpt lat="39.7085933" lon="-0.7189687"><ele>346.3333333333333</ele><time>2026-04-04T10:59:47.589Z</time></trkpt><trkpt lat="39.7084416" lon="-0.7188259"><ele>345.0</ele><time>2026-04-04T10:59:48.589Z</time></trkpt><trkpt lat="39.7082984" lon="-0.7187006"><ele>344.6666666666667</ele><time>2026-04-04T10:59:49.59Z</time></trkpt><trkpt lat="39.7081617" lon="-0.7185828"><ele>344.33333333333337</ele><time>2026-04-04T10:59:50.589Z</time></trkpt><trkpt lat="39.7080254" lon="-0.7184731"><ele>344.0</ele><time>2026-04-04T10:59:51.589Z</time></trkpt><trkpt lat="39.7078995" lon="-0.718381"><ele>343.75</ele><time>2026-04-04T10:59:52.588Z</time></trkpt><trkpt lat="39.707785" lon="-0.7183006"><ele>343.5</ele><time>2026-04-04T10:59:53.589Z</time></trkpt><trkpt lat="39.707679" lon="-0.7182306"><ele>343.25</ele><time>2026-04-04T10:59:54.588Z</time></trkpt><trkpt lat="39.7075791" lon="-0.7181624"><ele>343.0</ele><time>2026-04-04T10:59:55.589Z</time></trkpt><trkpt lat="39.7074903" lon="-0.7180982"><ele>343.0</ele><time>2026-04-04T10:59:56.59Z</time></trkpt><trkpt lat="39.70742" lon="-0.7180357"><ele>343.0</ele><time>2026-04-04T10:59:57.588Z</time></trkpt><trkpt lat="39.7073557" lon="-0.7179798"><ele>343.0</ele><time>2026-04-04T10:59:58.589Z</time></trkpt><trkpt lat="39.7072966" lon="-0.7179212"><ele>343.0</ele><time>2026-04-04T10:59:59.589Z</time></trkpt><trkpt lat="39.7072228" lon="-0.717837"><ele>343.0</ele><time>2026-04-04T11:00:01.589Z</time></trkpt><trkpt lat="39.7071419" lon="-0.7178535"><ele>343.0</ele><time>2026-04-04T11:00:03.589Z</time></trkpt><trkpt lat="39.7070889" lon="-0.7179025"><ele>343.0</ele><time>2026-04-04T11:00:04.588Z</time></trkpt><trkpt lat="39.7070363" lon="-0.7179786"><ele>343.0</ele><time>2026-04-04T11:00:05.589Z</time></trkpt><trkpt lat="39.7069673" lon="-0.7180688"><ele>343.0</ele><time>2026-04-04T11:00:06.589Z</time></trkpt><trkpt lat="39.7069007" lon="-0.7181522"><ele>343.0</ele><time>2026-04-04T11:00:07.59Z</time></trkpt><trkpt lat="39.7068207" lon="-0.7182388"><ele>343.0</ele><time>2026-04-04T11:00:08.589Z</time></trkpt><trkpt lat="39.706737" lon="-0.7183232"><ele>342.8333333333333</ele><time>2026-04-04T11:00:09.588Z</time></trkpt><trkpt lat="39.7066676" lon="-0.7183985"><ele>342.66666666666663</ele><time>2026-04-04T11:00:10.588Z</time></trkpt><trkpt lat="39.7066066" lon="-0.7184635"><ele>342.5</ele><time>2026-04-04T11:00:11.59Z</time></trkpt><trkpt lat="39.7065563" lon="-0.7185171"><ele>342.3333333333333</ele><time>2026-04-04T11:00:12.59Z</time></trkpt><trkpt lat="39.7065018" lon="-0.7185855"><ele>342.1666666666667</ele><time>2026-04-04T11:00:13.59Z</time></trkpt><trkpt lat="39.7064396" lon="-0.7186532"><ele>342.0</ele><time>2026-04-04T11:00:14.588Z</time></trkpt><trkpt lat="39.7063721" lon="-0.7187058"><ele>342.0</ele><time>2026-04-04T11:00:15.589Z</time></trkpt><trkpt lat="39.706289" lon="-0.7187415"><ele>342.0</ele><time>2026-04-04T11:00:16.59Z</time></trkpt><trkpt lat="39.706195" lon="-0.7187604"><ele>342.0</ele><time>2026-04-04T11:00:17.588Z</time></trkpt><trkpt lat="39.706086" lon="-0.718748"><ele>342.0</ele><time>2026-04-04T11:00:18.587Z</time></trkpt><trkpt lat="39.7059711" lon="-0.7187285"><ele>342.0</ele><time>2026-04-04T11:00:19.59Z</time></trkpt><trkpt lat="39.7058652" lon="-0.7187054"><ele>341.6</ele><time>2026-04-04T11:00:20.588Z</time></trkpt><trkpt lat="39.7057668" lon="-0.7186792"><ele>341.20000000000005</ele><time>2026-04-04T11:00:21.587Z</time></trkpt><trkpt lat="39.7056836" lon="-0.7186611"><ele>340.8</ele><time>2026-04-04T11:00:22.589Z</time></trkpt><trkpt lat="39.7056029" lon="-0.7186538"><ele>340.4</ele><time>2026-04-04T11:00:23.59Z</time></trkpt><trkpt lat="39.7055022" lon="-0.7186425"><ele>340.0</ele><time>2026-04-04T11:00:24.588Z</time></trkpt><trkpt lat="39.7054053" lon="-0.7186368"><ele>340.0</ele><time>2026-04-04T11:00:25.589Z</time></trkpt><trkpt lat="39.705326" lon="-0.7186281"><ele>340.0</ele><time>2026-04-04T11:00:26.588Z</time></trkpt><trkpt lat="39.7052425" lon="-0.7186179"><ele>340.0</ele><time>2026-04-04T11:00:27.588Z</time></trkpt><trkpt lat="39.7051685" lon="-0.7185955"><ele>340.0</ele><time>2026-04-04T11:00:28.587Z</time></trkpt><trkpt lat="39.7051032" lon="-0.7185611"><ele>340.0</ele><time>2026-04-04T11:00:29.587Z</time></trkpt><trkpt lat="39.7050402" lon="-0.7185051"><ele>340.0</ele><time>2026-04-04T11:00:30.59Z</time></trkpt><trkpt lat="39.7049735" lon="-0.718428"><ele>339.16666666666663</ele><time>2026-04-04T11:00:31.588Z</time></trkpt><trkpt lat="39.7049082" lon="-0.7183439"><ele>338.3333333333333</ele><time>2026-04-04T11:00:32.588Z</time></trkpt><trkpt lat="39.7048582" lon="-0.718257"><ele>337.5</ele><time>2026-04-04T11:00:33.589Z</time></trkpt><trkpt lat="39.7048236" lon="-0.7181841"><ele>336.6666666666667</ele><time>2026-04-04T11:00:34.589Z</time></trkpt><trkpt lat="39.704817" lon="-0.7180947"><ele>335.83333333333337</ele><time>2026-04-04T11:00:37.589Z</time></trkpt><trkpt lat="39.7048267" lon="-0.7179597"><ele>335.0</ele><time>2026-04-04T11:00:39.587Z</time></trkpt><trkpt lat="39.7048246" lon="-0.7178549"><ele>335.1666666666667</ele><time>2026-04-04T11:00:40.59Z</time></trkpt><trkpt lat="39.7048186" lon="-0.7177325"><ele>335.33333333333337</ele><time>2026-04-04T11:00:41.589Z</time></trkpt><trkpt lat="39.7048084" lon="-0.7176037"><ele>335.5</ele><time>2026-04-04T11:00:42.589Z</time></trkpt><trkpt lat="39.7047951" lon="-0.7174921"><ele>335.6666666666667</ele><time>2026-04-04T11:00:43.59Z</time></trkpt><trkpt lat="39.7047727" lon="-0.7173947"><ele>335.8333333333333</ele><time>2026-04-04T11:00:44.589Z</time></trkpt><trkpt lat="39.704732" lon="-0.7172904"><ele>336.0</ele><time>2026-04-04T11:00:45.588Z</time></trkpt><trkpt lat="39.7046865" lon="-0.7171841"><ele>336.0</ele><time>2026-04-04T11:00:46.589Z</time></trkpt><trkpt lat="39.704652" lon="-0.7170957"><ele>336.0</ele><time>2026-04-04T11:00:47.588Z</time></trkpt><trkpt lat="39.7046249" lon="-0.7169942"><ele>336.0</ele><time>2026-04-04T11:00:48.589Z</time></trkpt><trkpt lat="39.7046031" lon="-0.7168763"><ele>336.0</ele><time>2026-04-04T11:00:49.588Z</time></trkpt><trkpt lat="39.7045934" lon="-0.7167808"><ele>336.0</ele><time>2026-04-04T11:00:50.59Z</time></trkpt><trkpt lat="39.7045686" lon="-0.7166871"><ele>336.0</ele><time>2026-04-04T11:00:51.589Z</time></trkpt><trkpt lat="39.7045239" lon="-0.7165774"><ele>335.6</ele><time>2026-04-04T11:00:52.588Z</time></trkpt><trkpt lat="39.7044776" lon="-0.7164749"><ele>335.20000000000005</ele><time>2026-04-04T11:00:53.589Z</time></trkpt><trkpt lat="39.7044357" lon="-0.7163756"><ele>334.79999999999995</ele><time>2026-04-04T11:00:54.59Z</time></trkpt><trkpt lat="39.7043988" lon="-0.7162821"><ele>334.4</ele><time>2026-04-04T11:00:55.589Z</time></trkpt><trkpt lat="39.7043445" lon="-0.7161679"><ele>334.0</ele><time>2026-04-04T11:00:57.589Z</time></trkpt><trkpt lat="39.704257" lon="-0.7160907"><ele>333.16666666666663</ele><time>2026-04-04T11:00:59.589Z</time></trkpt><trkpt lat="39.7041847" lon="-0.7159956"><ele>332.3333333333333</ele><time>2026-04-04T11:01:01.588Z</time></trkpt><trkpt lat="39.7041453" lon="-0.7159204"><ele>331.5</ele><time>2026-04-04T11:01:02.589Z</time></trkpt><trkpt lat="39.7040983" lon="-0.7158331"><ele>330.6666666666667</ele><time>2026-04-04T11:01:03.588Z</time></trkpt><trkpt lat="39.7040567" lon="-0.7157525"><ele>329.83333333333337</ele><time>2026-04-04T11:01:04.588Z</time></trkpt><trkpt lat="39.7040183" lon="-0.7156794"><ele>329.0</ele><time>2026-04-04T11:01:05.589Z</time></trkpt><trkpt lat="39.703956" lon="-0.7155765"><ele>329.0</ele><time>2026-04-04T11:01:07.59Z</time></trkpt><trkpt lat="39.7038623" lon="-0.7155376"><ele>329.0</ele><time>2026-04-04T11:01:09.589Z</time></trkpt><trkpt lat="39.7037925" lon="-0.7155224"><ele>329.0</ele><time>2026-04-04T11:01:10.589Z</time></trkpt><trkpt lat="39.7037123" lon="-0.7155019"><ele>329.0</ele><time>2026-04-04T11:01:11.588Z</time></trkpt><trkpt lat="39.7036386" lon="-0.7154636"><ele>329.0</ele><time>2026-04-04T11:01:12.588Z</time></trkpt><trkpt lat="39.7035574" lon="-0.7154014"><ele>329.0</ele><time>2026-04-04T11:01:13.588Z</time></trkpt><trkpt lat="39.7034729" lon="-0.715319"><ele>328.75</ele><time>2026-04-04T11:01:14.587Z</time></trkpt><trkpt lat="39.7033755" lon="-0.7152484"><ele>328.5</ele><time>2026-04-04T11:01:15.588Z</time></trkpt><trkpt lat="39.7032752" lon="-0.7151632"><ele>328.25</ele><time>2026-04-04T11:01:16.589Z</time></trkpt><trkpt lat="39.7031749" lon="-0.7150757"><ele>328.0</ele><time>2026-04-04T11:01:17.589Z</time></trkpt><trkpt lat="39.7030747" lon="-0.7149893"><ele>328.0</ele><time>2026-04-04T11:01:18.588Z</time></trkpt><trkpt lat="39.7029823" lon="-0.7149127"><ele>328.0</ele><time>2026-04-04T11:01:19.588Z</time></trkpt><trkpt lat="39.7028951" lon="-0.7148393"><ele>328.0</ele><time>2026-04-04T11:01:20.589Z</time></trkpt><trkpt lat="39.7028013" lon="-0.7147822"><ele>328.0</ele><time>2026-04-04T11:01:21.589Z</time></trkpt><trkpt lat="39.7026881" lon="-0.7147303"><ele>328.0</ele><time>2026-04-04T11:01:22.589Z</time></trkpt><trkpt lat="39.7025584" lon="-0.7146622"><ele>327.25</ele><time>2026-04-04T11:01:23.588Z</time></trkpt><trkpt lat="39.7024372" lon="-0.7145979"><ele>326.5</ele><time>2026-04-04T11:01:24.589Z</time></trkpt><trkpt lat="39.7023167" lon="-0.7145271"><ele>325.75</ele><time>2026-04-04T11:01:25.588Z</time></trkpt><trkpt lat="39.7021942" lon="-0.7144494"><ele>325.0</ele><time>2026-04-04T11:01:26.589Z</time></trkpt><trkpt lat="39.7020867" lon="-0.7143697"><ele>325.0</ele><time>2026-04-04T11:01:27.589Z</time></trkpt><trkpt lat="39.7019897" lon="-0.7142959"><ele>325.0</ele><time>2026-04-04T11:01:28.588Z</time></trkpt><trkpt lat="39.7019068" lon="-0.7142112"><ele>325.0</ele><time>2026-04-04T11:01:29.589Z</time></trkpt><trkpt lat="39.7018249" lon="-0.7141334"><ele>325.0</ele><time>2026-04-04T11:01:30.587Z</time></trkpt><trkpt lat="39.7017351" lon="-0.7140701"><ele>325.0</ele><time>2026-04-04T11:01:31.59Z</time></trkpt><trkpt lat="39.7016235" lon="-0.7140599"><ele>324.2</ele><time>2026-04-04T11:01:32.589Z</time></trkpt><trkpt lat="39.7015148" lon="-0.7140232"><ele>323.4</ele><time>2026-04-04T11:01:33.588Z</time></trkpt><trkpt lat="39.7014186" lon="-0.7139898"><ele>322.6</ele><time>2026-04-04T11:01:34.589Z</time></trkpt><trkpt lat="39.701323" lon="-0.7139362"><ele>321.8</ele><time>2026-04-04T11:01:35.589Z</time></trkpt><trkpt lat="39.7012473" lon="-0.7138769"><ele>321.0</ele><time>2026-04-04T11:01:36.589Z</time></trkpt><trkpt lat="39.7011824" lon="-0.713822"><ele>321.0</ele><time>2026-04-04T11:01:37.589Z</time></trkpt><trkpt lat="39.7011018" lon="-0.7137324"><ele>321.0</ele><time>2026-04-04T11:01:39.588Z</time></trkpt><trkpt lat="39.7010358" lon="-0.7136802"><ele>321.0</ele><time>2026-04-04T11:01:41.589Z</time></trkpt><trkpt lat="39.7009606" lon="-0.7136648"><ele>321.0</ele><time>2026-04-04T11:01:44.588Z</time></trkpt><trkpt lat="39.7009079" lon="-0.7136142"><ele>321.0</ele><time>2026-04-04T11:01:46.589Z</time></trkpt><trkpt lat="39.7008545" lon="-0.7135513"><ele>321.0</ele><time>2026-04-04T11:01:49.589Z</time></trkpt><trkpt lat="39.7007517" lon="-0.7134895"><ele>320.8333333333333</ele><time>2026-04-04T11:01:51.589Z</time></trkpt><trkpt lat="39.7006869" lon="-0.7134258"><ele>320.6666666666667</ele><time>2026-04-04T11:01:52.59Z</time></trkpt><trkpt lat="39.7006244" lon="-0.7133578"><ele>320.5</ele><time>2026-04-04T11:01:53.588Z</time></trkpt><trkpt lat="39.7005714" lon="-0.7133052"><ele>320.33333333333337</ele><time>2026-04-04T11:01:54.589Z</time></trkpt><trkpt lat="39.700489" lon="-0.7132353"><ele>320.1666666666667</ele><time>2026-04-04T11:01:56.589Z</time></trkpt><trkpt lat="39.7004327" lon="-0.7131805"><ele>320.0</ele><time>2026-04-04T11:01:58.588Z</time></trkpt><trkpt lat="39.7003741" lon="-0.7130594"><ele>320.0</ele><time>2026-04-04T11:02:00.589Z</time></trkpt><trkpt lat="39.7002597" lon="-0.7129753"><ele>320.0</ele><time>2026-04-04T11:02:02.588Z</time></trkpt><trkpt lat="39.7001917" lon="-0.7128999"><ele>320.0</ele><time>2026-04-04T11:02:03.588Z</time></trkpt><trkpt lat="39.7001211" lon="-0.7128414"><ele>320.0</ele><time>2026-04-04T11:02:04.588Z</time></trkpt><trkpt lat="39.700057" lon="-0.7127996"><ele>320.0</ele><time>2026-04-04T11:02:05.589Z</time></trkpt><trkpt lat="39.6999919" lon="-0.7127652"><ele>320.0</ele><time>2026-04-04T11:02:06.589Z</time></trkpt><trkpt lat="39.6998789" lon="-0.7126919"><ele>319.2</ele><time>2026-04-04T11:02:08.588Z</time></trkpt><trkpt lat="39.6998291" lon="-0.7126413"><ele>318.4</ele><time>2026-04-04T11:02:09.589Z</time></trkpt><trkpt lat="39.6997619" lon="-0.7125133"><ele>317.6</ele><time>2026-04-04T11:02:11.587Z</time></trkpt><trkpt lat="39.6997376" lon="-0.7124163"><ele>316.8</ele><time>2026-04-04T11:02:12.588Z</time></trkpt><trkpt lat="39.6996899" lon="-0.712254"><ele>316.0</ele><time>2026-04-04T11:02:14.587Z</time></trkpt><trkpt lat="39.699648" lon="-0.7121286"><ele>316.0</ele><time>2026-04-04T11:02:16.589Z</time></trkpt><trkpt lat="39.6996041" lon="-0.7120432"><ele>316.0</ele><time>2026-04-04T11:02:18.589Z</time></trkpt><trkpt lat="39.6995293" lon="-0.7119912"><ele>316.0</ele><time>2026-04-04T11:02:20.59Z</time></trkpt><trkpt lat="39.6994562" lon="-0.711973"><ele>316.0</ele><time>2026-04-04T11:02:21.588Z</time></trkpt><trkpt lat="39.6993568" lon="-0.711953"><ele>316.0</ele><time>2026-04-04T11:02:22.59Z</time></trkpt><trkpt lat="39.6992532" lon="-0.7119276"><ele>316.0</ele><time>2026-04-04T11:02:23.589Z</time></trkpt><trkpt lat="39.699117" lon="-0.7119018"><ele>316.25</ele><time>2026-04-04T11:02:24.588Z</time></trkpt><trkpt lat="39.6989901" lon="-0.7118753"><ele>316.5</ele><time>2026-04-04T11:02:25.588Z</time></trkpt><trkpt lat="39.6988768" lon="-0.7118497"><ele>316.75</ele><time>2026-04-04T11:02:26.59Z</time></trkpt><trkpt lat="39.6987697" lon="-0.71182"><ele>317.0</ele><time>2026-04-04T11:02:27.588Z</time></trkpt><trkpt lat="39.6986749" lon="-0.7117822"><ele>317.0</ele><time>2026-04-04T11:02:28.59Z</time></trkpt><trkpt lat="39.6985872" lon="-0.7117511"><ele>317.0</ele><time>2026-04-04T11:02:29.588Z</time></trkpt><trkpt lat="39.6985149" lon="-0.7117067"><ele>317.0</ele><time>2026-04-04T11:02:30.588Z</time></trkpt><trkpt lat="39.6984489" lon="-0.7116672"><ele>317.0</ele><time>2026-04-04T11:02:31.59Z</time></trkpt><trkpt lat="39.6983789" lon="-0.7116238"><ele>317.0</ele><time>2026-04-04T11:02:32.588Z</time></trkpt><trkpt lat="39.6982996" lon="-0.7115671"><ele>317.0</ele><time>2026-04-04T11:02:33.587Z</time></trkpt><trkpt lat="39.6982168" lon="-0.7115123"><ele>316.57142857142856</ele><time>2026-04-04T11:02:34.588Z</time></trkpt><trkpt lat="39.6981371" lon="-0.7114587"><ele>316.1428571428571</ele><time>2026-04-04T11:02:35.589Z</time></trkpt><trkpt lat="39.6980663" lon="-0.7114111"><ele>315.71428571428567</ele><time>2026-04-04T11:02:36.587Z</time></trkpt><trkpt lat="39.6980007" lon="-0.7113694"><ele>315.2857142857143</ele><time>2026-04-04T11:02:37.589Z</time></trkpt><trkpt lat="39.6979416" lon="-0.7113388"><ele>314.85714285714283</ele><time>2026-04-04T11:02:38.588Z</time></trkpt><trkpt lat="39.6978758" lon="-0.7113389"><ele>314.4285714285714</ele><time>2026-04-04T11:02:39.59Z</time></trkpt><trkpt lat="39.6978104" lon="-0.7113501"><ele>314.0</ele><time>2026-04-04T11:02:40.589Z</time></trkpt><trkpt lat="39.6977362" lon="-0.7113758"><ele>313.2</ele><time>2026-04-04T11:02:41.589Z</time></trkpt><trkpt lat="39.6976397" lon="-0.7114085"><ele>312.4</ele><time>2026-04-04T11:02:43.588Z</time></trkpt><trkpt lat="39.6975738" lon="-0.7114345"><ele>311.6</ele><time>2026-04-04T11:02:52.589Z</time></trkpt><trkpt lat="39.6974934" lon="-0.7114067"><ele>310.8</ele><time>2026-04-04T11:02:57.589Z</time></trkpt><trkpt lat="39.6974039" lon="-0.7113612"><ele>310.0</ele><time>2026-04-04T11:02:59.587Z</time></trkpt><trkpt lat="39.6972717" lon="-0.7113212"><ele>310.0</ele><time>2026-04-04T11:03:01.589Z</time></trkpt><trkpt lat="39.6971791" lon="-0.7112867"><ele>310.0</ele><time>2026-04-04T11:03:02.587Z</time></trkpt><trkpt lat="39.6970862" lon="-0.7112372"><ele>310.0</ele><time>2026-04-04T11:03:03.589Z</time></trkpt><trkpt lat="39.6969748" lon="-0.7111747"><ele>310.0</ele><time>2026-04-04T11:03:04.589Z</time></trkpt><trkpt lat="39.6968743" lon="-0.7111052"><ele>310.0</ele><time>2026-04-04T11:03:05.589Z</time></trkpt><trkpt lat="39.6967839" lon="-0.7110367"><ele>310.0</ele><time>2026-04-04T11:03:06.588Z</time></trkpt><trkpt lat="39.6966973" lon="-0.7109605"><ele>310.0</ele><time>2026-04-04T11:03:07.588Z</time></trkpt><trkpt lat="39.6966126" lon="-0.710895"><ele>310.0</ele><time>2026-04-04T11:03:08.589Z</time></trkpt><trkpt lat="39.6965284" lon="-0.7108182"><ele>310.0</ele><time>2026-04-04T11:03:09.589Z</time></trkpt><trkpt lat="39.6964421" lon="-0.7107354"><ele>310.0</ele><time>2026-04-04T11:03:10.59Z</time></trkpt><trkpt lat="39.6963613" lon="-0.7106494"><ele>310.0</ele><time>2026-04-04T11:03:11.589Z</time></trkpt><trkpt lat="39.6962867" lon="-0.7105583"><ele>310.0</ele><time>2026-04-04T11:03:12.589Z</time></trkpt><trkpt lat="39.6962059" lon="-0.710479"><ele>310.0</ele><time>2026-04-04T11:03:13.587Z</time></trkpt><trkpt lat="39.6961175" lon="-0.7103996"><ele>310.0</ele><time>2026-04-04T11:03:14.588Z</time></trkpt><trkpt lat="39.6960175" lon="-0.7103222"><ele>310.0</ele><time>2026-04-04T11:03:15.588Z</time></trkpt><trkpt lat="39.695903" lon="-0.7102368"><ele>308.75</ele><time>2026-04-04T11:03:16.588Z</time></trkpt><trkpt lat="39.6957905" lon="-0.7101483"><ele>307.5</ele><time>2026-04-04T11:03:17.589Z</time></trkpt><trkpt lat="39.6956812" lon="-0.7100633"><ele>306.25</ele><time>2026-04-04T11:03:18.588Z</time></trkpt><trkpt lat="39.6955676" lon="-0.7099675"><ele>305.0</ele><time>2026-04-04T11:03:19.59Z</time></trkpt><trkpt lat="39.6954632" lon="-0.7098741"><ele>305.0</ele><time>2026-04-04T11:03:20.588Z</time></trkpt><trkpt lat="39.6953667" lon="-0.7097683"><ele>305.0</ele><time>2026-04-04T11:03:21.59Z</time></trkpt><trkpt lat="39.6952681" lon="-0.709665"><ele>305.0</ele><time>2026-04-04T11:03:22.588Z</time></trkpt><trkpt lat="39.6951624" lon="-0.7095459"><ele>305.0</ele><time>2026-04-04T11:03:23.589Z</time></trkpt><trkpt lat="39.6950594" lon="-0.7094154"><ele>304.25</ele><time>2026-04-04T11:03:24.588Z</time></trkpt><trkpt lat="39.6949635" lon="-0.7092886"><ele>303.5</ele><time>2026-04-04T11:03:25.589Z</time></trkpt><trkpt lat="39.6948762" lon="-0.7091728"><ele>302.75</ele><time>2026-04-04T11:03:26.588Z</time></trkpt><trkpt lat="39.6947917" lon="-0.709077"><ele>302.0</ele><time>2026-04-04T11:03:27.589Z</time></trkpt><trkpt lat="39.6947111" lon="-0.7089806"><ele>302.0</ele><time>2026-04-04T11:03:28.588Z</time></trkpt><trkpt lat="39.6946224" lon="-0.7088838"><ele>302.0</ele><time>2026-04-04T11:03:29.59Z</time></trkpt><trkpt lat="39.6945309" lon="-0.7087873"><ele>302.0</ele><time>2026-04-04T11:03:30.588Z</time></trkpt><trkpt lat="39.6944375" lon="-0.7086708"><ele>302.0</ele><time>2026-04-04T11:03:31.589Z</time></trkpt><trkpt lat="39.694355" lon="-0.708578"><ele>301.0</ele><time>2026-04-04T11:03:32.589Z</time></trkpt><trkpt lat="39.6942706" lon="-0.7084893"><ele>300.0</ele><time>2026-04-04T11:03:33.588Z</time></trkpt><trkpt lat="39.6941854" lon="-0.7084248"><ele>299.0</ele><time>2026-04-04T11:03:34.589Z</time></trkpt><trkpt lat="39.6940842" lon="-0.7083715"><ele>298.0</ele><time>2026-04-04T11:03:35.589Z</time></trkpt><trkpt lat="39.6939658" lon="-0.7083123"><ele>297.0</ele><time>2026-04-04T11:03:36.589Z</time></trkpt><trkpt lat="39.6938424" lon="-0.7082661"><ele>297.0</ele><time>2026-04-04T11:03:37.589Z</time></trkpt><trkpt lat="39.6937296" lon="-0.7082171"><ele>297.0</ele><time>2026-04-04T11:03:38.589Z</time></trkpt><trkpt lat="39.6936116" lon="-0.7081762"><ele>297.0</ele><time>2026-04-04T11:03:39.589Z</time></trkpt><trkpt lat="39.6934953" lon="-0.7081372"><ele>297.0</ele><time>2026-04-04T11:03:40.589Z</time></trkpt><trkpt lat="39.6933862" lon="-0.7080939"><ele>296.6</ele><time>2026-04-04T11:03:41.588Z</time></trkpt><trkpt lat="39.6932827" lon="-0.7080674"><ele>296.2</ele><time>2026-04-04T11:03:42.588Z</time></trkpt><trkpt lat="39.6931891" lon="-0.7080336"><ele>295.8</ele><time>2026-04-04T11:03:43.588Z</time></trkpt><trkpt lat="39.6930877" lon="-0.7079918"><ele>295.4</ele><time>2026-04-04T11:03:44.589Z</time></trkpt><trkpt lat="39.692979" lon="-0.7079327"><ele>295.0</ele><time>2026-04-04T11:03:45.589Z</time></trkpt><trkpt lat="39.6928887" lon="-0.7078837"><ele>295.0</ele><time>2026-04-04T11:03:46.588Z</time></trkpt><trkpt lat="39.6927948" lon="-0.7078237"><ele>295.0</ele><time>2026-04-04T11:03:47.589Z</time></trkpt><trkpt lat="39.6927086" lon="-0.7077781"><ele>295.0</ele><time>2026-04-04T11:03:48.588Z</time></trkpt><trkpt lat="39.6926077" lon="-0.7077175"><ele>295.0</ele><time>2026-04-04T11:03:49.589Z</time></trkpt><trkpt lat="39.6925106" lon="-0.7076736"><ele>295.0</ele><time>2026-04-04T11:03:50.588Z</time></trkpt><trkpt lat="39.6924218" lon="-0.7076195"><ele>295.16666666666663</ele><time>2026-04-04T11:03:51.588Z</time></trkpt><trkpt lat="39.6923413" lon="-0.707562"><ele>295.3333333333333</ele><time>2026-04-04T11:03:52.588Z</time></trkpt><trkpt lat="39.6922627" lon="-0.7075116"><ele>295.5</ele><time>2026-04-04T11:03:53.588Z</time></trkpt><trkpt lat="39.6921974" lon="-0.7074544"><ele>295.6666666666667</ele><time>2026-04-04T11:03:54.587Z</time></trkpt><trkpt lat="39.6921397" lon="-0.7073964"><ele>295.83333333333337</ele><time>2026-04-04T11:03:55.587Z</time></trkpt><trkpt lat="39.6920807" lon="-0.7073564"><ele>296.0</ele><time>2026-04-04T11:03:56.588Z</time></trkpt><trkpt lat="39.6919596" lon="-0.7073317"><ele>295.0</ele><time>2026-04-04T11:03:58.589Z</time></trkpt><trkpt lat="39.6918891" lon="-0.7073227"><ele>294.0</ele><time>2026-04-04T11:03:59.589Z</time></trkpt><trkpt lat="39.6917891" lon="-0.7072959"><ele>293.0</ele><time>2026-04-04T11:04:00.589Z</time></trkpt><trkpt lat="39.6916978" lon="-0.7072643"><ele>292.0</ele><time>2026-04-04T11:04:01.588Z</time></trkpt><trkpt lat="39.6916126" lon="-0.7072444"><ele>291.0</ele><time>2026-04-04T11:04:02.588Z</time></trkpt><trkpt lat="39.6915459" lon="-0.7072426"><ele>290.0</ele><time>2026-04-04T11:04:03.588Z</time></trkpt><trkpt lat="39.6914332" lon="-0.7072069"><ele>290.0</ele><time>2026-04-04T11:04:05.587Z</time></trkpt><trkpt lat="39.691332" lon="-0.7071094"><ele>290.0</ele><time>2026-04-04T11:04:07.59Z</time></trkpt><trkpt lat="39.6912406" lon="-0.7070274"><ele>290.0</ele><time>2026-04-04T11:04:09.589Z</time></trkpt><trkpt lat="39.6911282" lon="-0.7070107"><ele>290.0</ele><time>2026-04-04T11:04:11.588Z</time></trkpt><trkpt lat="39.6909955" lon="-0.7069827"><ele>290.0</ele><time>2026-04-04T11:04:13.589Z</time></trkpt><trkpt lat="39.6909229" lon="-0.7069488"><ele>290.0</ele><time>2026-04-04T11:04:14.588Z</time></trkpt><trkpt lat="39.6908504" lon="-0.7069119"><ele>290.0</ele><time>2026-04-04T11:04:15.588Z</time></trkpt><trkpt lat="39.6907812" lon="-0.7068747"><ele>290.0</ele><time>2026-04-04T11:04:16.589Z</time></trkpt><trkpt lat="39.6907126" lon="-0.7068445"><ele>290.0</ele><time>2026-04-04T11:04:17.588Z</time></trkpt><trkpt lat="39.6905901" lon="-0.7067953"><ele>290.0</ele><time>2026-04-04T11:04:19.588Z</time></trkpt><trkpt lat="39.6904775" lon="-0.7067139"><ele>289.83333333333337</ele><time>2026-04-04T11:04:21.589Z</time></trkpt><trkpt lat="39.6904142" lon="-0.7066587"><ele>289.6666666666667</ele><time>2026-04-04T11:04:22.588Z</time></trkpt><trkpt lat="39.6903383" lon="-0.7066009"><ele>289.5</ele><time>2026-04-04T11:04:23.589Z</time></trkpt><trkpt lat="39.6902717" lon="-0.7065434"><ele>289.3333333333333</ele><time>2026-04-04T11:04:24.59Z</time></trkpt><trkpt lat="39.6902149" lon="-0.7064818"><ele>289.16666666666663</ele><time>2026-04-04T11:04:25.588Z</time></trkpt><trkpt lat="39.6901032" lon="-0.7064025"><ele>289.0</ele><time>2026-04-04T11:04:27.59Z</time></trkpt><trkpt lat="39.6900418" lon="-0.7063764"><ele>288.3333333333333</ele><time>2026-04-04T11:04:28.587Z</time></trkpt><trkpt lat="39.6899818" lon="-0.7063439"><ele>287.66666666666663</ele><time>2026-04-04T11:04:29.589Z</time></trkpt><trkpt lat="39.6899112" lon="-0.7063131"><ele>287.0</ele><time>2026-04-04T11:04:30.587Z</time></trkpt><trkpt lat="39.689807" lon="-0.7062859"><ele>286.3333333333333</ele><time>2026-04-04T11:04:32.588Z</time></trkpt><trkpt lat="39.6897265" lon="-0.7062592"><ele>285.6666666666667</ele><time>2026-04-04T11:04:34.588Z</time></trkpt><trkpt lat="39.6896637" lon="-0.7062513"><ele>285.0</ele><time>2026-04-04T11:04:36.589Z</time></trkpt><trkpt lat="39.68951" lon="-0.7062248"><ele>284.6</ele><time>2026-04-04T11:04:39.589Z</time></trkpt><trkpt lat="39.6894194" lon="-0.7061773"><ele>284.2</ele><time>2026-04-04T11:04:41.588Z</time></trkpt><trkpt lat="39.6893278" lon="-0.7060644"><ele>283.8</ele><time>2026-04-04T11:04:43.589Z</time></trkpt><trkpt lat="39.6892544" lon="-0.7059675"><ele>283.4</ele><time>2026-04-04T11:04:45.589Z</time></trkpt><trkpt lat="39.6892081" lon="-0.7058906"><ele>283.0</ele><time>2026-04-04T11:04:47.587Z</time></trkpt><trkpt lat="39.6891582" lon="-0.7058331"><ele>283.0</ele><time>2026-04-04T11:04:50.587Z</time></trkpt><trkpt lat="39.6890953" lon="-0.705826"><ele>283.0</ele><time>2026-04-04T11:04:52.589Z</time></trkpt><trkpt lat="39.6890206" lon="-0.7058941"><ele>283.0</ele><time>2026-04-04T11:04:55.589Z</time></trkpt><trkpt lat="39.6889467" lon="-0.7059159"><ele>283.0</ele><time>2026-04-04T11:04:57.589Z</time></trkpt><trkpt lat="39.6888542" lon="-0.7058925"><ele>283.0</ele><time>2026-04-04T11:04:59.59Z</time></trkpt><trkpt lat="39.6887763" lon="-0.7058637"><ele>283.0</ele><time>2026-04-04T11:05:01.59Z</time></trkpt><trkpt lat="39.6887309" lon="-0.705783"><ele>283.0</ele><time>2026-04-04T11:05:03.589Z</time></trkpt><trkpt lat="39.6886899" lon="-0.7057065"><ele>283.0</ele><time>2026-04-04T11:05:04.59Z</time></trkpt><trkpt lat="39.6886426" lon="-0.7056199"><ele>283.0</ele><time>2026-04-04T11:05:05.588Z</time></trkpt><trkpt lat="39.6885905" lon="-0.7055373"><ele>283.0</ele><time>2026-04-04T11:05:06.588Z</time></trkpt><trkpt lat="39.688536" lon="-0.7054685"><ele>283.0</ele><time>2026-04-04T11:05:07.589Z</time></trkpt><trkpt lat="39.688488" lon="-0.7054057"><ele>283.0</ele><time>2026-04-04T11:05:08.588Z</time></trkpt><trkpt lat="39.688426" lon="-0.7053082"><ele>282.8</ele><time>2026-04-04T11:05:10.589Z</time></trkpt><trkpt lat="39.6883666" lon="-0.7052608"><ele>282.6</ele><time>2026-04-04T11:05:12.589Z</time></trkpt><trkpt lat="39.6882831" lon="-0.7052148"><ele>282.4</ele><time>2026-04-04T11:05:14.588Z</time></trkpt><trkpt lat="39.6881805" lon="-0.7052277"><ele>282.2</ele><time>2026-04-04T11:05:16.587Z</time></trkpt><trkpt lat="39.6880794" lon="-0.7052363"><ele>282.0</ele><time>2026-04-04T11:05:18.588Z</time></trkpt><trkpt lat="39.6879755" lon="-0.7051845"><ele>282.0</ele><time>2026-04-04T11:05:20.588Z</time></trkpt><trkpt lat="39.6879164" lon="-0.7051421"><ele>282.0</ele><time>2026-04-04T11:05:21.588Z</time></trkpt><trkpt lat="39.687856" lon="-0.7051101"><ele>282.0</ele><time>2026-04-04T11:05:22.588Z</time></trkpt><trkpt lat="39.6877851" lon="-0.7050808"><ele>282.0</ele><time>2026-04-04T11:05:23.588Z</time></trkpt><trkpt lat="39.6877172" lon="-0.7050465"><ele>282.0</ele><time>2026-04-04T11:05:24.588Z</time></trkpt><trkpt lat="39.6876098" lon="-0.7050244"><ele>282.0</ele><time>2026-04-04T11:05:26.587Z</time></trkpt><trkpt lat="39.6875375" lon="-0.705026"><ele>281.1666666666667</ele><time>2026-04-04T11:05:28.588Z</time></trkpt><trkpt lat="39.6874701" lon="-0.7050539"><ele>280.3333333333333</ele><time>2026-04-04T11:05:30.587Z</time></trkpt><trkpt lat="39.6874068" lon="-0.7050418"><ele>279.5</ele><time>2026-04-04T11:05:32.589Z</time></trkpt><trkpt lat="39.6873327" lon="-0.7049554"><ele>278.66666666666663</ele><time>2026-04-04T11:05:35.589Z</time></trkpt><trkpt lat="39.6872343" lon="-0.7048749"><ele>277.8333333333333</ele><time>2026-04-04T11:05:37.589Z</time></trkpt><trkpt lat="39.6871735" lon="-0.7048372"><ele>277.0</ele><time>2026-04-04T11:05:38.588Z</time></trkpt><trkpt lat="39.6871152" lon="-0.7047762"><ele>277.0</ele><time>2026-04-04T11:05:39.587Z</time></trkpt><trkpt lat="39.6870595" lon="-0.7046903"><ele>277.0</ele><time>2026-04-04T11:05:40.588Z</time></trkpt><trkpt lat="39.687014" lon="-0.7046125"><ele>277.0</ele><time>2026-04-04T11:05:41.587Z</time></trkpt><trkpt lat="39.686974" lon="-0.7045421"><ele>277.0</ele><time>2026-04-04T11:05:42.587Z</time></trkpt><trkpt lat="39.6869365" lon="-0.7044713"><ele>277.0</ele><time>2026-04-04T11:05:43.588Z</time></trkpt><trkpt lat="39.6868894" lon="-0.7044137"><ele>277.0</ele><time>2026-04-04T11:05:44.588Z</time></trkpt><trkpt lat="39.6867959" lon="-0.7043148"><ele>276.8333333333333</ele><time>2026-04-04T11:05:46.588Z</time></trkpt><trkpt lat="39.6867151" lon="-0.704201"><ele>276.66666666666663</ele><time>2026-04-04T11:05:48.588Z</time></trkpt><trkpt lat="39.6866726" lon="-0.7041373"><ele>276.5</ele><time>2026-04-04T11:05:49.587Z</time></trkpt><trkpt lat="39.6866411" lon="-0.7040649"><ele>276.3333333333333</ele><time>2026-04-04T11:05:50.588Z</time></trkpt><trkpt lat="39.6865876" lon="-0.7039718"><ele>276.1666666666667</ele><time>2026-04-04T11:05:51.588Z</time></trkpt><trkpt lat="39.686544" lon="-0.7038964"><ele>276.0</ele><time>2026-04-04T11:05:52.587Z</time></trkpt><trkpt lat="39.6864987" lon="-0.7038305"><ele>276.0</ele><time>2026-04-04T11:05:53.588Z</time></trkpt><trkpt lat="39.6864119" lon="-0.7037338"><ele>276.0</ele><time>2026-04-04T11:05:55.587Z</time></trkpt><trkpt lat="39.6863165" lon="-0.7036672"><ele>276.0</ele><time>2026-04-04T11:05:57.588Z</time></trkpt><trkpt lat="39.686259" lon="-0.7035926"><ele>276.0</ele><time>2026-04-04T11:05:59.588Z</time></trkpt><trkpt lat="39.6862259" lon="-0.7035117"><ele>276.0</ele><time>2026-04-04T11:06:01.588Z</time></trkpt><trkpt lat="39.6861803" lon="-0.7034077"><ele>276.0</ele><time>2026-04-04T11:06:03.589Z</time></trkpt><trkpt lat="39.6861051" lon="-0.7032914"><ele>276.0</ele><time>2026-04-04T11:06:05.589Z</time></trkpt><trkpt lat="39.6860408" lon="-0.7031958"><ele>276.0</ele><time>2026-04-04T11:06:07.589Z</time></trkpt><trkpt lat="39.686011" lon="-0.7030975"><ele>276.0</ele><time>2026-04-04T11:06:09.589Z</time></trkpt><trkpt lat="39.685978" lon="-0.7029825"><ele>276.0</ele><time>2026-04-04T11:06:11.588Z</time></trkpt><trkpt lat="39.6859503" lon="-0.7028744"><ele>276.0</ele><time>2026-04-04T11:06:14.589Z</time></trkpt><trkpt lat="39.6858946" lon="-0.7027731"><ele>276.0</ele><time>2026-04-04T11:06:17.589Z</time></trkpt><trkpt lat="39.6858386" lon="-0.7026997"><ele>276.0</ele><time>2026-04-04T11:06:19.588Z</time></trkpt><trkpt lat="39.6857621" lon="-0.7025982"><ele>276.0</ele><time>2026-04-04T11:06:21.588Z</time></trkpt><trkpt lat="39.6856966" lon="-0.7024678"><ele>276.0</ele><time>2026-04-04T11:06:23.587Z</time></trkpt><trkpt lat="39.6856618" lon="-0.7023259"><ele>276.1666666666667</ele><time>2026-04-04T11:06:25.589Z</time></trkpt><trkpt lat="39.6856363" lon="-0.7022178"><ele>276.3333333333333</ele><time>2026-04-04T11:06:27.589Z</time></trkpt><trkpt lat="39.6855984" lon="-0.7021515"><ele>276.5</ele><time>2026-04-04T11:06:29.588Z</time></trkpt><trkpt lat="39.6855549" lon="-0.7020675"><ele>276.66666666666663</ele><time>2026-04-04T11:06:31.587Z</time></trkpt><trkpt lat="39.6855253" lon="-0.7019665"><ele>276.8333333333333</ele><time>2026-04-04T11:06:33.588Z</time></trkpt><trkpt lat="39.6854612" lon="-0.7018927"><ele>277.0</ele><time>2026-04-04T11:06:35.587Z</time></trkpt><trkpt lat="39.6853618" lon="-0.7018135"><ele>276.16666666666663</ele><time>2026-04-04T11:06:37.588Z</time></trkpt><trkpt lat="39.6852609" lon="-0.7017618"><ele>275.3333333333333</ele><time>2026-04-04T11:06:39.589Z</time></trkpt><trkpt lat="39.6851653" lon="-0.701724"><ele>274.5</ele><time>2026-04-04T11:06:41.588Z</time></trkpt><trkpt lat="39.6851052" lon="-0.7016642"><ele>273.6666666666667</ele><time>2026-04-04T11:06:43.589Z</time></trkpt><trkpt lat="39.6850519" lon="-0.7016164"><ele>272.83333333333337</ele><time>2026-04-04T11:06:46.589Z</time></trkpt><trkpt lat="39.6849791" lon="-0.7015395"><ele>272.0</ele><time>2026-04-04T11:06:49.588Z</time></trkpt><trkpt lat="39.6849119" lon="-0.7014945"><ele>272.0</ele><time>2026-04-04T11:06:51.588Z</time></trkpt><trkpt lat="39.6848497" lon="-0.7014513"><ele>272.0</ele><time>2026-04-04T11:06:53.589Z</time></trkpt><trkpt lat="39.6847838" lon="-0.7014046"><ele>272.0</ele><time>2026-04-04T11:06:55.587Z</time></trkpt><trkpt lat="39.6847087" lon="-0.7013653"><ele>272.0</ele><time>2026-04-04T11:06:57.587Z</time></trkpt><trkpt lat="39.6846485" lon="-0.7012896"><ele>272.0</ele><time>2026-04-04T11:07:00.589Z</time></trkpt><trkpt lat="39.6845747" lon="-0.7012425"><ele>272.0</ele><time>2026-04-04T11:07:03.588Z</time></trkpt><trkpt lat="39.6845052" lon="-0.7011743"><ele>272.2</ele><time>2026-04-04T11:07:05.589Z</time></trkpt><trkpt lat="39.6844146" lon="-0.7010873"><ele>272.4</ele><time>2026-04-04T11:07:07.587Z</time></trkpt><trkpt lat="39.6842981" lon="-0.7010184"><ele>272.6</ele><time>2026-04-04T11:07:09.588Z</time></trkpt><trkpt lat="39.6842399" lon="-0.7009642"><ele>272.8</ele><time>2026-04-04T11:07:10.588Z</time></trkpt><trkpt lat="39.6841679" lon="-0.700897"><ele>273.0</ele><time>2026-04-04T11:07:11.588Z</time></trkpt><trkpt lat="39.6840992" lon="-0.7008301"><ele>272.3333333333333</ele><time>2026-04-04T11:07:12.588Z</time></trkpt><trkpt lat="39.6840319" lon="-0.7007638"><ele>271.6666666666667</ele><time>2026-04-04T11:07:13.589Z</time></trkpt><trkpt lat="39.6839535" lon="-0.7007002"><ele>271.0</ele><time>2026-04-04T11:07:14.587Z</time></trkpt><trkpt lat="39.6838757" lon="-0.7006303"><ele>270.33333333333337</ele><time>2026-04-04T11:07:15.588Z</time></trkpt><trkpt lat="39.683804" lon="-0.7005691"><ele>269.6666666666667</ele><time>2026-04-04T11:07:16.589Z</time></trkpt><trkpt lat="39.6837376" lon="-0.7005155"><ele>269.0</ele><time>2026-04-04T11:07:17.589Z</time></trkpt><trkpt lat="39.6836723" lon="-0.7004664"><ele>269.0</ele><time>2026-04-04T11:07:18.588Z</time></trkpt><trkpt lat="39.683598" lon="-0.7004248"><ele>269.0</ele><time>2026-04-04T11:07:19.588Z</time></trkpt><trkpt lat="39.6835241" lon="-0.7003788"><ele>269.0</ele><time>2026-04-04T11:07:20.587Z</time></trkpt><trkpt lat="39.6834441" lon="-0.7003428"><ele>269.0</ele><time>2026-04-04T11:07:21.587Z</time></trkpt><trkpt lat="39.6833729" lon="-0.7003083"><ele>269.0</ele><time>2026-04-04T11:07:22.589Z</time></trkpt><trkpt lat="39.6832967" lon="-0.7002639"><ele>269.0</ele><time>2026-04-04T11:07:23.587Z</time></trkpt><trkpt lat="39.683226" lon="-0.7002275"><ele>268.1666666666667</ele><time>2026-04-04T11:07:24.588Z</time></trkpt><trkpt lat="39.6831448" lon="-0.700163"><ele>267.33333333333337</ele><time>2026-04-04T11:07:26.589Z</time></trkpt><trkpt lat="39.6830855" lon="-0.7001296"><ele>266.5</ele><time>2026-04-04T11:07:30.587Z</time></trkpt><trkpt lat="39.6830203" lon="-0.7001022"><ele>265.6666666666667</ele><time>2026-04-04T11:07:32.587Z</time></trkpt><trkpt lat="39.6829518" lon="-0.7000964"><ele>264.8333333333333</ele><time>2026-04-04T11:07:37.588Z</time></trkpt><trkpt lat="39.6828652" lon="-0.7000671"><ele>264.0</ele><time>2026-04-04T11:07:39.588Z</time></trkpt><trkpt lat="39.6827492" lon="-0.7000367"><ele>263.5</ele><time>2026-04-04T11:07:41.587Z</time></trkpt><trkpt lat="39.682685" lon="-0.7000242"><ele>263.0</ele><time>2026-04-04T11:07:42.589Z</time></trkpt><trkpt lat="39.6826073" lon="-0.700004"><ele>262.5</ele><time>2026-04-04T11:07:43.587Z</time></trkpt><trkpt lat="39.6825423" lon="-0.6999968"><ele>262.0</ele><time>2026-04-04T11:07:44.587Z</time></trkpt><trkpt lat="39.6824588" lon="-0.7000066"><ele>261.5</ele><time>2026-04-04T11:07:45.589Z</time></trkpt><trkpt lat="39.6823696" lon="-0.7000229"><ele>261.0</ele><time>2026-04-04T11:07:46.588Z</time></trkpt><trkpt lat="39.6822847" lon="-0.700052"><ele>261.0</ele><time>2026-04-04T11:07:47.588Z</time></trkpt><trkpt lat="39.682198" lon="-0.7000879"><ele>261.0</ele><time>2026-04-04T11:07:48.586Z</time></trkpt><trkpt lat="39.6821253" lon="-0.7001149"><ele>261.0</ele><time>2026-04-04T11:07:49.589Z</time></trkpt><trkpt lat="39.6820135" lon="-0.7001554"><ele>261.0</ele><time>2026-04-04T11:07:51.589Z</time></trkpt><trkpt lat="39.6819203" lon="-0.7001916"><ele>261.0</ele><time>2026-04-04T11:07:53.589Z</time></trkpt><trkpt lat="39.6818031" lon="-0.7002166"><ele>261.40000000000003</ele><time>2026-04-04T11:07:55.588Z</time></trkpt><trkpt lat="39.6816851" lon="-0.7002166"><ele>261.8</ele><time>2026-04-04T11:07:57.589Z</time></trkpt><trkpt lat="39.6816077" lon="-0.7001989"><ele>262.20000000000005</ele><time>2026-04-04T11:07:58.588Z</time></trkpt><trkpt lat="39.6815362" lon="-0.7001727"><ele>262.6</ele><time>2026-04-04T11:07:59.587Z</time></trkpt><trkpt lat="39.6814599" lon="-0.7001688"><ele>263.0</ele><time>2026-04-04T11:08:00.587Z</time></trkpt><trkpt lat="39.6813421" lon="-0.7001837"><ele>263.0</ele><time>2026-04-04T11:08:02.589Z</time></trkpt><trkpt lat="39.6812494" lon="-0.7001287"><ele>263.0</ele><time>2026-04-04T11:08:04.588Z</time></trkpt><trkpt lat="39.6811757" lon="-0.7000702"><ele>263.0</ele><time>2026-04-04T11:08:05.587Z</time></trkpt><trkpt lat="39.6810965" lon="-0.7000259"><ele>263.0</ele><time>2026-04-04T11:08:06.588Z</time></trkpt><trkpt lat="39.6810282" lon="-0.6999844"><ele>263.0</ele><time>2026-04-04T11:08:07.588Z</time></trkpt><trkpt lat="39.6809693" lon="-0.6999469"><ele>263.0</ele><time>2026-04-04T11:08:08.586Z</time></trkpt><trkpt lat="39.6808733" lon="-0.699909"><ele>263.0</ele><time>2026-04-04T11:08:10.587Z</time></trkpt><trkpt lat="39.6807667" lon="-0.6999113"><ele>263.0</ele><time>2026-04-04T11:08:12.587Z</time></trkpt><trkpt lat="39.680648" lon="-0.6998872"><ele>263.0</ele><time>2026-04-04T11:08:14.587Z</time></trkpt><trkpt lat="39.6805815" lon="-0.6998613"><ele>263.0</ele><time>2026-04-04T11:08:15.588Z</time></trkpt><trkpt lat="39.6805061" lon="-0.6998453"><ele>263.0</ele><time>2026-04-04T11:08:16.588Z</time></trkpt><trkpt lat="39.6804266" lon="-0.6998216"><ele>263.0</ele><time>2026-04-04T11:08:17.588Z</time></trkpt><trkpt lat="39.6803432" lon="-0.6998044"><ele>263.0</ele><time>2026-04-04T11:08:18.587Z</time></trkpt><trkpt lat="39.6802463" lon="-0.6997882"><ele>263.0</ele><time>2026-04-04T11:08:20.588Z</time></trkpt><trkpt lat="39.6801892" lon="-0.6997375"><ele>263.0</ele><time>2026-04-04T11:08:22.587Z</time></trkpt><trkpt lat="39.680127" lon="-0.6996508"><ele>263.0</ele><time>2026-04-04T11:08:24.588Z</time></trkpt><trkpt lat="39.6800365" lon="-0.6995668"><ele>263.2</ele><time>2026-04-04T11:08:26.587Z</time></trkpt><trkpt lat="39.6799774" lon="-0.6995122"><ele>263.4</ele><time>2026-04-04T11:08:27.588Z</time></trkpt><trkpt lat="39.6798935" lon="-0.6994705"><ele>263.59999999999997</ele><time>2026-04-04T11:08:28.586Z</time></trkpt><trkpt lat="39.6797994" lon="-0.6994132"><ele>263.8</ele><time>2026-04-04T11:08:29.589Z</time></trkpt><trkpt lat="39.6796994" lon="-0.6993278"><ele>264.0</ele><time>2026-04-04T11:08:30.587Z</time></trkpt><trkpt lat="39.679611" lon="-0.6992425"><ele>264.0</ele><time>2026-04-04T11:08:31.588Z</time></trkpt><trkpt lat="39.6795228" lon="-0.6991264"><ele>264.0</ele><time>2026-04-04T11:08:32.588Z</time></trkpt><trkpt lat="39.6794312" lon="-0.6990052"><ele>264.0</ele><time>2026-04-04T11:08:33.589Z</time></trkpt><trkpt lat="39.6793576" lon="-0.6988804"><ele>264.0</ele><time>2026-04-04T11:08:34.587Z</time></trkpt><trkpt lat="39.6792742" lon="-0.6987667"><ele>263.2</ele><time>2026-04-04T11:08:35.587Z</time></trkpt><trkpt lat="39.67919" lon="-0.698657"><ele>262.4</ele><time>2026-04-04T11:08:36.588Z</time></trkpt><trkpt lat="39.6791223" lon="-0.6985467"><ele>261.6</ele><time>2026-04-04T11:08:37.587Z</time></trkpt><trkpt lat="39.6790552" lon="-0.6984232"><ele>260.8</ele><time>2026-04-04T11:08:38.587Z</time></trkpt><trkpt lat="39.6789925" lon="-0.6983194"><ele>260.0</ele><time>2026-04-04T11:08:39.588Z</time></trkpt><trkpt lat="39.6789284" lon="-0.6982294"><ele>259.83333333333337</ele><time>2026-04-04T11:08:40.589Z</time></trkpt><trkpt lat="39.67887" lon="-0.6981552"><ele>259.6666666666667</ele><time>2026-04-04T11:08:41.586Z</time></trkpt><trkpt lat="39.6788147" lon="-0.6980729"><ele>259.5</ele><time>2026-04-04T11:08:42.588Z</time></trkpt><trkpt lat="39.6787636" lon="-0.6980134"><ele>259.3333333333333</ele><time>2026-04-04T11:08:43.587Z</time></trkpt><trkpt lat="39.6786891" lon="-0.6979125"><ele>259.16666666666663</ele><time>2026-04-04T11:08:45.588Z</time></trkpt><trkpt lat="39.6786107" lon="-0.6978345"><ele>259.0</ele><time>2026-04-04T11:08:47.589Z</time></trkpt><trkpt lat="39.6785176" lon="-0.69774"><ele>258.0</ele><time>2026-04-04T11:08:49.587Z</time></trkpt><trkpt lat="39.6784661" lon="-0.6976642"><ele>257.0</ele><time>2026-04-04T11:08:50.588Z</time></trkpt><trkpt lat="39.6784046" lon="-0.6975709"><ele>255.99999999999997</ele><time>2026-04-04T11:08:51.589Z</time></trkpt><trkpt lat="39.678326" lon="-0.6974563"><ele>255.0</ele><time>2026-04-04T11:08:52.587Z</time></trkpt><trkpt lat="39.678254" lon="-0.6973383"><ele>254.0</ele><time>2026-04-04T11:08:53.587Z</time></trkpt><trkpt lat="39.6781864" lon="-0.6972162"><ele>254.0</ele><time>2026-04-04T11:08:54.588Z</time></trkpt><trkpt lat="39.6781215" lon="-0.6970907"><ele>253.99999999999997</ele><time>2026-04-04T11:08:55.589Z</time></trkpt><trkpt lat="39.6780575" lon="-0.696965"><ele>253.99999999999997</ele><time>2026-04-04T11:08:56.587Z</time></trkpt><trkpt lat="39.6779969" lon="-0.6968381"><ele>254.0</ele><time>2026-04-04T11:08:57.588Z</time></trkpt><trkpt lat="39.6779481" lon="-0.6967221"><ele>254.0</ele><time>2026-04-04T11:08:58.588Z</time></trkpt><trkpt lat="39.677902" lon="-0.696615"><ele>254.25</ele><time>2026-04-04T11:08:59.587Z</time></trkpt><trkpt lat="39.6778514" lon="-0.696495"><ele>254.5</ele><time>2026-04-04T11:09:00.588Z</time></trkpt><trkpt lat="39.6777965" lon="-0.6963642"><ele>254.75</ele><time>2026-04-04T11:09:01.588Z</time></trkpt><trkpt lat="39.6777313" lon="-0.6962151"><ele>255.0</ele><time>2026-04-04T11:09:02.588Z</time></trkpt><trkpt lat="39.6776617" lon="-0.6960841"><ele>254.6</ele><time>2026-04-04T11:09:03.588Z</time></trkpt><trkpt lat="39.6775866" lon="-0.6959673"><ele>254.2</ele><time>2026-04-04T11:09:04.588Z</time></trkpt><trkpt lat="39.6775207" lon="-0.6958589"><ele>253.8</ele><time>2026-04-04T11:09:05.588Z</time></trkpt><trkpt lat="39.6774696" lon="-0.6957494"><ele>253.4</ele><time>2026-04-04T11:09:06.588Z</time></trkpt><trkpt lat="39.6774348" lon="-0.69564"><ele>253.0</ele><time>2026-04-04T11:09:07.588Z</time></trkpt><trkpt lat="39.6774182" lon="-0.6955242"><ele>253.0</ele><time>2026-04-04T11:09:08.587Z</time></trkpt><trkpt lat="39.6774129" lon="-0.6953844"><ele>253.0</ele><time>2026-04-04T11:09:09.587Z</time></trkpt><trkpt lat="39.6774169" lon="-0.6952542"><ele>253.0</ele><time>2026-04-04T11:09:10.588Z</time></trkpt><trkpt lat="39.6774296" lon="-0.695129"><ele>253.0</ele><time>2026-04-04T11:09:11.588Z</time></trkpt><trkpt lat="39.6774378" lon="-0.6949965"><ele>253.0</ele><time>2026-04-04T11:09:12.587Z</time></trkpt><trkpt lat="39.6774259" lon="-0.6948771"><ele>252.8</ele><time>2026-04-04T11:09:13.588Z</time></trkpt><trkpt lat="39.6773987" lon="-0.6947543"><ele>252.60000000000002</ele><time>2026-04-04T11:09:14.589Z</time></trkpt><trkpt lat="39.6773573" lon="-0.6946377"><ele>252.39999999999998</ele><time>2026-04-04T11:09:15.589Z</time></trkpt><trkpt lat="39.6772981" lon="-0.6945131"><ele>252.2</ele><time>2026-04-04T11:09:16.589Z</time></trkpt><trkpt lat="39.6772226" lon="-0.6943865"><ele>252.0</ele><time>2026-04-04T11:09:17.589Z</time></trkpt><trkpt lat="39.6771299" lon="-0.6942446"><ele>251.66666666666669</ele><time>2026-04-04T11:09:18.588Z</time></trkpt><trkpt lat="39.6770337" lon="-0.6941003"><ele>251.33333333333334</ele><time>2026-04-04T11:09:19.588Z</time></trkpt><trkpt lat="39.6769377" lon="-0.6939539"><ele>251.0</ele><time>2026-04-04T11:09:20.589Z</time></trkpt><trkpt lat="39.6768357" lon="-0.6937977"><ele>250.66666666666669</ele><time>2026-04-04T11:09:21.588Z</time></trkpt><trkpt lat="39.6767367" lon="-0.693633"><ele>250.33333333333331</ele><time>2026-04-04T11:09:22.588Z</time></trkpt><trkpt lat="39.6766266" lon="-0.6934396"><ele>250.0</ele><time>2026-04-04T11:09:23.587Z</time></trkpt><trkpt lat="39.6765218" lon="-0.6932476"><ele>249.66666666666666</ele><time>2026-04-04T11:09:24.587Z</time></trkpt><trkpt lat="39.6764352" lon="-0.6930596"><ele>249.33333333333331</ele><time>2026-04-04T11:09:25.587Z</time></trkpt><trkpt lat="39.6763449" lon="-0.6928817"><ele>249.0</ele><time>2026-04-04T11:09:26.587Z</time></trkpt><trkpt lat="39.6762584" lon="-0.6927196"><ele>247.75</ele><time>2026-04-04T11:09:27.587Z</time></trkpt><trkpt lat="39.676169" lon="-0.6925667"><ele>246.5</ele><time>2026-04-04T11:09:28.587Z</time></trkpt><trkpt lat="39.6760713" lon="-0.6924125"><ele>245.25</ele><time>2026-04-04T11:09:29.588Z</time></trkpt><trkpt lat="39.6759749" lon="-0.6922738"><ele>244.0</ele><time>2026-04-04T11:09:30.589Z</time></trkpt><trkpt lat="39.6758749" lon="-0.6921504"><ele>244.0</ele><time>2026-04-04T11:09:31.587Z</time></trkpt><trkpt lat="39.6757673" lon="-0.6920402"><ele>244.0</ele><time>2026-04-04T11:09:32.586Z</time></trkpt><trkpt lat="39.6756679" lon="-0.6919392"><ele>244.0</ele><time>2026-04-04T11:09:33.589Z</time></trkpt><trkpt lat="39.6755671" lon="-0.6918484"><ele>244.0</ele><time>2026-04-04T11:09:34.588Z</time></trkpt><trkpt lat="39.6754673" lon="-0.6917699"><ele>244.0</ele><time>2026-04-04T11:09:35.586Z</time></trkpt><trkpt lat="39.6753507" lon="-0.6916902"><ele>244.0</ele><time>2026-04-04T11:09:36.586Z</time></trkpt><trkpt lat="39.6752273" lon="-0.6916105"><ele>244.0</ele><time>2026-04-04T11:09:37.586Z</time></trkpt><trkpt lat="39.6750847" lon="-0.6915249"><ele>244.0</ele><time>2026-04-04T11:09:38.587Z</time></trkpt><trkpt lat="39.674932" lon="-0.6914314"><ele>243.0</ele><time>2026-04-04T11:09:39.589Z</time></trkpt><trkpt lat="39.6747818" lon="-0.6913538"><ele>242.0</ele><time>2026-04-04T11:09:40.587Z</time></trkpt><trkpt lat="39.6746445" lon="-0.6912767"><ele>241.0</ele><time>2026-04-04T11:09:41.587Z</time></trkpt><trkpt lat="39.6745201" lon="-0.6912157"><ele>240.0</ele><time>2026-04-04T11:09:42.588Z</time></trkpt><trkpt lat="39.6744036" lon="-0.6911553"><ele>240.0</ele><time>2026-04-04T11:09:43.589Z</time></trkpt><trkpt lat="39.674288" lon="-0.691114"><ele>240.0</ele><time>2026-04-04T11:09:44.586Z</time></trkpt><trkpt lat="39.6741788" lon="-0.6910723"><ele>240.0</ele><time>2026-04-04T11:09:45.587Z</time></trkpt><trkpt lat="39.6740678" lon="-0.6910472"><ele>240.0</ele><time>2026-04-04T11:09:46.588Z</time></trkpt><trkpt lat="39.6739494" lon="-0.6910345"><ele>239.75</ele><time>2026-04-04T11:09:47.587Z</time></trkpt><trkpt lat="39.6738225" lon="-0.6910247"><ele>239.5</ele><time>2026-04-04T11:09:48.588Z</time></trkpt><trkpt lat="39.6736938" lon="-0.6910223"><ele>239.25</ele><time>2026-04-04T11:09:49.587Z</time></trkpt><trkpt lat="39.673581" lon="-0.6910204"><ele>239.0</ele><time>2026-04-04T11:09:50.586Z</time></trkpt><trkpt lat="39.6734781" lon="-0.6910292"><ele>238.79999999999998</ele><time>2026-04-04T11:09:51.586Z</time></trkpt><trkpt lat="39.6733833" lon="-0.691035"><ele>238.59999999999997</ele><time>2026-04-04T11:09:52.587Z</time></trkpt><trkpt lat="39.6732859" lon="-0.691042"><ele>238.4</ele><time>2026-04-04T11:09:53.588Z</time></trkpt><trkpt lat="39.6731904" lon="-0.6910408"><ele>238.2</ele><time>2026-04-04T11:09:54.588Z</time></trkpt><trkpt lat="39.6730911" lon="-0.6910225"><ele>238.0</ele><time>2026-04-04T11:09:55.589Z</time></trkpt><trkpt lat="39.672971" lon="-0.6909884"><ele>238.0</ele><time>2026-04-04T11:09:56.589Z</time></trkpt><trkpt lat="39.6728486" lon="-0.6909267"><ele>238.0</ele><time>2026-04-04T11:09:57.588Z</time></trkpt><trkpt lat="39.6727243" lon="-0.6908498"><ele>238.0</ele><time>2026-04-04T11:09:58.586Z</time></trkpt><trkpt lat="39.6726097" lon="-0.6907726"><ele>238.0</ele><time>2026-04-04T11:09:59.587Z</time></trkpt><trkpt lat="39.6725002" lon="-0.6906989"><ele>237.5</ele><time>2026-04-04T11:10:00.587Z</time></trkpt><trkpt lat="39.6723932" lon="-0.6906257"><ele>237.0</ele><time>2026-04-04T11:10:01.589Z</time></trkpt><trkpt lat="39.6722804" lon="-0.6905677"><ele>236.5</ele><time>2026-04-04T11:10:02.589Z</time></trkpt><trkpt lat="39.6721725" lon="-0.69052"><ele>236.0</ele><time>2026-04-04T11:10:03.589Z</time></trkpt><trkpt lat="39.6720527" lon="-0.6904751"><ele>236.0</ele><time>2026-04-04T11:10:04.587Z</time></trkpt><trkpt lat="39.6719406" lon="-0.6904393"><ele>236.0</ele><time>2026-04-04T11:10:05.587Z</time></trkpt><trkpt lat="39.6718385" lon="-0.6903906"><ele>236.0</ele><time>2026-04-04T11:10:06.586Z</time></trkpt><trkpt lat="39.6717317" lon="-0.6903292"><ele>236.0</ele><time>2026-04-04T11:10:07.588Z</time></trkpt><trkpt lat="39.6716252" lon="-0.6902548"><ele>234.8</ele><time>2026-04-04T11:10:08.588Z</time></trkpt><trkpt lat="39.6715203" lon="-0.690177"><ele>233.60000000000002</ele><time>2026-04-04T11:10:09.587Z</time></trkpt><trkpt lat="39.6714212" lon="-0.6901044"><ele>232.4</ele><time>2026-04-04T11:10:10.587Z</time></trkpt><trkpt lat="39.6713326" lon="-0.6900359"><ele>231.2</ele><time>2026-04-04T11:10:11.589Z</time></trkpt><trkpt lat="39.6712489" lon="-0.6899666"><ele>230.0</ele><time>2026-04-04T11:10:12.589Z</time></trkpt><trkpt lat="39.6711695" lon="-0.6899086"><ele>230.16666666666669</ele><time>2026-04-04T11:10:13.588Z</time></trkpt><trkpt lat="39.6710905" lon="-0.6898573"><ele>230.33333333333334</ele><time>2026-04-04T11:10:14.587Z</time></trkpt><trkpt lat="39.6710109" lon="-0.6898133"><ele>230.5</ele><time>2026-04-04T11:10:15.587Z</time></trkpt><trkpt lat="39.6709293" lon="-0.6897776"><ele>230.66666666666669</ele><time>2026-04-04T11:10:16.587Z</time></trkpt><trkpt lat="39.6708487" lon="-0.6897522"><ele>230.83333333333334</ele><time>2026-04-04T11:10:17.589Z</time></trkpt><trkpt lat="39.6707676" lon="-0.6897333"><ele>231.0</ele><time>2026-04-04T11:10:18.586Z</time></trkpt><trkpt lat="39.670688" lon="-0.6897194"><ele>231.0</ele><time>2026-04-04T11:10:19.586Z</time></trkpt><trkpt lat="39.6706151" lon="-0.6897054"><ele>231.0</ele><time>2026-04-04T11:10:20.589Z</time></trkpt><trkpt lat="39.6704974" lon="-0.6896454"><ele>231.0</ele><time>2026-04-04T11:10:22.588Z</time></trkpt><trkpt lat="39.6704438" lon="-0.6895926"><ele>231.0</ele><time>2026-04-04T11:10:23.589Z</time></trkpt><trkpt lat="39.6704033" lon="-0.6895255"><ele>231.0</ele><time>2026-04-04T11:10:24.587Z</time></trkpt><trkpt lat="39.6703717" lon="-0.689452"><ele>231.0</ele><time>2026-04-04T11:10:25.589Z</time></trkpt><trkpt lat="39.6703532" lon="-0.6893636"><ele>229.60000000000002</ele><time>2026-04-04T11:10:26.587Z</time></trkpt><trkpt lat="39.670339" lon="-0.6892563"><ele>228.20000000000002</ele><time>2026-04-04T11:10:27.587Z</time></trkpt><trkpt lat="39.6703218" lon="-0.6891499"><ele>226.79999999999998</ele><time>2026-04-04T11:10:28.587Z</time></trkpt><trkpt lat="39.6703103" lon="-0.6890379"><ele>225.39999999999998</ele><time>2026-04-04T11:10:29.588Z</time></trkpt><trkpt lat="39.6703042" lon="-0.6889066"><ele>224.0</ele><time>2026-04-04T11:10:30.588Z</time></trkpt><trkpt lat="39.6703062" lon="-0.6887755"><ele>224.0</ele><time>2026-04-04T11:10:31.588Z</time></trkpt><trkpt lat="39.6703153" lon="-0.6886515"><ele>224.0</ele><time>2026-04-04T11:10:32.587Z</time></trkpt><trkpt lat="39.6703436" lon="-0.6885109"><ele>224.0</ele><time>2026-04-04T11:10:33.588Z</time></trkpt><trkpt lat="39.6703799" lon="-0.6883664"><ele>224.0</ele><time>2026-04-04T11:10:34.587Z</time></trkpt><trkpt lat="39.6704352" lon="-0.6882017"><ele>224.0</ele><time>2026-04-04T11:10:35.588Z</time></trkpt><trkpt lat="39.6704945" lon="-0.6880572"><ele>223.99999999999997</ele><time>2026-04-04T11:10:36.587Z</time></trkpt><trkpt lat="39.6705539" lon="-0.6879344"><ele>223.99999999999997</ele><time>2026-04-04T11:10:37.588Z</time></trkpt><trkpt lat="39.6706016" lon="-0.6878353"><ele>224.0</ele><time>2026-04-04T11:10:38.589Z</time></trkpt><trkpt lat="39.6706439" lon="-0.6877462"><ele>224.0</ele><time>2026-04-04T11:10:39.589Z</time></trkpt><trkpt lat="39.6706788" lon="-0.6876727"><ele>224.83333333333334</ele><time>2026-04-04T11:10:40.588Z</time></trkpt><trkpt lat="39.670717" lon="-0.6875278"><ele>225.66666666666669</ele><time>2026-04-04T11:10:42.588Z</time></trkpt><trkpt lat="39.6707171" lon="-0.6874352"><ele>226.5</ele><time>2026-04-04T11:10:43.588Z</time></trkpt><trkpt lat="39.6707034" lon="-0.6873448"><ele>227.33333333333331</ele><time>2026-04-04T11:10:44.588Z</time></trkpt><trkpt lat="39.6706648" lon="-0.6872461"><ele>228.16666666666666</ele><time>2026-04-04T11:10:45.587Z</time></trkpt><trkpt lat="39.6706015" lon="-0.6871414"><ele>229.0</ele><time>2026-04-04T11:10:46.589Z</time></trkpt><trkpt lat="39.6705299" lon="-0.68703"><ele>229.0</ele><time>2026-04-04T11:10:47.586Z</time></trkpt><trkpt lat="39.6704497" lon="-0.6869007"><ele>229.0</ele><time>2026-04-04T11:10:48.589Z</time></trkpt><trkpt lat="39.6703707" lon="-0.6867439"><ele>229.0</ele><time>2026-04-04T11:10:49.588Z</time></trkpt><trkpt lat="39.6702959" lon="-0.6865649"><ele>229.0</ele><time>2026-04-04T11:10:50.587Z</time></trkpt><trkpt lat="39.6702203" lon="-0.6863663"><ele>228.33333333333331</ele><time>2026-04-04T11:10:51.586Z</time></trkpt><trkpt lat="39.6701523" lon="-0.6861578"><ele>227.66666666666669</ele><time>2026-04-04T11:10:52.587Z</time></trkpt><trkpt lat="39.6700768" lon="-0.6859362"><ele>227.0</ele><time>2026-04-04T11:10:53.589Z</time></trkpt><trkpt lat="39.6699917" lon="-0.6857116"><ele>227.0</ele><time>2026-04-04T11:10:54.587Z</time></trkpt><trkpt lat="39.669903" lon="-0.6854914"><ele>227.0</ele><time>2026-04-04T11:10:55.588Z</time></trkpt><trkpt lat="39.6698041" lon="-0.6852691"><ele>227.0</ele><time>2026-04-04T11:10:56.587Z</time></trkpt><trkpt lat="39.6697158" lon="-0.6850541"><ele>226.33333333333334</ele><time>2026-04-04T11:10:57.587Z</time></trkpt><trkpt lat="39.6696317" lon="-0.6848373"><ele>225.66666666666669</ele><time>2026-04-04T11:10:58.589Z</time></trkpt><trkpt lat="39.6695516" lon="-0.6846132"><ele>225.0</ele><time>2026-04-04T11:10:59.587Z</time></trkpt><trkpt lat="39.6694682" lon="-0.6843834"><ele>224.33333333333331</ele><time>2026-04-04T11:11:00.589Z</time></trkpt><trkpt lat="39.6693885" lon="-0.6841768"><ele>223.66666666666666</ele><time>2026-04-04T11:11:01.588Z</time></trkpt><trkpt lat="39.669317" lon="-0.6839807"><ele>223.0</ele><time>2026-04-04T11:11:02.588Z</time></trkpt><trkpt lat="39.6692495" lon="-0.6837863"><ele>223.66666666666666</ele><time>2026-04-04T11:11:03.588Z</time></trkpt><trkpt lat="39.6691803" lon="-0.6835851"><ele>224.33333333333331</ele><time>2026-04-04T11:11:04.587Z</time></trkpt><trkpt lat="39.6691063" lon="-0.6833832"><ele>225.0</ele><time>2026-04-04T11:11:05.587Z</time></trkpt><trkpt lat="39.6690304" lon="-0.6831966"><ele>225.0</ele><time>2026-04-04T11:11:06.587Z</time></trkpt><trkpt lat="39.6689646" lon="-0.6830191"><ele>225.0</ele><time>2026-04-04T11:11:07.586Z</time></trkpt><trkpt lat="39.6689124" lon="-0.6828609"><ele>225.0</ele><time>2026-04-04T11:11:08.587Z</time></trkpt><trkpt lat="39.6688721" lon="-0.6827098"><ele>225.0</ele><time>2026-04-04T11:11:09.587Z</time></trkpt><trkpt lat="39.6688282" lon="-0.6825575"><ele>224.75</ele><time>2026-04-04T11:11:10.587Z</time></trkpt><trkpt lat="39.6687862" lon="-0.6823971"><ele>224.5</ele><time>2026-04-04T11:11:11.588Z</time></trkpt><trkpt lat="39.6687261" lon="-0.6822323"><ele>224.25</ele><time>2026-04-04T11:11:12.586Z</time></trkpt><trkpt lat="39.6686518" lon="-0.6820632"><ele>224.0</ele><time>2026-04-04T11:11:13.588Z</time></trkpt><trkpt lat="39.6685716" lon="-0.6818809"><ele>224.0</ele><time>2026-04-04T11:11:14.587Z</time></trkpt><trkpt lat="39.6684853" lon="-0.6817103"><ele>224.0</ele><time>2026-04-04T11:11:15.588Z</time></trkpt><trkpt lat="39.6683919" lon="-0.6815631"><ele>224.0</ele><time>2026-04-04T11:11:16.586Z</time></trkpt><trkpt lat="39.6682954" lon="-0.6814376"><ele>224.0</ele><time>2026-04-04T11:11:17.587Z</time></trkpt><trkpt lat="39.6682049" lon="-0.6813382"><ele>224.0</ele><time>2026-04-04T11:11:18.588Z</time></trkpt><trkpt lat="39.6681312" lon="-0.681264"><ele>223.99999999999997</ele><time>2026-04-04T11:11:19.588Z</time></trkpt><trkpt lat="39.6680727" lon="-0.6812002"><ele>223.99999999999997</ele><time>2026-04-04T11:11:20.588Z</time></trkpt><trkpt lat="39.6679864" lon="-0.6811091"><ele>224.0</ele><time>2026-04-04T11:11:22.586Z</time></trkpt><trkpt lat="39.6679449" lon="-0.6810296"><ele>224.0</ele><time>2026-04-04T11:11:24.587Z</time></trkpt><trkpt lat="39.6679069" lon="-0.6809165"><ele>223.79999999999998</ele><time>2026-04-04T11:11:27.588Z</time></trkpt><trkpt lat="39.6678937" lon="-0.6807833"><ele>223.59999999999997</ele><time>2026-04-04T11:11:29.587Z</time></trkpt><trkpt lat="39.6678863" lon="-0.6806217"><ele>223.4</ele><time>2026-04-04T11:11:31.588Z</time></trkpt><trkpt lat="39.6678919" lon="-0.6805385"><ele>223.2</ele><time>2026-04-04T11:11:32.589Z</time></trkpt><trkpt lat="39.6679162" lon="-0.6803856"><ele>223.0</ele><time>2026-04-04T11:11:34.589Z</time></trkpt><trkpt lat="39.6679067" lon="-0.6802621"><ele>222.0</ele><time>2026-04-04T11:11:36.587Z</time></trkpt><trkpt lat="39.6679083" lon="-0.6801477"><ele>221.0</ele><time>2026-04-04T11:11:38.588Z</time></trkpt><trkpt lat="39.6679711" lon="-0.680035"><ele>220.0</ele><time>2026-04-04T11:11:40.587Z</time></trkpt><trkpt lat="39.6680592" lon="-0.6799093"><ele>219.0</ele><time>2026-04-04T11:11:42.587Z</time></trkpt><trkpt lat="39.6681049" lon="-0.6798339"><ele>218.0</ele><time>2026-04-04T11:11:43.588Z</time></trkpt><trkpt lat="39.6681619" lon="-0.6797617"><ele>218.0</ele><time>2026-04-04T11:11:44.588Z</time></trkpt><trkpt lat="39.6682256" lon="-0.679645"><ele>218.0</ele><time>2026-04-04T11:11:46.588Z</time></trkpt><trkpt lat="39.6682522" lon="-0.6795206"><ele>218.0</ele><time>2026-04-04T11:11:48.587Z</time></trkpt><trkpt lat="39.6682053" lon="-0.6793739"><ele>218.0</ele><time>2026-04-04T11:11:50.589Z</time></trkpt><trkpt lat="39.6681738" lon="-0.6792918"><ele>218.0</ele><time>2026-04-04T11:11:51.588Z</time></trkpt><trkpt lat="39.6681345" lon="-0.6792058"><ele>218.16666666666669</ele><time>2026-04-04T11:11:52.588Z</time></trkpt><trkpt lat="39.6680998" lon="-0.6791193"><ele>218.33333333333334</ele><time>2026-04-04T11:11:53.587Z</time></trkpt><trkpt lat="39.6680372" lon="-0.6789804"><ele>218.5</ele><time>2026-04-04T11:11:55.589Z</time></trkpt><trkpt lat="39.6679937" lon="-0.6789091"><ele>218.66666666666669</ele><time>2026-04-04T11:11:56.587Z</time></trkpt><trkpt lat="39.6679543" lon="-0.6788279"><ele>218.83333333333334</ele><time>2026-04-04T11:11:57.588Z</time></trkpt><trkpt lat="39.66791" lon="-0.6787354"><ele>219.0</ele><time>2026-04-04T11:11:58.587Z</time></trkpt><trkpt lat="39.6678668" lon="-0.678627"><ele>219.0</ele><time>2026-04-04T11:11:59.588Z</time></trkpt><trkpt lat="39.667824" lon="-0.6785131"><ele>218.99999999999997</ele><time>2026-04-04T11:12:00.587Z</time></trkpt><trkpt lat="39.6677905" lon="-0.6783809"><ele>218.99999999999997</ele><time>2026-04-04T11:12:01.587Z</time></trkpt><trkpt lat="39.667745" lon="-0.6782576"><ele>219.0</ele><time>2026-04-04T11:12:02.588Z</time></trkpt><trkpt lat="39.6676936" lon="-0.6781365"><ele>219.0</ele><time>2026-04-04T11:12:03.586Z</time></trkpt><trkpt lat="39.6676489" lon="-0.678008"><ele>219.0</ele><time>2026-04-04T11:12:04.588Z</time></trkpt><trkpt lat="39.6675982" lon="-0.677877"><ele>218.99999999999997</ele><time>2026-04-04T11:12:05.586Z</time></trkpt><trkpt lat="39.6675421" lon="-0.6777513"><ele>218.99999999999997</ele><time>2026-04-04T11:12:06.587Z</time></trkpt><trkpt lat="39.6674869" lon="-0.6776441"><ele>219.0</ele><time>2026-04-04T11:12:07.587Z</time></trkpt><trkpt lat="39.6674372" lon="-0.677508"><ele>219.0</ele><time>2026-04-04T11:12:08.587Z</time></trkpt><trkpt lat="39.6673968" lon="-0.6773747"><ele>219.0</ele><time>2026-04-04T11:12:09.589Z</time></trkpt><trkpt lat="39.6673543" lon="-0.6772404"><ele>218.99999999999997</ele><time>2026-04-04T11:12:10.587Z</time></trkpt><trkpt lat="39.6673086" lon="-0.6771051"><ele>218.99999999999997</ele><time>2026-04-04T11:12:11.588Z</time></trkpt><trkpt lat="39.6672653" lon="-0.6769759"><ele>219.0</ele><time>2026-04-04T11:12:12.587Z</time></trkpt><trkpt lat="39.6672286" lon="-0.6768485"><ele>219.0</ele><time>2026-04-04T11:12:13.588Z</time></trkpt><trkpt lat="39.6671873" lon="-0.6767103"><ele>219.2</ele><time>2026-04-04T11:12:14.586Z</time></trkpt><trkpt lat="39.6671423" lon="-0.6765744"><ele>219.39999999999998</ele><time>2026-04-04T11:12:15.586Z</time></trkpt><trkpt lat="39.6670998" lon="-0.676442"><ele>219.6</ele><time>2026-04-04T11:12:16.586Z</time></trkpt><trkpt lat="39.6670565" lon="-0.676314"><ele>219.8</ele><time>2026-04-04T11:12:17.588Z</time></trkpt><trkpt lat="39.6670131" lon="-0.6762041"><ele>220.0</ele><time>2026-04-04T11:12:18.586Z</time></trkpt><trkpt lat="39.6669615" lon="-0.6761136"><ele>219.6</ele><time>2026-04-04T11:12:19.586Z</time></trkpt><trkpt lat="39.6668977" lon="-0.676032"><ele>219.2</ele><time>2026-04-04T11:12:20.587Z</time></trkpt><trkpt lat="39.6668248" lon="-0.6759573"><ele>218.8</ele><time>2026-04-04T11:12:21.587Z</time></trkpt><trkpt lat="39.6667418" lon="-0.6758869"><ele>218.4</ele><time>2026-04-04T11:12:22.586Z</time></trkpt><trkpt lat="39.6666565" lon="-0.6758213"><ele>218.0</ele><time>2026-04-04T11:12:23.587Z</time></trkpt><trkpt lat="39.6665662" lon="-0.6757439"><ele>218.0</ele><time>2026-04-04T11:12:24.587Z</time></trkpt><trkpt lat="39.6664757" lon="-0.6756624"><ele>218.0</ele><time>2026-04-04T11:12:25.588Z</time></trkpt><trkpt lat="39.6663837" lon="-0.6755875"><ele>218.0</ele><time>2026-04-04T11:12:26.587Z</time></trkpt><trkpt lat="39.6662952" lon="-0.6755084"><ele>218.0</ele><time>2026-04-04T11:12:27.588Z</time></trkpt><trkpt lat="39.6661911" lon="-0.6754261"><ele>218.0</ele><time>2026-04-04T11:12:28.587Z</time></trkpt><trkpt lat="39.6660843" lon="-0.6753352"><ele>217.0</ele><time>2026-04-04T11:12:29.586Z</time></trkpt><trkpt lat="39.6659719" lon="-0.6752393"><ele>216.0</ele><time>2026-04-04T11:12:30.588Z</time></trkpt><trkpt lat="39.6658638" lon="-0.6751427"><ele>215.0</ele><time>2026-04-04T11:12:31.587Z</time></trkpt><trkpt lat="39.6657639" lon="-0.6750448"><ele>214.0</ele><time>2026-04-04T11:12:32.586Z</time></trkpt><trkpt lat="39.6656653" lon="-0.6749608"><ele>214.0</ele><time>2026-04-04T11:12:33.588Z</time></trkpt><trkpt lat="39.6655763" lon="-0.6748799"><ele>213.99999999999997</ele><time>2026-04-04T11:12:34.587Z</time></trkpt><trkpt lat="39.6654969" lon="-0.6748053"><ele>213.99999999999997</ele><time>2026-04-04T11:12:35.587Z</time></trkpt><trkpt lat="39.6654168" lon="-0.6747323"><ele>214.0</ele><time>2026-04-04T11:12:36.587Z</time></trkpt><trkpt lat="39.6653337" lon="-0.6746616"><ele>214.0</ele><time>2026-04-04T11:12:37.586Z</time></trkpt><trkpt lat="39.6652511" lon="-0.6745949"><ele>215.0</ele><time>2026-04-04T11:12:38.588Z</time></trkpt><trkpt lat="39.6651682" lon="-0.674529"><ele>215.99999999999997</ele><time>2026-04-04T11:12:39.588Z</time></trkpt><trkpt lat="39.6650855" lon="-0.6744589"><ele>216.99999999999997</ele><time>2026-04-04T11:12:40.587Z</time></trkpt><trkpt lat="39.6649952" lon="-0.6743926"><ele>218.0</ele><time>2026-04-04T11:12:41.587Z</time></trkpt><trkpt lat="39.6649026" lon="-0.6743314"><ele>219.0</ele><time>2026-04-04T11:12:42.587Z</time></trkpt><trkpt lat="39.6648083" lon="-0.674253"><ele>219.0</ele><time>2026-04-04T11:12:43.586Z</time></trkpt><trkpt lat="39.6647126" lon="-0.6741756"><ele>218.99999999999997</ele><time>2026-04-04T11:12:44.587Z</time></trkpt><trkpt lat="39.6646262" lon="-0.6741056"><ele>218.99999999999997</ele><time>2026-04-04T11:12:45.587Z</time></trkpt><trkpt lat="39.6645431" lon="-0.6740401"><ele>219.0</ele><time>2026-04-04T11:12:46.589Z</time></trkpt><trkpt lat="39.6644627" lon="-0.6739805"><ele>219.0</ele><time>2026-04-04T11:12:47.587Z</time></trkpt><trkpt lat="39.6643767" lon="-0.6739085"><ele>218.25</ele><time>2026-04-04T11:12:48.588Z</time></trkpt><trkpt lat="39.6642993" lon="-0.6738317"><ele>217.5</ele><time>2026-04-04T11:12:49.587Z</time></trkpt><trkpt lat="39.6642236" lon="-0.6737294"><ele>216.75</ele><time>2026-04-04T11:12:50.588Z</time></trkpt><trkpt lat="39.6641552" lon="-0.6736069"><ele>216.0</ele><time>2026-04-04T11:12:51.587Z</time></trkpt><trkpt lat="39.6640908" lon="-0.6734406"><ele>216.0</ele><time>2026-04-04T11:12:52.588Z</time></trkpt><trkpt lat="39.6640236" lon="-0.6733005"><ele>216.0</ele><time>2026-04-04T11:12:53.587Z</time></trkpt><trkpt lat="39.6639597" lon="-0.6731693"><ele>216.0</ele><time>2026-04-04T11:12:54.587Z</time></trkpt><trkpt lat="39.6639032" lon="-0.6730569"><ele>216.0</ele><time>2026-04-04T11:12:55.587Z</time></trkpt><trkpt lat="39.663842" lon="-0.6729409"><ele>216.0</ele><time>2026-04-04T11:12:56.587Z</time></trkpt><trkpt lat="39.6637776" lon="-0.6728199"><ele>216.0</ele><time>2026-04-04T11:12:57.587Z</time></trkpt><trkpt lat="39.6637073" lon="-0.6726996"><ele>216.0</ele><time>2026-04-04T11:12:58.587Z</time></trkpt><trkpt lat="39.6636404" lon="-0.6725666"><ele>216.0</ele><time>2026-04-04T11:12:59.588Z</time></trkpt><trkpt lat="39.6635574" lon="-0.6724197"><ele>215.5</ele><time>2026-04-04T11:13:00.588Z</time></trkpt><trkpt lat="39.6634731" lon="-0.6722704"><ele>215.0</ele><time>2026-04-04T11:13:01.586Z</time></trkpt><trkpt lat="39.6633919" lon="-0.6721196"><ele>214.5</ele><time>2026-04-04T11:13:02.586Z</time></trkpt><trkpt lat="39.6633123" lon="-0.6719819"><ele>214.0</ele><time>2026-04-04T11:13:03.587Z</time></trkpt><trkpt lat="39.6632386" lon="-0.6718434"><ele>214.0</ele><time>2026-04-04T11:13:04.588Z</time></trkpt><trkpt lat="39.6631723" lon="-0.6717124"><ele>214.0</ele><time>2026-04-04T11:13:05.589Z</time></trkpt><trkpt lat="39.6631054" lon="-0.6715864"><ele>214.0</ele><time>2026-04-04T11:13:06.588Z</time></trkpt><trkpt lat="39.6630389" lon="-0.6714594"><ele>214.0</ele><time>2026-04-04T11:13:07.586Z</time></trkpt><trkpt lat="39.6629765" lon="-0.6713337"><ele>214.0</ele><time>2026-04-04T11:13:08.587Z</time></trkpt><trkpt lat="39.6629186" lon="-0.6712049"><ele>213.99999999999997</ele><time>2026-04-04T11:13:09.587Z</time></trkpt><trkpt lat="39.6628542" lon="-0.6710828"><ele>213.99999999999997</ele><time>2026-04-04T11:13:10.589Z</time></trkpt><trkpt lat="39.6627944" lon="-0.6709582"><ele>214.0</ele><time>2026-04-04T11:13:11.587Z</time></trkpt><trkpt lat="39.6627372" lon="-0.6708429"><ele>214.0</ele><time>2026-04-04T11:13:12.586Z</time></trkpt><trkpt lat="39.6626881" lon="-0.670742"><ele>212.99999999999997</ele><time>2026-04-04T11:13:13.589Z</time></trkpt><trkpt lat="39.662645" lon="-0.6706469"><ele>212.0</ele><time>2026-04-04T11:13:14.588Z</time></trkpt><trkpt lat="39.6626041" lon="-0.6705749"><ele>211.0</ele><time>2026-04-04T11:13:15.588Z</time></trkpt><trkpt lat="39.6625474" lon="-0.670492"><ele>210.0</ele><time>2026-04-04T11:13:17.588Z</time></trkpt><trkpt lat="39.6624845" lon="-0.6705076"><ele>208.99999999999997</ele><time>2026-04-04T11:13:19.587Z</time></trkpt><trkpt lat="39.6624133" lon="-0.6705844"><ele>208.0</ele><time>2026-04-04T11:13:20.588Z</time></trkpt><trkpt lat="39.6623522" lon="-0.6706608"><ele>208.0</ele><time>2026-04-04T11:13:21.586Z</time></trkpt><trkpt lat="39.662269" lon="-0.6707482"><ele>208.0</ele><time>2026-04-04T11:13:22.587Z</time></trkpt><trkpt lat="39.6621716" lon="-0.6708467"><ele>208.0</ele><time>2026-04-04T11:13:23.588Z</time></trkpt><trkpt lat="39.662067" lon="-0.6709439"><ele>208.0</ele><time>2026-04-04T11:13:24.588Z</time></trkpt><trkpt lat="39.6619526" lon="-0.6710403"><ele>209.0</ele><time>2026-04-04T11:13:25.588Z</time></trkpt><trkpt lat="39.6618259" lon="-0.6711443"><ele>210.0</ele><time>2026-04-04T11:13:26.586Z</time></trkpt><trkpt lat="39.6617011" lon="-0.6712501"><ele>211.0</ele><time>2026-04-04T11:13:27.588Z</time></trkpt><trkpt lat="39.6615801" lon="-0.6713497"><ele>212.0</ele><time>2026-04-04T11:13:28.587Z</time></trkpt><trkpt lat="39.6614691" lon="-0.6714316"><ele>212.0</ele><time>2026-04-04T11:13:29.587Z</time></trkpt><trkpt lat="39.6613616" lon="-0.6715032"><ele>212.0</ele><time>2026-04-04T11:13:30.587Z</time></trkpt><trkpt lat="39.6612539" lon="-0.671586"><ele>212.0</ele><time>2026-04-04T11:13:31.587Z</time></trkpt><trkpt lat="39.6611345" lon="-0.6716735"><ele>212.0</ele><time>2026-04-04T11:13:32.587Z</time></trkpt><trkpt lat="39.661032" lon="-0.6717594"><ele>212.0</ele><time>2026-04-04T11:13:33.587Z</time></trkpt><trkpt lat="39.6609369" lon="-0.6718303"><ele>212.0</ele><time>2026-04-04T11:13:34.586Z</time></trkpt><trkpt lat="39.6608506" lon="-0.6718949"><ele>212.0</ele><time>2026-04-04T11:13:35.587Z</time></trkpt><trkpt lat="39.6607706" lon="-0.6719634"><ele>212.0</ele><time>2026-04-04T11:13:36.587Z</time></trkpt><trkpt lat="39.6606791" lon="-0.6720437"><ele>212.0</ele><time>2026-04-04T11:13:37.586Z</time></trkpt><trkpt lat="39.6605818" lon="-0.6721288"><ele>212.25</ele><time>2026-04-04T11:13:38.587Z</time></trkpt><trkpt lat="39.660466" lon="-0.6722329"><ele>212.5</ele><time>2026-04-04T11:13:39.588Z</time></trkpt><trkpt lat="39.6603529" lon="-0.6723276"><ele>212.75</ele><time>2026-04-04T11:13:40.588Z</time></trkpt><trkpt lat="39.6602486" lon="-0.6724074"><ele>213.0</ele><time>2026-04-04T11:13:41.588Z</time></trkpt><trkpt lat="39.6601539" lon="-0.6724804"><ele>213.33333333333334</ele><time>2026-04-04T11:13:42.587Z</time></trkpt><trkpt lat="39.6600743" lon="-0.6725443"><ele>213.66666666666669</ele><time>2026-04-04T11:13:43.586Z</time></trkpt><trkpt lat="39.6600054" lon="-0.672598"><ele>214.0</ele><time>2026-04-04T11:13:44.588Z</time></trkpt><trkpt lat="39.6599457" lon="-0.6726501"><ele>214.33333333333334</ele><time>2026-04-04T11:13:45.587Z</time></trkpt><trkpt lat="39.659885" lon="-0.6727026"><ele>214.66666666666669</ele><time>2026-04-04T11:13:46.588Z</time></trkpt><trkpt lat="39.6597803" lon="-0.6727073"><ele>215.0</ele><time>2026-04-04T11:13:48.588Z</time></trkpt><trkpt lat="39.6597071" lon="-0.672602"><ele>215.0</ele><time>2026-04-04T11:13:50.587Z</time></trkpt><trkpt lat="39.6595836" lon="-0.6725329"><ele>215.0</ele><time>2026-04-04T11:13:52.587Z</time></trkpt><trkpt lat="39.6594768" lon="-0.6725057"><ele>215.0</ele><time>2026-04-04T11:13:53.588Z</time></trkpt><trkpt lat="39.6593536" lon="-0.6724805"><ele>215.0</ele><time>2026-04-04T11:13:54.587Z</time></trkpt><trkpt lat="39.6592512" lon="-0.6724545"><ele>214.83333333333334</ele><time>2026-04-04T11:13:55.587Z</time></trkpt><trkpt lat="39.6591648" lon="-0.6724362"><ele>214.66666666666669</ele><time>2026-04-04T11:13:56.586Z</time></trkpt><trkpt lat="39.6590877" lon="-0.6724157"><ele>214.5</ele><time>2026-04-04T11:13:57.586Z</time></trkpt><trkpt lat="39.6590074" lon="-0.6723966"><ele>214.33333333333331</ele><time>2026-04-04T11:13:58.587Z</time></trkpt><trkpt lat="39.6589411" lon="-0.6723777"><ele>214.16666666666666</ele><time>2026-04-04T11:13:59.587Z</time></trkpt><trkpt lat="39.6588717" lon="-0.6723668"><ele>214.0</ele><time>2026-04-04T11:14:00.587Z</time></trkpt><trkpt lat="39.658785" lon="-0.6723651"><ele>214.0</ele><time>2026-04-04T11:14:02.588Z</time></trkpt><trkpt lat="39.6587495" lon="-0.672444"><ele>213.99999999999997</ele><time>2026-04-04T11:14:04.586Z</time></trkpt><trkpt lat="39.6587586" lon="-0.6725505"><ele>213.99999999999997</ele><time>2026-04-04T11:14:05.586Z</time></trkpt><trkpt lat="39.6587858" lon="-0.6726609"><ele>214.0</ele><time>2026-04-04T11:14:06.588Z</time></trkpt><trkpt lat="39.6588169" lon="-0.6727859"><ele>214.0</ele><time>2026-04-04T11:14:07.588Z</time></trkpt><trkpt lat="39.6588419" lon="-0.6729417"><ele>213.83333333333331</ele><time>2026-04-04T11:14:08.588Z</time></trkpt><trkpt lat="39.6588602" lon="-0.6730738"><ele>213.66666666666666</ele><time>2026-04-04T11:14:09.588Z</time></trkpt><trkpt lat="39.6588809" lon="-0.6731664"><ele>213.5</ele><time>2026-04-04T11:14:10.586Z</time></trkpt><trkpt lat="39.6589389" lon="-0.6732715"><ele>213.33333333333331</ele><time>2026-04-04T11:14:12.588Z</time></trkpt><trkpt lat="39.6589848" lon="-0.6733686"><ele>213.16666666666666</ele><time>2026-04-04T11:14:14.588Z</time></trkpt><trkpt lat="39.6589821" lon="-0.6734728"><ele>213.0</ele><time>2026-04-04T11:14:15.587Z</time></trkpt><trkpt lat="39.6589699" lon="-0.6735772"><ele>212.60000000000002</ele><time>2026-04-04T11:14:16.586Z</time></trkpt><trkpt lat="39.6589693" lon="-0.6737056"><ele>212.20000000000002</ele><time>2026-04-04T11:14:18.586Z</time></trkpt><trkpt lat="39.6590625" lon="-0.6737667"><ele>211.8</ele><time>2026-04-04T11:14:20.587Z</time></trkpt><trkpt lat="39.6591442" lon="-0.6737875"><ele>211.4</ele><time>2026-04-04T11:14:21.587Z</time></trkpt><trkpt lat="39.6592433" lon="-0.6738138"><ele>211.0</ele><time>2026-04-04T11:14:22.588Z</time></trkpt><trkpt lat="39.6593431" lon="-0.6738436"><ele>211.0</ele><time>2026-04-04T11:14:23.587Z</time></trkpt><trkpt lat="39.659435" lon="-0.6738623"><ele>211.0</ele><time>2026-04-04T11:14:24.586Z</time></trkpt><trkpt lat="39.6595123" lon="-0.6738775"><ele>211.0</ele><time>2026-04-04T11:14:25.587Z</time></trkpt><trkpt lat="39.6596064" lon="-0.6738995"><ele>211.0</ele><time>2026-04-04T11:14:27.586Z</time></trkpt><trkpt lat="39.6597051" lon="-0.6739656"><ele>211.0</ele><time>2026-04-04T11:14:29.586Z</time></trkpt><trkpt lat="39.659775" lon="-0.6740432"><ele>211.0</ele><time>2026-04-04T11:14:30.587Z</time></trkpt><trkpt lat="39.6598636" lon="-0.6741101"><ele>211.0</ele><time>2026-04-04T11:14:31.587Z</time></trkpt><trkpt lat="39.6599671" lon="-0.6741854"><ele>211.0</ele><time>2026-04-04T11:14:32.587Z</time></trkpt><trkpt lat="39.6600609" lon="-0.674258"><ele>211.0</ele><time>2026-04-04T11:14:33.588Z</time></trkpt><trkpt lat="39.6601293" lon="-0.6743645"><ele>211.0</ele><time>2026-04-04T11:14:34.587Z</time></trkpt><trkpt lat="39.6601843" lon="-0.6744846"><ele>210.16666666666666</ele><time>2026-04-04T11:14:35.586Z</time></trkpt><trkpt lat="39.6602133" lon="-0.6746194"><ele>209.33333333333331</ele><time>2026-04-04T11:14:36.588Z</time></trkpt><trkpt lat="39.6602284" lon="-0.67474"><ele>208.5</ele><time>2026-04-04T11:14:37.588Z</time></trkpt><trkpt lat="39.6602433" lon="-0.6748421"><ele>207.66666666666669</ele><time>2026-04-04T11:14:38.586Z</time></trkpt><trkpt lat="39.6602528" lon="-0.6749236"><ele>206.83333333333334</ele><time>2026-04-04T11:14:39.587Z</time></trkpt><trkpt lat="39.6602438" lon="-0.6750471"><ele>206.0</ele><time>2026-04-04T11:14:41.586Z</time></trkpt><trkpt lat="39.660205" lon="-0.6751423"><ele>206.0</ele><time>2026-04-04T11:14:43.586Z</time></trkpt><trkpt lat="39.6601283" lon="-0.6752162"><ele>206.0</ele><time>2026-04-04T11:14:45.586Z</time></trkpt><trkpt lat="39.6600073" lon="-0.6752404"><ele>206.0</ele><time>2026-04-04T11:14:47.587Z</time></trkpt><trkpt lat="39.6599211" lon="-0.6752104"><ele>206.0</ele><time>2026-04-04T11:14:48.587Z</time></trkpt><trkpt lat="39.6598242" lon="-0.6751737"><ele>206.0</ele><time>2026-04-04T11:14:49.588Z</time></trkpt><trkpt lat="39.6597002" lon="-0.6751394"><ele>206.0</ele><time>2026-04-04T11:14:50.588Z</time></trkpt><trkpt lat="39.6595722" lon="-0.6751082"><ele>206.0</ele><time>2026-04-04T11:14:51.587Z</time></trkpt><trkpt lat="39.6594434" lon="-0.6750874"><ele>206.0</ele><time>2026-04-04T11:14:52.587Z</time></trkpt><trkpt lat="39.6593119" lon="-0.6750508"><ele>206.0</ele><time>2026-04-04T11:14:53.586Z</time></trkpt><trkpt lat="39.6591748" lon="-0.6749991"><ele>206.20000000000002</ele><time>2026-04-04T11:14:54.587Z</time></trkpt><trkpt lat="39.6590568" lon="-0.6749571"><ele>206.4</ele><time>2026-04-04T11:14:55.586Z</time></trkpt><trkpt lat="39.6589626" lon="-0.6749197"><ele>206.6</ele><time>2026-04-04T11:14:56.587Z</time></trkpt><trkpt lat="39.6588726" lon="-0.6749048"><ele>206.8</ele><time>2026-04-04T11:14:57.588Z</time></trkpt><trkpt lat="39.6587606" lon="-0.6749299"><ele>207.0</ele><time>2026-04-04T11:14:58.588Z</time></trkpt><trkpt lat="39.6586518" lon="-0.6749515"><ele>206.39999999999998</ele><time>2026-04-04T11:14:59.588Z</time></trkpt><trkpt lat="39.6585386" lon="-0.6749682"><ele>205.79999999999998</ele><time>2026-04-04T11:15:00.587Z</time></trkpt><trkpt lat="39.6584365" lon="-0.675"><ele>205.2</ele><time>2026-04-04T11:15:01.586Z</time></trkpt><trkpt lat="39.6583476" lon="-0.6750188"><ele>204.6</ele><time>2026-04-04T11:15:02.587Z</time></trkpt><trkpt lat="39.6582693" lon="-0.6750385"><ele>204.0</ele><time>2026-04-04T11:15:03.588Z</time></trkpt><trkpt lat="39.658201" lon="-0.6750712"><ele>204.0</ele><time>2026-04-04T11:15:04.586Z</time></trkpt><trkpt lat="39.658141" lon="-0.6751071"><ele>204.0</ele><time>2026-04-04T11:15:05.588Z</time></trkpt><trkpt lat="39.6580867" lon="-0.6751581"><ele>204.0</ele><time>2026-04-04T11:15:06.587Z</time></trkpt><trkpt lat="39.65802" lon="-0.6752475"><ele>204.0</ele><time>2026-04-04T11:15:08.586Z</time></trkpt><trkpt lat="39.6580125" lon="-0.6753637"><ele>204.0</ele><time>2026-04-04T11:15:10.587Z</time></trkpt><trkpt lat="39.6580118" lon="-0.6754871"><ele>204.0</ele><time>2026-04-04T11:15:12.585Z</time></trkpt><trkpt lat="39.6579466" lon="-0.6755689"><ele>203.79999999999998</ele><time>2026-04-04T11:15:14.587Z</time></trkpt><trkpt lat="39.6578751" lon="-0.6756523"><ele>203.6</ele><time>2026-04-04T11:15:16.587Z</time></trkpt><trkpt lat="39.6578091" lon="-0.6757436"><ele>203.4</ele><time>2026-04-04T11:15:18.588Z</time></trkpt><trkpt lat="39.6577019" lon="-0.6758121"><ele>203.2</ele><time>2026-04-04T11:15:20.587Z</time></trkpt><trkpt lat="39.6576311" lon="-0.6758128"><ele>203.0</ele><time>2026-04-04T11:15:21.588Z</time></trkpt><trkpt lat="39.6575503" lon="-0.6757872"><ele>202.50000000000003</ele><time>2026-04-04T11:15:23.587Z</time></trkpt><trkpt lat="39.657464" lon="-0.6757926"><ele>202.0</ele><time>2026-04-04T11:15:25.587Z</time></trkpt><trkpt lat="39.6573767" lon="-0.675807"><ele>201.5</ele><time>2026-04-04T11:15:27.588Z</time></trkpt><trkpt lat="39.6572758" lon="-0.6757908"><ele>201.0</ele><time>2026-04-04T11:15:29.587Z</time></trkpt><trkpt lat="39.6571882" lon="-0.6757822"><ele>200.50000000000003</ele><time>2026-04-04T11:15:31.587Z</time></trkpt><trkpt lat="39.6571058" lon="-0.6757902"><ele>200.0</ele><time>2026-04-04T11:15:33.588Z</time></trkpt><trkpt lat="39.6569968" lon="-0.6757987"><ele>199.6</ele><time>2026-04-04T11:15:35.588Z</time></trkpt><trkpt lat="39.6568728" lon="-0.6757933"><ele>199.2</ele><time>2026-04-04T11:15:37.588Z</time></trkpt><trkpt lat="39.6567634" lon="-0.6757975"><ele>198.8</ele><time>2026-04-04T11:15:39.587Z</time></trkpt><trkpt lat="39.6566557" lon="-0.6758026"><ele>198.4</ele><time>2026-04-04T11:15:41.586Z</time></trkpt><trkpt lat="39.6565947" lon="-0.6757758"><ele>198.0</ele><time>2026-04-04T11:15:42.587Z</time></trkpt><trkpt lat="39.6565248" lon="-0.6757462"><ele>198.0</ele><time>2026-04-04T11:15:43.587Z</time></trkpt><trkpt lat="39.6564345" lon="-0.6757068"><ele>198.0</ele><time>2026-04-04T11:15:44.586Z</time></trkpt><trkpt lat="39.6563449" lon="-0.6757058"><ele>198.0</ele><time>2026-04-04T11:15:45.588Z</time></trkpt><trkpt lat="39.6562589" lon="-0.6756752"><ele>198.0</ele><time>2026-04-04T11:15:46.587Z</time></trkpt><trkpt lat="39.6561696" lon="-0.6756488"><ele>198.0</ele><time>2026-04-04T11:15:47.587Z</time></trkpt><trkpt lat="39.6560705" lon="-0.6756319"><ele>197.60000000000002</ele><time>2026-04-04T11:15:48.587Z</time></trkpt><trkpt lat="39.6559727" lon="-0.675624"><ele>197.20000000000002</ele><time>2026-04-04T11:15:49.586Z</time></trkpt><trkpt lat="39.6558834" lon="-0.6756052"><ele>196.8</ele><time>2026-04-04T11:15:50.587Z</time></trkpt><trkpt lat="39.6557684" lon="-0.6755535"><ele>196.4</ele><time>2026-04-04T11:15:51.586Z</time></trkpt><trkpt lat="39.655656" lon="-0.6755232"><ele>196.0</ele><time>2026-04-04T11:15:52.587Z</time></trkpt><trkpt lat="39.6555511" lon="-0.6754854"><ele>196.0</ele><time>2026-04-04T11:15:53.587Z</time></trkpt><trkpt lat="39.6554515" lon="-0.6754706"><ele>196.0</ele><time>2026-04-04T11:15:54.587Z</time></trkpt><trkpt lat="39.6553474" lon="-0.6754739"><ele>196.0</ele><time>2026-04-04T11:15:55.587Z</time></trkpt><trkpt lat="39.6552491" lon="-0.6754914"><ele>196.0</ele><time>2026-04-04T11:15:56.587Z</time></trkpt><trkpt lat="39.6551533" lon="-0.6755014"><ele>196.0</ele><time>2026-04-04T11:15:57.588Z</time></trkpt><trkpt lat="39.6550743" lon="-0.6755177"><ele>196.0</ele><time>2026-04-04T11:15:58.587Z</time></trkpt><trkpt lat="39.6549869" lon="-0.675534"><ele>196.0</ele><time>2026-04-04T11:15:59.588Z</time></trkpt><trkpt lat="39.6548948" lon="-0.675532"><ele>196.0</ele><time>2026-04-04T11:16:00.587Z</time></trkpt><trkpt lat="39.6547707" lon="-0.6755091"><ele>196.0</ele><time>2026-04-04T11:16:01.588Z</time></trkpt><trkpt lat="39.6546608" lon="-0.6754949"><ele>196.0</ele><time>2026-04-04T11:16:02.587Z</time></trkpt><trkpt lat="39.6545579" lon="-0.6754731"><ele>196.0</ele><time>2026-04-04T11:16:03.588Z</time></trkpt><trkpt lat="39.6544487" lon="-0.6754401"><ele>196.0</ele><time>2026-04-04T11:16:04.586Z</time></trkpt><trkpt lat="39.6543325" lon="-0.6754013"><ele>196.0</ele><time>2026-04-04T11:16:05.587Z</time></trkpt><trkpt lat="39.6542329" lon="-0.6753773"><ele>196.0</ele><time>2026-04-04T11:16:06.587Z</time></trkpt><trkpt lat="39.6541509" lon="-0.6753609"><ele>196.0</ele><time>2026-04-04T11:16:07.587Z</time></trkpt><trkpt lat="39.6540789" lon="-0.6753477"><ele>196.0</ele><time>2026-04-04T11:16:08.586Z</time></trkpt><trkpt lat="39.6540124" lon="-0.6753104"><ele>196.0</ele><time>2026-04-04T11:16:09.587Z</time></trkpt><trkpt lat="39.6539554" lon="-0.6752569"><ele>196.0</ele><time>2026-04-04T11:16:10.587Z</time></trkpt><trkpt lat="39.6539112" lon="-0.6751943"><ele>196.0</ele><time>2026-04-04T11:16:11.587Z</time></trkpt><trkpt lat="39.6538356" lon="-0.6751321"><ele>196.0</ele><time>2026-04-04T11:16:13.587Z</time></trkpt><trkpt lat="39.6537711" lon="-0.6751165"><ele>196.0</ele><time>2026-04-04T11:16:15.588Z</time></trkpt><trkpt lat="39.6537104" lon="-0.6750869"><ele>196.0</ele><time>2026-04-04T11:16:17.586Z</time></trkpt><trkpt lat="39.653685" lon="-0.6750028"><ele>196.20000000000002</ele><time>2026-04-04T11:16:20.586Z</time></trkpt><trkpt lat="39.6536806" lon="-0.6749051"><ele>196.4</ele><time>2026-04-04T11:16:23.586Z</time></trkpt><trkpt lat="39.6536405" lon="-0.6748352"><ele>196.6</ele><time>2026-04-04T11:16:25.587Z</time></trkpt><trkpt lat="39.6535321" lon="-0.6748056"><ele>196.8</ele><time>2026-04-04T11:16:27.586Z</time></trkpt><trkpt lat="39.6534398" lon="-0.6747749"><ele>197.0</ele><time>2026-04-04T11:16:28.587Z</time></trkpt><trkpt lat="39.6533324" lon="-0.6747582"><ele>195.75</ele><time>2026-04-04T11:16:29.588Z</time></trkpt><trkpt lat="39.6532177" lon="-0.6747295"><ele>194.5</ele><time>2026-04-04T11:16:30.587Z</time></trkpt><trkpt lat="39.6531162" lon="-0.674693"><ele>193.25</ele><time>2026-04-04T11:16:31.587Z</time></trkpt><trkpt lat="39.6529887" lon="-0.6746285"><ele>192.0</ele><time>2026-04-04T11:16:32.587Z</time></trkpt><trkpt lat="39.6528681" lon="-0.6745704"><ele>191.75</ele><time>2026-04-04T11:16:33.586Z</time></trkpt><trkpt lat="39.6527532" lon="-0.6745115"><ele>191.5</ele><time>2026-04-04T11:16:34.587Z</time></trkpt><trkpt lat="39.6526488" lon="-0.6744513"><ele>191.25</ele><time>2026-04-04T11:16:35.587Z</time></trkpt><trkpt lat="39.6525429" lon="-0.6743837"><ele>191.0</ele><time>2026-04-04T11:16:36.588Z</time></trkpt><trkpt lat="39.6524437" lon="-0.6743258"><ele>191.0</ele><time>2026-04-04T11:16:37.587Z</time></trkpt><trkpt lat="39.6523467" lon="-0.6742752"><ele>191.0</ele><time>2026-04-04T11:16:38.588Z</time></trkpt><trkpt lat="39.65226" lon="-0.6742"><ele>191.0</ele><time>2026-04-04T11:16:39.586Z</time></trkpt><trkpt lat="39.6521862" lon="-0.6741232"><ele>191.0</ele><time>2026-04-04T11:16:40.586Z</time></trkpt><trkpt lat="39.6521263" lon="-0.6740565"><ele>191.0</ele><time>2026-04-04T11:16:41.586Z</time></trkpt><trkpt lat="39.6520701" lon="-0.6740057"><ele>191.0</ele><time>2026-04-04T11:16:42.588Z</time></trkpt><trkpt lat="39.6520048" lon="-0.6739465"><ele>191.0</ele><time>2026-04-04T11:16:43.585Z</time></trkpt><trkpt lat="39.6519302" lon="-0.6738805"><ele>191.0</ele><time>2026-04-04T11:16:44.588Z</time></trkpt><trkpt lat="39.6518614" lon="-0.6738071"><ele>191.0</ele><time>2026-04-04T11:16:45.586Z</time></trkpt><trkpt lat="39.6517977" lon="-0.6737305"><ele>191.0</ele><time>2026-04-04T11:16:46.588Z</time></trkpt><trkpt lat="39.6517335" lon="-0.6736809"><ele>191.0</ele><time>2026-04-04T11:16:47.585Z</time></trkpt><trkpt lat="39.6516763" lon="-0.6736362"><ele>191.0</ele><time>2026-04-04T11:16:48.588Z</time></trkpt><trkpt lat="39.6516026" lon="-0.6735904"><ele>191.0</ele><time>2026-04-04T11:16:49.586Z</time></trkpt><trkpt lat="39.6515296" lon="-0.6735489"><ele>191.0</ele><time>2026-04-04T11:16:50.585Z</time></trkpt><trkpt lat="39.6514567" lon="-0.6735263"><ele>191.0</ele><time>2026-04-04T11:16:51.586Z</time></trkpt><trkpt lat="39.6513846" lon="-0.6735247"><ele>191.0</ele><time>2026-04-04T11:16:52.587Z</time></trkpt><trkpt lat="39.6513138" lon="-0.6735223"><ele>191.0</ele><time>2026-04-04T11:16:53.585Z</time></trkpt><trkpt lat="39.6512448" lon="-0.6735307"><ele>191.0</ele><time>2026-04-04T11:16:54.587Z</time></trkpt><trkpt lat="39.651185" lon="-0.6735617"><ele>190.85714285714286</ele><time>2026-04-04T11:16:55.587Z</time></trkpt><trkpt lat="39.6511224" lon="-0.6736002"><ele>190.7142857142857</ele><time>2026-04-04T11:16:56.587Z</time></trkpt><trkpt lat="39.6510447" lon="-0.6736309"><ele>190.57142857142856</ele><time>2026-04-04T11:16:57.586Z</time></trkpt><trkpt lat="39.6509682" lon="-0.6736616"><ele>190.42857142857144</ele><time>2026-04-04T11:16:58.587Z</time></trkpt><trkpt lat="39.6509003" lon="-0.67369"><ele>190.28571428571428</ele><time>2026-04-04T11:16:59.586Z</time></trkpt><trkpt lat="39.6508318" lon="-0.6737084"><ele>190.14285714285714</ele><time>2026-04-04T11:17:00.587Z</time></trkpt><trkpt lat="39.6507705" lon="-0.6737284"><ele>190.0</ele><time>2026-04-04T11:17:01.587Z</time></trkpt><trkpt lat="39.6506329" lon="-0.6737557"><ele>189.6</ele><time>2026-04-04T11:17:03.586Z</time></trkpt><trkpt lat="39.6505312" lon="-0.6737474"><ele>189.2</ele><time>2026-04-04T11:17:04.586Z</time></trkpt><trkpt lat="39.6504222" lon="-0.6737409"><ele>188.8</ele><time>2026-04-04T11:17:05.588Z</time></trkpt><trkpt lat="39.6503106" lon="-0.6737186"><ele>188.4</ele><time>2026-04-04T11:17:06.586Z</time></trkpt><trkpt lat="39.6502117" lon="-0.6736963"><ele>188.0</ele><time>2026-04-04T11:17:07.586Z</time></trkpt><trkpt lat="39.6500956" lon="-0.6736737"><ele>187.75</ele><time>2026-04-04T11:17:08.587Z</time></trkpt><trkpt lat="39.6499874" lon="-0.6736611"><ele>187.5</ele><time>2026-04-04T11:17:09.586Z</time></trkpt><trkpt lat="39.6498748" lon="-0.6736579"><ele>187.25</ele><time>2026-04-04T11:17:10.587Z</time></trkpt><trkpt lat="39.6497561" lon="-0.6736599"><ele>187.0</ele><time>2026-04-04T11:17:11.586Z</time></trkpt><trkpt lat="39.6496414" lon="-0.6736591"><ele>187.0</ele><time>2026-04-04T11:17:12.587Z</time></trkpt><trkpt lat="39.6495108" lon="-0.6736626"><ele>187.0</ele><time>2026-04-04T11:17:13.586Z</time></trkpt><trkpt lat="39.649375" lon="-0.6736629"><ele>187.0</ele><time>2026-04-04T11:17:14.587Z</time></trkpt><trkpt lat="39.6492454" lon="-0.6736503"><ele>187.0</ele><time>2026-04-04T11:17:15.587Z</time></trkpt><trkpt lat="39.6490986" lon="-0.6736341"><ele>186.75</ele><time>2026-04-04T11:17:16.586Z</time></trkpt><trkpt lat="39.6489675" lon="-0.6736222"><ele>186.5</ele><time>2026-04-04T11:17:17.588Z</time></trkpt><trkpt lat="39.6488299" lon="-0.673608"><ele>186.25</ele><time>2026-04-04T11:17:18.585Z</time></trkpt><trkpt lat="39.6486916" lon="-0.673599"><ele>186.0</ele><time>2026-04-04T11:17:19.587Z</time></trkpt><trkpt lat="39.648561" lon="-0.6735954"><ele>185.25</ele><time>2026-04-04T11:17:20.587Z</time></trkpt><trkpt lat="39.6484257" lon="-0.6735949"><ele>184.5</ele><time>2026-04-04T11:17:21.588Z</time></trkpt><trkpt lat="39.6482954" lon="-0.6735787"><ele>183.75</ele><time>2026-04-04T11:17:22.587Z</time></trkpt><trkpt lat="39.6481447" lon="-0.6735632"><ele>183.0</ele><time>2026-04-04T11:17:23.588Z</time></trkpt><trkpt lat="39.6480159" lon="-0.6735353"><ele>183.0</ele><time>2026-04-04T11:17:24.587Z</time></trkpt><trkpt lat="39.6478973" lon="-0.6735053"><ele>183.0</ele><time>2026-04-04T11:17:25.588Z</time></trkpt><trkpt lat="39.6477938" lon="-0.6734868"><ele>183.0</ele><time>2026-04-04T11:17:26.586Z</time></trkpt><trkpt lat="39.6476935" lon="-0.6734701"><ele>183.0</ele><time>2026-04-04T11:17:27.585Z</time></trkpt><trkpt lat="39.6475921" lon="-0.6734661"><ele>183.0</ele><time>2026-04-04T11:17:28.586Z</time></trkpt><trkpt lat="39.6475066" lon="-0.673473"><ele>183.4</ele><time>2026-04-04T11:17:29.586Z</time></trkpt><trkpt lat="39.647418" lon="-0.6734775"><ele>183.8</ele><time>2026-04-04T11:17:30.586Z</time></trkpt><trkpt lat="39.6473154" lon="-0.6735012"><ele>184.2</ele><time>2026-04-04T11:17:31.587Z</time></trkpt><trkpt lat="39.6472105" lon="-0.6735237"><ele>184.6</ele><time>2026-04-04T11:17:32.587Z</time></trkpt><trkpt lat="39.6470997" lon="-0.673527"><ele>185.0</ele><time>2026-04-04T11:17:33.587Z</time></trkpt><trkpt lat="39.6469807" lon="-0.6735244"><ele>185.0</ele><time>2026-04-04T11:17:34.585Z</time></trkpt><trkpt lat="39.6468582" lon="-0.6735014"><ele>185.0</ele><time>2026-04-04T11:17:35.588Z</time></trkpt><trkpt lat="39.6467347" lon="-0.6734735"><ele>185.0</ele><time>2026-04-04T11:17:36.586Z</time></trkpt><trkpt lat="39.6466373" lon="-0.67347"><ele>185.0</ele><time>2026-04-04T11:17:37.587Z</time></trkpt><trkpt lat="39.6465253" lon="-0.6734797"><ele>185.0</ele><time>2026-04-04T11:17:38.586Z</time></trkpt><trkpt lat="39.6463912" lon="-0.6735123"><ele>185.0</ele><time>2026-04-04T11:17:39.587Z</time></trkpt><trkpt lat="39.6462532" lon="-0.6735591"><ele>185.0</ele><time>2026-04-04T11:17:40.587Z</time></trkpt><trkpt lat="39.6461079" lon="-0.6736072"><ele>185.0</ele><time>2026-04-04T11:17:41.585Z</time></trkpt><trkpt lat="39.6459769" lon="-0.673653"><ele>184.6</ele><time>2026-04-04T11:17:42.585Z</time></trkpt><trkpt lat="39.6458551" lon="-0.6736835"><ele>184.2</ele><time>2026-04-04T11:17:43.588Z</time></trkpt><trkpt lat="39.645747" lon="-0.6737144"><ele>183.8</ele><time>2026-04-04T11:17:44.586Z</time></trkpt><trkpt lat="39.6456461" lon="-0.6737446"><ele>183.4</ele><time>2026-04-04T11:17:45.587Z</time></trkpt><trkpt lat="39.6455584" lon="-0.6737711"><ele>183.0</ele><time>2026-04-04T11:17:46.586Z</time></trkpt><trkpt lat="39.6454855" lon="-0.6738017"><ele>183.0</ele><time>2026-04-04T11:17:47.586Z</time></trkpt><trkpt lat="39.6454216" lon="-0.6738378"><ele>183.0</ele><time>2026-04-04T11:17:48.586Z</time></trkpt><trkpt lat="39.645323" lon="-0.6738764"><ele>183.0</ele><time>2026-04-04T11:17:50.586Z</time></trkpt><trkpt lat="39.6452476" lon="-0.6738708"><ele>183.0</ele><time>2026-04-04T11:17:53.587Z</time></trkpt><trkpt lat="39.6451156" lon="-0.6739151"><ele>183.0</ele><time>2026-04-04T11:17:55.587Z</time></trkpt><trkpt lat="39.6450232" lon="-0.6739575"><ele>182.75</ele><time>2026-04-04T11:17:56.588Z</time></trkpt><trkpt lat="39.6449193" lon="-0.6739932"><ele>182.5</ele><time>2026-04-04T11:17:57.586Z</time></trkpt><trkpt lat="39.6447949" lon="-0.6740188"><ele>182.25</ele><time>2026-04-04T11:17:58.587Z</time></trkpt><trkpt lat="39.6446741" lon="-0.6740372"><ele>182.0</ele><time>2026-04-04T11:17:59.587Z</time></trkpt><trkpt lat="39.6445525" lon="-0.6740451"><ele>181.75</ele><time>2026-04-04T11:18:00.586Z</time></trkpt><trkpt lat="39.6444311" lon="-0.6740484"><ele>181.5</ele><time>2026-04-04T11:18:01.587Z</time></trkpt><trkpt lat="39.6443225" lon="-0.6740385"><ele>181.25</ele><time>2026-04-04T11:18:02.586Z</time></trkpt><trkpt lat="39.6442089" lon="-0.6740212"><ele>181.0</ele><time>2026-04-04T11:18:03.586Z</time></trkpt><trkpt lat="39.6440764" lon="-0.6740119"><ele>181.0</ele><time>2026-04-04T11:18:04.587Z</time></trkpt><trkpt lat="39.6439338" lon="-0.6740147"><ele>181.0</ele><time>2026-04-04T11:18:05.586Z</time></trkpt><trkpt lat="39.6437817" lon="-0.6740315"><ele>181.0</ele><time>2026-04-04T11:18:06.585Z</time></trkpt><trkpt lat="39.6436427" lon="-0.6740649"><ele>181.0</ele><time>2026-04-04T11:18:07.587Z</time></trkpt><trkpt lat="39.643513" lon="-0.674099"><ele>180.20000000000002</ele><time>2026-04-04T11:18:08.587Z</time></trkpt><trkpt lat="39.6433947" lon="-0.6741296"><ele>179.4</ele><time>2026-04-04T11:18:09.587Z</time></trkpt><trkpt lat="39.6432826" lon="-0.674161"><ele>178.6</ele><time>2026-04-04T11:18:10.587Z</time></trkpt><trkpt lat="39.6431814" lon="-0.6741928"><ele>177.8</ele><time>2026-04-04T11:18:11.585Z</time></trkpt><trkpt lat="39.6430825" lon="-0.6742158"><ele>177.0</ele><time>2026-04-04T11:18:12.586Z</time></trkpt><trkpt lat="39.6429941" lon="-0.6742408"><ele>177.0</ele><time>2026-04-04T11:18:13.587Z</time></trkpt><trkpt lat="39.6428971" lon="-0.6742661"><ele>177.0</ele><time>2026-04-04T11:18:14.588Z</time></trkpt><trkpt lat="39.6428128" lon="-0.6742937"><ele>177.0</ele><time>2026-04-04T11:18:15.585Z</time></trkpt><trkpt lat="39.6427165" lon="-0.6743109"><ele>177.0</ele><time>2026-04-04T11:18:16.587Z</time></trkpt><trkpt lat="39.6426" lon="-0.6743146"><ele>177.0</ele><time>2026-04-04T11:18:17.587Z</time></trkpt><trkpt lat="39.6424933" lon="-0.6743217"><ele>177.0</ele><time>2026-04-04T11:18:18.585Z</time></trkpt><trkpt lat="39.6424052" lon="-0.6743339"><ele>177.0</ele><time>2026-04-04T11:18:19.588Z</time></trkpt><trkpt lat="39.6423351" lon="-0.6743461"><ele>177.0</ele><time>2026-04-04T11:18:20.587Z</time></trkpt><trkpt lat="39.6422737" lon="-0.6743707"><ele>177.0</ele><time>2026-04-04T11:18:21.585Z</time></trkpt><trkpt lat="39.6422091" lon="-0.6744168"><ele>177.0</ele><time>2026-04-04T11:18:22.586Z</time></trkpt><trkpt lat="39.6421308" lon="-0.6744508"><ele>177.0</ele><time>2026-04-04T11:18:23.587Z</time></trkpt><trkpt lat="39.6420319" lon="-0.674464"><ele>176.25</ele><time>2026-04-04T11:18:24.588Z</time></trkpt><trkpt lat="39.6419171" lon="-0.6744778"><ele>175.5</ele><time>2026-04-04T11:18:25.586Z</time></trkpt><trkpt lat="39.6417757" lon="-0.6744824"><ele>174.75</ele><time>2026-04-04T11:18:26.588Z</time></trkpt><trkpt lat="39.6416271" lon="-0.6744669"><ele>174.0</ele><time>2026-04-04T11:18:27.585Z</time></trkpt><trkpt lat="39.6414569" lon="-0.6744425"><ele>174.5</ele><time>2026-04-04T11:18:28.587Z</time></trkpt><trkpt lat="39.6413104" lon="-0.6744186"><ele>175.0</ele><time>2026-04-04T11:18:29.587Z</time></trkpt><trkpt lat="39.6411699" lon="-0.6744124"><ele>175.5</ele><time>2026-04-04T11:18:30.585Z</time></trkpt><trkpt lat="39.6410342" lon="-0.6744198"><ele>176.0</ele><time>2026-04-04T11:18:31.587Z</time></trkpt><trkpt lat="39.640883" lon="-0.6744449"><ele>174.66666666666666</ele><time>2026-04-04T11:18:32.587Z</time></trkpt><trkpt lat="39.6407296" lon="-0.6744833"><ele>173.33333333333334</ele><time>2026-04-04T11:18:33.586Z</time></trkpt><trkpt lat="39.6405689" lon="-0.6745102"><ele>172.0</ele><time>2026-04-04T11:18:34.588Z</time></trkpt><trkpt lat="39.6403929" lon="-0.6745398"><ele>172.0</ele><time>2026-04-04T11:18:35.586Z</time></trkpt><trkpt lat="39.6402218" lon="-0.6745747"><ele>172.0</ele><time>2026-04-04T11:18:36.586Z</time></trkpt><trkpt lat="39.6400542" lon="-0.6746128"><ele>172.0</ele><time>2026-04-04T11:18:37.587Z</time></trkpt><trkpt lat="39.6398932" lon="-0.6746403"><ele>172.0</ele><time>2026-04-04T11:18:38.586Z</time></trkpt><trkpt lat="39.6397433" lon="-0.6746529"><ele>172.0</ele><time>2026-04-04T11:18:39.587Z</time></trkpt><trkpt lat="39.6396034" lon="-0.6746483"><ele>172.0</ele><time>2026-04-04T11:18:40.588Z</time></trkpt><trkpt lat="39.6394652" lon="-0.6746272"><ele>172.0</ele><time>2026-04-04T11:18:41.586Z</time></trkpt><trkpt lat="39.6393278" lon="-0.6745983"><ele>172.2</ele><time>2026-04-04T11:18:42.588Z</time></trkpt><trkpt lat="39.6392061" lon="-0.6745757"><ele>172.39999999999998</ele><time>2026-04-04T11:18:43.587Z</time></trkpt><trkpt lat="39.6390999" lon="-0.6745549"><ele>172.60000000000002</ele><time>2026-04-04T11:18:44.586Z</time></trkpt><trkpt lat="39.6390022" lon="-0.6745482"><ele>172.8</ele><time>2026-04-04T11:18:45.585Z</time></trkpt><trkpt lat="39.6389091" lon="-0.6745548"><ele>173.0</ele><time>2026-04-04T11:18:46.588Z</time></trkpt><trkpt lat="39.6388173" lon="-0.6745561"><ele>173.0</ele><time>2026-04-04T11:18:47.587Z</time></trkpt><trkpt lat="39.6387105" lon="-0.6745577"><ele>173.0</ele><time>2026-04-04T11:18:48.587Z</time></trkpt><trkpt lat="39.6385957" lon="-0.6745692"><ele>173.0</ele><time>2026-04-04T11:18:49.587Z</time></trkpt><trkpt lat="39.6384965" lon="-0.6745837"><ele>173.0</ele><time>2026-04-04T11:18:50.587Z</time></trkpt><trkpt lat="39.6383941" lon="-0.6745969"><ele>173.0</ele><time>2026-04-04T11:18:51.586Z</time></trkpt><trkpt lat="39.638275" lon="-0.6745868"><ele>172.2</ele><time>2026-04-04T11:18:52.588Z</time></trkpt><trkpt lat="39.6381443" lon="-0.6745668"><ele>171.4</ele><time>2026-04-04T11:18:53.586Z</time></trkpt><trkpt lat="39.6380387" lon="-0.6745575"><ele>170.6</ele><time>2026-04-04T11:18:54.587Z</time></trkpt><trkpt lat="39.6379535" lon="-0.6745577"><ele>169.79999999999998</ele><time>2026-04-04T11:18:55.587Z</time></trkpt><trkpt lat="39.6378764" lon="-0.6745676"><ele>169.0</ele><time>2026-04-04T11:18:56.586Z</time></trkpt><trkpt lat="39.6378111" lon="-0.6745891"><ele>168.79999999999998</ele><time>2026-04-04T11:18:57.587Z</time></trkpt><trkpt lat="39.6377121" lon="-0.6745871"><ele>168.6</ele><time>2026-04-04T11:18:59.586Z</time></trkpt><trkpt lat="39.6376452" lon="-0.6745288"><ele>168.4</ele><time>2026-04-04T11:19:00.586Z</time></trkpt><trkpt lat="39.6375744" lon="-0.6744615"><ele>168.2</ele><time>2026-04-04T11:19:01.586Z</time></trkpt><trkpt lat="39.6374898" lon="-0.6743838"><ele>168.0</ele><time>2026-04-04T11:19:02.586Z</time></trkpt><trkpt lat="39.6374225" lon="-0.6743191"><ele>168.0</ele><time>2026-04-04T11:19:03.587Z</time></trkpt><trkpt lat="39.6373673" lon="-0.674268"><ele>168.0</ele><time>2026-04-04T11:19:04.588Z</time></trkpt><trkpt lat="39.6372905" lon="-0.6742001"><ele>168.0</ele><time>2026-04-04T11:19:06.586Z</time></trkpt><trkpt lat="39.6371762" lon="-0.6741434"><ele>168.0</ele><time>2026-04-04T11:19:08.586Z</time></trkpt><trkpt lat="39.6370676" lon="-0.6740777"><ele>168.0</ele><time>2026-04-04T11:19:10.586Z</time></trkpt><trkpt lat="39.6370095" lon="-0.674025"><ele>168.0</ele><time>2026-04-04T11:19:11.586Z</time></trkpt><trkpt lat="39.6369256" lon="-0.6739624"><ele>168.0</ele><time>2026-04-04T11:19:13.586Z</time></trkpt><trkpt lat="39.6368277" lon="-0.6738671"><ele>168.0</ele><time>2026-04-04T11:19:15.587Z</time></trkpt><trkpt lat="39.6367703" lon="-0.6737868"><ele>168.0</ele><time>2026-04-04T11:19:16.586Z</time></trkpt><trkpt lat="39.6367192" lon="-0.6736724"><ele>168.0</ele><time>2026-04-04T11:19:17.586Z</time></trkpt><trkpt lat="39.6366716" lon="-0.6735797"><ele>168.0</ele><time>2026-04-04T11:19:18.585Z</time></trkpt><trkpt lat="39.6366295" lon="-0.6734956"><ele>168.0</ele><time>2026-04-04T11:19:19.587Z</time></trkpt><trkpt lat="39.6365803" lon="-0.6734295"><ele>168.0</ele><time>2026-04-04T11:19:20.585Z</time></trkpt><trkpt lat="39.6365181" lon="-0.6733608"><ele>168.0</ele><time>2026-04-04T11:19:21.588Z</time></trkpt><trkpt lat="39.6364573" lon="-0.6733032"><ele>168.0</ele><time>2026-04-04T11:19:22.588Z</time></trkpt><trkpt lat="39.6363857" lon="-0.6732543"><ele>168.0</ele><time>2026-04-04T11:19:23.587Z</time></trkpt><trkpt lat="39.6363066" lon="-0.6732083"><ele>168.0</ele><time>2026-04-04T11:19:24.586Z</time></trkpt><trkpt lat="39.6362486" lon="-0.6731621"><ele>168.0</ele><time>2026-04-04T11:19:25.586Z</time></trkpt><trkpt lat="39.6361578" lon="-0.6730619"><ele>168.0</ele><time>2026-04-04T11:19:27.586Z</time></trkpt><trkpt lat="39.6361035" lon="-0.6729796"><ele>168.0</ele><time>2026-04-04T11:19:30.588Z</time></trkpt><trkpt lat="39.6360152" lon="-0.6729456"><ele>168.0</ele><time>2026-04-04T11:19:34.586Z</time></trkpt><trkpt lat="39.6358979" lon="-0.672928"><ele>167.8</ele><time>2026-04-04T11:19:36.586Z</time></trkpt><trkpt lat="39.6357968" lon="-0.6729177"><ele>167.60000000000002</ele><time>2026-04-04T11:19:38.588Z</time></trkpt><trkpt lat="39.6357337" lon="-0.6728948"><ele>167.39999999999998</ele><time>2026-04-04T11:19:39.587Z</time></trkpt><trkpt lat="39.6356247" lon="-0.6728026"><ele>167.2</ele><time>2026-04-04T11:19:41.586Z</time></trkpt><trkpt lat="39.6355605" lon="-0.6727314"><ele>167.0</ele><time>2026-04-04T11:19:42.587Z</time></trkpt><trkpt lat="39.6354874" lon="-0.6726336"><ele>167.0</ele><time>2026-04-04T11:19:43.586Z</time></trkpt><trkpt lat="39.6354067" lon="-0.6725305"><ele>167.0</ele><time>2026-04-04T11:19:44.587Z</time></trkpt><trkpt lat="39.6353117" lon="-0.672417"><ele>167.0</ele><time>2026-04-04T11:19:45.587Z</time></trkpt><trkpt lat="39.6352206" lon="-0.6723006"><ele>167.0</ele><time>2026-04-04T11:19:46.586Z</time></trkpt><trkpt lat="39.6351334" lon="-0.6721914"><ele>166.75</ele><time>2026-04-04T11:19:47.587Z</time></trkpt><trkpt lat="39.6350519" lon="-0.6720839"><ele>166.5</ele><time>2026-04-04T11:19:48.586Z</time></trkpt><trkpt lat="39.634966" lon="-0.6719874"><ele>166.25</ele><time>2026-04-04T11:19:49.586Z</time></trkpt><trkpt lat="39.6348732" lon="-0.6718794"><ele>166.0</ele><time>2026-04-04T11:19:50.587Z</time></trkpt><trkpt lat="39.6347782" lon="-0.6717734"><ele>166.0</ele><time>2026-04-04T11:19:51.587Z</time></trkpt><trkpt lat="39.6346863" lon="-0.6716828"><ele>166.0</ele><time>2026-04-04T11:19:52.585Z</time></trkpt><trkpt lat="39.6345965" lon="-0.6716065"><ele>166.0</ele><time>2026-04-04T11:19:53.586Z</time></trkpt><trkpt lat="39.6345026" lon="-0.6715241"><ele>166.0</ele><time>2026-04-04T11:19:54.586Z</time></trkpt><trkpt lat="39.6343994" lon="-0.6714597"><ele>165.25</ele><time>2026-04-04T11:19:55.585Z</time></trkpt><trkpt lat="39.6342907" lon="-0.6714136"><ele>164.5</ele><time>2026-04-04T11:19:56.585Z</time></trkpt><trkpt lat="39.634183" lon="-0.6713632"><ele>163.75</ele><time>2026-04-04T11:19:57.587Z</time></trkpt><trkpt lat="39.6340694" lon="-0.6712911"><ele>163.0</ele><time>2026-04-04T11:19:58.586Z</time></trkpt><trkpt lat="39.6339717" lon="-0.6712436"><ele>163.0</ele><time>2026-04-04T11:19:59.586Z</time></trkpt><trkpt lat="39.6338785" lon="-0.6711907"><ele>163.0</ele><time>2026-04-04T11:20:00.587Z</time></trkpt><trkpt lat="39.6337977" lon="-0.6711439"><ele>163.0</ele><time>2026-04-04T11:20:01.586Z</time></trkpt><trkpt lat="39.6337245" lon="-0.6711009"><ele>163.0</ele><time>2026-04-04T11:20:02.587Z</time></trkpt><trkpt lat="39.6336584" lon="-0.6710407"><ele>163.0</ele><time>2026-04-04T11:20:03.587Z</time></trkpt><trkpt lat="39.6335974" lon="-0.6709439"><ele>163.0</ele><time>2026-04-04T11:20:04.586Z</time></trkpt><trkpt lat="39.6335403" lon="-0.6708357"><ele>162.75</ele><time>2026-04-04T11:20:05.587Z</time></trkpt><trkpt lat="39.6334802" lon="-0.6707225"><ele>162.5</ele><time>2026-04-04T11:20:06.586Z</time></trkpt><trkpt lat="39.6334237" lon="-0.6705699"><ele>162.25</ele><time>2026-04-04T11:20:07.586Z</time></trkpt><trkpt lat="39.6333532" lon="-0.670416"><ele>162.0</ele><time>2026-04-04T11:20:08.587Z</time></trkpt><trkpt lat="39.6332951" lon="-0.6702749"><ele>161.75</ele><time>2026-04-04T11:20:09.586Z</time></trkpt><trkpt lat="39.6332338" lon="-0.6701311"><ele>161.5</ele><time>2026-04-04T11:20:10.586Z</time></trkpt><trkpt lat="39.6331652" lon="-0.6699831"><ele>161.25</ele><time>2026-04-04T11:20:11.587Z</time></trkpt><trkpt lat="39.6330892" lon="-0.6698149"><ele>161.0</ele><time>2026-04-04T11:20:12.586Z</time></trkpt><trkpt lat="39.6330219" lon="-0.6696792"><ele>161.0</ele><time>2026-04-04T11:20:13.586Z</time></trkpt><trkpt lat="39.6329616" lon="-0.6695224"><ele>161.0</ele><time>2026-04-04T11:20:14.586Z</time></trkpt><trkpt lat="39.6329027" lon="-0.6693742"><ele>161.0</ele><time>2026-04-04T11:20:15.587Z</time></trkpt><trkpt lat="39.6328361" lon="-0.6692324"><ele>161.0</ele><time>2026-04-04T11:20:16.587Z</time></trkpt><trkpt lat="39.6327646" lon="-0.6690832"><ele>160.75</ele><time>2026-04-04T11:20:17.587Z</time></trkpt><trkpt lat="39.6326989" lon="-0.6689322"><ele>160.5</ele><time>2026-04-04T11:20:18.586Z</time></trkpt><trkpt lat="39.6326391" lon="-0.6687858"><ele>160.25</ele><time>2026-04-04T11:20:19.586Z</time></trkpt><trkpt lat="39.6325857" lon="-0.668656"><ele>160.0</ele><time>2026-04-04T11:20:20.586Z</time></trkpt><trkpt lat="39.6325359" lon="-0.6685375"><ele>159.6</ele><time>2026-04-04T11:20:21.588Z</time></trkpt><trkpt lat="39.6324784" lon="-0.6684084"><ele>159.2</ele><time>2026-04-04T11:20:22.588Z</time></trkpt><trkpt lat="39.6324027" lon="-0.668307"><ele>158.8</ele><time>2026-04-04T11:20:23.587Z</time></trkpt><trkpt lat="39.6323256" lon="-0.6682181"><ele>158.4</ele><time>2026-04-04T11:20:24.586Z</time></trkpt><trkpt lat="39.6322432" lon="-0.6681509"><ele>158.0</ele><time>2026-04-04T11:20:25.587Z</time></trkpt><trkpt lat="39.6321576" lon="-0.668091"><ele>158.0</ele><time>2026-04-04T11:20:26.586Z</time></trkpt><trkpt lat="39.6320719" lon="-0.6680233"><ele>158.0</ele><time>2026-04-04T11:20:27.586Z</time></trkpt><trkpt lat="39.6319871" lon="-0.6679307"><ele>158.0</ele><time>2026-04-04T11:20:28.586Z</time></trkpt><trkpt lat="39.6318947" lon="-0.6678205"><ele>158.0</ele><time>2026-04-04T11:20:29.585Z</time></trkpt><trkpt lat="39.631789" lon="-0.6676799"><ele>157.5</ele><time>2026-04-04T11:20:30.586Z</time></trkpt><trkpt lat="39.6316786" lon="-0.667543"><ele>157.0</ele><time>2026-04-04T11:20:31.585Z</time></trkpt><trkpt lat="39.631565" lon="-0.6674327"><ele>156.5</ele><time>2026-04-04T11:20:32.587Z</time></trkpt><trkpt lat="39.63145" lon="-0.667321"><ele>156.0</ele><time>2026-04-04T11:20:33.586Z</time></trkpt><trkpt lat="39.6313399" lon="-0.6672245"><ele>156.0</ele><time>2026-04-04T11:20:34.587Z</time></trkpt><trkpt lat="39.631233" lon="-0.6671254"><ele>156.0</ele><time>2026-04-04T11:20:35.587Z</time></trkpt><trkpt lat="39.6311175" lon="-0.6669953"><ele>156.0</ele><time>2026-04-04T11:20:36.588Z</time></trkpt><trkpt lat="39.631015" lon="-0.6668641"><ele>156.0</ele><time>2026-04-04T11:20:37.585Z</time></trkpt><trkpt lat="39.6309242" lon="-0.6667416"><ele>155.5</ele><time>2026-04-04T11:20:38.586Z</time></trkpt><trkpt lat="39.6308382" lon="-0.666641"><ele>155.0</ele><time>2026-04-04T11:20:39.586Z</time></trkpt><trkpt lat="39.6307472" lon="-0.6665462"><ele>154.5</ele><time>2026-04-04T11:20:40.586Z</time></trkpt><trkpt lat="39.6306368" lon="-0.6664395"><ele>154.0</ele><time>2026-04-04T11:20:41.586Z</time></trkpt><trkpt lat="39.6305308" lon="-0.6663321"><ele>154.0</ele><time>2026-04-04T11:20:42.586Z</time></trkpt><trkpt lat="39.630445" lon="-0.666221"><ele>154.0</ele><time>2026-04-04T11:20:43.587Z</time></trkpt><trkpt lat="39.6303581" lon="-0.666103"><ele>154.0</ele><time>2026-04-04T11:20:44.586Z</time></trkpt><trkpt lat="39.6302745" lon="-0.665988"><ele>154.0</ele><time>2026-04-04T11:20:45.585Z</time></trkpt><trkpt lat="39.6301884" lon="-0.6658655"><ele>153.5</ele><time>2026-04-04T11:20:46.586Z</time></trkpt><trkpt lat="39.6300866" lon="-0.6657352"><ele>153.0</ele><time>2026-04-04T11:20:47.588Z</time></trkpt><trkpt lat="39.6299849" lon="-0.6656052"><ele>152.5</ele><time>2026-04-04T11:20:48.587Z</time></trkpt><trkpt lat="39.6298888" lon="-0.665465"><ele>152.0</ele><time>2026-04-04T11:20:49.586Z</time></trkpt><trkpt lat="39.6297935" lon="-0.6653474"><ele>152.0</ele><time>2026-04-04T11:20:50.585Z</time></trkpt><trkpt lat="39.6296991" lon="-0.6652462"><ele>152.0</ele><time>2026-04-04T11:20:51.586Z</time></trkpt><trkpt lat="39.6296011" lon="-0.6651415"><ele>152.0</ele><time>2026-04-04T11:20:52.587Z</time></trkpt><trkpt lat="39.6295119" lon="-0.6650544"><ele>152.0</ele><time>2026-04-04T11:20:53.586Z</time></trkpt><trkpt lat="39.6294273" lon="-0.6649819"><ele>152.0</ele><time>2026-04-04T11:20:54.587Z</time></trkpt><trkpt lat="39.6293491" lon="-0.6649231"><ele>152.0</ele><time>2026-04-04T11:20:55.586Z</time></trkpt><trkpt lat="39.6292704" lon="-0.664866"><ele>152.0</ele><time>2026-04-04T11:20:56.587Z</time></trkpt><trkpt lat="39.6291896" lon="-0.6648184"><ele>152.0</ele><time>2026-04-04T11:20:57.586Z</time></trkpt><trkpt lat="39.6290944" lon="-0.6647648"><ele>152.0</ele><time>2026-04-04T11:20:58.587Z</time></trkpt><trkpt lat="39.6290173" lon="-0.6647312"><ele>152.0</ele><time>2026-04-04T11:20:59.587Z</time></trkpt><trkpt lat="39.6289404" lon="-0.6647028"><ele>152.0</ele><time>2026-04-04T11:21:00.586Z</time></trkpt><trkpt lat="39.6288678" lon="-0.6646856"><ele>152.0</ele><time>2026-04-04T11:21:01.586Z</time></trkpt><trkpt lat="39.6287844" lon="-0.664682"><ele>152.0</ele><time>2026-04-04T11:21:02.586Z</time></trkpt><trkpt lat="39.628714" lon="-0.6646649"><ele>152.0</ele><time>2026-04-04T11:21:03.585Z</time></trkpt><trkpt lat="39.6286474" lon="-0.6646339"><ele>152.0</ele><time>2026-04-04T11:21:04.586Z</time></trkpt><trkpt lat="39.6285569" lon="-0.6645641"><ele>152.25</ele><time>2026-04-04T11:21:05.587Z</time></trkpt><trkpt lat="39.6284586" lon="-0.6644723"><ele>152.5</ele><time>2026-04-04T11:21:06.586Z</time></trkpt><trkpt lat="39.6283441" lon="-0.6643729"><ele>152.75</ele><time>2026-04-04T11:21:07.586Z</time></trkpt><trkpt lat="39.6282525" lon="-0.6642836"><ele>153.0</ele><time>2026-04-04T11:21:08.587Z</time></trkpt><trkpt lat="39.6281685" lon="-0.6641987"><ele>153.0</ele><time>2026-04-04T11:21:09.585Z</time></trkpt><trkpt lat="39.6281014" lon="-0.6641316"><ele>153.0</ele><time>2026-04-04T11:21:10.586Z</time></trkpt><trkpt lat="39.6280362" lon="-0.6640551"><ele>153.0</ele><time>2026-04-04T11:21:11.586Z</time></trkpt><trkpt lat="39.6279741" lon="-0.6639795"><ele>153.0</ele><time>2026-04-04T11:21:12.585Z</time></trkpt><trkpt lat="39.6279173" lon="-0.6638896"><ele>153.0</ele><time>2026-04-04T11:21:13.586Z</time></trkpt><trkpt lat="39.6278458" lon="-0.6637924"><ele>153.75</ele><time>2026-04-04T11:21:14.586Z</time></trkpt><trkpt lat="39.627757" lon="-0.6637054"><ele>154.5</ele><time>2026-04-04T11:21:15.585Z</time></trkpt><trkpt lat="39.62766" lon="-0.6636056"><ele>155.25</ele><time>2026-04-04T11:21:16.585Z</time></trkpt><trkpt lat="39.6275691" lon="-0.663514"><ele>156.0</ele><time>2026-04-04T11:21:17.586Z</time></trkpt><trkpt lat="39.6274816" lon="-0.6634243"><ele>154.5</ele><time>2026-04-04T11:21:18.586Z</time></trkpt><trkpt lat="39.6273914" lon="-0.6633436"><ele>153.0</ele><time>2026-04-04T11:21:19.587Z</time></trkpt><trkpt lat="39.627283" lon="-0.6632652"><ele>151.5</ele><time>2026-04-04T11:21:20.586Z</time></trkpt><trkpt lat="39.6271745" lon="-0.6631988"><ele>150.0</ele><time>2026-04-04T11:21:21.588Z</time></trkpt><trkpt lat="39.627056" lon="-0.6631471"><ele>150.25</ele><time>2026-04-04T11:21:22.586Z</time></trkpt><trkpt lat="39.626948" lon="-0.6631003"><ele>150.5</ele><time>2026-04-04T11:21:23.585Z</time></trkpt><trkpt lat="39.6268438" lon="-0.6630354"><ele>150.75</ele><time>2026-04-04T11:21:24.586Z</time></trkpt><trkpt lat="39.62674" lon="-0.6629457"><ele>151.0</ele><time>2026-04-04T11:21:25.585Z</time></trkpt><trkpt lat="39.6266392" lon="-0.6628488"><ele>150.4</ele><time>2026-04-04T11:21:26.587Z</time></trkpt><trkpt lat="39.6265534" lon="-0.6627796"><ele>149.8</ele><time>2026-04-04T11:21:27.585Z</time></trkpt><trkpt lat="39.6264707" lon="-0.6627303"><ele>149.20000000000002</ele><time>2026-04-04T11:21:28.585Z</time></trkpt><trkpt lat="39.6263737" lon="-0.6626921"><ele>148.6</ele><time>2026-04-04T11:21:29.585Z</time></trkpt><trkpt lat="39.6262514" lon="-0.6626638"><ele>148.0</ele><time>2026-04-04T11:21:30.585Z</time></trkpt><trkpt lat="39.6261085" lon="-0.6626256"><ele>147.8</ele><time>2026-04-04T11:21:31.587Z</time></trkpt><trkpt lat="39.6259821" lon="-0.6625941"><ele>147.60000000000002</ele><time>2026-04-04T11:21:32.586Z</time></trkpt><trkpt lat="39.6258672" lon="-0.6625657"><ele>147.39999999999998</ele><time>2026-04-04T11:21:33.585Z</time></trkpt><trkpt lat="39.6257695" lon="-0.6625552"><ele>147.2</ele><time>2026-04-04T11:21:34.585Z</time></trkpt><trkpt lat="39.6256827" lon="-0.6625512"><ele>147.0</ele><time>2026-04-04T11:21:35.588Z</time></trkpt><trkpt lat="39.6255847" lon="-0.6625542"><ele>147.0</ele><time>2026-04-04T11:21:36.587Z</time></trkpt><trkpt lat="39.6254706" lon="-0.6625618"><ele>147.0</ele><time>2026-04-04T11:21:37.586Z</time></trkpt><trkpt lat="39.6253528" lon="-0.6625746"><ele>147.0</ele><time>2026-04-04T11:21:38.586Z</time></trkpt><trkpt lat="39.625247" lon="-0.662577"><ele>147.0</ele><time>2026-04-04T11:21:39.587Z</time></trkpt><trkpt lat="39.6251501" lon="-0.6625738"><ele>147.0</ele><time>2026-04-04T11:21:40.587Z</time></trkpt><trkpt lat="39.6250577" lon="-0.6625743"><ele>146.5</ele><time>2026-04-04T11:21:41.586Z</time></trkpt><trkpt lat="39.6249709" lon="-0.6625797"><ele>146.0</ele><time>2026-04-04T11:21:42.585Z</time></trkpt><trkpt lat="39.6248836" lon="-0.6625799"><ele>145.5</ele><time>2026-04-04T11:21:43.585Z</time></trkpt><trkpt lat="39.6248039" lon="-0.6625863"><ele>145.0</ele><time>2026-04-04T11:21:44.587Z</time></trkpt><trkpt lat="39.6247223" lon="-0.6625952"><ele>144.5</ele><time>2026-04-04T11:21:45.586Z</time></trkpt><trkpt lat="39.624642" lon="-0.6626125"><ele>144.0</ele><time>2026-04-04T11:21:46.586Z</time></trkpt><trkpt lat="39.6245706" lon="-0.6626369"><ele>144.0</ele><time>2026-04-04T11:21:47.586Z</time></trkpt><trkpt lat="39.6245009" lon="-0.6626674"><ele>144.0</ele><time>2026-04-04T11:21:48.586Z</time></trkpt><trkpt lat="39.6244224" lon="-0.6626868"><ele>144.0</ele><time>2026-04-04T11:21:49.586Z</time></trkpt><trkpt lat="39.624353" lon="-0.6626993"><ele>144.0</ele><time>2026-04-04T11:21:50.585Z</time></trkpt><trkpt lat="39.6242732" lon="-0.6626823"><ele>144.0</ele><time>2026-04-04T11:21:51.586Z</time></trkpt><trkpt lat="39.624198" lon="-0.6626581"><ele>144.0</ele><time>2026-04-04T11:21:52.586Z</time></trkpt><trkpt lat="39.6241246" lon="-0.6626375"><ele>144.16666666666666</ele><time>2026-04-04T11:21:53.586Z</time></trkpt><trkpt lat="39.6240551" lon="-0.6626132"><ele>144.33333333333334</ele><time>2026-04-04T11:21:54.586Z</time></trkpt><trkpt lat="39.623979" lon="-0.6626051"><ele>144.5</ele><time>2026-04-04T11:21:55.587Z</time></trkpt><trkpt lat="39.6238917" lon="-0.6626057"><ele>144.66666666666669</ele><time>2026-04-04T11:21:56.585Z</time></trkpt><trkpt lat="39.6238014" lon="-0.6626194"><ele>144.83333333333334</ele><time>2026-04-04T11:21:57.587Z</time></trkpt><trkpt lat="39.6237042" lon="-0.6626494"><ele>145.0</ele><time>2026-04-04T11:21:58.586Z</time></trkpt><trkpt lat="39.6235878" lon="-0.6626902"><ele>144.5</ele><time>2026-04-04T11:21:59.587Z</time></trkpt><trkpt lat="39.6234683" lon="-0.6627338"><ele>144.0</ele><time>2026-04-04T11:22:00.585Z</time></trkpt><trkpt lat="39.6233359" lon="-0.6627711"><ele>143.5</ele><time>2026-04-04T11:22:01.587Z</time></trkpt><trkpt lat="39.6232049" lon="-0.6627888"><ele>143.0</ele><time>2026-04-04T11:22:02.586Z</time></trkpt><trkpt lat="39.6230733" lon="-0.6628086"><ele>143.25</ele><time>2026-04-04T11:22:03.586Z</time></trkpt><trkpt lat="39.6229018" lon="-0.6627958"><ele>143.5</ele><time>2026-04-04T11:22:04.585Z</time></trkpt><trkpt lat="39.6227612" lon="-0.6627937"><ele>143.75</ele><time>2026-04-04T11:22:05.587Z</time></trkpt><trkpt lat="39.6226277" lon="-0.6628057"><ele>144.0</ele><time>2026-04-04T11:22:06.585Z</time></trkpt><trkpt lat="39.6224821" lon="-0.6628259"><ele>144.0</ele><time>2026-04-04T11:22:07.586Z</time></trkpt><trkpt lat="39.6223402" lon="-0.6628485"><ele>144.0</ele><time>2026-04-04T11:22:08.586Z</time></trkpt><trkpt lat="39.6222086" lon="-0.6628751"><ele>144.0</ele><time>2026-04-04T11:22:09.586Z</time></trkpt><trkpt lat="39.6220767" lon="-0.662896"><ele>144.0</ele><time>2026-04-04T11:22:10.586Z</time></trkpt><trkpt lat="39.6219375" lon="-0.6629187"><ele>143.25</ele><time>2026-04-04T11:22:11.586Z</time></trkpt><trkpt lat="39.6218038" lon="-0.6629453"><ele>142.5</ele><time>2026-04-04T11:22:12.588Z</time></trkpt><trkpt lat="39.6216761" lon="-0.6629824"><ele>141.75</ele><time>2026-04-04T11:22:13.585Z</time></trkpt><trkpt lat="39.6215481" lon="-0.6630164"><ele>141.0</ele><time>2026-04-04T11:22:14.585Z</time></trkpt><trkpt lat="39.6214291" lon="-0.6630427"><ele>141.0</ele><time>2026-04-04T11:22:15.586Z</time></trkpt><trkpt lat="39.6213223" lon="-0.6630546"><ele>141.0</ele><time>2026-04-04T11:22:16.585Z</time></trkpt><trkpt lat="39.6212246" lon="-0.6630751"><ele>141.0</ele><time>2026-04-04T11:22:17.586Z</time></trkpt><trkpt lat="39.6211148" lon="-0.6631052"><ele>141.0</ele><time>2026-04-04T11:22:18.587Z</time></trkpt><trkpt lat="39.6210075" lon="-0.6631611"><ele>141.0</ele><time>2026-04-04T11:22:19.586Z</time></trkpt><trkpt lat="39.620907" lon="-0.6631806"><ele>140.4</ele><time>2026-04-04T11:22:20.587Z</time></trkpt><trkpt lat="39.6208057" lon="-0.6632023"><ele>139.8</ele><time>2026-04-04T11:22:21.586Z</time></trkpt><trkpt lat="39.6207182" lon="-0.6632269"><ele>139.20000000000002</ele><time>2026-04-04T11:22:22.585Z</time></trkpt><trkpt lat="39.6206328" lon="-0.6632684"><ele>138.6</ele><time>2026-04-04T11:22:23.586Z</time></trkpt><trkpt lat="39.6205314" lon="-0.663281"><ele>138.0</ele><time>2026-04-04T11:22:24.585Z</time></trkpt><trkpt lat="39.6204351" lon="-0.6632836"><ele>138.0</ele><time>2026-04-04T11:22:25.587Z</time></trkpt><trkpt lat="39.6203357" lon="-0.6632823"><ele>138.0</ele><time>2026-04-04T11:22:26.586Z</time></trkpt><trkpt lat="39.6202281" lon="-0.6632874"><ele>138.0</ele><time>2026-04-04T11:22:27.585Z</time></trkpt><trkpt lat="39.6201398" lon="-0.663287"><ele>138.0</ele><time>2026-04-04T11:22:28.587Z</time></trkpt><trkpt lat="39.6200416" lon="-0.6632774"><ele>138.0</ele><time>2026-04-04T11:22:29.587Z</time></trkpt><trkpt lat="39.619943" lon="-0.6632719"><ele>137.5</ele><time>2026-04-04T11:22:30.585Z</time></trkpt><trkpt lat="39.6198265" lon="-0.6632728"><ele>137.0</ele><time>2026-04-04T11:22:31.587Z</time></trkpt><trkpt lat="39.619687" lon="-0.6632657"><ele>136.5</ele><time>2026-04-04T11:22:32.586Z</time></trkpt><trkpt lat="39.6195513" lon="-0.663295"><ele>136.0</ele><time>2026-04-04T11:22:33.586Z</time></trkpt><trkpt lat="39.6194392" lon="-0.6633113"><ele>135.75</ele><time>2026-04-04T11:22:34.586Z</time></trkpt><trkpt lat="39.6192898" lon="-0.6633328"><ele>135.5</ele><time>2026-04-04T11:22:35.586Z</time></trkpt><trkpt lat="39.6191586" lon="-0.6633468"><ele>135.25</ele><time>2026-04-04T11:22:36.588Z</time></trkpt><trkpt lat="39.619041" lon="-0.6633484"><ele>135.0</ele><time>2026-04-04T11:22:37.585Z</time></trkpt><trkpt lat="39.6189346" lon="-0.6633545"><ele>135.0</ele><time>2026-04-04T11:22:38.586Z</time></trkpt><trkpt lat="39.6188332" lon="-0.6633692"><ele>135.0</ele><time>2026-04-04T11:22:39.587Z</time></trkpt><trkpt lat="39.6187289" lon="-0.6633995"><ele>135.0</ele><time>2026-04-04T11:22:40.586Z</time></trkpt><trkpt lat="39.6186258" lon="-0.6634436"><ele>135.0</ele><time>2026-04-04T11:22:41.585Z</time></trkpt><trkpt lat="39.6185211" lon="-0.6634933"><ele>135.0</ele><time>2026-04-04T11:22:42.586Z</time></trkpt><trkpt lat="39.6184234" lon="-0.6635342"><ele>134.75</ele><time>2026-04-04T11:22:43.587Z</time></trkpt><trkpt lat="39.6183123" lon="-0.6635806"><ele>134.5</ele><time>2026-04-04T11:22:44.588Z</time></trkpt><trkpt lat="39.6181863" lon="-0.663605"><ele>134.25</ele><time>2026-04-04T11:22:45.586Z</time></trkpt><trkpt lat="39.6180707" lon="-0.6636164"><ele>134.0</ele><time>2026-04-04T11:22:46.587Z</time></trkpt><trkpt lat="39.6179701" lon="-0.6636445"><ele>133.75</ele><time>2026-04-04T11:22:47.586Z</time></trkpt><trkpt lat="39.6178651" lon="-0.6636746"><ele>133.5</ele><time>2026-04-04T11:22:48.585Z</time></trkpt><trkpt lat="39.6177483" lon="-0.6637301"><ele>133.25</ele><time>2026-04-04T11:22:49.586Z</time></trkpt><trkpt lat="39.6176244" lon="-0.6637844"><ele>133.0</ele><time>2026-04-04T11:22:50.585Z</time></trkpt><trkpt lat="39.6175164" lon="-0.6638417"><ele>132.75</ele><time>2026-04-04T11:22:51.585Z</time></trkpt><trkpt lat="39.6173931" lon="-0.6639043"><ele>132.5</ele><time>2026-04-04T11:22:52.585Z</time></trkpt><trkpt lat="39.6172763" lon="-0.6639679"><ele>132.25</ele><time>2026-04-04T11:22:53.587Z</time></trkpt><trkpt lat="39.6171735" lon="-0.6640278"><ele>132.0</ele><time>2026-04-04T11:22:54.586Z</time></trkpt><trkpt lat="39.6170768" lon="-0.664078"><ele>131.75</ele><time>2026-04-04T11:22:55.585Z</time></trkpt><trkpt lat="39.6169803" lon="-0.6641185"><ele>131.5</ele><time>2026-04-04T11:22:56.585Z</time></trkpt><trkpt lat="39.6168661" lon="-0.6641589"><ele>131.25</ele><time>2026-04-04T11:22:57.587Z</time></trkpt><trkpt lat="39.61675" lon="-0.6641956"><ele>131.0</ele><time>2026-04-04T11:22:58.586Z</time></trkpt><trkpt lat="39.6166274" lon="-0.6642212"><ele>131.0</ele><time>2026-04-04T11:22:59.587Z</time></trkpt><trkpt lat="39.6164917" lon="-0.6642451"><ele>131.0</ele><time>2026-04-04T11:23:00.586Z</time></trkpt><trkpt lat="39.6163636" lon="-0.6642534"><ele>131.0</ele><time>2026-04-04T11:23:01.587Z</time></trkpt><trkpt lat="39.6162388" lon="-0.6642703"><ele>131.0</ele><time>2026-04-04T11:23:02.585Z</time></trkpt><trkpt lat="39.6161167" lon="-0.6642893"><ele>131.0</ele><time>2026-04-04T11:23:03.585Z</time></trkpt><trkpt lat="39.6160136" lon="-0.6643121"><ele>131.0</ele><time>2026-04-04T11:23:04.587Z</time></trkpt><trkpt lat="39.6159138" lon="-0.6643264"><ele>131.0</ele><time>2026-04-04T11:23:05.586Z</time></trkpt><trkpt lat="39.6157987" lon="-0.6643262"><ele>131.0</ele><time>2026-04-04T11:23:06.586Z</time></trkpt><trkpt lat="39.615684" lon="-0.6643042"><ele>131.0</ele><time>2026-04-04T11:23:07.587Z</time></trkpt><trkpt lat="39.6155723" lon="-0.6642631"><ele>131.0</ele><time>2026-04-04T11:23:08.586Z</time></trkpt><trkpt lat="39.6154689" lon="-0.6642043"><ele>131.0</ele><time>2026-04-04T11:23:09.586Z</time></trkpt><trkpt lat="39.6153498" lon="-0.6641244"><ele>131.0</ele><time>2026-04-04T11:23:10.587Z</time></trkpt><trkpt lat="39.6152497" lon="-0.6640397"><ele>131.0</ele><time>2026-04-04T11:23:11.587Z</time></trkpt><trkpt lat="39.6151523" lon="-0.6639544"><ele>130.83333333333331</ele><time>2026-04-04T11:23:12.586Z</time></trkpt><trkpt lat="39.6150746" lon="-0.6638834"><ele>130.66666666666666</ele><time>2026-04-04T11:23:13.585Z</time></trkpt><trkpt lat="39.6150057" lon="-0.6638492"><ele>130.5</ele><time>2026-04-04T11:23:14.585Z</time></trkpt><trkpt lat="39.6149427" lon="-0.6637915"><ele>130.33333333333334</ele><time>2026-04-04T11:23:15.586Z</time></trkpt><trkpt lat="39.6148823" lon="-0.6637368"><ele>130.16666666666669</ele><time>2026-04-04T11:23:16.586Z</time></trkpt><trkpt lat="39.6148315" lon="-0.6636883"><ele>130.0</ele><time>2026-04-04T11:23:17.587Z</time></trkpt><trkpt lat="39.6147467" lon="-0.6636179"><ele>129.83333333333334</ele><time>2026-04-04T11:23:19.586Z</time></trkpt><trkpt lat="39.6146939" lon="-0.6635109"><ele>129.66666666666669</ele><time>2026-04-04T11:23:22.587Z</time></trkpt><trkpt lat="39.6146686" lon="-0.6634051"><ele>129.5</ele><time>2026-04-04T11:23:24.586Z</time></trkpt><trkpt lat="39.6146619" lon="-0.6632991"><ele>129.33333333333334</ele><time>2026-04-04T11:23:26.585Z</time></trkpt><trkpt lat="39.6146481" lon="-0.6631912"><ele>129.16666666666666</ele><time>2026-04-04T11:23:29.586Z</time></trkpt><trkpt lat="39.614606" lon="-0.6631079"><ele>129.0</ele><time>2026-04-04T11:23:31.585Z</time></trkpt><trkpt lat="39.6145556" lon="-0.6630144"><ele>129.0</ele><time>2026-04-04T11:23:33.586Z</time></trkpt><trkpt lat="39.6145372" lon="-0.6629084"><ele>129.0</ele><time>2026-04-04T11:23:35.586Z</time></trkpt><trkpt lat="39.6145325" lon="-0.6627875"><ele>129.0</ele><time>2026-04-04T11:23:37.586Z</time></trkpt><trkpt lat="39.6145323" lon="-0.6626996"><ele>129.0</ele><time>2026-04-04T11:23:39.587Z</time></trkpt><trkpt lat="39.6145493" lon="-0.6626136"><ele>129.0</ele><time>2026-04-04T11:23:41.586Z</time></trkpt><trkpt lat="39.61457" lon="-0.662515"><ele>129.0</ele><time>2026-04-04T11:23:43.587Z</time></trkpt><trkpt lat="39.6145877" lon="-0.6623924"><ele>129.0</ele><time>2026-04-04T11:23:45.586Z</time></trkpt><trkpt lat="39.6146" lon="-0.6622816"><ele>129.0</ele><time>2026-04-04T11:23:47.585Z</time></trkpt><trkpt lat="39.6146113" lon="-0.6621593"><ele>129.0</ele><time>2026-04-04T11:23:49.586Z</time></trkpt><trkpt lat="39.6145964" lon="-0.6620401"><ele>129.0</ele><time>2026-04-04T11:23:51.586Z</time></trkpt><trkpt lat="39.6145665" lon="-0.6618795"><ele>129.0</ele><time>2026-04-04T11:23:53.585Z</time></trkpt><trkpt lat="39.614557" lon="-0.6617982"><ele>129.8</ele><time>2026-04-04T11:23:54.586Z</time></trkpt><trkpt lat="39.6145589" lon="-0.6616917"><ele>130.60000000000002</ele><time>2026-04-04T11:23:55.586Z</time></trkpt><trkpt lat="39.6145699" lon="-0.6615811"><ele>131.4</ele><time>2026-04-04T11:23:56.586Z</time></trkpt><trkpt lat="39.6145819" lon="-0.6614662"><ele>132.20000000000002</ele><time>2026-04-04T11:23:57.587Z</time></trkpt><trkpt lat="39.6145977" lon="-0.661334"><ele>133.0</ele><time>2026-04-04T11:23:58.586Z</time></trkpt><trkpt lat="39.6146202" lon="-0.6611726"><ele>133.8</ele><time>2026-04-04T11:23:59.587Z</time></trkpt><trkpt lat="39.6146511" lon="-0.661016"><ele>134.60000000000002</ele><time>2026-04-04T11:24:00.587Z</time></trkpt><trkpt lat="39.6146781" lon="-0.6608805"><ele>135.39999999999998</ele><time>2026-04-04T11:24:01.587Z</time></trkpt><trkpt lat="39.6147133" lon="-0.6607435"><ele>136.2</ele><time>2026-04-04T11:24:02.586Z</time></trkpt><trkpt lat="39.6147345" lon="-0.6606134"><ele>137.0</ele><time>2026-04-04T11:24:03.586Z</time></trkpt><trkpt lat="39.6147452" lon="-0.6604991"><ele>137.0</ele><time>2026-04-04T11:24:04.586Z</time></trkpt><trkpt lat="39.614751" lon="-0.6604034"><ele>137.0</ele><time>2026-04-04T11:24:05.586Z</time></trkpt><trkpt lat="39.614753" lon="-0.6603187"><ele>137.0</ele><time>2026-04-04T11:24:06.585Z</time></trkpt><trkpt lat="39.6147743" lon="-0.6602287"><ele>137.0</ele><time>2026-04-04T11:24:08.586Z</time></trkpt><trkpt lat="39.6148558" lon="-0.6601987"><ele>137.0</ele><time>2026-04-04T11:24:10.586Z</time></trkpt><trkpt lat="39.6149269" lon="-0.6601865"><ele>137.0</ele><time>2026-04-04T11:24:11.585Z</time></trkpt><trkpt lat="39.6150355" lon="-0.6601303"><ele>137.79999999999998</ele><time>2026-04-04T11:24:13.585Z</time></trkpt><trkpt lat="39.6150912" lon="-0.6600879"><ele>138.6</ele><time>2026-04-04T11:24:14.587Z</time></trkpt><trkpt lat="39.6151539" lon="-0.6600231"><ele>139.39999999999998</ele><time>2026-04-04T11:24:15.585Z</time></trkpt><trkpt lat="39.615219" lon="-0.6599419"><ele>140.2</ele><time>2026-04-04T11:24:16.587Z</time></trkpt><trkpt lat="39.6152956" lon="-0.659834"><ele>141.0</ele><time>2026-04-04T11:24:17.586Z</time></trkpt><trkpt lat="39.615368" lon="-0.6597176"><ele>141.66666666666666</ele><time>2026-04-04T11:24:18.586Z</time></trkpt><trkpt lat="39.6154546" lon="-0.6595748"><ele>142.33333333333331</ele><time>2026-04-04T11:24:19.586Z</time></trkpt><trkpt lat="39.6155517" lon="-0.6594053"><ele>143.0</ele><time>2026-04-04T11:24:20.587Z</time></trkpt><trkpt lat="39.6156465" lon="-0.6592389"><ele>143.66666666666666</ele><time>2026-04-04T11:24:21.586Z</time></trkpt><trkpt lat="39.6157517" lon="-0.6590582"><ele>144.33333333333334</ele><time>2026-04-04T11:24:22.586Z</time></trkpt><trkpt lat="39.6158379" lon="-0.6588953"><ele>145.0</ele><time>2026-04-04T11:24:23.587Z</time></trkpt><trkpt lat="39.6159226" lon="-0.6587291"><ele>145.33333333333334</ele><time>2026-04-04T11:24:24.585Z</time></trkpt><trkpt lat="39.6160165" lon="-0.6585486"><ele>145.66666666666666</ele><time>2026-04-04T11:24:25.586Z</time></trkpt><trkpt lat="39.6161057" lon="-0.6583816"><ele>146.0</ele><time>2026-04-04T11:24:26.585Z</time></trkpt><trkpt lat="39.6161961" lon="-0.658216"><ele>146.0</ele><time>2026-04-04T11:24:27.586Z</time></trkpt><trkpt lat="39.6162755" lon="-0.6580845"><ele>146.0</ele><time>2026-04-04T11:24:28.585Z</time></trkpt><trkpt lat="39.6163492" lon="-0.6579584"><ele>146.0</ele><time>2026-04-04T11:24:29.585Z</time></trkpt><trkpt lat="39.6164259" lon="-0.6578266"><ele>146.0</ele><time>2026-04-04T11:24:30.586Z</time></trkpt><trkpt lat="39.6165242" lon="-0.6576873"><ele>146.0</ele><time>2026-04-04T11:24:31.586Z</time></trkpt><trkpt lat="39.6166146" lon="-0.6575515"><ele>146.0</ele><time>2026-04-04T11:24:32.585Z</time></trkpt><trkpt lat="39.616695" lon="-0.6574251"><ele>146.0</ele><time>2026-04-04T11:24:33.587Z</time></trkpt><trkpt lat="39.6167764" lon="-0.6573046"><ele>146.0</ele><time>2026-04-04T11:24:34.586Z</time></trkpt><trkpt lat="39.6168686" lon="-0.6571617"><ele>146.0</ele><time>2026-04-04T11:24:35.586Z</time></trkpt><trkpt lat="39.6169556" lon="-0.6570278"><ele>146.0</ele><time>2026-04-04T11:24:36.586Z</time></trkpt><trkpt lat="39.6170339" lon="-0.6568933"><ele>146.0</ele><time>2026-04-04T11:24:37.586Z</time></trkpt><trkpt lat="39.6170863" lon="-0.6567946"><ele>146.0</ele><time>2026-04-04T11:24:38.586Z</time></trkpt><trkpt lat="39.6171372" lon="-0.6567057"><ele>146.0</ele><time>2026-04-04T11:24:39.586Z</time></trkpt><trkpt lat="39.6171847" lon="-0.6566332"><ele>146.16666666666666</ele><time>2026-04-04T11:24:40.587Z</time></trkpt><trkpt lat="39.6172403" lon="-0.6565609"><ele>146.33333333333331</ele><time>2026-04-04T11:24:41.585Z</time></trkpt><trkpt lat="39.6173014" lon="-0.6565246"><ele>146.5</ele><time>2026-04-04T11:24:42.586Z</time></trkpt><trkpt lat="39.6173748" lon="-0.65652"><ele>146.66666666666666</ele><time>2026-04-04T11:24:43.585Z</time></trkpt><trkpt lat="39.6174676" lon="-0.6565552"><ele>146.83333333333334</ele><time>2026-04-04T11:24:44.585Z</time></trkpt><trkpt lat="39.6175586" lon="-0.6565901"><ele>147.0</ele><time>2026-04-04T11:24:45.585Z</time></trkpt><trkpt lat="39.617639" lon="-0.656619"><ele>147.0</ele><time>2026-04-04T11:24:46.586Z</time></trkpt><trkpt lat="39.6177059" lon="-0.656644"><ele>147.0</ele><time>2026-04-04T11:24:47.586Z</time></trkpt><trkpt lat="39.6177692" lon="-0.6566509"><ele>147.0</ele><time>2026-04-04T11:24:48.586Z</time></trkpt><trkpt lat="39.6178906" lon="-0.656595"><ele>147.0</ele><time>2026-04-04T11:24:50.587Z</time></trkpt><trkpt lat="39.6179686" lon="-0.6565262"><ele>147.0</ele><time>2026-04-04T11:24:51.585Z</time></trkpt><trkpt lat="39.6180454" lon="-0.6564297"><ele>147.25</ele><time>2026-04-04T11:24:52.587Z</time></trkpt><trkpt lat="39.6181297" lon="-0.6563055"><ele>147.5</ele><time>2026-04-04T11:24:53.585Z</time></trkpt><trkpt lat="39.618228" lon="-0.6561612"><ele>147.75</ele><time>2026-04-04T11:24:54.586Z</time></trkpt><trkpt lat="39.6183397" lon="-0.6560053"><ele>148.0</ele><time>2026-04-04T11:24:55.586Z</time></trkpt><trkpt lat="39.6184527" lon="-0.6558411"><ele>147.75</ele><time>2026-04-04T11:24:56.586Z</time></trkpt><trkpt lat="39.6185475" lon="-0.6557008"><ele>147.5</ele><time>2026-04-04T11:24:57.585Z</time></trkpt><trkpt lat="39.6186373" lon="-0.6555814"><ele>147.25</ele><time>2026-04-04T11:24:58.586Z</time></trkpt><trkpt lat="39.6187259" lon="-0.6554772"><ele>147.0</ele><time>2026-04-04T11:24:59.586Z</time></trkpt><trkpt lat="39.6188014" lon="-0.6553851"><ele>147.0</ele><time>2026-04-04T11:25:00.586Z</time></trkpt><trkpt lat="39.6188779" lon="-0.6552993"><ele>147.0</ele><time>2026-04-04T11:25:01.587Z</time></trkpt><trkpt lat="39.6189455" lon="-0.6552044"><ele>147.0</ele><time>2026-04-04T11:25:02.584Z</time></trkpt><trkpt lat="39.619016" lon="-0.655108"><ele>147.0</ele><time>2026-04-04T11:25:03.586Z</time></trkpt><trkpt lat="39.6190821" lon="-0.6550137"><ele>147.0</ele><time>2026-04-04T11:25:04.585Z</time></trkpt><trkpt lat="39.6191493" lon="-0.6549057"><ele>147.2</ele><time>2026-04-04T11:25:05.586Z</time></trkpt><trkpt lat="39.619209" lon="-0.6547938"><ele>147.39999999999998</ele><time>2026-04-04T11:25:06.587Z</time></trkpt><trkpt lat="39.6192537" lon="-0.6546767"><ele>147.60000000000002</ele><time>2026-04-04T11:25:07.586Z</time></trkpt><trkpt lat="39.6192741" lon="-0.6545673"><ele>147.8</ele><time>2026-04-04T11:25:08.586Z</time></trkpt><trkpt lat="39.6192814" lon="-0.6544686"><ele>148.0</ele><time>2026-04-04T11:25:09.586Z</time></trkpt><trkpt lat="39.6192795" lon="-0.6543326"><ele>148.0</ele><time>2026-04-04T11:25:11.586Z</time></trkpt><trkpt lat="39.6193049" lon="-0.6542391"><ele>148.0</ele><time>2026-04-04T11:25:14.587Z</time></trkpt><trkpt lat="39.6194158" lon="-0.6541961"><ele>148.0</ele><time>2026-04-04T11:25:16.587Z</time></trkpt><trkpt lat="39.6194899" lon="-0.6541868"><ele>148.0</ele><time>2026-04-04T11:25:17.586Z</time></trkpt><trkpt lat="39.6195594" lon="-0.6541383"><ele>148.0</ele><time>2026-04-04T11:25:18.586Z</time></trkpt><trkpt lat="39.619638" lon="-0.6540537"><ele>148.0</ele><time>2026-04-04T11:25:19.584Z</time></trkpt><trkpt lat="39.6197162" lon="-0.653952"><ele>148.66666666666669</ele><time>2026-04-04T11:25:20.585Z</time></trkpt><trkpt lat="39.6198081" lon="-0.6538206"><ele>149.33333333333334</ele><time>2026-04-04T11:25:21.586Z</time></trkpt><trkpt lat="39.619911" lon="-0.6536684"><ele>150.0</ele><time>2026-04-04T11:25:22.587Z</time></trkpt><trkpt lat="39.6200192" lon="-0.6535092"><ele>150.33333333333334</ele><time>2026-04-04T11:25:23.586Z</time></trkpt><trkpt lat="39.6201252" lon="-0.6533449"><ele>150.66666666666669</ele><time>2026-04-04T11:25:24.587Z</time></trkpt><trkpt lat="39.6202267" lon="-0.6531968"><ele>151.0</ele><time>2026-04-04T11:25:25.586Z</time></trkpt><trkpt lat="39.6203178" lon="-0.6530574"><ele>151.0</ele><time>2026-04-04T11:25:26.584Z</time></trkpt><trkpt lat="39.6203963" lon="-0.6529379"><ele>151.0</ele><time>2026-04-04T11:25:27.586Z</time></trkpt><trkpt lat="39.6204659" lon="-0.6528398"><ele>151.0</ele><time>2026-04-04T11:25:28.585Z</time></trkpt><trkpt lat="39.6205253" lon="-0.652759"><ele>151.0</ele><time>2026-04-04T11:25:29.586Z</time></trkpt><trkpt lat="39.6205762" lon="-0.6526949"><ele>151.0</ele><time>2026-04-04T11:25:30.587Z</time></trkpt><trkpt lat="39.6206772" lon="-0.6526337"><ele>151.0</ele><time>2026-04-04T11:25:32.586Z</time></trkpt><trkpt lat="39.6207999" lon="-0.6526997"><ele>151.0</ele><time>2026-04-04T11:25:34.587Z</time></trkpt><trkpt lat="39.6208702" lon="-0.6527673"><ele>151.0</ele><time>2026-04-04T11:25:35.586Z</time></trkpt><trkpt lat="39.6209547" lon="-0.6528538"><ele>151.0</ele><time>2026-04-04T11:25:36.586Z</time></trkpt><trkpt lat="39.6210541" lon="-0.6529467"><ele>150.8</ele><time>2026-04-04T11:25:37.585Z</time></trkpt><trkpt lat="39.6211527" lon="-0.6530471"><ele>150.6</ele><time>2026-04-04T11:25:38.585Z</time></trkpt><trkpt lat="39.6212426" lon="-0.653135"><ele>150.4</ele><time>2026-04-04T11:25:39.586Z</time></trkpt><trkpt lat="39.6213214" lon="-0.6532264"><ele>150.2</ele><time>2026-04-04T11:25:40.585Z</time></trkpt><trkpt lat="39.6214" lon="-0.6532918"><ele>150.0</ele><time>2026-04-04T11:25:41.585Z</time></trkpt><trkpt lat="39.6214847" lon="-0.6533413"><ele>150.0</ele><time>2026-04-04T11:25:42.586Z</time></trkpt><trkpt lat="39.621581" lon="-0.6533724"><ele>150.0</ele><time>2026-04-04T11:25:43.586Z</time></trkpt><trkpt lat="39.6216931" lon="-0.6533863"><ele>150.0</ele><time>2026-04-04T11:25:44.585Z</time></trkpt><trkpt lat="39.6218182" lon="-0.653396"><ele>150.0</ele><time>2026-04-04T11:25:45.586Z</time></trkpt><trkpt lat="39.62197" lon="-0.6533847"><ele>151.0</ele><time>2026-04-04T11:25:46.587Z</time></trkpt><trkpt lat="39.6221347" lon="-0.6533671"><ele>152.0</ele><time>2026-04-04T11:25:47.586Z</time></trkpt><trkpt lat="39.6222878" lon="-0.6533461"><ele>153.0</ele><time>2026-04-04T11:25:48.585Z</time></trkpt><trkpt lat="39.6224268" lon="-0.6533364"><ele>153.0</ele><time>2026-04-04T11:25:49.586Z</time></trkpt><trkpt lat="39.6225554" lon="-0.6533162"><ele>153.0</ele><time>2026-04-04T11:25:50.585Z</time></trkpt><trkpt lat="39.6226723" lon="-0.653286"><ele>153.0</ele><time>2026-04-04T11:25:51.585Z</time></trkpt><trkpt lat="39.6227709" lon="-0.6532559"><ele>153.0</ele><time>2026-04-04T11:25:52.585Z</time></trkpt><trkpt lat="39.6228663" lon="-0.6532152"><ele>153.0</ele><time>2026-04-04T11:25:53.586Z</time></trkpt><trkpt lat="39.6229479" lon="-0.6531694"><ele>153.0</ele><time>2026-04-04T11:25:54.584Z</time></trkpt><trkpt lat="39.6230173" lon="-0.6531106"><ele>153.0</ele><time>2026-04-04T11:25:55.585Z</time></trkpt><trkpt lat="39.6230712" lon="-0.6530364"><ele>153.0</ele><time>2026-04-04T11:25:56.586Z</time></trkpt><trkpt lat="39.6231225" lon="-0.6529351"><ele>153.0</ele><time>2026-04-04T11:25:57.587Z</time></trkpt><trkpt lat="39.6231788" lon="-0.6528138"><ele>152.5</ele><time>2026-04-04T11:25:58.586Z</time></trkpt><trkpt lat="39.6232362" lon="-0.6526723"><ele>152.0</ele><time>2026-04-04T11:25:59.585Z</time></trkpt><trkpt lat="39.6233003" lon="-0.6525183"><ele>151.5</ele><time>2026-04-04T11:26:00.585Z</time></trkpt><trkpt lat="39.6233771" lon="-0.6523441"><ele>151.0</ele><time>2026-04-04T11:26:01.587Z</time></trkpt><trkpt lat="39.6234441" lon="-0.6521663"><ele>151.0</ele><time>2026-04-04T11:26:02.584Z</time></trkpt><trkpt lat="39.6235141" lon="-0.6519849"><ele>151.0</ele><time>2026-04-04T11:26:03.587Z</time></trkpt><trkpt lat="39.6235856" lon="-0.6518213"><ele>151.0</ele><time>2026-04-04T11:26:04.587Z</time></trkpt><trkpt lat="39.6236636" lon="-0.651681"><ele>151.0</ele><time>2026-04-04T11:26:05.586Z</time></trkpt><trkpt lat="39.623748" lon="-0.6515594"><ele>151.33333333333334</ele><time>2026-04-04T11:26:06.585Z</time></trkpt><trkpt lat="39.6238483" lon="-0.6514396"><ele>151.66666666666666</ele><time>2026-04-04T11:26:07.586Z</time></trkpt><trkpt lat="39.6239513" lon="-0.6512982"><ele>152.0</ele><time>2026-04-04T11:26:08.584Z</time></trkpt><trkpt lat="39.6240555" lon="-0.6511263"><ele>153.0</ele><time>2026-04-04T11:26:09.587Z</time></trkpt><trkpt lat="39.6241729" lon="-0.6509319"><ele>154.0</ele><time>2026-04-04T11:26:10.586Z</time></trkpt><trkpt lat="39.6242866" lon="-0.6507377"><ele>155.0</ele><time>2026-04-04T11:26:11.585Z</time></trkpt><trkpt lat="39.6244041" lon="-0.6505395"><ele>154.33333333333331</ele><time>2026-04-04T11:26:12.587Z</time></trkpt><trkpt lat="39.6245272" lon="-0.650335"><ele>153.66666666666666</ele><time>2026-04-04T11:26:13.585Z</time></trkpt><trkpt lat="39.6246412" lon="-0.650145"><ele>153.0</ele><time>2026-04-04T11:26:14.585Z</time></trkpt><trkpt lat="39.624751" lon="-0.6499679"><ele>153.0</ele><time>2026-04-04T11:26:15.586Z</time></trkpt><trkpt lat="39.6248506" lon="-0.6498091"><ele>153.0</ele><time>2026-04-04T11:26:16.587Z</time></trkpt><trkpt lat="39.6249416" lon="-0.6496561"><ele>153.0</ele><time>2026-04-04T11:26:17.586Z</time></trkpt><trkpt lat="39.6250184" lon="-0.649521"><ele>153.0</ele><time>2026-04-04T11:26:18.585Z</time></trkpt><trkpt lat="39.6250961" lon="-0.6493999"><ele>152.6</ele><time>2026-04-04T11:26:19.586Z</time></trkpt><trkpt lat="39.6251687" lon="-0.6492809"><ele>152.20000000000002</ele><time>2026-04-04T11:26:20.587Z</time></trkpt><trkpt lat="39.6252266" lon="-0.6491771"><ele>151.8</ele><time>2026-04-04T11:26:21.587Z</time></trkpt><trkpt lat="39.6252683" lon="-0.6490766"><ele>151.4</ele><time>2026-04-04T11:26:22.586Z</time></trkpt><trkpt lat="39.6252966" lon="-0.6489656"><ele>151.0</ele><time>2026-04-04T11:26:23.586Z</time></trkpt><trkpt lat="39.6253113" lon="-0.6488255"><ele>151.0</ele><time>2026-04-04T11:26:24.586Z</time></trkpt><trkpt lat="39.6253036" lon="-0.648673"><ele>151.0</ele><time>2026-04-04T11:26:25.586Z</time></trkpt><trkpt lat="39.625294" lon="-0.6485219"><ele>151.0</ele><time>2026-04-04T11:26:26.586Z</time></trkpt><trkpt lat="39.6252811" lon="-0.6483836"><ele>151.0</ele><time>2026-04-04T11:26:27.585Z</time></trkpt><trkpt lat="39.625274" lon="-0.6482609"><ele>151.0</ele><time>2026-04-04T11:26:28.585Z</time></trkpt><trkpt lat="39.6252768" lon="-0.6481331"><ele>151.25</ele><time>2026-04-04T11:26:29.586Z</time></trkpt><trkpt lat="39.6252979" lon="-0.6480002"><ele>151.5</ele><time>2026-04-04T11:26:30.585Z</time></trkpt><trkpt lat="39.625356" lon="-0.647847"><ele>151.75</ele><time>2026-04-04T11:26:31.585Z</time></trkpt><trkpt lat="39.6254229" lon="-0.6476995"><ele>152.0</ele><time>2026-04-04T11:26:32.585Z</time></trkpt><trkpt lat="39.6255074" lon="-0.6475348"><ele>152.0</ele><time>2026-04-04T11:26:33.586Z</time></trkpt><trkpt lat="39.6256068" lon="-0.6473527"><ele>152.0</ele><time>2026-04-04T11:26:34.587Z</time></trkpt><trkpt lat="39.6257009" lon="-0.647171"><ele>152.0</ele><time>2026-04-04T11:26:35.585Z</time></trkpt><trkpt lat="39.6257873" lon="-0.6470159"><ele>151.75</ele><time>2026-04-04T11:26:36.585Z</time></trkpt><trkpt lat="39.6258638" lon="-0.6468658"><ele>151.5</ele><time>2026-04-04T11:26:37.587Z</time></trkpt><trkpt lat="39.6259458" lon="-0.6467192"><ele>151.25</ele><time>2026-04-04T11:26:38.584Z</time></trkpt><trkpt lat="39.6260292" lon="-0.6465703"><ele>151.0</ele><time>2026-04-04T11:26:39.585Z</time></trkpt><trkpt lat="39.6261086" lon="-0.6464099"><ele>151.0</ele><time>2026-04-04T11:26:40.586Z</time></trkpt><trkpt lat="39.6261834" lon="-0.6462277"><ele>151.0</ele><time>2026-04-04T11:26:41.586Z</time></trkpt><trkpt lat="39.6262589" lon="-0.6460336"><ele>151.0</ele><time>2026-04-04T11:26:42.586Z</time></trkpt><trkpt lat="39.6263215" lon="-0.6458454"><ele>151.0</ele><time>2026-04-04T11:26:43.586Z</time></trkpt><trkpt lat="39.6263838" lon="-0.6456635"><ele>151.0</ele><time>2026-04-04T11:26:44.586Z</time></trkpt><trkpt lat="39.6264357" lon="-0.6454958"><ele>151.0</ele><time>2026-04-04T11:26:45.584Z</time></trkpt><trkpt lat="39.6264858" lon="-0.6453485"><ele>151.0</ele><time>2026-04-04T11:26:46.586Z</time></trkpt><trkpt lat="39.6265363" lon="-0.6451958"><ele>151.0</ele><time>2026-04-04T11:26:47.587Z</time></trkpt><trkpt lat="39.6265863" lon="-0.6450381"><ele>151.0</ele><time>2026-04-04T11:26:48.586Z</time></trkpt><trkpt lat="39.6266393" lon="-0.6448763"><ele>151.0</ele><time>2026-04-04T11:26:49.586Z</time></trkpt><trkpt lat="39.6266889" lon="-0.6447112"><ele>151.0</ele><time>2026-04-04T11:26:50.586Z</time></trkpt><trkpt lat="39.6267458" lon="-0.6445477"><ele>151.25</ele><time>2026-04-04T11:26:51.586Z</time></trkpt><trkpt lat="39.6267995" lon="-0.6443906"><ele>151.5</ele><time>2026-04-04T11:26:52.585Z</time></trkpt><trkpt lat="39.6268477" lon="-0.6442469"><ele>151.75</ele><time>2026-04-04T11:26:53.584Z</time></trkpt><trkpt lat="39.6269016" lon="-0.6441029"><ele>152.0</ele><time>2026-04-04T11:26:54.585Z</time></trkpt><trkpt lat="39.6269483" lon="-0.6439627"><ele>151.4</ele><time>2026-04-04T11:26:55.585Z</time></trkpt><trkpt lat="39.6269868" lon="-0.6438241"><ele>150.79999999999998</ele><time>2026-04-04T11:26:56.586Z</time></trkpt><trkpt lat="39.6270219" lon="-0.6436996"><ele>150.2</ele><time>2026-04-04T11:26:57.585Z</time></trkpt><trkpt lat="39.6270534" lon="-0.6435849"><ele>149.6</ele><time>2026-04-04T11:26:58.585Z</time></trkpt><trkpt lat="39.6270785" lon="-0.6434813"><ele>149.0</ele><time>2026-04-04T11:26:59.587Z</time></trkpt><trkpt lat="39.6271044" lon="-0.6433943"><ele>149.0</ele><time>2026-04-04T11:27:00.586Z</time></trkpt><trkpt lat="39.6271524" lon="-0.6432665"><ele>149.0</ele><time>2026-04-04T11:27:02.585Z</time></trkpt><trkpt lat="39.6271798" lon="-0.6431182"><ele>149.0</ele><time>2026-04-04T11:27:04.585Z</time></trkpt><trkpt lat="39.6271825" lon="-0.6430025"><ele>149.0</ele><time>2026-04-04T11:27:05.585Z</time></trkpt><trkpt lat="39.6271767" lon="-0.6428716"><ele>149.0</ele><time>2026-04-04T11:27:06.587Z</time></trkpt><trkpt lat="39.6271696" lon="-0.6427395"><ele>149.5</ele><time>2026-04-04T11:27:07.585Z</time></trkpt><trkpt lat="39.6271477" lon="-0.6426015"><ele>150.0</ele><time>2026-04-04T11:27:08.587Z</time></trkpt><trkpt lat="39.6271221" lon="-0.6424465"><ele>150.5</ele><time>2026-04-04T11:27:09.585Z</time></trkpt><trkpt lat="39.6270982" lon="-0.6422909"><ele>151.0</ele><time>2026-04-04T11:27:10.586Z</time></trkpt><trkpt lat="39.6270859" lon="-0.6421414"><ele>151.0</ele><time>2026-04-04T11:27:11.585Z</time></trkpt><trkpt lat="39.6270839" lon="-0.6419766"><ele>151.0</ele><time>2026-04-04T11:27:12.586Z</time></trkpt><trkpt lat="39.627086" lon="-0.6417893"><ele>151.0</ele><time>2026-04-04T11:27:13.585Z</time></trkpt><trkpt lat="39.6270866" lon="-0.6416114"><ele>151.0</ele><time>2026-04-04T11:27:14.585Z</time></trkpt><trkpt lat="39.6270871" lon="-0.6414502"><ele>151.0</ele><time>2026-04-04T11:27:15.585Z</time></trkpt><trkpt lat="39.627087" lon="-0.6412941"><ele>151.0</ele><time>2026-04-04T11:27:16.586Z</time></trkpt><trkpt lat="39.627081" lon="-0.641141"><ele>151.0</ele><time>2026-04-04T11:27:17.586Z</time></trkpt><trkpt lat="39.6270709" lon="-0.6409897"><ele>151.0</ele><time>2026-04-04T11:27:18.585Z</time></trkpt><trkpt lat="39.6270593" lon="-0.6408388"><ele>151.0</ele><time>2026-04-04T11:27:19.587Z</time></trkpt><trkpt lat="39.6270551" lon="-0.6407059"><ele>151.0</ele><time>2026-04-04T11:27:20.584Z</time></trkpt><trkpt lat="39.6270432" lon="-0.6405657"><ele>151.0</ele><time>2026-04-04T11:27:21.586Z</time></trkpt><trkpt lat="39.627036" lon="-0.6404334"><ele>151.0</ele><time>2026-04-04T11:27:22.586Z</time></trkpt><trkpt lat="39.6270121" lon="-0.6403135"><ele>151.0</ele><time>2026-04-04T11:27:23.586Z</time></trkpt><trkpt lat="39.6269798" lon="-0.6401969"><ele>150.33333333333334</ele><time>2026-04-04T11:27:24.587Z</time></trkpt><trkpt lat="39.6269306" lon="-0.6400952"><ele>149.66666666666669</ele><time>2026-04-04T11:27:25.587Z</time></trkpt><trkpt lat="39.6268877" lon="-0.6400049"><ele>149.0</ele><time>2026-04-04T11:27:26.585Z</time></trkpt><trkpt lat="39.6268672" lon="-0.6399272"><ele>148.33333333333334</ele><time>2026-04-04T11:27:27.586Z</time></trkpt><trkpt lat="39.6268669" lon="-0.6398448"><ele>147.66666666666666</ele><time>2026-04-04T11:27:28.586Z</time></trkpt><trkpt lat="39.6268863" lon="-0.6397543"><ele>147.0</ele><time>2026-04-04T11:27:29.585Z</time></trkpt><trkpt lat="39.6269118" lon="-0.6396483"><ele>147.0</ele><time>2026-04-04T11:27:30.587Z</time></trkpt><trkpt lat="39.626944" lon="-0.63952"><ele>147.0</ele><time>2026-04-04T11:27:31.585Z</time></trkpt><trkpt lat="39.626986" lon="-0.6393732"><ele>147.0</ele><time>2026-04-04T11:27:32.584Z</time></trkpt><trkpt lat="39.6270421" lon="-0.6392034"><ele>147.0</ele><time>2026-04-04T11:27:33.584Z</time></trkpt><trkpt lat="39.6270953" lon="-0.6390294"><ele>148.0</ele><time>2026-04-04T11:27:34.586Z</time></trkpt><trkpt lat="39.6271358" lon="-0.6388823"><ele>149.0</ele><time>2026-04-04T11:27:35.586Z</time></trkpt><trkpt lat="39.627169" lon="-0.6387462"><ele>150.0</ele><time>2026-04-04T11:27:36.585Z</time></trkpt><trkpt lat="39.6272112" lon="-0.6386041"><ele>151.0</ele><time>2026-04-04T11:27:37.585Z</time></trkpt><trkpt lat="39.6272485" lon="-0.6384637"><ele>151.0</ele><time>2026-04-04T11:27:38.586Z</time></trkpt><trkpt lat="39.6272892" lon="-0.6383343"><ele>151.0</ele><time>2026-04-04T11:27:39.586Z</time></trkpt><trkpt lat="39.627332" lon="-0.6382145"><ele>151.0</ele><time>2026-04-04T11:27:40.586Z</time></trkpt><trkpt lat="39.6273665" lon="-0.6380982"><ele>151.0</ele><time>2026-04-04T11:27:41.586Z</time></trkpt><trkpt lat="39.6273996" lon="-0.6379828"><ele>151.0</ele><time>2026-04-04T11:27:42.586Z</time></trkpt><trkpt lat="39.6274234" lon="-0.637852"><ele>150.6</ele><time>2026-04-04T11:27:43.587Z</time></trkpt><trkpt lat="39.6274268" lon="-0.6377073"><ele>150.2</ele><time>2026-04-04T11:27:44.586Z</time></trkpt><trkpt lat="39.6274302" lon="-0.63757"><ele>149.8</ele><time>2026-04-04T11:27:45.586Z</time></trkpt><trkpt lat="39.6274307" lon="-0.6374393"><ele>149.4</ele><time>2026-04-04T11:27:46.586Z</time></trkpt><trkpt lat="39.627427" lon="-0.6373193"><ele>149.0</ele><time>2026-04-04T11:27:47.585Z</time></trkpt><trkpt lat="39.6274197" lon="-0.6372111"><ele>149.0</ele><time>2026-04-04T11:27:48.587Z</time></trkpt><trkpt lat="39.6274126" lon="-0.6371096"><ele>149.0</ele><time>2026-04-04T11:27:49.586Z</time></trkpt><trkpt lat="39.6274057" lon="-0.6370151"><ele>149.0</ele><time>2026-04-04T11:27:50.587Z</time></trkpt><trkpt lat="39.6273979" lon="-0.6369251"><ele>149.0</ele><time>2026-04-04T11:27:51.586Z</time></trkpt><trkpt lat="39.6273933" lon="-0.6368272"><ele>149.0</ele><time>2026-04-04T11:27:52.585Z</time></trkpt><trkpt lat="39.6273824" lon="-0.6367389"><ele>149.0</ele><time>2026-04-04T11:27:53.585Z</time></trkpt><trkpt lat="39.6273765" lon="-0.6366502"><ele>149.0</ele><time>2026-04-04T11:27:54.585Z</time></trkpt><trkpt lat="39.6274044" lon="-0.6364824"><ele>148.83333333333331</ele><time>2026-04-04T11:27:56.585Z</time></trkpt><trkpt lat="39.62744" lon="-0.6363927"><ele>148.66666666666666</ele><time>2026-04-04T11:27:57.585Z</time></trkpt><trkpt lat="39.627484" lon="-0.6363086"><ele>148.5</ele><time>2026-04-04T11:27:58.586Z</time></trkpt><trkpt lat="39.627528" lon="-0.6362328"><ele>148.33333333333334</ele><time>2026-04-04T11:27:59.586Z</time></trkpt><trkpt lat="39.6275685" lon="-0.6361654"><ele>148.16666666666669</ele><time>2026-04-04T11:28:00.586Z</time></trkpt><trkpt lat="39.6276563" lon="-0.6360696"><ele>148.0</ele><time>2026-04-04T11:28:02.586Z</time></trkpt><trkpt lat="39.6277708" lon="-0.6360138"><ele>147.66666666666669</ele><time>2026-04-04T11:28:04.585Z</time></trkpt><trkpt lat="39.6278851" lon="-0.635951"><ele>147.33333333333334</ele><time>2026-04-04T11:28:06.586Z</time></trkpt><trkpt lat="39.6279561" lon="-0.6359388"><ele>147.0</ele><time>2026-04-04T11:28:07.585Z</time></trkpt><trkpt lat="39.6280481" lon="-0.6359026"><ele>146.66666666666666</ele><time>2026-04-04T11:28:09.586Z</time></trkpt><trkpt lat="39.628093" lon="-0.6358347"><ele>146.33333333333331</ele><time>2026-04-04T11:28:11.585Z</time></trkpt><trkpt lat="39.628094" lon="-0.6357303"><ele>146.0</ele><time>2026-04-04T11:28:13.587Z</time></trkpt><trkpt lat="39.6280466" lon="-0.6355914"><ele>146.0</ele><time>2026-04-04T11:28:15.585Z</time></trkpt><trkpt lat="39.6280239" lon="-0.6355074"><ele>146.0</ele><time>2026-04-04T11:28:16.584Z</time></trkpt><trkpt lat="39.6279973" lon="-0.6354066"><ele>146.0</ele><time>2026-04-04T11:28:17.586Z</time></trkpt><trkpt lat="39.6279731" lon="-0.6353026"><ele>146.0</ele><time>2026-04-04T11:28:18.585Z</time></trkpt><trkpt lat="39.6279282" lon="-0.635196"><ele>146.0</ele><time>2026-04-04T11:28:19.586Z</time></trkpt><trkpt lat="39.6278735" lon="-0.6350841"><ele>146.0</ele><time>2026-04-04T11:28:20.585Z</time></trkpt><trkpt lat="39.6278207" lon="-0.6349921"><ele>146.0</ele><time>2026-04-04T11:28:21.584Z</time></trkpt><trkpt lat="39.6277649" lon="-0.6349036"><ele>146.0</ele><time>2026-04-04T11:28:22.587Z</time></trkpt><trkpt lat="39.6277232" lon="-0.6348065"><ele>146.0</ele><time>2026-04-04T11:28:23.585Z</time></trkpt><trkpt lat="39.6276926" lon="-0.6347006"><ele>146.0</ele><time>2026-04-04T11:28:24.584Z</time></trkpt><trkpt lat="39.6276804" lon="-0.6345769"><ele>146.0</ele><time>2026-04-04T11:28:25.584Z</time></trkpt><trkpt lat="39.6276917" lon="-0.6344263"><ele>146.0</ele><time>2026-04-04T11:28:26.585Z</time></trkpt><trkpt lat="39.6276959" lon="-0.6342992"><ele>146.0</ele><time>2026-04-04T11:28:27.585Z</time></trkpt><trkpt lat="39.6276989" lon="-0.6341843"><ele>146.0</ele><time>2026-04-04T11:28:28.586Z</time></trkpt><trkpt lat="39.6276961" lon="-0.6340677"><ele>146.0</ele><time>2026-04-04T11:28:29.585Z</time></trkpt><trkpt lat="39.6276903" lon="-0.6339583"><ele>146.0</ele><time>2026-04-04T11:28:30.585Z</time></trkpt><trkpt lat="39.6276808" lon="-0.6338574"><ele>146.0</ele><time>2026-04-04T11:28:31.584Z</time></trkpt><trkpt lat="39.6276738" lon="-0.6337637"><ele>146.0</ele><time>2026-04-04T11:28:32.587Z</time></trkpt><trkpt lat="39.6276688" lon="-0.6336798"><ele>146.0</ele><time>2026-04-04T11:28:33.586Z</time></trkpt><trkpt lat="39.6276483" lon="-0.6335282"><ele>146.0</ele><time>2026-04-04T11:28:35.585Z</time></trkpt><trkpt lat="39.6276449" lon="-0.6334443"><ele>146.0</ele><time>2026-04-04T11:28:36.587Z</time></trkpt><trkpt lat="39.6276531" lon="-0.633351"><ele>146.0</ele><time>2026-04-04T11:28:37.586Z</time></trkpt><trkpt lat="39.627692" lon="-0.6331888"><ele>145.8</ele><time>2026-04-04T11:28:39.585Z</time></trkpt><trkpt lat="39.6277428" lon="-0.6331002"><ele>145.6</ele><time>2026-04-04T11:28:40.585Z</time></trkpt><trkpt lat="39.6278202" lon="-0.6330149"><ele>145.4</ele><time>2026-04-04T11:28:41.585Z</time></trkpt><trkpt lat="39.6278898" lon="-0.6329296"><ele>145.2</ele><time>2026-04-04T11:28:42.587Z</time></trkpt><trkpt lat="39.6279511" lon="-0.6328384"><ele>145.0</ele><time>2026-04-04T11:28:43.584Z</time></trkpt><trkpt lat="39.628008" lon="-0.6327404"><ele>145.5</ele><time>2026-04-04T11:28:44.585Z</time></trkpt><trkpt lat="39.6280652" lon="-0.6326398"><ele>146.0</ele><time>2026-04-04T11:28:45.585Z</time></trkpt><trkpt lat="39.6281249" lon="-0.6325364"><ele>146.5</ele><time>2026-04-04T11:28:46.585Z</time></trkpt><trkpt lat="39.6281823" lon="-0.6324288"><ele>147.0</ele><time>2026-04-04T11:28:47.586Z</time></trkpt><trkpt lat="39.6282262" lon="-0.6323413"><ele>147.5</ele><time>2026-04-04T11:28:48.586Z</time></trkpt><trkpt lat="39.6282605" lon="-0.6322689"><ele>148.0</ele><time>2026-04-04T11:28:49.585Z</time></trkpt><trkpt lat="39.6283167" lon="-0.6321838"><ele>148.0</ele><time>2026-04-04T11:28:51.587Z</time></trkpt><trkpt lat="39.6283824" lon="-0.6321535"><ele>148.0</ele><time>2026-04-04T11:28:53.584Z</time></trkpt><trkpt lat="39.6284487" lon="-0.6321507"><ele>148.0</ele><time>2026-04-04T11:28:55.585Z</time></trkpt><trkpt lat="39.6285018" lon="-0.6322044"><ele>148.0</ele><time>2026-04-04T11:28:57.584Z</time></trkpt><trkpt lat="39.6285481" lon="-0.6323081"><ele>148.0</ele><time>2026-04-04T11:28:59.586Z</time></trkpt><trkpt lat="39.6286067" lon="-0.6324569"><ele>148.0</ele><time>2026-04-04T11:29:01.585Z</time></trkpt><trkpt lat="39.6286406" lon="-0.6325597"><ele>148.33333333333334</ele><time>2026-04-04T11:29:02.587Z</time></trkpt><trkpt lat="39.6286693" lon="-0.6326389"><ele>148.66666666666669</ele><time>2026-04-04T11:29:03.586Z</time></trkpt><trkpt lat="39.6287211" lon="-0.6327372"><ele>149.0</ele><time>2026-04-04T11:29:05.586Z</time></trkpt><trkpt lat="39.6287935" lon="-0.6326843"><ele>149.33333333333334</ele><time>2026-04-04T11:29:12.585Z</time></trkpt><trkpt lat="39.6287826" lon="-0.6325361"><ele>149.66666666666666</ele><time>2026-04-04T11:29:14.586Z</time></trkpt><trkpt lat="39.6287657" lon="-0.6324247"><ele>150.0</ele><time>2026-04-04T11:29:15.585Z</time></trkpt><trkpt lat="39.6287395" lon="-0.6323027"><ele>150.0</ele><time>2026-04-04T11:29:16.585Z</time></trkpt><trkpt lat="39.6287116" lon="-0.6321528"><ele>150.0</ele><time>2026-04-04T11:29:17.585Z</time></trkpt><trkpt lat="39.628679" lon="-0.6319832"><ele>150.0</ele><time>2026-04-04T11:29:18.586Z</time></trkpt><trkpt lat="39.6286474" lon="-0.6318075"><ele>150.0</ele><time>2026-04-04T11:29:19.585Z</time></trkpt><trkpt lat="39.6286235" lon="-0.6316306"><ele>149.5</ele><time>2026-04-04T11:29:20.587Z</time></trkpt><trkpt lat="39.6285929" lon="-0.6314538"><ele>149.0</ele><time>2026-04-04T11:29:21.585Z</time></trkpt><trkpt lat="39.6285572" lon="-0.6312757"><ele>148.5</ele><time>2026-04-04T11:29:22.584Z</time></trkpt><trkpt lat="39.6285252" lon="-0.6310926"><ele>148.0</ele><time>2026-04-04T11:29:23.584Z</time></trkpt><trkpt lat="39.6284922" lon="-0.6308914"><ele>148.0</ele><time>2026-04-04T11:29:24.584Z</time></trkpt><trkpt lat="39.6284547" lon="-0.6306881"><ele>148.0</ele><time>2026-04-04T11:29:25.585Z</time></trkpt><trkpt lat="39.6284183" lon="-0.6304734"><ele>148.0</ele><time>2026-04-04T11:29:26.585Z</time></trkpt><trkpt lat="39.628375" lon="-0.6302504"><ele>149.66666666666669</ele><time>2026-04-04T11:29:27.584Z</time></trkpt><trkpt lat="39.6283297" lon="-0.6300208"><ele>151.33333333333334</ele><time>2026-04-04T11:29:28.584Z</time></trkpt><trkpt lat="39.6282852" lon="-0.6297761"><ele>153.0</ele><time>2026-04-04T11:29:29.584Z</time></trkpt><trkpt lat="39.6282441" lon="-0.6295361"><ele>152.66666666666666</ele><time>2026-04-04T11:29:30.585Z</time></trkpt><trkpt lat="39.6282017" lon="-0.6292866"><ele>152.33333333333331</ele><time>2026-04-04T11:29:31.584Z</time></trkpt><trkpt lat="39.6281654" lon="-0.6290413"><ele>152.0</ele><time>2026-04-04T11:29:32.586Z</time></trkpt><trkpt lat="39.6281288" lon="-0.6287971"><ele>152.33333333333331</ele><time>2026-04-04T11:29:33.585Z</time></trkpt><trkpt lat="39.6280854" lon="-0.628547"><ele>152.66666666666666</ele><time>2026-04-04T11:29:34.585Z</time></trkpt><trkpt lat="39.6280341" lon="-0.6283107"><ele>153.0</ele><time>2026-04-04T11:29:35.585Z</time></trkpt><trkpt lat="39.6279683" lon="-0.6280901"><ele>153.0</ele><time>2026-04-04T11:29:36.586Z</time></trkpt><trkpt lat="39.6278948" lon="-0.6278799"><ele>153.0</ele><time>2026-04-04T11:29:37.585Z</time></trkpt><trkpt lat="39.6277953" lon="-0.6276673"><ele>153.0</ele><time>2026-04-04T11:29:38.584Z</time></trkpt><trkpt lat="39.6276884" lon="-0.6274521"><ele>154.0</ele><time>2026-04-04T11:29:39.587Z</time></trkpt><trkpt lat="39.6275847" lon="-0.6272346"><ele>155.0</ele><time>2026-04-04T11:29:40.584Z</time></trkpt><trkpt lat="39.6274919" lon="-0.6270075"><ele>156.0</ele><time>2026-04-04T11:29:41.584Z</time></trkpt><trkpt lat="39.627412" lon="-0.6267878"><ele>156.66666666666666</ele><time>2026-04-04T11:29:42.584Z</time></trkpt><trkpt lat="39.6273441" lon="-0.6265704"><ele>157.33333333333331</ele><time>2026-04-04T11:29:43.584Z</time></trkpt><trkpt lat="39.6272863" lon="-0.6263335"><ele>158.0</ele><time>2026-04-04T11:29:44.587Z</time></trkpt><trkpt lat="39.6272471" lon="-0.6260898"><ele>159.66666666666666</ele><time>2026-04-04T11:29:45.585Z</time></trkpt><trkpt lat="39.6272224" lon="-0.6258283"><ele>161.33333333333334</ele><time>2026-04-04T11:29:46.586Z</time></trkpt><trkpt lat="39.6272099" lon="-0.6255617"><ele>163.0</ele><time>2026-04-04T11:29:47.585Z</time></trkpt><trkpt lat="39.627198" lon="-0.6252849"><ele>163.66666666666669</ele><time>2026-04-04T11:29:48.586Z</time></trkpt><trkpt lat="39.627187" lon="-0.6250093"><ele>164.33333333333334</ele><time>2026-04-04T11:29:49.586Z</time></trkpt><trkpt lat="39.6271758" lon="-0.6247289"><ele>165.0</ele><time>2026-04-04T11:29:50.584Z</time></trkpt><trkpt lat="39.6271595" lon="-0.6244538"><ele>165.66666666666666</ele><time>2026-04-04T11:29:51.584Z</time></trkpt><trkpt lat="39.6271452" lon="-0.6241859"><ele>166.33333333333331</ele><time>2026-04-04T11:29:52.586Z</time></trkpt><trkpt lat="39.6271283" lon="-0.6239104"><ele>167.0</ele><time>2026-04-04T11:29:53.585Z</time></trkpt><trkpt lat="39.6271043" lon="-0.6236299"><ele>167.66666666666666</ele><time>2026-04-04T11:29:54.585Z</time></trkpt><trkpt lat="39.6270805" lon="-0.6233616"><ele>168.33333333333334</ele><time>2026-04-04T11:29:55.585Z</time></trkpt><trkpt lat="39.6270621" lon="-0.6230991"><ele>169.0</ele><time>2026-04-04T11:29:56.585Z</time></trkpt><trkpt lat="39.6270403" lon="-0.6228391"><ele>169.33333333333334</ele><time>2026-04-04T11:29:57.586Z</time></trkpt><trkpt lat="39.627017" lon="-0.6225772"><ele>169.66666666666666</ele><time>2026-04-04T11:29:58.585Z</time></trkpt><trkpt lat="39.626997" lon="-0.6223102"><ele>170.0</ele><time>2026-04-04T11:29:59.586Z</time></trkpt><trkpt lat="39.6269742" lon="-0.622037"><ele>170.0</ele><time>2026-04-04T11:30:00.584Z</time></trkpt><trkpt lat="39.6269541" lon="-0.6217625"><ele>170.0</ele><time>2026-04-04T11:30:01.584Z</time></trkpt><trkpt lat="39.6269346" lon="-0.6214741"><ele>170.0</ele><time>2026-04-04T11:30:02.586Z</time></trkpt><trkpt lat="39.6269128" lon="-0.6211892"><ele>170.0</ele><time>2026-04-04T11:30:03.585Z</time></trkpt><trkpt lat="39.6268907" lon="-0.6209272"><ele>170.0</ele><time>2026-04-04T11:30:04.586Z</time></trkpt><trkpt lat="39.6268692" lon="-0.6206747"><ele>170.0</ele><time>2026-04-04T11:30:05.585Z</time></trkpt><trkpt lat="39.6268575" lon="-0.6204164"><ele>168.66666666666666</ele><time>2026-04-04T11:30:06.585Z</time></trkpt><trkpt lat="39.6268601" lon="-0.6201524"><ele>167.33333333333334</ele><time>2026-04-04T11:30:07.585Z</time></trkpt><trkpt lat="39.6268628" lon="-0.6198734"><ele>166.0</ele><time>2026-04-04T11:30:08.585Z</time></trkpt><trkpt lat="39.6268788" lon="-0.6195876"><ele>165.0</ele><time>2026-04-04T11:30:09.586Z</time></trkpt><trkpt lat="39.6268954" lon="-0.6193013"><ele>164.0</ele><time>2026-04-04T11:30:10.587Z</time></trkpt><trkpt lat="39.626923" lon="-0.6190351"><ele>163.0</ele><time>2026-04-04T11:30:11.585Z</time></trkpt><trkpt lat="39.6269531" lon="-0.6187745"><ele>162.33333333333334</ele><time>2026-04-04T11:30:12.586Z</time></trkpt><trkpt lat="39.6269924" lon="-0.6185201"><ele>161.66666666666666</ele><time>2026-04-04T11:30:13.585Z</time></trkpt><trkpt lat="39.6270385" lon="-0.6182719"><ele>161.0</ele><time>2026-04-04T11:30:14.584Z</time></trkpt><trkpt lat="39.6270891" lon="-0.6180236"><ele>161.0</ele><time>2026-04-04T11:30:15.585Z</time></trkpt><trkpt lat="39.6271491" lon="-0.6177865"><ele>161.0</ele><time>2026-04-04T11:30:16.585Z</time></trkpt><trkpt lat="39.6272009" lon="-0.6175711"><ele>161.0</ele><time>2026-04-04T11:30:17.585Z</time></trkpt><trkpt lat="39.6272588" lon="-0.6173598"><ele>161.0</ele><time>2026-04-04T11:30:18.586Z</time></trkpt><trkpt lat="39.6273165" lon="-0.6171547"><ele>161.0</ele><time>2026-04-04T11:30:19.585Z</time></trkpt><trkpt lat="39.6273727" lon="-0.616972"><ele>161.0</ele><time>2026-04-04T11:30:20.585Z</time></trkpt><trkpt lat="39.6274292" lon="-0.6168031"><ele>161.25</ele><time>2026-04-04T11:30:21.586Z</time></trkpt><trkpt lat="39.6274937" lon="-0.6166458"><ele>161.5</ele><time>2026-04-04T11:30:22.586Z</time></trkpt><trkpt lat="39.6275411" lon="-0.616493"><ele>161.75</ele><time>2026-04-04T11:30:23.585Z</time></trkpt><trkpt lat="39.6275702" lon="-0.6163329"><ele>162.0</ele><time>2026-04-04T11:30:24.586Z</time></trkpt><trkpt lat="39.6275669" lon="-0.6161825"><ele>162.5</ele><time>2026-04-04T11:30:25.585Z</time></trkpt><trkpt lat="39.6275306" lon="-0.6160367"><ele>163.0</ele><time>2026-04-04T11:30:26.586Z</time></trkpt><trkpt lat="39.627485" lon="-0.6158901"><ele>163.5</ele><time>2026-04-04T11:30:27.587Z</time></trkpt><trkpt lat="39.6274533" lon="-0.6157217"><ele>164.0</ele><time>2026-04-04T11:30:28.586Z</time></trkpt><trkpt lat="39.6274458" lon="-0.615538"><ele>164.0</ele><time>2026-04-04T11:30:29.586Z</time></trkpt><trkpt lat="39.627455" lon="-0.6153389"><ele>164.0</ele><time>2026-04-04T11:30:30.585Z</time></trkpt><trkpt lat="39.6274811" lon="-0.6151297"><ele>164.0</ele><time>2026-04-04T11:30:31.584Z</time></trkpt><trkpt lat="39.6275171" lon="-0.614915"><ele>164.66666666666666</ele><time>2026-04-04T11:30:32.586Z</time></trkpt><trkpt lat="39.6275539" lon="-0.6146872"><ele>165.33333333333334</ele><time>2026-04-04T11:30:33.585Z</time></trkpt><trkpt lat="39.6275967" lon="-0.6144444"><ele>166.0</ele><time>2026-04-04T11:30:34.585Z</time></trkpt><trkpt lat="39.6276472" lon="-0.6141922"><ele>166.0</ele><time>2026-04-04T11:30:35.585Z</time></trkpt><trkpt lat="39.6276919" lon="-0.6139435"><ele>166.0</ele><time>2026-04-04T11:30:36.586Z</time></trkpt><trkpt lat="39.6277333" lon="-0.6137115"><ele>166.0</ele><time>2026-04-04T11:30:37.585Z</time></trkpt><trkpt lat="39.627782" lon="-0.613486"><ele>166.66666666666669</ele><time>2026-04-04T11:30:38.586Z</time></trkpt><trkpt lat="39.6278467" lon="-0.6132662"><ele>167.33333333333334</ele><time>2026-04-04T11:30:39.585Z</time></trkpt><trkpt lat="39.627927" lon="-0.6130507"><ele>168.0</ele><time>2026-04-04T11:30:40.586Z</time></trkpt><trkpt lat="39.6280302" lon="-0.6128363"><ele>168.33333333333334</ele><time>2026-04-04T11:30:41.586Z</time></trkpt><trkpt lat="39.6281433" lon="-0.6126372"><ele>168.66666666666669</ele><time>2026-04-04T11:30:42.586Z</time></trkpt><trkpt lat="39.6282753" lon="-0.6124178"><ele>169.0</ele><time>2026-04-04T11:30:43.584Z</time></trkpt><trkpt lat="39.6284053" lon="-0.6121965"><ele>168.66666666666669</ele><time>2026-04-04T11:30:44.585Z</time></trkpt><trkpt lat="39.628525" lon="-0.6119802"><ele>168.33333333333334</ele><time>2026-04-04T11:30:45.585Z</time></trkpt><trkpt lat="39.6286396" lon="-0.6117825"><ele>168.0</ele><time>2026-04-04T11:30:46.584Z</time></trkpt><trkpt lat="39.6287588" lon="-0.6115786"><ele>168.0</ele><time>2026-04-04T11:30:47.585Z</time></trkpt><trkpt lat="39.6288677" lon="-0.6113833"><ele>168.0</ele><time>2026-04-04T11:30:48.587Z</time></trkpt><trkpt lat="39.6289529" lon="-0.6111856"><ele>168.0</ele><time>2026-04-04T11:30:49.584Z</time></trkpt><trkpt lat="39.629013" lon="-0.6109789"><ele>169.33333333333334</ele><time>2026-04-04T11:30:50.585Z</time></trkpt><trkpt lat="39.6290453" lon="-0.6107529"><ele>170.66666666666669</ele><time>2026-04-04T11:30:51.584Z</time></trkpt><trkpt lat="39.6290744" lon="-0.6105088"><ele>172.0</ele><time>2026-04-04T11:30:52.586Z</time></trkpt><trkpt lat="39.6290884" lon="-0.6102533"><ele>172.0</ele><time>2026-04-04T11:30:53.585Z</time></trkpt><trkpt lat="39.6291103" lon="-0.6099884"><ele>172.0</ele><time>2026-04-04T11:30:54.585Z</time></trkpt><trkpt lat="39.6291353" lon="-0.6097097"><ele>172.0</ele><time>2026-04-04T11:30:55.584Z</time></trkpt><trkpt lat="39.6291628" lon="-0.6094197"><ele>171.0</ele><time>2026-04-04T11:30:56.585Z</time></trkpt><trkpt lat="39.6291917" lon="-0.6091222"><ele>170.0</ele><time>2026-04-04T11:30:57.584Z</time></trkpt><trkpt lat="39.6292157" lon="-0.6088201"><ele>171.0</ele><time>2026-04-04T11:30:58.585Z</time></trkpt><trkpt lat="39.6292421" lon="-0.608513"><ele>172.0</ele><time>2026-04-04T11:30:59.586Z</time></trkpt><trkpt lat="39.6292693" lon="-0.6082033"><ele>172.0</ele><time>2026-04-04T11:31:00.585Z</time></trkpt><trkpt lat="39.6292888" lon="-0.6079038"><ele>172.0</ele><time>2026-04-04T11:31:01.584Z</time></trkpt><trkpt lat="39.629307" lon="-0.6076175"><ele>173.0</ele><time>2026-04-04T11:31:02.585Z</time></trkpt><trkpt lat="39.6293279" lon="-0.6073327"><ele>174.0</ele><time>2026-04-04T11:31:03.586Z</time></trkpt><trkpt lat="39.6293455" lon="-0.6070571"><ele>175.0</ele><time>2026-04-04T11:31:04.584Z</time></trkpt><trkpt lat="39.6293671" lon="-0.6067968"><ele>175.33333333333334</ele><time>2026-04-04T11:31:05.586Z</time></trkpt><trkpt lat="39.6293926" lon="-0.6065357"><ele>175.66666666666666</ele><time>2026-04-04T11:31:06.585Z</time></trkpt><trkpt lat="39.6294151" lon="-0.6062733"><ele>176.0</ele><time>2026-04-04T11:31:07.584Z</time></trkpt><trkpt lat="39.629441" lon="-0.606005"><ele>176.0</ele><time>2026-04-04T11:31:08.586Z</time></trkpt><trkpt lat="39.6294713" lon="-0.605759"><ele>176.0</ele><time>2026-04-04T11:31:09.586Z</time></trkpt><trkpt lat="39.6295017" lon="-0.6055174"><ele>176.0</ele><time>2026-04-04T11:31:10.585Z</time></trkpt><trkpt lat="39.629534" lon="-0.6052765"><ele>173.33333333333331</ele><time>2026-04-04T11:31:11.586Z</time></trkpt><trkpt lat="39.629573" lon="-0.6050551"><ele>170.66666666666666</ele><time>2026-04-04T11:31:12.585Z</time></trkpt><trkpt lat="39.6296102" lon="-0.604847"><ele>168.0</ele><time>2026-04-04T11:31:13.586Z</time></trkpt><trkpt lat="39.6296468" lon="-0.6046689"><ele>168.0</ele><time>2026-04-04T11:31:14.586Z</time></trkpt><trkpt lat="39.6296751" lon="-0.604497"><ele>168.0</ele><time>2026-04-04T11:31:15.584Z</time></trkpt><trkpt lat="39.6297007" lon="-0.6043437"><ele>168.0</ele><time>2026-04-04T11:31:16.585Z</time></trkpt><trkpt lat="39.6297205" lon="-0.6042117"><ele>168.0</ele><time>2026-04-04T11:31:17.585Z</time></trkpt><trkpt lat="39.629743" lon="-0.604087"><ele>168.5</ele><time>2026-04-04T11:31:18.587Z</time></trkpt><trkpt lat="39.6297594" lon="-0.6039788"><ele>169.0</ele><time>2026-04-04T11:31:19.585Z</time></trkpt><trkpt lat="39.629766" lon="-0.6038733"><ele>169.5</ele><time>2026-04-04T11:31:20.585Z</time></trkpt><trkpt lat="39.6297577" lon="-0.6037649"><ele>170.0</ele><time>2026-04-04T11:31:21.584Z</time></trkpt><trkpt lat="39.629728" lon="-0.6036571"><ele>170.5</ele><time>2026-04-04T11:31:22.585Z</time></trkpt><trkpt lat="39.6296852" lon="-0.6035416"><ele>171.0</ele><time>2026-04-04T11:31:23.586Z</time></trkpt><trkpt lat="39.6296405" lon="-0.6034411"><ele>171.33333333333334</ele><time>2026-04-04T11:31:24.585Z</time></trkpt><trkpt lat="39.6295965" lon="-0.6033504"><ele>171.66666666666666</ele><time>2026-04-04T11:31:25.586Z</time></trkpt><trkpt lat="39.6295558" lon="-0.6032577"><ele>172.0</ele><time>2026-04-04T11:31:26.586Z</time></trkpt><trkpt lat="39.629522" lon="-0.6031819"><ele>172.33333333333331</ele><time>2026-04-04T11:31:27.586Z</time></trkpt><trkpt lat="39.6294864" lon="-0.6030492"><ele>172.66666666666666</ele><time>2026-04-04T11:31:29.585Z</time></trkpt><trkpt lat="39.6295379" lon="-0.6029561"><ele>173.0</ele><time>2026-04-04T11:31:31.586Z</time></trkpt><trkpt lat="39.6295967" lon="-0.6029216"><ele>173.0</ele><time>2026-04-04T11:31:32.584Z</time></trkpt><trkpt lat="39.6296935" lon="-0.6028484"><ele>173.0</ele><time>2026-04-04T11:31:34.584Z</time></trkpt><trkpt lat="39.6297754" lon="-0.6027554"><ele>173.0</ele><time>2026-04-04T11:31:36.585Z</time></trkpt><trkpt lat="39.6298276" lon="-0.6026263"><ele>173.0</ele><time>2026-04-04T11:31:38.585Z</time></trkpt><trkpt lat="39.6298338" lon="-0.6025104"><ele>173.0</ele><time>2026-04-04T11:31:40.586Z</time></trkpt><trkpt lat="39.6298002" lon="-0.6023893"><ele>172.83333333333331</ele><time>2026-04-04T11:31:42.586Z</time></trkpt><trkpt lat="39.6297795" lon="-0.6022642"><ele>172.66666666666666</ele><time>2026-04-04T11:31:44.586Z</time></trkpt><trkpt lat="39.6297546" lon="-0.6021516"><ele>172.5</ele><time>2026-04-04T11:31:47.585Z</time></trkpt><trkpt lat="39.6297484" lon="-0.6020666"><ele>172.33333333333334</ele><time>2026-04-04T11:31:49.585Z</time></trkpt><trkpt lat="39.6297315" lon="-0.6019512"><ele>172.16666666666669</ele><time>2026-04-04T11:31:51.586Z</time></trkpt><trkpt lat="39.6297038" lon="-0.6018409"><ele>172.0</ele><time>2026-04-04T11:31:53.585Z</time></trkpt><trkpt lat="39.6296861" lon="-0.60176"><ele>171.83333333333334</ele><time>2026-04-04T11:31:55.584Z</time></trkpt><trkpt lat="39.6296641" lon="-0.601663"><ele>171.66666666666669</ele><time>2026-04-04T11:31:57.584Z</time></trkpt><trkpt lat="39.6296422" lon="-0.6015728"><ele>171.5</ele><time>2026-04-04T11:31:59.585Z</time></trkpt><trkpt lat="39.6296175" lon="-0.6014635"><ele>171.33333333333334</ele><time>2026-04-04T11:32:02.584Z</time></trkpt><trkpt lat="39.6295917" lon="-0.6013841"><ele>171.16666666666666</ele><time>2026-04-04T11:32:05.584Z</time></trkpt><trkpt lat="39.62956" lon="-0.6012914"><ele>171.0</ele><time>2026-04-04T11:32:08.586Z</time></trkpt><trkpt lat="39.6295249" lon="-0.6012115"><ele>171.0</ele><time>2026-04-04T11:32:12.585Z</time></trkpt><trkpt lat="39.6295001" lon="-0.6011233"><ele>171.0</ele><time>2026-04-04T11:32:17.585Z</time></trkpt><trkpt lat="39.6294667" lon="-0.6010031"><ele>171.0</ele><time>2026-04-04T11:32:23.585Z</time></trkpt><trkpt lat="39.6294222" lon="-0.6008799"><ele>171.0</ele><time>2026-04-04T11:32:26.585Z</time></trkpt><trkpt lat="39.629401" lon="-0.6007711"><ele>171.0</ele><time>2026-04-04T11:32:27.585Z</time></trkpt><trkpt lat="39.629366" lon="-0.6006564"><ele>171.4</ele><time>2026-04-04T11:32:28.585Z</time></trkpt><trkpt lat="39.629334" lon="-0.6005185"><ele>171.8</ele><time>2026-04-04T11:32:29.585Z</time></trkpt><trkpt lat="39.6293005" lon="-0.6003992"><ele>172.20000000000002</ele><time>2026-04-04T11:32:30.584Z</time></trkpt><trkpt lat="39.629276" lon="-0.6002823"><ele>172.60000000000002</ele><time>2026-04-04T11:32:31.589Z</time></trkpt><trkpt lat="39.6292555" lon="-0.6001838"><ele>173.0</ele><time>2026-04-04T11:32:32.585Z</time></trkpt><trkpt lat="39.6292396" lon="-0.6000915"><ele>173.5</ele><time>2026-04-04T11:32:33.585Z</time></trkpt><trkpt lat="39.6292076" lon="-0.5999711"><ele>174.0</ele><time>2026-04-04T11:32:35.586Z</time></trkpt><trkpt lat="39.6291798" lon="-0.5998922"><ele>174.5</ele><time>2026-04-04T11:32:37.585Z</time></trkpt><trkpt lat="39.6291545" lon="-0.5998144"><ele>175.0</ele><time>2026-04-04T11:32:39.585Z</time></trkpt><trkpt lat="39.6291335" lon="-0.5997175"><ele>175.5</ele><time>2026-04-04T11:32:41.584Z</time></trkpt><trkpt lat="39.6291141" lon="-0.599613"><ele>176.0</ele><time>2026-04-04T11:32:43.584Z</time></trkpt><trkpt lat="39.6290765" lon="-0.5995369"><ele>175.5</ele><time>2026-04-04T11:32:49.585Z</time></trkpt><trkpt lat="39.6290487" lon="-0.5994158"><ele>175.0</ele><time>2026-04-04T11:32:52.585Z</time></trkpt><trkpt lat="39.6290235" lon="-0.5993143"><ele>174.5</ele><time>2026-04-04T11:32:54.585Z</time></trkpt><trkpt lat="39.6289992" lon="-0.5992277"><ele>174.0</ele><time>2026-04-04T11:32:56.585Z</time></trkpt><trkpt lat="39.6289743" lon="-0.5991445"><ele>173.5</ele><time>2026-04-04T11:33:07.585Z</time></trkpt><trkpt lat="39.6289514" lon="-0.5990282"><ele>173.0</ele><time>2026-04-04T11:33:11.584Z</time></trkpt><trkpt lat="39.628922" lon="-0.5988847"><ele>173.0</ele><time>2026-04-04T11:33:13.585Z</time></trkpt><trkpt lat="39.6289065" lon="-0.5988023"><ele>173.0</ele><time>2026-04-04T11:33:14.586Z</time></trkpt><trkpt lat="39.6288844" lon="-0.5987209"><ele>173.0</ele><time>2026-04-04T11:33:15.585Z</time></trkpt><trkpt lat="39.628847" lon="-0.5985793"><ele>173.0</ele><time>2026-04-04T11:33:17.586Z</time></trkpt><trkpt lat="39.6288224" lon="-0.5984663"><ele>173.0</ele><time>2026-04-04T11:33:19.584Z</time></trkpt><trkpt lat="39.6287982" lon="-0.5983616"><ele>173.0</ele><time>2026-04-04T11:33:21.585Z</time></trkpt><trkpt lat="39.6287762" lon="-0.5982588"><ele>172.8</ele><time>2026-04-04T11:33:24.586Z</time></trkpt><trkpt lat="39.6287339" lon="-0.5981394"><ele>172.60000000000002</ele><time>2026-04-04T11:33:38.585Z</time></trkpt><trkpt lat="39.62869" lon="-0.5979849"><ele>172.39999999999998</ele><time>2026-04-04T11:33:40.585Z</time></trkpt><trkpt lat="39.628657" lon="-0.5978657"><ele>172.2</ele><time>2026-04-04T11:33:41.586Z</time></trkpt><trkpt lat="39.6286243" lon="-0.5977399"><ele>172.0</ele><time>2026-04-04T11:33:42.583Z</time></trkpt><trkpt lat="39.6285951" lon="-0.5976316"><ele>173.2</ele><time>2026-04-04T11:33:43.586Z</time></trkpt><trkpt lat="39.6285758" lon="-0.5975537"><ele>174.39999999999998</ele><time>2026-04-04T11:33:44.585Z</time></trkpt><trkpt lat="39.6285387" lon="-0.5974039"><ele>175.60000000000002</ele><time>2026-04-04T11:33:46.585Z</time></trkpt><trkpt lat="39.6284875" lon="-0.5972486"><ele>176.8</ele><time>2026-04-04T11:33:48.585Z</time></trkpt><trkpt lat="39.6284629" lon="-0.5971686"><ele>178.0</ele><time>2026-04-04T11:33:49.584Z</time></trkpt><trkpt lat="39.6284323" lon="-0.5970337"><ele>177.8</ele><time>2026-04-04T11:33:51.584Z</time></trkpt><trkpt lat="39.6284039" lon="-0.5969026"><ele>177.60000000000002</ele><time>2026-04-04T11:33:53.585Z</time></trkpt><trkpt lat="39.6283734" lon="-0.5968009"><ele>177.39999999999998</ele><time>2026-04-04T11:33:55.585Z</time></trkpt><trkpt lat="39.628334" lon="-0.5966877"><ele>177.2</ele><time>2026-04-04T11:33:58.586Z</time></trkpt><trkpt lat="39.6283095" lon="-0.5966084"><ele>177.0</ele><time>2026-04-04T11:34:00.584Z</time></trkpt><trkpt lat="39.628275" lon="-0.5964748"><ele>177.0</ele><time>2026-04-04T11:34:02.585Z</time></trkpt><trkpt lat="39.6282544" lon="-0.5963947"><ele>177.0</ele><time>2026-04-04T11:34:03.585Z</time></trkpt><trkpt lat="39.6282156" lon="-0.5962476"><ele>177.0</ele><time>2026-04-04T11:34:05.585Z</time></trkpt><trkpt lat="39.628204" lon="-0.5961519"><ele>177.0</ele><time>2026-04-04T11:34:06.585Z</time></trkpt><trkpt lat="39.6281829" lon="-0.5960688"><ele>177.0</ele><time>2026-04-04T11:34:07.584Z</time></trkpt><trkpt lat="39.6281546" lon="-0.5959852"><ele>177.0</ele><time>2026-04-04T11:34:08.585Z</time></trkpt><trkpt lat="39.6281276" lon="-0.5958898"><ele>176.39999999999998</ele><time>2026-04-04T11:34:09.585Z</time></trkpt><trkpt lat="39.6280985" lon="-0.5957973"><ele>175.79999999999998</ele><time>2026-04-04T11:34:10.584Z</time></trkpt><trkpt lat="39.6280631" lon="-0.595676"><ele>175.2</ele><time>2026-04-04T11:34:11.586Z</time></trkpt><trkpt lat="39.6280329" lon="-0.5955381"><ele>174.6</ele><time>2026-04-04T11:34:12.586Z</time></trkpt><trkpt lat="39.6279973" lon="-0.5954043"><ele>174.0</ele><time>2026-04-04T11:34:13.584Z</time></trkpt><trkpt lat="39.6279492" lon="-0.5952562"><ele>173.6</ele><time>2026-04-04T11:34:14.585Z</time></trkpt><trkpt lat="39.6279185" lon="-0.5951164"><ele>173.2</ele><time>2026-04-04T11:34:15.585Z</time></trkpt><trkpt lat="39.6278894" lon="-0.5949914"><ele>172.79999999999998</ele><time>2026-04-04T11:34:16.586Z</time></trkpt><trkpt lat="39.6278574" lon="-0.5948629"><ele>172.39999999999998</ele><time>2026-04-04T11:34:17.586Z</time></trkpt><trkpt lat="39.6278248" lon="-0.594731"><ele>172.0</ele><time>2026-04-04T11:34:18.585Z</time></trkpt><trkpt lat="39.6277943" lon="-0.5945856"><ele>171.5</ele><time>2026-04-04T11:34:19.583Z</time></trkpt><trkpt lat="39.6277524" lon="-0.5944489"><ele>171.0</ele><time>2026-04-04T11:34:20.585Z</time></trkpt><trkpt lat="39.6277251" lon="-0.594317"><ele>170.5</ele><time>2026-04-04T11:34:21.586Z</time></trkpt><trkpt lat="39.6276885" lon="-0.5941753"><ele>170.0</ele><time>2026-04-04T11:34:22.584Z</time></trkpt><trkpt lat="39.6276418" lon="-0.5940194"><ele>170.0</ele><time>2026-04-04T11:34:23.585Z</time></trkpt><trkpt lat="39.6275849" lon="-0.5938411"><ele>170.0</ele><time>2026-04-04T11:34:24.585Z</time></trkpt><trkpt lat="39.6275074" lon="-0.593664"><ele>170.0</ele><time>2026-04-04T11:34:25.586Z</time></trkpt><trkpt lat="39.6274098" lon="-0.5934653"><ele>167.66666666666666</ele><time>2026-04-04T11:34:26.585Z</time></trkpt><trkpt lat="39.6273158" lon="-0.5932678"><ele>165.33333333333334</ele><time>2026-04-04T11:34:27.586Z</time></trkpt><trkpt lat="39.6272313" lon="-0.5930989"><ele>163.0</ele><time>2026-04-04T11:34:28.586Z</time></trkpt><trkpt lat="39.6271471" lon="-0.5929423"><ele>162.0</ele><time>2026-04-04T11:34:29.586Z</time></trkpt><trkpt lat="39.6270722" lon="-0.5927776"><ele>161.0</ele><time>2026-04-04T11:34:30.586Z</time></trkpt><trkpt lat="39.6269972" lon="-0.5926218"><ele>160.0</ele><time>2026-04-04T11:34:31.586Z</time></trkpt><trkpt lat="39.6269277" lon="-0.5924888"><ele>159.0</ele><time>2026-04-04T11:34:32.584Z</time></trkpt><trkpt lat="39.6268604" lon="-0.5923605"><ele>158.8</ele><time>2026-04-04T11:34:33.585Z</time></trkpt><trkpt lat="39.6268086" lon="-0.5922515"><ele>158.60000000000002</ele><time>2026-04-04T11:34:34.586Z</time></trkpt><trkpt lat="39.626758" lon="-0.5921376"><ele>158.4</ele><time>2026-04-04T11:34:35.584Z</time></trkpt><trkpt lat="39.6267001" lon="-0.592021"><ele>158.20000000000002</ele><time>2026-04-04T11:34:36.585Z</time></trkpt><trkpt lat="39.6266348" lon="-0.5919071"><ele>158.0</ele><time>2026-04-04T11:34:37.585Z</time></trkpt><trkpt lat="39.6265667" lon="-0.5917914"><ele>158.0</ele><time>2026-04-04T11:34:38.586Z</time></trkpt><trkpt lat="39.6264745" lon="-0.5916668"><ele>158.0</ele><time>2026-04-04T11:34:39.584Z</time></trkpt><trkpt lat="39.6263778" lon="-0.5915554"><ele>158.0</ele><time>2026-04-04T11:34:40.586Z</time></trkpt><trkpt lat="39.6262776" lon="-0.591453"><ele>158.0</ele><time>2026-04-04T11:34:41.584Z</time></trkpt><trkpt lat="39.6261438" lon="-0.5913564"><ele>157.0</ele><time>2026-04-04T11:34:42.584Z</time></trkpt><trkpt lat="39.6259907" lon="-0.5912561"><ele>156.0</ele><time>2026-04-04T11:34:43.583Z</time></trkpt><trkpt lat="39.6258147" lon="-0.5911652"><ele>155.0</ele><time>2026-04-04T11:34:44.585Z</time></trkpt><trkpt lat="39.6256348" lon="-0.5910503"><ele>155.0</ele><time>2026-04-04T11:34:45.586Z</time></trkpt><trkpt lat="39.6254515" lon="-0.5909344"><ele>155.0</ele><time>2026-04-04T11:34:46.586Z</time></trkpt><trkpt lat="39.625253" lon="-0.5908086"><ele>155.0</ele><time>2026-04-04T11:34:47.585Z</time></trkpt><trkpt lat="39.6250447" lon="-0.5906787"><ele>155.33333333333331</ele><time>2026-04-04T11:34:48.585Z</time></trkpt><trkpt lat="39.6248551" lon="-0.5905571"><ele>155.66666666666666</ele><time>2026-04-04T11:34:49.586Z</time></trkpt><trkpt lat="39.6246849" lon="-0.5904422"><ele>156.0</ele><time>2026-04-04T11:34:50.584Z</time></trkpt><trkpt lat="39.6245262" lon="-0.5903438"><ele>153.33333333333334</ele><time>2026-04-04T11:34:51.584Z</time></trkpt><trkpt lat="39.6243778" lon="-0.5902535"><ele>150.66666666666669</ele><time>2026-04-04T11:34:52.586Z</time></trkpt><trkpt lat="39.6242428" lon="-0.5901681"><ele>148.0</ele><time>2026-04-04T11:34:53.585Z</time></trkpt><trkpt lat="39.6241212" lon="-0.5900895"><ele>148.0</ele><time>2026-04-04T11:34:54.584Z</time></trkpt><trkpt lat="39.624009" lon="-0.5900165"><ele>148.0</ele><time>2026-04-04T11:34:55.584Z</time></trkpt><trkpt lat="39.6238931" lon="-0.589946"><ele>148.0</ele><time>2026-04-04T11:34:56.584Z</time></trkpt><trkpt lat="39.6237812" lon="-0.5898769"><ele>148.0</ele><time>2026-04-04T11:34:57.585Z</time></trkpt><trkpt lat="39.6236793" lon="-0.5898118"><ele>148.75</ele><time>2026-04-04T11:34:58.585Z</time></trkpt><trkpt lat="39.6235686" lon="-0.5897356"><ele>149.5</ele><time>2026-04-04T11:34:59.584Z</time></trkpt><trkpt lat="39.6234605" lon="-0.5896649"><ele>150.25</ele><time>2026-04-04T11:35:00.584Z</time></trkpt><trkpt lat="39.6233586" lon="-0.5895968"><ele>151.0</ele><time>2026-04-04T11:35:01.584Z</time></trkpt><trkpt lat="39.6232668" lon="-0.5895347"><ele>150.5</ele><time>2026-04-04T11:35:02.585Z</time></trkpt><trkpt lat="39.6231836" lon="-0.5894745"><ele>150.0</ele><time>2026-04-04T11:35:03.585Z</time></trkpt><trkpt lat="39.6230993" lon="-0.5894247"><ele>149.5</ele><time>2026-04-04T11:35:04.585Z</time></trkpt><trkpt lat="39.6230179" lon="-0.5893777"><ele>149.0</ele><time>2026-04-04T11:35:05.585Z</time></trkpt><trkpt lat="39.6229449" lon="-0.5893316"><ele>148.5</ele><time>2026-04-04T11:35:06.584Z</time></trkpt><trkpt lat="39.6228779" lon="-0.5892829"><ele>148.0</ele><time>2026-04-04T11:35:07.586Z</time></trkpt><trkpt lat="39.6228086" lon="-0.5892417"><ele>148.0</ele><time>2026-04-04T11:35:08.584Z</time></trkpt><trkpt lat="39.6226964" lon="-0.5891851"><ele>148.0</ele><time>2026-04-04T11:35:10.585Z</time></trkpt><trkpt lat="39.6225653" lon="-0.5891776"><ele>148.0</ele><time>2026-04-04T11:35:12.584Z</time></trkpt><trkpt lat="39.6224972" lon="-0.5891799"><ele>148.0</ele><time>2026-04-04T11:35:13.585Z</time></trkpt><trkpt lat="39.6223832" lon="-0.5891266"><ele>148.0</ele><time>2026-04-04T11:35:15.584Z</time></trkpt><trkpt lat="39.6223417" lon="-0.5890411"><ele>148.0</ele><time>2026-04-04T11:35:16.585Z</time></trkpt><trkpt lat="39.6223013" lon="-0.5889573"><ele>148.0</ele><time>2026-04-04T11:35:17.585Z</time></trkpt><trkpt lat="39.6222502" lon="-0.5888618"><ele>148.0</ele><time>2026-04-04T11:35:18.586Z</time></trkpt><trkpt lat="39.6221928" lon="-0.5887659"><ele>148.0</ele><time>2026-04-04T11:35:19.585Z</time></trkpt><trkpt lat="39.6221379" lon="-0.5886678"><ele>148.0</ele><time>2026-04-04T11:35:20.584Z</time></trkpt><trkpt lat="39.6220823" lon="-0.5885759"><ele>148.0</ele><time>2026-04-04T11:35:21.585Z</time></trkpt><trkpt lat="39.6220211" lon="-0.5884867"><ele>146.5</ele><time>2026-04-04T11:35:22.586Z</time></trkpt><trkpt lat="39.62196" lon="-0.5884043"><ele>145.0</ele><time>2026-04-04T11:35:23.584Z</time></trkpt><trkpt lat="39.6219042" lon="-0.5883276"><ele>143.5</ele><time>2026-04-04T11:35:24.585Z</time></trkpt><trkpt lat="39.6218601" lon="-0.5882542"><ele>142.0</ele><time>2026-04-04T11:35:25.585Z</time></trkpt><trkpt lat="39.6218071" lon="-0.5881816"><ele>140.5</ele><time>2026-04-04T11:35:26.586Z</time></trkpt><trkpt lat="39.6217626" lon="-0.5881097"><ele>139.0</ele><time>2026-04-04T11:35:27.584Z</time></trkpt><trkpt lat="39.621718" lon="-0.588042"><ele>139.0</ele><time>2026-04-04T11:35:28.585Z</time></trkpt><trkpt lat="39.6216361" lon="-0.5879278"><ele>139.0</ele><time>2026-04-04T11:35:30.584Z</time></trkpt><trkpt lat="39.6215661" lon="-0.5878393"><ele>139.0</ele><time>2026-04-04T11:35:32.584Z</time></trkpt><trkpt lat="39.6214986" lon="-0.5877848"><ele>139.0</ele><time>2026-04-04T11:35:34.584Z</time></trkpt><trkpt lat="39.6214131" lon="-0.5877248"><ele>139.0</ele><time>2026-04-04T11:35:36.585Z</time></trkpt><trkpt lat="39.6213182" lon="-0.5876285"><ele>138.0</ele><time>2026-04-04T11:35:38.584Z</time></trkpt><trkpt lat="39.621266" lon="-0.5874999"><ele>137.0</ele><time>2026-04-04T11:35:40.585Z</time></trkpt><trkpt lat="39.6212438" lon="-0.5873781"><ele>136.0</ele><time>2026-04-04T11:35:42.585Z</time></trkpt><trkpt lat="39.6212259" lon="-0.5872963"><ele>135.0</ele><time>2026-04-04T11:35:43.584Z</time></trkpt><trkpt lat="39.6211915" lon="-0.5871986"><ele>134.0</ele><time>2026-04-04T11:35:44.586Z</time></trkpt><trkpt lat="39.6211317" lon="-0.5870813"><ele>133.5</ele><time>2026-04-04T11:35:45.583Z</time></trkpt><trkpt lat="39.6210599" lon="-0.5869486"><ele>133.0</ele><time>2026-04-04T11:35:46.584Z</time></trkpt><trkpt lat="39.6209735" lon="-0.586809"><ele>132.5</ele><time>2026-04-04T11:35:47.585Z</time></trkpt><trkpt lat="39.6208891" lon="-0.5866703"><ele>132.0</ele><time>2026-04-04T11:35:48.585Z</time></trkpt><trkpt lat="39.6208043" lon="-0.5865387"><ele>132.0</ele><time>2026-04-04T11:35:49.585Z</time></trkpt><trkpt lat="39.6207244" lon="-0.5864139"><ele>132.0</ele><time>2026-04-04T11:35:50.586Z</time></trkpt><trkpt lat="39.6206447" lon="-0.5862991"><ele>132.0</ele><time>2026-04-04T11:35:51.583Z</time></trkpt><trkpt lat="39.6205557" lon="-0.5861714"><ele>132.0</ele><time>2026-04-04T11:35:52.584Z</time></trkpt><trkpt lat="39.6204637" lon="-0.5860297"><ele>131.33333333333334</ele><time>2026-04-04T11:35:53.585Z</time></trkpt><trkpt lat="39.6203594" lon="-0.5858738"><ele>130.66666666666669</ele><time>2026-04-04T11:35:54.585Z</time></trkpt><trkpt lat="39.6202531" lon="-0.585688"><ele>130.0</ele><time>2026-04-04T11:35:55.584Z</time></trkpt><trkpt lat="39.6201457" lon="-0.585479"><ele>130.0</ele><time>2026-04-04T11:35:56.586Z</time></trkpt><trkpt lat="39.6200311" lon="-0.58527"><ele>130.0</ele><time>2026-04-04T11:35:57.585Z</time></trkpt><trkpt lat="39.6199095" lon="-0.5850621"><ele>130.0</ele><time>2026-04-04T11:35:58.585Z</time></trkpt><trkpt lat="39.6197941" lon="-0.5848617"><ele>130.0</ele><time>2026-04-04T11:35:59.584Z</time></trkpt><trkpt lat="39.6196784" lon="-0.5846717"><ele>130.0</ele><time>2026-04-04T11:36:00.585Z</time></trkpt><trkpt lat="39.6195693" lon="-0.5844875"><ele>130.0</ele><time>2026-04-04T11:36:01.586Z</time></trkpt><trkpt lat="39.6194631" lon="-0.5843072"><ele>129.33333333333334</ele><time>2026-04-04T11:36:02.584Z</time></trkpt><trkpt lat="39.6193638" lon="-0.5841367"><ele>128.66666666666666</ele><time>2026-04-04T11:36:03.585Z</time></trkpt><trkpt lat="39.6192578" lon="-0.5839694"><ele>128.0</ele><time>2026-04-04T11:36:04.585Z</time></trkpt><trkpt lat="39.6191527" lon="-0.5837975"><ele>128.66666666666666</ele><time>2026-04-04T11:36:05.585Z</time></trkpt><trkpt lat="39.6190492" lon="-0.5836178"><ele>129.33333333333334</ele><time>2026-04-04T11:36:06.586Z</time></trkpt><trkpt lat="39.6189392" lon="-0.5834249"><ele>130.0</ele><time>2026-04-04T11:36:07.584Z</time></trkpt><trkpt lat="39.618828" lon="-0.5832367"><ele>130.0</ele><time>2026-04-04T11:36:08.585Z</time></trkpt><trkpt lat="39.618722" lon="-0.5830605"><ele>130.0</ele><time>2026-04-04T11:36:09.586Z</time></trkpt><trkpt lat="39.6186198" lon="-0.582898"><ele>130.0</ele><time>2026-04-04T11:36:10.584Z</time></trkpt><trkpt lat="39.618522" lon="-0.5827316"><ele>129.25</ele><time>2026-04-04T11:36:11.586Z</time></trkpt><trkpt lat="39.6184387" lon="-0.5825822"><ele>128.5</ele><time>2026-04-04T11:36:12.585Z</time></trkpt><trkpt lat="39.6183568" lon="-0.5824458"><ele>127.75</ele><time>2026-04-04T11:36:13.584Z</time></trkpt><trkpt lat="39.6182717" lon="-0.5823088"><ele>127.0</ele><time>2026-04-04T11:36:14.584Z</time></trkpt><trkpt lat="39.6181858" lon="-0.5821804"><ele>127.0</ele><time>2026-04-04T11:36:15.585Z</time></trkpt><trkpt lat="39.6181048" lon="-0.5820435"><ele>127.0</ele><time>2026-04-04T11:36:16.585Z</time></trkpt><trkpt lat="39.6180265" lon="-0.5819138"><ele>127.0</ele><time>2026-04-04T11:36:17.586Z</time></trkpt><trkpt lat="39.617962" lon="-0.5817929"><ele>127.0</ele><time>2026-04-04T11:36:18.584Z</time></trkpt><trkpt lat="39.6178878" lon="-0.5816711"><ele>127.0</ele><time>2026-04-04T11:36:19.585Z</time></trkpt><trkpt lat="39.6178101" lon="-0.5815616"><ele>127.0</ele><time>2026-04-04T11:36:20.584Z</time></trkpt><trkpt lat="39.6177224" lon="-0.581472"><ele>127.0</ele><time>2026-04-04T11:36:21.585Z</time></trkpt><trkpt lat="39.6176242" lon="-0.5813994"><ele>127.0</ele><time>2026-04-04T11:36:22.586Z</time></trkpt><trkpt lat="39.6175142" lon="-0.5813464"><ele>127.0</ele><time>2026-04-04T11:36:23.584Z</time></trkpt><trkpt lat="39.6174092" lon="-0.581289"><ele>127.0</ele><time>2026-04-04T11:36:24.584Z</time></trkpt><trkpt lat="39.6173223" lon="-0.5812085"><ele>127.0</ele><time>2026-04-04T11:36:25.584Z</time></trkpt><trkpt lat="39.6172534" lon="-0.5810897"><ele>127.0</ele><time>2026-04-04T11:36:26.585Z</time></trkpt><trkpt lat="39.6171923" lon="-0.5809407"><ele>126.66666666666667</ele><time>2026-04-04T11:36:27.585Z</time></trkpt><trkpt lat="39.6171325" lon="-0.5807502"><ele>126.33333333333334</ele><time>2026-04-04T11:36:28.586Z</time></trkpt><trkpt lat="39.6170483" lon="-0.5805534"><ele>126.0</ele><time>2026-04-04T11:36:29.586Z</time></trkpt><trkpt lat="39.6169481" lon="-0.5803575"><ele>126.66666666666666</ele><time>2026-04-04T11:36:30.583Z</time></trkpt><trkpt lat="39.6168281" lon="-0.5801667"><ele>127.33333333333333</ele><time>2026-04-04T11:36:31.586Z</time></trkpt><trkpt lat="39.6166857" lon="-0.5799835"><ele>128.0</ele><time>2026-04-04T11:36:32.585Z</time></trkpt><trkpt lat="39.6165349" lon="-0.5797978"><ele>128.0</ele><time>2026-04-04T11:36:33.584Z</time></trkpt><trkpt lat="39.6163876" lon="-0.5796162"><ele>128.0</ele><time>2026-04-04T11:36:34.586Z</time></trkpt><trkpt lat="39.616247" lon="-0.579441"><ele>128.0</ele><time>2026-04-04T11:36:35.585Z</time></trkpt><trkpt lat="39.6161158" lon="-0.5792755"><ele>127.33333333333333</ele><time>2026-04-04T11:36:36.585Z</time></trkpt><trkpt lat="39.615997" lon="-0.5791271"><ele>126.66666666666666</ele><time>2026-04-04T11:36:37.584Z</time></trkpt><trkpt lat="39.6158844" lon="-0.5789911"><ele>126.0</ele><time>2026-04-04T11:36:38.584Z</time></trkpt><trkpt lat="39.6157747" lon="-0.578866"><ele>126.0</ele><time>2026-04-04T11:36:39.584Z</time></trkpt><trkpt lat="39.6156643" lon="-0.5787268"><ele>126.0</ele><time>2026-04-04T11:36:40.586Z</time></trkpt><trkpt lat="39.6155448" lon="-0.5785741"><ele>126.0</ele><time>2026-04-04T11:36:41.584Z</time></trkpt><trkpt lat="39.6154263" lon="-0.578422"><ele>126.5</ele><time>2026-04-04T11:36:42.584Z</time></trkpt><trkpt lat="39.6153165" lon="-0.5782843"><ele>127.0</ele><time>2026-04-04T11:36:43.583Z</time></trkpt><trkpt lat="39.615215" lon="-0.5781555"><ele>127.5</ele><time>2026-04-04T11:36:44.585Z</time></trkpt><trkpt lat="39.6151175" lon="-0.5780329"><ele>128.0</ele><time>2026-04-04T11:36:45.584Z</time></trkpt><trkpt lat="39.6150208" lon="-0.5779128"><ele>128.75</ele><time>2026-04-04T11:36:46.583Z</time></trkpt><trkpt lat="39.6149273" lon="-0.5777977"><ele>129.5</ele><time>2026-04-04T11:36:47.586Z</time></trkpt><trkpt lat="39.6148418" lon="-0.577691"><ele>130.25</ele><time>2026-04-04T11:36:48.585Z</time></trkpt><trkpt lat="39.6147566" lon="-0.5775792"><ele>131.0</ele><time>2026-04-04T11:36:49.586Z</time></trkpt><trkpt lat="39.6146701" lon="-0.5774678"><ele>131.0</ele><time>2026-04-04T11:36:50.585Z</time></trkpt><trkpt lat="39.6145837" lon="-0.5773574"><ele>131.0</ele><time>2026-04-04T11:36:51.586Z</time></trkpt><trkpt lat="39.6145025" lon="-0.5772506"><ele>131.0</ele><time>2026-04-04T11:36:52.584Z</time></trkpt><trkpt lat="39.6144295" lon="-0.5771567"><ele>131.0</ele><time>2026-04-04T11:36:53.585Z</time></trkpt><trkpt lat="39.6143579" lon="-0.5770643"><ele>131.0</ele><time>2026-04-04T11:36:54.584Z</time></trkpt><trkpt lat="39.6142869" lon="-0.576983"><ele>131.83333333333331</ele><time>2026-04-04T11:36:55.585Z</time></trkpt><trkpt lat="39.6142222" lon="-0.5768957"><ele>132.66666666666666</ele><time>2026-04-04T11:36:56.584Z</time></trkpt><trkpt lat="39.6141623" lon="-0.5768142"><ele>133.5</ele><time>2026-04-04T11:36:57.584Z</time></trkpt><trkpt lat="39.6140988" lon="-0.5767281"><ele>134.33333333333334</ele><time>2026-04-04T11:36:58.584Z</time></trkpt><trkpt lat="39.6140439" lon="-0.5766498"><ele>135.16666666666669</ele><time>2026-04-04T11:36:59.585Z</time></trkpt><trkpt lat="39.6139818" lon="-0.5765672"><ele>136.0</ele><time>2026-04-04T11:37:00.583Z</time></trkpt><trkpt lat="39.613928" lon="-0.5764905"><ele>136.0</ele><time>2026-04-04T11:37:01.584Z</time></trkpt><trkpt lat="39.6138751" lon="-0.5764274"><ele>136.0</ele><time>2026-04-04T11:37:02.584Z</time></trkpt><trkpt lat="39.6138267" lon="-0.5763593"><ele>136.0</ele><time>2026-04-04T11:37:03.584Z</time></trkpt><trkpt lat="39.6137406" lon="-0.576251"><ele>136.0</ele><time>2026-04-04T11:37:05.586Z</time></trkpt><trkpt lat="39.6136794" lon="-0.5761584"><ele>136.0</ele><time>2026-04-04T11:37:07.585Z</time></trkpt><trkpt lat="39.6136209" lon="-0.5760775"><ele>136.0</ele><time>2026-04-04T11:37:10.584Z</time></trkpt><trkpt lat="39.613559" lon="-0.5759951"><ele>135.66666666666669</ele><time>2026-04-04T11:37:27.584Z</time></trkpt><trkpt lat="39.6134827" lon="-0.5759014"><ele>135.33333333333334</ele><time>2026-04-04T11:37:29.586Z</time></trkpt><trkpt lat="39.613431" lon="-0.5758395"><ele>135.0</ele><time>2026-04-04T11:37:30.585Z</time></trkpt><trkpt lat="39.6133782" lon="-0.5757713"><ele>134.66666666666666</ele><time>2026-04-04T11:37:31.584Z</time></trkpt><trkpt lat="39.6133332" lon="-0.5757047"><ele>134.33333333333331</ele><time>2026-04-04T11:37:32.584Z</time></trkpt><trkpt lat="39.6132875" lon="-0.5756425"><ele>134.0</ele><time>2026-04-04T11:37:33.584Z</time></trkpt><trkpt lat="39.6132332" lon="-0.5755681"><ele>134.0</ele><time>2026-04-04T11:37:34.585Z</time></trkpt><trkpt lat="39.6131777" lon="-0.5754936"><ele>134.0</ele><time>2026-04-04T11:37:35.584Z</time></trkpt><trkpt lat="39.6131204" lon="-0.575426"><ele>134.0</ele><time>2026-04-04T11:37:36.585Z</time></trkpt><trkpt lat="39.613064" lon="-0.5753561"><ele>134.0</ele><time>2026-04-04T11:37:37.585Z</time></trkpt><trkpt lat="39.6130054" lon="-0.5752808"><ele>134.0</ele><time>2026-04-04T11:37:38.585Z</time></trkpt><trkpt lat="39.6129534" lon="-0.575213"><ele>134.0</ele><time>2026-04-04T11:37:39.583Z</time></trkpt><trkpt lat="39.6128716" lon="-0.5751081"><ele>133.5</ele><time>2026-04-04T11:37:41.584Z</time></trkpt><trkpt lat="39.6128023" lon="-0.5750281"><ele>133.0</ele><time>2026-04-04T11:37:43.586Z</time></trkpt><trkpt lat="39.6127334" lon="-0.5749431"><ele>132.5</ele><time>2026-04-04T11:37:45.584Z</time></trkpt><trkpt lat="39.6126843" lon="-0.5748789"><ele>132.0</ele><time>2026-04-04T11:37:46.585Z</time></trkpt><trkpt lat="39.6126331" lon="-0.5748185"><ele>131.5</ele><time>2026-04-04T11:37:47.585Z</time></trkpt><trkpt lat="39.612552" lon="-0.574707"><ele>131.0</ele><time>2026-04-04T11:37:49.586Z</time></trkpt><trkpt lat="39.6125056" lon="-0.57465"><ele>131.0</ele><time>2026-04-04T11:37:50.586Z</time></trkpt><trkpt lat="39.6124422" lon="-0.5745827"><ele>131.0</ele><time>2026-04-04T11:37:51.583Z</time></trkpt><trkpt lat="39.6123659" lon="-0.5744882"><ele>131.0</ele><time>2026-04-04T11:37:52.585Z</time></trkpt><trkpt lat="39.6122803" lon="-0.5743763"><ele>131.0</ele><time>2026-04-04T11:37:53.584Z</time></trkpt><trkpt lat="39.6122055" lon="-0.5742696"><ele>131.0</ele><time>2026-04-04T11:37:54.585Z</time></trkpt><trkpt lat="39.6121452" lon="-0.5741887"><ele>130.83333333333331</ele><time>2026-04-04T11:37:55.585Z</time></trkpt><trkpt lat="39.6120955" lon="-0.5741179"><ele>130.66666666666666</ele><time>2026-04-04T11:37:56.585Z</time></trkpt><trkpt lat="39.6120451" lon="-0.5740568"><ele>130.5</ele><time>2026-04-04T11:37:57.583Z</time></trkpt><trkpt lat="39.6119677" lon="-0.5739495"><ele>130.33333333333334</ele><time>2026-04-04T11:37:59.585Z</time></trkpt><trkpt lat="39.611919" lon="-0.5738903"><ele>130.16666666666669</ele><time>2026-04-04T11:38:00.585Z</time></trkpt><trkpt lat="39.6118539" lon="-0.5738077"><ele>130.0</ele><time>2026-04-04T11:38:01.585Z</time></trkpt><trkpt lat="39.6117829" lon="-0.5737131"><ele>129.0</ele><time>2026-04-04T11:38:02.584Z</time></trkpt><trkpt lat="39.6117098" lon="-0.5736342"><ele>128.0</ele><time>2026-04-04T11:38:03.585Z</time></trkpt><trkpt lat="39.6116477" lon="-0.5735814"><ele>127.0</ele><time>2026-04-04T11:38:04.585Z</time></trkpt><trkpt lat="39.6115846" lon="-0.573545"><ele>126.0</ele><time>2026-04-04T11:38:05.584Z</time></trkpt><trkpt lat="39.6114768" lon="-0.5735236"><ele>125.0</ele><time>2026-04-04T11:38:07.585Z</time></trkpt><trkpt lat="39.6113743" lon="-0.57355"><ele>125.0</ele><time>2026-04-04T11:38:09.585Z</time></trkpt><trkpt lat="39.6112605" lon="-0.5735345"><ele>125.0</ele><time>2026-04-04T11:38:11.585Z</time></trkpt><trkpt lat="39.6111734" lon="-0.5734395"><ele>125.0</ele><time>2026-04-04T11:38:13.583Z</time></trkpt><trkpt lat="39.6111248" lon="-0.5733024"><ele>125.0</ele><time>2026-04-04T11:38:15.585Z</time></trkpt><trkpt lat="39.6111192" lon="-0.5731262"><ele>124.2</ele><time>2026-04-04T11:38:17.585Z</time></trkpt><trkpt lat="39.6110966" lon="-0.5730145"><ele>123.4</ele><time>2026-04-04T11:38:18.584Z</time></trkpt><trkpt lat="39.611071" lon="-0.5729032"><ele>122.6</ele><time>2026-04-04T11:38:19.586Z</time></trkpt><trkpt lat="39.6110253" lon="-0.5727894"><ele>121.8</ele><time>2026-04-04T11:38:20.584Z</time></trkpt><trkpt lat="39.6109652" lon="-0.5726758"><ele>121.0</ele><time>2026-04-04T11:38:21.584Z</time></trkpt><trkpt lat="39.6109053" lon="-0.5725798"><ele>120.5</ele><time>2026-04-04T11:38:22.586Z</time></trkpt><trkpt lat="39.6108423" lon="-0.5724808"><ele>120.0</ele><time>2026-04-04T11:38:23.584Z</time></trkpt><trkpt lat="39.6107654" lon="-0.5723633"><ele>119.5</ele><time>2026-04-04T11:38:24.586Z</time></trkpt><trkpt lat="39.6106638" lon="-0.5722191"><ele>119.0</ele><time>2026-04-04T11:38:25.584Z</time></trkpt><trkpt lat="39.6105385" lon="-0.5720596"><ele>119.0</ele><time>2026-04-04T11:38:26.585Z</time></trkpt><trkpt lat="39.6104016" lon="-0.5718933"><ele>119.0</ele><time>2026-04-04T11:38:27.584Z</time></trkpt><trkpt lat="39.6102535" lon="-0.5716941"><ele>119.0</ele><time>2026-04-04T11:38:28.584Z</time></trkpt><trkpt lat="39.6100991" lon="-0.5714917"><ele>117.0</ele><time>2026-04-04T11:38:29.585Z</time></trkpt><trkpt lat="39.6099253" lon="-0.5712838"><ele>115.0</ele><time>2026-04-04T11:38:30.586Z</time></trkpt><trkpt lat="39.6097403" lon="-0.5710652"><ele>115.0</ele><time>2026-04-04T11:38:31.584Z</time></trkpt><trkpt lat="39.6095648" lon="-0.5708454"><ele>115.0</ele><time>2026-04-04T11:38:32.585Z</time></trkpt><trkpt lat="39.6094035" lon="-0.570639"><ele>114.33333333333334</ele><time>2026-04-04T11:38:33.585Z</time></trkpt><trkpt lat="39.6092587" lon="-0.5704473"><ele>113.66666666666666</ele><time>2026-04-04T11:38:34.584Z</time></trkpt><trkpt lat="39.6091203" lon="-0.5702673"><ele>113.0</ele><time>2026-04-04T11:38:35.585Z</time></trkpt><trkpt lat="39.6089963" lon="-0.5701071"><ele>113.0</ele><time>2026-04-04T11:38:36.583Z</time></trkpt><trkpt lat="39.6088823" lon="-0.5699636"><ele>113.0</ele><time>2026-04-04T11:38:37.584Z</time></trkpt><trkpt lat="39.6087799" lon="-0.5698501"><ele>113.0</ele><time>2026-04-04T11:38:38.584Z</time></trkpt><trkpt lat="39.6086811" lon="-0.5697628"><ele>113.0</ele><time>2026-04-04T11:38:39.585Z</time></trkpt><trkpt lat="39.6085891" lon="-0.5696996"><ele>112.60000000000001</ele><time>2026-04-04T11:38:40.586Z</time></trkpt><trkpt lat="39.6084922" lon="-0.5696532"><ele>112.20000000000002</ele><time>2026-04-04T11:38:41.584Z</time></trkpt><trkpt lat="39.6083861" lon="-0.5696411"><ele>111.8</ele><time>2026-04-04T11:38:42.586Z</time></trkpt><trkpt lat="39.6082821" lon="-0.5696435"><ele>111.4</ele><time>2026-04-04T11:38:43.583Z</time></trkpt><trkpt lat="39.6081905" lon="-0.5696118"><ele>111.0</ele><time>2026-04-04T11:38:44.583Z</time></trkpt><trkpt lat="39.6081231" lon="-0.5695665"><ele>110.4</ele><time>2026-04-04T11:38:45.584Z</time></trkpt><trkpt lat="39.608071" lon="-0.5694913"><ele>109.8</ele><time>2026-04-04T11:38:46.585Z</time></trkpt><trkpt lat="39.6080365" lon="-0.5693821"><ele>109.20000000000002</ele><time>2026-04-04T11:38:47.583Z</time></trkpt><trkpt lat="39.6080192" lon="-0.5692495"><ele>108.60000000000001</ele><time>2026-04-04T11:38:48.585Z</time></trkpt><trkpt lat="39.6079861" lon="-0.5691072"><ele>108.0</ele><time>2026-04-04T11:38:49.585Z</time></trkpt><trkpt lat="39.6079301" lon="-0.5689454"><ele>108.0</ele><time>2026-04-04T11:38:50.585Z</time></trkpt><trkpt lat="39.6078524" lon="-0.5687688"><ele>108.0</ele><time>2026-04-04T11:38:51.584Z</time></trkpt><trkpt lat="39.6077518" lon="-0.5685831"><ele>108.0</ele><time>2026-04-04T11:38:52.584Z</time></trkpt><trkpt lat="39.6076497" lon="-0.5683964"><ele>107.66666666666666</ele><time>2026-04-04T11:38:53.584Z</time></trkpt><trkpt lat="39.6075443" lon="-0.568225"><ele>107.33333333333333</ele><time>2026-04-04T11:38:54.586Z</time></trkpt><trkpt lat="39.6074475" lon="-0.5680695"><ele>107.0</ele><time>2026-04-04T11:38:55.584Z</time></trkpt><trkpt lat="39.6073563" lon="-0.5679234"><ele>107.5</ele><time>2026-04-04T11:38:56.586Z</time></trkpt><trkpt lat="39.6072773" lon="-0.567783"><ele>108.0</ele><time>2026-04-04T11:38:57.585Z</time></trkpt><trkpt lat="39.6072027" lon="-0.5676539"><ele>108.5</ele><time>2026-04-04T11:38:58.584Z</time></trkpt><trkpt lat="39.6071299" lon="-0.5675332"><ele>109.0</ele><time>2026-04-04T11:38:59.585Z</time></trkpt><trkpt lat="39.6070606" lon="-0.5674315"><ele>108.4</ele><time>2026-04-04T11:39:00.583Z</time></trkpt><trkpt lat="39.606981" lon="-0.5673305"><ele>107.80000000000001</ele><time>2026-04-04T11:39:01.585Z</time></trkpt><trkpt lat="39.6068925" lon="-0.5672535"><ele>107.19999999999999</ele><time>2026-04-04T11:39:02.585Z</time></trkpt><trkpt lat="39.6068079" lon="-0.5671973"><ele>106.6</ele><time>2026-04-04T11:39:03.584Z</time></trkpt><trkpt lat="39.6067196" lon="-0.5671322"><ele>106.0</ele><time>2026-04-04T11:39:04.586Z</time></trkpt><trkpt lat="39.6066429" lon="-0.5670441"><ele>106.5</ele><time>2026-04-04T11:39:05.583Z</time></trkpt><trkpt lat="39.6065632" lon="-0.5669329"><ele>107.0</ele><time>2026-04-04T11:39:06.585Z</time></trkpt><trkpt lat="39.6064766" lon="-0.5668283"><ele>107.5</ele><time>2026-04-04T11:39:07.584Z</time></trkpt><trkpt lat="39.606377" lon="-0.5667323"><ele>108.0</ele><time>2026-04-04T11:39:08.585Z</time></trkpt><trkpt lat="39.6062683" lon="-0.5666476"><ele>107.5</ele><time>2026-04-04T11:39:09.585Z</time></trkpt><trkpt lat="39.6061501" lon="-0.5665604"><ele>107.0</ele><time>2026-04-04T11:39:10.583Z</time></trkpt><trkpt lat="39.6060268" lon="-0.5664624"><ele>106.5</ele><time>2026-04-04T11:39:11.583Z</time></trkpt><trkpt lat="39.6058944" lon="-0.5663313"><ele>106.0</ele><time>2026-04-04T11:39:12.584Z</time></trkpt><trkpt lat="39.605781" lon="-0.5662046"><ele>106.25</ele><time>2026-04-04T11:39:13.583Z</time></trkpt><trkpt lat="39.6056703" lon="-0.5660866"><ele>106.5</ele><time>2026-04-04T11:39:14.584Z</time></trkpt><trkpt lat="39.6055697" lon="-0.5659806"><ele>106.75</ele><time>2026-04-04T11:39:15.584Z</time></trkpt><trkpt lat="39.6054779" lon="-0.5658837"><ele>107.0</ele><time>2026-04-04T11:39:16.584Z</time></trkpt><trkpt lat="39.6053985" lon="-0.5657965"><ele>107.0</ele><time>2026-04-04T11:39:17.586Z</time></trkpt><trkpt lat="39.6053251" lon="-0.5657152"><ele>107.0</ele><time>2026-04-04T11:39:18.585Z</time></trkpt><trkpt lat="39.6052353" lon="-0.5656111"><ele>107.0</ele><time>2026-04-04T11:39:19.584Z</time></trkpt><trkpt lat="39.6051258" lon="-0.56548"><ele>107.0</ele><time>2026-04-04T11:39:20.584Z</time></trkpt><trkpt lat="39.6049885" lon="-0.5653348"><ele>107.0</ele><time>2026-04-04T11:39:21.583Z</time></trkpt><trkpt lat="39.6048275" lon="-0.5651835"><ele>107.0</ele><time>2026-04-04T11:39:22.585Z</time></trkpt><trkpt lat="39.6046618" lon="-0.5650262"><ele>107.0</ele><time>2026-04-04T11:39:23.585Z</time></trkpt><trkpt lat="39.6045199" lon="-0.5648755"><ele>106.75</ele><time>2026-04-04T11:39:24.583Z</time></trkpt><trkpt lat="39.6043854" lon="-0.564748"><ele>106.5</ele><time>2026-04-04T11:39:25.583Z</time></trkpt><trkpt lat="39.6042726" lon="-0.5646379"><ele>106.25</ele><time>2026-04-04T11:39:26.584Z</time></trkpt><trkpt lat="39.6041661" lon="-0.5645397"><ele>106.0</ele><time>2026-04-04T11:39:27.583Z</time></trkpt><trkpt lat="39.6040716" lon="-0.5644732"><ele>106.00000000000001</ele><time>2026-04-04T11:39:28.585Z</time></trkpt><trkpt lat="39.6039827" lon="-0.5644234"><ele>106.0</ele><time>2026-04-04T11:39:29.585Z</time></trkpt><trkpt lat="39.6038977" lon="-0.5643945"><ele>106.0</ele><time>2026-04-04T11:39:30.585Z</time></trkpt><trkpt lat="39.6038086" lon="-0.5643923"><ele>106.0</ele><time>2026-04-04T11:39:31.584Z</time></trkpt><trkpt lat="39.6037249" lon="-0.564408"><ele>106.00000000000001</ele><time>2026-04-04T11:39:32.585Z</time></trkpt><trkpt lat="39.6036491" lon="-0.5643944"><ele>106.0</ele><time>2026-04-04T11:39:33.583Z</time></trkpt><trkpt lat="39.6035846" lon="-0.5643465"><ele>105.66666666666667</ele><time>2026-04-04T11:39:34.584Z</time></trkpt><trkpt lat="39.6035312" lon="-0.5642772"><ele>105.33333333333334</ele><time>2026-04-04T11:39:35.585Z</time></trkpt><trkpt lat="39.603497" lon="-0.5641742"><ele>105.0</ele><time>2026-04-04T11:39:36.585Z</time></trkpt><trkpt lat="39.6034808" lon="-0.5640578"><ele>104.66666666666666</ele><time>2026-04-04T11:39:37.583Z</time></trkpt><trkpt lat="39.6034544" lon="-0.563965"><ele>104.33333333333333</ele><time>2026-04-04T11:39:38.584Z</time></trkpt><trkpt lat="39.6033992" lon="-0.5638705"><ele>104.0</ele><time>2026-04-04T11:39:39.584Z</time></trkpt><trkpt lat="39.603316" lon="-0.5637655"><ele>104.0</ele><time>2026-04-04T11:39:40.584Z</time></trkpt><trkpt lat="39.6031998" lon="-0.5636411"><ele>104.0</ele><time>2026-04-04T11:39:41.584Z</time></trkpt><trkpt lat="39.6030572" lon="-0.5635098"><ele>104.0</ele><time>2026-04-04T11:39:42.584Z</time></trkpt><trkpt lat="39.6029064" lon="-0.563371"><ele>103.66666666666666</ele><time>2026-04-04T11:39:43.584Z</time></trkpt><trkpt lat="39.6027379" lon="-0.5632238"><ele>103.33333333333334</ele><time>2026-04-04T11:39:44.583Z</time></trkpt><trkpt lat="39.6025583" lon="-0.5630629"><ele>103.0</ele><time>2026-04-04T11:39:45.583Z</time></trkpt><trkpt lat="39.6023791" lon="-0.5628989"><ele>104.5</ele><time>2026-04-04T11:39:46.585Z</time></trkpt><trkpt lat="39.6021885" lon="-0.5627239"><ele>106.0</ele><time>2026-04-04T11:39:47.584Z</time></trkpt><trkpt lat="39.6020034" lon="-0.5625522"><ele>105.33333333333334</ele><time>2026-04-04T11:39:48.585Z</time></trkpt><trkpt lat="39.6018269" lon="-0.5623878"><ele>104.66666666666666</ele><time>2026-04-04T11:39:49.585Z</time></trkpt><trkpt lat="39.6016477" lon="-0.5622216"><ele>104.0</ele><time>2026-04-04T11:39:50.585Z</time></trkpt><trkpt lat="39.601465" lon="-0.5620605"><ele>104.33333333333333</ele><time>2026-04-04T11:39:51.584Z</time></trkpt><trkpt lat="39.6012742" lon="-0.5618807"><ele>104.66666666666666</ele><time>2026-04-04T11:39:52.585Z</time></trkpt><trkpt lat="39.6011049" lon="-0.5617216"><ele>105.0</ele><time>2026-04-04T11:39:53.583Z</time></trkpt><trkpt lat="39.6009429" lon="-0.5615717"><ele>104.66666666666666</ele><time>2026-04-04T11:39:54.583Z</time></trkpt><trkpt lat="39.6007965" lon="-0.5614333"><ele>104.33333333333333</ele><time>2026-04-04T11:39:55.585Z</time></trkpt><trkpt lat="39.6006678" lon="-0.5613079"><ele>104.0</ele><time>2026-04-04T11:39:56.583Z</time></trkpt><trkpt lat="39.6005443" lon="-0.561198"><ele>104.0</ele><time>2026-04-04T11:39:57.586Z</time></trkpt><trkpt lat="39.6004249" lon="-0.5610862"><ele>104.0</ele><time>2026-04-04T11:39:58.584Z</time></trkpt><trkpt lat="39.6003099" lon="-0.5609719"><ele>104.0</ele><time>2026-04-04T11:39:59.584Z</time></trkpt><trkpt lat="39.6001918" lon="-0.5608597"><ele>104.0</ele><time>2026-04-04T11:40:00.584Z</time></trkpt><trkpt lat="39.6000874" lon="-0.5607578"><ele>103.0</ele><time>2026-04-04T11:40:01.583Z</time></trkpt><trkpt lat="39.5999777" lon="-0.5606525"><ele>102.0</ele><time>2026-04-04T11:40:02.584Z</time></trkpt><trkpt lat="39.5998756" lon="-0.5605613"><ele>101.0</ele><time>2026-04-04T11:40:03.584Z</time></trkpt><trkpt lat="39.5997787" lon="-0.5604684"><ele>100.0</ele><time>2026-04-04T11:40:04.583Z</time></trkpt><trkpt lat="39.5996732" lon="-0.5603714"><ele>100.6</ele><time>2026-04-04T11:40:05.585Z</time></trkpt><trkpt lat="39.5995729" lon="-0.5602862"><ele>101.2</ele><time>2026-04-04T11:40:06.583Z</time></trkpt><trkpt lat="39.5994778" lon="-0.5601984"><ele>101.80000000000001</ele><time>2026-04-04T11:40:07.585Z</time></trkpt><trkpt lat="39.5993946" lon="-0.5601247"><ele>102.4</ele><time>2026-04-04T11:40:08.585Z</time></trkpt><trkpt lat="39.5993315" lon="-0.560064"><ele>103.0</ele><time>2026-04-04T11:40:09.584Z</time></trkpt><trkpt lat="39.5992763" lon="-0.5600144"><ele>102.99999999999999</ele><time>2026-04-04T11:40:10.585Z</time></trkpt><trkpt lat="39.5992188" lon="-0.5599738"><ele>103.0</ele><time>2026-04-04T11:40:11.586Z</time></trkpt><trkpt lat="39.5991503" lon="-0.5599381"><ele>103.0</ele><time>2026-04-04T11:40:12.585Z</time></trkpt><trkpt lat="39.5990786" lon="-0.5599047"><ele>103.0</ele><time>2026-04-04T11:40:13.585Z</time></trkpt><trkpt lat="39.5990024" lon="-0.5598848"><ele>103.0</ele><time>2026-04-04T11:40:14.584Z</time></trkpt><trkpt lat="39.5989373" lon="-0.5598777"><ele>102.99999999999999</ele><time>2026-04-04T11:40:15.583Z</time></trkpt><trkpt lat="39.598872" lon="-0.5598779"><ele>103.0</ele><time>2026-04-04T11:40:16.584Z</time></trkpt><trkpt lat="39.5987991" lon="-0.5598966"><ele>103.00000000000001</ele><time>2026-04-04T11:40:17.584Z</time></trkpt><trkpt lat="39.5987341" lon="-0.559904"><ele>103.0</ele><time>2026-04-04T11:40:18.584Z</time></trkpt><trkpt lat="39.5986519" lon="-0.5599126"><ele>103.0</ele><time>2026-04-04T11:40:19.585Z</time></trkpt><trkpt lat="39.598568" lon="-0.5599017"><ele>103.0</ele><time>2026-04-04T11:40:20.585Z</time></trkpt><trkpt lat="39.5984957" lon="-0.5598625"><ele>103.00000000000001</ele><time>2026-04-04T11:40:21.585Z</time></trkpt><trkpt lat="39.5984385" lon="-0.5598038"><ele>103.0</ele><time>2026-04-04T11:40:22.585Z</time></trkpt><trkpt lat="39.5983941" lon="-0.5597272"><ele>103.00000000000001</ele><time>2026-04-04T11:40:23.584Z</time></trkpt><trkpt lat="39.598366" lon="-0.5596304"><ele>103.0</ele><time>2026-04-04T11:40:24.584Z</time></trkpt><trkpt lat="39.5983577" lon="-0.5595361"><ele>103.0</ele><time>2026-04-04T11:40:25.584Z</time></trkpt><trkpt lat="39.5983478" lon="-0.5594329"><ele>103.0</ele><time>2026-04-04T11:40:26.584Z</time></trkpt><trkpt lat="39.5983231" lon="-0.5593342"><ele>103.00000000000001</ele><time>2026-04-04T11:40:27.584Z</time></trkpt><trkpt lat="39.5982835" lon="-0.5592285"><ele>103.0</ele><time>2026-04-04T11:40:28.585Z</time></trkpt><trkpt lat="39.5982392" lon="-0.5591405"><ele>103.00000000000001</ele><time>2026-04-04T11:40:29.585Z</time></trkpt><trkpt lat="39.5981751" lon="-0.5590472"><ele>103.0</ele><time>2026-04-04T11:40:30.584Z</time></trkpt><trkpt lat="39.5981049" lon="-0.5589612"><ele>103.0</ele><time>2026-04-04T11:40:31.584Z</time></trkpt><trkpt lat="39.5980377" lon="-0.5588848"><ele>103.0</ele><time>2026-04-04T11:40:32.584Z</time></trkpt><trkpt lat="39.5979786" lon="-0.5588213"><ele>103.00000000000001</ele><time>2026-04-04T11:40:33.585Z</time></trkpt><trkpt lat="39.5979169" lon="-0.5587605"><ele>103.0</ele><time>2026-04-04T11:40:34.585Z</time></trkpt><trkpt lat="39.5978132" lon="-0.5586502"><ele>103.50000000000001</ele><time>2026-04-04T11:40:36.583Z</time></trkpt><trkpt lat="39.5977654" lon="-0.5585639"><ele>104.0</ele><time>2026-04-04T11:40:37.585Z</time></trkpt><trkpt lat="39.5977275" lon="-0.5584779"><ele>104.5</ele><time>2026-04-04T11:40:38.585Z</time></trkpt><trkpt lat="39.5976737" lon="-0.5583682"><ele>105.0</ele><time>2026-04-04T11:40:40.584Z</time></trkpt><trkpt lat="39.5976529" lon="-0.5582891"><ele>105.50000000000001</ele><time>2026-04-04T11:40:42.584Z</time></trkpt><trkpt lat="39.5976463" lon="-0.5581801"><ele>106.0</ele><time>2026-04-04T11:40:44.583Z</time></trkpt><trkpt lat="39.5976342" lon="-0.558087"><ele>106.0</ele><time>2026-04-04T11:40:47.584Z</time></trkpt><trkpt lat="39.5976484" lon="-0.558001"><ele>106.0</ele><time>2026-04-04T11:40:50.583Z</time></trkpt></trkseg></trk></gpx>